<?xml version='1.0' encoding='UTF-8'?><gpx version="1.1" creator="JPX - https://github.com/jenetics/jpx" xmlns="http://www.topografix.com/GPX/1/1"><trk><trkseg><trkpt lat="42.1477026982529" lon="14.693639646426323"><ele>79.0</ele><time>2026-03-22T09:50:32Z</time></trkpt><trkpt lat="42.14775060042801" lon="14.69370610348414"><ele>79.0</ele><time>2026-03-22T09:50:33Z</time></trkpt><trkpt lat="42.14784387486067" lon="14.693803977322936"><ele>79.0</ele><time>2026-03-22T09:50:34Z</time></trkpt><trkpt lat="42.147953718735245" lon="14.693928644668956"><ele>79.0</ele><time>2026-03-22T09:50:35Z</time></trkpt><trkpt lat="42.14805943320176" lon="14.694088105619683"><ele>79.0</ele><time>2026-03-22T09:50:35.999Z</time></trkpt><trkpt lat="42.14815794370403" lon="14.69422536801378"><ele>79.0</ele><time>2026-03-22T09:50:36.999Z</time></trkpt><trkpt lat="42.14823103998484" lon="14.694344277344628"><ele>79.0</ele><time>2026-03-22T09:50:37.999Z</time></trkpt><trkpt lat="42.14827718808377" lon="14.694441390065219"><ele>79.0</ele><time>2026-03-22T09:50:38.999Z</time></trkpt><trkpt lat="42.14832825662797" lon="14.694512627116872"><ele>79.0</ele><time>2026-03-22T09:50:39.999Z</time></trkpt><trkpt lat="42.14836925099912" lon="14.694628225632952"><ele>79.80000000000001</ele><time>2026-03-22T09:50:40.999Z</time></trkpt><trkpt lat="42.14845131205099" lon="14.694739700233288"><ele>80.60000000000001</ele><time>2026-03-22T09:50:41.999Z</time></trkpt><trkpt lat="42.148513125435834" lon="14.694851427809677"><ele>81.4</ele><time>2026-03-22T09:50:42.999Z</time></trkpt><trkpt lat="42.1485726400448" lon="14.694960056378678"><ele>82.2</ele><time>2026-03-22T09:50:43.999Z</time></trkpt><trkpt lat="42.14862154287749" lon="14.69506474615259"><ele>83.0</ele><time>2026-03-22T09:50:44.999Z</time></trkpt><trkpt lat="42.148647726371635" lon="14.695148545878554"><ele>83.0</ele><time>2026-03-22T09:50:45.999Z</time></trkpt><trkpt lat="42.148681151248645" lon="14.695245821319487"><ele>83.0</ele><time>2026-03-22T09:50:47.999Z</time></trkpt><trkpt lat="42.148710257890876" lon="14.695345384767068"><ele>83.0</ele><time>2026-03-22T09:50:53.999Z</time></trkpt><trkpt lat="42.14861609207606" lon="14.695381307233172"><ele>83.0</ele><time>2026-03-22T09:50:54.999Z</time></trkpt><trkpt lat="42.14853290036718" lon="14.695440261839007"><ele>83.0</ele><time>2026-03-22T09:50:55.999Z</time></trkpt><trkpt lat="42.14844506636117" lon="14.695502506274462"><ele>82.75</ele><time>2026-03-22T09:50:56.999Z</time></trkpt><trkpt lat="42.14834099645439" lon="14.695576256370304"><ele>82.5</ele><time>2026-03-22T09:50:57.999Z</time></trkpt><trkpt lat="42.14820293672361" lon="14.69567524617654"><ele>82.25</ele><time>2026-03-22T09:50:58.999Z</time></trkpt><trkpt lat="42.148076364681465" lon="14.695766129985804"><ele>82.0</ele><time>2026-03-22T09:50:59.999Z</time></trkpt><trkpt lat="42.1479589620565" lon="14.695871313046936"><ele>82.0</ele><time>2026-03-22T09:51:00.999Z</time></trkpt><trkpt lat="42.14783722000532" lon="14.69596805264254"><ele>82.0</ele><time>2026-03-22T09:51:01.999Z</time></trkpt><trkpt lat="42.1477123037019" lon="14.696064972730712"><ele>82.0</ele><time>2026-03-22T09:51:02.999Z</time></trkpt><trkpt lat="42.14760007214774" lon="14.69620025217954"><ele>82.0</ele><time>2026-03-22T09:51:03.999Z</time></trkpt><trkpt lat="42.14749094286573" lon="14.696336570326446"><ele>81.0</ele><time>2026-03-22T09:51:04.999Z</time></trkpt><trkpt lat="42.14737656662553" lon="14.696473930727029"><ele>80.0</ele><time>2026-03-22T09:51:05.999Z</time></trkpt><trkpt lat="42.147252532820694" lon="14.696601569604455"><ele>79.0</ele><time>2026-03-22T09:51:06.999Z</time></trkpt><trkpt lat="42.1471281030427" lon="14.696730077035243"><ele>79.0</ele><time>2026-03-22T09:51:07.999Z</time></trkpt><trkpt lat="42.146994479859494" lon="14.69684386283591"><ele>79.0</ele><time>2026-03-22T09:51:08.999Z</time></trkpt><trkpt lat="42.14685806172358" lon="14.696960587952054"><ele>79.0</ele><time>2026-03-22T09:51:09.999Z</time></trkpt><trkpt lat="42.14672481666213" lon="14.697073893973933"><ele>79.25</ele><time>2026-03-22T09:51:10.999Z</time></trkpt><trkpt lat="42.14658902343407" lon="14.697166430349629"><ele>79.5</ele><time>2026-03-22T09:51:11.999Z</time></trkpt><trkpt lat="42.14647900707527" lon="14.697290075633807"><ele>79.75</ele><time>2026-03-22T09:51:12.999Z</time></trkpt><trkpt lat="42.14636372718283" lon="14.697386276360572"><ele>80.0</ele><time>2026-03-22T09:51:13.999Z</time></trkpt><trkpt lat="42.14625715561581" lon="14.69747355095151"><ele>80.0</ele><time>2026-03-22T09:51:14.999Z</time></trkpt><trkpt lat="42.146161018908494" lon="14.697551083436709"><ele>80.0</ele><time>2026-03-22T09:51:15.999Z</time></trkpt><trkpt lat="42.14607218885341" lon="14.69762153954223"><ele>80.0</ele><time>2026-03-22T09:51:16.999Z</time></trkpt><trkpt lat="42.14598973552041" lon="14.697690914873965"><ele>80.0</ele><time>2026-03-22T09:51:17.999Z</time></trkpt><trkpt lat="42.14590717539696" lon="14.697737806795697"><ele>80.0</ele><time>2026-03-22T09:51:18.999Z</time></trkpt><trkpt lat="42.14586179706288" lon="14.69781029507963"><ele>80.4</ele><time>2026-03-22T09:51:19.999Z</time></trkpt><trkpt lat="42.14579148312446" lon="14.697871198803053"><ele>80.8</ele><time>2026-03-22T09:51:21.999Z</time></trkpt><trkpt lat="42.14572711377717" lon="14.697912350509172"><ele>81.19999999999999</ele><time>2026-03-22T09:51:22.999Z</time></trkpt><trkpt lat="42.14561946012276" lon="14.69795126148066"><ele>81.6</ele><time>2026-03-22T09:51:23.999Z</time></trkpt><trkpt lat="42.14548935441149" lon="14.697993966379684"><ele>82.0</ele><time>2026-03-22T09:51:24.999Z</time></trkpt><trkpt lat="42.14536667728236" lon="14.698035043056885"><ele>82.0</ele><time>2026-03-22T09:51:25.999Z</time></trkpt><trkpt lat="42.14524760033485" lon="14.698085072893745"><ele>82.0</ele><time>2026-03-22T09:51:26.999Z</time></trkpt><trkpt lat="42.14513497406016" lon="14.698130819246677"><ele>82.0</ele><time>2026-03-22T09:51:27.999Z</time></trkpt><trkpt lat="42.14502020016763" lon="14.698172344100728"><ele>82.0</ele><time>2026-03-22T09:51:28.999Z</time></trkpt><trkpt lat="42.14490740324702" lon="14.698210916443955"><ele>82.25</ele><time>2026-03-22T09:51:29.999Z</time></trkpt><trkpt lat="42.1447798067556" lon="14.698257192600014"><ele>82.5</ele><time>2026-03-22T09:51:30.999Z</time></trkpt><trkpt lat="42.14464417146176" lon="14.69831302194678"><ele>82.75</ele><time>2026-03-22T09:51:31.999Z</time></trkpt><trkpt lat="42.14449481180919" lon="14.69837195736647"><ele>83.0</ele><time>2026-03-22T09:51:32.999Z</time></trkpt><trkpt lat="42.14434086328833" lon="14.69842801109898"><ele>83.0</ele><time>2026-03-22T09:51:33.999Z</time></trkpt><trkpt lat="42.144190276776705" lon="14.69847550858422"><ele>83.0</ele><time>2026-03-22T09:51:34.999Z</time></trkpt><trkpt lat="42.14404265008243" lon="14.69851023072916"><ele>83.0</ele><time>2026-03-22T09:51:35.999Z</time></trkpt><trkpt lat="42.143891434174876" lon="14.698534301850755"><ele>83.66666666666667</ele><time>2026-03-22T09:51:36.999Z</time></trkpt><trkpt lat="42.143733337281994" lon="14.698552846177277"><ele>84.33333333333333</ele><time>2026-03-22T09:51:37.999Z</time></trkpt><trkpt lat="42.14356976755039" lon="14.698566092194191"><ele>85.0</ele><time>2026-03-22T09:51:38.999Z</time></trkpt><trkpt lat="42.14340491054455" lon="14.698585825537096"><ele>85.33333333333333</ele><time>2026-03-22T09:51:39.999Z</time></trkpt><trkpt lat="42.143243620444785" lon="14.698609740725901"><ele>85.66666666666667</ele><time>2026-03-22T09:51:40.999Z</time></trkpt><trkpt lat="42.143093290733134" lon="14.698626556319583"><ele>86.0</ele><time>2026-03-22T09:51:41.999Z</time></trkpt><trkpt lat="42.142955371093485" lon="14.69864275222006"><ele>86.4</ele><time>2026-03-22T09:51:42.999Z</time></trkpt><trkpt lat="42.14283640024441" lon="14.698654623923945"><ele>86.8</ele><time>2026-03-22T09:51:43.999Z</time></trkpt><trkpt lat="42.142730650141864" lon="14.698670557100332"><ele>87.2</ele><time>2026-03-22T09:51:44.999Z</time></trkpt><trkpt lat="42.14262968196775" lon="14.698685013685806"><ele>87.60000000000001</ele><time>2026-03-22T09:51:45.999Z</time></trkpt><trkpt lat="42.14251832023876" lon="14.698702375136975"><ele>88.0</ele><time>2026-03-22T09:51:46.999Z</time></trkpt><trkpt lat="42.14240382003335" lon="14.698720712559602"><ele>88.75</ele><time>2026-03-22T09:51:47.999Z</time></trkpt><trkpt lat="42.142285328151026" lon="14.698737273001592"><ele>89.5</ele><time>2026-03-22T09:51:48.999Z</time></trkpt><trkpt lat="42.142164551211025" lon="14.698742503238854"><ele>90.25</ele><time>2026-03-22T09:51:49.999Z</time></trkpt><trkpt lat="42.14202677250324" lon="14.698739173345547"><ele>91.0</ele><time>2026-03-22T09:51:50.999Z</time></trkpt><trkpt lat="42.14189805222638" lon="14.69872545196363"><ele>91.0</ele><time>2026-03-22T09:51:51.999Z</time></trkpt><trkpt lat="42.141761289472555" lon="14.698667114790606"><ele>91.0</ele><time>2026-03-22T09:51:52.999Z</time></trkpt><trkpt lat="42.14162373959413" lon="14.698594472695273"><ele>91.0</ele><time>2026-03-22T09:51:53.999Z</time></trkpt><trkpt lat="42.141489259000274" lon="14.698516532763719"><ele>91.0</ele><time>2026-03-22T09:51:54.999Z</time></trkpt><trkpt lat="42.14135728110833" lon="14.698439897562801"><ele>92.0</ele><time>2026-03-22T09:51:55.999Z</time></trkpt><trkpt lat="42.141247082828485" lon="14.69836767383128"><ele>93.0</ele><time>2026-03-22T09:51:56.999Z</time></trkpt><trkpt lat="42.141139561168586" lon="14.698297951982315"><ele>94.0</ele><time>2026-03-22T09:51:57.999Z</time></trkpt><trkpt lat="42.141035086556805" lon="14.698240365897405"><ele>95.0</ele><time>2026-03-22T09:51:58.999Z</time></trkpt><trkpt lat="42.14092525316317" lon="14.69819188361156"><ele>95.0</ele><time>2026-03-22T09:51:59.999Z</time></trkpt><trkpt lat="42.140815007432025" lon="14.698152327497441"><ele>95.0</ele><time>2026-03-22T09:52:00.999Z</time></trkpt><trkpt lat="42.14070525043339" lon="14.698120344880788"><ele>95.0</ele><time>2026-03-22T09:52:01.999Z</time></trkpt><trkpt lat="42.14059599559932" lon="14.698086771876138"><ele>95.0</ele><time>2026-03-22T09:52:02.999Z</time></trkpt><trkpt lat="42.14049566347436" lon="14.698055765232219"><ele>95.0</ele><time>2026-03-22T09:52:03.999Z</time></trkpt><trkpt lat="42.14040754387589" lon="14.698032706934278"><ele>95.6</ele><time>2026-03-22T09:52:05Z</time></trkpt><trkpt lat="42.14031814272522" lon="14.698004845018385"><ele>96.2</ele><time>2026-03-22T09:52:06Z</time></trkpt><trkpt lat="42.14021415336734" lon="14.697971316688431"><ele>96.80000000000001</ele><time>2026-03-22T09:52:07Z</time></trkpt><trkpt lat="42.140098360619014" lon="14.697928476732717"><ele>97.4</ele><time>2026-03-22T09:52:08Z</time></trkpt><trkpt lat="42.139972658040826" lon="14.697895103778581"><ele>98.0</ele><time>2026-03-22T09:52:09Z</time></trkpt><trkpt lat="42.13984408711438" lon="14.697858527978633"><ele>99.0</ele><time>2026-03-22T09:52:10Z</time></trkpt><trkpt lat="42.13972291402387" lon="14.697821121660398"><ele>100.0</ele><time>2026-03-22T09:52:11Z</time></trkpt><trkpt lat="42.13960859046569" lon="14.69778437350098"><ele>101.0</ele><time>2026-03-22T09:52:12Z</time></trkpt><trkpt lat="42.13949875366041" lon="14.697748723673277"><ele>102.0</ele><time>2026-03-22T09:52:13Z</time></trkpt><trkpt lat="42.13938312328433" lon="14.69771493905037"><ele>102.5</ele><time>2026-03-22T09:52:14Z</time></trkpt><trkpt lat="42.139266992990144" lon="14.697674460720147"><ele>103.0</ele><time>2026-03-22T09:52:15Z</time></trkpt><trkpt lat="42.139147466559656" lon="14.69764364463998"><ele>103.5</ele><time>2026-03-22T09:52:16Z</time></trkpt><trkpt lat="42.13903512800093" lon="14.697614191413848"><ele>104.0</ele><time>2026-03-22T09:52:17Z</time></trkpt><trkpt lat="42.13893589520697" lon="14.697597179747696"><ele>104.6</ele><time>2026-03-22T09:52:18Z</time></trkpt><trkpt lat="42.138843532172146" lon="14.697566105566823"><ele>105.2</ele><time>2026-03-22T09:52:19Z</time></trkpt><trkpt lat="42.138727442837606" lon="14.697603811631868"><ele>105.79999999999998</ele><time>2026-03-22T09:52:20Z</time></trkpt><trkpt lat="42.13862866296762" lon="14.697617318079631"><ele>106.39999999999999</ele><time>2026-03-22T09:52:21Z</time></trkpt><trkpt lat="42.13853034599974" lon="14.69763083256909"><ele>107.0</ele><time>2026-03-22T09:52:22Z</time></trkpt><trkpt lat="42.13844052952693" lon="14.697641759627112"><ele>106.99999999999999</ele><time>2026-03-22T09:52:23Z</time></trkpt><trkpt lat="42.13832584354951" lon="14.697657393134783"><ele>107.0</ele><time>2026-03-22T09:52:25Z</time></trkpt><trkpt lat="42.13825899815295" lon="14.697669704474764"><ele>107.0</ele><time>2026-03-22T09:52:26Z</time></trkpt><trkpt lat="42.138182397265304" lon="14.697681297181143"><ele>107.0</ele><time>2026-03-22T09:52:27Z</time></trkpt><trkpt lat="42.13810295003478" lon="14.697690187817841"><ele>106.99999999999999</ele><time>2026-03-22T09:52:28Z</time></trkpt><trkpt lat="42.13802390046909" lon="14.697696747516526"><ele>107.0</ele><time>2026-03-22T09:52:28.999Z</time></trkpt><trkpt lat="42.137946297016086" lon="14.697705030815506"><ele>106.83333333333333</ele><time>2026-03-22T09:52:29.999Z</time></trkpt><trkpt lat="42.13786477773587" lon="14.697712093867212"><ele>106.66666666666666</ele><time>2026-03-22T09:52:30.999Z</time></trkpt><trkpt lat="42.13778485714939" lon="14.69772384854495"><ele>106.5</ele><time>2026-03-22T09:52:31.999Z</time></trkpt><trkpt lat="42.13770410756566" lon="14.697734364129051"><ele>106.33333333333334</ele><time>2026-03-22T09:52:32.999Z</time></trkpt><trkpt lat="42.13761871871042" lon="14.69774496016051"><ele>106.16666666666667</ele><time>2026-03-22T09:52:33.999Z</time></trkpt><trkpt lat="42.13752630652854" lon="14.697751562528296"><ele>106.0</ele><time>2026-03-22T09:52:34.999Z</time></trkpt><trkpt lat="42.137449843722855" lon="14.697775628252177"><ele>106.0</ele><time>2026-03-22T09:52:35.999Z</time></trkpt><trkpt lat="42.137369540517724" lon="14.697782543467852"><ele>106.0</ele><time>2026-03-22T09:52:36.999Z</time></trkpt><trkpt lat="42.13728399353733" lon="14.697800061235707"><ele>106.0</ele><time>2026-03-22T09:52:37.999Z</time></trkpt><trkpt lat="42.137195793846494" lon="14.697811444719978"><ele>106.0</ele><time>2026-03-22T09:52:38.999Z</time></trkpt><trkpt lat="42.137097650334915" lon="14.697822755751146"><ele>106.0</ele><time>2026-03-22T09:52:39.999Z</time></trkpt><trkpt lat="42.13699568841275" lon="14.697824920101612"><ele>106.0</ele><time>2026-03-22T09:52:40.999Z</time></trkpt><trkpt lat="42.136894408843766" lon="14.697838748005877"><ele>106.0</ele><time>2026-03-22T09:52:41.999Z</time></trkpt><trkpt lat="42.13678119738577" lon="14.697846961416612"><ele>106.0</ele><time>2026-03-22T09:52:42.999Z</time></trkpt><trkpt lat="42.13666389341778" lon="14.697862045682895"><ele>106.0</ele><time>2026-03-22T09:52:43.999Z</time></trkpt><trkpt lat="42.13655408399131" lon="14.697870138812315"><ele>106.0</ele><time>2026-03-22T09:52:44.999Z</time></trkpt><trkpt lat="42.136440125704354" lon="14.69789515920271"><ele>106.75</ele><time>2026-03-22T09:52:45.999Z</time></trkpt><trkpt lat="42.13632790500148" lon="14.697908867860914"><ele>107.5</ele><time>2026-03-22T09:52:46.999Z</time></trkpt><trkpt lat="42.136215679161005" lon="14.697926435437322"><ele>108.25</ele><time>2026-03-22T09:52:47.999Z</time></trkpt><trkpt lat="42.13609603331026" lon="14.697940627459188"><ele>109.0</ele><time>2026-03-22T09:52:48.999Z</time></trkpt><trkpt lat="42.13596285783733" lon="14.697969685460494"><ele>109.0</ele><time>2026-03-22T09:52:49.999Z</time></trkpt><trkpt lat="42.135821387344606" lon="14.698019132532142"><ele>109.0</ele><time>2026-03-22T09:52:50.999Z</time></trkpt><trkpt lat="42.13568351108803" lon="14.698089827804267"><ele>109.0</ele><time>2026-03-22T09:52:51.999Z</time></trkpt><trkpt lat="42.13553791051368" lon="14.698169576890558"><ele>110.66666666666667</ele><time>2026-03-22T09:52:52.999Z</time></trkpt><trkpt lat="42.13538100300692" lon="14.698243273330128"><ele>112.33333333333334</ele><time>2026-03-22T09:52:53.999Z</time></trkpt><trkpt lat="42.13522696942596" lon="14.698318403244471"><ele>114.0</ele><time>2026-03-22T09:52:54.999Z</time></trkpt><trkpt lat="42.1350775427365" lon="14.69835804132786"><ele>114.0</ele><time>2026-03-22T09:52:55.999Z</time></trkpt><trkpt lat="42.134926240094664" lon="14.698429352982338"><ele>114.0</ele><time>2026-03-22T09:52:56.999Z</time></trkpt><trkpt lat="42.13477435980151" lon="14.698500937038068"><ele>114.0</ele><time>2026-03-22T09:52:57.999Z</time></trkpt><trkpt lat="42.134629903932066" lon="14.698570057713438"><ele>113.75</ele><time>2026-03-22T09:52:58.999Z</time></trkpt><trkpt lat="42.13450592921807" lon="14.698652024522518"><ele>113.5</ele><time>2026-03-22T09:52:59.999Z</time></trkpt><trkpt lat="42.134384723086384" lon="14.698686393677452"><ele>113.25</ele><time>2026-03-22T09:53:00.999Z</time></trkpt><trkpt lat="42.13426461156685" lon="14.698738402295891"><ele>113.0</ele><time>2026-03-22T09:53:01.999Z</time></trkpt><trkpt lat="42.13414048541916" lon="14.69880683325671"><ele>114.0</ele><time>2026-03-22T09:53:02.999Z</time></trkpt><trkpt lat="42.13399452160518" lon="14.698831573089036"><ele>115.0</ele><time>2026-03-22T09:53:03.999Z</time></trkpt><trkpt lat="42.13385236302679" lon="14.698868752272462"><ele>116.0</ele><time>2026-03-22T09:53:04.999Z</time></trkpt><trkpt lat="42.1337222511397" lon="14.698913711218337"><ele>117.0</ele><time>2026-03-22T09:53:05.999Z</time></trkpt><trkpt lat="42.13360872605949" lon="14.698930045071421"><ele>117.0</ele><time>2026-03-22T09:53:06.999Z</time></trkpt><trkpt lat="42.13349944917079" lon="14.698951608788711"><ele>117.0</ele><time>2026-03-22T09:53:07.999Z</time></trkpt><trkpt lat="42.13338274703542" lon="14.698969644345427"><ele>117.0</ele><time>2026-03-22T09:53:08.999Z</time></trkpt><trkpt lat="42.13326669094586" lon="14.698999729298574"><ele>117.0</ele><time>2026-03-22T09:53:09.999Z</time></trkpt><trkpt lat="42.133144740854775" lon="14.699021749358083"><ele>117.5</ele><time>2026-03-22T09:53:10.999Z</time></trkpt><trkpt lat="42.13301676091168" lon="14.699048271738997"><ele>118.0</ele><time>2026-03-22T09:53:11.999Z</time></trkpt><trkpt lat="42.13288520963276" lon="14.69907771867571"><ele>118.5</ele><time>2026-03-22T09:53:12.999Z</time></trkpt><trkpt lat="42.1327593014952" lon="14.699102550129659"><ele>119.0</ele><time>2026-03-22T09:53:13.999Z</time></trkpt><trkpt lat="42.13262940479375" lon="14.699132804057323"><ele>119.0</ele><time>2026-03-22T09:53:14.999Z</time></trkpt><trkpt lat="42.1324994423528" lon="14.699163008110563"><ele>119.0</ele><time>2026-03-22T09:53:15.999Z</time></trkpt><trkpt lat="42.13237420058688" lon="14.699184175202067"><ele>119.0</ele><time>2026-03-22T09:53:16.999Z</time></trkpt><trkpt lat="42.13226196227492" lon="14.699210448259889"><ele>119.0</ele><time>2026-03-22T09:53:17.999Z</time></trkpt><trkpt lat="42.13216466543888" lon="14.69922690627319"><ele>119.33333333333333</ele><time>2026-03-22T09:53:18.999Z</time></trkpt><trkpt lat="42.13208442911589" lon="14.699248586642712"><ele>119.66666666666666</ele><time>2026-03-22T09:53:19.999Z</time></trkpt><trkpt lat="42.13200215370551" lon="14.699275577922059"><ele>120.0</ele><time>2026-03-22T09:53:20.999Z</time></trkpt><trkpt lat="42.13192546474276" lon="14.699306191077474"><ele>120.33333333333334</ele><time>2026-03-22T09:53:21.999Z</time></trkpt><trkpt lat="42.13182722260494" lon="14.699334962985544"><ele>120.66666666666667</ele><time>2026-03-22T09:53:22.999Z</time></trkpt><trkpt lat="42.131741076526275" lon="14.699364871761002"><ele>121.0</ele><time>2026-03-22T09:53:23.999Z</time></trkpt><trkpt lat="42.13165885178683" lon="14.699407656169814"><ele>120.50000000000001</ele><time>2026-03-22T09:53:24.999Z</time></trkpt><trkpt lat="42.13157574476971" lon="14.699440883857577"><ele>120.0</ele><time>2026-03-22T09:53:25.999Z</time></trkpt><trkpt lat="42.13149493490244" lon="14.699474849105115"><ele>119.5</ele><time>2026-03-22T09:53:26.999Z</time></trkpt><trkpt lat="42.13141543967502" lon="14.69951676110005"><ele>119.0</ele><time>2026-03-22T09:53:27.999Z</time></trkpt><trkpt lat="42.13133803585274" lon="14.699554225753342"><ele>118.50000000000001</ele><time>2026-03-22T09:53:28.999Z</time></trkpt><trkpt lat="42.131257797336765" lon="14.699583756186847"><ele>118.0</ele><time>2026-03-22T09:53:29.999Z</time></trkpt><trkpt lat="42.13117547758994" lon="14.699625901298981"><ele>118.00000000000001</ele><time>2026-03-22T09:53:30.999Z</time></trkpt><trkpt lat="42.1311010906925" lon="14.699651167117079"><ele>118.0</ele><time>2026-03-22T09:53:31.999Z</time></trkpt><trkpt lat="42.13103034944153" lon="14.699677543299208"><ele>118.0</ele><time>2026-03-22T09:53:32.999Z</time></trkpt><trkpt lat="42.13095661797329" lon="14.69971158092531"><ele>118.0</ele><time>2026-03-22T09:53:33.999Z</time></trkpt><trkpt lat="42.130881605967275" lon="14.699741054465235"><ele>118.00000000000001</ele><time>2026-03-22T09:53:34.999Z</time></trkpt><trkpt lat="42.130809044059724" lon="14.699772955652957"><ele>118.0</ele><time>2026-03-22T09:53:35.999Z</time></trkpt><trkpt lat="42.130726322234736" lon="14.699803440686079"><ele>118.60000000000001</ele><time>2026-03-22T09:53:36.999Z</time></trkpt><trkpt lat="42.13063570755837" lon="14.699846548123508"><ele>119.20000000000002</ele><time>2026-03-22T09:53:37.999Z</time></trkpt><trkpt lat="42.13054353938129" lon="14.699886408417154"><ele>119.8</ele><time>2026-03-22T09:53:38.999Z</time></trkpt><trkpt lat="42.13044678020788" lon="14.699927447065916"><ele>120.4</ele><time>2026-03-22T09:53:39.999Z</time></trkpt><trkpt lat="42.130344657877586" lon="14.69997156185165"><ele>121.0</ele><time>2026-03-22T09:53:40.999Z</time></trkpt><trkpt lat="42.13024325267829" lon="14.700025099459213"><ele>121.00000000000001</ele><time>2026-03-22T09:53:41.999Z</time></trkpt><trkpt lat="42.13014598732961" lon="14.700083195881561"><ele>121.0</ele><time>2026-03-22T09:53:42.999Z</time></trkpt><trkpt lat="42.13005190047494" lon="14.700138918687962"><ele>121.0</ele><time>2026-03-22T09:53:43.999Z</time></trkpt><trkpt lat="42.12997456414732" lon="14.700192290874153"><ele>121.0</ele><time>2026-03-22T09:53:44.999Z</time></trkpt><trkpt lat="42.129913226423966" lon="14.700233620841631"><ele>121.00000000000001</ele><time>2026-03-22T09:53:45.999Z</time></trkpt><trkpt lat="42.1298470866468" lon="14.700284297611576"><ele>121.0</ele><time>2026-03-22T09:53:46.999Z</time></trkpt><trkpt lat="42.12977129792125" lon="14.700336076892548"><ele>121.4</ele><time>2026-03-22T09:53:47.999Z</time></trkpt><trkpt lat="42.12969117802515" lon="14.70038054869284"><ele>121.8</ele><time>2026-03-22T09:53:48.999Z</time></trkpt><trkpt lat="42.12961654249352" lon="14.700457668280169"><ele>122.20000000000002</ele><time>2026-03-22T09:53:49.999Z</time></trkpt><trkpt lat="42.129536610611126" lon="14.700523269628217"><ele>122.60000000000001</ele><time>2026-03-22T09:53:50.999Z</time></trkpt><trkpt lat="42.12945302265224" lon="14.700579174160518"><ele>123.0</ele><time>2026-03-22T09:53:51.999Z</time></trkpt><trkpt lat="42.129364506506796" lon="14.700645748362502"><ele>123.0</ele><time>2026-03-22T09:53:52.999Z</time></trkpt><trkpt lat="42.129268105536745" lon="14.700705585440572"><ele>123.00000000000001</ele><time>2026-03-22T09:53:53.999Z</time></trkpt><trkpt lat="42.12917670478323" lon="14.700780454191374"><ele>123.00000000000001</ele><time>2026-03-22T09:53:54.999Z</time></trkpt><trkpt lat="42.12909074066278" lon="14.700840861223663"><ele>123.0</ele><time>2026-03-22T09:53:55.999Z</time></trkpt><trkpt lat="42.129015163191305" lon="14.700899780950474"><ele>123.0</ele><time>2026-03-22T09:53:56.999Z</time></trkpt><trkpt lat="42.12895128302489" lon="14.700944950617421"><ele>123.66666666666667</ele><time>2026-03-22T09:53:57.999Z</time></trkpt><trkpt lat="42.128875247021675" lon="14.700978186138519"><ele>124.33333333333334</ele><time>2026-03-22T09:53:58.999Z</time></trkpt><trkpt lat="42.12880786764525" lon="14.70102697048826"><ele>125.0</ele><time>2026-03-22T09:53:59.999Z</time></trkpt><trkpt lat="42.12874596422947" lon="14.701060857805782"><ele>125.66666666666667</ele><time>2026-03-22T09:54:00.999Z</time></trkpt><trkpt lat="42.128629889161516" lon="14.701077753183641"><ele>126.33333333333334</ele><time>2026-03-22T09:54:02.999Z</time></trkpt><trkpt lat="42.128578963832965" lon="14.701024933874423"><ele>127.0</ele><time>2026-03-22T09:54:03.999Z</time></trkpt><trkpt lat="42.1285191928449" lon="14.70099690215448"><ele>127.0</ele><time>2026-03-22T09:54:04.999Z</time></trkpt><trkpt lat="42.128492215381584" lon="14.700842256778012"><ele>126.99999999999999</ele><time>2026-03-22T09:54:05.999Z</time></trkpt><trkpt lat="42.1284436049308" lon="14.70072649106327"><ele>126.99999999999999</ele><time>2026-03-22T09:54:06.999Z</time></trkpt><trkpt lat="42.128353509913026" lon="14.700631786789478"><ele>127.0</ele><time>2026-03-22T09:54:07.999Z</time></trkpt><trkpt lat="42.12829249894922" lon="14.70051011571731"><ele>127.0</ele><time>2026-03-22T09:54:08.999Z</time></trkpt><trkpt lat="42.12821381726347" lon="14.700435142686713"><ele>127.6</ele><time>2026-03-22T09:54:10Z</time></trkpt><trkpt lat="42.12812782359196" lon="14.700371300489229"><ele>128.2</ele><time>2026-03-22T09:54:11Z</time></trkpt><trkpt lat="42.1280228704764" lon="14.700327411555175"><ele>128.8</ele><time>2026-03-22T09:54:12Z</time></trkpt><trkpt lat="42.12791719015841" lon="14.7002907183419"><ele>129.4</ele><time>2026-03-22T09:54:13Z</time></trkpt><trkpt lat="42.12780723066747" lon="14.700270464738022"><ele>130.0</ele><time>2026-03-22T09:54:14Z</time></trkpt><trkpt lat="42.12769513213105" lon="14.700261136766711"><ele>130.0</ele><time>2026-03-22T09:54:15Z</time></trkpt><trkpt lat="42.12758156102564" lon="14.700261938550922"><ele>130.0</ele><time>2026-03-22T09:54:16Z</time></trkpt><trkpt lat="42.127470475021326" lon="14.70027767300455"><ele>130.0</ele><time>2026-03-22T09:54:17Z</time></trkpt><trkpt lat="42.127364557127045" lon="14.700286222038558"><ele>130.0</ele><time>2026-03-22T09:54:18Z</time></trkpt><trkpt lat="42.127257887158535" lon="14.700286014889857"><ele>130.0</ele><time>2026-03-22T09:54:19Z</time></trkpt><trkpt lat="42.12716333205633" lon="14.700291497463628"><ele>130.66666666666669</ele><time>2026-03-22T09:54:20Z</time></trkpt><trkpt lat="42.12707573911199" lon="14.700294058157663"><ele>131.33333333333334</ele><time>2026-03-22T09:54:21Z</time></trkpt><trkpt lat="42.12700169976645" lon="14.700295762805098"><ele>132.0</ele><time>2026-03-22T09:54:22Z</time></trkpt><trkpt lat="42.12692923563876" lon="14.700297725188504"><ele>132.66666666666666</ele><time>2026-03-22T09:54:23Z</time></trkpt><trkpt lat="42.12684933232791" lon="14.700296933922468"><ele>133.33333333333331</ele><time>2026-03-22T09:54:24Z</time></trkpt><trkpt lat="42.1267523308777" lon="14.70028938024047"><ele>134.0</ele><time>2026-03-22T09:54:25Z</time></trkpt><trkpt lat="42.126655424121054" lon="14.700288034757781"><ele>134.4</ele><time>2026-03-22T09:54:26Z</time></trkpt><trkpt lat="42.1265474896204" lon="14.700284616551805"><ele>134.8</ele><time>2026-03-22T09:54:27Z</time></trkpt><trkpt lat="42.12644359147593" lon="14.7002697004836"><ele>135.2</ele><time>2026-03-22T09:54:28Z</time></trkpt><trkpt lat="42.12634087531698" lon="14.700255753196071"><ele>135.6</ele><time>2026-03-22T09:54:29Z</time></trkpt><trkpt lat="42.12624061970517" lon="14.700235859932539"><ele>136.0</ele><time>2026-03-22T09:54:30Z</time></trkpt><trkpt lat="42.12614118980552" lon="14.700217042738993"><ele>136.0</ele><time>2026-03-22T09:54:31Z</time></trkpt><trkpt lat="42.126035469555426" lon="14.700197178268281"><ele>136.0</ele><time>2026-03-22T09:54:32Z</time></trkpt><trkpt lat="42.12592828603363" lon="14.700170997792657"><ele>136.0</ele><time>2026-03-22T09:54:33Z</time></trkpt><trkpt lat="42.12581460883362" lon="14.700139558428965"><ele>136.0</ele><time>2026-03-22T09:54:34Z</time></trkpt><trkpt lat="42.12569837321662" lon="14.7001177365493"><ele>136.0</ele><time>2026-03-22T09:54:35Z</time></trkpt><trkpt lat="42.1255812190454" lon="14.700094299764551"><ele>135.6</ele><time>2026-03-22T09:54:36Z</time></trkpt><trkpt lat="42.125468545111524" lon="14.700066607650346"><ele>135.2</ele><time>2026-03-22T09:54:37Z</time></trkpt><trkpt lat="42.1253603289467" lon="14.700041274446239"><ele>134.8</ele><time>2026-03-22T09:54:38Z</time></trkpt><trkpt lat="42.12525496533353" lon="14.700016289110701"><ele>134.4</ele><time>2026-03-22T09:54:39Z</time></trkpt><trkpt lat="42.12515061829148" lon="14.699991411912553"><ele>134.0</ele><time>2026-03-22T09:54:40Z</time></trkpt><trkpt lat="42.1250576651605" lon="14.699972851824628"><ele>134.0</ele><time>2026-03-22T09:54:41Z</time></trkpt><trkpt lat="42.12496385757743" lon="14.699954638299003"><ele>134.0</ele><time>2026-03-22T09:54:42Z</time></trkpt><trkpt lat="42.12487101751118" lon="14.699934502352768"><ele>134.0</ele><time>2026-03-22T09:54:43Z</time></trkpt><trkpt lat="42.1247809661946" lon="14.699914779328656"><ele>134.0</ele><time>2026-03-22T09:54:44Z</time></trkpt><trkpt lat="42.12469311206549" lon="14.699890281223283"><ele>134.0</ele><time>2026-03-22T09:54:45Z</time></trkpt><trkpt lat="42.12462220104399" lon="14.699852159409126"><ele>134.0</ele><time>2026-03-22T09:54:46Z</time></trkpt><trkpt lat="42.12456026954675" lon="14.699793534238676"><ele>134.6</ele><time>2026-03-22T09:54:47Z</time></trkpt><trkpt lat="42.124482994377054" lon="14.699790412575076"><ele>135.2</ele><time>2026-03-22T09:54:48Z</time></trkpt><trkpt lat="42.12441461464263" lon="14.699783184044291"><ele>135.79999999999998</ele><time>2026-03-22T09:54:49Z</time></trkpt><trkpt lat="42.12426504252844" lon="14.699777315220064"><ele>136.4</ele><time>2026-03-22T09:54:51Z</time></trkpt><trkpt lat="42.124131631810116" lon="14.69976463627207"><ele>137.0</ele><time>2026-03-22T09:54:51.999Z</time></trkpt><trkpt lat="42.12394817886636" lon="14.69975892080656"><ele>137.66666666666666</ele><time>2026-03-22T09:54:52.999Z</time></trkpt><trkpt lat="42.12377502266756" lon="14.699756484360808"><ele>138.33333333333334</ele><time>2026-03-22T09:54:53.999Z</time></trkpt><trkpt lat="42.123608139621815" lon="14.69977046354671"><ele>139.0</ele><time>2026-03-22T09:54:54.999Z</time></trkpt><trkpt lat="42.1234418106224" lon="14.699793394088976"><ele>139.0</ele><time>2026-03-22T09:54:55.999Z</time></trkpt><trkpt lat="42.12327985055449" lon="14.699824189316502"><ele>139.0</ele><time>2026-03-22T09:54:56.999Z</time></trkpt><trkpt lat="42.123122244599415" lon="14.699871433316188"><ele>139.0</ele><time>2026-03-22T09:54:57.999Z</time></trkpt><trkpt lat="42.122968755314055" lon="14.699923172404679"><ele>139.33333333333334</ele><time>2026-03-22T09:54:58.999Z</time></trkpt><trkpt lat="42.12281492352638" lon="14.6999727699019"><ele>139.66666666666666</ele><time>2026-03-22T09:54:59.999Z</time></trkpt><trkpt lat="42.12266332311909" lon="14.70001761847538"><ele>140.0</ele><time>2026-03-22T09:55:00.999Z</time></trkpt><trkpt lat="42.12250801896117" lon="14.700063332123674"><ele>141.0</ele><time>2026-03-22T09:55:01.999Z</time></trkpt><trkpt lat="42.12235791543134" lon="14.700111562504137"><ele>142.0</ele><time>2026-03-22T09:55:02.999Z</time></trkpt><trkpt lat="42.122205944654816" lon="14.700155473760061"><ele>143.0</ele><time>2026-03-22T09:55:03.999Z</time></trkpt><trkpt lat="42.1220523673068" lon="14.700197902944177"><ele>143.0</ele><time>2026-03-22T09:55:04.999Z</time></trkpt><trkpt lat="42.12189506191369" lon="14.700241988897721"><ele>143.0</ele><time>2026-03-22T09:55:05.999Z</time></trkpt><trkpt lat="42.121734953878686" lon="14.70028878132206"><ele>143.0</ele><time>2026-03-22T09:55:06.999Z</time></trkpt><trkpt lat="42.121578207862754" lon="14.700334079771023"><ele>143.66666666666666</ele><time>2026-03-22T09:55:07.999Z</time></trkpt><trkpt lat="42.1214235165722" lon="14.700378834805065"><ele>144.33333333333334</ele><time>2026-03-22T09:55:08.999Z</time></trkpt><trkpt lat="42.121265026257504" lon="14.7004226759157"><ele>145.0</ele><time>2026-03-22T09:55:09.999Z</time></trkpt><trkpt lat="42.12110865804523" lon="14.700469295153262"><ele>145.0</ele><time>2026-03-22T09:55:10.999Z</time></trkpt><trkpt lat="42.120953650409554" lon="14.700519148663593"><ele>145.0</ele><time>2026-03-22T09:55:11.999Z</time></trkpt><trkpt lat="42.12080187228603" lon="14.700565211303179"><ele>145.0</ele><time>2026-03-22T09:55:12.999Z</time></trkpt><trkpt lat="42.12065055749931" lon="14.700614652318855"><ele>145.33333333333334</ele><time>2026-03-22T09:55:13.999Z</time></trkpt><trkpt lat="42.120498036850975" lon="14.700662094232595"><ele>145.66666666666666</ele><time>2026-03-22T09:55:14.999Z</time></trkpt><trkpt lat="42.12034478638927" lon="14.700709887711236"><ele>146.0</ele><time>2026-03-22T09:55:15.999Z</time></trkpt><trkpt lat="42.12018305164327" lon="14.7007578282459"><ele>146.0</ele><time>2026-03-22T09:55:16.999Z</time></trkpt><trkpt lat="42.12002088426201" lon="14.700808271433221"><ele>146.0</ele><time>2026-03-22T09:55:17.999Z</time></trkpt><trkpt lat="42.11985511426336" lon="14.700854628634378"><ele>146.0</ele><time>2026-03-22T09:55:18.999Z</time></trkpt><trkpt lat="42.11968800570163" lon="14.700898577796405"><ele>145.33333333333331</ele><time>2026-03-22T09:55:19.999Z</time></trkpt><trkpt lat="42.11952993623623" lon="14.700949769982472"><ele>144.66666666666666</ele><time>2026-03-22T09:55:20.999Z</time></trkpt><trkpt lat="42.119377181621026" lon="14.700996197473218"><ele>144.0</ele><time>2026-03-22T09:55:21.999Z</time></trkpt><trkpt lat="42.11922638026059" lon="14.701036466981911"><ele>144.0</ele><time>2026-03-22T09:55:22.999Z</time></trkpt><trkpt lat="42.11908158709532" lon="14.701078136260229"><ele>144.0</ele><time>2026-03-22T09:55:23.999Z</time></trkpt><trkpt lat="42.11893978915582" lon="14.701123810310714"><ele>144.0</ele><time>2026-03-22T09:55:24.999Z</time></trkpt><trkpt lat="42.11880800263232" lon="14.701154641616785"><ele>144.0</ele><time>2026-03-22T09:55:25.999Z</time></trkpt><trkpt lat="42.1186833084463" lon="14.701177956434833"><ele>145.25</ele><time>2026-03-22T09:55:26.999Z</time></trkpt><trkpt lat="42.1185592935541" lon="14.701186106094436"><ele>146.5</ele><time>2026-03-22T09:55:27.999Z</time></trkpt><trkpt lat="42.118436243628985" lon="14.701176666707944"><ele>147.75</ele><time>2026-03-22T09:55:28.999Z</time></trkpt><trkpt lat="42.11830381016977" lon="14.7011654390798"><ele>149.0</ele><time>2026-03-22T09:55:29.999Z</time></trkpt><trkpt lat="42.118168525189446" lon="14.701138300843846"><ele>149.25</ele><time>2026-03-22T09:55:30.999Z</time></trkpt><trkpt lat="42.11803316051804" lon="14.701106344206623"><ele>149.5</ele><time>2026-03-22T09:55:31.999Z</time></trkpt><trkpt lat="42.117903536864524" lon="14.701061356782546"><ele>149.75</ele><time>2026-03-22T09:55:32.999Z</time></trkpt><trkpt lat="42.117792984844314" lon="14.700998139766325"><ele>150.0</ele><time>2026-03-22T09:55:33.999Z</time></trkpt><trkpt lat="42.117697559973884" lon="14.700938856549925"><ele>150.0</ele><time>2026-03-22T09:55:34.999Z</time></trkpt><trkpt lat="42.11757303612167" lon="14.7008637956761"><ele>150.0</ele><time>2026-03-22T09:55:36.999Z</time></trkpt><trkpt lat="42.1175139874472" lon="14.700799964885961"><ele>150.0</ele><time>2026-03-22T09:55:39.999Z</time></trkpt><trkpt lat="42.11741471266136" lon="14.700707739725365"><ele>150.0</ele><time>2026-03-22T09:55:41.999Z</time></trkpt><trkpt lat="42.11733414305344" lon="14.700660989079973"><ele>150.0</ele><time>2026-03-22T09:55:42.999Z</time></trkpt><trkpt lat="42.11723583709429" lon="14.700605552643337"><ele>151.0</ele><time>2026-03-22T09:55:43.999Z</time></trkpt><trkpt lat="42.11714142398143" lon="14.700544366854391"><ele>152.0</ele><time>2026-03-22T09:55:44.999Z</time></trkpt><trkpt lat="42.11703868439305" lon="14.700472915645223"><ele>153.0</ele><time>2026-03-22T09:55:45.999Z</time></trkpt><trkpt lat="42.11691147877592" lon="14.700389195105288"><ele>154.0</ele><time>2026-03-22T09:55:46.999Z</time></trkpt><trkpt lat="42.116763421444055" lon="14.700300555128363"><ele>154.33333333333334</ele><time>2026-03-22T09:55:47.999Z</time></trkpt><trkpt lat="42.116620848457494" lon="14.700215473935096"><ele>154.66666666666666</ele><time>2026-03-22T09:55:48.999Z</time></trkpt><trkpt lat="42.11647430016527" lon="14.700138494582122"><ele>155.0</ele><time>2026-03-22T09:55:49.999Z</time></trkpt><trkpt lat="42.11631722361993" lon="14.700068726133582"><ele>155.0</ele><time>2026-03-22T09:55:50.999Z</time></trkpt><trkpt lat="42.11615359738825" lon="14.700006220041516"><ele>155.0</ele><time>2026-03-22T09:55:51.999Z</time></trkpt><trkpt lat="42.115981137979475" lon="14.699952759197158"><ele>155.0</ele><time>2026-03-22T09:55:52.999Z</time></trkpt><trkpt lat="42.11580250571146" lon="14.699914550722132"><ele>154.66666666666666</ele><time>2026-03-22T09:55:53.999Z</time></trkpt><trkpt lat="42.115615832090654" lon="14.699889809285411"><ele>154.33333333333334</ele><time>2026-03-22T09:55:54.999Z</time></trkpt><trkpt lat="42.11542436317556" lon="14.699873004400875"><ele>154.0</ele><time>2026-03-22T09:55:55.999Z</time></trkpt><trkpt lat="42.11522438131921" lon="14.699870513251494"><ele>154.0</ele><time>2026-03-22T09:55:56.999Z</time></trkpt><trkpt lat="42.11501897591875" lon="14.699884989969773"><ele>154.0</ele><time>2026-03-22T09:55:57.999Z</time></trkpt><trkpt lat="42.114808506443204" lon="14.699917660076643"><ele>154.0</ele><time>2026-03-22T09:55:58.999Z</time></trkpt><trkpt lat="42.114606779587355" lon="14.699961924115811"><ele>152.33333333333334</ele><time>2026-03-22T09:55:59.999Z</time></trkpt><trkpt lat="42.11439705443149" lon="14.700022735612983"><ele>150.66666666666666</ele><time>2026-03-22T09:56:00.999Z</time></trkpt><trkpt lat="42.11417412945946" lon="14.700086970676535"><ele>149.0</ele><time>2026-03-22T09:56:01.999Z</time></trkpt><trkpt lat="42.113943780498445" lon="14.700145941488344"><ele>147.5</ele><time>2026-03-22T09:56:02.999Z</time></trkpt><trkpt lat="42.11371436371566" lon="14.700205640929033"><ele>146.0</ele><time>2026-03-22T09:56:03.999Z</time></trkpt><trkpt lat="42.11348589887337" lon="14.700268963682904"><ele>150.0</ele><time>2026-03-22T09:56:04.999Z</time></trkpt><trkpt lat="42.113263639826556" lon="14.70032931540367"><ele>154.0</ele><time>2026-03-22T09:56:05.999Z</time></trkpt><trkpt lat="42.11304515181921" lon="14.700388516235881"><ele>154.0</ele><time>2026-03-22T09:56:06.999Z</time></trkpt><trkpt lat="42.11284117926844" lon="14.70044644331186"><ele>154.0</ele><time>2026-03-22T09:56:07.999Z</time></trkpt><trkpt lat="42.11265144523889" lon="14.700498960709304"><ele>154.0</ele><time>2026-03-22T09:56:08.999Z</time></trkpt><trkpt lat="42.11246773991046" lon="14.700549040355734"><ele>152.66666666666669</ele><time>2026-03-22T09:56:09.999Z</time></trkpt><trkpt lat="42.112291088579774" lon="14.700596084537072"><ele>151.33333333333334</ele><time>2026-03-22T09:56:10.999Z</time></trkpt><trkpt lat="42.112118730444934" lon="14.700645219509472"><ele>150.0</ele><time>2026-03-22T09:56:11.999Z</time></trkpt><trkpt lat="42.11195635857957" lon="14.700692840075845"><ele>150.0</ele><time>2026-03-22T09:56:12.999Z</time></trkpt><trkpt lat="42.11180431278938" lon="14.700740583833754"><ele>150.0</ele><time>2026-03-22T09:56:13.999Z</time></trkpt><trkpt lat="42.111660885297" lon="14.700790058653046"><ele>150.0</ele><time>2026-03-22T09:56:14.999Z</time></trkpt><trkpt lat="42.111530086859865" lon="14.700835657042726"><ele>150.0</ele><time>2026-03-22T09:56:16Z</time></trkpt><trkpt lat="42.111422452051045" lon="14.700874355254165"><ele>149.0</ele><time>2026-03-22T09:56:17Z</time></trkpt><trkpt lat="42.11133862699849" lon="14.700883786244173"><ele>148.0</ele><time>2026-03-22T09:56:22Z</time></trkpt><trkpt lat="42.11122126236967" lon="14.700885243903892"><ele>147.0</ele><time>2026-03-22T09:56:24Z</time></trkpt><trkpt lat="42.1111049340887" lon="14.700947276197349"><ele>146.0</ele><time>2026-03-22T09:56:26Z</time></trkpt><trkpt lat="42.111045861748025" lon="14.700999362962962"><ele>145.0</ele><time>2026-03-22T09:56:27Z</time></trkpt><trkpt lat="42.110988393286185" lon="14.701051630720446"><ele>146.0</ele><time>2026-03-22T09:56:28Z</time></trkpt><trkpt lat="42.110919151709226" lon="14.70110097960171"><ele>147.0</ele><time>2026-03-22T09:56:29Z</time></trkpt><trkpt lat="42.110836763712356" lon="14.701145685111662"><ele>148.0</ele><time>2026-03-22T09:56:30Z</time></trkpt><trkpt lat="42.11075505499823" lon="14.701191516921352"><ele>149.0</ele><time>2026-03-22T09:56:31Z</time></trkpt><trkpt lat="42.11068192275815" lon="14.701241831256178"><ele>150.0</ele><time>2026-03-22T09:56:32Z</time></trkpt><trkpt lat="42.11057538779356" lon="14.70131226130129"><ele>150.0</ele><time>2026-03-22T09:56:33Z</time></trkpt><trkpt lat="42.11044730310564" lon="14.701391772230899"><ele>150.0</ele><time>2026-03-22T09:56:34Z</time></trkpt><trkpt lat="42.11032018721671" lon="14.701468705355309"><ele>150.0</ele><time>2026-03-22T09:56:35Z</time></trkpt><trkpt lat="42.11019572046624" lon="14.701547026936607"><ele>150.0</ele><time>2026-03-22T09:56:36Z</time></trkpt><trkpt lat="42.11006929351065" lon="14.701612371393187"><ele>150.0</ele><time>2026-03-22T09:56:37Z</time></trkpt><trkpt lat="42.10995126662127" lon="14.701676009331592"><ele>150.0</ele><time>2026-03-22T09:56:38Z</time></trkpt><trkpt lat="42.10983024338873" lon="14.701733864291088"><ele>150.0</ele><time>2026-03-22T09:56:39Z</time></trkpt><trkpt lat="42.10970471783408" lon="14.701804754225574"><ele>150.0</ele><time>2026-03-22T09:56:40Z</time></trkpt><trkpt lat="42.1095764177274" lon="14.701878599672902"><ele>152.0</ele><time>2026-03-22T09:56:41Z</time></trkpt><trkpt lat="42.10944923815257" lon="14.70194866565383"><ele>154.0</ele><time>2026-03-22T09:56:42Z</time></trkpt><trkpt lat="42.109310392871855" lon="14.702014078861215"><ele>156.0</ele><time>2026-03-22T09:56:43Z</time></trkpt><trkpt lat="42.10917516714005" lon="14.70208308265693"><ele>158.0</ele><time>2026-03-22T09:56:44Z</time></trkpt><trkpt lat="42.10903449463582" lon="14.702132088585197"><ele>158.0</ele><time>2026-03-22T09:56:45Z</time></trkpt><trkpt lat="42.1088987210736" lon="14.702193627506393"><ele>158.0</ele><time>2026-03-22T09:56:46Z</time></trkpt><trkpt lat="42.10875628941315" lon="14.702239550936598"><ele>158.0</ele><time>2026-03-22T09:56:47Z</time></trkpt><trkpt lat="42.10861361700547" lon="14.702287056032002"><ele>158.0</ele><time>2026-03-22T09:56:48Z</time></trkpt><trkpt lat="42.108468449023434" lon="14.702314791745735"><ele>158.0</ele><time>2026-03-22T09:56:49Z</time></trkpt><trkpt lat="42.108328058938035" lon="14.702333013581951"><ele>158.0</ele><time>2026-03-22T09:56:50Z</time></trkpt><trkpt lat="42.10820037623614" lon="14.702352002178674"><ele>158.0</ele><time>2026-03-22T09:56:51Z</time></trkpt><trkpt lat="42.10808243235053" lon="14.702360226824108"><ele>158.0</ele><time>2026-03-22T09:56:52Z</time></trkpt><trkpt lat="42.10797937042424" lon="14.7023567090895"><ele>157.8</ele><time>2026-03-22T09:56:53Z</time></trkpt><trkpt lat="42.10788584827334" lon="14.702326944510988"><ele>157.60000000000002</ele><time>2026-03-22T09:56:54Z</time></trkpt><trkpt lat="42.10780624746276" lon="14.702287963959694"><ele>157.39999999999998</ele><time>2026-03-22T09:56:55Z</time></trkpt><trkpt lat="42.10771659229444" lon="14.702248485128111"><ele>157.2</ele><time>2026-03-22T09:56:56Z</time></trkpt><trkpt lat="42.107625294982995" lon="14.702206598102466"><ele>157.0</ele><time>2026-03-22T09:56:57Z</time></trkpt><trkpt lat="42.107527700704736" lon="14.702158227623126"><ele>157.0</ele><time>2026-03-22T09:56:58Z</time></trkpt><trkpt lat="42.10743105173849" lon="14.702089079089719"><ele>157.0</ele><time>2026-03-22T09:56:59Z</time></trkpt><trkpt lat="42.10733849053517" lon="14.702011358803118"><ele>157.0</ele><time>2026-03-22T09:57:00Z</time></trkpt><trkpt lat="42.10726139272367" lon="14.701928233176433"><ele>157.0</ele><time>2026-03-22T09:57:01Z</time></trkpt><trkpt lat="42.10719357285396" lon="14.701834052010884"><ele>157.0</ele><time>2026-03-22T09:57:02Z</time></trkpt><trkpt lat="42.107136214244974" lon="14.701730490900983"><ele>156.79999999999998</ele><time>2026-03-22T09:57:03Z</time></trkpt><trkpt lat="42.10708660961351" lon="14.701622861115464"><ele>156.6</ele><time>2026-03-22T09:57:04Z</time></trkpt><trkpt lat="42.107045907224986" lon="14.701500138581205"><ele>156.39999999999998</ele><time>2026-03-22T09:57:05Z</time></trkpt><trkpt lat="42.10702438998314" lon="14.70136368042742"><ele>156.2</ele><time>2026-03-22T09:57:06Z</time></trkpt><trkpt lat="42.107012782189535" lon="14.701211206876717"><ele>156.0</ele><time>2026-03-22T09:57:07Z</time></trkpt><trkpt lat="42.106991466447376" lon="14.701065170550986"><ele>156.6</ele><time>2026-03-22T09:57:08Z</time></trkpt><trkpt lat="42.10697102783629" lon="14.700927598188677"><ele>157.2</ele><time>2026-03-22T09:57:09Z</time></trkpt><trkpt lat="42.10694708555195" lon="14.700796065788978"><ele>157.8</ele><time>2026-03-22T09:57:09.999Z</time></trkpt><trkpt lat="42.10692445410308" lon="14.700664826737482"><ele>158.4</ele><time>2026-03-22T09:57:10.999Z</time></trkpt><trkpt lat="42.10690244919572" lon="14.700534408924032"><ele>159.0</ele><time>2026-03-22T09:57:11.999Z</time></trkpt><trkpt lat="42.10687972025611" lon="14.700396284057863"><ele>159.0</ele><time>2026-03-22T09:57:12.999Z</time></trkpt><trkpt lat="42.10685461928746" lon="14.70026136033629"><ele>159.0</ele><time>2026-03-22T09:57:13.999Z</time></trkpt><trkpt lat="42.10682579384201" lon="14.700128351446477"><ele>159.0</ele><time>2026-03-22T09:57:14.999Z</time></trkpt><trkpt lat="42.1067860514133" lon="14.699985903635898"><ele>159.0</ele><time>2026-03-22T09:57:15.999Z</time></trkpt><trkpt lat="42.10674242922753" lon="14.699836833220264"><ele>159.0</ele><time>2026-03-22T09:57:16.999Z</time></trkpt><trkpt lat="42.10669633941223" lon="14.699670080641301"><ele>161.25</ele><time>2026-03-22T09:57:17.999Z</time></trkpt><trkpt lat="42.10664809534739" lon="14.699493525949036"><ele>163.5</ele><time>2026-03-22T09:57:18.999Z</time></trkpt><trkpt lat="42.10659105828772" lon="14.69931250059399"><ele>165.75</ele><time>2026-03-22T09:57:19.999Z</time></trkpt><trkpt lat="42.106550435708755" lon="14.699136065106888"><ele>168.0</ele><time>2026-03-22T09:57:20.999Z</time></trkpt><trkpt lat="42.10652517100959" lon="14.698974240360688"><ele>169.5</ele><time>2026-03-22T09:57:21.999Z</time></trkpt><trkpt lat="42.10650762494392" lon="14.698834683616662"><ele>171.0</ele><time>2026-03-22T09:57:22.999Z</time></trkpt><trkpt lat="42.106506525832756" lon="14.69871100225309"><ele>172.5</ele><time>2026-03-22T09:57:23.999Z</time></trkpt><trkpt lat="42.10651137120292" lon="14.698616166085953"><ele>174.0</ele><time>2026-03-22T09:57:24.999Z</time></trkpt><trkpt lat="42.10651349563399" lon="14.698502673863864"><ele>175.5</ele><time>2026-03-22T09:57:26.999Z</time></trkpt><trkpt lat="42.106524988988085" lon="14.69839753298578"><ele>177.0</ele><time>2026-03-22T09:57:33.999Z</time></trkpt><trkpt lat="42.106420502547884" lon="14.698442307015762"><ele>177.0</ele><time>2026-03-22T09:57:38.999Z</time></trkpt><trkpt lat="42.10640669515668" lon="14.698559243026333"><ele>177.0</ele><time>2026-03-22T09:57:43.999Z</time></trkpt><trkpt lat="42.10638529440337" lon="14.698667286605659"><ele>177.0</ele><time>2026-03-22T09:57:44.999Z</time></trkpt><trkpt lat="42.10638006705839" lon="14.698801052161466"><ele>177.0</ele><time>2026-03-22T09:57:45.999Z</time></trkpt><trkpt lat="42.106374992892725" lon="14.698912640701147"><ele>177.0</ele><time>2026-03-22T09:57:46.999Z</time></trkpt><trkpt lat="42.10635763378412" lon="14.69901390616332"><ele>177.0</ele><time>2026-03-22T09:57:47.999Z</time></trkpt><trkpt lat="42.10633155544829" lon="14.699115471575821"><ele>177.0</ele><time>2026-03-22T09:57:48.999Z</time></trkpt><trkpt lat="42.1063106149479" lon="14.699247392697492"><ele>177.0</ele><time>2026-03-22T09:57:49.999Z</time></trkpt><trkpt lat="42.10629358792806" lon="14.699379844231013"><ele>177.0</ele><time>2026-03-22T09:57:50.999Z</time></trkpt><trkpt lat="42.10628006697346" lon="14.699516155300213"><ele>177.0</ele><time>2026-03-22T09:57:51.999Z</time></trkpt><trkpt lat="42.10671400752096" lon="14.699829516731024"><ele>174.75</ele><time>2026-03-22T09:57:52.999Z</time></trkpt><trkpt lat="42.10675884891296" lon="14.699989009840069"><ele>172.5</ele><time>2026-03-22T09:57:53.999Z</time></trkpt><trkpt lat="42.10679950577894" lon="14.70014530359977"><ele>170.25</ele><time>2026-03-22T09:57:54.999Z</time></trkpt><trkpt lat="42.106813689431796" lon="14.7003043593997"><ele>168.0</ele><time>2026-03-22T09:57:55.999Z</time></trkpt><trkpt lat="42.10686266890156" lon="14.700443953030579"><ele>166.20000000000002</ele><time>2026-03-22T09:57:56.999Z</time></trkpt><trkpt lat="42.106887803919236" lon="14.700591019952345"><ele>164.4</ele><time>2026-03-22T09:57:57.999Z</time></trkpt><trkpt lat="42.10690508042786" lon="14.700732107023335"><ele>162.60000000000002</ele><time>2026-03-22T09:57:58.999Z</time></trkpt><trkpt lat="42.10691121416066" lon="14.700873263862531"><ele>160.8</ele><time>2026-03-22T09:57:59.999Z</time></trkpt><trkpt lat="42.106959759458825" lon="14.700983867807155"><ele>159.0</ele><time>2026-03-22T09:58:00.999Z</time></trkpt><trkpt lat="42.10697340986894" lon="14.701092435290441"><ele>158.57142857142856</ele><time>2026-03-22T09:58:01.999Z</time></trkpt><trkpt lat="42.10699031379071" lon="14.701198047768859"><ele>158.14285714285717</ele><time>2026-03-22T09:58:02.999Z</time></trkpt><trkpt lat="42.107004357912395" lon="14.701298407586584"><ele>157.71428571428572</ele><time>2026-03-22T09:58:03.999Z</time></trkpt><trkpt lat="42.10701908480199" lon="14.701390555324185"><ele>157.28571428571428</ele><time>2026-03-22T09:58:04.999Z</time></trkpt><trkpt lat="42.107040509157606" lon="14.70147981114023"><ele>156.85714285714283</ele><time>2026-03-22T09:58:05.999Z</time></trkpt><trkpt lat="42.107056388374225" lon="14.701569356474817"><ele>156.42857142857144</ele><time>2026-03-22T09:58:06.999Z</time></trkpt><trkpt lat="42.10708382156203" lon="14.701675087683938"><ele>156.0</ele><time>2026-03-22T09:58:07.999Z</time></trkpt><trkpt lat="42.10712163970613" lon="14.7017732253569"><ele>156.0</ele><time>2026-03-22T09:58:08.999Z</time></trkpt><trkpt lat="42.10715821208244" lon="14.701859982166155"><ele>156.0</ele><time>2026-03-22T09:58:09.999Z</time></trkpt><trkpt lat="42.10716740882466" lon="14.70197228279563"><ele>156.0</ele><time>2026-03-22T09:58:10.999Z</time></trkpt><trkpt lat="42.10718496182809" lon="14.702070772520972"><ele>156.0</ele><time>2026-03-22T09:58:11.999Z</time></trkpt><trkpt lat="42.107174778669204" lon="14.702231782103313"><ele>156.0</ele><time>2026-03-22T09:58:13.999Z</time></trkpt><trkpt lat="42.10712239402514" lon="14.702294658166824"><ele>156.0</ele><time>2026-03-22T09:58:15.999Z</time></trkpt><trkpt lat="42.10703423307272" lon="14.702343891545873"><ele>156.6</ele><time>2026-03-22T09:58:18.999Z</time></trkpt><trkpt lat="42.10695913625361" lon="14.702370660136912"><ele>157.2</ele><time>2026-03-22T09:58:19.999Z</time></trkpt><trkpt lat="42.10686469054183" lon="14.702364656226795"><ele>157.8</ele><time>2026-03-22T09:58:20.999Z</time></trkpt><trkpt lat="42.10674932847622" lon="14.702350470773682"><ele>158.4</ele><time>2026-03-22T09:58:22Z</time></trkpt><trkpt lat="42.10664289374034" lon="14.702335456529429"><ele>159.0</ele><time>2026-03-22T09:58:23Z</time></trkpt><trkpt lat="42.1065441927845" lon="14.702331263674322"><ele>160.6</ele><time>2026-03-22T09:58:24Z</time></trkpt><trkpt lat="42.10644670722346" lon="14.702327911642529"><ele>162.2</ele><time>2026-03-22T09:58:25Z</time></trkpt><trkpt lat="42.10635212640181" lon="14.70232472120277"><ele>163.79999999999998</ele><time>2026-03-22T09:58:26Z</time></trkpt><trkpt lat="42.106251479567625" lon="14.702316027984361"><ele>165.4</ele><time>2026-03-22T09:58:27Z</time></trkpt><trkpt lat="42.10614948555297" lon="14.7023086679867"><ele>167.0</ele><time>2026-03-22T09:58:28Z</time></trkpt><trkpt lat="42.106024471628565" lon="14.70228758370741"><ele>167.0</ele><time>2026-03-22T09:58:29Z</time></trkpt><trkpt lat="42.10587810201947" lon="14.7022811176804"><ele>167.0</ele><time>2026-03-22T09:58:30Z</time></trkpt><trkpt lat="42.105720777013445" lon="14.702289839699374"><ele>167.0</ele><time>2026-03-22T09:58:31Z</time></trkpt><trkpt lat="42.1055813629281" lon="14.702295988006576"><ele>167.0</ele><time>2026-03-22T09:58:32Z</time></trkpt><trkpt lat="42.105457767344" lon="14.702285483474428"><ele>168.5</ele><time>2026-03-22T09:58:33Z</time></trkpt><trkpt lat="42.105333605239586" lon="14.702277140082046"><ele>170.0</ele><time>2026-03-22T09:58:34Z</time></trkpt><trkpt lat="42.10521445185134" lon="14.702274427691918"><ele>171.5</ele><time>2026-03-22T09:58:35Z</time></trkpt><trkpt lat="42.10509639001124" lon="14.702270531626034"><ele>173.0</ele><time>2026-03-22T09:58:36Z</time></trkpt><trkpt lat="42.1049870027731" lon="14.70226435453526"><ele>174.0</ele><time>2026-03-22T09:58:37Z</time></trkpt><trkpt lat="42.104893739559586" lon="14.702261088413277"><ele>175.0</ele><time>2026-03-22T09:58:38Z</time></trkpt><trkpt lat="42.104810692786245" lon="14.702251081043167"><ele>176.0</ele><time>2026-03-22T09:58:39Z</time></trkpt><trkpt lat="42.10472914056781" lon="14.702243681278304"><ele>177.0</ele><time>2026-03-22T09:58:40Z</time></trkpt><trkpt lat="42.1046352038695" lon="14.702235680811654"><ele>178.0</ele><time>2026-03-22T09:58:41Z</time></trkpt><trkpt lat="42.10453081147411" lon="14.702229605513597"><ele>178.0</ele><time>2026-03-22T09:58:42Z</time></trkpt><trkpt lat="42.10442480289253" lon="14.702223036950183"><ele>178.0</ele><time>2026-03-22T09:58:43Z</time></trkpt><trkpt lat="42.10432397137525" lon="14.702216203281099"><ele>178.0</ele><time>2026-03-22T09:58:44Z</time></trkpt><trkpt lat="42.10423006603733" lon="14.702214653464615"><ele>178.0</ele><time>2026-03-22T09:58:45Z</time></trkpt><trkpt lat="42.10414496589767" lon="14.702210037989063"><ele>178.0</ele><time>2026-03-22T09:58:46Z</time></trkpt><trkpt lat="42.10406848510415" lon="14.702200499449209"><ele>178.66666666666669</ele><time>2026-03-22T09:58:47Z</time></trkpt><trkpt lat="42.10395303706875" lon="14.702193832595443"><ele>179.33333333333334</ele><time>2026-03-22T09:58:49Z</time></trkpt><trkpt lat="42.103889062096286" lon="14.702189688087506"><ele>180.0</ele><time>2026-03-22T09:58:50Z</time></trkpt><trkpt lat="42.103811362398595" lon="14.702186353592152"><ele>180.66666666666666</ele><time>2026-03-22T09:58:51Z</time></trkpt><trkpt lat="42.10372428926991" lon="14.702177268339495"><ele>181.33333333333331</ele><time>2026-03-22T09:58:52Z</time></trkpt><trkpt lat="42.103623831572705" lon="14.702174586602705"><ele>182.0</ele><time>2026-03-22T09:58:53Z</time></trkpt><trkpt lat="42.10351153344968" lon="14.702173681312225"><ele>182.0</ele><time>2026-03-22T09:58:54Z</time></trkpt><trkpt lat="42.103403431535774" lon="14.702161175570566"><ele>182.0</ele><time>2026-03-22T09:58:55Z</time></trkpt><trkpt lat="42.1033013565832" lon="14.702154958987876"><ele>182.0</ele><time>2026-03-22T09:58:56Z</time></trkpt><trkpt lat="42.10318624514301" lon="14.702144291063025"><ele>182.0</ele><time>2026-03-22T09:58:57Z</time></trkpt><trkpt lat="42.10305697727078" lon="14.702129842114118"><ele>182.0</ele><time>2026-03-22T09:58:58Z</time></trkpt><trkpt lat="42.10291581477902" lon="14.702121680168563"><ele>182.0</ele><time>2026-03-22T09:58:59Z</time></trkpt><trkpt lat="42.102768318551526" lon="14.702116836086942"><ele>182.0</ele><time>2026-03-22T09:59:00Z</time></trkpt><trkpt lat="42.102617089643225" lon="14.702109594792928"><ele>182.0</ele><time>2026-03-22T09:59:01Z</time></trkpt><trkpt lat="42.10247426979655" lon="14.702115158785217"><ele>182.0</ele><time>2026-03-22T09:59:02Z</time></trkpt><trkpt lat="42.10233254686669" lon="14.702129339456487"><ele>182.0</ele><time>2026-03-22T09:59:03Z</time></trkpt><trkpt lat="42.10218769085201" lon="14.70215294473126"><ele>182.0</ele><time>2026-03-22T09:59:04Z</time></trkpt><trkpt lat="42.10201805529377" lon="14.702190004871557"><ele>182.0</ele><time>2026-03-22T09:59:05Z</time></trkpt><trkpt lat="42.10183324176003" lon="14.702240132337678"><ele>182.0</ele><time>2026-03-22T09:59:06Z</time></trkpt><trkpt lat="42.101653520503376" lon="14.702281132880913"><ele>182.0</ele><time>2026-03-22T09:59:07Z</time></trkpt><trkpt lat="42.10149624889323" lon="14.702304160730923"><ele>182.75</ele><time>2026-03-22T09:59:08Z</time></trkpt><trkpt lat="42.10135878076108" lon="14.702330342456042"><ele>183.5</ele><time>2026-03-22T09:59:09Z</time></trkpt><trkpt lat="42.10123487232005" lon="14.702353651342843"><ele>184.25</ele><time>2026-03-22T09:59:10Z</time></trkpt><trkpt lat="42.10112821547929" lon="14.702375031100418"><ele>185.0</ele><time>2026-03-22T09:59:11Z</time></trkpt><trkpt lat="42.10103197137337" lon="14.702391507624522"><ele>185.0</ele><time>2026-03-22T09:59:12Z</time></trkpt><trkpt lat="42.10095059039879" lon="14.70238647310379"><ele>185.0</ele><time>2026-03-22T09:59:13Z</time></trkpt><trkpt lat="42.10088520605477" lon="14.702371913493215"><ele>185.0</ele><time>2026-03-22T09:59:14Z</time></trkpt><trkpt lat="42.100777938986106" lon="14.702311066253888"><ele>185.0</ele><time>2026-03-22T09:59:16Z</time></trkpt><trkpt lat="42.100708025462076" lon="14.702256540805289"><ele>185.0</ele><time>2026-03-22T09:59:17Z</time></trkpt><trkpt lat="42.10062897014576" lon="14.702157340165423"><ele>185.0</ele><time>2026-03-22T09:59:18Z</time></trkpt><trkpt lat="42.100547366303864" lon="14.702025312270262"><ele>185.0</ele><time>2026-03-22T09:59:19Z</time></trkpt><trkpt lat="42.10045758294538" lon="14.701884293189165"><ele>185.0</ele><time>2026-03-22T09:59:20Z</time></trkpt><trkpt lat="42.10036783527719" lon="14.701749258949624"><ele>185.0</ele><time>2026-03-22T09:59:20.999Z</time></trkpt><trkpt lat="42.10027371652298" lon="14.701603297863091"><ele>185.0</ele><time>2026-03-22T09:59:21.999Z</time></trkpt><trkpt lat="42.100172140993784" lon="14.70145609203696"><ele>185.0</ele><time>2026-03-22T09:59:22.999Z</time></trkpt><trkpt lat="42.10006593548224" lon="14.70129897757042"><ele>185.0</ele><time>2026-03-22T09:59:23.999Z</time></trkpt><trkpt lat="42.099960936401004" lon="14.701141003924155"><ele>185.0</ele><time>2026-03-22T09:59:24.999Z</time></trkpt><trkpt lat="42.09986218112279" lon="14.700994721064793"><ele>185.0</ele><time>2026-03-22T09:59:25.999Z</time></trkpt><trkpt lat="42.09976787864992" lon="14.700855462447967"><ele>185.0</ele><time>2026-03-22T09:59:26.999Z</time></trkpt><trkpt lat="42.09968138528478" lon="14.700723344638915"><ele>185.0</ele><time>2026-03-22T09:59:27.999Z</time></trkpt><trkpt lat="42.09959457116912" lon="14.700590861490188"><ele>185.0</ele><time>2026-03-22T09:59:28.999Z</time></trkpt><trkpt lat="42.099506067571035" lon="14.700451893875366"><ele>185.0</ele><time>2026-03-22T09:59:29.999Z</time></trkpt><trkpt lat="42.09941832469032" lon="14.700309328583202"><ele>185.0</ele><time>2026-03-22T09:59:30.999Z</time></trkpt><trkpt lat="42.099330722618426" lon="14.700165704614193"><ele>185.0</ele><time>2026-03-22T09:59:31.999Z</time></trkpt><trkpt lat="42.09924701713399" lon="14.700013072379399"><ele>185.33333333333331</ele><time>2026-03-22T09:59:32.999Z</time></trkpt><trkpt lat="42.099175099761666" lon="14.69983724065063"><ele>185.66666666666666</ele><time>2026-03-22T09:59:33.999Z</time></trkpt><trkpt lat="42.09911529146899" lon="14.699650230430501"><ele>186.0</ele><time>2026-03-22T09:59:34.999Z</time></trkpt><trkpt lat="42.099072397681496" lon="14.699448360404249"><ele>187.0</ele><time>2026-03-22T09:59:35.999Z</time></trkpt><trkpt lat="42.099036924592134" lon="14.699236408462486"><ele>188.0</ele><time>2026-03-22T09:59:36.999Z</time></trkpt><trkpt lat="42.09901227671889" lon="14.699016153106067"><ele>189.0</ele><time>2026-03-22T09:59:37.999Z</time></trkpt><trkpt lat="42.0989856997265" lon="14.69879382983648"><ele>191.0</ele><time>2026-03-22T09:59:38.999Z</time></trkpt><trkpt lat="42.09895808611036" lon="14.69857066855232"><ele>193.0</ele><time>2026-03-22T09:59:39.999Z</time></trkpt><trkpt lat="42.09889344144307" lon="14.69813704277005"><ele>193.0</ele><time>2026-03-22T09:59:41.999Z</time></trkpt><trkpt lat="42.098856823470584" lon="14.697938364471707"><ele>193.0</ele><time>2026-03-22T09:59:42.999Z</time></trkpt><trkpt lat="42.0988134266039" lon="14.697758649667472"><ele>193.0</ele><time>2026-03-22T09:59:43.999Z</time></trkpt><trkpt lat="42.09876883856747" lon="14.697600155132273"><ele>193.0</ele><time>2026-03-22T09:59:44.999Z</time></trkpt><trkpt lat="42.098709348916564" lon="14.697451032803807"><ele>195.0</ele><time>2026-03-22T09:59:45.999Z</time></trkpt><trkpt lat="42.09863723296072" lon="14.697295698974589"><ele>197.0</ele><time>2026-03-22T09:59:46.999Z</time></trkpt><trkpt lat="42.098569119861864" lon="14.697165192784555"><ele>199.0</ele><time>2026-03-22T09:59:47.999Z</time></trkpt><trkpt lat="42.09844104944363" lon="14.69706723418926"><ele>201.0</ele><time>2026-03-22T09:59:48.999Z</time></trkpt><trkpt lat="42.09832206454679" lon="14.696976964927646"><ele>202.0</ele><time>2026-03-22T09:59:49.999Z</time></trkpt><trkpt lat="42.09820951545386" lon="14.696877250094913"><ele>203.0</ele><time>2026-03-22T09:59:50.999Z</time></trkpt><trkpt lat="42.09810407344987" lon="14.69677202486859"><ele>204.0</ele><time>2026-03-22T09:59:51.999Z</time></trkpt><trkpt lat="42.098002761504546" lon="14.696680586893558"><ele>205.0</ele><time>2026-03-22T09:59:52.999Z</time></trkpt><trkpt lat="42.097911778125294" lon="14.696598809675836"><ele>204.99999999999997</ele><time>2026-03-22T09:59:53.999Z</time></trkpt><trkpt lat="42.09783487917393" lon="14.696527229759383"><ele>205.0</ele><time>2026-03-22T09:59:54.999Z</time></trkpt><trkpt lat="42.09775567536593" lon="14.69646804734632"><ele>205.0</ele><time>2026-03-22T09:59:55.999Z</time></trkpt><trkpt lat="42.097666484832246" lon="14.696426606645868"><ele>205.0</ele><time>2026-03-22T09:59:56.999Z</time></trkpt><trkpt lat="42.097576647827346" lon="14.69640327808842"><ele>204.99999999999997</ele><time>2026-03-22T09:59:57.999Z</time></trkpt><trkpt lat="42.09750478983749" lon="14.69640417066638"><ele>205.0</ele><time>2026-03-22T09:59:58.999Z</time></trkpt><trkpt lat="42.097407031123495" lon="14.696419304831808"><ele>205.83333333333331</ele><time>2026-03-22T10:00:00.999Z</time></trkpt><trkpt lat="42.09733190670038" lon="14.696437466102108"><ele>206.66666666666666</ele><time>2026-03-22T10:00:02.999Z</time></trkpt><trkpt lat="42.097212973169505" lon="14.696480777824362"><ele>207.5</ele><time>2026-03-22T10:00:04.999Z</time></trkpt><trkpt lat="42.09714418408377" lon="14.696512915417523"><ele>208.33333333333331</ele><time>2026-03-22T10:00:05.999Z</time></trkpt><trkpt lat="42.09707149749366" lon="14.696551648728333"><ele>209.16666666666666</ele><time>2026-03-22T10:00:06.999Z</time></trkpt><trkpt lat="42.09699837366295" lon="14.696595360099398"><ele>210.0</ele><time>2026-03-22T10:00:07.999Z</time></trkpt><trkpt lat="42.096922006305014" lon="14.696644595396405"><ele>210.0</ele><time>2026-03-22T10:00:08.999Z</time></trkpt><trkpt lat="42.096851799057" lon="14.696659406576005"><ele>210.0</ele><time>2026-03-22T10:00:09.999Z</time></trkpt><trkpt lat="42.09677371995589" lon="14.696848948417196"><ele>210.0</ele><time>2026-03-22T10:00:11.999Z</time></trkpt><trkpt lat="42.09674558501604" lon="14.696961432761663"><ele>210.0</ele><time>2026-03-22T10:00:12.999Z</time></trkpt><trkpt lat="42.09673082405978" lon="14.697080995156645"><ele>210.0</ele><time>2026-03-22T10:00:13.999Z</time></trkpt><trkpt lat="42.09670092329828" lon="14.697190104828657"><ele>209.5</ele><time>2026-03-22T10:00:14.999Z</time></trkpt><trkpt lat="42.096663269629275" lon="14.697282508104694"><ele>209.0</ele><time>2026-03-22T10:00:15.999Z</time></trkpt><trkpt lat="42.09660409836262" lon="14.697376957142374"><ele>208.5</ele><time>2026-03-22T10:00:16.999Z</time></trkpt><trkpt lat="42.09657637204153" lon="14.697485970144612"><ele>208.0</ele><time>2026-03-22T10:00:17.999Z</time></trkpt><trkpt lat="42.09660379335287" lon="14.697592905353725"><ele>207.5</ele><time>2026-03-22T10:00:18.999Z</time></trkpt><trkpt lat="42.096566945412974" lon="14.697693164112458"><ele>207.0</ele><time>2026-03-22T10:00:19.999Z</time></trkpt><trkpt lat="42.096527103848345" lon="14.697794093264887"><ele>204.6</ele><time>2026-03-22T10:00:20.999Z</time></trkpt><trkpt lat="42.0964635417025" lon="14.697860346149719"><ele>202.2</ele><time>2026-03-22T10:00:21.999Z</time></trkpt><trkpt lat="42.09639020375986" lon="14.697905212390749"><ele>199.8</ele><time>2026-03-22T10:00:22.999Z</time></trkpt><trkpt lat="42.09630601404183" lon="14.697911610345963"><ele>197.4</ele><time>2026-03-22T10:00:23.999Z</time></trkpt><trkpt lat="42.09621081693892" lon="14.697883614405566"><ele>195.0</ele><time>2026-03-22T10:00:24.999Z</time></trkpt><trkpt lat="42.09609364080351" lon="14.697871356477421"><ele>195.0</ele><time>2026-03-22T10:00:25.999Z</time></trkpt><trkpt lat="42.095966781504764" lon="14.697818404742321"><ele>195.0</ele><time>2026-03-22T10:00:26.999Z</time></trkpt><trkpt lat="42.095829077894116" lon="14.697774841303389"><ele>195.0</ele><time>2026-03-22T10:00:28Z</time></trkpt><trkpt lat="42.09568660668419" lon="14.697725534352633"><ele>195.0</ele><time>2026-03-22T10:00:29Z</time></trkpt><trkpt lat="42.09554664179906" lon="14.697688065098445"><ele>194.25</ele><time>2026-03-22T10:00:30Z</time></trkpt><trkpt lat="42.0954106463893" lon="14.697646601842063"><ele>193.5</ele><time>2026-03-22T10:00:31Z</time></trkpt><trkpt lat="42.09528794045564" lon="14.69759363438651"><ele>192.75</ele><time>2026-03-22T10:00:32Z</time></trkpt><trkpt lat="42.09517528538644" lon="14.697508185186459"><ele>192.0</ele><time>2026-03-22T10:00:33Z</time></trkpt><trkpt lat="42.09508179132411" lon="14.697367724655773"><ele>192.0</ele><time>2026-03-22T10:00:34Z</time></trkpt><trkpt lat="42.09497351147134" lon="14.697247659471032"><ele>192.0</ele><time>2026-03-22T10:00:35Z</time></trkpt><trkpt lat="42.09486678546912" lon="14.697123344623792"><ele>192.0</ele><time>2026-03-22T10:00:36Z</time></trkpt><trkpt lat="42.09473055561101" lon="14.697043702215867"><ele>192.0</ele><time>2026-03-22T10:00:37Z</time></trkpt><trkpt lat="42.09456838982959" lon="14.697000588458737"><ele>188.66666666666666</ele><time>2026-03-22T10:00:38Z</time></trkpt><trkpt lat="42.09438929118337" lon="14.696972755227286"><ele>185.33333333333331</ele><time>2026-03-22T10:00:39Z</time></trkpt><trkpt lat="42.09421551980433" lon="14.69695269348623"><ele>182.0</ele><time>2026-03-22T10:00:40Z</time></trkpt><trkpt lat="42.09404586957976" lon="14.696957571373524"><ele>180.66666666666666</ele><time>2026-03-22T10:00:41Z</time></trkpt><trkpt lat="42.09387399764518" lon="14.696983702784943"><ele>179.33333333333334</ele><time>2026-03-22T10:00:42Z</time></trkpt><trkpt lat="42.093693997937265" lon="14.697011726682277"><ele>178.0</ele><time>2026-03-22T10:00:43Z</time></trkpt><trkpt lat="42.09352152907133" lon="14.69705870551384"><ele>178.0</ele><time>2026-03-22T10:00:44Z</time></trkpt><trkpt lat="42.09334710230487" lon="14.69709092023744"><ele>178.0</ele><time>2026-03-22T10:00:45Z</time></trkpt><trkpt lat="42.093174892309634" lon="14.697101500270719"><ele>178.0</ele><time>2026-03-22T10:00:46Z</time></trkpt><trkpt lat="42.09299844591272" lon="14.69706962653333"><ele>176.66666666666669</ele><time>2026-03-22T10:00:47Z</time></trkpt><trkpt lat="42.0928244861373" lon="14.69704574796408"><ele>175.33333333333334</ele><time>2026-03-22T10:00:48Z</time></trkpt><trkpt lat="42.0926497084689" lon="14.697014607601195"><ele>174.0</ele><time>2026-03-22T10:00:49Z</time></trkpt><trkpt lat="42.09247434531567" lon="14.696980717631092"><ele>171.0</ele><time>2026-03-22T10:00:50Z</time></trkpt><trkpt lat="42.09230511012933" lon="14.696956614269697"><ele>168.0</ele><time>2026-03-22T10:00:51Z</time></trkpt><trkpt lat="42.09214260044396" lon="14.69691807304332"><ele>165.0</ele><time>2026-03-22T10:00:52Z</time></trkpt><trkpt lat="42.091976766777826" lon="14.6968844650076"><ele>171.66666666666666</ele><time>2026-03-22T10:00:53Z</time></trkpt><trkpt lat="42.09181737429435" lon="14.696851201157724"><ele>178.33333333333331</ele><time>2026-03-22T10:00:54Z</time></trkpt><trkpt lat="42.09165941911074" lon="14.696822464417698"><ele>185.0</ele><time>2026-03-22T10:00:55Z</time></trkpt><trkpt lat="42.09150956287823" lon="14.696777744948845"><ele>185.0</ele><time>2026-03-22T10:00:56Z</time></trkpt><trkpt lat="42.091369570936656" lon="14.696730886914484"><ele>185.0</ele><time>2026-03-22T10:00:57Z</time></trkpt><trkpt lat="42.09123704595674" lon="14.6966862883145"><ele>185.0</ele><time>2026-03-22T10:00:58Z</time></trkpt><trkpt lat="42.09110645870093" lon="14.696683040487446"><ele>185.0</ele><time>2026-03-22T10:00:59Z</time></trkpt><trkpt lat="42.09096036046241" lon="14.696724361378248"><ele>185.0</ele><time>2026-03-22T10:01:00Z</time></trkpt><trkpt lat="42.090810937755705" lon="14.696793903153807"><ele>185.0</ele><time>2026-03-22T10:01:01Z</time></trkpt><trkpt lat="42.0906605548504" lon="14.69687972243499"><ele>185.0</ele><time>2026-03-22T10:01:02Z</time></trkpt><trkpt lat="42.09050818316191" lon="14.696965787252795"><ele>180.0</ele><time>2026-03-22T10:01:03Z</time></trkpt><trkpt lat="42.09035088254203" lon="14.697020151507553"><ele>175.0</ele><time>2026-03-22T10:01:04Z</time></trkpt><trkpt lat="42.09020338267119" lon="14.69709911966432"><ele>170.0</ele><time>2026-03-22T10:01:05Z</time></trkpt><trkpt lat="42.09005078387438" lon="14.697163460605084"><ele>171.33333333333331</ele><time>2026-03-22T10:01:06Z</time></trkpt><trkpt lat="42.08989828534028" lon="14.697220301814216"><ele>172.66666666666666</ele><time>2026-03-22T10:01:07Z</time></trkpt><trkpt lat="42.08974557152063" lon="14.697271639784079"><ele>174.0</ele><time>2026-03-22T10:01:08Z</time></trkpt><trkpt lat="42.08958229010587" lon="14.697304876739247"><ele>174.0</ele><time>2026-03-22T10:01:09Z</time></trkpt><trkpt lat="42.089415318764644" lon="14.697305714547147"><ele>174.0</ele><time>2026-03-22T10:01:10Z</time></trkpt><trkpt lat="42.089251272323146" lon="14.697291724381984"><ele>174.0</ele><time>2026-03-22T10:01:11Z</time></trkpt><trkpt lat="42.08908967280425" lon="14.697244807230142"><ele>172.0</ele><time>2026-03-22T10:01:12Z</time></trkpt><trkpt lat="42.0889300228527" lon="14.697174508485576"><ele>170.0</ele><time>2026-03-22T10:01:13Z</time></trkpt><trkpt lat="42.08877116321614" lon="14.697093668358718"><ele>168.0</ele><time>2026-03-22T10:01:14Z</time></trkpt><trkpt lat="42.08860791787461" lon="14.697007766671843"><ele>168.0</ele><time>2026-03-22T10:01:15Z</time></trkpt><trkpt lat="42.0884497763345" lon="14.696935066311589"><ele>168.0</ele><time>2026-03-22T10:01:16Z</time></trkpt><trkpt lat="42.08830419158987" lon="14.696867035341963"><ele>168.0</ele><time>2026-03-22T10:01:17Z</time></trkpt><trkpt lat="42.08815976762892" lon="14.6968124555839"><ele>170.33333333333334</ele><time>2026-03-22T10:01:18Z</time></trkpt><trkpt lat="42.08800876549595" lon="14.696786878270217"><ele>172.66666666666669</ele><time>2026-03-22T10:01:19Z</time></trkpt><trkpt lat="42.08784818374119" lon="14.696797736060164"><ele>175.0</ele><time>2026-03-22T10:01:20Z</time></trkpt><trkpt lat="42.08768738939935" lon="14.696815761721975"><ele>175.0</ele><time>2026-03-22T10:01:20.999Z</time></trkpt><trkpt lat="42.087524635421524" lon="14.696816088853248"><ele>175.0</ele><time>2026-03-22T10:01:21.999Z</time></trkpt><trkpt lat="42.08736659512117" lon="14.69677244130619"><ele>175.0</ele><time>2026-03-22T10:01:22.999Z</time></trkpt><trkpt lat="42.08720564054937" lon="14.696701613643537"><ele>173.66666666666669</ele><time>2026-03-22T10:01:23.999Z</time></trkpt><trkpt lat="42.08706528973627" lon="14.69661965918896"><ele>172.33333333333334</ele><time>2026-03-22T10:01:24.999Z</time></trkpt><trkpt lat="42.08692306993717" lon="14.696546293982822"><ele>171.0</ele><time>2026-03-22T10:01:25.999Z</time></trkpt><trkpt lat="42.0867764893296" lon="14.696481489134559"><ele>171.0</ele><time>2026-03-22T10:01:26.999Z</time></trkpt><trkpt lat="42.08663614036465" lon="14.69644160538221"><ele>171.0</ele><time>2026-03-22T10:01:27.999Z</time></trkpt><trkpt lat="42.08649490367137" lon="14.696423989700508"><ele>171.0</ele><time>2026-03-22T10:01:28.999Z</time></trkpt><trkpt lat="42.08635880765796" lon="14.696421246444784"><ele>171.0</ele><time>2026-03-22T10:01:29.999Z</time></trkpt><trkpt lat="42.08623011086042" lon="14.696451582681643"><ele>171.0</ele><time>2026-03-22T10:01:30.999Z</time></trkpt><trkpt lat="42.0860907217869" lon="14.696495567732752"><ele>171.0</ele><time>2026-03-22T10:01:31.999Z</time></trkpt><trkpt lat="42.08594620714591" lon="14.69656742930002"><ele>171.0</ele><time>2026-03-22T10:01:32.999Z</time></trkpt><trkpt lat="42.0858031052762" lon="14.69664421459332"><ele>172.25</ele><time>2026-03-22T10:01:33.999Z</time></trkpt><trkpt lat="42.085667735173075" lon="14.69671045319047"><ele>173.5</ele><time>2026-03-22T10:01:34.999Z</time></trkpt><trkpt lat="42.08554219802043" lon="14.696777421325248"><ele>174.75</ele><time>2026-03-22T10:01:35.999Z</time></trkpt><trkpt lat="42.08542191217319" lon="14.696858853257854"><ele>176.0</ele><time>2026-03-22T10:01:36.999Z</time></trkpt><trkpt lat="42.085313809396006" lon="14.696958970916999"><ele>173.25</ele><time>2026-03-22T10:01:37.999Z</time></trkpt><trkpt lat="42.085220391852616" lon="14.697084082066896"><ele>170.5</ele><time>2026-03-22T10:01:38.999Z</time></trkpt><trkpt lat="42.08514213221963" lon="14.697228204455595"><ele>167.75</ele><time>2026-03-22T10:01:39.999Z</time></trkpt><trkpt lat="42.085080041291256" lon="14.697387943137635"><ele>165.0</ele><time>2026-03-22T10:01:40.999Z</time></trkpt><trkpt lat="42.08498851052565" lon="14.697506132270735"><ele>165.0</ele><time>2026-03-22T10:01:41.999Z</time></trkpt><trkpt lat="42.08487881887204" lon="14.697582876483027"><ele>165.0</ele><time>2026-03-22T10:01:42.999Z</time></trkpt><trkpt lat="42.08475410004793" lon="14.697622527239904"><ele>165.0</ele><time>2026-03-22T10:01:43.999Z</time></trkpt><trkpt lat="42.084618136917925" lon="14.697640686441344"><ele>165.0</ele><time>2026-03-22T10:01:44.999Z</time></trkpt><trkpt lat="42.08445989300567" lon="14.697660708299596"><ele>165.0</ele><time>2026-03-22T10:01:45.999Z</time></trkpt><trkpt lat="42.08428132482826" lon="14.697746325986609"><ele>165.0</ele><time>2026-03-22T10:01:46.999Z</time></trkpt><trkpt lat="42.0841321933479" lon="14.697852308635397"><ele>165.0</ele><time>2026-03-22T10:01:47.999Z</time></trkpt><trkpt lat="42.084039067535926" lon="14.697937444165227"><ele>162.66666666666666</ele><time>2026-03-22T10:01:48.999Z</time></trkpt><trkpt lat="42.083911517636274" lon="14.698043526888902"><ele>160.33333333333331</ele><time>2026-03-22T10:01:49.999Z</time></trkpt><trkpt lat="42.08376358568883" lon="14.698235660003887"><ele>158.0</ele><time>2026-03-22T10:01:50.999Z</time></trkpt><trkpt lat="42.08364041281643" lon="14.698364532594262"><ele>158.0</ele><time>2026-03-22T10:01:51.999Z</time></trkpt><trkpt lat="42.0835320158145" lon="14.69847785461832"><ele>158.0</ele><time>2026-03-22T10:01:52.999Z</time></trkpt><trkpt lat="42.083427222913656" lon="14.698585197426322"><ele>158.0</ele><time>2026-03-22T10:01:53.999Z</time></trkpt><trkpt lat="42.08330848175852" lon="14.69870583394989"><ele>158.0</ele><time>2026-03-22T10:01:54.999Z</time></trkpt><trkpt lat="42.083185193949596" lon="14.69883108979416"><ele>155.0</ele><time>2026-03-22T10:01:55.999Z</time></trkpt><trkpt lat="42.08302537682378" lon="14.698999606307927"><ele>152.0</ele><time>2026-03-22T10:01:56.999Z</time></trkpt><trkpt lat="42.08285830441284" lon="14.699175873933847"><ele>149.0</ele><time>2026-03-22T10:01:57.999Z</time></trkpt><trkpt lat="42.08269664925528" lon="14.699342949615106"><ele>149.33333333333331</ele><time>2026-03-22T10:01:58.999Z</time></trkpt><trkpt lat="42.08253694895311" lon="14.699508062696456"><ele>149.66666666666666</ele><time>2026-03-22T10:01:59.999Z</time></trkpt><trkpt lat="42.08237830674796" lon="14.699673747072161"><ele>150.0</ele><time>2026-03-22T10:02:00.999Z</time></trkpt><trkpt lat="42.082213708172645" lon="14.699844455641937"><ele>150.0</ele><time>2026-03-22T10:02:01.999Z</time></trkpt><trkpt lat="42.08204885976513" lon="14.700015293274252"><ele>150.0</ele><time>2026-03-22T10:02:02.999Z</time></trkpt><trkpt lat="42.081885457963594" lon="14.70018457156242"><ele>150.0</ele><time>2026-03-22T10:02:03.999Z</time></trkpt><trkpt lat="42.0817230458872" lon="14.700352420400987"><ele>150.33333333333334</ele><time>2026-03-22T10:02:04.999Z</time></trkpt><trkpt lat="42.081560750533285" lon="14.700513497360399"><ele>150.66666666666669</ele><time>2026-03-22T10:02:05.999Z</time></trkpt><trkpt lat="42.08140300694721" lon="14.700674116126056"><ele>151.0</ele><time>2026-03-22T10:02:06.999Z</time></trkpt><trkpt lat="42.08125252178154" lon="14.700831852783226"><ele>151.0</ele><time>2026-03-22T10:02:07.999Z</time></trkpt><trkpt lat="42.08110643031171" lon="14.700995845565282"><ele>151.0</ele><time>2026-03-22T10:02:08.999Z</time></trkpt><trkpt lat="42.080992092166184" lon="14.701197075588059"><ele>151.0</ele><time>2026-03-22T10:02:09.999Z</time></trkpt><trkpt lat="42.080889560079136" lon="14.701404017157438"><ele>151.66666666666669</ele><time>2026-03-22T10:02:10.999Z</time></trkpt><trkpt lat="42.08080623852804" lon="14.701636036235787"><ele>152.33333333333334</ele><time>2026-03-22T10:02:11.999Z</time></trkpt><trkpt lat="42.08070334670119" lon="14.70186132107737"><ele>153.0</ele><time>2026-03-22T10:02:12.999Z</time></trkpt><trkpt lat="42.08060945248095" lon="14.702088316976216"><ele>152.66666666666666</ele><time>2026-03-22T10:02:13.999Z</time></trkpt><trkpt lat="42.08052598612587" lon="14.70233036977292"><ele>152.33333333333331</ele><time>2026-03-22T10:02:14.999Z</time></trkpt><trkpt lat="42.0804271019978" lon="14.70256773619689"><ele>152.0</ele><time>2026-03-22T10:02:15.999Z</time></trkpt><trkpt lat="42.08032952878713" lon="14.702802116951336"><ele>152.0</ele><time>2026-03-22T10:02:16.999Z</time></trkpt><trkpt lat="42.080217937334425" lon="14.703022811684852"><ele>152.0</ele><time>2026-03-22T10:02:17.999Z</time></trkpt><trkpt lat="42.080120187965676" lon="14.703253783706977"><ele>152.0</ele><time>2026-03-22T10:02:18.999Z</time></trkpt><trkpt lat="42.08002204705596" lon="14.703485680160059"><ele>151.0</ele><time>2026-03-22T10:02:19.999Z</time></trkpt><trkpt lat="42.079924762937814" lon="14.70371584739814"><ele>150.0</ele><time>2026-03-22T10:02:20.999Z</time></trkpt><trkpt lat="42.07983996641742" lon="14.70391214170875"><ele>149.0</ele><time>2026-03-22T10:02:21.999Z</time></trkpt><trkpt lat="42.07976695043584" lon="14.704075970645496"><ele>149.0</ele><time>2026-03-22T10:02:22.999Z</time></trkpt><trkpt lat="42.079682145252335" lon="14.704210528187565"><ele>149.0</ele><time>2026-03-22T10:02:23.999Z</time></trkpt><trkpt lat="42.07957469878131" lon="14.704323278974451"><ele>149.0</ele><time>2026-03-22T10:02:24.999Z</time></trkpt><trkpt lat="42.079444060122945" lon="14.704414353528055"><ele>149.0</ele><time>2026-03-22T10:02:25.999Z</time></trkpt><trkpt lat="42.079295628906245" lon="14.7044868395131"><ele>146.33333333333331</ele><time>2026-03-22T10:02:26.999Z</time></trkpt><trkpt lat="42.07914142614898" lon="14.70455537998673"><ele>143.66666666666666</ele><time>2026-03-22T10:02:27.999Z</time></trkpt><trkpt lat="42.07900052021709" lon="14.704635778741626"><ele>141.0</ele><time>2026-03-22T10:02:28.999Z</time></trkpt><trkpt lat="42.078885435918224" lon="14.704749165081273"><ele>141.0</ele><time>2026-03-22T10:02:29.999Z</time></trkpt><trkpt lat="42.078769899901715" lon="14.704881342791449"><ele>141.0</ele><time>2026-03-22T10:02:30.999Z</time></trkpt><trkpt lat="42.07864933617521" lon="14.705050973531458"><ele>141.0</ele><time>2026-03-22T10:02:31.999Z</time></trkpt><trkpt lat="42.07852453725079" lon="14.705241065595267"><ele>139.66666666666666</ele><time>2026-03-22T10:02:33Z</time></trkpt><trkpt lat="42.0783968590684" lon="14.705436904191489"><ele>138.33333333333331</ele><time>2026-03-22T10:02:34Z</time></trkpt><trkpt lat="42.07827686585128" lon="14.705629620972706"><ele>137.0</ele><time>2026-03-22T10:02:35Z</time></trkpt><trkpt lat="42.07816827307996" lon="14.705817522565681"><ele>136.33333333333331</ele><time>2026-03-22T10:02:36Z</time></trkpt><trkpt lat="42.07805294201031" lon="14.705983881225242"><ele>135.66666666666666</ele><time>2026-03-22T10:02:37Z</time></trkpt><trkpt lat="42.077970274276325" lon="14.706168336071876"><ele>135.0</ele><time>2026-03-22T10:02:38Z</time></trkpt><trkpt lat="42.07793023211511" lon="14.706380280393363"><ele>136.66666666666666</ele><time>2026-03-22T10:02:39Z</time></trkpt><trkpt lat="42.07789852681584" lon="14.706585781888283"><ele>138.33333333333331</ele><time>2026-03-22T10:02:40Z</time></trkpt><trkpt lat="42.077888569635064" lon="14.706805283744206"><ele>140.0</ele><time>2026-03-22T10:02:41Z</time></trkpt><trkpt lat="42.07790335313954" lon="14.70704863820407"><ele>142.33333333333331</ele><time>2026-03-22T10:02:42Z</time></trkpt><trkpt lat="42.077927427196315" lon="14.707301169548272"><ele>144.66666666666666</ele><time>2026-03-22T10:02:43Z</time></trkpt><trkpt lat="42.07796105936513" lon="14.707564267904656"><ele>147.0</ele><time>2026-03-22T10:02:44Z</time></trkpt><trkpt lat="42.07798976017382" lon="14.707834237048578"><ele>149.0</ele><time>2026-03-22T10:02:45Z</time></trkpt><trkpt lat="42.07799274727302" lon="14.708104273152843"><ele>151.0</ele><time>2026-03-22T10:02:46Z</time></trkpt><trkpt lat="42.078016067245564" lon="14.708349415298695"><ele>153.0</ele><time>2026-03-22T10:02:47Z</time></trkpt><trkpt lat="42.07803402663816" lon="14.708568328660892"><ele>153.25</ele><time>2026-03-22T10:02:48Z</time></trkpt><trkpt lat="42.078045155345116" lon="14.70877051142272"><ele>153.5</ele><time>2026-03-22T10:02:49Z</time></trkpt><trkpt lat="42.07803793637474" lon="14.708960106904547"><ele>153.75</ele><time>2026-03-22T10:02:50Z</time></trkpt><trkpt lat="42.0780185387226" lon="14.709148372788201"><ele>154.0</ele><time>2026-03-22T10:02:51Z</time></trkpt><trkpt lat="42.077991464788674" lon="14.709347488043807"><ele>153.0</ele><time>2026-03-22T10:02:52Z</time></trkpt><trkpt lat="42.07796062957919" lon="14.709549580311002"><ele>152.0</ele><time>2026-03-22T10:02:53Z</time></trkpt><trkpt lat="42.077930331563955" lon="14.709734854451344"><ele>151.0</ele><time>2026-03-22T10:02:54Z</time></trkpt><trkpt lat="42.07790134699985" lon="14.709892083677863"><ele>150.0</ele><time>2026-03-22T10:02:55Z</time></trkpt><trkpt lat="42.07786678506263" lon="14.710038605285144"><ele>150.0</ele><time>2026-03-22T10:02:56Z</time></trkpt><trkpt lat="42.077810981486905" lon="14.710173240347618"><ele>150.0</ele><time>2026-03-22T10:02:57Z</time></trkpt><trkpt lat="42.07774293062416" lon="14.710305750976685"><ele>150.0</ele><time>2026-03-22T10:02:58Z</time></trkpt><trkpt lat="42.077627754457914" lon="14.710401248581059"><ele>150.0</ele><time>2026-03-22T10:02:59Z</time></trkpt><trkpt lat="42.07749228405301" lon="14.710442277296124"><ele>149.66666666666666</ele><time>2026-03-22T10:03:00Z</time></trkpt><trkpt lat="42.07734702599973" lon="14.710486355096519"><ele>149.33333333333331</ele><time>2026-03-22T10:03:01Z</time></trkpt><trkpt lat="42.07717692634308" lon="14.710553946816628"><ele>149.0</ele><time>2026-03-22T10:03:02Z</time></trkpt><trkpt lat="42.07698819736934" lon="14.710605371025343"><ele>149.0</ele><time>2026-03-22T10:03:03Z</time></trkpt><trkpt lat="42.07681795161461" lon="14.710655229778578"><ele>149.0</ele><time>2026-03-22T10:03:04Z</time></trkpt><trkpt lat="42.07665270282905" lon="14.710691325156827"><ele>149.0</ele><time>2026-03-22T10:03:05Z</time></trkpt><trkpt lat="42.076491382576314" lon="14.71075367479903"><ele>150.66666666666666</ele><time>2026-03-22T10:03:06Z</time></trkpt><trkpt lat="42.07633685344098" lon="14.710843339283494"><ele>152.33333333333334</ele><time>2026-03-22T10:03:07Z</time></trkpt><trkpt lat="42.07619942784672" lon="14.710955717153924"><ele>154.0</ele><time>2026-03-22T10:03:08Z</time></trkpt><trkpt lat="42.07606633253035" lon="14.711048357449378"><ele>151.66666666666669</ele><time>2026-03-22T10:03:09Z</time></trkpt><trkpt lat="42.0759390068843" lon="14.711127436658007"><ele>149.33333333333334</ele><time>2026-03-22T10:03:10Z</time></trkpt><trkpt lat="42.075782536745656" lon="14.711104683599233"><ele>147.0</ele><time>2026-03-22T10:03:11Z</time></trkpt><trkpt lat="42.07561235793789" lon="14.711124498080807"><ele>147.0</ele><time>2026-03-22T10:03:12Z</time></trkpt><trkpt lat="42.07543237085426" lon="14.711115859057996"><ele>147.0</ele><time>2026-03-22T10:03:13Z</time></trkpt><trkpt lat="42.0752474513196" lon="14.711097937363684"><ele>147.0</ele><time>2026-03-22T10:03:14Z</time></trkpt><trkpt lat="42.07506205348959" lon="14.711099718741929"><ele>148.75</ele><time>2026-03-22T10:03:15Z</time></trkpt><trkpt lat="42.07489341116334" lon="14.71110133912612"><ele>150.5</ele><time>2026-03-22T10:03:16Z</time></trkpt><trkpt lat="42.074751993685034" lon="14.711118885849041"><ele>152.25</ele><time>2026-03-22T10:03:17Z</time></trkpt><trkpt lat="42.074620662069236" lon="14.711132178298637"><ele>154.0</ele><time>2026-03-22T10:03:18Z</time></trkpt><trkpt lat="42.07449127132046" lon="14.711168344046701"><ele>154.0</ele><time>2026-03-22T10:03:19Z</time></trkpt><trkpt lat="42.074365580910914" lon="14.711249053895873"><ele>154.0</ele><time>2026-03-22T10:03:20Z</time></trkpt><trkpt lat="42.07425050288999" lon="14.711350971989749"><ele>154.0</ele><time>2026-03-22T10:03:21Z</time></trkpt><trkpt lat="42.07414260613735" lon="14.711454517828928"><ele>154.0</ele><time>2026-03-22T10:03:21.999Z</time></trkpt><trkpt lat="42.07408015538953" lon="14.711600033958856"><ele>156.66666666666669</ele><time>2026-03-22T10:03:22.999Z</time></trkpt><trkpt lat="42.07403162582125" lon="14.711767487460802"><ele>159.33333333333334</ele><time>2026-03-22T10:03:23.999Z</time></trkpt><trkpt lat="42.07399382299848" lon="14.711964031649362"><ele>162.0</ele><time>2026-03-22T10:03:24.999Z</time></trkpt><trkpt lat="42.073963374628974" lon="14.71222142101357"><ele>162.0</ele><time>2026-03-22T10:03:25.999Z</time></trkpt><trkpt lat="42.073901266970445" lon="14.71250334713401"><ele>162.0</ele><time>2026-03-22T10:03:26.999Z</time></trkpt><trkpt lat="42.073848729167075" lon="14.712811628994524"><ele>161.0</ele><time>2026-03-22T10:03:27.999Z</time></trkpt><trkpt lat="42.07379795911557" lon="14.713118857383005"><ele>160.0</ele><time>2026-03-22T10:03:28.999Z</time></trkpt><trkpt lat="42.073746557159296" lon="14.713451154287913"><ele>158.5</ele><time>2026-03-22T10:03:29.999Z</time></trkpt><trkpt lat="42.07369471816647" lon="14.713799100396203"><ele>157.0</ele><time>2026-03-22T10:03:30.999Z</time></trkpt><trkpt lat="42.07364091519298" lon="14.71415390919209"><ele>156.0</ele><time>2026-03-22T10:03:31.999Z</time></trkpt><trkpt lat="42.07358652341373" lon="14.714500262762943"><ele>155.0</ele><time>2026-03-22T10:03:32.999Z</time></trkpt><trkpt lat="42.07353266504133" lon="14.71484235808895"><ele>155.0</ele><time>2026-03-22T10:03:33.999Z</time></trkpt><trkpt lat="42.07347972680718" lon="14.715166169276289"><ele>155.0</ele><time>2026-03-22T10:03:34.999Z</time></trkpt><trkpt lat="42.073430449209475" lon="14.715456607041572"><ele>154.66666666666666</ele><time>2026-03-22T10:03:35.999Z</time></trkpt><trkpt lat="42.07338370139592" lon="14.715732134509782"><ele>154.33333333333334</ele><time>2026-03-22T10:03:36.999Z</time></trkpt><trkpt lat="42.07334006335659" lon="14.715989333177601"><ele>154.0</ele><time>2026-03-22T10:03:37.999Z</time></trkpt><trkpt lat="42.07329964206918" lon="14.71623656320561"><ele>156.33333333333334</ele><time>2026-03-22T10:03:38.999Z</time></trkpt><trkpt lat="42.073269027985525" lon="14.71645950294629"><ele>158.66666666666666</ele><time>2026-03-22T10:03:39.999Z</time></trkpt><trkpt lat="42.07324711286346" lon="14.716661858501055"><ele>161.0</ele><time>2026-03-22T10:03:40.999Z</time></trkpt><trkpt lat="42.07324595728981" lon="14.716855434571846"><ele>158.5</ele><time>2026-03-22T10:03:41.999Z</time></trkpt><trkpt lat="42.0732892352203" lon="14.717040154671215"><ele>156.0</ele><time>2026-03-22T10:03:42.999Z</time></trkpt><trkpt lat="42.073343194346755" lon="14.7172342371009"><ele>153.5</ele><time>2026-03-22T10:03:43.999Z</time></trkpt><trkpt lat="42.073391512173274" lon="14.717418383620911"><ele>151.0</ele><time>2026-03-22T10:03:44.999Z</time></trkpt><trkpt lat="42.07341204070264" lon="14.717612841381923"><ele>150.66666666666669</ele><time>2026-03-22T10:03:45.999Z</time></trkpt><trkpt lat="42.07335064464506" lon="14.717810606135455"><ele>150.33333333333334</ele><time>2026-03-22T10:03:46.999Z</time></trkpt><trkpt lat="42.07332667416396" lon="14.718035939540313"><ele>150.0</ele><time>2026-03-22T10:03:47.999Z</time></trkpt><trkpt lat="42.073297329930966" lon="14.718281337119176"><ele>151.0</ele><time>2026-03-22T10:03:48.999Z</time></trkpt><trkpt lat="42.07326863637313" lon="14.71849887785276"><ele>152.0</ele><time>2026-03-22T10:03:49.999Z</time></trkpt><trkpt lat="42.07324113586471" lon="14.718679991903453"><ele>153.0</ele><time>2026-03-22T10:03:50.999Z</time></trkpt><trkpt lat="42.073209494423104" lon="14.718838657181182"><ele>154.0</ele><time>2026-03-22T10:03:51.999Z</time></trkpt><trkpt lat="42.073166387389755" lon="14.718977699407471"><ele>150.0</ele><time>2026-03-22T10:03:52.999Z</time></trkpt><trkpt lat="42.07316359052256" lon="14.719141741888537"><ele>146.0</ele><time>2026-03-22T10:03:53.999Z</time></trkpt><trkpt lat="42.07300906261171" lon="14.71923293577642"><ele>142.0</ele><time>2026-03-22T10:03:54.999Z</time></trkpt><trkpt lat="42.07285388671531" lon="14.71933654577615"><ele>140.66666666666669</ele><time>2026-03-22T10:03:55.999Z</time></trkpt><trkpt lat="42.07267311136734" lon="14.719466040854611"><ele>139.33333333333334</ele><time>2026-03-22T10:03:56.999Z</time></trkpt><trkpt lat="42.07247761771931" lon="14.719631498805466"><ele>138.0</ele><time>2026-03-22T10:03:57.999Z</time></trkpt><trkpt lat="42.07224482150941" lon="14.719767250556265"><ele>137.5</ele><time>2026-03-22T10:03:58.999Z</time></trkpt><trkpt lat="42.07202884079528" lon="14.719938165534577"><ele>137.0</ele><time>2026-03-22T10:03:59.999Z</time></trkpt><trkpt lat="42.07181996157647" lon="14.720106361113027"><ele>133.0</ele><time>2026-03-22T10:04:00.999Z</time></trkpt><trkpt lat="42.07161534164343" lon="14.720273501644975"><ele>129.0</ele><time>2026-03-22T10:04:01.999Z</time></trkpt><trkpt lat="42.071406227022365" lon="14.720444313576975"><ele>129.0</ele><time>2026-03-22T10:04:02.999Z</time></trkpt><trkpt lat="42.071202004964476" lon="14.7206101019171"><ele>129.0</ele><time>2026-03-22T10:04:03.999Z</time></trkpt><trkpt lat="42.07100264520263" lon="14.720770983754864"><ele>129.0</ele><time>2026-03-22T10:04:04.999Z</time></trkpt><trkpt lat="42.070806001985986" lon="14.720929673380127"><ele>129.0</ele><time>2026-03-22T10:04:05.999Z</time></trkpt><trkpt lat="42.07061690888631" lon="14.721082270101874"><ele>126.33333333333334</ele><time>2026-03-22T10:04:06.999Z</time></trkpt><trkpt lat="42.07042828152234" lon="14.721234491002557"><ele>123.66666666666667</ele><time>2026-03-22T10:04:07.999Z</time></trkpt><trkpt lat="42.0702540475266" lon="14.72137509655055"><ele>121.0</ele><time>2026-03-22T10:04:08.999Z</time></trkpt><trkpt lat="42.07008256346431" lon="14.721511620479768"><ele>122.66666666666667</ele><time>2026-03-22T10:04:09.999Z</time></trkpt><trkpt lat="42.069929697890785" lon="14.721630326939211"><ele>124.33333333333334</ele><time>2026-03-22T10:04:10.999Z</time></trkpt><trkpt lat="42.06978110522024" lon="14.721744590077433"><ele>126.0</ele><time>2026-03-22T10:04:11.999Z</time></trkpt><trkpt lat="42.06964256267207" lon="14.721855620299797"><ele>123.33333333333334</ele><time>2026-03-22T10:04:12.999Z</time></trkpt><trkpt lat="42.06952459310103" lon="14.721981865896725"><ele>120.66666666666667</ele><time>2026-03-22T10:04:13.999Z</time></trkpt><trkpt lat="42.06941898670305" lon="14.722110010492262"><ele>118.0</ele><time>2026-03-22T10:04:14.999Z</time></trkpt><trkpt lat="42.069330408113025" lon="14.722285150829443"><ele>118.0</ele><time>2026-03-22T10:04:15.999Z</time></trkpt><trkpt lat="42.06926054012532" lon="14.722483104214026"><ele>118.0</ele><time>2026-03-22T10:04:16.999Z</time></trkpt><trkpt lat="42.06917507624079" lon="14.72265747604816"><ele>118.0</ele><time>2026-03-22T10:04:17.999Z</time></trkpt><trkpt lat="42.06907151506638" lon="14.72279372323243"><ele>118.5</ele><time>2026-03-22T10:04:18.999Z</time></trkpt><trkpt lat="42.068958527939344" lon="14.722900039439063"><ele>119.0</ele><time>2026-03-22T10:04:19.999Z</time></trkpt><trkpt lat="42.068843021553064" lon="14.723000364449517"><ele>119.5</ele><time>2026-03-22T10:04:20.999Z</time></trkpt><trkpt lat="42.068734175915836" lon="14.723122667628024"><ele>120.0</ele><time>2026-03-22T10:04:21.999Z</time></trkpt><trkpt lat="42.06864007134543" lon="14.723238271032988"><ele>120.0</ele><time>2026-03-22T10:04:22.999Z</time></trkpt><trkpt lat="42.06857252032677" lon="14.723374609413298"><ele>120.0</ele><time>2026-03-22T10:04:23.999Z</time></trkpt><trkpt lat="42.06852550151811" lon="14.723527828662965"><ele>120.0</ele><time>2026-03-22T10:04:24.999Z</time></trkpt><trkpt lat="42.068556858163" lon="14.723709174993534"><ele>120.0</ele><time>2026-03-22T10:04:25.999Z</time></trkpt><trkpt lat="42.068575074484286" lon="14.723880443418588"><ele>119.0</ele><time>2026-03-22T10:04:26.999Z</time></trkpt><trkpt lat="42.06866979718924" lon="14.724023830444409"><ele>118.0</ele><time>2026-03-22T10:04:27.999Z</time></trkpt><trkpt lat="42.06870203472807" lon="14.724167223675746"><ele>117.0</ele><time>2026-03-22T10:04:28.999Z</time></trkpt><trkpt lat="42.06872121958946" lon="14.72429306749844"><ele>116.0</ele><time>2026-03-22T10:04:29.999Z</time></trkpt><trkpt lat="42.06869995319855" lon="14.724423782206973"><ele>115.0</ele><time>2026-03-22T10:04:30.999Z</time></trkpt><trkpt lat="42.068634037488664" lon="14.724558092457011"><ele>113.33333333333334</ele><time>2026-03-22T10:04:31.999Z</time></trkpt><trkpt lat="42.06854935874039" lon="14.724721722477998"><ele>111.66666666666666</ele><time>2026-03-22T10:04:32.999Z</time></trkpt><trkpt lat="42.0684521722394" lon="14.724903726981744"><ele>110.0</ele><time>2026-03-22T10:04:33.999Z</time></trkpt><trkpt lat="42.068343888513965" lon="14.725102347214206"><ele>108.33333333333333</ele><time>2026-03-22T10:04:34.999Z</time></trkpt><trkpt lat="42.06824216833988" lon="14.725292254212372"><ele>106.66666666666666</ele><time>2026-03-22T10:04:35.999Z</time></trkpt><trkpt lat="42.068149972658816" lon="14.725464119569489"><ele>105.0</ele><time>2026-03-22T10:04:36.999Z</time></trkpt><trkpt lat="42.06806797066092" lon="14.725605623318867"><ele>105.0</ele><time>2026-03-22T10:04:37.999Z</time></trkpt><trkpt lat="42.06798121816274" lon="14.725727761287805"><ele>105.0</ele><time>2026-03-22T10:04:39Z</time></trkpt><trkpt lat="42.06787268343171" lon="14.72583334065253"><ele>105.0</ele><time>2026-03-22T10:04:40Z</time></trkpt><trkpt lat="42.06773467318172" lon="14.725884060949342"><ele>105.0</ele><time>2026-03-22T10:04:41Z</time></trkpt><trkpt lat="42.06758131311266" lon="14.725929769486623"><ele>103.66666666666666</ele><time>2026-03-22T10:04:42Z</time></trkpt><trkpt lat="42.067421984480866" lon="14.72596920991095"><ele>102.33333333333333</ele><time>2026-03-22T10:04:43Z</time></trkpt><trkpt lat="42.06726594102428" lon="14.72600865431071"><ele>101.0</ele><time>2026-03-22T10:04:44Z</time></trkpt><trkpt lat="42.0671084493344" lon="14.725995059889103"><ele>101.0</ele><time>2026-03-22T10:04:45Z</time></trkpt><trkpt lat="42.06694862996844" lon="14.72594794559962"><ele>101.0</ele><time>2026-03-22T10:04:46Z</time></trkpt><trkpt lat="42.06678516419219" lon="14.725876053257803"><ele>101.0</ele><time>2026-03-22T10:04:47Z</time></trkpt><trkpt lat="42.066624307030175" lon="14.72580469078585"><ele>101.0</ele><time>2026-03-22T10:04:48Z</time></trkpt><trkpt lat="42.06647667768494" lon="14.725746540260033"><ele>101.0</ele><time>2026-03-22T10:04:49Z</time></trkpt><trkpt lat="42.066342619636146" lon="14.725709228540532"><ele>101.0</ele><time>2026-03-22T10:04:50Z</time></trkpt><trkpt lat="42.0662203067892" lon="14.725702920906325"><ele>101.0</ele><time>2026-03-22T10:04:51Z</time></trkpt><trkpt lat="42.06610145817134" lon="14.725748056084988"><ele>101.0</ele><time>2026-03-22T10:04:52Z</time></trkpt><trkpt lat="42.065987104385975" lon="14.725835284768568"><ele>101.0</ele><time>2026-03-22T10:04:53Z</time></trkpt><trkpt lat="42.06588983317851" lon="14.725970069378654"><ele>101.0</ele><time>2026-03-22T10:04:54Z</time></trkpt><trkpt lat="42.06581045120789" lon="14.72613127019326"><ele>101.0</ele><time>2026-03-22T10:04:55Z</time></trkpt><trkpt lat="42.06572538308699" lon="14.726305170162767"><ele>99.66666666666666</ele><time>2026-03-22T10:04:56Z</time></trkpt><trkpt lat="42.06563916900116" lon="14.726493039634967"><ele>98.33333333333334</ele><time>2026-03-22T10:04:57Z</time></trkpt><trkpt lat="42.06555130983633" lon="14.726679865309071"><ele>97.0</ele><time>2026-03-22T10:04:58Z</time></trkpt><trkpt lat="42.06545817177623" lon="14.726872412966326"><ele>95.33333333333334</ele><time>2026-03-22T10:04:59Z</time></trkpt><trkpt lat="42.06536126879658" lon="14.727071784421446"><ele>93.66666666666667</ele><time>2026-03-22T10:05:00Z</time></trkpt><trkpt lat="42.065263564248355" lon="14.727272267083677"><ele>92.0</ele><time>2026-03-22T10:05:01Z</time></trkpt><trkpt lat="42.06516328271929" lon="14.727478037551187"><ele>92.0</ele><time>2026-03-22T10:05:02Z</time></trkpt><trkpt lat="42.0650640816995" lon="14.727683213878985"><ele>92.0</ele><time>2026-03-22T10:05:03Z</time></trkpt><trkpt lat="42.06496994408433" lon="14.727880869949619"><ele>92.0</ele><time>2026-03-22T10:05:04Z</time></trkpt><trkpt lat="42.064886607955195" lon="14.728062357574212"><ele>91.25</ele><time>2026-03-22T10:05:05Z</time></trkpt><trkpt lat="42.06484149980995" lon="14.728252434626222"><ele>90.5</ele><time>2026-03-22T10:05:06Z</time></trkpt><trkpt lat="42.06477329172058" lon="14.728400608100713"><ele>89.75</ele><time>2026-03-22T10:05:07Z</time></trkpt><trkpt lat="42.06470849045183" lon="14.728536364917124"><ele>89.0</ele><time>2026-03-22T10:05:08Z</time></trkpt><trkpt lat="42.06463892091709" lon="14.728657425346475"><ele>87.75</ele><time>2026-03-22T10:05:09Z</time></trkpt><trkpt lat="42.06453137120755" lon="14.728727772568178"><ele>86.5</ele><time>2026-03-22T10:05:10Z</time></trkpt><trkpt lat="42.06443768435214" lon="14.728792970699194"><ele>85.25</ele><time>2026-03-22T10:05:11Z</time></trkpt><trkpt lat="42.06432716756432" lon="14.728839457228938"><ele>84.0</ele><time>2026-03-22T10:05:12Z</time></trkpt><trkpt lat="42.06420320353057" lon="14.728885559543283"><ele>83.75</ele><time>2026-03-22T10:05:13Z</time></trkpt><trkpt lat="42.06407218933828" lon="14.728903910523199"><ele>83.5</ele><time>2026-03-22T10:05:14Z</time></trkpt><trkpt lat="42.063946389020415" lon="14.728935467586984"><ele>83.25</ele><time>2026-03-22T10:05:15Z</time></trkpt><trkpt lat="42.063833623479866" lon="14.72898303030199"><ele>83.0</ele><time>2026-03-22T10:05:15.999Z</time></trkpt><trkpt lat="42.063720453410255" lon="14.729048023467477"><ele>83.0</ele><time>2026-03-22T10:05:16.999Z</time></trkpt><trkpt lat="42.06362005221157" lon="14.729160913277264"><ele>83.0</ele><time>2026-03-22T10:05:17.999Z</time></trkpt><trkpt lat="42.063539258635764" lon="14.729315077741251"><ele>83.0</ele><time>2026-03-22T10:05:18.999Z</time></trkpt><trkpt lat="42.06346682573357" lon="14.729485002644724"><ele>83.0</ele><time>2026-03-22T10:05:19.999Z</time></trkpt><trkpt lat="42.06339586449911" lon="14.72965185985974"><ele>81.75</ele><time>2026-03-22T10:05:20.999Z</time></trkpt><trkpt lat="42.063323891765734" lon="14.729800961808193"><ele>80.5</ele><time>2026-03-22T10:05:21.999Z</time></trkpt><trkpt lat="42.06324603186317" lon="14.729929829964153"><ele>79.25</ele><time>2026-03-22T10:05:22.999Z</time></trkpt><trkpt lat="42.063154705438734" lon="14.730026280279013"><ele>78.0</ele><time>2026-03-22T10:05:23.999Z</time></trkpt><trkpt lat="42.06304295575395" lon="14.730071170161988"><ele>78.0</ele><time>2026-03-22T10:05:24.999Z</time></trkpt><trkpt lat="42.062910871578644" lon="14.730082948237607"><ele>78.0</ele><time>2026-03-22T10:05:25.999Z</time></trkpt><trkpt lat="42.06276279906232" lon="14.730090117131002"><ele>78.0</ele><time>2026-03-22T10:05:26.999Z</time></trkpt><trkpt lat="42.06260761215077" lon="14.730082569114135"><ele>78.0</ele><time>2026-03-22T10:05:27.999Z</time></trkpt><trkpt lat="42.0624426715247" lon="14.730087331533536"><ele>77.66666666666667</ele><time>2026-03-22T10:05:28.999Z</time></trkpt><trkpt lat="42.062274159820554" lon="14.73010130805009"><ele>77.33333333333334</ele><time>2026-03-22T10:05:29.999Z</time></trkpt><trkpt lat="42.06210673061998" lon="14.730133070576917"><ele>77.0</ele><time>2026-03-22T10:05:30.999Z</time></trkpt><trkpt lat="42.061934951140174" lon="14.730176509207455"><ele>77.0</ele><time>2026-03-22T10:05:31.999Z</time></trkpt><trkpt lat="42.06175863342879" lon="14.73021738965934"><ele>77.0</ele><time>2026-03-22T10:05:32.999Z</time></trkpt><trkpt lat="42.06158910707132" lon="14.730244788302397"><ele>77.0</ele><time>2026-03-22T10:05:33.999Z</time></trkpt><trkpt lat="42.0614261795259" lon="14.730233652469725"><ele>72.33333333333334</ele><time>2026-03-22T10:05:34.999Z</time></trkpt><trkpt lat="42.06126274442731" lon="14.73025777642993"><ele>67.66666666666667</ele><time>2026-03-22T10:05:35.999Z</time></trkpt><trkpt lat="42.061094274295606" lon="14.730255260743538"><ele>63.0</ele><time>2026-03-22T10:05:36.999Z</time></trkpt><trkpt lat="42.06092478365969" lon="14.73025277040053"><ele>62.66666666666667</ele><time>2026-03-22T10:05:37.999Z</time></trkpt><trkpt lat="42.06075502496516" lon="14.730261638270013"><ele>62.333333333333336</ele><time>2026-03-22T10:05:38.999Z</time></trkpt><trkpt lat="42.060603777431325" lon="14.730268995533084"><ele>62.0</ele><time>2026-03-22T10:05:39.999Z</time></trkpt><trkpt lat="42.06047432180024" lon="14.730269065929162"><ele>62.0</ele><time>2026-03-22T10:05:40.999Z</time></trkpt><trkpt lat="42.060356142843176" lon="14.730257049542054"><ele>62.0</ele><time>2026-03-22T10:05:41.999Z</time></trkpt><trkpt lat="42.06024014722781" lon="14.730235132877917"><ele>62.0</ele><time>2026-03-22T10:05:42.999Z</time></trkpt><trkpt lat="42.06013349458475" lon="14.730177686057457"><ele>62.0</ele><time>2026-03-22T10:05:43.999Z</time></trkpt><trkpt lat="42.06003500982242" lon="14.730088850265275"><ele>61.25</ele><time>2026-03-22T10:05:44.999Z</time></trkpt><trkpt lat="42.059946483657534" lon="14.729964982440684"><ele>60.5</ele><time>2026-03-22T10:05:45.999Z</time></trkpt><trkpt lat="42.05986067414569" lon="14.729829208965542"><ele>59.75</ele><time>2026-03-22T10:05:46.999Z</time></trkpt><trkpt lat="42.05978429558656" lon="14.729716500492376"><ele>59.0</ele><time>2026-03-22T10:05:47.999Z</time></trkpt><trkpt lat="42.05970201082611" lon="14.729638990178724"><ele>59.0</ele><time>2026-03-22T10:05:48.999Z</time></trkpt><trkpt lat="42.05960677333661" lon="14.729591812281347"><ele>59.0</ele><time>2026-03-22T10:05:49.999Z</time></trkpt><trkpt lat="42.05949564373883" lon="14.72957099149517"><ele>59.0</ele><time>2026-03-22T10:05:50.999Z</time></trkpt><trkpt lat="42.059378725445335" lon="14.729583994374657"><ele>59.0</ele><time>2026-03-22T10:05:51.999Z</time></trkpt><trkpt lat="42.059259453622474" lon="14.729630486195921"><ele>59.0</ele><time>2026-03-22T10:05:52.999Z</time></trkpt><trkpt lat="42.05914591323318" lon="14.729688095497643"><ele>59.00000000000001</ele><time>2026-03-22T10:05:53.999Z</time></trkpt><trkpt lat="42.05904278297138" lon="14.729733286993625"><ele>59.00000000000001</ele><time>2026-03-22T10:05:54.999Z</time></trkpt><trkpt lat="42.05895422431334" lon="14.72976517082735"><ele>59.0</ele><time>2026-03-22T10:05:55.999Z</time></trkpt><trkpt lat="42.05887318942676" lon="14.729776817300621"><ele>59.0</ele><time>2026-03-22T10:05:56.999Z</time></trkpt><trkpt lat="42.05880352620163" lon="14.729762979012309"><ele>57.0</ele><time>2026-03-22T10:05:57.999Z</time></trkpt><trkpt lat="42.058739377688674" lon="14.729718459909614"><ele>55.00000000000001</ele><time>2026-03-22T10:05:58.999Z</time></trkpt><trkpt lat="42.05869264187823" lon="14.729626081953203"><ele>53.0</ele><time>2026-03-22T10:05:59.999Z</time></trkpt><trkpt lat="42.05866605819705" lon="14.72950194076563"><ele>51.0</ele><time>2026-03-22T10:06:00.999Z</time></trkpt><trkpt lat="42.058664768533234" lon="14.729352623475084"><ele>49.0</ele><time>2026-03-22T10:06:01.999Z</time></trkpt><trkpt lat="42.0586729330677" lon="14.729173893922825"><ele>49.0</ele><time>2026-03-22T10:06:02.999Z</time></trkpt><trkpt lat="42.05868330476639" lon="14.728978979488389"><ele>49.0</ele><time>2026-03-22T10:06:03.999Z</time></trkpt><trkpt lat="42.05868349806128" lon="14.728803845622107"><ele>49.0</ele><time>2026-03-22T10:06:04.999Z</time></trkpt><trkpt lat="42.05866992958485" lon="14.728645501147023"><ele>49.0</ele><time>2026-03-22T10:06:05.999Z</time></trkpt><trkpt lat="42.058637419197126" lon="14.728492897855014"><ele>49.25</ele><time>2026-03-22T10:06:06.999Z</time></trkpt><trkpt lat="42.058584411364464" lon="14.72835344873645"><ele>49.5</ele><time>2026-03-22T10:06:07.999Z</time></trkpt><trkpt lat="42.05851428228901" lon="14.728220877872534"><ele>49.75</ele><time>2026-03-22T10:06:08.999Z</time></trkpt><trkpt lat="42.05842867401656" lon="14.728109148020954"><ele>50.0</ele><time>2026-03-22T10:06:09.999Z</time></trkpt><trkpt lat="42.058332750784366" lon="14.728007342280826"><ele>49.0</ele><time>2026-03-22T10:06:10.999Z</time></trkpt><trkpt lat="42.05822923103082" lon="14.72790526221288"><ele>48.0</ele><time>2026-03-22T10:06:11.999Z</time></trkpt><trkpt lat="42.05813167823112" lon="14.727801940507039"><ele>47.0</ele><time>2026-03-22T10:06:12.999Z</time></trkpt><trkpt lat="42.058037742118124" lon="14.727695050630148"><ele>46.0</ele><time>2026-03-22T10:06:13.999Z</time></trkpt><trkpt lat="42.0579471150777" lon="14.727599739302178"><ele>46.0</ele><time>2026-03-22T10:06:14.999Z</time></trkpt><trkpt lat="42.057859734417434" lon="14.727528743375283"><ele>46.0</ele><time>2026-03-22T10:06:15.999Z</time></trkpt><trkpt lat="42.0577675268759" lon="14.727494119285929"><ele>46.0</ele><time>2026-03-22T10:06:16.999Z</time></trkpt><trkpt lat="42.05767525394768" lon="14.72748521651354"><ele>46.0</ele><time>2026-03-22T10:06:17.999Z</time></trkpt><trkpt lat="42.05759338039835" lon="14.727489149997488"><ele>46.0</ele><time>2026-03-22T10:06:18.999Z</time></trkpt><trkpt lat="42.057513303239006" lon="14.727576747421153"><ele>47.25</ele><time>2026-03-22T10:06:19.999Z</time></trkpt><trkpt lat="42.057437798231746" lon="14.727676465891358"><ele>48.5</ele><time>2026-03-22T10:06:20.999Z</time></trkpt><trkpt lat="42.05734908733509" lon="14.72779445141622"><ele>49.75</ele><time>2026-03-22T10:06:21.999Z</time></trkpt><trkpt lat="42.05725781786322" lon="14.727920816678703"><ele>51.0</ele><time>2026-03-22T10:06:22.999Z</time></trkpt><trkpt lat="42.05716907879458" lon="14.728043766376233"><ele>51.0</ele><time>2026-03-22T10:06:23.999Z</time></trkpt><trkpt lat="42.05709813119351" lon="14.728171161253519"><ele>51.0</ele><time>2026-03-22T10:06:24.999Z</time></trkpt><trkpt lat="42.057019374112976" lon="14.728276046836655"><ele>51.0</ele><time>2026-03-22T10:06:25.999Z</time></trkpt><trkpt lat="42.056994880300515" lon="14.728435615136359"><ele>51.0</ele><time>2026-03-22T10:06:26.999Z</time></trkpt><trkpt lat="42.056967248820264" lon="14.728594583082181"><ele>51.0</ele><time>2026-03-22T10:06:27.999Z</time></trkpt><trkpt lat="42.05696400095875" lon="14.72876116926283"><ele>51.0</ele><time>2026-03-22T10:06:28.999Z</time></trkpt><trkpt lat="42.05695348792649" lon="14.728916226302385"><ele>51.0</ele><time>2026-03-22T10:06:29.999Z</time></trkpt><trkpt lat="42.05692886401724" lon="14.729066466345348"><ele>51.0</ele><time>2026-03-22T10:06:30.999Z</time></trkpt><trkpt lat="42.05687573560064" lon="14.729203723245618"><ele>51.0</ele><time>2026-03-22T10:06:31.999Z</time></trkpt><trkpt lat="42.05680769575351" lon="14.729329113128417"><ele>51.0</ele><time>2026-03-22T10:06:32.999Z</time></trkpt><trkpt lat="42.056732664320826" lon="14.72945594644444"><ele>51.0</ele><time>2026-03-22T10:06:33.999Z</time></trkpt><trkpt lat="42.056661514184306" lon="14.729594284961381"><ele>51.0</ele><time>2026-03-22T10:06:34.999Z</time></trkpt><trkpt lat="42.05657181029391" lon="14.729718587323573"><ele>54.75</ele><time>2026-03-22T10:06:35.999Z</time></trkpt><trkpt lat="42.05648796024101" lon="14.729847053853208"><ele>58.5</ele><time>2026-03-22T10:06:36.999Z</time></trkpt><trkpt lat="42.05641774413172" lon="14.729993110996537"><ele>62.25</ele><time>2026-03-22T10:06:37.999Z</time></trkpt><trkpt lat="42.056357550611644" lon="14.730155735385162"><ele>66.0</ele><time>2026-03-22T10:06:38.999Z</time></trkpt><trkpt lat="42.0562821332684" lon="14.730356328359056"><ele>66.0</ele><time>2026-03-22T10:06:39.999Z</time></trkpt><trkpt lat="42.05622054913585" lon="14.730564075691902"><ele>66.0</ele><time>2026-03-22T10:06:40.999Z</time></trkpt><trkpt lat="42.05616795862652" lon="14.73074148411657"><ele>66.0</ele><time>2026-03-22T10:06:41.999Z</time></trkpt><trkpt lat="42.056119757891736" lon="14.730921121575086"><ele>65.75</ele><time>2026-03-22T10:06:42.999Z</time></trkpt><trkpt lat="42.0560715010621" lon="14.73110199844283"><ele>65.5</ele><time>2026-03-22T10:06:43.999Z</time></trkpt><trkpt lat="42.05602300130904" lon="14.731283785840526"><ele>65.25</ele><time>2026-03-22T10:06:45Z</time></trkpt><trkpt lat="42.05597569503448" lon="14.731461099827186"><ele>65.0</ele><time>2026-03-22T10:06:46Z</time></trkpt><trkpt lat="42.055930460044465" lon="14.731630650196324"><ele>65.0</ele><time>2026-03-22T10:06:47Z</time></trkpt><trkpt lat="42.055888512850615" lon="14.731787877196822"><ele>65.0</ele><time>2026-03-22T10:06:48Z</time></trkpt><trkpt lat="42.05584682484948" lon="14.731944132699889"><ele>65.0</ele><time>2026-03-22T10:06:49Z</time></trkpt><trkpt lat="42.05580657823141" lon="14.73209092380765"><ele>65.0</ele><time>2026-03-22T10:06:50Z</time></trkpt><trkpt lat="42.05576481890165" lon="14.73223883340126"><ele>67.25</ele><time>2026-03-22T10:06:51Z</time></trkpt><trkpt lat="42.0557235722811" lon="14.73238183978571"><ele>69.5</ele><time>2026-03-22T10:06:52Z</time></trkpt><trkpt lat="42.05567953176273" lon="14.732524203323793"><ele>71.75</ele><time>2026-03-22T10:06:53Z</time></trkpt><trkpt lat="42.05563474395518" lon="14.732669095262143"><ele>74.0</ele><time>2026-03-22T10:06:54Z</time></trkpt><trkpt lat="42.05559275565792" lon="14.732806153655401"><ele>74.0</ele><time>2026-03-22T10:06:55Z</time></trkpt><trkpt lat="42.0555512948243" lon="14.732941490304512"><ele>74.0</ele><time>2026-03-22T10:06:56Z</time></trkpt><trkpt lat="42.055515112171435" lon="14.733063251548893"><ele>74.0</ele><time>2026-03-22T10:06:57Z</time></trkpt><trkpt lat="42.05548722323583" lon="14.733160104134608"><ele>74.0</ele><time>2026-03-22T10:06:58Z</time></trkpt><trkpt lat="42.05546004522132" lon="14.733254487818408"><ele>74.0</ele><time>2026-03-22T10:06:59Z</time></trkpt><trkpt lat="42.0554331024893" lon="14.733348054417812"><ele>74.0</ele><time>2026-03-22T10:07:00Z</time></trkpt><trkpt lat="42.05540562189393" lon="14.73343903237906"><ele>74.0</ele><time>2026-03-22T10:07:01Z</time></trkpt><trkpt lat="42.05539300341966" lon="14.7335263184428"><ele>74.0</ele><time>2026-03-22T10:07:02Z</time></trkpt><trkpt lat="42.05530990879592" lon="14.733598203281066"><ele>74.0</ele><time>2026-03-22T10:07:04Z</time></trkpt><trkpt lat="42.05525579916468" lon="14.733687006803828"><ele>74.0</ele><time>2026-03-22T10:07:07Z</time></trkpt><trkpt lat="42.05519152884815" lon="14.733733526711676"><ele>74.0</ele><time>2026-03-22T10:07:11Z</time></trkpt><trkpt lat="42.055111203454366" lon="14.73375638152707"><ele>74.0</ele><time>2026-03-22T10:07:13Z</time></trkpt><trkpt lat="42.05503309952666" lon="14.733743038829738"><ele>73.66666666666667</ele><time>2026-03-22T10:07:14Z</time></trkpt><trkpt lat="42.054953887513854" lon="14.733723249211874"><ele>73.33333333333334</ele><time>2026-03-22T10:07:14.999Z</time></trkpt><trkpt lat="42.0548729872547" lon="14.733688539861944"><ele>73.0</ele><time>2026-03-22T10:07:15.999Z</time></trkpt><trkpt lat="42.054790890875715" lon="14.73370165942611"><ele>72.66666666666667</ele><time>2026-03-22T10:07:16.999Z</time></trkpt><trkpt lat="42.054706459117895" lon="14.733714702722633"><ele>72.33333333333333</ele><time>2026-03-22T10:07:17.999Z</time></trkpt><trkpt lat="42.05462413065633" lon="14.733726882609375"><ele>72.0</ele><time>2026-03-22T10:07:18.999Z</time></trkpt><trkpt lat="42.05455121120662" lon="14.733851281103535"><ele>72.0</ele><time>2026-03-22T10:07:19.999Z</time></trkpt><trkpt lat="42.05452843451155" lon="14.733992715938822"><ele>72.0</ele><time>2026-03-22T10:07:20.999Z</time></trkpt><trkpt lat="42.054478169707316" lon="14.734095190422705"><ele>72.0</ele><time>2026-03-22T10:07:21.999Z</time></trkpt><trkpt lat="42.05439153198686" lon="14.734135853800954"><ele>72.0</ele><time>2026-03-22T10:07:22.999Z</time></trkpt><trkpt lat="42.054289270499126" lon="14.73414092172821"><ele>72.0</ele><time>2026-03-22T10:07:23.999Z</time></trkpt><trkpt lat="42.0541650774478" lon="14.734088904763606"><ele>71.25</ele><time>2026-03-22T10:07:24.999Z</time></trkpt><trkpt lat="42.05403101792887" lon="14.734089070774397"><ele>70.5</ele><time>2026-03-22T10:07:25.999Z</time></trkpt><trkpt lat="42.05389595257041" lon="14.734092365791154"><ele>69.75</ele><time>2026-03-22T10:07:26.999Z</time></trkpt><trkpt lat="42.0537567339663" lon="14.734094686100395"><ele>69.0</ele><time>2026-03-22T10:07:27.999Z</time></trkpt><trkpt lat="42.05362864516486" lon="14.73409682091624"><ele>69.0</ele><time>2026-03-22T10:07:28.999Z</time></trkpt><trkpt lat="42.053507984433566" lon="14.734099352141303"><ele>69.0</ele><time>2026-03-22T10:07:29.999Z</time></trkpt><trkpt lat="42.05339755390522" lon="14.734101564028292"><ele>69.0</ele><time>2026-03-22T10:07:30.999Z</time></trkpt><trkpt lat="42.053287032419064" lon="14.73411734917334"><ele>69.0</ele><time>2026-03-22T10:07:31.999Z</time></trkpt><trkpt lat="42.05316457440718" lon="14.734120435595614"><ele>70.0</ele><time>2026-03-22T10:07:32.999Z</time></trkpt><trkpt lat="42.05303500027278" lon="14.734117778205597"><ele>71.0</ele><time>2026-03-22T10:07:33.999Z</time></trkpt><trkpt lat="42.05277962771368" lon="14.734122479386905"><ele>72.0</ele><time>2026-03-22T10:07:35.999Z</time></trkpt><trkpt lat="42.052656788597275" lon="14.73411566066139"><ele>72.0</ele><time>2026-03-22T10:07:36.999Z</time></trkpt><trkpt lat="42.0525279595483" lon="14.73411792881112"><ele>72.0</ele><time>2026-03-22T10:07:37.999Z</time></trkpt><trkpt lat="42.05238694788547" lon="14.734120371748846"><ele>72.0</ele><time>2026-03-22T10:07:38.999Z</time></trkpt><trkpt lat="42.05225305475796" lon="14.734133678536574"><ele>72.0</ele><time>2026-03-22T10:07:39.999Z</time></trkpt><trkpt lat="42.05212049617976" lon="14.734117595931648"><ele>72.5</ele><time>2026-03-22T10:07:40.999Z</time></trkpt><trkpt lat="42.05199454257113" lon="14.734116142187633"><ele>73.0</ele><time>2026-03-22T10:07:41.999Z</time></trkpt><trkpt lat="42.05186973468775" lon="14.73411653615281"><ele>73.5</ele><time>2026-03-22T10:07:42.999Z</time></trkpt><trkpt lat="42.051738707797504" lon="14.734096853047424"><ele>74.0</ele><time>2026-03-22T10:07:43.999Z</time></trkpt><trkpt lat="42.05159988884342" lon="14.734076907420905"><ele>73.0</ele><time>2026-03-22T10:07:44.999Z</time></trkpt><trkpt lat="42.05145624111991" lon="14.734053559397692"><ele>72.0</ele><time>2026-03-22T10:07:45.999Z</time></trkpt><trkpt lat="42.051316395530115" lon="14.734024679104804"><ele>71.0</ele><time>2026-03-22T10:07:46.999Z</time></trkpt><trkpt lat="42.05117303588971" lon="14.734021855436795"><ele>70.0</ele><time>2026-03-22T10:07:47.999Z</time></trkpt><trkpt lat="42.051029151334724" lon="14.734038103249434"><ele>70.0</ele><time>2026-03-22T10:07:48.999Z</time></trkpt><trkpt lat="42.05089042539441" lon="14.734043511778879"><ele>70.0</ele><time>2026-03-22T10:07:49.999Z</time></trkpt><trkpt lat="42.05076242710571" lon="14.734054783491084"><ele>70.0</ele><time>2026-03-22T10:07:50.999Z</time></trkpt><trkpt lat="42.05065870892548" lon="14.734069941154102"><ele>70.0</ele><time>2026-03-22T10:07:51.999Z</time></trkpt><trkpt lat="42.050571292662596" lon="14.734085306588428"><ele>70.0</ele><time>2026-03-22T10:07:52.999Z</time></trkpt><trkpt lat="42.05048793008019" lon="14.734090712321478"><ele>70.0</ele><time>2026-03-22T10:07:53.999Z</time></trkpt><trkpt lat="42.05041997248618" lon="14.734082816708831"><ele>70.0</ele><time>2026-03-22T10:07:54.999Z</time></trkpt><trkpt lat="42.050348863908205" lon="14.733962349072902"><ele>70.0</ele><time>2026-03-22T10:07:56.999Z</time></trkpt><trkpt lat="42.05029429026336" lon="14.733885430854551"><ele>70.0</ele><time>2026-03-22T10:07:57.999Z</time></trkpt><trkpt lat="42.05025093296722" lon="14.733807022985797"><ele>70.0</ele><time>2026-03-22T10:07:58.999Z</time></trkpt><trkpt lat="42.05018940996218" lon="14.733765428306345"><ele>70.0</ele><time>2026-03-22T10:07:59.999Z</time></trkpt><trkpt lat="42.0500682092112" lon="14.733784800927706"><ele>70.0</ele><time>2026-03-22T10:08:01.999Z</time></trkpt><trkpt lat="42.05000841020543" lon="14.733828985208367"><ele>70.0</ele><time>2026-03-22T10:08:02.999Z</time></trkpt><trkpt lat="42.04996040920215" lon="14.733924284505543"><ele>70.0</ele><time>2026-03-22T10:08:03.999Z</time></trkpt><trkpt lat="42.04993677785531" lon="14.73402906970758"><ele>70.0</ele><time>2026-03-22T10:08:04.999Z</time></trkpt><trkpt lat="42.04994832767512" lon="14.734155566263565"><ele>70.0</ele><time>2026-03-22T10:08:05.999Z</time></trkpt><trkpt lat="42.05002040841812" lon="14.734248549449784"><ele>70.0</ele><time>2026-03-22T10:08:06.999Z</time></trkpt><trkpt lat="42.05007969906976" lon="14.734346225117669"><ele>70.0</ele><time>2026-03-22T10:08:07.999Z</time></trkpt><trkpt lat="42.05014924780013" lon="14.73440907892881"><ele>70.0</ele><time>2026-03-22T10:08:08.999Z</time></trkpt><trkpt lat="42.05008749420879" lon="14.734549944987798"><ele>70.0</ele><time>2026-03-22T10:08:09.999Z</time></trkpt><trkpt lat="42.050078063845135" lon="14.734675022398417"><ele>67.0</ele><time>2026-03-22T10:08:10.999Z</time></trkpt><trkpt lat="42.05006947570057" lon="14.73481901645896"><ele>64.0</ele><time>2026-03-22T10:08:11.999Z</time></trkpt><trkpt lat="42.050061832119965" lon="14.734971780442152"><ele>61.0</ele><time>2026-03-22T10:08:12.999Z</time></trkpt><trkpt lat="42.050056772891324" lon="14.735127383849601"><ele>58.0</ele><time>2026-03-22T10:08:13.999Z</time></trkpt><trkpt lat="42.05005703392341" lon="14.73528859267119"><ele>55.666666666666664</ele><time>2026-03-22T10:08:14.999Z</time></trkpt><trkpt lat="42.05006074211226" lon="14.73546119962934"><ele>53.33333333333333</ele><time>2026-03-22T10:08:15.999Z</time></trkpt><trkpt lat="42.050068014217224" lon="14.73563753275659"><ele>51.0</ele><time>2026-03-22T10:08:16.999Z</time></trkpt><trkpt lat="42.05010914401132" lon="14.735995253717219"><ele>50.75</ele><time>2026-03-22T10:08:18.999Z</time></trkpt><trkpt lat="42.050140589603764" lon="14.736180017435911"><ele>50.5</ele><time>2026-03-22T10:08:19.999Z</time></trkpt><trkpt lat="42.05018757438687" lon="14.736351892988283"><ele>50.25</ele><time>2026-03-22T10:08:20.999Z</time></trkpt><trkpt lat="42.050239569054526" lon="14.736524060469145"><ele>50.0</ele><time>2026-03-22T10:08:21.999Z</time></trkpt><trkpt lat="42.05029171436953" lon="14.73669489170899"><ele>50.0</ele><time>2026-03-22T10:08:22.999Z</time></trkpt><trkpt lat="42.05034023446955" lon="14.736847408344683"><ele>50.0</ele><time>2026-03-22T10:08:23.999Z</time></trkpt><trkpt lat="42.05038671813864" lon="14.736989523413142"><ele>50.0</ele><time>2026-03-22T10:08:24.999Z</time></trkpt><trkpt lat="42.05044251060184" lon="14.737150897934546"><ele>50.0</ele><time>2026-03-22T10:08:25.999Z</time></trkpt><trkpt lat="42.050511333769215" lon="14.737338952017804"><ele>49.333333333333336</ele><time>2026-03-22T10:08:26.999Z</time></trkpt><trkpt lat="42.05058453733512" lon="14.737539804895585"><ele>48.66666666666667</ele><time>2026-03-22T10:08:27.999Z</time></trkpt><trkpt lat="42.050659809504744" lon="14.737749611338682"><ele>48.0</ele><time>2026-03-22T10:08:28.999Z</time></trkpt><trkpt lat="42.05073485106952" lon="14.737958774704348"><ele>47.0</ele><time>2026-03-22T10:08:29.999Z</time></trkpt><trkpt lat="42.05080834010176" lon="14.738159298767389"><ele>46.0</ele><time>2026-03-22T10:08:30.999Z</time></trkpt><trkpt lat="42.050889737253115" lon="14.738346049386777"><ele>45.0</ele><time>2026-03-22T10:08:31.999Z</time></trkpt><trkpt lat="42.05095657448654" lon="14.738549415374017"><ele>43.333333333333336</ele><time>2026-03-22T10:08:32.999Z</time></trkpt><trkpt lat="42.05099975756628" lon="14.73875614919723"><ele>41.66666666666667</ele><time>2026-03-22T10:08:33.999Z</time></trkpt><trkpt lat="42.051055929749474" lon="14.738954876938028"><ele>40.0</ele><time>2026-03-22T10:08:34.999Z</time></trkpt><trkpt lat="42.05108622040781" lon="14.739163485160594"><ele>40.0</ele><time>2026-03-22T10:08:35.999Z</time></trkpt><trkpt lat="42.05107116021121" lon="14.739376151662398"><ele>40.0</ele><time>2026-03-22T10:08:36.999Z</time></trkpt><trkpt lat="42.051068968644024" lon="14.739589852676819"><ele>40.0</ele><time>2026-03-22T10:08:37.999Z</time></trkpt><trkpt lat="42.05106474419709" lon="14.739813158263528"><ele>39.333333333333336</ele><time>2026-03-22T10:08:38.999Z</time></trkpt><trkpt lat="42.051047452595746" lon="14.74003700762307"><ele>38.666666666666664</ele><time>2026-03-22T10:08:39.999Z</time></trkpt><trkpt lat="42.05104485599733" lon="14.740261128646564"><ele>38.0</ele><time>2026-03-22T10:08:40.999Z</time></trkpt><trkpt lat="42.051059361310045" lon="14.740482326255202"><ele>38.0</ele><time>2026-03-22T10:08:41.999Z</time></trkpt><trkpt lat="42.05108961079456" lon="14.740715964225975"><ele>38.0</ele><time>2026-03-22T10:08:42.999Z</time></trkpt><trkpt lat="42.05113831427625" lon="14.740948031725168"><ele>38.0</ele><time>2026-03-22T10:08:43.999Z</time></trkpt><trkpt lat="42.05120507584199" lon="14.741179064848216"><ele>37.33333333333333</ele><time>2026-03-22T10:08:44.999Z</time></trkpt><trkpt lat="42.05128344363371" lon="14.741402449654538"><ele>36.666666666666664</ele><time>2026-03-22T10:08:45.999Z</time></trkpt><trkpt lat="42.051360533025765" lon="14.741632067017358"><ele>36.0</ele><time>2026-03-22T10:08:46.999Z</time></trkpt><trkpt lat="42.05143234084206" lon="14.741841468132197"><ele>36.25</ele><time>2026-03-22T10:08:47.999Z</time></trkpt><trkpt lat="42.0514976407555" lon="14.742013006545715"><ele>36.5</ele><time>2026-03-22T10:08:48.999Z</time></trkpt><trkpt lat="42.05155736125354" lon="14.742173234404861"><ele>36.75</ele><time>2026-03-22T10:08:49.999Z</time></trkpt><trkpt lat="42.051603548898" lon="14.742316510501864"><ele>37.0</ele><time>2026-03-22T10:08:51Z</time></trkpt><trkpt lat="42.05165101520772" lon="14.742448697641565"><ele>37.0</ele><time>2026-03-22T10:08:52Z</time></trkpt><trkpt lat="42.051636997513235" lon="14.742575302658173"><ele>37.0</ele><time>2026-03-22T10:08:53Z</time></trkpt><trkpt lat="42.05164229480938" lon="14.742690113919082"><ele>37.0</ele><time>2026-03-22T10:08:54Z</time></trkpt><trkpt lat="42.051623036955164" lon="14.742799378439184"><ele>37.0</ele><time>2026-03-22T10:08:55Z</time></trkpt><trkpt lat="42.051596494567825" lon="14.742888020090884"><ele>37.0</ele><time>2026-03-22T10:08:56Z</time></trkpt><trkpt lat="42.05156423054517" lon="14.742966814662925"><ele>37.0</ele><time>2026-03-22T10:08:57Z</time></trkpt><trkpt lat="42.05148711483317" lon="14.743079334085348"><ele>36.5</ele><time>2026-03-22T10:08:59Z</time></trkpt><trkpt lat="42.051308936604755" lon="14.743040349199479"><ele>36.0</ele><time>2026-03-22T10:09:02Z</time></trkpt><trkpt lat="42.05123681059904" lon="14.742962456827614"><ele>35.5</ele><time>2026-03-22T10:09:03Z</time></trkpt><trkpt lat="42.05115389164728" lon="14.742851042383021"><ele>35.0</ele><time>2026-03-22T10:09:04Z</time></trkpt><trkpt lat="42.05105620436925" lon="14.74271876285194"><ele>35.0</ele><time>2026-03-22T10:09:05Z</time></trkpt><trkpt lat="42.05094081471184" lon="14.74257653965151"><ele>35.0</ele><time>2026-03-22T10:09:06Z</time></trkpt><trkpt lat="42.0508239244636" lon="14.742438752920947"><ele>35.0</ele><time>2026-03-22T10:09:07Z</time></trkpt><trkpt lat="42.050713836504904" lon="14.74230877842615"><ele>35.0</ele><time>2026-03-22T10:09:08Z</time></trkpt><trkpt lat="42.05060567610216" lon="14.742172223281022"><ele>35.0</ele><time>2026-03-22T10:09:09Z</time></trkpt><trkpt lat="42.050482722600115" lon="14.742020139795164"><ele>35.0</ele><time>2026-03-22T10:09:09.999Z</time></trkpt><trkpt lat="42.05030926556512" lon="14.741883185267886"><ele>36.5</ele><time>2026-03-22T10:09:10.999Z</time></trkpt><trkpt lat="42.050163657716205" lon="14.741620580587522"><ele>38.0</ele><time>2026-03-22T10:09:11.999Z</time></trkpt><trkpt lat="42.04998804382961" lon="14.741399095379542"><ele>37.5</ele><time>2026-03-22T10:09:12.999Z</time></trkpt><trkpt lat="42.04981102873435" lon="14.741166881432571"><ele>37.0</ele><time>2026-03-22T10:09:13.999Z</time></trkpt><trkpt lat="42.04962764429978" lon="14.7409217721548"><ele>38.0</ele><time>2026-03-22T10:09:14.999Z</time></trkpt><trkpt lat="42.0494544153222" lon="14.740682416362889"><ele>39.0</ele><time>2026-03-22T10:09:15.999Z</time></trkpt><trkpt lat="42.049290813214256" lon="14.740450814632453"><ele>39.0</ele><time>2026-03-22T10:09:16.999Z</time></trkpt><trkpt lat="42.0491298269318" lon="14.740223741066282"><ele>39.0</ele><time>2026-03-22T10:09:17.999Z</time></trkpt><trkpt lat="42.04897045317103" lon="14.739999276497254"><ele>41.0</ele><time>2026-03-22T10:09:18.999Z</time></trkpt><trkpt lat="42.048811042610204" lon="14.739774901878143"><ele>43.0</ele><time>2026-03-22T10:09:19.999Z</time></trkpt><trkpt lat="42.04865561985498" lon="14.739554876621556"><ele>43.0</ele><time>2026-03-22T10:09:20.999Z</time></trkpt><trkpt lat="42.0485037487913" lon="14.739340045079109"><ele>43.0</ele><time>2026-03-22T10:09:21.999Z</time></trkpt><trkpt lat="42.04835505993987" lon="14.739130712120344"><ele>43.0</ele><time>2026-03-22T10:09:22.999Z</time></trkpt><trkpt lat="42.048212764721384" lon="14.738926402343285"><ele>43.0</ele><time>2026-03-22T10:09:23.999Z</time></trkpt><trkpt lat="42.04807696902483" lon="14.7387215161391"><ele>43.0</ele><time>2026-03-22T10:09:24.999Z</time></trkpt><trkpt lat="42.04793111166055" lon="14.738537038356593"><ele>43.0</ele><time>2026-03-22T10:09:25.999Z</time></trkpt><trkpt lat="42.047824574509555" lon="14.738321684116165"><ele>44.0</ele><time>2026-03-22T10:09:26.999Z</time></trkpt><trkpt lat="42.04770531048252" lon="14.738127450120503"><ele>45.0</ele><time>2026-03-22T10:09:27.999Z</time></trkpt><trkpt lat="42.047597629150886" lon="14.737942567072107"><ele>46.0</ele><time>2026-03-22T10:09:28.999Z</time></trkpt><trkpt lat="42.04750288255842" lon="14.737771496028788"><ele>46.25</ele><time>2026-03-22T10:09:29.999Z</time></trkpt><trkpt lat="42.047411626616245" lon="14.737610889484587"><ele>46.5</ele><time>2026-03-22T10:09:30.999Z</time></trkpt><trkpt lat="42.04732876475342" lon="14.737465381304826"><ele>46.75</ele><time>2026-03-22T10:09:31.999Z</time></trkpt><trkpt lat="42.047244748880935" lon="14.737319525485095"><ele>47.0</ele><time>2026-03-22T10:09:32.999Z</time></trkpt><trkpt lat="42.04715274483018" lon="14.737173915430311"><ele>47.0</ele><time>2026-03-22T10:09:33.999Z</time></trkpt><trkpt lat="42.04706480589993" lon="14.737036054683852"><ele>47.0</ele><time>2026-03-22T10:09:34.999Z</time></trkpt><trkpt lat="42.046994232931674" lon="14.736921156581545"><ele>47.0</ele><time>2026-03-22T10:09:35.999Z</time></trkpt><trkpt lat="42.04695270900283" lon="14.736843573140435"><ele>47.0</ele><time>2026-03-22T10:09:36.999Z</time></trkpt><trkpt lat="42.046891458052286" lon="14.736756491936037"><ele>47.0</ele><time>2026-03-22T10:09:38.999Z</time></trkpt><trkpt lat="42.04678945587662" lon="14.736647691866045"><ele>47.400000000000006</ele><time>2026-03-22T10:09:40.999Z</time></trkpt><trkpt lat="42.04673690396359" lon="14.736551654167359"><ele>47.800000000000004</ele><time>2026-03-22T10:09:41.999Z</time></trkpt><trkpt lat="42.04666610741756" lon="14.73647617987572"><ele>48.2</ele><time>2026-03-22T10:09:42.999Z</time></trkpt><trkpt lat="42.046569622676486" lon="14.736420320866445"><ele>48.6</ele><time>2026-03-22T10:09:43.999Z</time></trkpt><trkpt lat="42.04646337913486" lon="14.736427070619566"><ele>49.0</ele><time>2026-03-22T10:09:44.999Z</time></trkpt><trkpt lat="42.04637052232004" lon="14.736357306578583"><ele>49.0</ele><time>2026-03-22T10:09:45.999Z</time></trkpt><trkpt lat="42.04629476961282" lon="14.736297718529624"><ele>49.0</ele><time>2026-03-22T10:09:46.999Z</time></trkpt><trkpt lat="42.04623003143184" lon="14.736219862720143"><ele>49.0</ele><time>2026-03-22T10:09:47.999Z</time></trkpt><trkpt lat="42.04617879928369" lon="14.736125155817312"><ele>49.0</ele><time>2026-03-22T10:09:48.999Z</time></trkpt><trkpt lat="42.04608346120989" lon="14.736088962006662"><ele>49.0</ele><time>2026-03-22T10:09:49.999Z</time></trkpt><trkpt lat="42.04612221512473" lon="14.735908255492872"><ele>49.83333333333333</ele><time>2026-03-22T10:09:50.999Z</time></trkpt><trkpt lat="42.04612159755149" lon="14.735817060869756"><ele>50.666666666666664</ele><time>2026-03-22T10:09:51.999Z</time></trkpt><trkpt lat="42.04611091927785" lon="14.735696210718618"><ele>51.5</ele><time>2026-03-22T10:09:53.999Z</time></trkpt><trkpt lat="42.04608034292306" lon="14.735573525372187"><ele>52.33333333333333</ele><time>2026-03-22T10:09:55.999Z</time></trkpt><trkpt lat="42.04607084398887" lon="14.735479836970198"><ele>53.166666666666664</ele><time>2026-03-22T10:09:56.999Z</time></trkpt><trkpt lat="42.04606791179771" lon="14.735367011770622"><ele>54.0</ele><time>2026-03-22T10:09:57.999Z</time></trkpt><trkpt lat="42.04605948613509" lon="14.735227956883664"><ele>56.2</ele><time>2026-03-22T10:09:58.999Z</time></trkpt><trkpt lat="42.046043538333265" lon="14.735073034095088"><ele>58.400000000000006</ele><time>2026-03-22T10:09:59.999Z</time></trkpt><trkpt lat="42.04602637099687" lon="14.734925500899058"><ele>60.6</ele><time>2026-03-22T10:10:00.999Z</time></trkpt><trkpt lat="42.04601136357445" lon="14.734795456099745"><ele>62.8</ele><time>2026-03-22T10:10:01.999Z</time></trkpt><trkpt lat="42.045997588396425" lon="14.734663459026239"><ele>65.0</ele><time>2026-03-22T10:10:02.999Z</time></trkpt><trkpt lat="42.04598473156519" lon="14.734537136294065"><ele>65.0</ele><time>2026-03-22T10:10:03.999Z</time></trkpt><trkpt lat="42.04596861964201" lon="14.734418862858844"><ele>65.0</ele><time>2026-03-22T10:10:04.999Z</time></trkpt><trkpt lat="42.04595756407352" lon="14.734318215453486"><ele>65.0</ele><time>2026-03-22T10:10:05.999Z</time></trkpt><trkpt lat="42.045957361035185" lon="14.734225405712552"><ele>65.0</ele><time>2026-03-22T10:10:08.999Z</time></trkpt><trkpt lat="42.04593422436156" lon="14.734146552811008"><ele>65.0</ele><time>2026-03-22T10:10:50Z</time></trkpt><trkpt lat="42.04592501251728" lon="14.734059071238176"><ele>65.0</ele><time>2026-03-22T10:10:52Z</time></trkpt><trkpt lat="42.046069168732835" lon="14.734040738249588"><ele>67.0</ele><time>2026-03-22T10:10:53Z</time></trkpt><trkpt lat="42.04614399946156" lon="14.734041998507342"><ele>69.0</ele><time>2026-03-22T10:10:54Z</time></trkpt><trkpt lat="42.04623961871914" lon="14.734043681775406"><ele>71.0</ele><time>2026-03-22T10:10:55Z</time></trkpt><trkpt lat="42.04634092719026" lon="14.73404560197665"><ele>73.0</ele><time>2026-03-22T10:10:56Z</time></trkpt><trkpt lat="42.0464408109218" lon="14.734047495175764"><ele>75.0</ele><time>2026-03-22T10:10:57.001Z</time></trkpt><trkpt lat="42.04654237401481" lon="14.734050545776679"><ele>74.6</ele><time>2026-03-22T10:10:58.001Z</time></trkpt><trkpt lat="42.046647072687975" lon="14.734039775865982"><ele>74.2</ele><time>2026-03-22T10:10:59.001Z</time></trkpt><trkpt lat="42.04674843474044" lon="14.734045023332259"><ele>73.8</ele><time>2026-03-22T10:11:00.001Z</time></trkpt><trkpt lat="42.04685002001011" lon="14.734052352908993"><ele>73.4</ele><time>2026-03-22T10:11:01.001Z</time></trkpt><trkpt lat="42.046960735980946" lon="14.7340555923267"><ele>73.0</ele><time>2026-03-22T10:11:02.001Z</time></trkpt><trkpt lat="42.04706831144444" lon="14.734060958692945"><ele>73.0</ele><time>2026-03-22T10:11:03.001Z</time></trkpt><trkpt lat="42.04717607536257" lon="14.734051960951609"><ele>73.0</ele><time>2026-03-22T10:11:04.001Z</time></trkpt><trkpt lat="42.047283233350726" lon="14.734041449197173"><ele>73.0</ele><time>2026-03-22T10:11:05.001Z</time></trkpt><trkpt lat="42.04738972412207" lon="14.734025867360103"><ele>73.0</ele><time>2026-03-22T10:11:06.001Z</time></trkpt><trkpt lat="42.04749760040813" lon="14.734038573783247"><ele>73.0</ele><time>2026-03-22T10:11:07.001Z</time></trkpt><trkpt lat="42.04759865201882" lon="14.734032780471495"><ele>72.6</ele><time>2026-03-22T10:11:08.001Z</time></trkpt><trkpt lat="42.04768824341598" lon="14.734027857298802"><ele>72.19999999999999</ele><time>2026-03-22T10:11:09.001Z</time></trkpt><trkpt lat="42.047774329551004" lon="14.734021505893015"><ele>71.8</ele><time>2026-03-22T10:11:10.001Z</time></trkpt><trkpt lat="42.047872454611685" lon="14.734014706721478"><ele>71.39999999999999</ele><time>2026-03-22T10:11:11.001Z</time></trkpt><trkpt lat="42.04798355864932" lon="14.734004254588974"><ele>71.0</ele><time>2026-03-22T10:11:12.001Z</time></trkpt><trkpt lat="42.04810177984387" lon="14.733993132921658"><ele>71.0</ele><time>2026-03-22T10:11:13.001Z</time></trkpt><trkpt lat="42.04820939371392" lon="14.733983009146215"><ele>71.0</ele><time>2026-03-22T10:11:14.001Z</time></trkpt><trkpt lat="42.04831156638881" lon="14.733958497352813"><ele>71.0</ele><time>2026-03-22T10:11:15.001Z</time></trkpt><trkpt lat="42.04841234188077" lon="14.733951948190851"><ele>71.0</ele><time>2026-03-22T10:11:16.001Z</time></trkpt><trkpt lat="42.048512959483716" lon="14.733946440427676"><ele>71.0</ele><time>2026-03-22T10:11:17.001Z</time></trkpt><trkpt lat="42.04860952604683" lon="14.733936790075736"><ele>71.0</ele><time>2026-03-22T10:11:18Z</time></trkpt><trkpt lat="42.048708745118546" lon="14.733928937776215"><ele>71.0</ele><time>2026-03-22T10:11:19Z</time></trkpt><trkpt lat="42.04879694559421" lon="14.733931118968291"><ele>71.0</ele><time>2026-03-22T10:11:20Z</time></trkpt><trkpt lat="42.04887758726755" lon="14.733942575181382"><ele>71.0</ele><time>2026-03-22T10:11:21Z</time></trkpt><trkpt lat="42.048953190779145" lon="14.733940918728916"><ele>71.0</ele><time>2026-03-22T10:11:22Z</time></trkpt><trkpt lat="42.0490183882163" lon="14.733939490267245"><ele>71.0</ele><time>2026-03-22T10:11:23Z</time></trkpt><trkpt lat="42.04912443133125" lon="14.73393716689357"><ele>71.0</ele><time>2026-03-22T10:11:25Z</time></trkpt><trkpt lat="42.04925438256341" lon="14.733940343255634"><ele>71.0</ele><time>2026-03-22T10:11:27Z</time></trkpt><trkpt lat="42.049323506116465" lon="14.733984043703972"><ele>71.0</ele><time>2026-03-22T10:11:28Z</time></trkpt><trkpt lat="42.049441697115796" lon="14.734003374352499"><ele>71.0</ele><time>2026-03-22T10:11:30Z</time></trkpt><trkpt lat="42.04954500759715" lon="14.734022313040054"><ele>71.0</ele><time>2026-03-22T10:11:32Z</time></trkpt><trkpt lat="42.049665361976274" lon="14.734039643055574"><ele>71.0</ele><time>2026-03-22T10:11:34Z</time></trkpt><trkpt lat="42.04978528189732" lon="14.73405523431843"><ele>71.0</ele><time>2026-03-22T10:11:36Z</time></trkpt><trkpt lat="42.04987711263105" lon="14.734054797543376"><ele>71.0</ele><time>2026-03-22T10:11:38Z</time></trkpt><trkpt lat="42.04994607615496" lon="14.734107134166447"><ele>71.0</ele><time>2026-03-22T10:11:40Z</time></trkpt><trkpt lat="42.05001143436966" lon="14.734221014451736"><ele>71.0</ele><time>2026-03-22T10:11:42Z</time></trkpt><trkpt lat="42.050054195838825" lon="14.734287998636937"><ele>70.75</ele><time>2026-03-22T10:11:43Z</time></trkpt><trkpt lat="42.05010162171868" lon="14.734356335955045"><ele>70.5</ele><time>2026-03-22T10:11:44Z</time></trkpt><trkpt lat="42.05012204487211" lon="14.73444002376398"><ele>70.25</ele><time>2026-03-22T10:11:45Z</time></trkpt><trkpt lat="42.05017040416622" lon="14.73434877015085"><ele>70.0</ele><time>2026-03-22T10:11:46Z</time></trkpt><trkpt lat="42.05007700812676" lon="14.734692723164242"><ele>67.0</ele><time>2026-03-22T10:11:47Z</time></trkpt><trkpt lat="42.05006609070163" lon="14.734879223799865"><ele>64.0</ele><time>2026-03-22T10:11:48Z</time></trkpt><trkpt lat="42.05005814016168" lon="14.735067770946596"><ele>61.0</ele><time>2026-03-22T10:11:49Z</time></trkpt><trkpt lat="42.05005654615569" lon="14.735258839450337"><ele>58.0</ele><time>2026-03-22T10:11:50Z</time></trkpt><trkpt lat="42.05006068486987" lon="14.735458768554594"><ele>54.5</ele><time>2026-03-22T10:11:51Z</time></trkpt><trkpt lat="42.05006917077338" lon="14.73566523177633"><ele>51.0</ele><time>2026-03-22T10:11:52Z</time></trkpt><trkpt lat="42.05012166908229" lon="14.736095362948685"><ele>50.66666666666667</ele><time>2026-03-22T10:11:54Z</time></trkpt><trkpt lat="42.050174394513576" lon="14.736305183340997"><ele>50.333333333333336</ele><time>2026-03-22T10:11:55Z</time></trkpt><trkpt lat="42.05024850753897" lon="14.736505679224738"><ele>50.0</ele><time>2026-03-22T10:11:56Z</time></trkpt><trkpt lat="42.050296731700286" lon="14.736711328885958"><ele>49.333333333333336</ele><time>2026-03-22T10:11:57Z</time></trkpt><trkpt lat="42.05036002188894" lon="14.73690843577579"><ele>48.66666666666667</ele><time>2026-03-22T10:11:58Z</time></trkpt><trkpt lat="42.05042478223163" lon="14.737101663243264"><ele>48.0</ele><time>2026-03-22T10:11:59Z</time></trkpt><trkpt lat="42.050496469505596" lon="14.737298336730403"><ele>48.0</ele><time>2026-03-22T10:12:00Z</time></trkpt><trkpt lat="42.05056924259499" lon="14.737497173767121"><ele>48.0</ele><time>2026-03-22T10:12:01Z</time></trkpt><trkpt lat="42.05064381887299" lon="14.737705040657307"><ele>48.0</ele><time>2026-03-22T10:12:02Z</time></trkpt><trkpt lat="42.05072243052682" lon="14.73791658352514"><ele>47.0</ele><time>2026-03-22T10:12:03Z</time></trkpt><trkpt lat="42.05079095215582" lon="14.738112206502356"><ele>46.0</ele><time>2026-03-22T10:12:04Z</time></trkpt><trkpt lat="42.05087907058416" lon="14.738305955270514"><ele>45.0</ele><time>2026-03-22T10:12:05Z</time></trkpt><trkpt lat="42.050945561742374" lon="14.738515328688424"><ele>43.333333333333336</ele><time>2026-03-22T10:12:06Z</time></trkpt><trkpt lat="42.05099176011026" lon="14.73872393206197"><ele>41.66666666666667</ele><time>2026-03-22T10:12:07Z</time></trkpt><trkpt lat="42.05103558942656" lon="14.738927320166136"><ele>40.0</ele><time>2026-03-22T10:12:08Z</time></trkpt><trkpt lat="42.051064064831586" lon="14.739120121015887"><ele>40.0</ele><time>2026-03-22T10:12:09Z</time></trkpt><trkpt lat="42.051068805595" lon="14.739278605707439"><ele>40.0</ele><time>2026-03-22T10:12:10Z</time></trkpt><trkpt lat="42.051071354991464" lon="14.739398609541501"><ele>40.0</ele><time>2026-03-22T10:12:11Z</time></trkpt><trkpt lat="42.05107064824453" lon="14.739501069164206"><ele>40.0</ele><time>2026-03-22T10:12:12Z</time></trkpt><trkpt lat="42.051082887887134" lon="14.739657821854259"><ele>40.0</ele><time>2026-03-22T10:12:14Z</time></trkpt><trkpt lat="42.05106456561735" lon="14.739755950580628"><ele>39.66666666666667</ele><time>2026-03-22T10:13:17Z</time></trkpt><trkpt lat="42.05105585054237" lon="14.739886500365907"><ele>39.333333333333336</ele><time>2026-03-22T10:13:19Z</time></trkpt><trkpt lat="42.051049757243646" lon="14.73997958903693"><ele>39.0</ele><time>2026-03-22T10:13:20Z</time></trkpt><trkpt lat="42.051046223234245" lon="14.74006763632564"><ele>38.666666666666664</ele><time>2026-03-22T10:13:21Z</time></trkpt><trkpt lat="42.05104321968567" lon="14.740162415470364"><ele>38.33333333333333</ele><time>2026-03-22T10:13:22Z</time></trkpt><trkpt lat="42.05104504805265" lon="14.740268474929298"><ele>38.0</ele><time>2026-03-22T10:13:23Z</time></trkpt><trkpt lat="42.0510508245474" lon="14.740384571417598"><ele>38.0</ele><time>2026-03-22T10:13:24Z</time></trkpt><trkpt lat="42.051061886931656" lon="14.740504595207767"><ele>38.0</ele><time>2026-03-22T10:13:25Z</time></trkpt><trkpt lat="42.05107645541888" lon="14.740623634260281"><ele>38.0</ele><time>2026-03-22T10:13:26Z</time></trkpt><trkpt lat="42.05109449582807" lon="14.740735981421548"><ele>38.0</ele><time>2026-03-22T10:13:27Z</time></trkpt><trkpt lat="42.051117820914705" lon="14.740855679477704"><ele>38.0</ele><time>2026-03-22T10:13:28Z</time></trkpt><trkpt lat="42.05114636440194" lon="14.740980950560413"><ele>37.6</ele><time>2026-03-22T10:13:29Z</time></trkpt><trkpt lat="42.051182784718954" lon="14.741107121008605"><ele>37.199999999999996</ele><time>2026-03-22T10:13:30Z</time></trkpt><trkpt lat="42.0512306574352" lon="14.741243975996877"><ele>36.8</ele><time>2026-03-22T10:13:31Z</time></trkpt><trkpt lat="42.05127712800481" lon="14.741383010467587"><ele>36.4</ele><time>2026-03-22T10:13:32Z</time></trkpt><trkpt lat="42.05132486257343" lon="14.741529936412618"><ele>36.0</ele><time>2026-03-22T10:13:33Z</time></trkpt><trkpt lat="42.05140740792017" lon="14.741667039286664"><ele>36.0</ele><time>2026-03-22T10:13:34Z</time></trkpt><trkpt lat="42.05146187259325" lon="14.741817549573437"><ele>36.0</ele><time>2026-03-22T10:13:35Z</time></trkpt><trkpt lat="42.05151284053065" lon="14.741961483262351"><ele>36.0</ele><time>2026-03-22T10:13:36Z</time></trkpt><trkpt lat="42.05155555452574" lon="14.742085242825713"><ele>36.0</ele><time>2026-03-22T10:13:37Z</time></trkpt><trkpt lat="42.051572015984135" lon="14.742218694095389"><ele>36.0</ele><time>2026-03-22T10:13:38Z</time></trkpt><trkpt lat="42.051606326895026" lon="14.742325128020077"><ele>36.142857142857146</ele><time>2026-03-22T10:13:39Z</time></trkpt><trkpt lat="42.05164743546642" lon="14.74242406443999"><ele>36.285714285714285</ele><time>2026-03-22T10:13:40Z</time></trkpt><trkpt lat="42.05163495849187" lon="14.742538552473354"><ele>36.42857142857143</ele><time>2026-03-22T10:13:41Z</time></trkpt><trkpt lat="42.05163998256653" lon="14.742633362983963"><ele>36.57142857142857</ele><time>2026-03-22T10:13:42Z</time></trkpt><trkpt lat="42.0516289053977" lon="14.742721444755771"><ele>36.714285714285715</ele><time>2026-03-22T10:13:43Z</time></trkpt><trkpt lat="42.05160602094019" lon="14.742809545000357"><ele>36.85714285714286</ele><time>2026-03-22T10:13:44Z</time></trkpt><trkpt lat="42.051577793810225" lon="14.742899234163215"><ele>37.0</ele><time>2026-03-22T10:13:45Z</time></trkpt><trkpt lat="42.05155661762346" lon="14.742990278063886"><ele>36.5</ele><time>2026-03-22T10:13:46Z</time></trkpt><trkpt lat="42.051484002018206" lon="14.743080713125899"><ele>36.0</ele><time>2026-03-22T10:13:48Z</time></trkpt><trkpt lat="42.051315803205725" lon="14.743023544638561"><ele>35.5</ele><time>2026-03-22T10:13:51Z</time></trkpt><trkpt lat="42.051244165579604" lon="14.742941571288277"><ele>35.0</ele><time>2026-03-22T10:13:52Z</time></trkpt><trkpt lat="42.05115393412814" lon="14.742824983893867"><ele>35.0</ele><time>2026-03-22T10:13:53Z</time></trkpt><trkpt lat="42.05105587993767" lon="14.7427047949076"><ele>35.0</ele><time>2026-03-22T10:13:54Z</time></trkpt><trkpt lat="42.05095546187704" lon="14.742590686003883"><ele>35.0</ele><time>2026-03-22T10:13:55Z</time></trkpt><trkpt lat="42.05085194945872" lon="14.742468168105002"><ele>35.0</ele><time>2026-03-22T10:13:56Z</time></trkpt><trkpt lat="42.0507435185942" lon="14.742336270800322"><ele>35.0</ele><time>2026-03-22T10:13:57Z</time></trkpt><trkpt lat="42.05063091997338" lon="14.742199072297245"><ele>35.0</ele><time>2026-03-22T10:13:58Z</time></trkpt><trkpt lat="42.05051589619816" lon="14.742050651949883"><ele>35.0</ele><time>2026-03-22T10:13:59Z</time></trkpt><trkpt lat="42.05038571361193" lon="14.7419315414633"><ele>36.0</ele><time>2026-03-22T10:14:00Z</time></trkpt><trkpt lat="42.05024382476101" lon="14.741836979051442"><ele>37.0</ele><time>2026-03-22T10:14:01Z</time></trkpt><trkpt lat="42.050145014643086" lon="14.74158643587707"><ele>38.0</ele><time>2026-03-22T10:14:02Z</time></trkpt><trkpt lat="42.05000205225093" lon="14.741412080024975"><ele>37.666666666666664</ele><time>2026-03-22T10:14:03Z</time></trkpt><trkpt lat="42.049862328903885" lon="14.741236675809498"><ele>37.333333333333336</ele><time>2026-03-22T10:14:04Z</time></trkpt><trkpt lat="42.04971908447983" lon="14.741048318607325"><ele>37.0</ele><time>2026-03-22T10:14:05Z</time></trkpt><trkpt lat="42.0495760002861" lon="14.740848284740888"><ele>37.66666666666667</ele><time>2026-03-22T10:14:06Z</time></trkpt><trkpt lat="42.04942874136889" lon="14.740640316673385"><ele>38.333333333333336</ele><time>2026-03-22T10:14:07Z</time></trkpt><trkpt lat="42.04927942567074" lon="14.74042903188453"><ele>39.0</ele><time>2026-03-22T10:14:08Z</time></trkpt><trkpt lat="42.04912871696485" lon="14.740217444457953"><ele>40.333333333333336</ele><time>2026-03-22T10:14:09Z</time></trkpt><trkpt lat="42.048976277565394" lon="14.739999397226171"><ele>41.66666666666667</ele><time>2026-03-22T10:14:10Z</time></trkpt><trkpt lat="42.048823265727655" lon="14.739783115645839"><ele>43.0</ele><time>2026-03-22T10:14:11Z</time></trkpt><trkpt lat="42.04866686486187" lon="14.739567517126877"><ele>43.0</ele><time>2026-03-22T10:14:12Z</time></trkpt><trkpt lat="42.04851420829515" lon="14.739354368271426"><ele>43.0</ele><time>2026-03-22T10:14:13Z</time></trkpt><trkpt lat="42.04835990032041" lon="14.739136777586037"><ele>43.0</ele><time>2026-03-22T10:14:14Z</time></trkpt><trkpt lat="42.048201254042986" lon="14.738914880959058"><ele>43.0</ele><time>2026-03-22T10:14:15Z</time></trkpt><trkpt lat="42.04804611657462" lon="14.738693673828148"><ele>43.0</ele><time>2026-03-22T10:14:16Z</time></trkpt><trkpt lat="42.04788776581559" lon="14.738469249402023"><ele>44.5</ele><time>2026-03-22T10:14:17Z</time></trkpt><trkpt lat="42.04772912860979" lon="14.738248083552755"><ele>46.0</ele><time>2026-03-22T10:14:18Z</time></trkpt><trkpt lat="42.04757412995378" lon="14.738035193264267"><ele>46.333333333333336</ele><time>2026-03-22T10:14:19Z</time></trkpt><trkpt lat="42.047432742847676" lon="14.737840125481398"><ele>46.666666666666664</ele><time>2026-03-22T10:14:20Z</time></trkpt><trkpt lat="42.04730335765284" lon="14.737657742626885"><ele>47.0</ele><time>2026-03-22T10:14:21Z</time></trkpt><trkpt lat="42.047183693466515" lon="14.737501504154547"><ele>47.0</ele><time>2026-03-22T10:14:22Z</time></trkpt><trkpt lat="42.04706647374566" lon="14.737364158259881"><ele>47.0</ele><time>2026-03-22T10:14:23Z</time></trkpt><trkpt lat="42.04695379061561" lon="14.73724827641709"><ele>47.0</ele><time>2026-03-22T10:14:24Z</time></trkpt><trkpt lat="42.046850691059255" lon="14.737141630256984"><ele>47.0</ele><time>2026-03-22T10:14:25Z</time></trkpt><trkpt lat="42.04674474592834" lon="14.737031977180001"><ele>47.0</ele><time>2026-03-22T10:14:26Z</time></trkpt><trkpt lat="42.04663836457212" lon="14.736936155349218"><ele>47.0</ele><time>2026-03-22T10:14:27Z</time></trkpt><trkpt lat="42.0465337430594" lon="14.736856290912144"><ele>47.0</ele><time>2026-03-22T10:14:28Z</time></trkpt><trkpt lat="42.046434257616724" lon="14.736778532594846"><ele>47.0</ele><time>2026-03-22T10:14:29Z</time></trkpt><trkpt lat="42.04633798273125" lon="14.736702999656224"><ele>47.5</ele><time>2026-03-22T10:14:30Z</time></trkpt><trkpt lat="42.0462365008303" lon="14.736629544902787"><ele>48.0</ele><time>2026-03-22T10:14:31Z</time></trkpt><trkpt lat="42.04613333951362" lon="14.736560555538682"><ele>48.5</ele><time>2026-03-22T10:14:32Z</time></trkpt><trkpt lat="42.046025555330715" lon="14.736500150990073"><ele>49.0</ele><time>2026-03-22T10:14:33Z</time></trkpt><trkpt lat="42.04591321740837" lon="14.736440562135936"><ele>49.0</ele><time>2026-03-22T10:14:34Z</time></trkpt><trkpt lat="42.04579838628116" lon="14.736380572910276"><ele>49.0</ele><time>2026-03-22T10:14:35Z</time></trkpt><trkpt lat="42.04567741523447" lon="14.736317464085364"><ele>49.0</ele><time>2026-03-22T10:14:36Z</time></trkpt><trkpt lat="42.04556091682511" lon="14.73626575455396"><ele>49.0</ele><time>2026-03-22T10:14:37Z</time></trkpt><trkpt lat="42.04544151306496" lon="14.736224182243571"><ele>48.75</ele><time>2026-03-22T10:14:38Z</time></trkpt><trkpt lat="42.04531875439834" lon="14.736189695643061"><ele>48.5</ele><time>2026-03-22T10:14:39Z</time></trkpt><trkpt lat="42.04520079853079" lon="14.736158470547778"><ele>48.25</ele><time>2026-03-22T10:14:40Z</time></trkpt><trkpt lat="42.04508689289807" lon="14.73613074743178"><ele>48.0</ele><time>2026-03-22T10:14:41Z</time></trkpt><trkpt lat="42.04497780687305" lon="14.736097171849297"><ele>48.0</ele><time>2026-03-22T10:14:42Z</time></trkpt><trkpt lat="42.04486843639562" lon="14.736071499834516"><ele>48.0</ele><time>2026-03-22T10:14:43Z</time></trkpt><trkpt lat="42.04475921858983" lon="14.736040004310487"><ele>48.0</ele><time>2026-03-22T10:14:44Z</time></trkpt><trkpt lat="42.0446528774564" lon="14.736011488543246"><ele>48.0</ele><time>2026-03-22T10:14:45Z</time></trkpt><trkpt lat="42.044551680506736" lon="14.735981788794124"><ele>48.0</ele><time>2026-03-22T10:14:46Z</time></trkpt><trkpt lat="42.0444578016754" lon="14.735954292913796"><ele>49.2</ele><time>2026-03-22T10:14:47Z</time></trkpt><trkpt lat="42.044364936543204" lon="14.735929219834286"><ele>50.4</ele><time>2026-03-22T10:14:48Z</time></trkpt><trkpt lat="42.0442908966623" lon="14.735905803265037"><ele>51.60000000000001</ele><time>2026-03-22T10:14:49Z</time></trkpt><trkpt lat="42.044221361845594" lon="14.735888996426809"><ele>52.800000000000004</ele><time>2026-03-22T10:14:50Z</time></trkpt><trkpt lat="42.04415765686866" lon="14.735867326016225"><ele>54.0</ele><time>2026-03-22T10:14:51Z</time></trkpt><trkpt lat="42.0440068818763" lon="14.735825857862352"><ele>54.0</ele><time>2026-03-22T10:14:53Z</time></trkpt><trkpt lat="42.04393141090467" lon="14.735800608114442"><ele>54.0</ele><time>2026-03-22T10:14:54Z</time></trkpt><trkpt lat="42.04384911740447" lon="14.73577823765124"><ele>54.0</ele><time>2026-03-22T10:14:55Z</time></trkpt><trkpt lat="42.04376998949821" lon="14.735753449025339"><ele>54.0</ele><time>2026-03-22T10:14:56Z</time></trkpt><trkpt lat="42.043689920905585" lon="14.735729062325552"><ele>54.0</ele><time>2026-03-22T10:14:57Z</time></trkpt><trkpt lat="42.0436200213374" lon="14.735704421741023"><ele>54.0</ele><time>2026-03-22T10:14:58Z</time></trkpt><trkpt lat="42.04350978879591" lon="14.735658717981243"><ele>54.0</ele><time>2026-03-22T10:15:00Z</time></trkpt><trkpt lat="42.04341924999869" lon="14.735613897922423"><ele>54.0</ele><time>2026-03-22T10:15:02Z</time></trkpt><trkpt lat="42.04330555832586" lon="14.735557368631142"><ele>54.0</ele><time>2026-03-22T10:15:04Z</time></trkpt><trkpt lat="42.043238812708594" lon="14.735520332499759"><ele>54.0</ele><time>2026-03-22T10:15:05Z</time></trkpt><trkpt lat="42.043169070611725" lon="14.735479326016117"><ele>54.0</ele><time>2026-03-22T10:15:06Z</time></trkpt><trkpt lat="42.04310203439223" lon="14.735453667986157"><ele>54.0</ele><time>2026-03-22T10:15:07Z</time></trkpt><trkpt lat="42.043038384552865" lon="14.73539511214743"><ele>54.333333333333336</ele><time>2026-03-22T10:15:08Z</time></trkpt><trkpt lat="42.042975461450766" lon="14.735366260153489"><ele>54.66666666666667</ele><time>2026-03-22T10:15:09Z</time></trkpt><trkpt lat="42.04291452598191" lon="14.73533254749704"><ele>55.0</ele><time>2026-03-22T10:15:10Z</time></trkpt><trkpt lat="42.04285539419002" lon="14.735293598503565"><ele>55.333333333333336</ele><time>2026-03-22T10:15:11Z</time></trkpt><trkpt lat="42.04275830622084" lon="14.735230591135322"><ele>55.66666666666667</ele><time>2026-03-22T10:15:13Z</time></trkpt><trkpt lat="42.04267884591298" lon="14.735174818882141"><ele>56.0</ele><time>2026-03-22T10:15:15Z</time></trkpt><trkpt lat="42.042618645548444" lon="14.735103844609823"><ele>56.50000000000001</ele><time>2026-03-22T10:15:17Z</time></trkpt><trkpt lat="42.04258096948662" lon="14.735032568342621"><ele>57.0</ele><time>2026-03-22T10:15:22Z</time></trkpt><trkpt lat="42.04257191448947" lon="14.73494066515306"><ele>57.5</ele><time>2026-03-22T10:15:24Z</time></trkpt><trkpt lat="42.0425677745234" lon="14.734825707729827"><ele>58.0</ele><time>2026-03-22T10:15:26Z</time></trkpt><trkpt lat="42.042584799169646" lon="14.734714513384839"><ele>58.50000000000001</ele><time>2026-03-22T10:15:28Z</time></trkpt><trkpt lat="42.042521825435344" lon="14.73461968677384"><ele>59.0</ele><time>2026-03-22T10:15:30Z</time></trkpt><trkpt lat="42.04239135890235" lon="14.734656308344151"><ele>59.0</ele><time>2026-03-22T10:15:32Z</time></trkpt><trkpt lat="42.042324918315316" lon="14.734731314288045"><ele>59.00000000000001</ele><time>2026-03-22T10:15:33Z</time></trkpt><trkpt lat="42.0422422870264" lon="14.73481811946284"><ele>59.00000000000001</ele><time>2026-03-22T10:15:34Z</time></trkpt><trkpt lat="42.04214510643658" lon="14.734885697825598"><ele>59.0</ele><time>2026-03-22T10:15:35Z</time></trkpt><trkpt lat="42.04203266314969" lon="14.734904258067786"><ele>59.0</ele><time>2026-03-22T10:15:36Z</time></trkpt><trkpt lat="42.04193103362284" lon="14.734929243325775"><ele>59.00000000000001</ele><time>2026-03-22T10:15:37Z</time></trkpt><trkpt lat="42.04184783804069" lon="14.734952765754429"><ele>59.0</ele><time>2026-03-22T10:15:38Z</time></trkpt><trkpt lat="42.04176642905298" lon="14.734975651759623"><ele>59.0</ele><time>2026-03-22T10:15:39Z</time></trkpt><trkpt lat="42.041679862872584" lon="14.734999988010458"><ele>59.0</ele><time>2026-03-22T10:15:40Z</time></trkpt><trkpt lat="42.04160199942592" lon="14.735021692973937"><ele>59.00000000000001</ele><time>2026-03-22T10:15:41Z</time></trkpt><trkpt lat="42.04152812541146" lon="14.73504906946221"><ele>59.0</ele><time>2026-03-22T10:15:42Z</time></trkpt><trkpt lat="42.041447771787816" lon="14.735063446903457"><ele>59.400000000000006</ele><time>2026-03-22T10:15:43Z</time></trkpt><trkpt lat="42.04134289674327" lon="14.735098202807544"><ele>59.800000000000004</ele><time>2026-03-22T10:15:45Z</time></trkpt><trkpt lat="42.041231098168915" lon="14.735120769001677"><ele>60.199999999999996</ele><time>2026-03-22T10:15:47Z</time></trkpt><trkpt lat="42.04114891772646" lon="14.735144456579654"><ele>60.599999999999994</ele><time>2026-03-22T10:15:48Z</time></trkpt><trkpt lat="42.04106175963894" lon="14.735165751233263"><ele>61.0</ele><time>2026-03-22T10:15:49Z</time></trkpt><trkpt lat="42.04097532176634" lon="14.73519055617896"><ele>59.83333333333333</ele><time>2026-03-22T10:15:50Z</time></trkpt><trkpt lat="42.0408797668348" lon="14.735222392949684"><ele>58.666666666666664</ele><time>2026-03-22T10:15:51Z</time></trkpt><trkpt lat="42.04078736584778" lon="14.735247687893533"><ele>57.5</ele><time>2026-03-22T10:15:52Z</time></trkpt><trkpt lat="42.04070268622158" lon="14.735262566651599"><ele>56.33333333333333</ele><time>2026-03-22T10:15:53Z</time></trkpt><trkpt lat="42.040623312129874" lon="14.735293905703834"><ele>55.166666666666664</ele><time>2026-03-22T10:15:54Z</time></trkpt><trkpt lat="42.040543677395526" lon="14.7353192316701"><ele>54.0</ele><time>2026-03-22T10:15:55Z</time></trkpt><trkpt lat="42.040471312563994" lon="14.735332460012296"><ele>53.833333333333336</ele><time>2026-03-22T10:15:56Z</time></trkpt><trkpt lat="42.04040667445663" lon="14.73535488974661"><ele>53.66666666666667</ele><time>2026-03-22T10:15:57Z</time></trkpt><trkpt lat="42.04028259079247" lon="14.73542126052316"><ele>53.5</ele><time>2026-03-22T10:15:59Z</time></trkpt><trkpt lat="42.0402058791123" lon="14.735407102435568"><ele>53.333333333333336</ele><time>2026-03-22T10:16:00Z</time></trkpt><trkpt lat="42.04013793536246" lon="14.735428957502911"><ele>53.16666666666667</ele><time>2026-03-22T10:16:01Z</time></trkpt><trkpt lat="42.040068442198994" lon="14.735517554127412"><ele>53.0</ele><time>2026-03-22T10:16:02Z</time></trkpt><trkpt lat="42.040033469121084" lon="14.735633724904533"><ele>53.8</ele><time>2026-03-22T10:16:03Z</time></trkpt><trkpt lat="42.039963277600044" lon="14.735700595303399"><ele>54.599999999999994</ele><time>2026-03-22T10:16:04Z</time></trkpt><trkpt lat="42.03988896776351" lon="14.735765568879245"><ele>55.400000000000006</ele><time>2026-03-22T10:16:05Z</time></trkpt><trkpt lat="42.03980952799971" lon="14.735833137406413"><ele>56.2</ele><time>2026-03-22T10:16:06Z</time></trkpt><trkpt lat="42.03972124908408" lon="14.73589810081521"><ele>57.0</ele><time>2026-03-22T10:16:07Z</time></trkpt><trkpt lat="42.039634358164406" lon="14.735968581481558"><ele>57.0</ele><time>2026-03-22T10:16:08Z</time></trkpt><trkpt lat="42.03954874683388" lon="14.73604010292272"><ele>57.0</ele><time>2026-03-22T10:16:09Z</time></trkpt><trkpt lat="42.03945947592092" lon="14.73611876864809"><ele>57.0</ele><time>2026-03-22T10:16:10Z</time></trkpt><trkpt lat="42.03937676340823" lon="14.736195632207577"><ele>57.0</ele><time>2026-03-22T10:16:11Z</time></trkpt><trkpt lat="42.03929793362057" lon="14.736279407229471"><ele>57.0</ele><time>2026-03-22T10:16:12Z</time></trkpt><trkpt lat="42.03921736424429" lon="14.736325522128148"><ele>56.833333333333336</ele><time>2026-03-22T10:16:13Z</time></trkpt><trkpt lat="42.03915780279179" lon="14.73640588908167"><ele>56.66666666666667</ele><time>2026-03-22T10:16:14Z</time></trkpt><trkpt lat="42.03910043335675" lon="14.736462577267798"><ele>56.5</ele><time>2026-03-22T10:16:15Z</time></trkpt><trkpt lat="42.03903642785686" lon="14.73651898539948"><ele>56.333333333333336</ele><time>2026-03-22T10:16:16Z</time></trkpt><trkpt lat="42.038968463481154" lon="14.736571599716772"><ele>56.16666666666667</ele><time>2026-03-22T10:16:17Z</time></trkpt><trkpt lat="42.038890000461066" lon="14.736613774040507"><ele>56.0</ele><time>2026-03-22T10:16:18Z</time></trkpt><trkpt lat="42.03881796144495" lon="14.736676618749927"><ele>56.0</ele><time>2026-03-22T10:16:19Z</time></trkpt><trkpt lat="42.038718404366826" lon="14.736763601077035"><ele>56.0</ele><time>2026-03-22T10:16:20Z</time></trkpt><trkpt lat="42.038581272732216" lon="14.736886652758962"><ele>56.0</ele><time>2026-03-22T10:16:21Z</time></trkpt><trkpt lat="42.03844317046613" lon="14.73702424615857"><ele>54.66666666666667</ele><time>2026-03-22T10:16:22Z</time></trkpt><trkpt lat="42.0383313450811" lon="14.737172145290362"><ele>53.33333333333333</ele><time>2026-03-22T10:16:23Z</time></trkpt><trkpt lat="42.038212819430456" lon="14.73730918465305"><ele>52.0</ele><time>2026-03-22T10:16:24Z</time></trkpt><trkpt lat="42.0380884115434" lon="14.737438992788986"><ele>52.0</ele><time>2026-03-22T10:16:25Z</time></trkpt><trkpt lat="42.037976684954565" lon="14.737576993608613"><ele>52.0</ele><time>2026-03-22T10:16:26Z</time></trkpt><trkpt lat="42.03786853348355" lon="14.737710437055648"><ele>52.0</ele><time>2026-03-22T10:16:27Z</time></trkpt><trkpt lat="42.03775765439359" lon="14.737847488872744"><ele>52.0</ele><time>2026-03-22T10:16:28Z</time></trkpt><trkpt lat="42.03764508842665" lon="14.73798735674378"><ele>51.666666666666664</ele><time>2026-03-22T10:16:29Z</time></trkpt><trkpt lat="42.03752242996756" lon="14.738139948936324"><ele>51.33333333333333</ele><time>2026-03-22T10:16:30Z</time></trkpt><trkpt lat="42.03740058932882" lon="14.738291573688691"><ele>51.0</ele><time>2026-03-22T10:16:31Z</time></trkpt><trkpt lat="42.0372770558639" lon="14.738445122652973"><ele>50.33333333333333</ele><time>2026-03-22T10:16:32Z</time></trkpt><trkpt lat="42.037169313874614" lon="14.73862913964631"><ele>49.666666666666664</ele><time>2026-03-22T10:16:33Z</time></trkpt><trkpt lat="42.037043835440066" lon="14.738786405476505"><ele>49.0</ele><time>2026-03-22T10:16:34Z</time></trkpt><trkpt lat="42.03691964151483" lon="14.73894294365649"><ele>49.0</ele><time>2026-03-22T10:16:35Z</time></trkpt><trkpt lat="42.0367975168401" lon="14.739098476201672"><ele>49.0</ele><time>2026-03-22T10:16:36Z</time></trkpt><trkpt lat="42.0366604974724" lon="14.739211680141151"><ele>49.0</ele><time>2026-03-22T10:16:37Z</time></trkpt><trkpt lat="42.03658358034085" lon="14.739364451723585"><ele>49.75</ele><time>2026-03-22T10:16:38Z</time></trkpt><trkpt lat="42.036495837964125" lon="14.739471432261547"><ele>50.5</ele><time>2026-03-22T10:16:39Z</time></trkpt><trkpt lat="42.036407667626506" lon="14.739561037684958"><ele>51.25</ele><time>2026-03-22T10:16:40Z</time></trkpt><trkpt lat="42.03631207849751" lon="14.739640537479264"><ele>52.0</ele><time>2026-03-22T10:16:41Z</time></trkpt><trkpt lat="42.03618982685564" lon="14.739694305439272"><ele>52.0</ele><time>2026-03-22T10:16:42Z</time></trkpt><trkpt lat="42.0360521691443" lon="14.73974608956315"><ele>52.0</ele><time>2026-03-22T10:16:43Z</time></trkpt><trkpt lat="42.03590666045789" lon="14.73980351120767"><ele>52.0</ele><time>2026-03-22T10:16:44Z</time></trkpt><trkpt lat="42.03574000723373" lon="14.73986895479681"><ele>51.33333333333333</ele><time>2026-03-22T10:16:44.999Z</time></trkpt><trkpt lat="42.03557188500654" lon="14.739934950482501"><ele>50.66666666666667</ele><time>2026-03-22T10:16:45.999Z</time></trkpt><trkpt lat="42.035383897576345" lon="14.740008744161162"><ele>50.0</ele><time>2026-03-22T10:16:46.999Z</time></trkpt><trkpt lat="42.0352034288253" lon="14.740101373482053"><ele>50.0</ele><time>2026-03-22T10:16:47.999Z</time></trkpt><trkpt lat="42.03501489508017" lon="14.740172081524612"><ele>50.0</ele><time>2026-03-22T10:16:48.999Z</time></trkpt><trkpt lat="42.03482570783307" lon="14.740246967539026"><ele>50.0</ele><time>2026-03-22T10:16:49.999Z</time></trkpt><trkpt lat="42.03464204792601" lon="14.740318232841595"><ele>49.0</ele><time>2026-03-22T10:16:50.999Z</time></trkpt><trkpt lat="42.034475598872554" lon="14.740388842669544"><ele>48.0</ele><time>2026-03-22T10:16:51.999Z</time></trkpt><trkpt lat="42.03433153812357" lon="14.740442770417001"><ele>47.0</ele><time>2026-03-22T10:16:52.999Z</time></trkpt><trkpt lat="42.034196830299734" lon="14.740473766435775"><ele>45.25</ele><time>2026-03-22T10:16:53.999Z</time></trkpt><trkpt lat="42.03407977047127" lon="14.740532797118322"><ele>43.5</ele><time>2026-03-22T10:16:54.999Z</time></trkpt><trkpt lat="42.03397033629733" lon="14.740620343229796"><ele>41.75</ele><time>2026-03-22T10:16:55.999Z</time></trkpt><trkpt lat="42.03388916577855" lon="14.740724886687298"><ele>40.0</ele><time>2026-03-22T10:16:56.999Z</time></trkpt><trkpt lat="42.03379289300505" lon="14.740786459386582"><ele>40.0</ele><time>2026-03-22T10:16:57.999Z</time></trkpt><trkpt lat="42.03369075052807" lon="14.74082282491459"><ele>40.0</ele><time>2026-03-22T10:16:58.999Z</time></trkpt><trkpt lat="42.033572044310226" lon="14.740874977405815"><ele>40.0</ele><time>2026-03-22T10:16:59.999Z</time></trkpt><trkpt lat="42.03348357035958" lon="14.741013691738685"><ele>40.0</ele><time>2026-03-22T10:17:00.999Z</time></trkpt><trkpt lat="42.03336927354839" lon="14.740879051281897"><ele>40.2</ele><time>2026-03-22T10:17:01.999Z</time></trkpt><trkpt lat="42.03329853078347" lon="14.740962351562986"><ele>40.4</ele><time>2026-03-22T10:17:02.999Z</time></trkpt><trkpt lat="42.03325281832627" lon="14.741062306195259"><ele>40.599999999999994</ele><time>2026-03-22T10:17:03.999Z</time></trkpt><trkpt lat="42.03322395654491" lon="14.741189095189268"><ele>40.8</ele><time>2026-03-22T10:17:04.999Z</time></trkpt><trkpt lat="42.03322326647993" lon="14.741337351903736"><ele>41.0</ele><time>2026-03-22T10:17:05.999Z</time></trkpt><trkpt lat="42.03323585454595" lon="14.741510158774183"><ele>39.666666666666664</ele><time>2026-03-22T10:17:06.999Z</time></trkpt><trkpt lat="42.03322320013934" lon="14.74169220219326"><ele>38.333333333333336</ele><time>2026-03-22T10:17:07.999Z</time></trkpt><trkpt lat="42.0330447325731" lon="14.741974672777868"><ele>37.0</ele><time>2026-03-22T10:17:09.999Z</time></trkpt><trkpt lat="42.032936704776006" lon="14.74213682534189"><ele>36.66666666666667</ele><time>2026-03-22T10:17:10.999Z</time></trkpt><trkpt lat="42.03281431219607" lon="14.742313871824075"><ele>36.333333333333336</ele><time>2026-03-22T10:17:11.999Z</time></trkpt><trkpt lat="42.03269773436942" lon="14.742482307822291"><ele>36.0</ele><time>2026-03-22T10:17:12.999Z</time></trkpt><trkpt lat="42.03257999802489" lon="14.74265597570833"><ele>35.666666666666664</ele><time>2026-03-22T10:17:14Z</time></trkpt><trkpt lat="42.03245685268471" lon="14.742836174824069"><ele>35.33333333333333</ele><time>2026-03-22T10:17:15Z</time></trkpt><trkpt lat="42.03232946244459" lon="14.743023320385968"><ele>35.0</ele><time>2026-03-22T10:17:16Z</time></trkpt><trkpt lat="42.03219898903715" lon="14.743214851351425"><ele>35.0</ele><time>2026-03-22T10:17:17Z</time></trkpt><trkpt lat="42.032065952189946" lon="14.743409892778635"><ele>35.0</ele><time>2026-03-22T10:17:18Z</time></trkpt><trkpt lat="42.03193253787477" lon="14.74360692950883"><ele>35.0</ele><time>2026-03-22T10:17:19Z</time></trkpt><trkpt lat="42.03179920254356" lon="14.743802517993029"><ele>35.0</ele><time>2026-03-22T10:17:20Z</time></trkpt><trkpt lat="42.03166726666062" lon="14.743994918463883"><ele>35.0</ele><time>2026-03-22T10:17:21Z</time></trkpt><trkpt lat="42.031537742683255" lon="14.74418380182593"><ele>35.0</ele><time>2026-03-22T10:17:22Z</time></trkpt><trkpt lat="42.03140755781423" lon="14.744373648978984"><ele>34.666666666666664</ele><time>2026-03-22T10:17:23.001Z</time></trkpt><trkpt lat="42.03127918823672" lon="14.744562337299039"><ele>34.333333333333336</ele><time>2026-03-22T10:17:24Z</time></trkpt><trkpt lat="42.031149972336586" lon="14.744752329397391"><ele>34.0</ele><time>2026-03-22T10:17:25Z</time></trkpt><trkpt lat="42.031019122718995" lon="14.744947202088632"><ele>34.0</ele><time>2026-03-22T10:17:26Z</time></trkpt><trkpt lat="42.03089130692685" lon="14.745136394683255"><ele>34.0</ele><time>2026-03-22T10:17:27Z</time></trkpt><trkpt lat="42.030762691897884" lon="14.745325748469467"><ele>34.0</ele><time>2026-03-22T10:17:28Z</time></trkpt><trkpt lat="42.030628642818876" lon="14.745522130309423"><ele>32.66666666666667</ele><time>2026-03-22T10:17:29Z</time></trkpt><trkpt lat="42.03049405825978" lon="14.745717850313513"><ele>31.333333333333336</ele><time>2026-03-22T10:17:30Z</time></trkpt><trkpt lat="42.03035466258444" lon="14.745922716599173"><ele>30.0</ele><time>2026-03-22T10:17:31Z</time></trkpt><trkpt lat="42.03021302211101" lon="14.746130764835478"><ele>30.0</ele><time>2026-03-22T10:17:32Z</time></trkpt><trkpt lat="42.03006751670596" lon="14.74634490084018"><ele>30.0</ele><time>2026-03-22T10:17:33Z</time></trkpt><trkpt lat="42.02992753790938" lon="14.746549480943184"><ele>30.0</ele><time>2026-03-22T10:17:34Z</time></trkpt><trkpt lat="42.02978999376727" lon="14.746750610093198"><ele>29.666666666666664</ele><time>2026-03-22T10:17:35Z</time></trkpt><trkpt lat="42.02966031782577" lon="14.746940564474713"><ele>29.333333333333332</ele><time>2026-03-22T10:17:36Z</time></trkpt><trkpt lat="42.0295368877449" lon="14.747121260127733"><ele>29.0</ele><time>2026-03-22T10:17:37Z</time></trkpt><trkpt lat="42.02941725600809" lon="14.747296396258339"><ele>29.0</ele><time>2026-03-22T10:17:38Z</time></trkpt><trkpt lat="42.0292929117451" lon="14.747478431708805"><ele>29.0</ele><time>2026-03-22T10:17:39Z</time></trkpt><trkpt lat="42.02916698179195" lon="14.747662860633056"><ele>29.0</ele><time>2026-03-22T10:17:40Z</time></trkpt><trkpt lat="42.02904023505909" lon="14.74784861597026"><ele>28.666666666666664</ele><time>2026-03-22T10:17:41Z</time></trkpt><trkpt lat="42.02891267650401" lon="14.748035561100531"><ele>28.333333333333336</ele><time>2026-03-22T10:17:42Z</time></trkpt><trkpt lat="42.028770931633105" lon="14.748243297189894"><ele>28.0</ele><time>2026-03-22T10:17:43Z</time></trkpt><trkpt lat="42.02861581489977" lon="14.748470818311324"><ele>27.5</ele><time>2026-03-22T10:17:44Z</time></trkpt><trkpt lat="42.028451277613" lon="14.74871285480039"><ele>27.0</ele><time>2026-03-22T10:17:45Z</time></trkpt><trkpt lat="42.028279464334766" lon="14.748965594312972"><ele>27.0</ele><time>2026-03-22T10:17:46Z</time></trkpt><trkpt lat="42.028103453858044" lon="14.749224508388114"><ele>27.0</ele><time>2026-03-22T10:17:47Z</time></trkpt><trkpt lat="42.027928894593636" lon="14.749481287455787"><ele>27.0</ele><time>2026-03-22T10:17:48Z</time></trkpt><trkpt lat="42.02775505885423" lon="14.749737002234353"><ele>27.0</ele><time>2026-03-22T10:17:49Z</time></trkpt><trkpt lat="42.02757870702721" lon="14.749996418207134"><ele>26.0</ele><time>2026-03-22T10:17:50Z</time></trkpt><trkpt lat="42.02740113880874" lon="14.750257623608109"><ele>25.0</ele><time>2026-03-22T10:17:51Z</time></trkpt><trkpt lat="42.02722018982305" lon="14.75052380197363"><ele>25.0</ele><time>2026-03-22T10:17:52Z</time></trkpt><trkpt lat="42.027040455906565" lon="14.750786816938259"><ele>25.0</ele><time>2026-03-22T10:17:53Z</time></trkpt><trkpt lat="42.02685739409901" lon="14.751054519516384"><ele>25.5</ele><time>2026-03-22T10:17:54Z</time></trkpt><trkpt lat="42.026674738349655" lon="14.751321628207911"><ele>26.0</ele><time>2026-03-22T10:17:55Z</time></trkpt><trkpt lat="42.026491552856186" lon="14.751589511617839"><ele>26.0</ele><time>2026-03-22T10:17:56Z</time></trkpt><trkpt lat="42.026307750459644" lon="14.751858304777574"><ele>26.0</ele><time>2026-03-22T10:17:57Z</time></trkpt><trkpt lat="42.02612373122747" lon="14.752127418825156"><ele>26.0</ele><time>2026-03-22T10:17:58Z</time></trkpt><trkpt lat="42.025941610678835" lon="14.752397190168779"><ele>26.0</ele><time>2026-03-22T10:17:59Z</time></trkpt><trkpt lat="42.0257831590611" lon="14.752695694178966"><ele>26.5</ele><time>2026-03-22T10:18:00Z</time></trkpt><trkpt lat="42.02559997057122" lon="14.752964269871399"><ele>27.0</ele><time>2026-03-22T10:18:01Z</time></trkpt><trkpt lat="42.0254176531839" lon="14.753236259663707"><ele>27.0</ele><time>2026-03-22T10:18:02Z</time></trkpt><trkpt lat="42.02523399341704" lon="14.753502838431908"><ele>27.0</ele><time>2026-03-22T10:18:03Z</time></trkpt><trkpt lat="42.025049060345765" lon="14.753770229049223"><ele>26.5</ele><time>2026-03-22T10:18:04Z</time></trkpt><trkpt lat="42.024866307941316" lon="14.754037517941983"><ele>26.0</ele><time>2026-03-22T10:18:05Z</time></trkpt><trkpt lat="42.024682971583566" lon="14.754308057878237"><ele>26.5</ele><time>2026-03-22T10:18:06Z</time></trkpt><trkpt lat="42.02449966785852" lon="14.75457911100566"><ele>27.0</ele><time>2026-03-22T10:18:07Z</time></trkpt><trkpt lat="42.024316504446276" lon="14.75484817255317"><ele>27.0</ele><time>2026-03-22T10:18:08Z</time></trkpt><trkpt lat="42.02413182188256" lon="14.755119880064358"><ele>27.0</ele><time>2026-03-22T10:18:09Z</time></trkpt><trkpt lat="42.023944928703614" lon="14.755391801316568"><ele>26.5</ele><time>2026-03-22T10:18:10Z</time></trkpt><trkpt lat="42.0237585417353" lon="14.755661402681366"><ele>26.0</ele><time>2026-03-22T10:18:11Z</time></trkpt><trkpt lat="42.02357324449181" lon="14.755934485950892"><ele>26.0</ele><time>2026-03-22T10:18:12Z</time></trkpt><trkpt lat="42.02338704435779" lon="14.756207940361373"><ele>26.0</ele><time>2026-03-22T10:18:13Z</time></trkpt><trkpt lat="42.0232017506549" lon="14.756479983181151"><ele>26.0</ele><time>2026-03-22T10:18:14Z</time></trkpt><trkpt lat="42.02301969599133" lon="14.756749679479027"><ele>26.0</ele><time>2026-03-22T10:18:15Z</time></trkpt><trkpt lat="42.02284090977621" lon="14.757014330057135"><ele>25.0</ele><time>2026-03-22T10:18:16Z</time></trkpt><trkpt lat="42.02266559045368" lon="14.757272027022841"><ele>24.0</ele><time>2026-03-22T10:18:17Z</time></trkpt><trkpt lat="42.02249506002408" lon="14.757523785305146"><ele>24.5</ele><time>2026-03-22T10:18:18Z</time></trkpt><trkpt lat="42.0223261347695" lon="14.757770401951525"><ele>25.0</ele><time>2026-03-22T10:18:19Z</time></trkpt><trkpt lat="42.02216251057056" lon="14.758012278965738"><ele>25.0</ele><time>2026-03-22T10:18:20Z</time></trkpt><trkpt lat="42.02199769552368" lon="14.758255074118852"><ele>25.0</ele><time>2026-03-22T10:18:21Z</time></trkpt><trkpt lat="42.021831087188325" lon="14.758490956837687"><ele>25.5</ele><time>2026-03-22T10:18:22Z</time></trkpt><trkpt lat="42.02166483767139" lon="14.75872502693491"><ele>26.0</ele><time>2026-03-22T10:18:23Z</time></trkpt><trkpt lat="42.0214901753237" lon="14.75895303590536"><ele>26.0</ele><time>2026-03-22T10:18:24Z</time></trkpt><trkpt lat="42.02131192512301" lon="14.759179683615391"><ele>26.0</ele><time>2026-03-22T10:18:25Z</time></trkpt><trkpt lat="42.02113419240843" lon="14.759407441663678"><ele>26.0</ele><time>2026-03-22T10:18:26Z</time></trkpt><trkpt lat="42.02095757213848" lon="14.759640123604674"><ele>26.0</ele><time>2026-03-22T10:18:27Z</time></trkpt><trkpt lat="42.020781754793695" lon="14.759871753776219"><ele>25.5</ele><time>2026-03-22T10:18:28Z</time></trkpt><trkpt lat="42.02060505915579" lon="14.760100080082024"><ele>25.0</ele><time>2026-03-22T10:18:29Z</time></trkpt><trkpt lat="42.02043139677481" lon="14.760304852617987"><ele>24.666666666666668</ele><time>2026-03-22T10:18:30Z</time></trkpt><trkpt lat="42.02025868676446" lon="14.76047079511081"><ele>24.333333333333336</ele><time>2026-03-22T10:18:31Z</time></trkpt><trkpt lat="42.02007804123615" lon="14.760614440314828"><ele>24.0</ele><time>2026-03-22T10:18:32Z</time></trkpt><trkpt lat="42.019882163962826" lon="14.760754523623138"><ele>25.0</ele><time>2026-03-22T10:18:33Z</time></trkpt><trkpt lat="42.019683084117375" lon="14.760906164682439"><ele>26.0</ele><time>2026-03-22T10:18:34Z</time></trkpt><trkpt lat="42.01948170192127" lon="14.761071859000111"><ele>26.0</ele><time>2026-03-22T10:18:35Z</time></trkpt><trkpt lat="42.01927747346356" lon="14.761234171988225"><ele>26.0</ele><time>2026-03-22T10:18:36Z</time></trkpt><trkpt lat="42.01906828696223" lon="14.761391559208644"><ele>27.5</ele><time>2026-03-22T10:18:37Z</time></trkpt><trkpt lat="42.01885532929361" lon="14.761552649896267"><ele>29.0</ele><time>2026-03-22T10:18:38Z</time></trkpt><trkpt lat="42.01864377622352" lon="14.761713467643345"><ele>27.5</ele><time>2026-03-22T10:18:39Z</time></trkpt><trkpt lat="42.018441570412925" lon="14.761870722172608"><ele>26.0</ele><time>2026-03-22T10:18:40Z</time></trkpt><trkpt lat="42.01824131109583" lon="14.762025508755006"><ele>24.5</ele><time>2026-03-22T10:18:41Z</time></trkpt><trkpt lat="42.01804035687728" lon="14.762183830001895"><ele>23.0</ele><time>2026-03-22T10:18:42Z</time></trkpt><trkpt lat="42.01784094873965" lon="14.76233896378768"><ele>23.0</ele><time>2026-03-22T10:18:43Z</time></trkpt><trkpt lat="42.017637462390304" lon="14.762492559600268"><ele>23.0</ele><time>2026-03-22T10:18:44Z</time></trkpt><trkpt lat="42.01742959139064" lon="14.762647142844875"><ele>22.0</ele><time>2026-03-22T10:18:45Z</time></trkpt><trkpt lat="42.01721875133007" lon="14.76280698447229"><ele>21.0</ele><time>2026-03-22T10:18:46Z</time></trkpt><trkpt lat="42.01700872465037" lon="14.762969381561039"><ele>21.0</ele><time>2026-03-22T10:18:47Z</time></trkpt><trkpt lat="42.01679988575851" lon="14.763132572299455"><ele>21.0</ele><time>2026-03-22T10:18:48Z</time></trkpt><trkpt lat="42.01659610909638" lon="14.76328955196727"><ele>25.666666666666664</ele><time>2026-03-22T10:18:49Z</time></trkpt><trkpt lat="42.01641425040501" lon="14.763431551251374"><ele>30.333333333333332</ele><time>2026-03-22T10:18:50Z</time></trkpt><trkpt lat="42.01625647782971" lon="14.76355320577068"><ele>35.0</ele><time>2026-03-22T10:18:51Z</time></trkpt><trkpt lat="42.016127156171464" lon="14.763660968480195"><ele>35.0</ele><time>2026-03-22T10:18:52Z</time></trkpt><trkpt lat="42.01600890410065" lon="14.763776708139984"><ele>35.0</ele><time>2026-03-22T10:18:53Z</time></trkpt><trkpt lat="42.01590976015797" lon="14.763907156020657"><ele>35.0</ele><time>2026-03-22T10:18:54Z</time></trkpt><trkpt lat="42.01583055917389" lon="14.764074694423647"><ele>35.0</ele><time>2026-03-22T10:18:55Z</time></trkpt><trkpt lat="42.015762163250876" lon="14.764271114576772"><ele>36.666666666666664</ele><time>2026-03-22T10:18:56Z</time></trkpt><trkpt lat="42.01570931249255" lon="14.764492902188005"><ele>38.333333333333336</ele><time>2026-03-22T10:18:57Z</time></trkpt><trkpt lat="42.01565329640221" lon="14.764705092184986"><ele>40.0</ele><time>2026-03-22T10:18:58Z</time></trkpt><trkpt lat="42.01559416312078" lon="14.764892222975279"><ele>40.0</ele><time>2026-03-22T10:18:59Z</time></trkpt><trkpt lat="42.01554445276468" lon="14.765046635773121"><ele>40.0</ele><time>2026-03-22T10:19:00Z</time></trkpt><trkpt lat="42.015498905443316" lon="14.765160102607776"><ele>40.0</ele><time>2026-03-22T10:19:01Z</time></trkpt><trkpt lat="42.01543700914539" lon="14.7652755516538"><ele>40.0</ele><time>2026-03-22T10:19:02Z</time></trkpt><trkpt lat="42.01535584801947" lon="14.765399849855168"><ele>40.0</ele><time>2026-03-22T10:19:03Z</time></trkpt><trkpt lat="42.015245367789" lon="14.765519071577462"><ele>40.0</ele><time>2026-03-22T10:19:04Z</time></trkpt><trkpt lat="42.01508498458458" lon="14.765607395416357"><ele>40.0</ele><time>2026-03-22T10:19:05Z</time></trkpt><trkpt lat="42.01493310921504" lon="14.765742645368746"><ele>40.0</ele><time>2026-03-22T10:19:06Z</time></trkpt><trkpt lat="42.014770657691464" lon="14.765886926232623"><ele>40.0</ele><time>2026-03-22T10:19:07Z</time></trkpt><trkpt lat="42.01461088396283" lon="14.766027196267048"><ele>40.0</ele><time>2026-03-22T10:19:08Z</time></trkpt><trkpt lat="42.01445082551789" lon="14.766167597199374"><ele>39.0</ele><time>2026-03-22T10:19:09Z</time></trkpt><trkpt lat="42.01429067481568" lon="14.766308079059748"><ele>38.0</ele><time>2026-03-22T10:19:10Z</time></trkpt><trkpt lat="42.01412737999921" lon="14.766449899644785"><ele>37.0</ele><time>2026-03-22T10:19:11Z</time></trkpt><trkpt lat="42.01396082597513" lon="14.766591049251945"><ele>37.333333333333336</ele><time>2026-03-22T10:19:12Z</time></trkpt><trkpt lat="42.01379326402307" lon="14.766731147257047"><ele>37.666666666666664</ele><time>2026-03-22T10:19:13Z</time></trkpt><trkpt lat="42.013624721597566" lon="14.766870397029024"><ele>38.0</ele><time>2026-03-22T10:19:14Z</time></trkpt><trkpt lat="42.01345422820317" lon="14.767012011737775"><ele>39.33333333333333</ele><time>2026-03-22T10:19:15Z</time></trkpt><trkpt lat="42.013284659012285" lon="14.767153728292655"><ele>40.666666666666664</ele><time>2026-03-22T10:19:16Z</time></trkpt><trkpt lat="42.013123079914976" lon="14.767287844458663"><ele>42.0</ele><time>2026-03-22T10:19:17Z</time></trkpt><trkpt lat="42.01296567950238" lon="14.767418492173196"><ele>42.0</ele><time>2026-03-22T10:19:18Z</time></trkpt><trkpt lat="42.01281973168583" lon="14.767539207070595"><ele>42.0</ele><time>2026-03-22T10:19:19Z</time></trkpt><trkpt lat="42.01268452091158" lon="14.767653328113662"><ele>42.0</ele><time>2026-03-22T10:19:20Z</time></trkpt><trkpt lat="42.01256049153187" lon="14.767771217581293"><ele>41.666666666666664</ele><time>2026-03-22T10:19:21Z</time></trkpt><trkpt lat="42.01245183195721" lon="14.767895110427556"><ele>41.33333333333333</ele><time>2026-03-22T10:19:22Z</time></trkpt><trkpt lat="42.01236095640135" lon="14.768063581967779"><ele>41.0</ele><time>2026-03-22T10:19:23Z</time></trkpt><trkpt lat="42.01229316563439" lon="14.768261664294844"><ele>41.0</ele><time>2026-03-22T10:19:24Z</time></trkpt><trkpt lat="42.012240709380976" lon="14.768479247453678"><ele>41.0</ele><time>2026-03-22T10:19:25Z</time></trkpt><trkpt lat="42.01219357172708" lon="14.76870491119802"><ele>41.0</ele><time>2026-03-22T10:19:26Z</time></trkpt><trkpt lat="42.012148572694095" lon="14.768935922900347"><ele>41.666666666666664</ele><time>2026-03-22T10:19:27Z</time></trkpt><trkpt lat="42.01210304787476" lon="14.769171511759033"><ele>42.333333333333336</ele><time>2026-03-22T10:19:28Z</time></trkpt><trkpt lat="42.012055990484356" lon="14.7694065967195"><ele>43.0</ele><time>2026-03-22T10:19:29Z</time></trkpt><trkpt lat="42.01200663840483" lon="14.769645084886847"><ele>44.0</ele><time>2026-03-22T10:19:30Z</time></trkpt><trkpt lat="42.01195563024544" lon="14.769873142511736"><ele>45.0</ele><time>2026-03-22T10:19:31Z</time></trkpt><trkpt lat="42.011895502461954" lon="14.77007970971482"><ele>46.0</ele><time>2026-03-22T10:19:32Z</time></trkpt><trkpt lat="42.011820250215784" lon="14.770247589526944"><ele>46.0</ele><time>2026-03-22T10:19:33Z</time></trkpt><trkpt lat="42.011729964682814" lon="14.770388385888822"><ele>46.0</ele><time>2026-03-22T10:19:34Z</time></trkpt><trkpt lat="42.011629416429145" lon="14.770516302065639"><ele>46.0</ele><time>2026-03-22T10:19:35Z</time></trkpt><trkpt lat="42.011532521484035" lon="14.770634559707254"><ele>46.0</ele><time>2026-03-22T10:19:36Z</time></trkpt><trkpt lat="42.01144287810216" lon="14.770759018165444"><ele>47.0</ele><time>2026-03-22T10:19:37Z</time></trkpt><trkpt lat="42.01138666200264" lon="14.77092974845964"><ele>48.0</ele><time>2026-03-22T10:19:38Z</time></trkpt><trkpt lat="42.01136700592191" lon="14.771118820988496"><ele>49.0</ele><time>2026-03-22T10:19:39Z</time></trkpt><trkpt lat="42.01139186622973" lon="14.771320822440357"><ele>50.0</ele><time>2026-03-22T10:19:40Z</time></trkpt><trkpt lat="42.01143091925073" lon="14.771510534998498"><ele>51.0</ele><time>2026-03-22T10:19:41Z</time></trkpt><trkpt lat="42.011461313154015" lon="14.771699787952887"><ele>52.0</ele><time>2026-03-22T10:19:42Z</time></trkpt><trkpt lat="42.01147014450717" lon="14.77189237271994"><ele>53.0</ele><time>2026-03-22T10:19:43Z</time></trkpt><trkpt lat="42.01145706869796" lon="14.77208901369983"><ele>54.0</ele><time>2026-03-22T10:19:44Z</time></trkpt><trkpt lat="42.01142405583668" lon="14.772292963989615"><ele>55.33333333333333</ele><time>2026-03-22T10:19:45Z</time></trkpt><trkpt lat="42.01137984414104" lon="14.772518127166883"><ele>56.666666666666664</ele><time>2026-03-22T10:19:46Z</time></trkpt><trkpt lat="42.01133013106714" lon="14.772753274509997"><ele>58.0</ele><time>2026-03-22T10:19:47Z</time></trkpt><trkpt lat="42.0112780513093" lon="14.772992490077637"><ele>58.33333333333333</ele><time>2026-03-22T10:19:48Z</time></trkpt><trkpt lat="42.01122472680566" lon="14.773227408958004"><ele>58.66666666666667</ele><time>2026-03-22T10:19:49Z</time></trkpt><trkpt lat="42.01117131284407" lon="14.773464160251425"><ele>59.0</ele><time>2026-03-22T10:19:50Z</time></trkpt><trkpt lat="42.011120157238835" lon="14.773693972491872"><ele>59.333333333333336</ele><time>2026-03-22T10:19:51Z</time></trkpt><trkpt lat="42.01106958981299" lon="14.773925975892114"><ele>59.66666666666667</ele><time>2026-03-22T10:19:52Z</time></trkpt><trkpt lat="42.01102043114855" lon="14.774154121438524"><ele>60.0</ele><time>2026-03-22T10:19:53Z</time></trkpt><trkpt lat="42.01097085701935" lon="14.77438228347309"><ele>60.66666666666667</ele><time>2026-03-22T10:19:54Z</time></trkpt><trkpt lat="42.010920081096266" lon="14.77461173576461"><ele>61.333333333333336</ele><time>2026-03-22T10:19:55Z</time></trkpt><trkpt lat="42.010870826704846" lon="14.774834312377465"><ele>62.0</ele><time>2026-03-22T10:19:56Z</time></trkpt><trkpt lat="42.01082119793186" lon="14.77505858079093"><ele>62.66666666666667</ele><time>2026-03-22T10:19:57Z</time></trkpt><trkpt lat="42.010778069555094" lon="14.775268770727683"><ele>63.33333333333333</ele><time>2026-03-22T10:19:58Z</time></trkpt><trkpt lat="42.01073967101063" lon="14.775478847385232"><ele>64.0</ele><time>2026-03-22T10:19:59Z</time></trkpt><trkpt lat="42.01071111111115" lon="14.775703345995572"><ele>64.0</ele><time>2026-03-22T10:20:00Z</time></trkpt><trkpt lat="42.010710475139575" lon="14.775934986912297"><ele>64.0</ele><time>2026-03-22T10:20:01Z</time></trkpt><trkpt lat="42.01072592928896" lon="14.776166825487614"><ele>64.0</ele><time>2026-03-22T10:20:02Z</time></trkpt><trkpt lat="42.01074923660857" lon="14.776386397018053"><ele>64.33333333333333</ele><time>2026-03-22T10:20:03Z</time></trkpt><trkpt lat="42.010770669361435" lon="14.776603792937667"><ele>64.66666666666667</ele><time>2026-03-22T10:20:04Z</time></trkpt><trkpt lat="42.010791221085356" lon="14.776815714129235"><ele>65.0</ele><time>2026-03-22T10:20:05Z</time></trkpt><trkpt lat="42.01081170508778" lon="14.777027011932436"><ele>68.33333333333334</ele><time>2026-03-22T10:20:06Z</time></trkpt><trkpt lat="42.01083303251082" lon="14.777241057686494"><ele>71.66666666666667</ele><time>2026-03-22T10:20:07Z</time></trkpt><trkpt lat="42.010854502564314" lon="14.777451454623671"><ele>75.0</ele><time>2026-03-22T10:20:08Z</time></trkpt><trkpt lat="42.01087536434026" lon="14.777662518984101"><ele>77.33333333333333</ele><time>2026-03-22T10:20:09Z</time></trkpt><trkpt lat="42.01089516283167" lon="14.77787115439768"><ele>79.66666666666666</ele><time>2026-03-22T10:20:10Z</time></trkpt><trkpt lat="42.01091567813678" lon="14.77808617995961"><ele>82.0</ele><time>2026-03-22T10:20:11Z</time></trkpt><trkpt lat="42.01093629518076" lon="14.778298106586902"><ele>82.0</ele><time>2026-03-22T10:20:12Z</time></trkpt><trkpt lat="42.0109569952139" lon="14.77851088628677"><ele>82.0</ele><time>2026-03-22T10:20:13Z</time></trkpt><trkpt lat="42.01097716944094" lon="14.778723769201672"><ele>82.0</ele><time>2026-03-22T10:20:14Z</time></trkpt><trkpt lat="42.010996989245015" lon="14.778937255730549"><ele>83.0</ele><time>2026-03-22T10:20:15Z</time></trkpt><trkpt lat="42.01101666289602" lon="14.779149167983759"><ele>84.0</ele><time>2026-03-22T10:20:16Z</time></trkpt><trkpt lat="42.01103534572008" lon="14.779353356658266"><ele>85.0</ele><time>2026-03-22T10:20:17Z</time></trkpt><trkpt lat="42.0110531056899" lon="14.779548018466745"><ele>86.0</ele><time>2026-03-22T10:20:18Z</time></trkpt><trkpt lat="42.01107025445416" lon="14.779735981035598"><ele>87.0</ele><time>2026-03-22T10:20:19Z</time></trkpt><trkpt lat="42.011088214801454" lon="14.779929582687513"><ele>88.0</ele><time>2026-03-22T10:20:20Z</time></trkpt><trkpt lat="42.011103119608535" lon="14.78012104558156"><ele>89.0</ele><time>2026-03-22T10:20:21Z</time></trkpt><trkpt lat="42.011103315189985" lon="14.780300242533903"><ele>89.25</ele><time>2026-03-22T10:20:22Z</time></trkpt><trkpt lat="42.011086484870326" lon="14.780481252963474"><ele>89.5</ele><time>2026-03-22T10:20:23Z</time></trkpt><trkpt lat="42.01105891959724" lon="14.780667361718734"><ele>89.75</ele><time>2026-03-22T10:20:24Z</time></trkpt><trkpt lat="42.011023069485795" lon="14.780849702461468"><ele>90.0</ele><time>2026-03-22T10:20:25Z</time></trkpt><trkpt lat="42.01098547598535" lon="14.78103552363246"><ele>90.75</ele><time>2026-03-22T10:20:26Z</time></trkpt><trkpt lat="42.01094758008885" lon="14.781222839520854"><ele>91.5</ele><time>2026-03-22T10:20:27Z</time></trkpt><trkpt lat="42.01091056948063" lon="14.781406264749117"><ele>92.25</ele><time>2026-03-22T10:20:28Z</time></trkpt><trkpt lat="42.01087349451486" lon="14.781590342310512"><ele>93.0</ele><time>2026-03-22T10:20:29Z</time></trkpt><trkpt lat="42.01083616669176" lon="14.781775675309655"><ele>95.75</ele><time>2026-03-22T10:20:30Z</time></trkpt><trkpt lat="42.0107978744287" lon="14.781965796758854"><ele>98.5</ele><time>2026-03-22T10:20:31Z</time></trkpt><trkpt lat="42.01075901550498" lon="14.782158731685433"><ele>101.25</ele><time>2026-03-22T10:20:32Z</time></trkpt><trkpt lat="42.01071994902948" lon="14.782352697106088"><ele>104.0</ele><time>2026-03-22T10:20:33Z</time></trkpt><trkpt lat="42.01064240345758" lon="14.782737711613272"><ele>104.0</ele><time>2026-03-22T10:20:35Z</time></trkpt><trkpt lat="42.010604221942174" lon="14.782927044574683"><ele>104.0</ele><time>2026-03-22T10:20:36Z</time></trkpt><trkpt lat="42.01056557721059" lon="14.783115241288899"><ele>104.0</ele><time>2026-03-22T10:20:37Z</time></trkpt><trkpt lat="42.0105273052106" lon="14.783301405607537"><ele>104.0</ele><time>2026-03-22T10:20:38Z</time></trkpt><trkpt lat="42.01048841358822" lon="14.783489307167013"><ele>103.75</ele><time>2026-03-22T10:20:39Z</time></trkpt><trkpt lat="42.01044923145124" lon="14.783678612322838"><ele>103.5</ele><time>2026-03-22T10:20:40Z</time></trkpt><trkpt lat="42.01040968712121" lon="14.783869966974601"><ele>103.25</ele><time>2026-03-22T10:20:41Z</time></trkpt><trkpt lat="42.01037184791825" lon="14.784059682441438"><ele>103.0</ele><time>2026-03-22T10:20:42Z</time></trkpt><trkpt lat="42.010333811982846" lon="14.784250384268613"><ele>103.5</ele><time>2026-03-22T10:20:43Z</time></trkpt><trkpt lat="42.010295638616746" lon="14.784441446734503"><ele>104.0</ele><time>2026-03-22T10:20:44Z</time></trkpt><trkpt lat="42.010256637758005" lon="14.78463444546994"><ele>104.5</ele><time>2026-03-22T10:20:45Z</time></trkpt><trkpt lat="42.01021620409036" lon="14.784827020480902"><ele>105.0</ele><time>2026-03-22T10:20:46Z</time></trkpt><trkpt lat="42.010176662591235" lon="14.785015243146013"><ele>107.0</ele><time>2026-03-22T10:20:47Z</time></trkpt><trkpt lat="42.01013964702259" lon="14.785191387733873"><ele>109.0</ele><time>2026-03-22T10:20:48Z</time></trkpt><trkpt lat="42.01010555394947" lon="14.78535252939902"><ele>111.0</ele><time>2026-03-22T10:20:49Z</time></trkpt><trkpt lat="42.01007210992441" lon="14.785508820977844"><ele>113.0</ele><time>2026-03-22T10:20:50Z</time></trkpt><trkpt lat="42.010041969876525" lon="14.785663904179295"><ele>113.0</ele><time>2026-03-22T10:20:51Z</time></trkpt><trkpt lat="42.01002108673054" lon="14.785806035494176"><ele>113.00000000000001</ele><time>2026-03-22T10:20:52Z</time></trkpt><trkpt lat="42.01001030832619" lon="14.785934180821153"><ele>113.00000000000001</ele><time>2026-03-22T10:20:53Z</time></trkpt><trkpt lat="42.010005932887374" lon="14.786069658428826"><ele>113.0</ele><time>2026-03-22T10:20:54Z</time></trkpt><trkpt lat="42.01000390218729" lon="14.78620219565584"><ele>113.0</ele><time>2026-03-22T10:20:55Z</time></trkpt><trkpt lat="42.00999897934907" lon="14.786307718966025"><ele>113.49999999999999</ele><time>2026-03-22T10:20:56Z</time></trkpt><trkpt lat="42.009995131819494" lon="14.78639841082329"><ele>114.0</ele><time>2026-03-22T10:20:57Z</time></trkpt><trkpt lat="42.00993021941833" lon="14.786496787245795"><ele>114.5</ele><time>2026-03-22T10:20:59Z</time></trkpt><trkpt lat="42.00986799420263" lon="14.786536611553942"><ele>115.0</ele><time>2026-03-22T10:21:00Z</time></trkpt><trkpt lat="42.00978880855773" lon="14.786530070222328"><ele>115.49999999999999</ele><time>2026-03-22T10:21:01Z</time></trkpt><trkpt lat="42.009706157063356" lon="14.786491646826306"><ele>116.0</ele><time>2026-03-22T10:21:02Z</time></trkpt><trkpt lat="42.009634735251076" lon="14.786392911356167"><ele>119.0</ele><time>2026-03-22T10:21:03Z</time></trkpt><trkpt lat="42.0095368276753" lon="14.78631142292086"><ele>122.0</ele><time>2026-03-22T10:21:04Z</time></trkpt><trkpt lat="42.009429057668996" lon="14.78619466290953"><ele>125.0</ele><time>2026-03-22T10:21:05Z</time></trkpt><trkpt lat="42.009289056648655" lon="14.786083050190298"><ele>128.0</ele><time>2026-03-22T10:21:06Z</time></trkpt><trkpt lat="42.00915906532698" lon="14.785949226764657"><ele>129.66666666666666</ele><time>2026-03-22T10:21:07Z</time></trkpt><trkpt lat="42.009010469736054" lon="14.785812587709106"><ele>131.33333333333334</ele><time>2026-03-22T10:21:08Z</time></trkpt><trkpt lat="42.00884678064848" lon="14.785662953081907"><ele>133.0</ele><time>2026-03-22T10:21:09Z</time></trkpt><trkpt lat="42.00867509117246" lon="14.785508754170078"><ele>133.0</ele><time>2026-03-22T10:21:10Z</time></trkpt><trkpt lat="42.00849832883522" lon="14.78536347819273"><ele>133.0</ele><time>2026-03-22T10:21:11Z</time></trkpt><trkpt lat="42.00833659077404" lon="14.7852023492046"><ele>133.0</ele><time>2026-03-22T10:21:12Z</time></trkpt><trkpt lat="42.00816925091317" lon="14.785048264625736"><ele>133.33333333333334</ele><time>2026-03-22T10:21:13Z</time></trkpt><trkpt lat="42.00799149780128" lon="14.784908985772008"><ele>133.66666666666666</ele><time>2026-03-22T10:21:14Z</time></trkpt><trkpt lat="42.00780431281336" lon="14.784784555599664"><ele>134.0</ele><time>2026-03-22T10:21:15Z</time></trkpt><trkpt lat="42.00760310126663" lon="14.784681347370247"><ele>132.66666666666666</ele><time>2026-03-22T10:21:16Z</time></trkpt><trkpt lat="42.00739770993834" lon="14.7845858724252"><ele>131.33333333333334</ele><time>2026-03-22T10:21:17Z</time></trkpt><trkpt lat="42.00718248467001" lon="14.78450983400882"><ele>130.0</ele><time>2026-03-22T10:21:18Z</time></trkpt><trkpt lat="42.00696724948052" lon="14.784414336648105"><ele>129.0</ele><time>2026-03-22T10:21:19Z</time></trkpt><trkpt lat="42.00674076292465" lon="14.784344179585512"><ele>128.0</ele><time>2026-03-22T10:21:20Z</time></trkpt><trkpt lat="42.00651614648587" lon="14.784282694561517"><ele>127.0</ele><time>2026-03-22T10:21:21Z</time></trkpt><trkpt lat="42.00629445538327" lon="14.784222359584975"><ele>126.0</ele><time>2026-03-22T10:21:22Z</time></trkpt><trkpt lat="42.00607411605398" lon="14.784163550368694"><ele>126.0</ele><time>2026-03-22T10:21:23Z</time></trkpt><trkpt lat="42.00585621285797" lon="14.784104655843734"><ele>126.0</ele><time>2026-03-22T10:21:24Z</time></trkpt><trkpt lat="42.005642892225275" lon="14.784044904631983"><ele>126.0</ele><time>2026-03-22T10:21:25.001Z</time></trkpt><trkpt lat="42.00543954189766" lon="14.78398344281018"><ele>122.5</ele><time>2026-03-22T10:21:26.001Z</time></trkpt><trkpt lat="42.00524397288488" lon="14.78391109958778"><ele>119.0</ele><time>2026-03-22T10:21:27.001Z</time></trkpt><trkpt lat="42.00499708600363" lon="14.783808984343514"><ele>118.5</ele><time>2026-03-22T10:21:28.001Z</time></trkpt><trkpt lat="42.004789397253695" lon="14.78366605055737"><ele>118.0</ele><time>2026-03-22T10:21:29.001Z</time></trkpt><trkpt lat="42.00459104404936" lon="14.783499514773977"><ele>118.0</ele><time>2026-03-22T10:21:30.001Z</time></trkpt><trkpt lat="42.004401103442866" lon="14.783312566028648"><ele>118.0</ele><time>2026-03-22T10:21:31.001Z</time></trkpt><trkpt lat="42.00421720534134" lon="14.783104724435532"><ele>117.0</ele><time>2026-03-22T10:21:32.001Z</time></trkpt><trkpt lat="42.00403072237851" lon="14.782897641610838"><ele>116.0</ele><time>2026-03-22T10:21:33.001Z</time></trkpt><trkpt lat="42.00383894517952" lon="14.782710125670391"><ele>116.0</ele><time>2026-03-22T10:21:34.001Z</time></trkpt><trkpt lat="42.0036578999658" lon="14.78251330400888"><ele>116.0</ele><time>2026-03-22T10:21:35.001Z</time></trkpt><trkpt lat="42.00348889348737" lon="14.782324229142588"><ele>114.66666666666666</ele><time>2026-03-22T10:21:36.001Z</time></trkpt><trkpt lat="42.00332966646465" lon="14.782145322130948"><ele>113.33333333333334</ele><time>2026-03-22T10:21:37.001Z</time></trkpt><trkpt lat="42.00318507163032" lon="14.781975423542654"><ele>112.0</ele><time>2026-03-22T10:21:38.001Z</time></trkpt><trkpt lat="42.0030260641186" lon="14.78180040993578"><ele>111.66666666666667</ele><time>2026-03-22T10:21:39.001Z</time></trkpt><trkpt lat="42.0028690835964" lon="14.781643490725331"><ele>111.33333333333334</ele><time>2026-03-22T10:21:40.001Z</time></trkpt><trkpt lat="42.00270031139886" lon="14.78150789527313"><ele>111.0</ele><time>2026-03-22T10:21:41.001Z</time></trkpt><trkpt lat="42.0025315483886" lon="14.781385241562383"><ele>109.66666666666666</ele><time>2026-03-22T10:21:42Z</time></trkpt><trkpt lat="42.00235641321649" lon="14.781268789846388"><ele>108.33333333333333</ele><time>2026-03-22T10:21:43Z</time></trkpt><trkpt lat="42.002165350088724" lon="14.781174051355666"><ele>107.0</ele><time>2026-03-22T10:21:44Z</time></trkpt><trkpt lat="42.001964984678" lon="14.781089245308435"><ele>107.0</ele><time>2026-03-22T10:21:45Z</time></trkpt><trkpt lat="42.00175020113163" lon="14.781021192019091"><ele>107.0</ele><time>2026-03-22T10:21:46Z</time></trkpt><trkpt lat="42.00153973315287" lon="14.780976550952534"><ele>107.0</ele><time>2026-03-22T10:21:47Z</time></trkpt><trkpt lat="42.0013432689346" lon="14.780909130939506"><ele>107.5</ele><time>2026-03-22T10:21:48Z</time></trkpt><trkpt lat="42.00114174703227" lon="14.780856187520943"><ele>108.0</ele><time>2026-03-22T10:21:49Z</time></trkpt><trkpt lat="42.00089867364521" lon="14.780796609328489"><ele>105.5</ele><time>2026-03-22T10:21:50Z</time></trkpt><trkpt lat="42.000652358286985" lon="14.780735421945154"><ele>103.0</ele><time>2026-03-22T10:21:51Z</time></trkpt><trkpt lat="42.00041086899286" lon="14.780676883844409"><ele>103.0</ele><time>2026-03-22T10:21:52Z</time></trkpt><trkpt lat="42.000191115864666" lon="14.780588849959436"><ele>103.0</ele><time>2026-03-22T10:21:53Z</time></trkpt><trkpt lat="41.99997949912399" lon="14.780487921822015"><ele>103.0</ele><time>2026-03-22T10:21:54Z</time></trkpt><trkpt lat="41.99977521378053" lon="14.780371399571084"><ele>103.0</ele><time>2026-03-22T10:21:55Z</time></trkpt><trkpt lat="41.99957283992" lon="14.780240996602167"><ele>103.0</ele><time>2026-03-22T10:21:56Z</time></trkpt><trkpt lat="41.99937300840539" lon="14.780082754039386"><ele>103.0</ele><time>2026-03-22T10:21:57Z</time></trkpt><trkpt lat="41.99917581287641" lon="14.779906113422426"><ele>103.0</ele><time>2026-03-22T10:21:58Z</time></trkpt><trkpt lat="41.998979449796494" lon="14.779718712515269"><ele>103.0</ele><time>2026-03-22T10:21:59Z</time></trkpt><trkpt lat="41.99879261881911" lon="14.779509446660445"><ele>103.0</ele><time>2026-03-22T10:22:00Z</time></trkpt><trkpt lat="41.9986206128607" lon="14.779279611746585"><ele>105.5</ele><time>2026-03-22T10:22:01Z</time></trkpt><trkpt lat="41.99845199659967" lon="14.77903491049555"><ele>108.0</ele><time>2026-03-22T10:22:02Z</time></trkpt><trkpt lat="41.99828536870573" lon="14.778781056424625"><ele>106.0</ele><time>2026-03-22T10:22:03Z</time></trkpt><trkpt lat="41.9981124656068" lon="14.778527682852443"><ele>104.0</ele><time>2026-03-22T10:22:04Z</time></trkpt><trkpt lat="41.997936974293694" lon="14.778277958575499"><ele>104.0</ele><time>2026-03-22T10:22:05Z</time></trkpt><trkpt lat="41.99776261294954" lon="14.778025890504011"><ele>104.0</ele><time>2026-03-22T10:22:06Z</time></trkpt><trkpt lat="41.99759062904614" lon="14.777776615570327"><ele>100.0</ele><time>2026-03-22T10:22:07Z</time></trkpt><trkpt lat="41.99742331454359" lon="14.777536725606309"><ele>96.0</ele><time>2026-03-22T10:22:08Z</time></trkpt><trkpt lat="41.99726005663976" lon="14.777303659736454"><ele>96.0</ele><time>2026-03-22T10:22:09Z</time></trkpt><trkpt lat="41.99709573409214" lon="14.7770827869629"><ele>96.0</ele><time>2026-03-22T10:22:10Z</time></trkpt><trkpt lat="41.99692904051149" lon="14.776864527455938"><ele>97.66666666666666</ele><time>2026-03-22T10:22:11Z</time></trkpt><trkpt lat="41.99676292343378" lon="14.776655456268251"><ele>99.33333333333333</ele><time>2026-03-22T10:22:12Z</time></trkpt><trkpt lat="41.99659519853796" lon="14.776461600026392"><ele>101.0</ele><time>2026-03-22T10:22:13Z</time></trkpt><trkpt lat="41.99642054520775" lon="14.776275549130965"><ele>97.66666666666666</ele><time>2026-03-22T10:22:14Z</time></trkpt><trkpt lat="41.996240668913465" lon="14.776109282649491"><ele>94.33333333333333</ele><time>2026-03-22T10:22:15Z</time></trkpt><trkpt lat="41.99606039534948" lon="14.775957667118952"><ele>91.0</ele><time>2026-03-22T10:22:16Z</time></trkpt><trkpt lat="41.99586810187576" lon="14.775815542116918"><ele>89.0</ele><time>2026-03-22T10:22:17Z</time></trkpt><trkpt lat="41.995672648913605" lon="14.775693755381084"><ele>87.0</ele><time>2026-03-22T10:22:18Z</time></trkpt><trkpt lat="41.995478624157116" lon="14.77558651558824"><ele>85.0</ele><time>2026-03-22T10:22:19Z</time></trkpt><trkpt lat="41.995278854828854" lon="14.775498180196273"><ele>85.0</ele><time>2026-03-22T10:22:20Z</time></trkpt><trkpt lat="41.99507589513683" lon="14.7754190148796"><ele>85.0</ele><time>2026-03-22T10:22:21Z</time></trkpt><trkpt lat="41.99486556277226" lon="14.775360379987562"><ele>85.0</ele><time>2026-03-22T10:22:22Z</time></trkpt><trkpt lat="41.994654777279756" lon="14.775315426157569"><ele>85.0</ele><time>2026-03-22T10:22:23Z</time></trkpt><trkpt lat="41.99444008300166" lon="14.775286544738638"><ele>85.0</ele><time>2026-03-22T10:22:24Z</time></trkpt><trkpt lat="41.994223741338196" lon="14.775270278595181"><ele>85.0</ele><time>2026-03-22T10:22:25Z</time></trkpt><trkpt lat="41.99400479091049" lon="14.775278198415837"><ele>85.5</ele><time>2026-03-22T10:22:26Z</time></trkpt><trkpt lat="41.993781913669565" lon="14.775312800321759"><ele>86.0</ele><time>2026-03-22T10:22:27Z</time></trkpt><trkpt lat="41.993558058886045" lon="14.77536755104296"><ele>86.0</ele><time>2026-03-22T10:22:28Z</time></trkpt><trkpt lat="41.993328939489636" lon="14.775446855324432"><ele>86.0</ele><time>2026-03-22T10:22:29Z</time></trkpt><trkpt lat="41.993097125868104" lon="14.775546929339729"><ele>86.0</ele><time>2026-03-22T10:22:30Z</time></trkpt><trkpt lat="41.99286264099745" lon="14.7756488624408"><ele>86.0</ele><time>2026-03-22T10:22:31Z</time></trkpt><trkpt lat="41.992624500250386" lon="14.775756951555016"><ele>87.5</ele><time>2026-03-22T10:22:32Z</time></trkpt><trkpt lat="41.992388315232944" lon="14.775870803951364"><ele>89.0</ele><time>2026-03-22T10:22:33Z</time></trkpt><trkpt lat="41.99214991685179" lon="14.77598577516624"><ele>89.0</ele><time>2026-03-22T10:22:34Z</time></trkpt><trkpt lat="41.99191002867655" lon="14.776100001489946"><ele>89.0</ele><time>2026-03-22T10:22:35Z</time></trkpt><trkpt lat="41.99167347047034" lon="14.776218474660219"><ele>92.5</ele><time>2026-03-22T10:22:36Z</time></trkpt><trkpt lat="41.99144338910899" lon="14.776341128760018"><ele>96.0</ele><time>2026-03-22T10:22:37Z</time></trkpt><trkpt lat="41.99122195420202" lon="14.776459213604625"><ele>96.0</ele><time>2026-03-22T10:22:38Z</time></trkpt><trkpt lat="41.99101065040446" lon="14.776561873036131"><ele>96.0</ele><time>2026-03-22T10:22:39Z</time></trkpt><trkpt lat="41.990807672493986" lon="14.776647349638782"><ele>96.0</ele><time>2026-03-22T10:22:40Z</time></trkpt><trkpt lat="41.99060176410849" lon="14.776717410367578"><ele>99.0</ele><time>2026-03-22T10:22:41Z</time></trkpt><trkpt lat="41.99038235066448" lon="14.776769431395277"><ele>102.0</ele><time>2026-03-22T10:22:42Z</time></trkpt><trkpt lat="41.99015519745192" lon="14.77681465030854"><ele>106.0</ele><time>2026-03-22T10:22:43Z</time></trkpt><trkpt lat="41.98992517100828" lon="14.776855073580558"><ele>110.0</ele><time>2026-03-22T10:22:44Z</time></trkpt><trkpt lat="41.989692321204366" lon="14.776902268418382"><ele>110.0</ele><time>2026-03-22T10:22:45Z</time></trkpt><trkpt lat="41.989455018146494" lon="14.776956610875702"><ele>110.0</ele><time>2026-03-22T10:22:46Z</time></trkpt><trkpt lat="41.98921654349068" lon="14.777007985382223"><ele>112.0</ele><time>2026-03-22T10:22:47Z</time></trkpt><trkpt lat="41.98897574792043" lon="14.777056197713717"><ele>114.0</ele><time>2026-03-22T10:22:48Z</time></trkpt><trkpt lat="41.988733953115165" lon="14.777108231375168"><ele>114.0</ele><time>2026-03-22T10:22:49Z</time></trkpt><trkpt lat="41.98848690942804" lon="14.777163387704435"><ele>114.0</ele><time>2026-03-22T10:22:50Z</time></trkpt><trkpt lat="41.98823739274361" lon="14.777217076725263"><ele>116.5</ele><time>2026-03-22T10:22:51Z</time></trkpt><trkpt lat="41.98798574778118" lon="14.777267744398952"><ele>119.0</ele><time>2026-03-22T10:22:52Z</time></trkpt><trkpt lat="41.98774399038686" lon="14.77731858266471"><ele>119.0</ele><time>2026-03-22T10:22:53Z</time></trkpt><trkpt lat="41.987520122901756" lon="14.777364910623554"><ele>119.0</ele><time>2026-03-22T10:22:54Z</time></trkpt><trkpt lat="41.98729752591187" lon="14.777416934119818"><ele>121.0</ele><time>2026-03-22T10:22:55Z</time></trkpt><trkpt lat="41.987074605150525" lon="14.77746382099151"><ele>123.0</ele><time>2026-03-22T10:22:56Z</time></trkpt><trkpt lat="41.98687360404897" lon="14.777502789402478"><ele>125.0</ele><time>2026-03-22T10:22:57Z</time></trkpt><trkpt lat="41.98667623387723" lon="14.77753626156608"><ele>125.66666666666666</ele><time>2026-03-22T10:22:58Z</time></trkpt><trkpt lat="41.986467065482834" lon="14.777549960976197"><ele>126.33333333333334</ele><time>2026-03-22T10:22:59Z</time></trkpt><trkpt lat="41.98624914236813" lon="14.7775416501183"><ele>127.0</ele><time>2026-03-22T10:23:00Z</time></trkpt><trkpt lat="41.9860254895307" lon="14.777511364690723"><ele>126.0</ele><time>2026-03-22T10:23:01Z</time></trkpt><trkpt lat="41.98580140740531" lon="14.777465250653528"><ele>125.0</ele><time>2026-03-22T10:23:02Z</time></trkpt><trkpt lat="41.98557301555891" lon="14.777406571961302"><ele>125.0</ele><time>2026-03-22T10:23:03Z</time></trkpt><trkpt lat="41.98534287142877" lon="14.77735227438011"><ele>125.0</ele><time>2026-03-22T10:23:04Z</time></trkpt><trkpt lat="41.98510787891883" lon="14.777302477828924"><ele>124.5</ele><time>2026-03-22T10:23:05Z</time></trkpt><trkpt lat="41.98487001103684" lon="14.777248839879586"><ele>124.0</ele><time>2026-03-22T10:23:06Z</time></trkpt><trkpt lat="41.98462745246658" lon="14.777195015856543"><ele>124.0</ele><time>2026-03-22T10:23:07Z</time></trkpt><trkpt lat="41.9843840841066" lon="14.777143513914007"><ele>124.0</ele><time>2026-03-22T10:23:08Z</time></trkpt><trkpt lat="41.984138160147545" lon="14.777096483575537"><ele>124.0</ele><time>2026-03-22T10:23:09Z</time></trkpt><trkpt lat="41.98388667549686" lon="14.777045614990028"><ele>124.0</ele><time>2026-03-22T10:23:10Z</time></trkpt><trkpt lat="41.98363466871926" lon="14.776993746162274"><ele>124.0</ele><time>2026-03-22T10:23:11Z</time></trkpt><trkpt lat="41.98338332886047" lon="14.77693782127395"><ele>124.0</ele><time>2026-03-22T10:23:12Z</time></trkpt><trkpt lat="41.9831330280206" lon="14.77688242932133"><ele>121.0</ele><time>2026-03-22T10:23:13Z</time></trkpt><trkpt lat="41.98287970722735" lon="14.776827861147865"><ele>118.0</ele><time>2026-03-22T10:23:14Z</time></trkpt><trkpt lat="41.98261369913403" lon="14.77677116849824"><ele>118.0</ele><time>2026-03-22T10:23:15Z</time></trkpt><trkpt lat="41.98232963772252" lon="14.77670267241686"><ele>118.0</ele><time>2026-03-22T10:23:16Z</time></trkpt><trkpt lat="41.98203672468624" lon="14.776641118669234"><ele>118.0</ele><time>2026-03-22T10:23:17Z</time></trkpt><trkpt lat="41.98173800944709" lon="14.776586620447862"><ele>118.0</ele><time>2026-03-22T10:23:18Z</time></trkpt><trkpt lat="41.981439501630156" lon="14.776534108512003"><ele>121.5</ele><time>2026-03-22T10:23:19Z</time></trkpt><trkpt lat="41.981138993208134" lon="14.776468785732908"><ele>125.0</ele><time>2026-03-22T10:23:20Z</time></trkpt><trkpt lat="41.98085128390005" lon="14.776405531859389"><ele>128.0</ele><time>2026-03-22T10:23:21Z</time></trkpt><trkpt lat="41.98057783841042" lon="14.776348489611253"><ele>131.0</ele><time>2026-03-22T10:23:22Z</time></trkpt><trkpt lat="41.98030869127525" lon="14.77628837613086"><ele>131.0</ele><time>2026-03-22T10:23:23Z</time></trkpt><trkpt lat="41.98003609326104" lon="14.776232895452992"><ele>131.0</ele><time>2026-03-22T10:23:24Z</time></trkpt><trkpt lat="41.97977404807337" lon="14.776189991791906"><ele>134.5</ele><time>2026-03-22T10:23:25Z</time></trkpt><trkpt lat="41.97952871200399" lon="14.77614725951214"><ele>138.0</ele><time>2026-03-22T10:23:26Z</time></trkpt><trkpt lat="41.979299776409306" lon="14.77610053225953"><ele>141.0</ele><time>2026-03-22T10:23:27Z</time></trkpt><trkpt lat="41.97908333058224" lon="14.77605505542153"><ele>144.0</ele><time>2026-03-22T10:23:28Z</time></trkpt><trkpt lat="41.9788787101267" lon="14.776010579545463"><ele>147.0</ele><time>2026-03-22T10:23:29Z</time></trkpt><trkpt lat="41.97868707200781" lon="14.775977976889447"><ele>147.0</ele><time>2026-03-22T10:23:30Z</time></trkpt><trkpt lat="41.97849683873958" lon="14.775938924692323"><ele>147.0</ele><time>2026-03-22T10:23:31.001Z</time></trkpt><trkpt lat="41.97831037410585" lon="14.77589347348049"><ele>147.0</ele><time>2026-03-22T10:23:32.001Z</time></trkpt><trkpt lat="41.978126946286885" lon="14.775850088315714"><ele>149.0</ele><time>2026-03-22T10:23:33.001Z</time></trkpt><trkpt lat="41.97795505053724" lon="14.77581443562909"><ele>151.0</ele><time>2026-03-22T10:23:34Z</time></trkpt><trkpt lat="41.97779331712361" lon="14.775797225661604"><ele>153.0</ele><time>2026-03-22T10:23:35Z</time></trkpt><trkpt lat="41.977645420015385" lon="14.775797582145207"><ele>153.0</ele><time>2026-03-22T10:23:36Z</time></trkpt><trkpt lat="41.977512766679304" lon="14.77579887240389"><ele>153.0</ele><time>2026-03-22T10:23:37Z</time></trkpt><trkpt lat="41.977382801045124" lon="14.775840557995243"><ele>153.0</ele><time>2026-03-22T10:23:38Z</time></trkpt><trkpt lat="41.97726010165234" lon="14.775888328592025"><ele>153.0</ele><time>2026-03-22T10:23:39Z</time></trkpt><trkpt lat="41.97715942383175" lon="14.775929347284047"><ele>153.0</ele><time>2026-03-22T10:23:40Z</time></trkpt><trkpt lat="41.97708139540187" lon="14.775971554510807"><ele>153.0</ele><time>2026-03-22T10:23:41Z</time></trkpt><trkpt lat="41.97699706521759" lon="14.775950350793964"><ele>153.0</ele><time>2026-03-22T10:23:42Z</time></trkpt><trkpt lat="41.97692352680048" lon="14.775928435242228"><ele>153.0</ele><time>2026-03-22T10:23:43Z</time></trkpt><trkpt lat="41.97681121711484" lon="14.775989969444652"><ele>153.0</ele><time>2026-03-22T10:23:45Z</time></trkpt><trkpt lat="41.97675699554023" lon="14.7760828388056"><ele>151.33333333333334</ele><time>2026-03-22T10:23:46Z</time></trkpt><trkpt lat="41.97660575682073" lon="14.776277620171582"><ele>149.66666666666669</ele><time>2026-03-22T10:23:48Z</time></trkpt><trkpt lat="41.97649801448752" lon="14.776353240861916"><ele>148.0</ele><time>2026-03-22T10:23:49Z</time></trkpt><trkpt lat="41.976382244563666" lon="14.776424960824928"><ele>148.0</ele><time>2026-03-22T10:23:50Z</time></trkpt><trkpt lat="41.97625412180423" lon="14.776501055406571"><ele>148.0</ele><time>2026-03-22T10:23:51Z</time></trkpt><trkpt lat="41.97611747919883" lon="14.776579209925067"><ele>148.0</ele><time>2026-03-22T10:23:52Z</time></trkpt><trkpt lat="41.97597353800861" lon="14.776653399461651"><ele>148.0</ele><time>2026-03-22T10:23:53Z</time></trkpt><trkpt lat="41.975844501120484" lon="14.776696468074483"><ele>148.75</ele><time>2026-03-22T10:23:54Z</time></trkpt><trkpt lat="41.975719722626216" lon="14.776722119414284"><ele>149.5</ele><time>2026-03-22T10:23:55Z</time></trkpt><trkpt lat="41.9755755744909" lon="14.776735475377407"><ele>150.25</ele><time>2026-03-22T10:23:56Z</time></trkpt><trkpt lat="41.97542440019294" lon="14.77676000476348"><ele>151.0</ele><time>2026-03-22T10:23:57Z</time></trkpt><trkpt lat="41.97527326840763" lon="14.776800267155023"><ele>150.66666666666669</ele><time>2026-03-22T10:23:58Z</time></trkpt><trkpt lat="41.97511233823564" lon="14.776859520508397"><ele>150.33333333333334</ele><time>2026-03-22T10:23:59Z</time></trkpt><trkpt lat="41.97495222795916" lon="14.776926876007172"><ele>150.0</ele><time>2026-03-22T10:24:00Z</time></trkpt><trkpt lat="41.97478778014731" lon="14.777025690967374"><ele>151.33333333333334</ele><time>2026-03-22T10:24:01Z</time></trkpt><trkpt lat="41.97462410684711" lon="14.777133999435575"><ele>152.66666666666669</ele><time>2026-03-22T10:24:02Z</time></trkpt><trkpt lat="41.97445582133342" lon="14.77724716236053"><ele>154.0</ele><time>2026-03-22T10:24:03Z</time></trkpt><trkpt lat="41.974290347880405" lon="14.77735843461914"><ele>154.0</ele><time>2026-03-22T10:24:04Z</time></trkpt><trkpt lat="41.97413468515504" lon="14.777504189034413"><ele>154.0</ele><time>2026-03-22T10:24:05Z</time></trkpt><trkpt lat="41.9739588880045" lon="14.777615137537873"><ele>154.0</ele><time>2026-03-22T10:24:06Z</time></trkpt><trkpt lat="41.9737789444794" lon="14.77773258128563"><ele>154.33333333333334</ele><time>2026-03-22T10:24:07Z</time></trkpt><trkpt lat="41.97360162555195" lon="14.777847431649063"><ele>154.66666666666666</ele><time>2026-03-22T10:24:08Z</time></trkpt><trkpt lat="41.97341334103936" lon="14.777913906156316"><ele>155.0</ele><time>2026-03-22T10:24:09Z</time></trkpt><trkpt lat="41.973228430861546" lon="14.77798587393977"><ele>155.0</ele><time>2026-03-22T10:24:10Z</time></trkpt><trkpt lat="41.97303824366645" lon="14.778043401873411"><ele>155.0</ele><time>2026-03-22T10:24:11Z</time></trkpt><trkpt lat="41.972843521504466" lon="14.778097950013061"><ele>155.0</ele><time>2026-03-22T10:24:12Z</time></trkpt><trkpt lat="41.97265163494482" lon="14.77814859202539"><ele>156.66666666666666</ele><time>2026-03-22T10:24:13Z</time></trkpt><trkpt lat="41.97247824354999" lon="14.778189160450967"><ele>158.33333333333334</ele><time>2026-03-22T10:24:14Z</time></trkpt><trkpt lat="41.97231906042435" lon="14.778227326842424"><ele>160.0</ele><time>2026-03-22T10:24:15Z</time></trkpt><trkpt lat="41.9721677014331" lon="14.778278431013348"><ele>160.0</ele><time>2026-03-22T10:24:16Z</time></trkpt><trkpt lat="41.972007918697" lon="14.778307012021115"><ele>160.0</ele><time>2026-03-22T10:24:17Z</time></trkpt><trkpt lat="41.97184695769404" lon="14.778308755021172"><ele>160.0</ele><time>2026-03-22T10:24:18Z</time></trkpt><trkpt lat="41.97168564859357" lon="14.778327289620554"><ele>161.33333333333334</ele><time>2026-03-22T10:24:19Z</time></trkpt><trkpt lat="41.97152345886059" lon="14.778346127407007"><ele>162.66666666666666</ele><time>2026-03-22T10:24:20Z</time></trkpt><trkpt lat="41.97136062222535" lon="14.778365839327247"><ele>164.0</ele><time>2026-03-22T10:24:21Z</time></trkpt><trkpt lat="41.9711989075631" lon="14.77838446926599"><ele>164.0</ele><time>2026-03-22T10:24:22Z</time></trkpt><trkpt lat="41.97104060923315" lon="14.778420173162903"><ele>164.0</ele><time>2026-03-22T10:24:23Z</time></trkpt><trkpt lat="41.97088467106083" lon="14.77842856888542"><ele>164.0</ele><time>2026-03-22T10:24:24Z</time></trkpt><trkpt lat="41.97073741888569" lon="14.778422465036098"><ele>164.5</ele><time>2026-03-22T10:24:25Z</time></trkpt><trkpt lat="41.970592571143314" lon="14.778422358188259"><ele>165.0</ele><time>2026-03-22T10:24:26Z</time></trkpt><trkpt lat="41.97044976762873" lon="14.778426971020187"><ele>165.5</ele><time>2026-03-22T10:24:27Z</time></trkpt><trkpt lat="41.970312001206786" lon="14.778437625789072"><ele>166.0</ele><time>2026-03-22T10:24:28Z</time></trkpt><trkpt lat="41.97018456086755" lon="14.77843470305485"><ele>166.0</ele><time>2026-03-22T10:24:29Z</time></trkpt><trkpt lat="41.970065911297866" lon="14.778430286984726"><ele>166.0</ele><time>2026-03-22T10:24:30Z</time></trkpt><trkpt lat="41.9699574181734" lon="14.778436963792677"><ele>166.0</ele><time>2026-03-22T10:24:31Z</time></trkpt><trkpt lat="41.96985216122025" lon="14.778451865934192"><ele>166.0</ele><time>2026-03-22T10:24:32Z</time></trkpt><trkpt lat="41.96975056954976" lon="14.778438669003764"><ele>166.0</ele><time>2026-03-22T10:24:33Z</time></trkpt><trkpt lat="41.969643818210216" lon="14.778444490384466"><ele>166.20000000000002</ele><time>2026-03-22T10:24:34Z</time></trkpt><trkpt lat="41.96955180360902" lon="14.77844156079978"><ele>166.4</ele><time>2026-03-22T10:24:35Z</time></trkpt><trkpt lat="41.96945592935206" lon="14.778435992754472"><ele>166.6</ele><time>2026-03-22T10:24:36Z</time></trkpt><trkpt lat="41.96935514861833" lon="14.778430574359552"><ele>166.8</ele><time>2026-03-22T10:24:37Z</time></trkpt><trkpt lat="41.96926826396252" lon="14.778435688498503"><ele>167.0</ele><time>2026-03-22T10:24:38Z</time></trkpt><trkpt lat="41.96918807295664" lon="14.77843776907917"><ele>167.0</ele><time>2026-03-22T10:24:39Z</time></trkpt><trkpt lat="41.96907350460108" lon="14.778424279318413"><ele>167.0</ele><time>2026-03-22T10:24:41Z</time></trkpt><trkpt lat="41.969006481252784" lon="14.778394853958721"><ele>167.0</ele><time>2026-03-22T10:24:42Z</time></trkpt><trkpt lat="41.96893238527302" lon="14.778356533069937"><ele>167.0</ele><time>2026-03-22T10:24:43Z</time></trkpt><trkpt lat="41.9687204227522" lon="14.778229219605928"><ele>167.0</ele><time>2026-03-22T10:24:45Z</time></trkpt><trkpt lat="41.96861373328191" lon="14.77816404038444"><ele>167.0</ele><time>2026-03-22T10:24:46Z</time></trkpt><trkpt lat="41.968493468799096" lon="14.778092694649434"><ele>167.0</ele><time>2026-03-22T10:24:47Z</time></trkpt><trkpt lat="41.96836677327421" lon="14.778014055335548"><ele>167.0</ele><time>2026-03-22T10:24:48Z</time></trkpt><trkpt lat="41.96822970568469" lon="14.777933563143758"><ele>166.75</ele><time>2026-03-22T10:24:49Z</time></trkpt><trkpt lat="41.96809018832468" lon="14.7778561970601"><ele>166.5</ele><time>2026-03-22T10:24:50Z</time></trkpt><trkpt lat="41.96796079021406" lon="14.77777745387094"><ele>166.25</ele><time>2026-03-22T10:24:51Z</time></trkpt><trkpt lat="41.9678307388628" lon="14.777699549931524"><ele>166.0</ele><time>2026-03-22T10:24:52Z</time></trkpt><trkpt lat="41.967692343143625" lon="14.77763447272299"><ele>166.0</ele><time>2026-03-22T10:24:53Z</time></trkpt><trkpt lat="41.9675478790665" lon="14.777587642598597"><ele>166.0</ele><time>2026-03-22T10:24:54Z</time></trkpt><trkpt lat="41.96740490806009" lon="14.777574241209107"><ele>166.0</ele><time>2026-03-22T10:24:55Z</time></trkpt><trkpt lat="41.967254544656505" lon="14.777577048464611"><ele>166.0</ele><time>2026-03-22T10:24:56Z</time></trkpt><trkpt lat="41.96709626171701" lon="14.777599491994136"><ele>165.0</ele><time>2026-03-22T10:24:57Z</time></trkpt><trkpt lat="41.966938050404146" lon="14.777636112129393"><ele>164.0</ele><time>2026-03-22T10:24:58Z</time></trkpt><trkpt lat="41.966788751968274" lon="14.777690894237873"><ele>163.0</ele><time>2026-03-22T10:24:59Z</time></trkpt><trkpt lat="41.966645923800776" lon="14.777766203325022"><ele>162.5</ele><time>2026-03-22T10:25:00Z</time></trkpt><trkpt lat="41.96651081746399" lon="14.777835332292145"><ele>162.0</ele><time>2026-03-22T10:25:01Z</time></trkpt><trkpt lat="41.96641071375555" lon="14.777952027480346"><ele>161.5</ele><time>2026-03-22T10:25:02Z</time></trkpt><trkpt lat="41.96632194485116" lon="14.778054752139154"><ele>161.0</ele><time>2026-03-22T10:25:03Z</time></trkpt><trkpt lat="41.96624749101895" lon="14.778145211492859"><ele>161.0</ele><time>2026-03-22T10:25:04Z</time></trkpt><trkpt lat="41.966173380925106" lon="14.778190756931245"><ele>161.0</ele><time>2026-03-22T10:25:05Z</time></trkpt><trkpt lat="41.966125163825886" lon="14.778260116229184"><ele>161.0</ele><time>2026-03-22T10:25:06Z</time></trkpt><trkpt lat="41.96606264344137" lon="14.778283425312122"><ele>161.0</ele><time>2026-03-22T10:25:07Z</time></trkpt><trkpt lat="41.965998972963305" lon="14.778272505830463"><ele>161.0</ele><time>2026-03-22T10:25:08Z</time></trkpt><trkpt lat="41.965942221918944" lon="14.778214766361083"><ele>161.0</ele><time>2026-03-22T10:25:09Z</time></trkpt><trkpt lat="41.96589565041783" lon="14.778098838326647"><ele>161.33333333333331</ele><time>2026-03-22T10:25:10Z</time></trkpt><trkpt lat="41.96579205351073" lon="14.777849063556715"><ele>161.66666666666666</ele><time>2026-03-22T10:25:12Z</time></trkpt><trkpt lat="41.965717871364234" lon="14.777712915370032"><ele>162.0</ele><time>2026-03-22T10:25:13Z</time></trkpt><trkpt lat="41.9656196219972" lon="14.777564660667988"><ele>161.33333333333334</ele><time>2026-03-22T10:25:14Z</time></trkpt><trkpt lat="41.96549751613778" lon="14.777397224583966"><ele>160.66666666666669</ele><time>2026-03-22T10:25:15Z</time></trkpt><trkpt lat="41.965362566220215" lon="14.777214281434382"><ele>160.0</ele><time>2026-03-22T10:25:16Z</time></trkpt><trkpt lat="41.96522886143718" lon="14.777039611256138"><ele>160.0</ele><time>2026-03-22T10:25:17Z</time></trkpt><trkpt lat="41.96509501221997" lon="14.776862864535428"><ele>160.0</ele><time>2026-03-22T10:25:18Z</time></trkpt><trkpt lat="41.964962345268646" lon="14.776685633395743"><ele>160.0</ele><time>2026-03-22T10:25:19Z</time></trkpt><trkpt lat="41.964846875863955" lon="14.776528905307046"><ele>158.0</ele><time>2026-03-22T10:25:20Z</time></trkpt><trkpt lat="41.96474220603121" lon="14.776391143524176"><ele>156.0</ele><time>2026-03-22T10:25:21Z</time></trkpt><trkpt lat="41.96464759685557" lon="14.776267795957619"><ele>154.0</ele><time>2026-03-22T10:25:22Z</time></trkpt><trkpt lat="41.964553542362616" lon="14.776140922466059"><ele>152.0</ele><time>2026-03-22T10:25:23Z</time></trkpt><trkpt lat="41.96449365697723" lon="14.77606360952115"><ele>151.5</ele><time>2026-03-22T10:25:24Z</time></trkpt><trkpt lat="41.964446843092304" lon="14.775987044545396"><ele>151.0</ele><time>2026-03-22T10:25:25Z</time></trkpt><trkpt lat="41.96442274969761" lon="14.77590366434218"><ele>150.5</ele><time>2026-03-22T10:25:26Z</time></trkpt><trkpt lat="41.96442295318816" lon="14.77580955222965"><ele>150.0</ele><time>2026-03-22T10:25:27Z</time></trkpt><trkpt lat="41.964453816704875" lon="14.775723839643968"><ele>149.5</ele><time>2026-03-22T10:25:28Z</time></trkpt><trkpt lat="41.96452195485842" lon="14.775667465370743"><ele>149.0</ele><time>2026-03-22T10:25:29Z</time></trkpt><trkpt lat="41.9646230415095" lon="14.775653175760139"><ele>149.0</ele><time>2026-03-22T10:25:30Z</time></trkpt><trkpt lat="41.96472431423207" lon="14.775628511743715"><ele>149.0</ele><time>2026-03-22T10:25:31Z</time></trkpt><trkpt lat="41.96483413850012" lon="14.775640886068558"><ele>149.0</ele><time>2026-03-22T10:25:32Z</time></trkpt><trkpt lat="41.96493712955008" lon="14.775641741435635"><ele>149.0</ele><time>2026-03-22T10:25:33Z</time></trkpt><trkpt lat="41.96501195901428" lon="14.77559804910972"><ele>149.0</ele><time>2026-03-22T10:25:34Z</time></trkpt><trkpt lat="41.965053674128356" lon="14.775509926916822"><ele>149.0</ele><time>2026-03-22T10:25:35Z</time></trkpt><trkpt lat="41.96507553953988" lon="14.775412100593291"><ele>149.0</ele><time>2026-03-22T10:25:36Z</time></trkpt><trkpt lat="41.96504859586826" lon="14.775319759835282"><ele>149.0</ele><time>2026-03-22T10:25:37.001Z</time></trkpt><trkpt lat="41.965016747325954" lon="14.775211448496039"><ele>149.0</ele><time>2026-03-22T10:25:38.001Z</time></trkpt><trkpt lat="41.96495286407669" lon="14.775099426185003"><ele>149.0</ele><time>2026-03-22T10:25:39.001Z</time></trkpt><trkpt lat="41.96488241314733" lon="14.774946150092264"><ele>148.25</ele><time>2026-03-22T10:25:40.001Z</time></trkpt><trkpt lat="41.96479024085919" lon="14.774799465020058"><ele>147.5</ele><time>2026-03-22T10:25:41.001Z</time></trkpt><trkpt lat="41.964705597215634" lon="14.774665557896519"><ele>146.75</ele><time>2026-03-22T10:25:42.001Z</time></trkpt><trkpt lat="41.96461726625534" lon="14.77452143443272"><ele>146.0</ele><time>2026-03-22T10:25:43.001Z</time></trkpt><trkpt lat="41.96453777925125" lon="14.774359798493405"><ele>146.25</ele><time>2026-03-22T10:25:44.001Z</time></trkpt><trkpt lat="41.964470381421506" lon="14.774178053836877"><ele>146.5</ele><time>2026-03-22T10:25:45.001Z</time></trkpt><trkpt lat="41.96442483091451" lon="14.773986592710806"><ele>146.75</ele><time>2026-03-22T10:25:46.001Z</time></trkpt><trkpt lat="41.96437885184337" lon="14.773802977547815"><ele>147.0</ele><time>2026-03-22T10:25:47.001Z</time></trkpt><trkpt lat="41.964347060442655" lon="14.773611943046376"><ele>145.33333333333334</ele><time>2026-03-22T10:25:48.001Z</time></trkpt><trkpt lat="41.96433533004292" lon="14.77341072725033"><ele>143.66666666666669</ele><time>2026-03-22T10:25:49.001Z</time></trkpt><trkpt lat="41.964340119966025" lon="14.77319659300514"><ele>142.0</ele><time>2026-03-22T10:25:50.001Z</time></trkpt><trkpt lat="41.96435856678349" lon="14.772992213965377"><ele>142.0</ele><time>2026-03-22T10:25:51.001Z</time></trkpt><trkpt lat="41.964375721569034" lon="14.772803977614355"><ele>142.0</ele><time>2026-03-22T10:25:52.001Z</time></trkpt><trkpt lat="41.964383106209176" lon="14.772628064107101"><ele>142.0</ele><time>2026-03-22T10:25:53.001Z</time></trkpt><trkpt lat="41.96439447287392" lon="14.772464855998305"><ele>142.0</ele><time>2026-03-22T10:25:54.001Z</time></trkpt><trkpt lat="41.96444926561695" lon="14.772331487997116"><ele>139.75</ele><time>2026-03-22T10:25:55.001Z</time></trkpt><trkpt lat="41.96453379488646" lon="14.772241418528493"><ele>137.5</ele><time>2026-03-22T10:25:56.001Z</time></trkpt><trkpt lat="41.96463529238028" lon="14.772156987008293"><ele>135.25</ele><time>2026-03-22T10:25:57Z</time></trkpt><trkpt lat="41.96474694129806" lon="14.77204215169699"><ele>133.0</ele><time>2026-03-22T10:25:58Z</time></trkpt><trkpt lat="41.96488948283193" lon="14.771964525916331"><ele>132.33333333333334</ele><time>2026-03-22T10:25:59Z</time></trkpt><trkpt lat="41.965041229631545" lon="14.77187518184473"><ele>131.66666666666666</ele><time>2026-03-22T10:26:00Z</time></trkpt><trkpt lat="41.96520214101067" lon="14.771788917350943"><ele>131.0</ele><time>2026-03-22T10:26:01Z</time></trkpt><trkpt lat="41.965357667563225" lon="14.77170924553301"><ele>129.25</ele><time>2026-03-22T10:26:02Z</time></trkpt><trkpt lat="41.965495366401605" lon="14.771646443141103"><ele>127.5</ele><time>2026-03-22T10:26:03Z</time></trkpt><trkpt lat="41.96562112273608" lon="14.771576376871066"><ele>125.75</ele><time>2026-03-22T10:26:04Z</time></trkpt><trkpt lat="41.96572831469931" lon="14.771524959774036"><ele>124.0</ele><time>2026-03-22T10:26:05Z</time></trkpt><trkpt lat="41.96582675075144" lon="14.771462879628578"><ele>124.0</ele><time>2026-03-22T10:26:06Z</time></trkpt><trkpt lat="41.96588276611807" lon="14.771343303204363"><ele>124.0</ele><time>2026-03-22T10:26:07Z</time></trkpt><trkpt lat="41.96591259048411" lon="14.771241853875035"><ele>124.0</ele><time>2026-03-22T10:26:08Z</time></trkpt><trkpt lat="41.96593335397535" lon="14.771131287351603"><ele>124.0</ele><time>2026-03-22T10:26:09Z</time></trkpt><trkpt lat="41.96587282973827" lon="14.771018765907002"><ele>124.0</ele><time>2026-03-22T10:26:10Z</time></trkpt><trkpt lat="41.965812958996814" lon="14.770900220483073"><ele>122.0</ele><time>2026-03-22T10:26:11Z</time></trkpt><trkpt lat="41.96574271217912" lon="14.77077225700596"><ele>120.0</ele><time>2026-03-22T10:26:12Z</time></trkpt><trkpt lat="41.96562325850887" lon="14.770649325465035"><ele>118.0</ele><time>2026-03-22T10:26:13Z</time></trkpt><trkpt lat="41.96549889601124" lon="14.770509103133072"><ele>116.0</ele><time>2026-03-22T10:26:14Z</time></trkpt><trkpt lat="41.965364721544205" lon="14.770347425278482"><ele>115.66666666666666</ele><time>2026-03-22T10:26:15Z</time></trkpt><trkpt lat="41.96523133453589" lon="14.770160992638317"><ele>115.33333333333334</ele><time>2026-03-22T10:26:16Z</time></trkpt><trkpt lat="41.96508751693794" lon="14.769969745922031"><ele>115.0</ele><time>2026-03-22T10:26:17Z</time></trkpt><trkpt lat="41.96495252390837" lon="14.769792837881532"><ele>115.66666666666667</ele><time>2026-03-22T10:26:18Z</time></trkpt><trkpt lat="41.96482184157188" lon="14.769605407824166"><ele>116.33333333333334</ele><time>2026-03-22T10:26:19Z</time></trkpt><trkpt lat="41.96468021353534" lon="14.769413704991479"><ele>117.0</ele><time>2026-03-22T10:26:20Z</time></trkpt><trkpt lat="41.964545476176305" lon="14.76923133083787"><ele>117.0</ele><time>2026-03-22T10:26:21Z</time></trkpt><trkpt lat="41.96441386153311" lon="14.769059878889673"><ele>117.0</ele><time>2026-03-22T10:26:22Z</time></trkpt><trkpt lat="41.96428955434162" lon="14.76889795401876"><ele>117.0</ele><time>2026-03-22T10:26:23Z</time></trkpt><trkpt lat="41.96417779050846" lon="14.768739423403767"><ele>118.0</ele><time>2026-03-22T10:26:24Z</time></trkpt><trkpt lat="41.96407306906729" lon="14.768596798309098"><ele>119.0</ele><time>2026-03-22T10:26:25Z</time></trkpt><trkpt lat="41.96397645661951" lon="14.768461120274377"><ele>120.0</ele><time>2026-03-22T10:26:26Z</time></trkpt><trkpt lat="41.96389503713756" lon="14.768352604136153"><ele>121.0</ele><time>2026-03-22T10:26:27Z</time></trkpt><trkpt lat="41.963817297731445" lon="14.76827333429708"><ele>121.4</ele><time>2026-03-22T10:26:28Z</time></trkpt><trkpt lat="41.9637369978768" lon="14.768258879495754"><ele>121.8</ele><time>2026-03-22T10:26:29Z</time></trkpt><trkpt lat="41.963650438704576" lon="14.768205483952823"><ele>122.20000000000002</ele><time>2026-03-22T10:26:30Z</time></trkpt><trkpt lat="41.96353982770724" lon="14.768229165912567"><ele>122.60000000000001</ele><time>2026-03-22T10:26:31Z</time></trkpt><trkpt lat="41.963441190810364" lon="14.768275056325583"><ele>123.0</ele><time>2026-03-22T10:26:32Z</time></trkpt><trkpt lat="41.963356296913986" lon="14.768293718533158"><ele>124.0</ele><time>2026-03-22T10:26:33Z</time></trkpt><trkpt lat="41.96329327282923" lon="14.768312595560436"><ele>125.00000000000001</ele><time>2026-03-22T10:26:34Z</time></trkpt><trkpt lat="41.96320913173887" lon="14.76828614180049"><ele>126.00000000000001</ele><time>2026-03-22T10:26:36Z</time></trkpt><trkpt lat="41.96317994226472" lon="14.76812059155159"><ele>127.0</ele><time>2026-03-22T10:26:38Z</time></trkpt><trkpt lat="41.96319491821893" lon="14.768037544614113"><ele>128.0</ele><time>2026-03-22T10:26:39Z</time></trkpt><trkpt lat="41.963328698167736" lon="14.768002732858974"><ele>126.75</ele><time>2026-03-22T10:26:40Z</time></trkpt><trkpt lat="41.963429013225515" lon="14.767986775102894"><ele>125.5</ele><time>2026-03-22T10:26:41Z</time></trkpt><trkpt lat="41.963547290286506" lon="14.767960650551768"><ele>124.25</ele><time>2026-03-22T10:26:42Z</time></trkpt><trkpt lat="41.96368534629176" lon="14.767919754390126"><ele>123.0</ele><time>2026-03-22T10:26:43Z</time></trkpt><trkpt lat="41.96381580857753" lon="14.767890752123312"><ele>123.0</ele><time>2026-03-22T10:26:44Z</time></trkpt><trkpt lat="41.963920934168755" lon="14.767871481955495"><ele>123.0</ele><time>2026-03-22T10:26:45Z</time></trkpt><trkpt lat="41.963989558105276" lon="14.767806733279132"><ele>123.0</ele><time>2026-03-22T10:26:46Z</time></trkpt><trkpt lat="41.96403606689936" lon="14.767743876618297"><ele>123.0</ele><time>2026-03-22T10:26:47Z</time></trkpt><trkpt lat="41.964045669085" lon="14.767593307340695"><ele>123.0</ele><time>2026-03-22T10:26:49Z</time></trkpt><trkpt lat="41.963989503013" lon="14.767523036881295"><ele>123.0</ele><time>2026-03-22T10:26:50Z</time></trkpt><trkpt lat="41.96382863451625" lon="14.767516903991497"><ele>125.33333333333334</ele><time>2026-03-22T10:26:52Z</time></trkpt><trkpt lat="41.96370366399247" lon="14.767586177039046"><ele>127.66666666666667</ele><time>2026-03-22T10:26:53Z</time></trkpt><trkpt lat="41.96354147078664" lon="14.767623120266693"><ele>130.0</ele><time>2026-03-22T10:26:54Z</time></trkpt><trkpt lat="41.963387551271566" lon="14.767674556036045"><ele>129.5</ele><time>2026-03-22T10:26:55Z</time></trkpt><trkpt lat="41.96325166228557" lon="14.767718933473619"><ele>129.0</ele><time>2026-03-22T10:26:56Z</time></trkpt><trkpt lat="41.963118815728315" lon="14.767735992476883"><ele>128.5</ele><time>2026-03-22T10:26:57Z</time></trkpt><trkpt lat="41.96297697904221" lon="14.767722837302545"><ele>128.0</ele><time>2026-03-22T10:26:58Z</time></trkpt><trkpt lat="41.96282224297874" lon="14.767703490289795"><ele>131.33333333333331</ele><time>2026-03-22T10:26:59Z</time></trkpt><trkpt lat="41.96266086120934" lon="14.767627442949264"><ele>134.66666666666666</ele><time>2026-03-22T10:27:00Z</time></trkpt><trkpt lat="41.96249108775313" lon="14.767545034437319"><ele>138.0</ele><time>2026-03-22T10:27:01Z</time></trkpt><trkpt lat="41.96231852829183" lon="14.76745692530487"><ele>139.33333333333334</ele><time>2026-03-22T10:27:02Z</time></trkpt><trkpt lat="41.96215523909535" lon="14.767365270185428"><ele>140.66666666666669</ele><time>2026-03-22T10:27:03Z</time></trkpt><trkpt lat="41.961998649257715" lon="14.767271185379691"><ele>142.0</ele><time>2026-03-22T10:27:04Z</time></trkpt><trkpt lat="41.96185320242446" lon="14.767157673565896"><ele>142.0</ele><time>2026-03-22T10:27:05Z</time></trkpt><trkpt lat="41.96172068260184" lon="14.767012149685293"><ele>142.0</ele><time>2026-03-22T10:27:06Z</time></trkpt><trkpt lat="41.961588629503396" lon="14.76685316955022"><ele>142.0</ele><time>2026-03-22T10:27:07Z</time></trkpt><trkpt lat="41.96144905629991" lon="14.766704515306364"><ele>143.33333333333334</ele><time>2026-03-22T10:27:08Z</time></trkpt><trkpt lat="41.96130296474947" lon="14.766596211183106"><ele>144.66666666666666</ele><time>2026-03-22T10:27:09Z</time></trkpt><trkpt lat="41.961147238361285" lon="14.76652274674477"><ele>146.0</ele><time>2026-03-22T10:27:10Z</time></trkpt><trkpt lat="41.960978056541464" lon="14.766469846648203"><ele>145.5</ele><time>2026-03-22T10:27:11Z</time></trkpt><trkpt lat="41.96081556076941" lon="14.76642067654288"><ele>145.0</ele><time>2026-03-22T10:27:12Z</time></trkpt><trkpt lat="41.960679850728894" lon="14.76635609203137"><ele>144.5</ele><time>2026-03-22T10:27:13Z</time></trkpt><trkpt lat="41.96056373350138" lon="14.766253538248638"><ele>144.0</ele><time>2026-03-22T10:27:14Z</time></trkpt><trkpt lat="41.96045108314165" lon="14.766102724040755"><ele>147.33333333333334</ele><time>2026-03-22T10:27:15Z</time></trkpt><trkpt lat="41.96031860050842" lon="14.765922119336837"><ele>150.66666666666669</ele><time>2026-03-22T10:27:16Z</time></trkpt><trkpt lat="41.960163076477414" lon="14.765737118606566"><ele>154.0</ele><time>2026-03-22T10:27:17Z</time></trkpt><trkpt lat="41.959988965960584" lon="14.765559456792651"><ele>154.0</ele><time>2026-03-22T10:27:18Z</time></trkpt><trkpt lat="41.959828587877304" lon="14.765390902841476"><ele>154.0</ele><time>2026-03-22T10:27:19Z</time></trkpt><trkpt lat="41.95967159406889" lon="14.76522397936406"><ele>154.0</ele><time>2026-03-22T10:27:20Z</time></trkpt><trkpt lat="41.95951686024067" lon="14.765054764192529"><ele>155.66666666666669</ele><time>2026-03-22T10:27:21Z</time></trkpt><trkpt lat="41.95936474352039" lon="14.764869974132552"><ele>157.33333333333334</ele><time>2026-03-22T10:27:22Z</time></trkpt><trkpt lat="41.95922103859286" lon="14.764666588110025"><ele>159.0</ele><time>2026-03-22T10:27:23Z</time></trkpt><trkpt lat="41.959076016587844" lon="14.764453552179393"><ele>160.66666666666666</ele><time>2026-03-22T10:27:24Z</time></trkpt><trkpt lat="41.95892528836947" lon="14.764243129937364"><ele>162.33333333333331</ele><time>2026-03-22T10:27:25Z</time></trkpt><trkpt lat="41.95877138997005" lon="14.764035010163735"><ele>164.0</ele><time>2026-03-22T10:27:26Z</time></trkpt><trkpt lat="41.95862146810674" lon="14.763824636489414"><ele>164.0</ele><time>2026-03-22T10:27:27Z</time></trkpt><trkpt lat="41.958473747494914" lon="14.763620535400605"><ele>164.0</ele><time>2026-03-22T10:27:28Z</time></trkpt><trkpt lat="41.95831592817965" lon="14.763424932308789"><ele>164.0</ele><time>2026-03-22T10:27:29Z</time></trkpt><trkpt lat="41.95814905377221" lon="14.763249402432326"><ele>165.66666666666666</ele><time>2026-03-22T10:27:30Z</time></trkpt><trkpt lat="41.95798155256043" lon="14.76307741800215"><ele>167.33333333333334</ele><time>2026-03-22T10:27:31Z</time></trkpt><trkpt lat="41.95782725367045" lon="14.762887925517317"><ele>169.0</ele><time>2026-03-22T10:27:32Z</time></trkpt><trkpt lat="41.957690184931586" lon="14.762680068803238"><ele>170.66666666666669</ele><time>2026-03-22T10:27:33Z</time></trkpt><trkpt lat="41.95755716785744" lon="14.762469438067207"><ele>172.33333333333334</ele><time>2026-03-22T10:27:34Z</time></trkpt><trkpt lat="41.957425917643974" lon="14.762266619819837"><ele>174.0</ele><time>2026-03-22T10:27:35Z</time></trkpt><trkpt lat="41.957312789592436" lon="14.762064925819015"><ele>176.0</ele><time>2026-03-22T10:27:36Z</time></trkpt><trkpt lat="41.957224706996804" lon="14.761855757984026"><ele>178.0</ele><time>2026-03-22T10:27:37Z</time></trkpt><trkpt lat="41.957159201375795" lon="14.761620428659455"><ele>180.0</ele><time>2026-03-22T10:27:38Z</time></trkpt><trkpt lat="41.957106654581786" lon="14.761360328967315"><ele>180.0</ele><time>2026-03-22T10:27:39Z</time></trkpt><trkpt lat="41.95704586960065" lon="14.761109902605027"><ele>180.0</ele><time>2026-03-22T10:27:40Z</time></trkpt><trkpt lat="41.95697510225551" lon="14.760881309879453"><ele>180.0</ele><time>2026-03-22T10:27:41Z</time></trkpt><trkpt lat="41.95689276958203" lon="14.760676611190549"><ele>180.0</ele><time>2026-03-22T10:27:42.001Z</time></trkpt><trkpt lat="41.95678494485491" lon="14.760474868639815"><ele>180.0</ele><time>2026-03-22T10:27:43.001Z</time></trkpt><trkpt lat="41.95665451437224" lon="14.760275346041606"><ele>180.0</ele><time>2026-03-22T10:27:44.001Z</time></trkpt><trkpt lat="41.95651631069947" lon="14.76006443099685"><ele>180.0</ele><time>2026-03-22T10:27:45.001Z</time></trkpt><trkpt lat="41.95637923781518" lon="14.759842497776374"><ele>180.0</ele><time>2026-03-22T10:27:46.001Z</time></trkpt><trkpt lat="41.95624381112237" lon="14.759613878627341"><ele>180.0</ele><time>2026-03-22T10:27:47.001Z</time></trkpt><trkpt lat="41.956113939146" lon="14.759396951667533"><ele>177.66666666666666</ele><time>2026-03-22T10:27:48.001Z</time></trkpt><trkpt lat="41.956009983749745" lon="14.759195726750198"><ele>175.33333333333331</ele><time>2026-03-22T10:27:49.001Z</time></trkpt><trkpt lat="41.9559376247448" lon="14.758985355799787"><ele>173.0</ele><time>2026-03-22T10:27:50.001Z</time></trkpt><trkpt lat="41.95588844568117" lon="14.758754562558572"><ele>174.0</ele><time>2026-03-22T10:27:51.001Z</time></trkpt><trkpt lat="41.95582476033739" lon="14.758523937651802"><ele>175.0</ele><time>2026-03-22T10:27:52.001Z</time></trkpt><trkpt lat="41.95573735363465" lon="14.758294668243268"><ele>176.0</ele><time>2026-03-22T10:27:53.001Z</time></trkpt><trkpt lat="41.955639366961606" lon="14.758064366769972"><ele>176.0</ele><time>2026-03-22T10:27:54.001Z</time></trkpt><trkpt lat="41.955541532673536" lon="14.757829482839702"><ele>176.0</ele><time>2026-03-22T10:27:55.001Z</time></trkpt><trkpt lat="41.955442369173575" lon="14.757588307317373"><ele>176.0</ele><time>2026-03-22T10:27:56.001Z</time></trkpt><trkpt lat="41.955340213916365" lon="14.757348743047283"><ele>175.66666666666666</ele><time>2026-03-22T10:27:57.001Z</time></trkpt><trkpt lat="41.955241342808435" lon="14.757121125395617"><ele>175.33333333333334</ele><time>2026-03-22T10:27:58.001Z</time></trkpt><trkpt lat="41.95515161403226" lon="14.756915139789118"><ele>175.0</ele><time>2026-03-22T10:27:59Z</time></trkpt><trkpt lat="41.95506823398233" lon="14.756718680580418"><ele>175.75</ele><time>2026-03-22T10:28:00Z</time></trkpt><trkpt lat="41.95499491073056" lon="14.75653277580774"><ele>176.5</ele><time>2026-03-22T10:28:01Z</time></trkpt><trkpt lat="41.95492521551187" lon="14.756361309875198"><ele>177.25</ele><time>2026-03-22T10:28:02Z</time></trkpt><trkpt lat="41.954856469711025" lon="14.75621406512283"><ele>178.0</ele><time>2026-03-22T10:28:03Z</time></trkpt><trkpt lat="41.95477275246036" lon="14.756088856529203"><ele>179.75</ele><time>2026-03-22T10:28:04Z</time></trkpt><trkpt lat="41.9546649789565" lon="14.7559849416946"><ele>181.5</ele><time>2026-03-22T10:28:05Z</time></trkpt><trkpt lat="41.95454090809509" lon="14.755906223572367"><ele>183.25</ele><time>2026-03-22T10:28:06Z</time></trkpt><trkpt lat="41.95440924869418" lon="14.755851592069847"><ele>185.0</ele><time>2026-03-22T10:28:07Z</time></trkpt><trkpt lat="41.95428311498849" lon="14.75581497878624"><ele>184.5</ele><time>2026-03-22T10:28:08Z</time></trkpt><trkpt lat="41.9541894260493" lon="14.755752657447708"><ele>184.0</ele><time>2026-03-22T10:28:09Z</time></trkpt><trkpt lat="41.95411524829701" lon="14.755719231874227"><ele>183.5</ele><time>2026-03-22T10:28:10Z</time></trkpt><trkpt lat="41.95407300217251" lon="14.755643507570987"><ele>183.0</ele><time>2026-03-22T10:28:11Z</time></trkpt><trkpt lat="41.95406347595704" lon="14.755552435833131"><ele>182.5</ele><time>2026-03-22T10:28:12Z</time></trkpt><trkpt lat="41.95407172013368" lon="14.755453054089102"><ele>182.0</ele><time>2026-03-22T10:28:13Z</time></trkpt><trkpt lat="41.95413820062669" lon="14.755365146429062"><ele>182.75</ele><time>2026-03-22T10:28:14Z</time></trkpt><trkpt lat="41.954250330828074" lon="14.75535208409126"><ele>183.5</ele><time>2026-03-22T10:28:15Z</time></trkpt><trkpt lat="41.95435901915759" lon="14.755341954212371"><ele>184.25</ele><time>2026-03-22T10:28:16Z</time></trkpt><trkpt lat="41.9544749851304" lon="14.755323244728677"><ele>185.0</ele><time>2026-03-22T10:28:17Z</time></trkpt><trkpt lat="41.954600128072855" lon="14.755281784639376"><ele>185.0</ele><time>2026-03-22T10:28:18Z</time></trkpt><trkpt lat="41.95473069234308" lon="14.755252420307835"><ele>185.0</ele><time>2026-03-22T10:28:19Z</time></trkpt><trkpt lat="41.95484733689681" lon="14.755247196251352"><ele>185.0</ele><time>2026-03-22T10:28:20Z</time></trkpt><trkpt lat="41.954949721060565" lon="14.75528650256086"><ele>185.0</ele><time>2026-03-22T10:28:21Z</time></trkpt><trkpt lat="41.955026652607856" lon="14.755389082115975"><ele>184.16666666666666</ele><time>2026-03-22T10:28:22Z</time></trkpt><trkpt lat="41.95511485436414" lon="14.755433778579283"><ele>183.33333333333331</ele><time>2026-03-22T10:28:23Z</time></trkpt><trkpt lat="41.955189375252324" lon="14.755487193486031"><ele>182.5</ele><time>2026-03-22T10:28:24Z</time></trkpt><trkpt lat="41.955270068387534" lon="14.755499294192443"><ele>181.66666666666666</ele><time>2026-03-22T10:28:25Z</time></trkpt><trkpt lat="41.95533649295432" lon="14.755444921679148"><ele>180.83333333333334</ele><time>2026-03-22T10:28:26Z</time></trkpt><trkpt lat="41.9553871896325" lon="14.755346597222637"><ele>180.0</ele><time>2026-03-22T10:28:27Z</time></trkpt><trkpt lat="41.955394708852495" lon="14.75523123366821"><ele>180.2</ele><time>2026-03-22T10:28:28Z</time></trkpt><trkpt lat="41.95536343631154" lon="14.75512464102414"><ele>180.4</ele><time>2026-03-22T10:28:29Z</time></trkpt><trkpt lat="41.95529813328246" lon="14.755035339519928"><ele>180.60000000000002</ele><time>2026-03-22T10:28:30Z</time></trkpt><trkpt lat="41.95520244436127" lon="14.754966229644118"><ele>180.8</ele><time>2026-03-22T10:28:31Z</time></trkpt><trkpt lat="41.95508736618996" lon="14.754898182385944"><ele>181.0</ele><time>2026-03-22T10:28:32Z</time></trkpt><trkpt lat="41.9549422786136" lon="14.754829366363115"><ele>183.0</ele><time>2026-03-22T10:28:33Z</time></trkpt><trkpt lat="41.9548052192402" lon="14.754765794001129"><ele>185.0</ele><time>2026-03-22T10:28:34Z</time></trkpt><trkpt lat="41.95465870439708" lon="14.754726900196115"><ele>187.0</ele><time>2026-03-22T10:28:35Z</time></trkpt><trkpt lat="41.954527997227096" lon="14.754695803503616"><ele>189.0</ele><time>2026-03-22T10:28:36Z</time></trkpt><trkpt lat="41.95437417805546" lon="14.754660729357756"><ele>189.0</ele><time>2026-03-22T10:28:37Z</time></trkpt><trkpt lat="41.954218299594835" lon="14.754631646978977"><ele>189.0</ele><time>2026-03-22T10:28:38Z</time></trkpt><trkpt lat="41.954062372036" lon="14.754599630064273"><ele>189.0</ele><time>2026-03-22T10:28:39Z</time></trkpt><trkpt lat="41.953929216122134" lon="14.75453857602002"><ele>189.66666666666666</ele><time>2026-03-22T10:28:40Z</time></trkpt><trkpt lat="41.95379977804741" lon="14.75444657877777"><ele>190.33333333333331</ele><time>2026-03-22T10:28:41Z</time></trkpt><trkpt lat="41.95367671157556" lon="14.754312861194599"><ele>191.0</ele><time>2026-03-22T10:28:42Z</time></trkpt><trkpt lat="41.95355015551324" lon="14.754176966177738"><ele>193.0</ele><time>2026-03-22T10:28:43Z</time></trkpt><trkpt lat="41.95341742566555" lon="14.754050957187697"><ele>195.0</ele><time>2026-03-22T10:28:44Z</time></trkpt><trkpt lat="41.95327871061674" lon="14.75395554991062"><ele>197.0</ele><time>2026-03-22T10:28:45Z</time></trkpt><trkpt lat="41.95312586764379" lon="14.753897946187765"><ele>197.66666666666669</ele><time>2026-03-22T10:28:46Z</time></trkpt><trkpt lat="41.95295899242894" lon="14.753882116537014"><ele>198.33333333333331</ele><time>2026-03-22T10:28:47Z</time></trkpt><trkpt lat="41.952788962764224" lon="14.753877858670032"><ele>199.0</ele><time>2026-03-22T10:28:48Z</time></trkpt><trkpt lat="41.95262196688306" lon="14.753827403469485"><ele>201.33333333333331</ele><time>2026-03-22T10:28:49Z</time></trkpt><trkpt lat="41.952456498788536" lon="14.75374607757762"><ele>203.66666666666669</ele><time>2026-03-22T10:28:50Z</time></trkpt><trkpt lat="41.952302288989536" lon="14.753677923250578"><ele>206.0</ele><time>2026-03-22T10:28:51Z</time></trkpt><trkpt lat="41.952160531669925" lon="14.753630193044502"><ele>206.0</ele><time>2026-03-22T10:28:52Z</time></trkpt><trkpt lat="41.95203765874162" lon="14.753622553803329"><ele>206.0</ele><time>2026-03-22T10:28:53Z</time></trkpt><trkpt lat="41.95193201925861" lon="14.753607271377293"><ele>206.0</ele><time>2026-03-22T10:28:54Z</time></trkpt><trkpt lat="41.951836537213794" lon="14.753588941889412"><ele>206.0</ele><time>2026-03-22T10:28:55Z</time></trkpt><trkpt lat="41.95175069740244" lon="14.753576673865377"><ele>206.0</ele><time>2026-03-22T10:28:56Z</time></trkpt><trkpt lat="41.951689378746735" lon="14.75350694362949"><ele>208.16666666666669</ele><time>2026-03-22T10:28:57Z</time></trkpt><trkpt lat="41.95166944956452" lon="14.75342167088609"><ele>210.33333333333334</ele><time>2026-03-22T10:28:58Z</time></trkpt><trkpt lat="41.95167038349813" lon="14.753334412580607"><ele>212.5</ele><time>2026-03-22T10:28:59Z</time></trkpt><trkpt lat="41.951725010970186" lon="14.75323488702543"><ele>214.66666666666669</ele><time>2026-03-22T10:29:00Z</time></trkpt><trkpt lat="41.95182438920723" lon="14.753206196616267"><ele>216.83333333333334</ele><time>2026-03-22T10:29:01Z</time></trkpt><trkpt lat="41.951914519613034" lon="14.753262970496815"><ele>219.0</ele><time>2026-03-22T10:29:02Z</time></trkpt><trkpt lat="41.95201717714717" lon="14.75332216612361"><ele>219.75</ele><time>2026-03-22T10:29:03Z</time></trkpt><trkpt lat="41.95213313046908" lon="14.753386136631404"><ele>220.5</ele><time>2026-03-22T10:29:04Z</time></trkpt><trkpt lat="41.95226463516028" lon="14.753458205610771"><ele>221.25</ele><time>2026-03-22T10:29:05Z</time></trkpt><trkpt lat="41.9524009127631" lon="14.75352917734477"><ele>222.0</ele><time>2026-03-22T10:29:06Z</time></trkpt><trkpt lat="41.952534486993734" lon="14.753567709166331"><ele>216.25</ele><time>2026-03-22T10:29:07Z</time></trkpt><trkpt lat="41.95267682401403" lon="14.753593757561175"><ele>210.5</ele><time>2026-03-22T10:29:08Z</time></trkpt><trkpt lat="41.95282214499742" lon="14.753574469497076"><ele>204.75</ele><time>2026-03-22T10:29:09Z</time></trkpt><trkpt lat="41.9529658232304" lon="14.753553738349334"><ele>199.0</ele><time>2026-03-22T10:29:10Z</time></trkpt><trkpt lat="41.9530896481566" lon="14.753544635236288"><ele>198.39999999999998</ele><time>2026-03-22T10:29:11Z</time></trkpt><trkpt lat="41.95320340386043" lon="14.753531209917465"><ele>197.8</ele><time>2026-03-22T10:29:12Z</time></trkpt><trkpt lat="41.95328887443301" lon="14.753452922155521"><ele>197.2</ele><time>2026-03-22T10:29:13Z</time></trkpt><trkpt lat="41.95336239615432" lon="14.753376175922833"><ele>196.60000000000002</ele><time>2026-03-22T10:29:14Z</time></trkpt><trkpt lat="41.95337373965994" lon="14.753232272176135"><ele>196.0</ele><time>2026-03-22T10:29:15Z</time></trkpt><trkpt lat="41.95336016426815" lon="14.753100457167141"><ele>199.4</ele><time>2026-03-22T10:29:16Z</time></trkpt><trkpt lat="41.953353072365516" lon="14.75295491344307"><ele>202.8</ele><time>2026-03-22T10:29:17Z</time></trkpt><trkpt lat="41.953330843118806" lon="14.752832954984704"><ele>206.20000000000002</ele><time>2026-03-22T10:29:18Z</time></trkpt><trkpt lat="41.95329875379179" lon="14.752711381199013"><ele>209.60000000000002</ele><time>2026-03-22T10:29:19Z</time></trkpt><trkpt lat="41.95319485411044" lon="14.75261766367803"><ele>213.0</ele><time>2026-03-22T10:29:20Z</time></trkpt><trkpt lat="41.95307538900402" lon="14.752509301948152"><ele>213.33333333333331</ele><time>2026-03-22T10:29:21Z</time></trkpt><trkpt lat="41.952950420243454" lon="14.752357493364046"><ele>213.66666666666666</ele><time>2026-03-22T10:29:22Z</time></trkpt><trkpt lat="41.95284670722042" lon="14.75220123197862"><ele>214.0</ele><time>2026-03-22T10:29:23Z</time></trkpt><trkpt lat="41.95276579146784" lon="14.752044479802034"><ele>214.0</ele><time>2026-03-22T10:29:24Z</time></trkpt><trkpt lat="41.95271492007861" lon="14.75188912471308"><ele>214.0</ele><time>2026-03-22T10:29:25Z</time></trkpt><trkpt lat="41.95269111676522" lon="14.751726399713856"><ele>214.0</ele><time>2026-03-22T10:29:26Z</time></trkpt><trkpt lat="41.9526915832502" lon="14.751548486068053"><ele>214.0</ele><time>2026-03-22T10:29:27Z</time></trkpt><trkpt lat="41.95266263707345" lon="14.751366109234443"><ele>214.0</ele><time>2026-03-22T10:29:28Z</time></trkpt><trkpt lat="41.952614898552746" lon="14.751173765995752"><ele>214.0</ele><time>2026-03-22T10:29:29Z</time></trkpt><trkpt lat="41.95256006032267" lon="14.750981753832379"><ele>214.0</ele><time>2026-03-22T10:29:30Z</time></trkpt><trkpt lat="41.95250200772856" lon="14.750786765001576"><ele>218.0</ele><time>2026-03-22T10:29:31Z</time></trkpt><trkpt lat="41.95246590502906" lon="14.750609363001136"><ele>222.0</ele><time>2026-03-22T10:29:32Z</time></trkpt><trkpt lat="41.95240291043617" lon="14.750472816047212"><ele>226.0</ele><time>2026-03-22T10:29:33Z</time></trkpt><trkpt lat="41.95232311517898" lon="14.750359116149301"><ele>230.0</ele><time>2026-03-22T10:29:34Z</time></trkpt><trkpt lat="41.952211255268466" lon="14.750265735747194"><ele>229.0</ele><time>2026-03-22T10:29:35Z</time></trkpt><trkpt lat="41.95208334096646" lon="14.750179349527178"><ele>228.0</ele><time>2026-03-22T10:29:36Z</time></trkpt><trkpt lat="41.95194872287797" lon="14.750077079597961"><ele>227.0</ele><time>2026-03-22T10:29:37Z</time></trkpt><trkpt lat="41.9518381942348" lon="14.749953798532253"><ele>226.0</ele><time>2026-03-22T10:29:38Z</time></trkpt><trkpt lat="41.9517507886021" lon="14.749807587333008"><ele>229.25</ele><time>2026-03-22T10:29:39Z</time></trkpt><trkpt lat="41.951681998309766" lon="14.74964298681694"><ele>232.5</ele><time>2026-03-22T10:29:40Z</time></trkpt><trkpt lat="41.95164045376564" lon="14.749469556001547"><ele>235.75</ele><time>2026-03-22T10:29:41Z</time></trkpt><trkpt lat="41.951629065869554" lon="14.7492769183605"><ele>239.0</ele><time>2026-03-22T10:29:42Z</time></trkpt><trkpt lat="41.95164271587768" lon="14.74905683823848"><ele>239.0</ele><time>2026-03-22T10:29:43Z</time></trkpt><trkpt lat="41.95165181735317" lon="14.748815966516153"><ele>239.0</ele><time>2026-03-22T10:29:44Z</time></trkpt><trkpt lat="41.95165592643748" lon="14.748556081153838"><ele>239.0</ele><time>2026-03-22T10:29:45Z</time></trkpt><trkpt lat="41.951665437611645" lon="14.748285968504419"><ele>240.33333333333334</ele><time>2026-03-22T10:29:46Z</time></trkpt><trkpt lat="41.9516682499219" lon="14.748016719587142"><ele>241.66666666666669</ele><time>2026-03-22T10:29:47Z</time></trkpt><trkpt lat="41.951660835876645" lon="14.747779708879529"><ele>243.0</ele><time>2026-03-22T10:29:48Z</time></trkpt><trkpt lat="41.95166783586847" lon="14.747593522461983"><ele>242.75</ele><time>2026-03-22T10:29:49Z</time></trkpt><trkpt lat="41.951696844778205" lon="14.747445649037951"><ele>242.5</ele><time>2026-03-22T10:29:50Z</time></trkpt><trkpt lat="41.951760566751474" lon="14.747309910753605"><ele>242.25</ele><time>2026-03-22T10:29:51Z</time></trkpt><trkpt lat="41.95185737486803" lon="14.747163864865277"><ele>242.0</ele><time>2026-03-22T10:29:52Z</time></trkpt><trkpt lat="41.95194718893293" lon="14.74696192995556"><ele>244.0</ele><time>2026-03-22T10:29:53Z</time></trkpt><trkpt lat="41.952059264028364" lon="14.746734327867802"><ele>246.0</ele><time>2026-03-22T10:29:54Z</time></trkpt><trkpt lat="41.95218744388737" lon="14.74650565803761"><ele>248.0</ele><time>2026-03-22T10:29:55Z</time></trkpt><trkpt lat="41.95228534989764" lon="14.746261440279829"><ele>250.0</ele><time>2026-03-22T10:29:56Z</time></trkpt><trkpt lat="41.95239511270971" lon="14.746026414606357"><ele>252.0</ele><time>2026-03-22T10:29:57Z</time></trkpt><trkpt lat="41.952526069836445" lon="14.745800249897995"><ele>254.0</ele><time>2026-03-22T10:29:58Z</time></trkpt><trkpt lat="41.95264817943033" lon="14.745567703405953"><ele>254.0</ele><time>2026-03-22T10:29:59Z</time></trkpt><trkpt lat="41.95276938432209" lon="14.745358227518148"><ele>254.0</ele><time>2026-03-22T10:30:00Z</time></trkpt><trkpt lat="41.95285674110891" lon="14.74513247588066"><ele>254.0</ele><time>2026-03-22T10:30:01Z</time></trkpt><trkpt lat="41.95294287838988" lon="14.744914397254666"><ele>254.0</ele><time>2026-03-22T10:30:02Z</time></trkpt><trkpt lat="41.95306109022477" lon="14.744720018857036"><ele>254.0</ele><time>2026-03-22T10:30:03Z</time></trkpt><trkpt lat="41.95318089279318" lon="14.744533868828789"><ele>254.0</ele><time>2026-03-22T10:30:04Z</time></trkpt><trkpt lat="41.95328739088475" lon="14.744329084910808"><ele>254.66666666666669</ele><time>2026-03-22T10:30:05Z</time></trkpt><trkpt lat="41.95339806417687" lon="14.744153817770886"><ele>255.33333333333331</ele><time>2026-03-22T10:30:06Z</time></trkpt><trkpt lat="41.9534996417145" lon="14.743996535284701"><ele>256.0</ele><time>2026-03-22T10:30:07Z</time></trkpt><trkpt lat="41.95359713974989" lon="14.743881258510957"><ele>256.0</ele><time>2026-03-22T10:30:08Z</time></trkpt><trkpt lat="41.95371946306563" lon="14.743827006106399"><ele>256.0</ele><time>2026-03-22T10:30:09Z</time></trkpt><trkpt lat="41.95386414240862" lon="14.743790304653372"><ele>256.0</ele><time>2026-03-22T10:30:10Z</time></trkpt><trkpt lat="41.95402086574" lon="14.74373616773393"><ele>256.0</ele><time>2026-03-22T10:30:11Z</time></trkpt><trkpt lat="41.95418847258429" lon="14.743704382412247"><ele>255.33333333333331</ele><time>2026-03-22T10:30:12Z</time></trkpt><trkpt lat="41.95435684696561" lon="14.743663261601384"><ele>254.66666666666669</ele><time>2026-03-22T10:30:13Z</time></trkpt><trkpt lat="41.95452659361242" lon="14.743623401645946"><ele>254.0</ele><time>2026-03-22T10:30:14Z</time></trkpt><trkpt lat="41.954662801942135" lon="14.743578547997235"><ele>256.5</ele><time>2026-03-22T10:30:15Z</time></trkpt><trkpt lat="41.9547601943063" lon="14.743485837727734"><ele>259.0</ele><time>2026-03-22T10:30:16Z</time></trkpt><trkpt lat="41.954846199365406" lon="14.743389367831194"><ele>261.5</ele><time>2026-03-22T10:30:17Z</time></trkpt><trkpt lat="41.95488950327856" lon="14.74325209497193"><ele>264.0</ele><time>2026-03-22T10:30:18Z</time></trkpt><trkpt lat="41.95490724229598" lon="14.743108444909316"><ele>264.0</ele><time>2026-03-22T10:30:19Z</time></trkpt><trkpt lat="41.954914516916475" lon="14.742933209752751"><ele>264.0</ele><time>2026-03-22T10:30:20Z</time></trkpt><trkpt lat="41.95491099869793" lon="14.74275291407139"><ele>264.0</ele><time>2026-03-22T10:30:21Z</time></trkpt><trkpt lat="41.954912400552544" lon="14.742572594736883"><ele>264.0</ele><time>2026-03-22T10:30:22Z</time></trkpt><trkpt lat="41.95493960162087" lon="14.742411127748639"><ele>265.5</ele><time>2026-03-22T10:30:23Z</time></trkpt><trkpt lat="41.95503272482769" lon="14.742284995348097"><ele>267.0</ele><time>2026-03-22T10:30:24Z</time></trkpt><trkpt lat="41.95515339173555" lon="14.742227821830989"><ele>268.5</ele><time>2026-03-22T10:30:25Z</time></trkpt><trkpt lat="41.95526587651463" lon="14.742137424817493"><ele>270.0</ele><time>2026-03-22T10:30:26Z</time></trkpt><trkpt lat="41.9553852843718" lon="14.742065987676343"><ele>269.25</ele><time>2026-03-22T10:30:27Z</time></trkpt><trkpt lat="41.955451681851095" lon="14.741912376415671"><ele>268.5</ele><time>2026-03-22T10:30:28Z</time></trkpt><trkpt lat="41.955511993742135" lon="14.741747470295252"><ele>267.75</ele><time>2026-03-22T10:30:29Z</time></trkpt><trkpt lat="41.955564614349946" lon="14.74156105386437"><ele>267.0</ele><time>2026-03-22T10:30:30Z</time></trkpt><trkpt lat="41.955613594262154" lon="14.74138427495698"><ele>267.0</ele><time>2026-03-22T10:30:31Z</time></trkpt><trkpt lat="41.95563427088412" lon="14.741237663625602"><ele>267.0</ele><time>2026-03-22T10:30:32Z</time></trkpt><trkpt lat="41.95562630270796" lon="14.741115425959114"><ele>267.0</ele><time>2026-03-22T10:30:33Z</time></trkpt><trkpt lat="41.95558928985464" lon="14.74098109127258"><ele>267.0</ele><time>2026-03-22T10:30:34Z</time></trkpt><trkpt lat="41.955491161657235" lon="14.740835634036507"><ele>266.3333333333333</ele><time>2026-03-22T10:30:35Z</time></trkpt><trkpt lat="41.95538595882976" lon="14.740654657039329"><ele>265.66666666666663</ele><time>2026-03-22T10:30:36Z</time></trkpt><trkpt lat="41.955272711139514" lon="14.74050822051838"><ele>265.0</ele><time>2026-03-22T10:30:37Z</time></trkpt><trkpt lat="41.95517690315893" lon="14.740387283665363"><ele>265.0</ele><time>2026-03-22T10:30:38Z</time></trkpt><trkpt lat="41.95506892257063" lon="14.740309548598422"><ele>265.0</ele><time>2026-03-22T10:30:39Z</time></trkpt><trkpt lat="41.954922033983166" lon="14.740247533069075"><ele>265.0</ele><time>2026-03-22T10:30:40Z</time></trkpt><trkpt lat="41.95475008851356" lon="14.740219073281061"><ele>267.66666666666663</ele><time>2026-03-22T10:30:41Z</time></trkpt><trkpt lat="41.954573265948845" lon="14.740180668497759"><ele>270.3333333333333</ele><time>2026-03-22T10:30:42Z</time></trkpt><trkpt lat="41.954398063209815" lon="14.740127597234064"><ele>273.0</ele><time>2026-03-22T10:30:43Z</time></trkpt><trkpt lat="41.954233749594295" lon="14.740090372863968"><ele>276.0</ele><time>2026-03-22T10:30:44Z</time></trkpt><trkpt lat="41.95409285152917" lon="14.740079571649893"><ele>279.0</ele><time>2026-03-22T10:30:45Z</time></trkpt><trkpt lat="41.953958339144464" lon="14.74007556046395"><ele>282.0</ele><time>2026-03-22T10:30:46Z</time></trkpt><trkpt lat="41.95382613410609" lon="14.740095513858789"><ele>285.0</ele><time>2026-03-22T10:30:47Z</time></trkpt><trkpt lat="41.9537129665848" lon="14.740096842868194"><ele>285.0</ele><time>2026-03-22T10:30:48Z</time></trkpt><trkpt lat="41.95361470771867" lon="14.740085954880918"><ele>285.0</ele><time>2026-03-22T10:30:49Z</time></trkpt><trkpt lat="41.95354145970629" lon="14.739991087193944"><ele>285.0</ele><time>2026-03-22T10:30:50Z</time></trkpt><trkpt lat="41.95347613589239" lon="14.73985571175839"><ele>285.0</ele><time>2026-03-22T10:30:51Z</time></trkpt><trkpt lat="41.95342820624579" lon="14.739688334263082"><ele>285.0</ele><time>2026-03-22T10:30:52Z</time></trkpt><trkpt lat="41.953375425881426" lon="14.739497249585474"><ele>285.0</ele><time>2026-03-22T10:30:53Z</time></trkpt><trkpt lat="41.953309512725056" lon="14.739303825060286"><ele>285.0</ele><time>2026-03-22T10:30:54Z</time></trkpt><trkpt lat="41.95323746803274" lon="14.739100461374216"><ele>286.5</ele><time>2026-03-22T10:30:55Z</time></trkpt><trkpt lat="41.9531663214567" lon="14.738900362346913"><ele>288.0</ele><time>2026-03-22T10:30:56Z</time></trkpt><trkpt lat="41.95310022981107" lon="14.738727399875982"><ele>289.5</ele><time>2026-03-22T10:30:57Z</time></trkpt><trkpt lat="41.95301644756073" lon="14.738583194685758"><ele>291.0</ele><time>2026-03-22T10:30:58Z</time></trkpt><trkpt lat="41.95291289621865" lon="14.738458871913414"><ele>291.5</ele><time>2026-03-22T10:30:59Z</time></trkpt><trkpt lat="41.95278768343549" lon="14.738364348145103"><ele>292.0</ele><time>2026-03-22T10:31:00Z</time></trkpt><trkpt lat="41.95264912296704" lon="14.73828470451357"><ele>292.5</ele><time>2026-03-22T10:31:01Z</time></trkpt><trkpt lat="41.95252987765889" lon="14.738182793596597"><ele>293.0</ele><time>2026-03-22T10:31:02Z</time></trkpt><trkpt lat="41.95244118541206" lon="14.738033355072343"><ele>295.0</ele><time>2026-03-22T10:31:03Z</time></trkpt><trkpt lat="41.95237162648113" lon="14.737847237614902"><ele>297.0</ele><time>2026-03-22T10:31:04Z</time></trkpt><trkpt lat="41.95233214079527" lon="14.737623928851708"><ele>299.0</ele><time>2026-03-22T10:31:05Z</time></trkpt><trkpt lat="41.952316401670075" lon="14.737405054805333"><ele>299.0</ele><time>2026-03-22T10:31:06Z</time></trkpt><trkpt lat="41.95230156946858" lon="14.737215756610055"><ele>299.0</ele><time>2026-03-22T10:31:07Z</time></trkpt><trkpt lat="41.95227267078684" lon="14.737060221618803"><ele>299.0</ele><time>2026-03-22T10:31:08Z</time></trkpt><trkpt lat="41.952221606790005" lon="14.736897744173707"><ele>299.0</ele><time>2026-03-22T10:31:09Z</time></trkpt><trkpt lat="41.95213245565489" lon="14.736744397325689"><ele>298.0</ele><time>2026-03-22T10:31:10Z</time></trkpt><trkpt lat="41.9520622732385" lon="14.7365626481865"><ele>297.0</ele><time>2026-03-22T10:31:11Z</time></trkpt><trkpt lat="41.95201712447488" lon="14.736362063061376"><ele>296.0</ele><time>2026-03-22T10:31:12Z</time></trkpt><trkpt lat="41.95198357619656" lon="14.73614180776858"><ele>295.33333333333337</ele><time>2026-03-22T10:31:13Z</time></trkpt><trkpt lat="41.95194975785084" lon="14.735922114015077"><ele>294.6666666666667</ele><time>2026-03-22T10:31:14Z</time></trkpt><trkpt lat="41.95190482355323" lon="14.735709186669503"><ele>294.0</ele><time>2026-03-22T10:31:15Z</time></trkpt><trkpt lat="41.95183042341929" lon="14.735510222030522"><ele>294.0</ele><time>2026-03-22T10:31:16Z</time></trkpt><trkpt lat="41.951745517815056" lon="14.735300858450868"><ele>294.0</ele><time>2026-03-22T10:31:17Z</time></trkpt><trkpt lat="41.95165466796401" lon="14.735104772724755"><ele>294.0</ele><time>2026-03-22T10:31:18Z</time></trkpt><trkpt lat="41.95159691243362" lon="14.734917680507452"><ele>300.6666666666667</ele><time>2026-03-22T10:31:19Z</time></trkpt><trkpt lat="41.95157393751023" lon="14.73472213625961"><ele>307.33333333333337</ele><time>2026-03-22T10:31:20Z</time></trkpt><trkpt lat="41.95157711385612" lon="14.734503594409933"><ele>314.0</ele><time>2026-03-22T10:31:21Z</time></trkpt><trkpt lat="41.951564709965176" lon="14.734261531845727"><ele>314.0</ele><time>2026-03-22T10:31:22Z</time></trkpt><trkpt lat="41.95156454285525" lon="14.734034219799367"><ele>314.0</ele><time>2026-03-22T10:31:23Z</time></trkpt><trkpt lat="41.95155976471889" lon="14.733851783906148"><ele>314.0</ele><time>2026-03-22T10:31:24Z</time></trkpt><trkpt lat="41.95153820418481" lon="14.733700517751972"><ele>314.0</ele><time>2026-03-22T10:31:25Z</time></trkpt><trkpt lat="41.951492223295325" lon="14.733560201876417"><ele>313.0</ele><time>2026-03-22T10:31:26Z</time></trkpt><trkpt lat="41.951410299802255" lon="14.733430936868722"><ele>312.0</ele><time>2026-03-22T10:31:27Z</time></trkpt><trkpt lat="41.9513011430829" lon="14.733293236142693"><ele>311.0</ele><time>2026-03-22T10:31:28Z</time></trkpt><trkpt lat="41.951155429569305" lon="14.733164726768711"><ele>311.0</ele><time>2026-03-22T10:31:29Z</time></trkpt><trkpt lat="41.951009698724945" lon="14.733014296986857"><ele>311.0</ele><time>2026-03-22T10:31:30Z</time></trkpt><trkpt lat="41.95086390168563" lon="14.732854372666022"><ele>311.0</ele><time>2026-03-22T10:31:31Z</time></trkpt><trkpt lat="41.95073260706755" lon="14.732710798790272"><ele>313.25</ele><time>2026-03-22T10:31:32Z</time></trkpt><trkpt lat="41.95061540467768" lon="14.732587536953105"><ele>315.5</ele><time>2026-03-22T10:31:33Z</time></trkpt><trkpt lat="41.950512196116264" lon="14.732492731642227"><ele>317.75</ele><time>2026-03-22T10:31:34Z</time></trkpt><trkpt lat="41.95040023306541" lon="14.732425990652441"><ele>320.0</ele><time>2026-03-22T10:31:35Z</time></trkpt><trkpt lat="41.95028096661844" lon="14.732395113294812"><ele>320.0</ele><time>2026-03-22T10:31:36Z</time></trkpt><trkpt lat="41.95016060809944" lon="14.732396558939406"><ele>320.0</ele><time>2026-03-22T10:31:37Z</time></trkpt><trkpt lat="41.95005153383169" lon="14.732456869219359"><ele>320.0</ele><time>2026-03-22T10:31:38Z</time></trkpt><trkpt lat="41.94993878042855" lon="14.732540156063722"><ele>320.0</ele><time>2026-03-22T10:31:39Z</time></trkpt><trkpt lat="41.949846637068994" lon="14.73270104394708"><ele>325.0</ele><time>2026-03-22T10:31:40Z</time></trkpt><trkpt lat="41.949756281260264" lon="14.732880240541398"><ele>330.0</ele><time>2026-03-22T10:31:41Z</time></trkpt><trkpt lat="41.94966003574863" lon="14.733068510528785"><ele>335.0</ele><time>2026-03-22T10:31:42Z</time></trkpt><trkpt lat="41.94954575313919" lon="14.733257248105424"><ele>335.0</ele><time>2026-03-22T10:31:43Z</time></trkpt><trkpt lat="41.949410648140685" lon="14.733439294874888"><ele>335.0</ele><time>2026-03-22T10:31:44Z</time></trkpt><trkpt lat="41.94926304637392" lon="14.733621149545746"><ele>335.0</ele><time>2026-03-22T10:31:45Z</time></trkpt><trkpt lat="41.94911890680246" lon="14.733805222663257"><ele>337.5</ele><time>2026-03-22T10:31:46Z</time></trkpt><trkpt lat="41.9489936883611" lon="14.733970895106365"><ele>340.0</ele><time>2026-03-22T10:31:47Z</time></trkpt><trkpt lat="41.94888830016758" lon="14.73409982350861"><ele>342.5</ele><time>2026-03-22T10:31:48Z</time></trkpt><trkpt lat="41.94877662879065" lon="14.734179423608444"><ele>345.0</ele><time>2026-03-22T10:31:49Z</time></trkpt><trkpt lat="41.94864768506957" lon="14.734277640658133"><ele>345.0</ele><time>2026-03-22T10:31:50Z</time></trkpt><trkpt lat="41.94848379236859" lon="14.73430174104523"><ele>345.0</ele><time>2026-03-22T10:31:51Z</time></trkpt><trkpt lat="41.94833285858906" lon="14.734374028101351"><ele>345.0</ele><time>2026-03-22T10:31:52Z</time></trkpt><trkpt lat="41.948185901978306" lon="14.734494733570328"><ele>347.3333333333333</ele><time>2026-03-22T10:31:53Z</time></trkpt><trkpt lat="41.94801380894644" lon="14.734591607582292"><ele>349.66666666666663</ele><time>2026-03-22T10:31:54Z</time></trkpt><trkpt lat="41.947848801639935" lon="14.73471731477116"><ele>352.0</ele><time>2026-03-22T10:31:55Z</time></trkpt><trkpt lat="41.94769210051162" lon="14.734834723005445"><ele>353.66666666666663</ele><time>2026-03-22T10:31:56Z</time></trkpt><trkpt lat="41.94754058823027" lon="14.73495500450993"><ele>355.3333333333333</ele><time>2026-03-22T10:31:57Z</time></trkpt><trkpt lat="41.9473928163965" lon="14.735094791183316"><ele>357.0</ele><time>2026-03-22T10:31:58Z</time></trkpt><trkpt lat="41.947266263663245" lon="14.735252830517535"><ele>357.0</ele><time>2026-03-22T10:31:59Z</time></trkpt><trkpt lat="41.94714670152754" lon="14.73539550430197"><ele>357.0</ele><time>2026-03-22T10:32:00Z</time></trkpt><trkpt lat="41.94702169448116" lon="14.735517159757082"><ele>357.0</ele><time>2026-03-22T10:32:01Z</time></trkpt><trkpt lat="41.946883865654634" lon="14.735606180872708"><ele>357.0</ele><time>2026-03-22T10:32:02Z</time></trkpt><trkpt lat="41.94673067259622" lon="14.735667413974683"><ele>357.0</ele><time>2026-03-22T10:32:03Z</time></trkpt><trkpt lat="41.94656709062854" lon="14.735688269616743"><ele>357.0</ele><time>2026-03-22T10:32:04Z</time></trkpt><trkpt lat="41.94639612879859" lon="14.735684967012448"><ele>356.6666666666667</ele><time>2026-03-22T10:32:05Z</time></trkpt><trkpt lat="41.946224301257274" lon="14.735680414761868"><ele>356.33333333333337</ele><time>2026-03-22T10:32:06Z</time></trkpt><trkpt lat="41.94605310091414" lon="14.735673552155893"><ele>356.0</ele><time>2026-03-22T10:32:07Z</time></trkpt><trkpt lat="41.9458826464744" lon="14.735667793812482"><ele>358.6666666666667</ele><time>2026-03-22T10:32:08Z</time></trkpt><trkpt lat="41.945720612697606" lon="14.73558466489205"><ele>361.3333333333333</ele><time>2026-03-22T10:32:09Z</time></trkpt><trkpt lat="41.94555301177111" lon="14.735524871037027"><ele>364.0</ele><time>2026-03-22T10:32:10Z</time></trkpt><trkpt lat="41.94539491670735" lon="14.735453946483812"><ele>364.0</ele><time>2026-03-22T10:32:11Z</time></trkpt><trkpt lat="41.945267238556305" lon="14.735395277923766"><ele>364.0</ele><time>2026-03-22T10:32:12Z</time></trkpt><trkpt lat="41.94517148428647" lon="14.735325618631558"><ele>364.0</ele><time>2026-03-22T10:32:13Z</time></trkpt><trkpt lat="41.945090974473764" lon="14.735212893206645"><ele>364.0</ele><time>2026-03-22T10:32:14Z</time></trkpt><trkpt lat="41.94503747056423" lon="14.735055697908297"><ele>362.66666666666663</ele><time>2026-03-22T10:32:15Z</time></trkpt><trkpt lat="41.94499338614548" lon="14.734852878056916"><ele>361.3333333333333</ele><time>2026-03-22T10:32:16Z</time></trkpt><trkpt lat="41.94492068895114" lon="14.734664747951218"><ele>360.0</ele><time>2026-03-22T10:32:17Z</time></trkpt><trkpt lat="41.94482108368307" lon="14.734503945638052"><ele>358.0</ele><time>2026-03-22T10:32:18Z</time></trkpt><trkpt lat="41.94470351679612" lon="14.734366976890716"><ele>356.0</ele><time>2026-03-22T10:32:19Z</time></trkpt><trkpt lat="41.944587214251875" lon="14.734267858284305"><ele>354.0</ele><time>2026-03-22T10:32:20Z</time></trkpt><trkpt lat="41.94449071060196" lon="14.734174466682525"><ele>352.0</ele><time>2026-03-22T10:32:21Z</time></trkpt><trkpt lat="41.94443328501616" lon="14.73405969660427"><ele>352.0</ele><time>2026-03-22T10:32:22Z</time></trkpt><trkpt lat="41.94441736474871" lon="14.733903470031388"><ele>352.0</ele><time>2026-03-22T10:32:23Z</time></trkpt><trkpt lat="41.94444258231009" lon="14.733727172764182"><ele>352.0</ele><time>2026-03-22T10:32:24Z</time></trkpt><trkpt lat="41.944459688177126" lon="14.733552875910858"><ele>352.0</ele><time>2026-03-22T10:32:25Z</time></trkpt><trkpt lat="41.94446378757675" lon="14.73338435063679"><ele>350.3333333333333</ele><time>2026-03-22T10:32:26Z</time></trkpt><trkpt lat="41.9444452270695" lon="14.733216733330252"><ele>348.6666666666667</ele><time>2026-03-22T10:32:27Z</time></trkpt><trkpt lat="41.94438623110169" lon="14.733056672323933"><ele>347.0</ele><time>2026-03-22T10:32:28Z</time></trkpt><trkpt lat="41.944207818668204" lon="14.73266486893056"><ele>353.33333333333337</ele><time>2026-03-22T10:32:30Z</time></trkpt><trkpt lat="41.944107091976946" lon="14.732450118176358"><ele>359.6666666666667</ele><time>2026-03-22T10:32:31Z</time></trkpt><trkpt lat="41.94400882467143" lon="14.732232430052228"><ele>366.0</ele><time>2026-03-22T10:32:32Z</time></trkpt><trkpt lat="41.94389089154067" lon="14.732043212143909"><ele>360.0</ele><time>2026-03-22T10:32:33Z</time></trkpt><trkpt lat="41.94376042889819" lon="14.731865450664486"><ele>354.0</ele><time>2026-03-22T10:32:34Z</time></trkpt><trkpt lat="41.9436206854885" lon="14.731705876137553"><ele>348.0</ele><time>2026-03-22T10:32:35Z</time></trkpt><trkpt lat="41.94347685848571" lon="14.73157512877473"><ele>355.6666666666667</ele><time>2026-03-22T10:32:36Z</time></trkpt><trkpt lat="41.94333351420605" lon="14.73146972424576"><ele>363.33333333333337</ele><time>2026-03-22T10:32:37Z</time></trkpt><trkpt lat="41.9431816812013" lon="14.731369784637614"><ele>371.0</ele><time>2026-03-22T10:32:38Z</time></trkpt><trkpt lat="41.94301792925948" lon="14.731261433988982"><ele>371.0</ele><time>2026-03-22T10:32:39Z</time></trkpt><trkpt lat="41.942836258839286" lon="14.731194294470884"><ele>371.0</ele><time>2026-03-22T10:32:40Z</time></trkpt><trkpt lat="41.942657970544715" lon="14.731150475114148"><ele>371.0</ele><time>2026-03-22T10:32:41Z</time></trkpt><trkpt lat="41.94250066735159" lon="14.731060001477342"><ele>371.25</ele><time>2026-03-22T10:32:42Z</time></trkpt><trkpt lat="41.94236126543347" lon="14.730959434643943"><ele>371.5</ele><time>2026-03-22T10:32:43Z</time></trkpt><trkpt lat="41.942235665211165" lon="14.73086355245032"><ele>371.75</ele><time>2026-03-22T10:32:44Z</time></trkpt><trkpt lat="41.94211470817973" lon="14.730776804132041"><ele>372.0</ele><time>2026-03-22T10:32:45Z</time></trkpt><trkpt lat="41.94200513808283" lon="14.730702405022932"><ele>372.0</ele><time>2026-03-22T10:32:46Z</time></trkpt><trkpt lat="41.94191404812785" lon="14.730642062292793"><ele>372.0</ele><time>2026-03-22T10:32:47Z</time></trkpt><trkpt lat="41.94183352999635" lon="14.730581734136676"><ele>372.0</ele><time>2026-03-22T10:32:48Z</time></trkpt><trkpt lat="41.94175687460786" lon="14.730574320170362"><ele>372.0</ele><time>2026-03-22T10:32:49Z</time></trkpt><trkpt lat="41.94172262975418" lon="14.730377182604517"><ele>372.0</ele><time>2026-03-22T10:32:50Z</time></trkpt><trkpt lat="41.941682644206196" lon="14.730233957321214"><ele>372.0</ele><time>2026-03-22T10:32:51Z</time></trkpt><trkpt lat="41.94164104224934" lon="14.730070600114617"><ele>372.0</ele><time>2026-03-22T10:32:52Z</time></trkpt><trkpt lat="41.94158960231288" lon="14.729910441582232"><ele>372.0</ele><time>2026-03-22T10:32:53Z</time></trkpt><trkpt lat="41.94151620159994" lon="14.729751043965543"><ele>372.0</ele><time>2026-03-22T10:32:54Z</time></trkpt><trkpt lat="41.94139110615301" lon="14.729591619912224"><ele>372.0</ele><time>2026-03-22T10:32:55Z</time></trkpt><trkpt lat="41.941237209334524" lon="14.729418447478931"><ele>372.0</ele><time>2026-03-22T10:32:56Z</time></trkpt><trkpt lat="41.94107338443109" lon="14.729227847895036"><ele>372.0</ele><time>2026-03-22T10:32:57Z</time></trkpt><trkpt lat="41.94091560824245" lon="14.729039963524539"><ele>372.6666666666667</ele><time>2026-03-22T10:32:58Z</time></trkpt><trkpt lat="41.9407679122047" lon="14.72885293142436"><ele>373.33333333333337</ele><time>2026-03-22T10:32:59Z</time></trkpt><trkpt lat="41.94061692914726" lon="14.728669958959015"><ele>374.0</ele><time>2026-03-22T10:33:00Z</time></trkpt><trkpt lat="41.94046292676081" lon="14.72849005132203"><ele>372.6666666666667</ele><time>2026-03-22T10:33:01Z</time></trkpt><trkpt lat="41.94031052412435" lon="14.72830422150305"><ele>371.3333333333333</ele><time>2026-03-22T10:33:02Z</time></trkpt><trkpt lat="41.94016457228417" lon="14.728121430003446"><ele>370.0</ele><time>2026-03-22T10:33:03Z</time></trkpt><trkpt lat="41.940039129047996" lon="14.727968937819952"><ele>370.0</ele><time>2026-03-22T10:33:04Z</time></trkpt><trkpt lat="41.939925639309536" lon="14.727834750233304"><ele>370.0</ele><time>2026-03-22T10:33:05Z</time></trkpt><trkpt lat="41.93983057904717" lon="14.727711971198712"><ele>370.0</ele><time>2026-03-22T10:33:06Z</time></trkpt><trkpt lat="41.93975324356059" lon="14.72761075083137"><ele>370.0</ele><time>2026-03-22T10:33:07Z</time></trkpt><trkpt lat="41.93969010115864" lon="14.727520492008043"><ele>371.4</ele><time>2026-03-22T10:33:08Z</time></trkpt><trkpt lat="41.93966407361763" lon="14.727419538528645"><ele>372.8</ele><time>2026-03-22T10:33:09Z</time></trkpt><trkpt lat="41.939674888945206" lon="14.72728527020171"><ele>374.20000000000005</ele><time>2026-03-22T10:33:10Z</time></trkpt><trkpt lat="41.939719354585144" lon="14.727131902399227"><ele>375.6</ele><time>2026-03-22T10:33:11Z</time></trkpt><trkpt lat="41.939788967998595" lon="14.72697915449696"><ele>377.0</ele><time>2026-03-22T10:33:12Z</time></trkpt><trkpt lat="41.93987022021478" lon="14.7268174470316"><ele>377.33333333333337</ele><time>2026-03-22T10:33:13Z</time></trkpt><trkpt lat="41.93994961015761" lon="14.726624094166429"><ele>377.6666666666667</ele><time>2026-03-22T10:33:14Z</time></trkpt><trkpt lat="41.94003466305188" lon="14.726413143877059"><ele>378.0</ele><time>2026-03-22T10:33:15Z</time></trkpt><trkpt lat="41.94011118320996" lon="14.726211195394407"><ele>383.75</ele><time>2026-03-22T10:33:16Z</time></trkpt><trkpt lat="41.94014927587635" lon="14.726023612155142"><ele>389.5</ele><time>2026-03-22T10:33:17Z</time></trkpt><trkpt lat="41.9401744393837" lon="14.725855325766782"><ele>395.25</ele><time>2026-03-22T10:33:18Z</time></trkpt><trkpt lat="41.94016996877977" lon="14.725690900507995"><ele>401.0</ele><time>2026-03-22T10:33:19Z</time></trkpt><trkpt lat="41.94017305803234" lon="14.725523149939232"><ele>401.0</ele><time>2026-03-22T10:33:20Z</time></trkpt><trkpt lat="41.94021532470674" lon="14.725367933332338"><ele>401.0</ele><time>2026-03-22T10:33:21Z</time></trkpt><trkpt lat="41.94026688453981" lon="14.725213508451164"><ele>401.0</ele><time>2026-03-22T10:33:22Z</time></trkpt><trkpt lat="41.94033551396534" lon="14.7250537031162"><ele>401.0</ele><time>2026-03-22T10:33:23Z</time></trkpt><trkpt lat="41.940389400460944" lon="14.72488045197451"><ele>402.66666666666663</ele><time>2026-03-22T10:33:24Z</time></trkpt><trkpt lat="41.94038531896103" lon="14.724668535702083"><ele>404.33333333333337</ele><time>2026-03-22T10:33:25Z</time></trkpt><trkpt lat="41.940402067636526" lon="14.72442943799796"><ele>406.0</ele><time>2026-03-22T10:33:26Z</time></trkpt><trkpt lat="41.940427629068544" lon="14.724188957155414"><ele>406.0</ele><time>2026-03-22T10:33:27Z</time></trkpt><trkpt lat="41.94043621632034" lon="14.72396922518313"><ele>406.0</ele><time>2026-03-22T10:33:28Z</time></trkpt><trkpt lat="41.9404208590495" lon="14.723765910710835"><ele>406.0</ele><time>2026-03-22T10:33:29Z</time></trkpt><trkpt lat="41.940395162046286" lon="14.723566800177409"><ele>404.25</ele><time>2026-03-22T10:33:30Z</time></trkpt><trkpt lat="41.94037507352436" lon="14.723393754376866"><ele>402.5</ele><time>2026-03-22T10:33:31Z</time></trkpt><trkpt lat="41.94038250664756" lon="14.72323058222815"><ele>400.75</ele><time>2026-03-22T10:33:32Z</time></trkpt><trkpt lat="41.940428660880414" lon="14.72307160213494"><ele>399.0</ele><time>2026-03-22T10:33:33Z</time></trkpt><trkpt lat="41.940514379251354" lon="14.7229336468628"><ele>399.0</ele><time>2026-03-22T10:33:34Z</time></trkpt><trkpt lat="41.940621048998764" lon="14.722817079295199"><ele>399.0</ele><time>2026-03-22T10:33:35Z</time></trkpt><trkpt lat="41.94075425833571" lon="14.72270489475258"><ele>399.0</ele><time>2026-03-22T10:33:36Z</time></trkpt><trkpt lat="41.94090051251182" lon="14.722596367877488"><ele>395.0</ele><time>2026-03-22T10:33:37Z</time></trkpt><trkpt lat="41.941052241554466" lon="14.722492207441158"><ele>391.0</ele><time>2026-03-22T10:33:38Z</time></trkpt><trkpt lat="41.94120429472991" lon="14.722391513788306"><ele>387.0</ele><time>2026-03-22T10:33:39Z</time></trkpt><trkpt lat="41.94133232139228" lon="14.722305311639273"><ele>387.0</ele><time>2026-03-22T10:33:40Z</time></trkpt><trkpt lat="41.941456303581084" lon="14.722224882186858"><ele>387.0</ele><time>2026-03-22T10:33:41Z</time></trkpt><trkpt lat="41.9415669108792" lon="14.722144044311197"><ele>387.0</ele><time>2026-03-22T10:33:42Z</time></trkpt><trkpt lat="41.9416610945464" lon="14.722057185642868"><ele>387.0</ele><time>2026-03-22T10:33:43Z</time></trkpt><trkpt lat="41.941749901344416" lon="14.721957247011975"><ele>385.5</ele><time>2026-03-22T10:33:44Z</time></trkpt><trkpt lat="41.94181775648443" lon="14.72185427836914"><ele>384.0</ele><time>2026-03-22T10:33:45Z</time></trkpt><trkpt lat="41.94184509616295" lon="14.72171416927885"><ele>382.5</ele><time>2026-03-22T10:33:46Z</time></trkpt><trkpt lat="41.94195078752616" lon="14.721627757488568"><ele>381.0</ele><time>2026-03-22T10:33:48Z</time></trkpt><trkpt lat="41.94193299430659" lon="14.721278973614494"><ele>381.0</ele><time>2026-03-22T10:33:49Z</time></trkpt><trkpt lat="41.941916698644256" lon="14.721078082291026"><ele>381.0</ele><time>2026-03-22T10:33:50Z</time></trkpt><trkpt lat="41.94186690562801" lon="14.72086248310365"><ele>381.0</ele><time>2026-03-22T10:33:51Z</time></trkpt><trkpt lat="41.94184921977851" lon="14.720655092263288"><ele>384.5</ele><time>2026-03-22T10:33:52Z</time></trkpt><trkpt lat="41.941820731952454" lon="14.720461397060665"><ele>388.0</ele><time>2026-03-22T10:33:53Z</time></trkpt><trkpt lat="41.941772132192504" lon="14.720296677033492"><ele>391.5</ele><time>2026-03-22T10:33:54Z</time></trkpt><trkpt lat="41.941683970019945" lon="14.720166616906404"><ele>395.0</ele><time>2026-03-22T10:33:55Z</time></trkpt><trkpt lat="41.941578986255614" lon="14.720021857714402"><ele>398.3333333333333</ele><time>2026-03-22T10:33:56Z</time></trkpt><trkpt lat="41.94149566284372" lon="14.719849475620215"><ele>401.66666666666663</ele><time>2026-03-22T10:33:57Z</time></trkpt><trkpt lat="41.94142405815884" lon="14.719655463890762"><ele>405.0</ele><time>2026-03-22T10:33:58Z</time></trkpt><trkpt lat="41.941357680657575" lon="14.719444362593809"><ele>410.0</ele><time>2026-03-22T10:33:59Z</time></trkpt><trkpt lat="41.94129822431932" lon="14.71921954170931"><ele>415.0</ele><time>2026-03-22T10:34:00Z</time></trkpt><trkpt lat="41.94124010574745" lon="14.71898862815591"><ele>420.0</ele><time>2026-03-22T10:34:01Z</time></trkpt><trkpt lat="41.94117936546569" lon="14.718795191071985"><ele>420.0</ele><time>2026-03-22T10:34:02Z</time></trkpt><trkpt lat="41.94112908194051" lon="14.71862548253321"><ele>420.0</ele><time>2026-03-22T10:34:03Z</time></trkpt><trkpt lat="41.94108948261128" lon="14.718471023490311"><ele>420.0</ele><time>2026-03-22T10:34:04Z</time></trkpt><trkpt lat="41.94108191925617" lon="14.718327062466852"><ele>420.0</ele><time>2026-03-22T10:34:05Z</time></trkpt><trkpt lat="41.94108400952141" lon="14.71818429059755"><ele>421.0</ele><time>2026-03-22T10:34:06Z</time></trkpt><trkpt lat="41.941167318444386" lon="14.71804741636385"><ele>422.0</ele><time>2026-03-22T10:34:07Z</time></trkpt><trkpt lat="41.94124072123547" lon="14.71789887228171"><ele>423.0</ele><time>2026-03-22T10:34:08Z</time></trkpt><trkpt lat="41.94132415192075" lon="14.71773449748249"><ele>424.0</ele><time>2026-03-22T10:34:09Z</time></trkpt><trkpt lat="41.941400788874965" lon="14.71757808976901"><ele>424.0</ele><time>2026-03-22T10:34:10Z</time></trkpt><trkpt lat="41.94147080287799" lon="14.717421428898273"><ele>424.0</ele><time>2026-03-22T10:34:11Z</time></trkpt><trkpt lat="41.94154122502145" lon="14.717274886975547"><ele>424.0</ele><time>2026-03-22T10:34:12Z</time></trkpt><trkpt lat="41.94160149665452" lon="14.717133659654143"><ele>424.0</ele><time>2026-03-22T10:34:13Z</time></trkpt><trkpt lat="41.94165109776338" lon="14.717010838902466"><ele>422.6</ele><time>2026-03-22T10:34:14Z</time></trkpt><trkpt lat="41.94170298962353" lon="14.716899489375773"><ele>421.2</ele><time>2026-03-22T10:34:15Z</time></trkpt><trkpt lat="41.941757795461015" lon="14.716780406940423"><ele>419.8</ele><time>2026-03-22T10:34:16Z</time></trkpt><trkpt lat="41.94180394565927" lon="14.716660398669276"><ele>418.40000000000003</ele><time>2026-03-22T10:34:17Z</time></trkpt><trkpt lat="41.941849772214205" lon="14.716540262963457"><ele>417.0</ele><time>2026-03-22T10:34:18Z</time></trkpt><trkpt lat="41.94182517767198" lon="14.716255199878162"><ele>418.25</ele><time>2026-03-22T10:34:20Z</time></trkpt><trkpt lat="41.94178193341027" lon="14.716093912483004"><ele>419.5</ele><time>2026-03-22T10:34:21Z</time></trkpt><trkpt lat="41.94172300395345" lon="14.715917662571607"><ele>420.75</ele><time>2026-03-22T10:34:22Z</time></trkpt><trkpt lat="41.941661543217776" lon="14.71573198468177"><ele>422.0</ele><time>2026-03-22T10:34:23Z</time></trkpt><trkpt lat="41.941604999907646" lon="14.715525510503262"><ele>422.0</ele><time>2026-03-22T10:34:24Z</time></trkpt><trkpt lat="41.941537592073246" lon="14.715315816747008"><ele>422.0</ele><time>2026-03-22T10:34:25Z</time></trkpt><trkpt lat="41.941467388439165" lon="14.715115334143096"><ele>422.0</ele><time>2026-03-22T10:34:26Z</time></trkpt><trkpt lat="41.941408131493134" lon="14.714905488472553"><ele>426.66666666666663</ele><time>2026-03-22T10:34:27Z</time></trkpt><trkpt lat="41.94134350660888" lon="14.71468997748024"><ele>431.33333333333337</ele><time>2026-03-22T10:34:28Z</time></trkpt><trkpt lat="41.94123661213774" lon="14.714515981625516"><ele>436.0</ele><time>2026-03-22T10:34:29Z</time></trkpt><trkpt lat="41.94115549414668" lon="14.714334756358921"><ele>440.0</ele><time>2026-03-22T10:34:30Z</time></trkpt><trkpt lat="41.94107477738529" lon="14.714155512275543"><ele>444.0</ele><time>2026-03-22T10:34:31Z</time></trkpt><trkpt lat="41.94100699358436" lon="14.713948878619453"><ele>448.0</ele><time>2026-03-22T10:34:32Z</time></trkpt><trkpt lat="41.94094927280561" lon="14.713731193925634"><ele>441.33333333333337</ele><time>2026-03-22T10:34:33Z</time></trkpt><trkpt lat="41.940878445033015" lon="14.713522347503819"><ele>434.66666666666663</ele><time>2026-03-22T10:34:34Z</time></trkpt><trkpt lat="41.94080853177059" lon="14.713344589928559"><ele>428.0</ele><time>2026-03-22T10:34:35Z</time></trkpt><trkpt lat="41.94074393550081" lon="14.713171228870973"><ele>428.0</ele><time>2026-03-22T10:34:36Z</time></trkpt><trkpt lat="41.940688358594485" lon="14.713011283854147"><ele>427.99999999999994</ele><time>2026-03-22T10:34:37Z</time></trkpt><trkpt lat="41.940645863829985" lon="14.712873250957275"><ele>427.99999999999994</ele><time>2026-03-22T10:34:38Z</time></trkpt><trkpt lat="41.94061332829966" lon="14.712771289842765"><ele>428.0</ele><time>2026-03-22T10:34:39Z</time></trkpt><trkpt lat="41.9405863802757" lon="14.712682362698635"><ele>428.0</ele><time>2026-03-22T10:34:40Z</time></trkpt><trkpt lat="41.94058704533353" lon="14.712558346396563"><ele>428.75</ele><time>2026-03-22T10:34:42Z</time></trkpt><trkpt lat="41.94065046196704" lon="14.712483232003443"><ele>429.5</ele><time>2026-03-22T10:34:44Z</time></trkpt><trkpt lat="41.94071986274932" lon="14.712382543632794"><ele>430.25</ele><time>2026-03-22T10:34:47Z</time></trkpt><trkpt lat="41.940661819267234" lon="14.712214353634682"><ele>431.0</ele><time>2026-03-22T10:34:49Z</time></trkpt><trkpt lat="41.940630746561766" lon="14.712050299145753"><ele>430.75</ele><time>2026-03-22T10:34:50Z</time></trkpt><trkpt lat="41.94058617158093" lon="14.711894524652735"><ele>430.5</ele><time>2026-03-22T10:34:51Z</time></trkpt><trkpt lat="41.940523932626945" lon="14.711728007779616"><ele>430.25</ele><time>2026-03-22T10:34:52Z</time></trkpt><trkpt lat="41.94048173954978" lon="14.711580295955118"><ele>430.0</ele><time>2026-03-22T10:34:53Z</time></trkpt><trkpt lat="41.940441171285606" lon="14.711449834908134"><ele>430.0</ele><time>2026-03-22T10:34:54Z</time></trkpt><trkpt lat="41.940397120729166" lon="14.711328925426887"><ele>430.0</ele><time>2026-03-22T10:34:55Z</time></trkpt><trkpt lat="41.94034585990909" lon="14.71117448342463"><ele>430.0</ele><time>2026-03-22T10:34:56Z</time></trkpt><trkpt lat="41.94028236459361" lon="14.710984757080848"><ele>430.0</ele><time>2026-03-22T10:34:57Z</time></trkpt><trkpt lat="41.94022194603315" lon="14.710789080401637"><ele>429.6666666666667</ele><time>2026-03-22T10:34:58Z</time></trkpt><trkpt lat="41.94016191722389" lon="14.710582315050337"><ele>429.33333333333337</ele><time>2026-03-22T10:34:59Z</time></trkpt><trkpt lat="41.9400957716131" lon="14.71037082811459"><ele>429.0</ele><time>2026-03-22T10:35:00Z</time></trkpt><trkpt lat="41.94004192355904" lon="14.710160028742113"><ele>426.33333333333337</ele><time>2026-03-22T10:35:01Z</time></trkpt><trkpt lat="41.94000242419152" lon="14.709931163339503"><ele>423.6666666666667</ele><time>2026-03-22T10:35:02Z</time></trkpt><trkpt lat="41.939962584668585" lon="14.709702196848552"><ele>421.0</ele><time>2026-03-22T10:35:03Z</time></trkpt><trkpt lat="41.939921758363226" lon="14.70947813509023"><ele>422.0</ele><time>2026-03-22T10:35:04Z</time></trkpt><trkpt lat="41.93988069734309" lon="14.709257216743364"><ele>423.0</ele><time>2026-03-22T10:35:05Z</time></trkpt><trkpt lat="41.93984773155618" lon="14.709038528662612"><ele>424.0</ele><time>2026-03-22T10:35:06Z</time></trkpt><trkpt lat="41.93981370010715" lon="14.708821029816194"><ele>424.0</ele><time>2026-03-22T10:35:07Z</time></trkpt><trkpt lat="41.939772244450964" lon="14.708616175861598"><ele>424.0</ele><time>2026-03-22T10:35:08Z</time></trkpt><trkpt lat="41.93972897985628" lon="14.70840569542935"><ele>424.0</ele><time>2026-03-22T10:35:09Z</time></trkpt><trkpt lat="41.9396925682802" lon="14.708212343872408"><ele>424.25</ele><time>2026-03-22T10:35:10Z</time></trkpt><trkpt lat="41.93965555944621" lon="14.708015402736384"><ele>424.5</ele><time>2026-03-22T10:35:11Z</time></trkpt><trkpt lat="41.939625753587244" lon="14.707833675411742"><ele>424.75</ele><time>2026-03-22T10:35:12Z</time></trkpt><trkpt lat="41.93960987593586" lon="14.70768260934063"><ele>425.0</ele><time>2026-03-22T10:35:13Z</time></trkpt><trkpt lat="41.939592841809976" lon="14.707569190744579"><ele>424.99999999999994</ele><time>2026-03-22T10:35:14Z</time></trkpt><trkpt lat="41.93956516934192" lon="14.70740499759143"><ele>425.0</ele><time>2026-03-22T10:35:16Z</time></trkpt><trkpt lat="41.939550353982945" lon="14.707321433424609"><ele>425.0</ele><time>2026-03-22T10:35:18Z</time></trkpt><trkpt lat="41.939539187748025" lon="14.707203643010585"><ele>425.0</ele><time>2026-03-22T10:35:20Z</time></trkpt><trkpt lat="41.939589882859835" lon="14.707149618314746"><ele>424.99999999999994</ele><time>2026-03-22T10:35:21Z</time></trkpt><trkpt lat="41.93960958999569" lon="14.707032558514952"><ele>425.0</ele><time>2026-03-22T10:35:23Z</time></trkpt><trkpt lat="41.93953805598102" lon="14.70693436981068"><ele>425.4</ele><time>2026-03-22T10:35:25Z</time></trkpt><trkpt lat="41.93944688415229" lon="14.70682190334956"><ele>425.8</ele><time>2026-03-22T10:35:27Z</time></trkpt><trkpt lat="41.93939897560903" lon="14.706666695158884"><ele>426.20000000000005</ele><time>2026-03-22T10:35:29Z</time></trkpt><trkpt lat="41.93937617642172" lon="14.706587291409962"><ele>426.6</ele><time>2026-03-22T10:35:30Z</time></trkpt><trkpt lat="41.939341059463025" lon="14.706491092220308"><ele>427.0</ele><time>2026-03-22T10:35:31Z</time></trkpt><trkpt lat="41.93929696910763" lon="14.706377759856625"><ele>427.0</ele><time>2026-03-22T10:35:32Z</time></trkpt><trkpt lat="41.93925499359291" lon="14.70625930242467"><ele>427.00000000000006</ele><time>2026-03-22T10:35:33Z</time></trkpt><trkpt lat="41.939213874725986" lon="14.70613539585823"><ele>427.00000000000006</ele><time>2026-03-22T10:35:34Z</time></trkpt><trkpt lat="41.939176989732175" lon="14.705999530103988"><ele>427.0</ele><time>2026-03-22T10:35:35Z</time></trkpt><trkpt lat="41.93914820883167" lon="14.705856481065602"><ele>427.0</ele><time>2026-03-22T10:35:36Z</time></trkpt><trkpt lat="41.9391265737116" lon="14.705712755235481"><ele>428.0</ele><time>2026-03-22T10:35:37Z</time></trkpt><trkpt lat="41.9391088230271" lon="14.705563865095671"><ele>429.0</ele><time>2026-03-22T10:35:38Z</time></trkpt><trkpt lat="41.939082526449546" lon="14.70539399134906"><ele>430.0</ele><time>2026-03-22T10:35:39Z</time></trkpt><trkpt lat="41.93903657801156" lon="14.70522253885327"><ele>431.0</ele><time>2026-03-22T10:35:40Z</time></trkpt><trkpt lat="41.938967072380336" lon="14.705053732296554"><ele>432.0</ele><time>2026-03-22T10:35:41Z</time></trkpt><trkpt lat="41.9388777617138" lon="14.704891126515891"><ele>433.0</ele><time>2026-03-22T10:35:42Z</time></trkpt><trkpt lat="41.93877126323415" lon="14.70472240547913"><ele>434.0</ele><time>2026-03-22T10:35:43Z</time></trkpt><trkpt lat="41.938659442729964" lon="14.704550312971815"><ele>435.66666666666663</ele><time>2026-03-22T10:35:44Z</time></trkpt><trkpt lat="41.93856014064279" lon="14.704389319167358"><ele>437.33333333333337</ele><time>2026-03-22T10:35:45Z</time></trkpt><trkpt lat="41.938454557213234" lon="14.704217903568429"><ele>439.0</ele><time>2026-03-22T10:35:46Z</time></trkpt><trkpt lat="41.93835314869676" lon="14.70404388314247"><ele>438.0</ele><time>2026-03-22T10:35:47Z</time></trkpt><trkpt lat="41.938252042000364" lon="14.703877217236643"><ele>437.0</ele><time>2026-03-22T10:35:48Z</time></trkpt><trkpt lat="41.93814817851887" lon="14.703719069513685"><ele>436.0</ele><time>2026-03-22T10:35:49Z</time></trkpt><trkpt lat="41.93803821325369" lon="14.703572619087105"><ele>436.0</ele><time>2026-03-22T10:35:50Z</time></trkpt><trkpt lat="41.93791627600415" lon="14.70342217064343"><ele>436.0</ele><time>2026-03-22T10:35:51Z</time></trkpt><trkpt lat="41.93778608881758" lon="14.703257056222641"><ele>436.0</ele><time>2026-03-22T10:35:52Z</time></trkpt><trkpt lat="41.937654627203855" lon="14.703091270878721"><ele>436.6666666666667</ele><time>2026-03-22T10:35:53Z</time></trkpt><trkpt lat="41.93751845446582" lon="14.702927665205959"><ele>437.33333333333337</ele><time>2026-03-22T10:35:54Z</time></trkpt><trkpt lat="41.93739416074335" lon="14.702766466585425"><ele>438.0</ele><time>2026-03-22T10:35:55Z</time></trkpt><trkpt lat="41.93728009693588" lon="14.702615014771101"><ele>438.0</ele><time>2026-03-22T10:35:56Z</time></trkpt><trkpt lat="41.937167947580164" lon="14.702470441740113"><ele>438.0</ele><time>2026-03-22T10:35:57Z</time></trkpt><trkpt lat="41.93705577808199" lon="14.702327444149917"><ele>438.0</ele><time>2026-03-22T10:35:58Z</time></trkpt><trkpt lat="41.93694161668296" lon="14.702179473577472"><ele>438.0</ele><time>2026-03-22T10:35:59Z</time></trkpt><trkpt lat="41.936829215550475" lon="14.702034096535805"><ele>438.0</ele><time>2026-03-22T10:36:00Z</time></trkpt><trkpt lat="41.93671327056066" lon="14.701886591288977"><ele>438.0</ele><time>2026-03-22T10:36:01Z</time></trkpt><trkpt lat="41.93659724711104" lon="14.70173990071353"><ele>437.0</ele><time>2026-03-22T10:36:02Z</time></trkpt><trkpt lat="41.93648585267464" lon="14.701602689923275"><ele>436.0</ele><time>2026-03-22T10:36:03Z</time></trkpt><trkpt lat="41.936386479384225" lon="14.70148049492213"><ele>435.0</ele><time>2026-03-22T10:36:04Z</time></trkpt><trkpt lat="41.93630027468618" lon="14.701363309681414"><ele>434.0</ele><time>2026-03-22T10:36:05Z</time></trkpt><trkpt lat="41.936233848229136" lon="14.701239690239225"><ele>434.0</ele><time>2026-03-22T10:36:06Z</time></trkpt><trkpt lat="41.93618662787098" lon="14.701089392404816"><ele>434.0</ele><time>2026-03-22T10:36:07Z</time></trkpt><trkpt lat="41.93616374996554" lon="14.700912816709259"><ele>434.0</ele><time>2026-03-22T10:36:08Z</time></trkpt><trkpt lat="41.936158637725434" lon="14.700716049062908"><ele>434.0</ele><time>2026-03-22T10:36:09Z</time></trkpt><trkpt lat="41.93615648064938" lon="14.700504073270693"><ele>434.0</ele><time>2026-03-22T10:36:10Z</time></trkpt><trkpt lat="41.93614674532952" lon="14.700281281505408"><ele>434.0</ele><time>2026-03-22T10:36:11Z</time></trkpt><trkpt lat="41.93613663686176" lon="14.70005105535138"><ele>434.0</ele><time>2026-03-22T10:36:12Z</time></trkpt><trkpt lat="41.93611978484098" lon="14.699844354335816"><ele>434.0</ele><time>2026-03-22T10:36:13Z</time></trkpt><trkpt lat="41.93610911677049" lon="14.699664466076879"><ele>434.0</ele><time>2026-03-22T10:36:14Z</time></trkpt><trkpt lat="41.93609926906748" lon="14.699487655012456"><ele>434.0</ele><time>2026-03-22T10:36:15Z</time></trkpt><trkpt lat="41.93609038840411" lon="14.69932353725979"><ele>434.0</ele><time>2026-03-22T10:36:16Z</time></trkpt><trkpt lat="41.93608783530646" lon="14.699172855101885"><ele>431.79999999999995</ele><time>2026-03-22T10:36:17Z</time></trkpt><trkpt lat="41.93610119732753" lon="14.699030464116255"><ele>429.59999999999997</ele><time>2026-03-22T10:36:18Z</time></trkpt><trkpt lat="41.93613914370302" lon="14.698902358812525"><ele>427.4</ele><time>2026-03-22T10:36:19Z</time></trkpt><trkpt lat="41.93620736683425" lon="14.698777210547936"><ele>425.2</ele><time>2026-03-22T10:36:20Z</time></trkpt><trkpt lat="41.93629358949237" lon="14.698669026174333"><ele>423.0</ele><time>2026-03-22T10:36:21Z</time></trkpt><trkpt lat="41.93640305802194" lon="14.698586058882714"><ele>420.5</ele><time>2026-03-22T10:36:22Z</time></trkpt><trkpt lat="41.93652310789778" lon="14.69853604200687"><ele>418.0</ele><time>2026-03-22T10:36:23Z</time></trkpt><trkpt lat="41.93665724742286" lon="14.69851937331661"><ele>415.5</ele><time>2026-03-22T10:36:24Z</time></trkpt><trkpt lat="41.9367862351888" lon="14.698511097406845"><ele>413.0</ele><time>2026-03-22T10:36:25Z</time></trkpt><trkpt lat="41.93690989884737" lon="14.698485850945236"><ele>413.0</ele><time>2026-03-22T10:36:26Z</time></trkpt><trkpt lat="41.9370267744345" lon="14.698442510879552"><ele>413.0</ele><time>2026-03-22T10:36:27Z</time></trkpt><trkpt lat="41.937142283368026" lon="14.698367111874438"><ele>413.0</ele><time>2026-03-22T10:36:28Z</time></trkpt><trkpt lat="41.93725500299061" lon="14.698260082558477"><ele>413.0</ele><time>2026-03-22T10:36:29Z</time></trkpt><trkpt lat="41.93735976302444" lon="14.698119212033218"><ele>413.0</ele><time>2026-03-22T10:36:30Z</time></trkpt><trkpt lat="41.93745816963789" lon="14.697945248297291"><ele>413.0</ele><time>2026-03-22T10:36:31Z</time></trkpt><trkpt lat="41.93756862672613" lon="14.697753878173327"><ele>413.0</ele><time>2026-03-22T10:36:32Z</time></trkpt><trkpt lat="41.93768224407786" lon="14.697570112880728"><ele>410.66666666666663</ele><time>2026-03-22T10:36:33Z</time></trkpt><trkpt lat="41.93779027811823" lon="14.69740418374967"><ele>408.33333333333337</ele><time>2026-03-22T10:36:34Z</time></trkpt><trkpt lat="41.93788587945476" lon="14.697245307635843"><ele>406.0</ele><time>2026-03-22T10:36:35Z</time></trkpt><trkpt lat="41.93798219240086" lon="14.69709212021749"><ele>406.0</ele><time>2026-03-22T10:36:36Z</time></trkpt><trkpt lat="41.93808454723445" lon="14.696937170487438"><ele>406.0</ele><time>2026-03-22T10:36:37Z</time></trkpt><trkpt lat="41.93818553468168" lon="14.696774132995655"><ele>406.0</ele><time>2026-03-22T10:36:38Z</time></trkpt><trkpt lat="41.938284790585094" lon="14.696613789967435"><ele>404.0</ele><time>2026-03-22T10:36:39Z</time></trkpt><trkpt lat="41.938384311215344" lon="14.696467285936052"><ele>402.0</ele><time>2026-03-22T10:36:40Z</time></trkpt><trkpt lat="41.938474353886185" lon="14.696331168319407"><ele>400.0</ele><time>2026-03-22T10:36:41Z</time></trkpt><trkpt lat="41.938555004425574" lon="14.696198938237888"><ele>398.0</ele><time>2026-03-22T10:36:42Z</time></trkpt><trkpt lat="41.93862667987441" lon="14.696056284908902"><ele>394.25</ele><time>2026-03-22T10:36:43Z</time></trkpt><trkpt lat="41.938683941898155" lon="14.695894047820794"><ele>390.5</ele><time>2026-03-22T10:36:44Z</time></trkpt><trkpt lat="41.938733993015454" lon="14.695719432240763"><ele>386.75</ele><time>2026-03-22T10:36:45Z</time></trkpt><trkpt lat="41.93875879240097" lon="14.69554441268111"><ele>383.0</ele><time>2026-03-22T10:36:46Z</time></trkpt><trkpt lat="41.93878511641566" lon="14.695340326310552"><ele>381.5</ele><time>2026-03-22T10:36:47Z</time></trkpt><trkpt lat="41.938781112657104" lon="14.695149475066794"><ele>380.0</ele><time>2026-03-22T10:36:48Z</time></trkpt><trkpt lat="41.938764465299776" lon="14.694972205490355"><ele>378.5</ele><time>2026-03-22T10:36:49Z</time></trkpt><trkpt lat="41.9387355749561" lon="14.694821246949292"><ele>377.0</ele><time>2026-03-22T10:36:50Z</time></trkpt><trkpt lat="41.9387075384904" lon="14.694689206945197"><ele>377.0</ele><time>2026-03-22T10:36:51Z</time></trkpt><trkpt lat="41.93866339573577" lon="14.694569872223903"><ele>377.0</ele><time>2026-03-22T10:36:52Z</time></trkpt><trkpt lat="41.93860129885146" lon="14.694485720732123"><ele>377.0</ele><time>2026-03-22T10:36:53Z</time></trkpt><trkpt lat="41.93852037333896" lon="14.694428124062835"><ele>377.0</ele><time>2026-03-22T10:36:54Z</time></trkpt><trkpt lat="41.938409729748074" lon="14.694391423645028"><ele>377.0</ele><time>2026-03-22T10:36:55Z</time></trkpt><trkpt lat="41.93828148840786" lon="14.69439047461982"><ele>378.0</ele><time>2026-03-22T10:36:56Z</time></trkpt><trkpt lat="41.93813733842974" lon="14.694424240377428"><ele>379.0</ele><time>2026-03-22T10:36:57Z</time></trkpt><trkpt lat="41.93797158219029" lon="14.69446575729113"><ele>380.0</ele><time>2026-03-22T10:36:58Z</time></trkpt><trkpt lat="41.937815268665375" lon="14.694474395816735"><ele>380.0</ele><time>2026-03-22T10:36:59Z</time></trkpt><trkpt lat="41.937669508705696" lon="14.694494704276474"><ele>380.0</ele><time>2026-03-22T10:37:00Z</time></trkpt><trkpt lat="41.93753158169057" lon="14.69451204492843"><ele>380.0</ele><time>2026-03-22T10:37:01Z</time></trkpt><trkpt lat="41.937399383427305" lon="14.694522756138795"><ele>380.0</ele><time>2026-03-22T10:37:02Z</time></trkpt><trkpt lat="41.93727178969464" lon="14.694528672044248"><ele>378.5</ele><time>2026-03-22T10:37:03Z</time></trkpt><trkpt lat="41.93714568453659" lon="14.694536561743961"><ele>377.0</ele><time>2026-03-22T10:37:04Z</time></trkpt><trkpt lat="41.937024032478" lon="14.694551688684811"><ele>375.5</ele><time>2026-03-22T10:37:05Z</time></trkpt><trkpt lat="41.93691777582602" lon="14.694590209283268"><ele>374.0</ele><time>2026-03-22T10:37:06Z</time></trkpt><trkpt lat="41.93681742152302" lon="14.694571382589585"><ele>373.5</ele><time>2026-03-22T10:37:07Z</time></trkpt><trkpt lat="41.9367181833257" lon="14.694545820761485"><ele>373.0</ele><time>2026-03-22T10:37:08Z</time></trkpt><trkpt lat="41.9365991173496" lon="14.69449541864513"><ele>372.5</ele><time>2026-03-22T10:37:09Z</time></trkpt><trkpt lat="41.936508206424236" lon="14.694383378097301"><ele>372.0</ele><time>2026-03-22T10:37:10Z</time></trkpt><trkpt lat="41.93644268886582" lon="14.694251558002803"><ele>370.75</ele><time>2026-03-22T10:37:11Z</time></trkpt><trkpt lat="41.93639792173997" lon="14.69410745782672"><ele>369.5</ele><time>2026-03-22T10:37:12Z</time></trkpt><trkpt lat="41.93637448213165" lon="14.693950349931722"><ele>368.25</ele><time>2026-03-22T10:37:13Z</time></trkpt><trkpt lat="41.936363044981356" lon="14.693770192990907"><ele>367.0</ele><time>2026-03-22T10:37:14Z</time></trkpt><trkpt lat="41.936344647906914" lon="14.693568521302105"><ele>365.0</ele><time>2026-03-22T10:37:15Z</time></trkpt><trkpt lat="41.93631807204587" lon="14.69335781518975"><ele>363.0</ele><time>2026-03-22T10:37:16Z</time></trkpt><trkpt lat="41.936274967588155" lon="14.693164230641349"><ele>361.0</ele><time>2026-03-22T10:37:17Z</time></trkpt><trkpt lat="41.93620729762483" lon="14.6929876707607"><ele>361.0</ele><time>2026-03-22T10:37:18Z</time></trkpt><trkpt lat="41.93611725341407" lon="14.692806496767242"><ele>361.0</ele><time>2026-03-22T10:37:19Z</time></trkpt><trkpt lat="41.936005849440335" lon="14.692631873343053"><ele>361.0</ele><time>2026-03-22T10:37:20Z</time></trkpt><trkpt lat="41.93588079004172" lon="14.69245784151564"><ele>358.3333333333333</ele><time>2026-03-22T10:37:21Z</time></trkpt><trkpt lat="41.935753808622614" lon="14.692290445114377"><ele>355.6666666666667</ele><time>2026-03-22T10:37:22Z</time></trkpt><trkpt lat="41.935621831983624" lon="14.692110305734307"><ele>353.0</ele><time>2026-03-22T10:37:23Z</time></trkpt><trkpt lat="41.93550867909442" lon="14.691933003209716"><ele>353.6666666666667</ele><time>2026-03-22T10:37:24Z</time></trkpt><trkpt lat="41.93540524804103" lon="14.691754054697784"><ele>354.3333333333333</ele><time>2026-03-22T10:37:25Z</time></trkpt><trkpt lat="41.93529688643225" lon="14.691588822373932"><ele>355.0</ele><time>2026-03-22T10:37:26Z</time></trkpt><trkpt lat="41.93518333291018" lon="14.691437019999132"><ele>355.0</ele><time>2026-03-22T10:37:27Z</time></trkpt><trkpt lat="41.9350607296111" lon="14.691306548399035"><ele>355.0</ele><time>2026-03-22T10:37:28Z</time></trkpt><trkpt lat="41.934923094313405" lon="14.691207002849698"><ele>355.0</ele><time>2026-03-22T10:37:29Z</time></trkpt><trkpt lat="41.93476402117368" lon="14.691122307935409"><ele>352.66666666666663</ele><time>2026-03-22T10:37:30Z</time></trkpt><trkpt lat="41.93459786447151" lon="14.691032289113657"><ele>350.3333333333333</ele><time>2026-03-22T10:37:31Z</time></trkpt><trkpt lat="41.93444312287747" lon="14.690922659412644"><ele>348.0</ele><time>2026-03-22T10:37:32Z</time></trkpt><trkpt lat="41.93429041950914" lon="14.690820799730327"><ele>343.6666666666667</ele><time>2026-03-22T10:37:33Z</time></trkpt><trkpt lat="41.93414538182791" lon="14.690724543410727"><ele>339.33333333333337</ele><time>2026-03-22T10:37:34Z</time></trkpt><trkpt lat="41.93401019708255" lon="14.690634270462287"><ele>335.0</ele><time>2026-03-22T10:37:35Z</time></trkpt><trkpt lat="41.933880757087" lon="14.69054652105976"><ele>335.0</ele><time>2026-03-22T10:37:36Z</time></trkpt><trkpt lat="41.933762231933464" lon="14.690466109292679"><ele>335.0</ele><time>2026-03-22T10:37:37Z</time></trkpt><trkpt lat="41.9336649289171" lon="14.69039612056022"><ele>335.0</ele><time>2026-03-22T10:37:38Z</time></trkpt><trkpt lat="41.933579910268485" lon="14.690329319090026"><ele>335.0</ele><time>2026-03-22T10:37:39Z</time></trkpt><trkpt lat="41.93350740012935" lon="14.690259290007011"><ele>335.0</ele><time>2026-03-22T10:37:40Z</time></trkpt><trkpt lat="41.93344447214238" lon="14.690172649668565"><ele>335.0</ele><time>2026-03-22T10:37:41Z</time></trkpt><trkpt lat="41.93341197760819" lon="14.690051368502761"><ele>335.0</ele><time>2026-03-22T10:37:42Z</time></trkpt><trkpt lat="41.933389968754646" lon="14.689926956823996"><ele>335.0</ele><time>2026-03-22T10:37:43Z</time></trkpt><trkpt lat="41.93339474250261" lon="14.689793057322463"><ele>335.0</ele><time>2026-03-22T10:37:44Z</time></trkpt><trkpt lat="41.933419797748314" lon="14.689660026138025"><ele>335.0</ele><time>2026-03-22T10:37:45Z</time></trkpt><trkpt lat="41.93346825391301" lon="14.689525975219203"><ele>333.0</ele><time>2026-03-22T10:37:46Z</time></trkpt><trkpt lat="41.93354660539117" lon="14.689395992039287"><ele>331.0</ele><time>2026-03-22T10:37:47Z</time></trkpt><trkpt lat="41.93363665931922" lon="14.689250994547548"><ele>329.0</ele><time>2026-03-22T10:37:48Z</time></trkpt><trkpt lat="41.93372325206591" lon="14.68909122361097"><ele>327.0</ele><time>2026-03-22T10:37:49Z</time></trkpt><trkpt lat="41.93380046122859" lon="14.688928270663833"><ele>327.0</ele><time>2026-03-22T10:37:50Z</time></trkpt><trkpt lat="41.933875882311504" lon="14.688776678237552"><ele>327.0</ele><time>2026-03-22T10:37:51Z</time></trkpt><trkpt lat="41.93394953181003" lon="14.688638065297297"><ele>327.0</ele><time>2026-03-22T10:37:52Z</time></trkpt><trkpt lat="41.934021077900724" lon="14.688501812097519"><ele>327.0</ele><time>2026-03-22T10:37:53Z</time></trkpt><trkpt lat="41.934101809416525" lon="14.688377369816251"><ele>325.25</ele><time>2026-03-22T10:37:54Z</time></trkpt><trkpt lat="41.93420468605133" lon="14.688254332934173"><ele>323.5</ele><time>2026-03-22T10:37:55Z</time></trkpt><trkpt lat="41.93432364023615" lon="14.688131814722892"><ele>321.75</ele><time>2026-03-22T10:37:56Z</time></trkpt><trkpt lat="41.93444655270256" lon="14.687998858537856"><ele>320.0</ele><time>2026-03-22T10:37:57Z</time></trkpt><trkpt lat="41.934564895536724" lon="14.687874322102523"><ele>316.25</ele><time>2026-03-22T10:37:58Z</time></trkpt><trkpt lat="41.93467286415281" lon="14.687758378852399"><ele>312.5</ele><time>2026-03-22T10:37:59Z</time></trkpt><trkpt lat="41.934776671401096" lon="14.68763614733361"><ele>308.75</ele><time>2026-03-22T10:38:00Z</time></trkpt><trkpt lat="41.934878327988926" lon="14.687526321378842"><ele>305.0</ele><time>2026-03-22T10:38:01Z</time></trkpt><trkpt lat="41.9349802654771" lon="14.687417102625478"><ele>306.0</ele><time>2026-03-22T10:38:02Z</time></trkpt><trkpt lat="41.93508407729116" lon="14.68732644836978"><ele>307.0</ele><time>2026-03-22T10:38:03Z</time></trkpt><trkpt lat="41.935198969319856" lon="14.6872546120009"><ele>308.0</ele><time>2026-03-22T10:38:04Z</time></trkpt><trkpt lat="41.935329885572266" lon="14.687200577684944"><ele>309.0</ele><time>2026-03-22T10:38:05Z</time></trkpt><trkpt lat="41.93546306011534" lon="14.687156117330968"><ele>309.0</ele><time>2026-03-22T10:38:06Z</time></trkpt><trkpt lat="41.93558571070357" lon="14.687106595045345"><ele>309.0</ele><time>2026-03-22T10:38:07Z</time></trkpt><trkpt lat="41.93568608510265" lon="14.687057728857246"><ele>309.0</ele><time>2026-03-22T10:38:08Z</time></trkpt><trkpt lat="41.93575973886926" lon="14.687006589531803"><ele>309.0</ele><time>2026-03-22T10:38:09Z</time></trkpt><trkpt lat="41.93581383682787" lon="14.686936824648072"><ele>309.0</ele><time>2026-03-22T10:38:10Z</time></trkpt><trkpt lat="41.93584134052934" lon="14.68682891376733"><ele>305.8</ele><time>2026-03-22T10:38:11Z</time></trkpt><trkpt lat="41.93584376541476" lon="14.68670142698039"><ele>302.59999999999997</ele><time>2026-03-22T10:38:12Z</time></trkpt><trkpt lat="41.93581694510305" lon="14.686576871540877"><ele>299.4</ele><time>2026-03-22T10:38:13Z</time></trkpt><trkpt lat="41.93575501562395" lon="14.686469905375207"><ele>296.2</ele><time>2026-03-22T10:38:14Z</time></trkpt><trkpt lat="41.93566564071873" lon="14.686393194135245"><ele>293.0</ele><time>2026-03-22T10:38:15Z</time></trkpt><trkpt lat="41.93555898196429" lon="14.686327495188785"><ele>293.0</ele><time>2026-03-22T10:38:16Z</time></trkpt><trkpt lat="41.935451353332496" lon="14.686257628341131"><ele>293.0</ele><time>2026-03-22T10:38:17Z</time></trkpt><trkpt lat="41.935360163766546" lon="14.686162902670459"><ele>293.0</ele><time>2026-03-22T10:38:18Z</time></trkpt><trkpt lat="41.93527457209738" lon="14.686039042322335"><ele>293.0</ele><time>2026-03-22T10:38:19Z</time></trkpt><trkpt lat="41.93519670534674" lon="14.6858839529048"><ele>289.6666666666667</ele><time>2026-03-22T10:38:20Z</time></trkpt><trkpt lat="41.93511532681939" lon="14.685711328314305"><ele>286.3333333333333</ele><time>2026-03-22T10:38:21Z</time></trkpt><trkpt lat="41.93503420512197" lon="14.685531281365652"><ele>283.0</ele><time>2026-03-22T10:38:22Z</time></trkpt><trkpt lat="41.934938793098176" lon="14.685341161847422"><ele>281.66666666666663</ele><time>2026-03-22T10:38:23Z</time></trkpt><trkpt lat="41.93484137772622" lon="14.68514494435577"><ele>280.3333333333333</ele><time>2026-03-22T10:38:24Z</time></trkpt><trkpt lat="41.93473726451811" lon="14.684948258294888"><ele>279.0</ele><time>2026-03-22T10:38:25Z</time></trkpt><trkpt lat="41.934636455903515" lon="14.684757254638816"><ele>279.0</ele><time>2026-03-22T10:38:26Z</time></trkpt><trkpt lat="41.93453866262331" lon="14.684560713237085"><ele>279.0</ele><time>2026-03-22T10:38:27Z</time></trkpt><trkpt lat="41.934437951812136" lon="14.684361542940795"><ele>279.0</ele><time>2026-03-22T10:38:28Z</time></trkpt><trkpt lat="41.93434098364164" lon="14.684170129496103"><ele>277.0</ele><time>2026-03-22T10:38:29Z</time></trkpt><trkpt lat="41.934244518901" lon="14.683986862385918"><ele>275.0</ele><time>2026-03-22T10:38:30Z</time></trkpt><trkpt lat="41.934147071890955" lon="14.683804770428393"><ele>273.0</ele><time>2026-03-22T10:38:31Z</time></trkpt><trkpt lat="41.934049818274794" lon="14.683617825659217"><ele>271.6666666666667</ele><time>2026-03-22T10:38:32Z</time></trkpt><trkpt lat="41.9339547377858" lon="14.683431954189318"><ele>270.33333333333337</ele><time>2026-03-22T10:38:33Z</time></trkpt><trkpt lat="41.93386179310254" lon="14.683247805902639"><ele>269.0</ele><time>2026-03-22T10:38:34Z</time></trkpt><trkpt lat="41.93376922512282" lon="14.683069922016195"><ele>269.0</ele><time>2026-03-22T10:38:35Z</time></trkpt><trkpt lat="41.9336807046143" lon="14.682896651474431"><ele>269.0</ele><time>2026-03-22T10:38:36Z</time></trkpt><trkpt lat="41.93359755990416" lon="14.682736942635154"><ele>269.0</ele><time>2026-03-22T10:38:37Z</time></trkpt><trkpt lat="41.93353235093056" lon="14.6825961938795"><ele>269.0</ele><time>2026-03-22T10:38:38Z</time></trkpt><trkpt lat="41.933487991570665" lon="14.682447401862454"><ele>269.25</ele><time>2026-03-22T10:38:39Z</time></trkpt><trkpt lat="41.933468068332935" lon="14.682285497112687"><ele>269.5</ele><time>2026-03-22T10:38:40Z</time></trkpt><trkpt lat="41.93346901412659" lon="14.682107838816796"><ele>269.75</ele><time>2026-03-22T10:38:41Z</time></trkpt><trkpt lat="41.933499313838844" lon="14.681925923794365"><ele>270.0</ele><time>2026-03-22T10:38:42Z</time></trkpt><trkpt lat="41.933524506699904" lon="14.681744992917777"><ele>270.0</ele><time>2026-03-22T10:38:43Z</time></trkpt><trkpt lat="41.933545683141524" lon="14.68156689601955"><ele>270.0</ele><time>2026-03-22T10:38:44Z</time></trkpt><trkpt lat="41.93354793220418" lon="14.681402869055075"><ele>270.0</ele><time>2026-03-22T10:38:45Z</time></trkpt><trkpt lat="41.933524417443934" lon="14.681248304124951"><ele>270.0</ele><time>2026-03-22T10:38:46Z</time></trkpt><trkpt lat="41.93347955884417" lon="14.681087893287367"><ele>269.0</ele><time>2026-03-22T10:38:47Z</time></trkpt><trkpt lat="41.933416755681165" lon="14.680935614470739"><ele>268.0</ele><time>2026-03-22T10:38:48Z</time></trkpt><trkpt lat="41.93334473052242" lon="14.680804189166494"><ele>267.0</ele><time>2026-03-22T10:38:49Z</time></trkpt><trkpt lat="41.93326629995052" lon="14.680694495043406"><ele>266.0</ele><time>2026-03-22T10:38:50Z</time></trkpt><trkpt lat="41.933169258733656" lon="14.680606751961939"><ele>264.75</ele><time>2026-03-22T10:38:51Z</time></trkpt><trkpt lat="41.93305865372774" lon="14.68055293232475"><ele>263.5</ele><time>2026-03-22T10:38:52Z</time></trkpt><trkpt lat="41.93294012306253" lon="14.680533964818952"><ele>262.25</ele><time>2026-03-22T10:38:53Z</time></trkpt><trkpt lat="41.93281173567696" lon="14.680552685952696"><ele>261.0</ele><time>2026-03-22T10:38:54Z</time></trkpt><trkpt lat="41.93266888779809" lon="14.68057654774301"><ele>260.0</ele><time>2026-03-22T10:38:55Z</time></trkpt><trkpt lat="41.93251110890861" lon="14.680659132456944"><ele>259.0</ele><time>2026-03-22T10:38:56Z</time></trkpt><trkpt lat="41.932331901256276" lon="14.680751733490016"><ele>258.0</ele><time>2026-03-22T10:38:57Z</time></trkpt><trkpt lat="41.93213778632485" lon="14.680849530265432"><ele>258.0</ele><time>2026-03-22T10:38:58Z</time></trkpt><trkpt lat="41.9319397764586" lon="14.680948653980087"><ele>258.0</ele><time>2026-03-22T10:38:59Z</time></trkpt><trkpt lat="41.93173065364028" lon="14.681053340752843"><ele>258.0</ele><time>2026-03-22T10:39:00Z</time></trkpt><trkpt lat="41.931514480110124" lon="14.681161557115583"><ele>255.0</ele><time>2026-03-22T10:39:01Z</time></trkpt><trkpt lat="41.93130426077508" lon="14.681268882350494"><ele>252.0</ele><time>2026-03-22T10:39:02Z</time></trkpt><trkpt lat="41.9311060774132" lon="14.681371317281235"><ele>249.0</ele><time>2026-03-22T10:39:03Z</time></trkpt><trkpt lat="41.93092362473728" lon="14.681466879537677"><ele>250.33333333333331</ele><time>2026-03-22T10:39:04Z</time></trkpt><trkpt lat="41.930764647203134" lon="14.681547839275389"><ele>251.66666666666666</ele><time>2026-03-22T10:39:05Z</time></trkpt><trkpt lat="41.93061278450279" lon="14.681618036190185"><ele>253.0</ele><time>2026-03-22T10:39:06Z</time></trkpt><trkpt lat="41.93046205438112" lon="14.681678310367484"><ele>253.0</ele><time>2026-03-22T10:39:07Z</time></trkpt><trkpt lat="41.93031033536121" lon="14.681721983995947"><ele>253.0</ele><time>2026-03-22T10:39:08Z</time></trkpt><trkpt lat="41.93016439104896" lon="14.68172605212001"><ele>253.0</ele><time>2026-03-22T10:39:09Z</time></trkpt><trkpt lat="41.930020319881265" lon="14.681700294794213"><ele>253.0</ele><time>2026-03-22T10:39:10Z</time></trkpt><trkpt lat="41.92986656572019" lon="14.681663584942525"><ele>252.33333333333331</ele><time>2026-03-22T10:39:11Z</time></trkpt><trkpt lat="41.92970474659749" lon="14.681643476857095"><ele>251.66666666666669</ele><time>2026-03-22T10:39:12Z</time></trkpt><trkpt lat="41.92954662409717" lon="14.68158261719924"><ele>251.0</ele><time>2026-03-22T10:39:13Z</time></trkpt><trkpt lat="41.929385531917625" lon="14.68154188160044"><ele>251.33333333333334</ele><time>2026-03-22T10:39:14Z</time></trkpt><trkpt lat="41.92922482497973" lon="14.681501276594249"><ele>251.66666666666669</ele><time>2026-03-22T10:39:15Z</time></trkpt><trkpt lat="41.92906463035584" lon="14.68148477317105"><ele>252.0</ele><time>2026-03-22T10:39:16Z</time></trkpt><trkpt lat="41.928919134742785" lon="14.681441634636489"><ele>252.0</ele><time>2026-03-22T10:39:17Z</time></trkpt><trkpt lat="41.92878259483711" lon="14.681405290143154"><ele>252.0</ele><time>2026-03-22T10:39:18Z</time></trkpt><trkpt lat="41.92865693416919" lon="14.681386478286056"><ele>252.0</ele><time>2026-03-22T10:39:19Z</time></trkpt><trkpt lat="41.92854027790979" lon="14.681370764304477"><ele>252.0</ele><time>2026-03-22T10:39:20Z</time></trkpt><trkpt lat="41.9284169048418" lon="14.681409490924509"><ele>250.33333333333331</ele><time>2026-03-22T10:39:21Z</time></trkpt><trkpt lat="41.928283510082615" lon="14.681514129246645"><ele>248.66666666666666</ele><time>2026-03-22T10:39:22Z</time></trkpt><trkpt lat="41.92816248266542" lon="14.68163626727994"><ele>247.0</ele><time>2026-03-22T10:39:23Z</time></trkpt><trkpt lat="41.928045334793765" lon="14.681759448190737"><ele>247.0</ele><time>2026-03-22T10:39:24Z</time></trkpt><trkpt lat="41.92793909905502" lon="14.68189235222019"><ele>247.0</ele><time>2026-03-22T10:39:25Z</time></trkpt><trkpt lat="41.927849517527726" lon="14.682033623480343"><ele>247.0</ele><time>2026-03-22T10:39:26Z</time></trkpt><trkpt lat="41.92777232395583" lon="14.682197085434384"><ele>247.0</ele><time>2026-03-22T10:39:27Z</time></trkpt><trkpt lat="41.92769876393801" lon="14.68237958823597"><ele>249.0</ele><time>2026-03-22T10:39:28Z</time></trkpt><trkpt lat="41.92762596652088" lon="14.682583851421263"><ele>251.0</ele><time>2026-03-22T10:39:29Z</time></trkpt><trkpt lat="41.92754962458977" lon="14.682796830100479"><ele>253.0</ele><time>2026-03-22T10:39:30Z</time></trkpt><trkpt lat="41.92747320254114" lon="14.683008973610365"><ele>250.5</ele><time>2026-03-22T10:39:31Z</time></trkpt><trkpt lat="41.927396157884516" lon="14.683203727046777"><ele>248.0</ele><time>2026-03-22T10:39:32Z</time></trkpt><trkpt lat="41.92732256709639" lon="14.683382847881761"><ele>245.5</ele><time>2026-03-22T10:39:33Z</time></trkpt><trkpt lat="41.92725250936338" lon="14.683523237829762"><ele>243.0</ele><time>2026-03-22T10:39:34Z</time></trkpt><trkpt lat="41.92716785480614" lon="14.683645724154808"><ele>243.0</ele><time>2026-03-22T10:39:35Z</time></trkpt><trkpt lat="41.927070977706" lon="14.683744437709287"><ele>243.0</ele><time>2026-03-22T10:39:36Z</time></trkpt><trkpt lat="41.92695590314244" lon="14.68382720693544"><ele>243.0</ele><time>2026-03-22T10:39:37Z</time></trkpt><trkpt lat="41.92682509028222" lon="14.683901912764334"><ele>243.0</ele><time>2026-03-22T10:39:38Z</time></trkpt><trkpt lat="41.92667873540971" lon="14.683977083812753"><ele>237.33333333333331</ele><time>2026-03-22T10:39:39Z</time></trkpt><trkpt lat="41.92653076376696" lon="14.68405243040034"><ele>231.66666666666666</ele><time>2026-03-22T10:39:40Z</time></trkpt><trkpt lat="41.92638414255987" lon="14.684128782978854"><ele>226.0</ele><time>2026-03-22T10:39:41Z</time></trkpt><trkpt lat="41.926245528669796" lon="14.684200965821622"><ele>226.0</ele><time>2026-03-22T10:39:42Z</time></trkpt><trkpt lat="41.92612166093882" lon="14.684265351020999"><ele>226.00000000000003</ele><time>2026-03-22T10:39:43Z</time></trkpt><trkpt lat="41.926016391323635" lon="14.684318690014276"><ele>226.00000000000003</ele><time>2026-03-22T10:39:44Z</time></trkpt><trkpt lat="41.92592509790333" lon="14.684378406053584"><ele>226.0</ele><time>2026-03-22T10:39:45Z</time></trkpt><trkpt lat="41.92585566506681" lon="14.684452798680379"><ele>226.0</ele><time>2026-03-22T10:39:46Z</time></trkpt><trkpt lat="41.92580906826548" lon="14.684564737838754"><ele>226.25</ele><time>2026-03-22T10:39:47Z</time></trkpt><trkpt lat="41.92580093439098" lon="14.68471813955008"><ele>226.5</ele><time>2026-03-22T10:39:48Z</time></trkpt><trkpt lat="41.92583009226335" lon="14.684866738323544"><ele>226.75</ele><time>2026-03-22T10:39:49Z</time></trkpt><trkpt lat="41.92590628232998" lon="14.68501085578322"><ele>227.0</ele><time>2026-03-22T10:39:50Z</time></trkpt><trkpt lat="41.92602222410169" lon="14.68513599145258"><ele>223.66666666666669</ele><time>2026-03-22T10:39:51Z</time></trkpt><trkpt lat="41.926128170172994" lon="14.685333773080533"><ele>220.33333333333331</ele><time>2026-03-22T10:39:52Z</time></trkpt><trkpt lat="41.92624896089134" lon="14.685531804800986"><ele>217.0</ele><time>2026-03-22T10:39:53Z</time></trkpt><trkpt lat="41.9263719104872" lon="14.685731639309868"><ele>217.0</ele><time>2026-03-22T10:39:54Z</time></trkpt><trkpt lat="41.92650148144256" lon="14.685934266872076"><ele>217.0</ele><time>2026-03-22T10:39:55Z</time></trkpt><trkpt lat="41.92662584213865" lon="14.68612580909733"><ele>217.0</ele><time>2026-03-22T10:39:56Z</time></trkpt><trkpt lat="41.92673609811278" lon="14.686300513093837"><ele>217.0</ele><time>2026-03-22T10:39:57Z</time></trkpt><trkpt lat="41.92684252925891" lon="14.686476464566592"><ele>217.0</ele><time>2026-03-22T10:39:58Z</time></trkpt><trkpt lat="41.92694630435685" lon="14.686670687313288"><ele>217.0</ele><time>2026-03-22T10:39:59Z</time></trkpt><trkpt lat="41.92704876660933" lon="14.68687947255005"><ele>212.33333333333331</ele><time>2026-03-22T10:40:00Z</time></trkpt><trkpt lat="41.92715503812993" lon="14.68709385053739"><ele>207.66666666666669</ele><time>2026-03-22T10:40:01Z</time></trkpt><trkpt lat="41.92726291795205" lon="14.68731147282683"><ele>203.0</ele><time>2026-03-22T10:40:02Z</time></trkpt><trkpt lat="41.92736801091759" lon="14.687523473364035"><ele>203.0</ele><time>2026-03-22T10:40:03Z</time></trkpt><trkpt lat="41.92746682850539" lon="14.687722814767618"><ele>203.0</ele><time>2026-03-22T10:40:04Z</time></trkpt><trkpt lat="41.92755799147332" lon="14.68790671469352"><ele>203.0</ele><time>2026-03-22T10:40:05Z</time></trkpt><trkpt lat="41.92764502769422" lon="14.68808261250215"><ele>203.5</ele><time>2026-03-22T10:40:06Z</time></trkpt><trkpt lat="41.92772948696377" lon="14.688256177139868"><ele>204.0</ele><time>2026-03-22T10:40:07Z</time></trkpt><trkpt lat="41.927803127445664" lon="14.688415540552121"><ele>204.5</ele><time>2026-03-22T10:40:08Z</time></trkpt><trkpt lat="41.927867847081515" lon="14.688561148978357"><ele>205.0</ele><time>2026-03-22T10:40:09Z</time></trkpt><trkpt lat="41.92792274746347" lon="14.688694704444174"><ele>205.0</ele><time>2026-03-22T10:40:10Z</time></trkpt><trkpt lat="41.92796296589047" lon="14.688821098106983"><ele>205.0</ele><time>2026-03-22T10:40:11Z</time></trkpt><trkpt lat="41.92798712116104" lon="14.68894381851982"><ele>205.0</ele><time>2026-03-22T10:40:12Z</time></trkpt><trkpt lat="41.9279935526058" lon="14.689065910675962"><ele>205.0</ele><time>2026-03-22T10:40:13Z</time></trkpt><trkpt lat="41.927980370969905" lon="14.689190524540036"><ele>205.0</ele><time>2026-03-22T10:40:14Z</time></trkpt><trkpt lat="41.92794695575097" lon="14.689309025162455"><ele>205.0</ele><time>2026-03-22T10:40:15Z</time></trkpt><trkpt lat="41.92788321919094" lon="14.689420867031394"><ele>205.0</ele><time>2026-03-22T10:40:16Z</time></trkpt><trkpt lat="41.92780513214614" lon="14.689543314449207"><ele>205.0</ele><time>2026-03-22T10:40:17Z</time></trkpt><trkpt lat="41.92770197473271" lon="14.689666815416969"><ele>205.0</ele><time>2026-03-22T10:40:18Z</time></trkpt><trkpt lat="41.927581823701054" lon="14.689789891303366"><ele>201.66666666666666</ele><time>2026-03-22T10:40:19Z</time></trkpt><trkpt lat="41.92744978278703" lon="14.689900475654198"><ele>198.33333333333331</ele><time>2026-03-22T10:40:20Z</time></trkpt><trkpt lat="41.92731243570533" lon="14.690000618754947"><ele>195.0</ele><time>2026-03-22T10:40:21Z</time></trkpt><trkpt lat="41.92716577222968" lon="14.690110708032128"><ele>195.0</ele><time>2026-03-22T10:40:22Z</time></trkpt><trkpt lat="41.92701853174073" lon="14.69022586269399"><ele>195.0</ele><time>2026-03-22T10:40:23Z</time></trkpt><trkpt lat="41.92686473571022" lon="14.690346144765583"><ele>195.0</ele><time>2026-03-22T10:40:24Z</time></trkpt><trkpt lat="41.92670693424169" lon="14.690469368370795"><ele>193.0</ele><time>2026-03-22T10:40:25Z</time></trkpt><trkpt lat="41.926546688058906" lon="14.69059434690155"><ele>191.0</ele><time>2026-03-22T10:40:26Z</time></trkpt><trkpt lat="41.926381319591385" lon="14.690723320286326"><ele>189.0</ele><time>2026-03-22T10:40:27Z</time></trkpt><trkpt lat="41.926211320666944" lon="14.690853576323173"><ele>189.0</ele><time>2026-03-22T10:40:28Z</time></trkpt><trkpt lat="41.92603631991622" lon="14.690987075835093"><ele>189.0</ele><time>2026-03-22T10:40:29Z</time></trkpt><trkpt lat="41.92585734620055" lon="14.691123606106624"><ele>189.0</ele><time>2026-03-22T10:40:30Z</time></trkpt><trkpt lat="41.925677592301724" lon="14.691260731380849"><ele>187.33333333333334</ele><time>2026-03-22T10:40:31Z</time></trkpt><trkpt lat="41.92549751068906" lon="14.691398319949135"><ele>185.66666666666669</ele><time>2026-03-22T10:40:32Z</time></trkpt><trkpt lat="41.92531886505846" lon="14.691534844161017"><ele>184.0</ele><time>2026-03-22T10:40:33Z</time></trkpt><trkpt lat="41.925137481327916" lon="14.691673460902607"><ele>181.33333333333334</ele><time>2026-03-22T10:40:34Z</time></trkpt><trkpt lat="41.92495369863665" lon="14.691813911059015"><ele>178.66666666666666</ele><time>2026-03-22T10:40:35Z</time></trkpt><trkpt lat="41.924767366700856" lon="14.691956309259874"><ele>176.0</ele><time>2026-03-22T10:40:36Z</time></trkpt><trkpt lat="41.924577912014094" lon="14.692100508527275"><ele>176.0</ele><time>2026-03-22T10:40:37Z</time></trkpt><trkpt lat="41.924387510909085" lon="14.69224510596399"><ele>176.0</ele><time>2026-03-22T10:40:38Z</time></trkpt><trkpt lat="41.924199621714564" lon="14.692389009935463"><ele>176.0</ele><time>2026-03-22T10:40:39Z</time></trkpt><trkpt lat="41.924018490886446" lon="14.692528333319217"><ele>173.33333333333331</ele><time>2026-03-22T10:40:40Z</time></trkpt><trkpt lat="41.92384022952069" lon="14.692665486941715"><ele>170.66666666666666</ele><time>2026-03-22T10:40:41Z</time></trkpt><trkpt lat="41.92367236840805" lon="14.692794647046194"><ele>168.0</ele><time>2026-03-22T10:40:42Z</time></trkpt><trkpt lat="41.923511381458894" lon="14.692918517857253"><ele>164.33333333333334</ele><time>2026-03-22T10:40:43Z</time></trkpt><trkpt lat="41.923352661071625" lon="14.693040644687366"><ele>160.66666666666669</ele><time>2026-03-22T10:40:44Z</time></trkpt><trkpt lat="41.923203933672866" lon="14.693154725333418"><ele>157.0</ele><time>2026-03-22T10:40:45Z</time></trkpt><trkpt lat="41.92307017653292" lon="14.693255765868267"><ele>157.0</ele><time>2026-03-22T10:40:46Z</time></trkpt><trkpt lat="41.922958187986865" lon="14.693340362325447"><ele>157.0</ele><time>2026-03-22T10:40:47Z</time></trkpt><trkpt lat="41.92287177875929" lon="14.693403578977513"><ele>157.0</ele><time>2026-03-22T10:40:48Z</time></trkpt><trkpt lat="41.92273352971323" lon="14.693484784860939"><ele>157.0</ele><time>2026-03-22T10:40:50Z</time></trkpt><trkpt lat="41.9226606463989" lon="14.69348917355598"><ele>157.0</ele><time>2026-03-22T10:40:51Z</time></trkpt><trkpt lat="41.92258018066264" lon="14.693475155141885"><ele>157.0</ele><time>2026-03-22T10:40:52Z</time></trkpt><trkpt lat="41.922517450422795" lon="14.693376436637166"><ele>157.0</ele><time>2026-03-22T10:40:53Z</time></trkpt><trkpt lat="41.92247992951117" lon="14.693252783929902"><ele>157.0</ele><time>2026-03-22T10:40:54Z</time></trkpt><trkpt lat="41.92248679279582" lon="14.693087824555043"><ele>157.0</ele><time>2026-03-22T10:40:55Z</time></trkpt><trkpt lat="41.922502832494054" lon="14.692933881336367"><ele>156.5</ele><time>2026-03-22T10:40:56Z</time></trkpt><trkpt lat="41.922532770763226" lon="14.692772893347763"><ele>156.0</ele><time>2026-03-22T10:40:57Z</time></trkpt><trkpt lat="41.92252568610202" lon="14.692600874723858"><ele>155.5</ele><time>2026-03-22T10:40:58Z</time></trkpt><trkpt lat="41.92255132840594" lon="14.692427015758653"><ele>155.0</ele><time>2026-03-22T10:40:59Z</time></trkpt><trkpt lat="41.922574311269315" lon="14.692268592066863"><ele>155.0</ele><time>2026-03-22T10:41:00Z</time></trkpt><trkpt lat="41.92258729724276" lon="14.692129893289744"><ele>155.0</ele><time>2026-03-22T10:41:01Z</time></trkpt><trkpt lat="41.92259626412586" lon="14.69200824027002"><ele>155.0</ele><time>2026-03-22T10:41:02Z</time></trkpt><trkpt lat="41.922579596595696" lon="14.691888232858872"><ele>155.0</ele><time>2026-03-22T10:41:03Z</time></trkpt><trkpt lat="41.9225344916972" lon="14.691764700834609"><ele>155.0</ele><time>2026-03-22T10:41:04Z</time></trkpt><trkpt lat="41.92246379190434" lon="14.691655033893044"><ele>152.25</ele><time>2026-03-22T10:41:05Z</time></trkpt><trkpt lat="41.922362895136416" lon="14.691562713902929"><ele>149.5</ele><time>2026-03-22T10:41:06Z</time></trkpt><trkpt lat="41.92225049147412" lon="14.691492281541338"><ele>146.75</ele><time>2026-03-22T10:41:07Z</time></trkpt><trkpt lat="41.92213103871596" lon="14.691429674402576"><ele>144.0</ele><time>2026-03-22T10:41:08Z</time></trkpt><trkpt lat="41.92202435494304" lon="14.691364466663687"><ele>144.0</ele><time>2026-03-22T10:41:09Z</time></trkpt><trkpt lat="41.9219346988024" lon="14.691298840923313"><ele>144.0</ele><time>2026-03-22T10:41:10Z</time></trkpt><trkpt lat="41.92186167998565" lon="14.691216286308986"><ele>144.0</ele><time>2026-03-22T10:41:11Z</time></trkpt><trkpt lat="41.92180983267265" lon="14.691134080353697"><ele>144.0</ele><time>2026-03-22T10:41:12Z</time></trkpt><trkpt lat="41.921746694128004" lon="14.691075187052146"><ele>144.0</ele><time>2026-03-22T10:41:13Z</time></trkpt><trkpt lat="41.92171278384433" lon="14.690995651243203"><ele>144.0</ele><time>2026-03-22T10:41:14Z</time></trkpt><trkpt lat="41.92160354449524" lon="14.690954994761514"><ele>142.4</ele><time>2026-03-22T10:41:16Z</time></trkpt><trkpt lat="41.92154590388775" lon="14.690991276588784"><ele>140.8</ele><time>2026-03-22T10:41:17Z</time></trkpt><trkpt lat="41.92154496845204" lon="14.691232712227462"><ele>139.2</ele><time>2026-03-22T10:41:19Z</time></trkpt><trkpt lat="41.9215688146478" lon="14.69133643365918"><ele>137.6</ele><time>2026-03-22T10:41:20Z</time></trkpt><trkpt lat="41.92160670890126" lon="14.691426830984694"><ele>136.0</ele><time>2026-03-22T10:41:21Z</time></trkpt><trkpt lat="41.92152293035608" lon="14.691520049945069"><ele>135.75</ele><time>2026-03-22T10:41:22Z</time></trkpt><trkpt lat="41.92148143513443" lon="14.69163160068425"><ele>135.5</ele><time>2026-03-22T10:41:23Z</time></trkpt><trkpt lat="41.92142528291091" lon="14.691755902910913"><ele>135.25</ele><time>2026-03-22T10:41:24Z</time></trkpt><trkpt lat="41.92135549572267" lon="14.6918928487205"><ele>135.0</ele><time>2026-03-22T10:41:25Z</time></trkpt><trkpt lat="41.92127467757435" lon="14.692023110453386"><ele>135.0</ele><time>2026-03-22T10:41:26Z</time></trkpt><trkpt lat="41.92118856817563" lon="14.69214357246686"><ele>135.0</ele><time>2026-03-22T10:41:27Z</time></trkpt><trkpt lat="41.921090110184785" lon="14.692260343410684"><ele>135.0</ele><time>2026-03-22T10:41:28Z</time></trkpt><trkpt lat="41.92097410691461" lon="14.692374413531665"><ele>135.0</ele><time>2026-03-22T10:41:29Z</time></trkpt><trkpt lat="41.92084579180421" lon="14.69247730669506"><ele>135.0</ele><time>2026-03-22T10:41:30Z</time></trkpt><trkpt lat="41.92070768541383" lon="14.69255968255101"><ele>135.0</ele><time>2026-03-22T10:41:31Z</time></trkpt><trkpt lat="41.920558754669024" lon="14.692631562124078"><ele>135.0</ele><time>2026-03-22T10:41:32Z</time></trkpt><trkpt lat="41.92040843412631" lon="14.692678884373176"><ele>135.0</ele><time>2026-03-22T10:41:33Z</time></trkpt><trkpt lat="41.920230860682786" lon="14.69271348505008"><ele>135.0</ele><time>2026-03-22T10:41:34Z</time></trkpt><trkpt lat="41.92004564151278" lon="14.692744041543026"><ele>135.0</ele><time>2026-03-22T10:41:35Z</time></trkpt><trkpt lat="41.919873093488576" lon="14.69277053607122"><ele>136.66666666666666</ele><time>2026-03-22T10:41:36Z</time></trkpt><trkpt lat="41.919689552128574" lon="14.692798718626607"><ele>138.33333333333331</ele><time>2026-03-22T10:41:37Z</time></trkpt><trkpt lat="41.91951257954647" lon="14.692825892529589"><ele>140.0</ele><time>2026-03-22T10:41:38Z</time></trkpt><trkpt lat="41.919331433370516" lon="14.692853319700278"><ele>142.33333333333331</ele><time>2026-03-22T10:41:39Z</time></trkpt><trkpt lat="41.9191432411457" lon="14.69288495253187"><ele>144.66666666666666</ele><time>2026-03-22T10:41:40Z</time></trkpt><trkpt lat="41.918955510466795" lon="14.692924768651855"><ele>147.0</ele><time>2026-03-22T10:41:41Z</time></trkpt><trkpt lat="41.918771488813846" lon="14.692988777514776"><ele>147.0</ele><time>2026-03-22T10:41:42Z</time></trkpt><trkpt lat="41.91859194047496" lon="14.693070452778777"><ele>147.0</ele><time>2026-03-22T10:41:43Z</time></trkpt><trkpt lat="41.918409581255474" lon="14.693167471712073"><ele>147.0</ele><time>2026-03-22T10:41:44Z</time></trkpt><trkpt lat="41.91823078454693" lon="14.6932814676568"><ele>146.0</ele><time>2026-03-22T10:41:45Z</time></trkpt><trkpt lat="41.91805974616709" lon="14.6934145615196"><ele>145.0</ele><time>2026-03-22T10:41:46Z</time></trkpt><trkpt lat="41.91787698630925" lon="14.693575604595551"><ele>144.0</ele><time>2026-03-22T10:41:47Z</time></trkpt><trkpt lat="41.91769436084066" lon="14.69374928860128"><ele>145.5</ele><time>2026-03-22T10:41:48Z</time></trkpt><trkpt lat="41.91750570731508" lon="14.693930807635029"><ele>147.0</ele><time>2026-03-22T10:41:49Z</time></trkpt><trkpt lat="41.917312171179674" lon="14.69411702463366"><ele>147.0</ele><time>2026-03-22T10:41:50Z</time></trkpt><trkpt lat="41.91712822104324" lon="14.694295375623902"><ele>147.0</ele><time>2026-03-22T10:41:51Z</time></trkpt><trkpt lat="41.916938605841004" lon="14.694480283866916"><ele>147.5</ele><time>2026-03-22T10:41:52Z</time></trkpt><trkpt lat="41.91676279708728" lon="14.694678813966757"><ele>148.0</ele><time>2026-03-22T10:41:53Z</time></trkpt><trkpt lat="41.91657284542796" lon="14.694862448991067"><ele>148.0</ele><time>2026-03-22T10:41:54Z</time></trkpt><trkpt lat="41.9163800385624" lon="14.695047116632667"><ele>148.0</ele><time>2026-03-22T10:41:55Z</time></trkpt><trkpt lat="41.916185894984416" lon="14.695227828307297"><ele>148.0</ele><time>2026-03-22T10:41:56Z</time></trkpt><trkpt lat="41.91599349549006" lon="14.695413339846803"><ele>148.0</ele><time>2026-03-22T10:41:57Z</time></trkpt><trkpt lat="41.91581499460382" lon="14.695614591357335"><ele>148.0</ele><time>2026-03-22T10:41:58Z</time></trkpt><trkpt lat="41.91564206411548" lon="14.69582682530119"><ele>148.0</ele><time>2026-03-22T10:41:59Z</time></trkpt><trkpt lat="41.915461619674865" lon="14.69602830872454"><ele>151.5</ele><time>2026-03-22T10:42:00Z</time></trkpt><trkpt lat="41.91529754474545" lon="14.696264052745338"><ele>155.0</ele><time>2026-03-22T10:42:01Z</time></trkpt><trkpt lat="41.91514214575285" lon="14.696510456683987"><ele>155.0</ele><time>2026-03-22T10:42:02Z</time></trkpt><trkpt lat="41.91499573938343" lon="14.696776735652863"><ele>155.0</ele><time>2026-03-22T10:42:03Z</time></trkpt><trkpt lat="41.91486283884919" lon="14.697057211153808"><ele>155.0</ele><time>2026-03-22T10:42:04Z</time></trkpt><trkpt lat="41.914724441467314" lon="14.697335608385252"><ele>155.0</ele><time>2026-03-22T10:42:05Z</time></trkpt><trkpt lat="41.91458312167178" lon="14.69761001450969"><ele>163.5</ele><time>2026-03-22T10:42:06Z</time></trkpt><trkpt lat="41.91443171604053" lon="14.697869697437689"><ele>172.0</ele><time>2026-03-22T10:42:07Z</time></trkpt><trkpt lat="41.91427408470435" lon="14.69813403207054"><ele>159.5</ele><time>2026-03-22T10:42:08Z</time></trkpt><trkpt lat="41.914110917033135" lon="14.69838983746022"><ele>147.0</ele><time>2026-03-22T10:42:09Z</time></trkpt><trkpt lat="41.91393080989907" lon="14.698639912278063"><ele>147.0</ele><time>2026-03-22T10:42:10Z</time></trkpt><trkpt lat="41.913746864838245" lon="14.698886915750455"><ele>147.0</ele><time>2026-03-22T10:42:11Z</time></trkpt><trkpt lat="41.9135627695682" lon="14.699131070134246"><ele>148.0</ele><time>2026-03-22T10:42:12Z</time></trkpt><trkpt lat="41.913385630559404" lon="14.699369350168372"><ele>149.0</ele><time>2026-03-22T10:42:13Z</time></trkpt><trkpt lat="41.913213050898605" lon="14.699612518776373"><ele>149.0</ele><time>2026-03-22T10:42:14Z</time></trkpt><trkpt lat="41.91304657632166" lon="14.699861881146761"><ele>149.0</ele><time>2026-03-22T10:42:15Z</time></trkpt><trkpt lat="41.912890595991435" lon="14.70011916686725"><ele>149.0</ele><time>2026-03-22T10:42:16Z</time></trkpt><trkpt lat="41.912745943717354" lon="14.700381425071823"><ele>149.0</ele><time>2026-03-22T10:42:17Z</time></trkpt><trkpt lat="41.91260876553576" lon="14.700647683273548"><ele>149.0</ele><time>2026-03-22T10:42:18Z</time></trkpt><trkpt lat="41.912476499442114" lon="14.700919233045536"><ele>149.0</ele><time>2026-03-22T10:42:19Z</time></trkpt><trkpt lat="41.912352407195456" lon="14.701199788243606"><ele>148.0</ele><time>2026-03-22T10:42:20Z</time></trkpt><trkpt lat="41.91223709426398" lon="14.701486126819571"><ele>147.0</ele><time>2026-03-22T10:42:21Z</time></trkpt><trkpt lat="41.91212962442999" lon="14.701772771878918"><ele>149.0</ele><time>2026-03-22T10:42:22Z</time></trkpt><trkpt lat="41.91202514466973" lon="14.702073473855064"><ele>151.0</ele><time>2026-03-22T10:42:23Z</time></trkpt><trkpt lat="41.911932920680364" lon="14.702389197975126"><ele>151.0</ele><time>2026-03-22T10:42:24Z</time></trkpt><trkpt lat="41.911848980595664" lon="14.702712833262865"><ele>151.0</ele><time>2026-03-22T10:42:25Z</time></trkpt><trkpt lat="41.91176970615802" lon="14.70303972704882"><ele>151.0</ele><time>2026-03-22T10:42:26Z</time></trkpt><trkpt lat="41.911689932331235" lon="14.70337012777177"><ele>151.0</ele><time>2026-03-22T10:42:27Z</time></trkpt><trkpt lat="41.911609935960605" lon="14.7037014504059"><ele>150.5</ele><time>2026-03-22T10:42:28Z</time></trkpt><trkpt lat="41.911529455784965" lon="14.704034776868184"><ele>150.0</ele><time>2026-03-22T10:42:29Z</time></trkpt><trkpt lat="41.91144846631739" lon="14.704366357321316"><ele>150.0</ele><time>2026-03-22T10:42:30Z</time></trkpt><trkpt lat="41.91136723850631" lon="14.704696283188573"><ele>150.0</ele><time>2026-03-22T10:42:31Z</time></trkpt><trkpt lat="41.91128588568674" lon="14.705026433227156"><ele>151.0</ele><time>2026-03-22T10:42:32Z</time></trkpt><trkpt lat="41.91120521772317" lon="14.705353497350785"><ele>152.0</ele><time>2026-03-22T10:42:33Z</time></trkpt><trkpt lat="41.9111256366759" lon="14.705676153888263"><ele>152.0</ele><time>2026-03-22T10:42:34Z</time></trkpt><trkpt lat="41.91104989359826" lon="14.705996712354233"><ele>152.0</ele><time>2026-03-22T10:42:35Z</time></trkpt><trkpt lat="41.91102807967009" lon="14.706341675918175"><ele>153.5</ele><time>2026-03-22T10:42:36Z</time></trkpt><trkpt lat="41.910946826825985" lon="14.706652050196515"><ele>155.0</ele><time>2026-03-22T10:42:37Z</time></trkpt><trkpt lat="41.91086663184473" lon="14.706949557223398"><ele>155.0</ele><time>2026-03-22T10:42:38Z</time></trkpt><trkpt lat="41.91078715516651" lon="14.707240283578857"><ele>155.0</ele><time>2026-03-22T10:42:39Z</time></trkpt><trkpt lat="41.91070012943749" lon="14.707523249773997"><ele>155.66666666666666</ele><time>2026-03-22T10:42:40Z</time></trkpt><trkpt lat="41.910607814400336" lon="14.707798837149348"><ele>156.33333333333334</ele><time>2026-03-22T10:42:41Z</time></trkpt><trkpt lat="41.91051247733863" lon="14.708069142287433"><ele>157.0</ele><time>2026-03-22T10:42:42Z</time></trkpt><trkpt lat="41.91041394847747" lon="14.708340210574404"><ele>158.0</ele><time>2026-03-22T10:42:43Z</time></trkpt><trkpt lat="41.91030845396537" lon="14.708606430252612"><ele>159.0</ele><time>2026-03-22T10:42:44Z</time></trkpt><trkpt lat="41.910193327543375" lon="14.708869848838123"><ele>160.5</ele><time>2026-03-22T10:42:45Z</time></trkpt><trkpt lat="41.91006884958313" lon="14.709129283306602"><ele>162.0</ele><time>2026-03-22T10:42:46Z</time></trkpt><trkpt lat="41.909939839618396" lon="14.709382439613774"><ele>161.0</ele><time>2026-03-22T10:42:47Z</time></trkpt><trkpt lat="41.909814346068366" lon="14.709636733595675"><ele>160.0</ele><time>2026-03-22T10:42:48Z</time></trkpt><trkpt lat="41.90969138540092" lon="14.709888085754029"><ele>160.0</ele><time>2026-03-22T10:42:49Z</time></trkpt><trkpt lat="41.90957311820585" lon="14.710136831241822"><ele>160.0</ele><time>2026-03-22T10:42:50Z</time></trkpt><trkpt lat="41.90946412293377" lon="14.710386254122698"><ele>160.0</ele><time>2026-03-22T10:42:51Z</time></trkpt><trkpt lat="41.90936438772953" lon="14.710640640087746"><ele>159.66666666666669</ele><time>2026-03-22T10:42:52Z</time></trkpt><trkpt lat="41.90928113447069" lon="14.71090041998662"><ele>159.33333333333334</ele><time>2026-03-22T10:42:53Z</time></trkpt><trkpt lat="41.90920117160532" lon="14.711164639361048"><ele>159.0</ele><time>2026-03-22T10:42:54Z</time></trkpt><trkpt lat="41.90912492538571" lon="14.711435075162344"><ele>160.33333333333334</ele><time>2026-03-22T10:42:55Z</time></trkpt><trkpt lat="41.90905998498095" lon="14.711711061825328"><ele>161.66666666666669</ele><time>2026-03-22T10:42:56Z</time></trkpt><trkpt lat="41.90900736016024" lon="14.711994185046535"><ele>163.0</ele><time>2026-03-22T10:42:57Z</time></trkpt><trkpt lat="41.90896460452211" lon="14.712281984354462"><ele>163.66666666666669</ele><time>2026-03-22T10:42:58Z</time></trkpt><trkpt lat="41.9089324878946" lon="14.712572456967765"><ele>164.33333333333334</ele><time>2026-03-22T10:42:59Z</time></trkpt><trkpt lat="41.90891329570064" lon="14.71286564899202"><ele>165.0</ele><time>2026-03-22T10:43:00Z</time></trkpt><trkpt lat="41.908897356095466" lon="14.713161379259429"><ele>165.66666666666666</ele><time>2026-03-22T10:43:01Z</time></trkpt><trkpt lat="41.90888097832742" lon="14.713459591263545"><ele>166.33333333333331</ele><time>2026-03-22T10:43:02Z</time></trkpt><trkpt lat="41.90886130182561" lon="14.713746734307472"><ele>167.0</ele><time>2026-03-22T10:43:03Z</time></trkpt><trkpt lat="41.90883813621304" lon="14.714028243286425"><ele>167.33333333333331</ele><time>2026-03-22T10:43:04Z</time></trkpt><trkpt lat="41.90881080313485" lon="14.714306989297569"><ele>167.66666666666666</ele><time>2026-03-22T10:43:05Z</time></trkpt><trkpt lat="41.90877312921035" lon="14.714575431413804"><ele>168.0</ele><time>2026-03-22T10:43:06Z</time></trkpt><trkpt lat="41.908716603079505" lon="14.714836279011253"><ele>168.66666666666666</ele><time>2026-03-22T10:43:07Z</time></trkpt><trkpt lat="41.908644397034145" lon="14.7150864740805"><ele>169.33333333333331</ele><time>2026-03-22T10:43:08Z</time></trkpt><trkpt lat="41.90856455297138" lon="14.715334208582892"><ele>170.0</ele><time>2026-03-22T10:43:09Z</time></trkpt><trkpt lat="41.90847020170246" lon="14.715573472617718"><ele>170.33333333333331</ele><time>2026-03-22T10:43:10Z</time></trkpt><trkpt lat="41.908357409106486" lon="14.715803249015453"><ele>170.66666666666666</ele><time>2026-03-22T10:43:11Z</time></trkpt><trkpt lat="41.90822327821455" lon="14.716027369764248"><ele>171.0</ele><time>2026-03-22T10:43:12Z</time></trkpt><trkpt lat="41.908081980462335" lon="14.716247472006046"><ele>172.33333333333334</ele><time>2026-03-22T10:43:13Z</time></trkpt><trkpt lat="41.90793740694237" lon="14.716461225865165"><ele>173.66666666666669</ele><time>2026-03-22T10:43:14Z</time></trkpt><trkpt lat="41.907796190382435" lon="14.716682585424053"><ele>175.0</ele><time>2026-03-22T10:43:15Z</time></trkpt><trkpt lat="41.907654179686446" lon="14.716914310248086"><ele>174.5</ele><time>2026-03-22T10:43:16Z</time></trkpt><trkpt lat="41.90750847518419" lon="14.717151450334322"><ele>174.0</ele><time>2026-03-22T10:43:17Z</time></trkpt><trkpt lat="41.9073598354486" lon="14.71738637912937"><ele>174.0</ele><time>2026-03-22T10:43:18Z</time></trkpt><trkpt lat="41.9072091661361" lon="14.717621700215155"><ele>174.0</ele><time>2026-03-22T10:43:19Z</time></trkpt><trkpt lat="41.90705642118524" lon="14.717861407420031"><ele>175.0</ele><time>2026-03-22T10:43:20Z</time></trkpt><trkpt lat="41.90690418859156" lon="14.718100770874027"><ele>176.0</ele><time>2026-03-22T10:43:21Z</time></trkpt><trkpt lat="41.90674875872609" lon="14.718342862629303"><ele>176.0</ele><time>2026-03-22T10:43:22Z</time></trkpt><trkpt lat="41.90659360118772" lon="14.71858909599929"><ele>176.0</ele><time>2026-03-22T10:43:23Z</time></trkpt><trkpt lat="41.90644030295814" lon="14.71883520274602"><ele>176.0</ele><time>2026-03-22T10:43:24Z</time></trkpt><trkpt lat="41.90628901322723" lon="14.719077855443542"><ele>176.0</ele><time>2026-03-22T10:43:25Z</time></trkpt><trkpt lat="41.90614294163966" lon="14.719318096076396"><ele>176.0</ele><time>2026-03-22T10:43:26Z</time></trkpt><trkpt lat="41.906010262709685" lon="14.719554130230415"><ele>176.0</ele><time>2026-03-22T10:43:27Z</time></trkpt><trkpt lat="41.90589947927867" lon="14.71979805163879"><ele>176.0</ele><time>2026-03-22T10:43:28Z</time></trkpt><trkpt lat="41.905807192215825" lon="14.720061176862199"><ele>176.0</ele><time>2026-03-22T10:43:29Z</time></trkpt><trkpt lat="41.90572852031798" lon="14.720331097386198"><ele>176.0</ele><time>2026-03-22T10:43:30Z</time></trkpt><trkpt lat="41.90566305274789" lon="14.72060868100346"><ele>176.0</ele><time>2026-03-22T10:43:31Z</time></trkpt><trkpt lat="41.905617866986944" lon="14.720896613573183"><ele>176.33333333333331</ele><time>2026-03-22T10:43:32Z</time></trkpt><trkpt lat="41.90558758887161" lon="14.721189172636988"><ele>176.66666666666666</ele><time>2026-03-22T10:43:33Z</time></trkpt><trkpt lat="41.905577348619545" lon="14.721489337806224"><ele>177.0</ele><time>2026-03-22T10:43:34Z</time></trkpt><trkpt lat="41.905587486320506" lon="14.72179767736033"><ele>179.0</ele><time>2026-03-22T10:43:35Z</time></trkpt><trkpt lat="41.905607932107685" lon="14.72211161426863"><ele>181.0</ele><time>2026-03-22T10:43:36Z</time></trkpt><trkpt lat="41.90562796314554" lon="14.722433314496882"><ele>182.0</ele><time>2026-03-22T10:43:37Z</time></trkpt><trkpt lat="41.90564429170502" lon="14.722758545070564"><ele>183.0</ele><time>2026-03-22T10:43:38Z</time></trkpt><trkpt lat="41.90566002824749" lon="14.723089095949158"><ele>183.0</ele><time>2026-03-22T10:43:39Z</time></trkpt><trkpt lat="41.9056765814929" lon="14.723421419768071"><ele>183.0</ele><time>2026-03-22T10:43:40Z</time></trkpt><trkpt lat="41.905632702094366" lon="14.723756018530754"><ele>184.0</ele><time>2026-03-22T10:43:41Z</time></trkpt><trkpt lat="41.905649173883766" lon="14.724081635594992"><ele>185.0</ele><time>2026-03-22T10:43:42Z</time></trkpt><trkpt lat="41.905666559356796" lon="14.724404929787571"><ele>185.0</ele><time>2026-03-22T10:43:43Z</time></trkpt><trkpt lat="41.9056768028178" lon="14.724721948881136"><ele>185.0</ele><time>2026-03-22T10:43:44Z</time></trkpt><trkpt lat="41.9056729418728" lon="14.725034196742946"><ele>185.0</ele><time>2026-03-22T10:43:45Z</time></trkpt><trkpt lat="41.905659768807475" lon="14.725343535507358"><ele>185.0</ele><time>2026-03-22T10:43:46Z</time></trkpt><trkpt lat="41.90563652875451" lon="14.725643986167011"><ele>185.0</ele><time>2026-03-22T10:43:47Z</time></trkpt><trkpt lat="41.90559659589651" lon="14.725944056904936"><ele>185.0</ele><time>2026-03-22T10:43:48Z</time></trkpt><trkpt lat="41.905544661001265" lon="14.726254716435301"><ele>185.0</ele><time>2026-03-22T10:43:49Z</time></trkpt><trkpt lat="41.90548578490716" lon="14.726568130218615"><ele>185.0</ele><time>2026-03-22T10:43:50Z</time></trkpt><trkpt lat="41.90542623970966" lon="14.726883069263895"><ele>185.5</ele><time>2026-03-22T10:43:51Z</time></trkpt><trkpt lat="41.90536309780358" lon="14.72720414059587"><ele>186.0</ele><time>2026-03-22T10:43:52Z</time></trkpt><trkpt lat="41.905299425221955" lon="14.72752791036138"><ele>186.0</ele><time>2026-03-22T10:43:53Z</time></trkpt><trkpt lat="41.90523572977585" lon="14.727851796393558"><ele>186.0</ele><time>2026-03-22T10:43:54Z</time></trkpt><trkpt lat="41.90517141230286" lon="14.728178845381834"><ele>186.0</ele><time>2026-03-22T10:43:55Z</time></trkpt><trkpt lat="41.90510692748456" lon="14.728506745309229"><ele>186.0</ele><time>2026-03-22T10:43:56Z</time></trkpt><trkpt lat="41.90504192056286" lon="14.728836050496126"><ele>186.5</ele><time>2026-03-22T10:43:57Z</time></trkpt><trkpt lat="41.90497657295379" lon="14.729166565379158"><ele>187.0</ele><time>2026-03-22T10:43:58Z</time></trkpt><trkpt lat="41.90491138149034" lon="14.729496290513053"><ele>187.0</ele><time>2026-03-22T10:43:59Z</time></trkpt><trkpt lat="41.90484744718908" lon="14.729819657176828"><ele>187.0</ele><time>2026-03-22T10:44:00Z</time></trkpt><trkpt lat="41.90478779135022" lon="14.730121384250033"><ele>187.66666666666669</ele><time>2026-03-22T10:44:01Z</time></trkpt><trkpt lat="41.90473316250047" lon="14.73039768583412"><ele>188.33333333333334</ele><time>2026-03-22T10:44:02Z</time></trkpt><trkpt lat="41.90468151517689" lon="14.730659567643924"><ele>189.0</ele><time>2026-03-22T10:44:03Z</time></trkpt><trkpt lat="41.9046310612119" lon="14.730916692324493"><ele>190.33333333333331</ele><time>2026-03-22T10:44:04Z</time></trkpt><trkpt lat="41.904578455509835" lon="14.731184782737168"><ele>191.66666666666666</ele><time>2026-03-22T10:44:05Z</time></trkpt><trkpt lat="41.904524824095326" lon="14.731458100408554"><ele>193.0</ele><time>2026-03-22T10:44:06Z</time></trkpt><trkpt lat="41.90447107054015" lon="14.73173204053254"><ele>195.33333333333331</ele><time>2026-03-22T10:44:07Z</time></trkpt><trkpt lat="41.904418049445134" lon="14.732002247879105"><ele>197.66666666666669</ele><time>2026-03-22T10:44:08Z</time></trkpt><trkpt lat="41.90436457956913" lon="14.732264661309918"><ele>200.0</ele><time>2026-03-22T10:44:09Z</time></trkpt><trkpt lat="41.904309169180046" lon="14.732528204521424"><ele>197.66666666666669</ele><time>2026-03-22T10:44:10Z</time></trkpt><trkpt lat="41.90425042120355" lon="14.732785760777771"><ele>195.33333333333331</ele><time>2026-03-22T10:44:11Z</time></trkpt><trkpt lat="41.90418415806505" lon="14.733039718955135"><ele>193.0</ele><time>2026-03-22T10:44:12Z</time></trkpt><trkpt lat="41.904108290484324" lon="14.733291416092566"><ele>193.0</ele><time>2026-03-22T10:44:13Z</time></trkpt><trkpt lat="41.90402108133656" lon="14.733535902238755"><ele>193.0</ele><time>2026-03-22T10:44:14Z</time></trkpt><trkpt lat="41.90392487403613" lon="14.733784456581466"><ele>193.0</ele><time>2026-03-22T10:44:15Z</time></trkpt><trkpt lat="41.903819565117594" lon="14.734030580381404"><ele>195.0</ele><time>2026-03-22T10:44:16Z</time></trkpt><trkpt lat="41.90370224149284" lon="14.734266614968032"><ele>197.0</ele><time>2026-03-22T10:44:17Z</time></trkpt><trkpt lat="41.90357673829249" lon="14.734500845743263"><ele>199.0</ele><time>2026-03-22T10:44:18Z</time></trkpt><trkpt lat="41.90344341639014" lon="14.734726774680132"><ele>198.0</ele><time>2026-03-22T10:44:19Z</time></trkpt><trkpt lat="41.90329650355199" lon="14.734945757602977"><ele>197.0</ele><time>2026-03-22T10:44:20Z</time></trkpt><trkpt lat="41.90313734159697" lon="14.735166818957794"><ele>196.0</ele><time>2026-03-22T10:44:21Z</time></trkpt><trkpt lat="41.902972056796024" lon="14.735393155152426"><ele>196.0</ele><time>2026-03-22T10:44:22Z</time></trkpt><trkpt lat="41.90280648930338" lon="14.735623146342228"><ele>196.0</ele><time>2026-03-22T10:44:23Z</time></trkpt><trkpt lat="41.90263896118032" lon="14.735855559423548"><ele>196.5</ele><time>2026-03-22T10:44:24Z</time></trkpt><trkpt lat="41.902466278766" lon="14.736089320749581"><ele>197.0</ele><time>2026-03-22T10:44:25Z</time></trkpt><trkpt lat="41.90229113236899" lon="14.736328606105298"><ele>197.0</ele><time>2026-03-22T10:44:26Z</time></trkpt><trkpt lat="41.90211680768325" lon="14.73656980352983"><ele>197.0</ele><time>2026-03-22T10:44:27Z</time></trkpt><trkpt lat="41.90194170627705" lon="14.736812340963652"><ele>199.5</ele><time>2026-03-22T10:44:28Z</time></trkpt><trkpt lat="41.90176268291534" lon="14.737056346090426"><ele>202.0</ele><time>2026-03-22T10:44:29Z</time></trkpt><trkpt lat="41.90158196587599" lon="14.737299531368844"><ele>202.0</ele><time>2026-03-22T10:44:30Z</time></trkpt><trkpt lat="41.901400552427766" lon="14.737545344028977"><ele>202.0</ele><time>2026-03-22T10:44:31Z</time></trkpt><trkpt lat="41.90122066008925" lon="14.737789095610596"><ele>202.5</ele><time>2026-03-22T10:44:32Z</time></trkpt><trkpt lat="41.90104423876881" lon="14.738026905709548"><ele>203.0</ele><time>2026-03-22T10:44:33Z</time></trkpt><trkpt lat="41.90086878120767" lon="14.738263847921758"><ele>201.0</ele><time>2026-03-22T10:44:34Z</time></trkpt><trkpt lat="41.900698292696376" lon="14.738497695684176"><ele>199.0</ele><time>2026-03-22T10:44:35Z</time></trkpt><trkpt lat="41.90053080612538" lon="14.738726968131376"><ele>199.0</ele><time>2026-03-22T10:44:36Z</time></trkpt><trkpt lat="41.90036534644666" lon="14.738952870007251"><ele>199.0</ele><time>2026-03-22T10:44:37Z</time></trkpt><trkpt lat="41.90020483800928" lon="14.739172011952373"><ele>200.5</ele><time>2026-03-22T10:44:38Z</time></trkpt><trkpt lat="41.90004247505808" lon="14.739395021077536"><ele>202.0</ele><time>2026-03-22T10:44:39Z</time></trkpt><trkpt lat="41.89988065073326" lon="14.739622791088252"><ele>202.0</ele><time>2026-03-22T10:44:40Z</time></trkpt><trkpt lat="41.89972987972552" lon="14.739857259645937"><ele>202.0</ele><time>2026-03-22T10:44:41Z</time></trkpt><trkpt lat="41.89958578610771" lon="14.740104988610097"><ele>205.5</ele><time>2026-03-22T10:44:42Z</time></trkpt><trkpt lat="41.89945647857828" lon="14.740358645783846"><ele>209.0</ele><time>2026-03-22T10:44:43Z</time></trkpt><trkpt lat="41.89933867656989" lon="14.7406123360445"><ele>208.0</ele><time>2026-03-22T10:44:44Z</time></trkpt><trkpt lat="41.89923174276563" lon="14.740873923928214"><ele>207.0</ele><time>2026-03-22T10:44:45Z</time></trkpt><trkpt lat="41.899139752207915" lon="14.741134139194457"><ele>206.0</ele><time>2026-03-22T10:44:46Z</time></trkpt><trkpt lat="41.89906022973592" lon="14.741376328693619"><ele>208.0</ele><time>2026-03-22T10:44:47Z</time></trkpt><trkpt lat="41.89899250812995" lon="14.741606262655045"><ele>210.0</ele><time>2026-03-22T10:44:48Z</time></trkpt><trkpt lat="41.8989374076786" lon="14.74182069049558"><ele>212.0</ele><time>2026-03-22T10:44:49Z</time></trkpt><trkpt lat="41.89889095663075" lon="14.742018530866574"><ele>214.0</ele><time>2026-03-22T10:44:50Z</time></trkpt><trkpt lat="41.89885156106258" lon="14.742193133064426"><ele>216.0</ele><time>2026-03-22T10:44:51Z</time></trkpt><trkpt lat="41.89881863895196" lon="14.742353678161477"><ele>218.0</ele><time>2026-03-22T10:44:52Z</time></trkpt><trkpt lat="41.89879208388327" lon="14.742492586052926"><ele>220.0</ele><time>2026-03-22T10:44:53Z</time></trkpt><trkpt lat="41.89877177168072" lon="14.742606907273556"><ele>219.99999999999997</ele><time>2026-03-22T10:44:54Z</time></trkpt><trkpt lat="41.89876080193898" lon="14.742732862350126"><ele>220.0</ele><time>2026-03-22T10:44:56Z</time></trkpt><trkpt lat="41.89880327433339" lon="14.742814031276954"><ele>220.0</ele><time>2026-03-22T10:44:57Z</time></trkpt><trkpt lat="41.89886783701815" lon="14.742859009463924"><ele>220.0</ele><time>2026-03-22T10:44:58Z</time></trkpt><trkpt lat="41.89894765398386" lon="14.742840052432914"><ele>219.99999999999997</ele><time>2026-03-22T10:44:59Z</time></trkpt><trkpt lat="41.898998782622755" lon="14.742772348988343"><ele>220.0</ele><time>2026-03-22T10:45:00Z</time></trkpt><trkpt lat="41.89904264566898" lon="14.742707698375222"><ele>220.0</ele><time>2026-03-22T10:45:01Z</time></trkpt><trkpt lat="41.89909135810533" lon="14.742622102066743"><ele>220.0</ele><time>2026-03-22T10:45:02Z</time></trkpt><trkpt lat="41.899126650355434" lon="14.742500944839609"><ele>220.0</ele><time>2026-03-22T10:45:03Z</time></trkpt><trkpt lat="41.89918575506808" lon="14.742344878676068"><ele>220.0</ele><time>2026-03-22T10:45:04Z</time></trkpt><trkpt lat="41.89923813253025" lon="14.742220802459022"><ele>220.0</ele><time>2026-03-22T10:45:05Z</time></trkpt><trkpt lat="41.899341373487985" lon="14.742159503391123"><ele>220.99999999999997</ele><time>2026-03-22T10:45:07Z</time></trkpt><trkpt lat="41.89941691134371" lon="14.742237875218281"><ele>222.0</ele><time>2026-03-22T10:45:09Z</time></trkpt><trkpt lat="41.89938247868639" lon="14.74232755113988"><ele>223.0</ele><time>2026-03-22T10:45:10Z</time></trkpt><trkpt lat="41.89935635490899" lon="14.742436375745879"><ele>224.0</ele><time>2026-03-22T10:45:12Z</time></trkpt><trkpt lat="41.89934729297951" lon="14.742534195087478"><ele>224.99999999999997</ele><time>2026-03-22T10:45:13Z</time></trkpt><trkpt lat="41.89932940355704" lon="14.742668516257648"><ele>226.0</ele><time>2026-03-22T10:45:14Z</time></trkpt><trkpt lat="41.89932030671175" lon="14.742804621319168"><ele>229.20000000000002</ele><time>2026-03-22T10:45:15Z</time></trkpt><trkpt lat="41.899332011991454" lon="14.742941373229321"><ele>232.40000000000003</ele><time>2026-03-22T10:45:16Z</time></trkpt><trkpt lat="41.89935980358817" lon="14.74308824109175"><ele>235.6</ele><time>2026-03-22T10:45:17Z</time></trkpt><trkpt lat="41.899392167082944" lon="14.743224793170658"><ele>238.8</ele><time>2026-03-22T10:45:18Z</time></trkpt><trkpt lat="41.899435536473476" lon="14.743352486797757"><ele>242.0</ele><time>2026-03-22T10:45:19Z</time></trkpt><trkpt lat="41.89949297429935" lon="14.743475027182901"><ele>244.5</ele><time>2026-03-22T10:45:20Z</time></trkpt><trkpt lat="41.89958469371839" lon="14.743577700910688"><ele>247.0</ele><time>2026-03-22T10:45:21Z</time></trkpt><trkpt lat="41.899679543928166" lon="14.743682504437453"><ele>249.5</ele><time>2026-03-22T10:45:22Z</time></trkpt><trkpt lat="41.899777760357736" lon="14.743791296457665"><ele>252.0</ele><time>2026-03-22T10:45:23Z</time></trkpt><trkpt lat="41.89987577510252" lon="14.743899865078035"><ele>252.0</ele><time>2026-03-22T10:45:24Z</time></trkpt><trkpt lat="41.899970618994416" lon="14.744004921420887"><ele>252.0</ele><time>2026-03-22T10:45:25Z</time></trkpt><trkpt lat="41.90005236491986" lon="14.74411718591349"><ele>252.0</ele><time>2026-03-22T10:45:26Z</time></trkpt><trkpt lat="41.90010299568729" lon="14.744251359142972"><ele>252.0</ele><time>2026-03-22T10:45:27Z</time></trkpt><trkpt lat="41.900131351673465" lon="14.74438849907202"><ele>254.2</ele><time>2026-03-22T10:45:28Z</time></trkpt><trkpt lat="41.90012533051031" lon="14.744522591925769"><ele>256.4</ele><time>2026-03-22T10:45:29Z</time></trkpt><trkpt lat="41.90009297278732" lon="14.74465029146519"><ele>258.6</ele><time>2026-03-22T10:45:30Z</time></trkpt><trkpt lat="41.900042249856455" lon="14.74479011300529"><ele>260.8</ele><time>2026-03-22T10:45:31Z</time></trkpt><trkpt lat="41.89999020553816" lon="14.744953457270707"><ele>263.0</ele><time>2026-03-22T10:45:32Z</time></trkpt><trkpt lat="41.89994489438055" lon="14.745126546663453"><ele>264.6</ele><time>2026-03-22T10:45:33Z</time></trkpt><trkpt lat="41.89991854436009" lon="14.745275145841264"><ele>266.20000000000005</ele><time>2026-03-22T10:45:34Z</time></trkpt><trkpt lat="41.89990147637252" lon="14.745406245767597"><ele>267.8</ele><time>2026-03-22T10:45:35Z</time></trkpt><trkpt lat="41.899906090192545" lon="14.74552519802631"><ele>269.40000000000003</ele><time>2026-03-22T10:45:36Z</time></trkpt><trkpt lat="41.899937541410125" lon="14.745637938499836"><ele>271.0</ele><time>2026-03-22T10:45:37Z</time></trkpt><trkpt lat="41.899990276553154" lon="14.745747257548947"><ele>271.0</ele><time>2026-03-22T10:45:38Z</time></trkpt><trkpt lat="41.90007233043432" lon="14.745840350857533"><ele>271.0</ele><time>2026-03-22T10:45:39Z</time></trkpt><trkpt lat="41.90017047899547" lon="14.745926375272216"><ele>271.0</ele><time>2026-03-22T10:45:40Z</time></trkpt><trkpt lat="41.900279136996225" lon="14.74601283394581"><ele>271.0</ele><time>2026-03-22T10:45:41Z</time></trkpt><trkpt lat="41.900383139864395" lon="14.746101892315545"><ele>275.2</ele><time>2026-03-22T10:45:42Z</time></trkpt><trkpt lat="41.900470061305064" lon="14.746171637228999"><ele>279.40000000000003</ele><time>2026-03-22T10:45:43Z</time></trkpt><trkpt lat="41.9005544916672" lon="14.74621382985278"><ele>283.6</ele><time>2026-03-22T10:45:44Z</time></trkpt><trkpt lat="41.90064712892865" lon="14.746216048016867"><ele>287.8</ele><time>2026-03-22T10:45:45Z</time></trkpt><trkpt lat="41.90074951538672" lon="14.746185049698724"><ele>292.0</ele><time>2026-03-22T10:45:46Z</time></trkpt><trkpt lat="41.90085907211799" lon="14.74613425642192"><ele>295.8</ele><time>2026-03-22T10:45:47Z</time></trkpt><trkpt lat="41.90097161604723" lon="14.7460836229073"><ele>299.6</ele><time>2026-03-22T10:45:48Z</time></trkpt><trkpt lat="41.90106665861435" lon="14.746055850105732"><ele>303.40000000000003</ele><time>2026-03-22T10:45:49Z</time></trkpt><trkpt lat="41.90113868437988" lon="14.746045290779263"><ele>307.2</ele><time>2026-03-22T10:45:50Z</time></trkpt><trkpt lat="41.90125415938363" lon="14.746097716714914"><ele>311.0</ele><time>2026-03-22T10:45:52Z</time></trkpt><trkpt lat="41.90128746033234" lon="14.74617637209942"><ele>311.0</ele><time>2026-03-22T10:45:53Z</time></trkpt><trkpt lat="41.901290633877224" lon="14.746285430214972"><ele>311.0</ele><time>2026-03-22T10:45:54Z</time></trkpt><trkpt lat="41.901277794582285" lon="14.74640077222864"><ele>311.0</ele><time>2026-03-22T10:45:55Z</time></trkpt><trkpt lat="41.90125420797716" lon="14.746521222321483"><ele>311.0</ele><time>2026-03-22T10:45:56Z</time></trkpt><trkpt lat="41.90123676895966" lon="14.746642338658411"><ele>311.0</ele><time>2026-03-22T10:45:57Z</time></trkpt><trkpt lat="41.901241318038714" lon="14.746763511928915"><ele>311.0</ele><time>2026-03-22T10:45:58Z</time></trkpt><trkpt lat="41.901267496553835" lon="14.746863797359104"><ele>311.0</ele><time>2026-03-22T10:45:59Z</time></trkpt><trkpt lat="41.901316875048806" lon="14.74693889355972"><ele>311.0</ele><time>2026-03-22T10:46:00Z</time></trkpt><trkpt lat="41.90138868148219" lon="14.746978876076772"><ele>311.0</ele><time>2026-03-22T10:46:01Z</time></trkpt><trkpt lat="41.901469759517624" lon="14.746979149320195"><ele>311.0</ele><time>2026-03-22T10:46:02Z</time></trkpt><trkpt lat="41.901544824029685" lon="14.746908682898804"><ele>311.0</ele><time>2026-03-22T10:46:03Z</time></trkpt><trkpt lat="41.90171455321455" lon="14.746781388002468"><ele>311.8</ele><time>2026-03-22T10:46:05Z</time></trkpt><trkpt lat="41.901809433293" lon="14.74671863379863"><ele>312.6</ele><time>2026-03-22T10:46:06Z</time></trkpt><trkpt lat="41.901909029142665" lon="14.746699464836066"><ele>313.4</ele><time>2026-03-22T10:46:07Z</time></trkpt><trkpt lat="41.90201135237181" lon="14.74670817781208"><ele>314.2</ele><time>2026-03-22T10:46:08Z</time></trkpt><trkpt lat="41.902095548822466" lon="14.746791550259939"><ele>315.0</ele><time>2026-03-22T10:46:09Z</time></trkpt><trkpt lat="41.902162369880394" lon="14.746871693481346"><ele>318.6</ele><time>2026-03-22T10:46:10Z</time></trkpt><trkpt lat="41.90221594083881" lon="14.746972546413845"><ele>322.2</ele><time>2026-03-22T10:46:11Z</time></trkpt><trkpt lat="41.90225057968332" lon="14.747104564990453"><ele>325.79999999999995</ele><time>2026-03-22T10:46:12Z</time></trkpt><trkpt lat="41.90229795906649" lon="14.7472524330603"><ele>329.4</ele><time>2026-03-22T10:46:13Z</time></trkpt><trkpt lat="41.90234055339276" lon="14.747408935583108"><ele>333.0</ele><time>2026-03-22T10:46:14Z</time></trkpt><trkpt lat="41.90239640511762" lon="14.747542648634445"><ele>333.0</ele><time>2026-03-22T10:46:15Z</time></trkpt><trkpt lat="41.90244815587227" lon="14.747625136944919"><ele>333.0</ele><time>2026-03-22T10:46:16Z</time></trkpt><trkpt lat="41.90255133116118" lon="14.747650216471481"><ele>333.0</ele><time>2026-03-22T10:46:17Z</time></trkpt><trkpt lat="41.90264549610051" lon="14.747674445604193"><ele>333.0</ele><time>2026-03-22T10:46:18Z</time></trkpt><trkpt lat="41.90274955795631" lon="14.747681417326383"><ele>333.0</ele><time>2026-03-22T10:46:19Z</time></trkpt><trkpt lat="41.90283406257986" lon="14.747760612423015"><ele>335.75</ele><time>2026-03-22T10:46:20Z</time></trkpt><trkpt lat="41.90291703514443" lon="14.747856571093553"><ele>338.5</ele><time>2026-03-22T10:46:21Z</time></trkpt><trkpt lat="41.90301256186713" lon="14.747976750561223"><ele>341.25</ele><time>2026-03-22T10:46:22Z</time></trkpt><trkpt lat="41.90309828823115" lon="14.748126203933424"><ele>344.0</ele><time>2026-03-22T10:46:23Z</time></trkpt><trkpt lat="41.903181819743715" lon="14.748284745605744"><ele>344.0</ele><time>2026-03-22T10:46:24Z</time></trkpt><trkpt lat="41.90326403444775" lon="14.748440119269956"><ele>344.0</ele><time>2026-03-22T10:46:25Z</time></trkpt><trkpt lat="41.90334775917734" lon="14.748595043429194"><ele>344.0</ele><time>2026-03-22T10:46:26Z</time></trkpt><trkpt lat="41.90343173058334" lon="14.748756851917422"><ele>344.0</ele><time>2026-03-22T10:46:27Z</time></trkpt><trkpt lat="41.903502093933454" lon="14.748911514970702"><ele>346.0</ele><time>2026-03-22T10:46:28Z</time></trkpt><trkpt lat="41.90354217599202" lon="14.749035644604485"><ele>348.0</ele><time>2026-03-22T10:46:29Z</time></trkpt><trkpt lat="41.90357053838573" lon="14.74915883776672"><ele>350.0</ele><time>2026-03-22T10:46:30Z</time></trkpt><trkpt lat="41.903599485552135" lon="14.7493028544174"><ele>352.0</ele><time>2026-03-22T10:46:31Z</time></trkpt><trkpt lat="41.90362405627145" lon="14.749464755438533"><ele>354.0</ele><time>2026-03-22T10:46:32Z</time></trkpt><trkpt lat="41.90365022619608" lon="14.749645250617018"><ele>355.0</ele><time>2026-03-22T10:46:33Z</time></trkpt><trkpt lat="41.90367980364274" lon="14.749826257465513"><ele>356.0</ele><time>2026-03-22T10:46:34Z</time></trkpt><trkpt lat="41.90372213997546" lon="14.74999781515197"><ele>357.0</ele><time>2026-03-22T10:46:35Z</time></trkpt><trkpt lat="41.90378335704348" lon="14.750164771019476"><ele>358.0</ele><time>2026-03-22T10:46:36Z</time></trkpt><trkpt lat="41.90385812545986" lon="14.750322765588047"><ele>358.75</ele><time>2026-03-22T10:46:37Z</time></trkpt><trkpt lat="41.90394742428649" lon="14.750465848993285"><ele>359.5</ele><time>2026-03-22T10:46:38Z</time></trkpt><trkpt lat="41.90404745723713" lon="14.750599684701134"><ele>360.25</ele><time>2026-03-22T10:46:39Z</time></trkpt><trkpt lat="41.90414375203708" lon="14.750733836667376"><ele>361.0</ele><time>2026-03-22T10:46:40Z</time></trkpt><trkpt lat="41.904244055936296" lon="14.750858242437282"><ele>362.75</ele><time>2026-03-22T10:46:41Z</time></trkpt><trkpt lat="41.9043556844858" lon="14.750930301807635"><ele>364.5</ele><time>2026-03-22T10:46:42Z</time></trkpt><trkpt lat="41.904459658860496" lon="14.75099074345857"><ele>366.25</ele><time>2026-03-22T10:46:43Z</time></trkpt><trkpt lat="41.904578513669094" lon="14.751010417681394"><ele>368.0</ele><time>2026-03-22T10:46:44Z</time></trkpt><trkpt lat="41.90470163933706" lon="14.751029466628712"><ele>370.75</ele><time>2026-03-22T10:46:45Z</time></trkpt><trkpt lat="41.904801946754674" lon="14.751119129984279"><ele>373.5</ele><time>2026-03-22T10:46:46Z</time></trkpt><trkpt lat="41.90487493584454" lon="14.751251778234078"><ele>376.25</ele><time>2026-03-22T10:46:47Z</time></trkpt><trkpt lat="41.90495591912603" lon="14.751394084998196"><ele>379.0</ele><time>2026-03-22T10:46:48Z</time></trkpt><trkpt lat="41.90504383906864" lon="14.751545138620571"><ele>379.75</ele><time>2026-03-22T10:46:49Z</time></trkpt><trkpt lat="41.90514325886209" lon="14.751696045243024"><ele>380.5</ele><time>2026-03-22T10:46:50Z</time></trkpt><trkpt lat="41.90526930729118" lon="14.751792923314111"><ele>381.25</ele><time>2026-03-22T10:46:51Z</time></trkpt><trkpt lat="41.905388357531045" lon="14.751886938093875"><ele>382.0</ele><time>2026-03-22T10:46:52Z</time></trkpt><trkpt lat="41.90552461810142" lon="14.751950543804677"><ele>385.0</ele><time>2026-03-22T10:46:53Z</time></trkpt><trkpt lat="41.90568625300215" lon="14.751988786615096"><ele>388.0</ele><time>2026-03-22T10:46:54Z</time></trkpt><trkpt lat="41.90585792741013" lon="14.752009360731812"><ele>391.0</ele><time>2026-03-22T10:46:55Z</time></trkpt><trkpt lat="41.90602406041365" lon="14.75202545897691"><ele>391.6666666666667</ele><time>2026-03-22T10:46:56Z</time></trkpt><trkpt lat="41.90619406594515" lon="14.752050476054423"><ele>392.33333333333337</ele><time>2026-03-22T10:46:57Z</time></trkpt><trkpt lat="41.906369609197306" lon="14.752081848190826"><ele>393.0</ele><time>2026-03-22T10:46:58Z</time></trkpt><trkpt lat="41.90655583807311" lon="14.752114860248955"><ele>394.0</ele><time>2026-03-22T10:46:59Z</time></trkpt><trkpt lat="41.90674889584836" lon="14.752144389259534"><ele>395.0</ele><time>2026-03-22T10:47:00Z</time></trkpt><trkpt lat="41.906943533196866" lon="14.752175617259748"><ele>396.0</ele><time>2026-03-22T10:47:01Z</time></trkpt><trkpt lat="41.90713359695943" lon="14.752207905667476"><ele>396.0</ele><time>2026-03-22T10:47:02Z</time></trkpt><trkpt lat="41.907308317866466" lon="14.752235200492686"><ele>396.0</ele><time>2026-03-22T10:47:03Z</time></trkpt><trkpt lat="41.90745171791954" lon="14.75226393509901"><ele>396.0</ele><time>2026-03-22T10:47:04Z</time></trkpt><trkpt lat="41.90758629202491" lon="14.75230724129096"><ele>398.0</ele><time>2026-03-22T10:47:05Z</time></trkpt><trkpt lat="41.90772068347499" lon="14.75239753560266"><ele>400.0</ele><time>2026-03-22T10:47:06Z</time></trkpt><trkpt lat="41.90786978041635" lon="14.752464679257914"><ele>402.0</ele><time>2026-03-22T10:47:07Z</time></trkpt><trkpt lat="41.90800771098951" lon="14.752553282341946"><ele>402.0</ele><time>2026-03-22T10:47:08Z</time></trkpt><trkpt lat="41.90813823614415" lon="14.752635123939871"><ele>402.0</ele><time>2026-03-22T10:47:09Z</time></trkpt><trkpt lat="41.908240687796685" lon="14.75270148709115"><ele>402.0</ele><time>2026-03-22T10:47:10Z</time></trkpt><trkpt lat="41.90832894455309" lon="14.752752517976118"><ele>402.0</ele><time>2026-03-22T10:47:11Z</time></trkpt><trkpt lat="41.90841875792011" lon="14.752789703352438"><ele>402.0</ele><time>2026-03-22T10:47:12Z</time></trkpt><trkpt lat="41.908513106107506" lon="14.75279172855333"><ele>405.20000000000005</ele><time>2026-03-22T10:47:13Z</time></trkpt><trkpt lat="41.90860337830904" lon="14.752738722448674"><ele>408.4</ele><time>2026-03-22T10:47:14Z</time></trkpt><trkpt lat="41.9087039047581" lon="14.752698320310305"><ele>411.6</ele><time>2026-03-22T10:47:15Z</time></trkpt><trkpt lat="41.90878298215968" lon="14.752629585539449"><ele>414.79999999999995</ele><time>2026-03-22T10:47:16Z</time></trkpt><trkpt lat="41.90884408374506" lon="14.752590993615028"><ele>418.0</ele><time>2026-03-22T10:47:17Z</time></trkpt><trkpt lat="41.908935338777326" lon="14.752609636847247"><ele>420.0</ele><time>2026-03-22T10:47:19Z</time></trkpt><trkpt lat="41.90893231160017" lon="14.752747784122919"><ele>422.0</ele><time>2026-03-22T10:47:21Z</time></trkpt><trkpt lat="41.908857315410366" lon="14.752806744595675"><ele>423.99999999999994</ele><time>2026-03-22T10:47:23Z</time></trkpt><trkpt lat="41.90878161492892" lon="14.75294088167756"><ele>426.0</ele><time>2026-03-22T10:47:25Z</time></trkpt><trkpt lat="41.90873669024693" lon="14.753028659700572"><ele>428.0</ele><time>2026-03-22T10:47:26Z</time></trkpt><trkpt lat="41.908676464308265" lon="14.753142179757722"><ele>428.0</ele><time>2026-03-22T10:47:27Z</time></trkpt><trkpt lat="41.90861212991487" lon="14.753261155664081"><ele>427.99999999999994</ele><time>2026-03-22T10:47:28Z</time></trkpt><trkpt lat="41.90855010448573" lon="14.753375489094559"><ele>427.99999999999994</ele><time>2026-03-22T10:47:29Z</time></trkpt><trkpt lat="41.90848403681649" lon="14.75349679398896"><ele>428.0</ele><time>2026-03-22T10:47:30Z</time></trkpt><trkpt lat="41.90841505542561" lon="14.753621082058533"><ele>428.0</ele><time>2026-03-22T10:47:31Z</time></trkpt><trkpt lat="41.90835474335395" lon="14.753748778215652"><ele>427.49999999999994</ele><time>2026-03-22T10:47:32Z</time></trkpt><trkpt lat="41.90832318724348" lon="14.753861655158516"><ele>427.0</ele><time>2026-03-22T10:47:33Z</time></trkpt><trkpt lat="41.90830645450753" lon="14.75396224558497"><ele>426.5</ele><time>2026-03-22T10:47:34Z</time></trkpt><trkpt lat="41.90829963951957" lon="14.754058424983645"><ele>426.0</ele><time>2026-03-22T10:47:35Z</time></trkpt><trkpt lat="41.90831578719208" lon="14.754160073808574"><ele>425.49999999999994</ele><time>2026-03-22T10:47:36Z</time></trkpt><trkpt lat="41.908328310795326" lon="14.754273974750566"><ele>425.0</ele><time>2026-03-22T10:47:38Z</time></trkpt><trkpt lat="41.90829498033907" lon="14.754365552245511"><ele>427.75</ele><time>2026-03-22T10:47:40Z</time></trkpt><trkpt lat="41.90823917867341" lon="14.754469811252902"><ele>430.5</ele><time>2026-03-22T10:47:43Z</time></trkpt><trkpt lat="41.90813580604638" lon="14.754525907993642"><ele>433.25</ele><time>2026-03-22T10:47:45Z</time></trkpt><trkpt lat="41.90795356355162" lon="14.754620570286773"><ele>436.0</ele><time>2026-03-22T10:47:47Z</time></trkpt><trkpt lat="41.907851837773556" lon="14.754614516098728"><ele>436.0</ele><time>2026-03-22T10:47:48Z</time></trkpt><trkpt lat="41.9077333267833" lon="14.75457551788761"><ele>436.0</ele><time>2026-03-22T10:47:49Z</time></trkpt><trkpt lat="41.907604712038406" lon="14.754544268209377"><ele>436.0</ele><time>2026-03-22T10:47:50Z</time></trkpt><trkpt lat="41.90749478106196" lon="14.75451742281328"><ele>436.0</ele><time>2026-03-22T10:47:51Z</time></trkpt><trkpt lat="41.907398744658124" lon="14.754543611637558"><ele>435.0</ele><time>2026-03-22T10:47:52Z</time></trkpt><trkpt lat="41.90729497275857" lon="14.754592826803101"><ele>434.0</ele><time>2026-03-22T10:47:53Z</time></trkpt><trkpt lat="41.907207285888255" lon="14.754721520132241"><ele>433.0</ele><time>2026-03-22T10:47:54Z</time></trkpt><trkpt lat="41.907133280268816" lon="14.754889332986378"><ele>432.0</ele><time>2026-03-22T10:47:55Z</time></trkpt><trkpt lat="41.90706886605468" lon="14.755084656636653"><ele>433.5</ele><time>2026-03-22T10:47:56Z</time></trkpt><trkpt lat="41.90700369419173" lon="14.755265636906795"><ele>435.0</ele><time>2026-03-22T10:47:57Z</time></trkpt><trkpt lat="41.90694423658251" lon="14.755417154862691"><ele>436.5</ele><time>2026-03-22T10:47:58Z</time></trkpt><trkpt lat="41.90688745329692" lon="14.755545748706593"><ele>438.0</ele><time>2026-03-22T10:47:59Z</time></trkpt><trkpt lat="41.90681033259951" lon="14.755676547300936"><ele>438.0</ele><time>2026-03-22T10:48:00Z</time></trkpt><trkpt lat="41.90674520791873" lon="14.75583070421978"><ele>438.0</ele><time>2026-03-22T10:48:01Z</time></trkpt><trkpt lat="41.906703179441394" lon="14.756001104312247"><ele>438.0</ele><time>2026-03-22T10:48:02Z</time></trkpt><trkpt lat="41.90668365275044" lon="14.756185689818214"><ele>438.0</ele><time>2026-03-22T10:48:03Z</time></trkpt><trkpt lat="41.90665583816535" lon="14.75633697623578"><ele>435.59999999999997</ele><time>2026-03-22T10:48:04Z</time></trkpt><trkpt lat="41.906615702120085" lon="14.756466880348594"><ele>433.19999999999993</ele><time>2026-03-22T10:48:05Z</time></trkpt><trkpt lat="41.90654753039045" lon="14.756554177747146"><ele>430.8</ele><time>2026-03-22T10:48:06Z</time></trkpt><trkpt lat="41.90646641714702" lon="14.756624916200929"><ele>428.4</ele><time>2026-03-22T10:48:07Z</time></trkpt><trkpt lat="41.90636214924757" lon="14.75670821046827"><ele>426.0</ele><time>2026-03-22T10:48:08Z</time></trkpt><trkpt lat="41.90627213090695" lon="14.756790068317752"><ele>428.5</ele><time>2026-03-22T10:48:09Z</time></trkpt><trkpt lat="41.906183894064306" lon="14.756905499208857"><ele>431.0</ele><time>2026-03-22T10:48:10Z</time></trkpt><trkpt lat="41.90611353865031" lon="14.75706265695648"><ele>433.5</ele><time>2026-03-22T10:48:11Z</time></trkpt><trkpt lat="41.90605876220083" lon="14.757225552936102"><ele>436.0</ele><time>2026-03-22T10:48:12Z</time></trkpt><trkpt lat="41.905990337671355" lon="14.757386428539089"><ele>436.0</ele><time>2026-03-22T10:48:13Z</time></trkpt><trkpt lat="41.905912201076546" lon="14.757552392534528"><ele>436.0</ele><time>2026-03-22T10:48:14Z</time></trkpt><trkpt lat="41.9058268575314" lon="14.757718077067072"><ele>436.0</ele><time>2026-03-22T10:48:15Z</time></trkpt><trkpt lat="41.9057327421251" lon="14.757884558081061"><ele>430.33333333333337</ele><time>2026-03-22T10:48:16Z</time></trkpt><trkpt lat="41.90563678767676" lon="14.758047630143047"><ele>424.66666666666663</ele><time>2026-03-22T10:48:17Z</time></trkpt><trkpt lat="41.905534489026564" lon="14.758191115463516"><ele>419.0</ele><time>2026-03-22T10:48:18Z</time></trkpt><trkpt lat="41.90542040048751" lon="14.758325180325002"><ele>419.0</ele><time>2026-03-22T10:48:19Z</time></trkpt><trkpt lat="41.90529879266609" lon="14.758450889697535"><ele>419.0</ele><time>2026-03-22T10:48:20Z</time></trkpt><trkpt lat="41.90517284709104" lon="14.758570539352108"><ele>419.0</ele><time>2026-03-22T10:48:21Z</time></trkpt><trkpt lat="41.90504907687068" lon="14.758678500877014"><ele>418.5</ele><time>2026-03-22T10:48:22Z</time></trkpt><trkpt lat="41.90492275433611" lon="14.758768434783338"><ele>418.0</ele><time>2026-03-22T10:48:23Z</time></trkpt><trkpt lat="41.90478735960351" lon="14.758854760630218"><ele>417.5</ele><time>2026-03-22T10:48:24Z</time></trkpt><trkpt lat="41.904657471231495" lon="14.758935168067234"><ele>417.0</ele><time>2026-03-22T10:48:25Z</time></trkpt><trkpt lat="41.904540473847725" lon="14.75901055001513"><ele>417.0</ele><time>2026-03-22T10:48:26Z</time></trkpt><trkpt lat="41.9044330551373" lon="14.75910115960517"><ele>417.0</ele><time>2026-03-22T10:48:27Z</time></trkpt><trkpt lat="41.90433908153248" lon="14.759222986911439"><ele>417.0</ele><time>2026-03-22T10:48:28Z</time></trkpt><trkpt lat="41.90426371338169" lon="14.759393119477306"><ele>417.0</ele><time>2026-03-22T10:48:29Z</time></trkpt><trkpt lat="41.904205883952685" lon="14.759587429763918"><ele>413.66666666666663</ele><time>2026-03-22T10:48:30Z</time></trkpt><trkpt lat="41.90415222134539" lon="14.759785052837703"><ele>410.3333333333333</ele><time>2026-03-22T10:48:31Z</time></trkpt><trkpt lat="41.904097961476836" lon="14.759994725759055"><ele>407.0</ele><time>2026-03-22T10:48:32Z</time></trkpt><trkpt lat="41.90404581719275" lon="14.760196223778374"><ele>405.66666666666663</ele><time>2026-03-22T10:48:33Z</time></trkpt><trkpt lat="41.90400906914176" lon="14.760392489706744"><ele>404.33333333333337</ele><time>2026-03-22T10:48:34Z</time></trkpt><trkpt lat="41.90400669671475" lon="14.760601424884376"><ele>403.0</ele><time>2026-03-22T10:48:35Z</time></trkpt><trkpt lat="41.90400534510235" lon="14.760810288098938"><ele>403.0</ele><time>2026-03-22T10:48:36Z</time></trkpt><trkpt lat="41.904007198771914" lon="14.761027150563558"><ele>403.0</ele><time>2026-03-22T10:48:37Z</time></trkpt><trkpt lat="41.90401040486003" lon="14.761237854425902"><ele>403.0</ele><time>2026-03-22T10:48:38Z</time></trkpt><trkpt lat="41.90400442220444" lon="14.761388936562076"><ele>403.0</ele><time>2026-03-22T10:48:39Z</time></trkpt><trkpt lat="41.90399560815943" lon="14.761489713920923"><ele>403.00000000000006</ele><time>2026-03-22T10:48:40Z</time></trkpt><trkpt lat="41.90398463636167" lon="14.761586685356374"><ele>403.0</ele><time>2026-03-22T10:48:42Z</time></trkpt><trkpt lat="41.90397328837183" lon="14.761686791775226"><ele>403.0</ele><time>2026-03-22T10:48:57Z</time></trkpt><trkpt lat="41.9039587378265" lon="14.761815149680409"><ele>403.0</ele><time>2026-03-22T10:49:11Z</time></trkpt><trkpt lat="41.90394835638002" lon="14.761898633167188"><ele>403.00000000000006</ele><time>2026-03-22T10:49:12Z</time></trkpt><trkpt lat="41.903932927831285" lon="14.762014360527736"><ele>403.0</ele><time>2026-03-22T10:49:13Z</time></trkpt><trkpt lat="41.903914634407606" lon="14.762139122920024"><ele>403.0</ele><time>2026-03-22T10:49:14Z</time></trkpt><trkpt lat="41.90389361148403" lon="14.762271101350944"><ele>403.0</ele><time>2026-03-22T10:49:15Z</time></trkpt><trkpt lat="41.90385685669755" lon="14.762398299327788"><ele>403.0</ele><time>2026-03-22T10:49:16Z</time></trkpt><trkpt lat="41.90379972239084" lon="14.76251945414267"><ele>403.0</ele><time>2026-03-22T10:49:17Z</time></trkpt><trkpt lat="41.90373219491812" lon="14.762646246819548"><ele>403.0</ele><time>2026-03-22T10:49:18Z</time></trkpt><trkpt lat="41.903660052140495" lon="14.762774958918191"><ele>403.25</ele><time>2026-03-22T10:49:19Z</time></trkpt><trkpt lat="41.903581680660125" lon="14.762914780219786"><ele>403.5</ele><time>2026-03-22T10:49:20Z</time></trkpt><trkpt lat="41.90350286459584" lon="14.763058737876582"><ele>403.75</ele><time>2026-03-22T10:49:21Z</time></trkpt><trkpt lat="41.90342163502084" lon="14.76320710409094"><ele>404.0</ele><time>2026-03-22T10:49:22Z</time></trkpt><trkpt lat="41.90333756642637" lon="14.763355743617879"><ele>400.0</ele><time>2026-03-22T10:49:23Z</time></trkpt><trkpt lat="41.90325048098348" lon="14.76350645507459"><ele>396.0</ele><time>2026-03-22T10:49:24Z</time></trkpt><trkpt lat="41.90316469004333" lon="14.76366045935582"><ele>392.0</ele><time>2026-03-22T10:49:25Z</time></trkpt><trkpt lat="41.903081786050656" lon="14.763813616318016"><ele>388.0</ele><time>2026-03-22T10:49:26Z</time></trkpt><trkpt lat="41.90300014944254" lon="14.763964818058193"><ele>388.0</ele><time>2026-03-22T10:49:27Z</time></trkpt><trkpt lat="41.9029152280982" lon="14.764112845935685"><ele>388.0</ele><time>2026-03-22T10:49:28Z</time></trkpt><trkpt lat="41.90283032797039" lon="14.764265980588423"><ele>388.0</ele><time>2026-03-22T10:49:29Z</time></trkpt><trkpt lat="41.90275018788851" lon="14.76441736239846"><ele>388.0</ele><time>2026-03-22T10:49:30Z</time></trkpt><trkpt lat="41.90267147415119" lon="14.764570550168804"><ele>388.25</ele><time>2026-03-22T10:49:31Z</time></trkpt><trkpt lat="41.9026011594957" lon="14.764730896952779"><ele>388.5</ele><time>2026-03-22T10:49:32Z</time></trkpt><trkpt lat="41.902546953902764" lon="14.764894578245187"><ele>388.75</ele><time>2026-03-22T10:49:33Z</time></trkpt><trkpt lat="41.902506792313524" lon="14.765053201133574"><ele>389.0</ele><time>2026-03-22T10:49:34Z</time></trkpt><trkpt lat="41.90247928390986" lon="14.765218828889557"><ele>388.5</ele><time>2026-03-22T10:49:35Z</time></trkpt><trkpt lat="41.902483132789136" lon="14.765406912594678"><ele>388.0</ele><time>2026-03-22T10:49:36Z</time></trkpt><trkpt lat="41.90252689182213" lon="14.7655961941197"><ele>387.5</ele><time>2026-03-22T10:49:37Z</time></trkpt><trkpt lat="41.90259633961216" lon="14.765781308171169"><ele>387.0</ele><time>2026-03-22T10:49:38Z</time></trkpt><trkpt lat="41.902654762939875" lon="14.765950366530928"><ele>386.75</ele><time>2026-03-22T10:49:39Z</time></trkpt><trkpt lat="41.90268869506116" lon="14.766114858394342"><ele>386.5</ele><time>2026-03-22T10:49:40Z</time></trkpt><trkpt lat="41.902684118978996" lon="14.766256974569819"><ele>386.25</ele><time>2026-03-22T10:49:41Z</time></trkpt><trkpt lat="41.9026621906974" lon="14.76639494386434"><ele>386.0</ele><time>2026-03-22T10:49:42Z</time></trkpt><trkpt lat="41.902609493025615" lon="14.76653707802059"><ele>381.0</ele><time>2026-03-22T10:49:43Z</time></trkpt><trkpt lat="41.9025535058357" lon="14.76670142274201"><ele>376.0</ele><time>2026-03-22T10:49:44Z</time></trkpt><trkpt lat="41.90251696130253" lon="14.76686503534335"><ele>371.0</ele><time>2026-03-22T10:49:45Z</time></trkpt><trkpt lat="41.90251336266313" lon="14.767028209238767"><ele>366.0</ele><time>2026-03-22T10:49:46Z</time></trkpt><trkpt lat="41.90257790331424" lon="14.767212027107156"><ele>366.5</ele><time>2026-03-22T10:49:47Z</time></trkpt><trkpt lat="41.90263578007195" lon="14.767388708582589"><ele>367.0</ele><time>2026-03-22T10:49:48Z</time></trkpt><trkpt lat="41.902696336952175" lon="14.767567844803557"><ele>367.5</ele><time>2026-03-22T10:49:49Z</time></trkpt><trkpt lat="41.90275930321987" lon="14.767753671905112"><ele>368.0</ele><time>2026-03-22T10:49:50Z</time></trkpt><trkpt lat="41.90282414762312" lon="14.767945042229917"><ele>368.0</ele><time>2026-03-22T10:49:51Z</time></trkpt><trkpt lat="41.90288937811067" lon="14.768137549264814"><ele>368.0</ele><time>2026-03-22T10:49:52Z</time></trkpt><trkpt lat="41.90295213901813" lon="14.768327601371455"><ele>368.0</ele><time>2026-03-22T10:49:53Z</time></trkpt><trkpt lat="41.9030118018673" lon="14.768506904579978"><ele>369.25</ele><time>2026-03-22T10:49:54Z</time></trkpt><trkpt lat="41.90306540872864" lon="14.76866924196232"><ele>370.5</ele><time>2026-03-22T10:49:55Z</time></trkpt><trkpt lat="41.90310375150037" lon="14.768823009447036"><ele>371.75</ele><time>2026-03-22T10:49:56Z</time></trkpt><trkpt lat="41.9031173741138" lon="14.768977911470575"><ele>373.0</ele><time>2026-03-22T10:49:57Z</time></trkpt><trkpt lat="41.90310319954805" lon="14.769143855593946"><ele>373.0</ele><time>2026-03-22T10:49:58Z</time></trkpt><trkpt lat="41.903062880472234" lon="14.769315872698224"><ele>373.0</ele><time>2026-03-22T10:49:59Z</time></trkpt><trkpt lat="41.903005720117704" lon="14.769495897302882"><ele>373.0</ele><time>2026-03-22T10:50:00Z</time></trkpt><trkpt lat="41.902937750117005" lon="14.769683275183391"><ele>373.0</ele><time>2026-03-22T10:50:01Z</time></trkpt><trkpt lat="41.902859277955486" lon="14.769874541244167"><ele>375.66666666666663</ele><time>2026-03-22T10:50:02Z</time></trkpt><trkpt lat="41.90278699519398" lon="14.770061874173674"><ele>378.3333333333333</ele><time>2026-03-22T10:50:03Z</time></trkpt><trkpt lat="41.90273501879325" lon="14.77025826807955"><ele>381.0</ele><time>2026-03-22T10:50:04Z</time></trkpt><trkpt lat="41.90271283193621" lon="14.770482244470688"><ele>381.0</ele><time>2026-03-22T10:50:05Z</time></trkpt><trkpt lat="41.90270182577842" lon="14.77071695143618"><ele>381.0</ele><time>2026-03-22T10:50:06Z</time></trkpt><trkpt lat="41.902691889536925" lon="14.770961052790316"><ele>381.0</ele><time>2026-03-22T10:50:07Z</time></trkpt><trkpt lat="41.902680493754346" lon="14.771201788992371"><ele>375.6666666666667</ele><time>2026-03-22T10:50:08Z</time></trkpt><trkpt lat="41.90266997314599" lon="14.771424036459171"><ele>370.33333333333337</ele><time>2026-03-22T10:50:09Z</time></trkpt><trkpt lat="41.90265884532054" lon="14.771626967587299"><ele>365.0</ele><time>2026-03-22T10:50:10Z</time></trkpt><trkpt lat="41.90264962494896" lon="14.771818557894296"><ele>361.75</ele><time>2026-03-22T10:50:11Z</time></trkpt><trkpt lat="41.902646252316174" lon="14.771999351965786"><ele>358.5</ele><time>2026-03-22T10:50:12Z</time></trkpt><trkpt lat="41.902670510222016" lon="14.772192629673379"><ele>355.25</ele><time>2026-03-22T10:50:13Z</time></trkpt><trkpt lat="41.90274015116816" lon="14.772383844870337"><ele>352.0</ele><time>2026-03-22T10:50:14Z</time></trkpt><trkpt lat="41.90278344727552" lon="14.772587154660625"><ele>349.3333333333333</ele><time>2026-03-22T10:50:15Z</time></trkpt><trkpt lat="41.90283947586836" lon="14.77279474395099"><ele>346.6666666666667</ele><time>2026-03-22T10:50:16Z</time></trkpt><trkpt lat="41.902884590298115" lon="14.773011820255123"><ele>344.0</ele><time>2026-03-22T10:50:17Z</time></trkpt><trkpt lat="41.902925578287416" lon="14.773234078281012"><ele>344.0</ele><time>2026-03-22T10:50:18Z</time></trkpt><trkpt lat="41.90297006530711" lon="14.77344150476888"><ele>344.0</ele><time>2026-03-22T10:50:19Z</time></trkpt><trkpt lat="41.90301294020723" lon="14.773638110735257"><ele>344.0</ele><time>2026-03-22T10:50:20Z</time></trkpt><trkpt lat="41.90304804892342" lon="14.773821232224687"><ele>343.0</ele><time>2026-03-22T10:50:21Z</time></trkpt><trkpt lat="41.903077724989075" lon="14.773999319507187"><ele>342.0</ele><time>2026-03-22T10:50:22Z</time></trkpt><trkpt lat="41.9030961329615" lon="14.774171042044781"><ele>341.0</ele><time>2026-03-22T10:50:23Z</time></trkpt><trkpt lat="41.90308528746161" lon="14.774333275054525"><ele>340.0</ele><time>2026-03-22T10:50:24Z</time></trkpt><trkpt lat="41.903043725857465" lon="14.77450295640686"><ele>339.0</ele><time>2026-03-22T10:50:25Z</time></trkpt><trkpt lat="41.902979167591795" lon="14.774666106733484"><ele>338.0</ele><time>2026-03-22T10:50:26Z</time></trkpt><trkpt lat="41.90290712039989" lon="14.774833241310963"><ele>337.0</ele><time>2026-03-22T10:50:27Z</time></trkpt><trkpt lat="41.90282522785652" lon="14.77500082080146"><ele>336.0</ele><time>2026-03-22T10:50:28Z</time></trkpt><trkpt lat="41.902733933920146" lon="14.775152312666608"><ele>335.0</ele><time>2026-03-22T10:50:29Z</time></trkpt><trkpt lat="41.90261641635511" lon="14.775308361926786"><ele>334.0</ele><time>2026-03-22T10:50:30Z</time></trkpt><trkpt lat="41.90246207198174" lon="14.775411114268707"><ele>333.0</ele><time>2026-03-22T10:50:31Z</time></trkpt><trkpt lat="41.902317851158784" lon="14.77549033787039"><ele>331.0</ele><time>2026-03-22T10:50:32Z</time></trkpt><trkpt lat="41.90219829679218" lon="14.775556020035559"><ele>329.0</ele><time>2026-03-22T10:50:33Z</time></trkpt><trkpt lat="41.902039359883034" lon="14.775563711104466"><ele>327.0</ele><time>2026-03-22T10:50:34Z</time></trkpt><trkpt lat="41.901866118480235" lon="14.775562366050213"><ele>327.6666666666667</ele><time>2026-03-22T10:50:35Z</time></trkpt><trkpt lat="41.901677288715064" lon="14.775570530122229"><ele>328.33333333333337</ele><time>2026-03-22T10:50:36Z</time></trkpt><trkpt lat="41.90147558933183" lon="14.775577201947089"><ele>329.0</ele><time>2026-03-22T10:50:37Z</time></trkpt><trkpt lat="41.9012890604485" lon="14.775589445656836"><ele>329.0</ele><time>2026-03-22T10:50:38Z</time></trkpt><trkpt lat="41.90110503476695" lon="14.77560160789137"><ele>329.0</ele><time>2026-03-22T10:50:39Z</time></trkpt><trkpt lat="41.900923844718974" lon="14.775612899361938"><ele>329.0</ele><time>2026-03-22T10:50:40Z</time></trkpt><trkpt lat="41.90074258844072" lon="14.775640926451192"><ele>328.6666666666667</ele><time>2026-03-22T10:50:41Z</time></trkpt><trkpt lat="41.900602851917476" lon="14.775754392155873"><ele>328.3333333333333</ele><time>2026-03-22T10:50:42Z</time></trkpt><trkpt lat="41.900440584911266" lon="14.775860598639989"><ele>328.0</ele><time>2026-03-22T10:50:43Z</time></trkpt><trkpt lat="41.90027479060921" lon="14.775995660154683"><ele>325.66666666666663</ele><time>2026-03-22T10:50:44Z</time></trkpt><trkpt lat="41.90010370820336" lon="14.776135039339527"><ele>323.3333333333333</ele><time>2026-03-22T10:50:45Z</time></trkpt><trkpt lat="41.899929305016585" lon="14.776261487290244"><ele>321.0</ele><time>2026-03-22T10:50:46Z</time></trkpt><trkpt lat="41.899762067330855" lon="14.776378101141805"><ele>321.0</ele><time>2026-03-22T10:50:47Z</time></trkpt><trkpt lat="41.899600589710744" lon="14.776493289619573"><ele>321.0</ele><time>2026-03-22T10:50:48Z</time></trkpt><trkpt lat="41.89943757814094" lon="14.776605883692566"><ele>321.0</ele><time>2026-03-22T10:50:49Z</time></trkpt><trkpt lat="41.899279365517835" lon="14.77671084355635"><ele>322.3333333333333</ele><time>2026-03-22T10:50:50Z</time></trkpt><trkpt lat="41.89912153979133" lon="14.7767707851598"><ele>323.66666666666663</ele><time>2026-03-22T10:50:51Z</time></trkpt><trkpt lat="41.89896539580533" lon="14.776795829325714"><ele>325.0</ele><time>2026-03-22T10:50:52Z</time></trkpt><trkpt lat="41.898796504664176" lon="14.776792443566453"><ele>325.0</ele><time>2026-03-22T10:50:53Z</time></trkpt><trkpt lat="41.89861640846564" lon="14.776780010716672"><ele>325.0</ele><time>2026-03-22T10:50:54Z</time></trkpt><trkpt lat="41.89842648484903" lon="14.776773682375278"><ele>325.0</ele><time>2026-03-22T10:50:55Z</time></trkpt><trkpt lat="41.89822982674761" lon="14.776746816484275"><ele>325.0</ele><time>2026-03-22T10:50:56Z</time></trkpt><trkpt lat="41.89803664172292" lon="14.776722503420302"><ele>325.0</ele><time>2026-03-22T10:50:57Z</time></trkpt><trkpt lat="41.89785706271747" lon="14.776720401840178"><ele>325.0</ele><time>2026-03-22T10:50:58Z</time></trkpt><trkpt lat="41.89768918737678" lon="14.77674653983945"><ele>324.66666666666663</ele><time>2026-03-22T10:50:59Z</time></trkpt><trkpt lat="41.897518244710234" lon="14.776798281840147"><ele>324.3333333333333</ele><time>2026-03-22T10:51:00Z</time></trkpt><trkpt lat="41.897352193235996" lon="14.776864098257036"><ele>324.0</ele><time>2026-03-22T10:51:01Z</time></trkpt><trkpt lat="41.89720735868955" lon="14.776909878963274"><ele>324.0</ele><time>2026-03-22T10:51:02Z</time></trkpt><trkpt lat="41.89706866805696" lon="14.77692148141209"><ele>324.0</ele><time>2026-03-22T10:51:03Z</time></trkpt><trkpt lat="41.89694598205724" lon="14.776880543191917"><ele>324.0</ele><time>2026-03-22T10:51:04Z</time></trkpt><trkpt lat="41.896834390694444" lon="14.776791344875909"><ele>324.0</ele><time>2026-03-22T10:51:05Z</time></trkpt><trkpt lat="41.896745995295944" lon="14.776661113948027"><ele>328.0</ele><time>2026-03-22T10:51:06Z</time></trkpt><trkpt lat="41.896673003845294" lon="14.776497262641481"><ele>332.0</ele><time>2026-03-22T10:51:07Z</time></trkpt><trkpt lat="41.89660754353972" lon="14.776307137302217"><ele>336.0</ele><time>2026-03-22T10:51:08Z</time></trkpt><trkpt lat="41.896542380408455" lon="14.776109262133145"><ele>334.75</ele><time>2026-03-22T10:51:09Z</time></trkpt><trkpt lat="41.89647432231719" lon="14.775946873800875"><ele>333.5</ele><time>2026-03-22T10:51:10Z</time></trkpt><trkpt lat="41.896389191205344" lon="14.775823428099041"><ele>332.25</ele><time>2026-03-22T10:51:11Z</time></trkpt><trkpt lat="41.89628468436101" lon="14.775763054884848"><ele>331.0</ele><time>2026-03-22T10:51:12Z</time></trkpt><trkpt lat="41.89617594100816" lon="14.775732519457973"><ele>331.0</ele><time>2026-03-22T10:51:13Z</time></trkpt><trkpt lat="41.89605936798166" lon="14.775721969571105"><ele>331.0</ele><time>2026-03-22T10:51:14Z</time></trkpt><trkpt lat="41.8959456285088" lon="14.775701042111134"><ele>331.0</ele><time>2026-03-22T10:51:15Z</time></trkpt><trkpt lat="41.8958581761108" lon="14.775660055327753"><ele>331.0</ele><time>2026-03-22T10:51:16Z</time></trkpt><trkpt lat="41.89581183052702" lon="14.775572229573879"><ele>331.0</ele><time>2026-03-22T10:51:17Z</time></trkpt><trkpt lat="41.895829627473994" lon="14.775444421121502"><ele>332.8</ele><time>2026-03-22T10:51:18Z</time></trkpt><trkpt lat="41.89585233833985" lon="14.775316392616869"><ele>334.6</ele><time>2026-03-22T10:51:19Z</time></trkpt><trkpt lat="41.89585429524925" lon="14.775157005254483"><ele>336.4</ele><time>2026-03-22T10:51:20Z</time></trkpt><trkpt lat="41.89586135271928" lon="14.775012158733746"><ele>338.2</ele><time>2026-03-22T10:51:21Z</time></trkpt><trkpt lat="41.89580487180991" lon="14.774887401916773"><ele>340.0</ele><time>2026-03-22T10:51:22Z</time></trkpt><trkpt lat="41.895732278644125" lon="14.774751866687138"><ele>340.0</ele><time>2026-03-22T10:51:23Z</time></trkpt><trkpt lat="41.8956491187554" lon="14.774594510574744"><ele>340.0</ele><time>2026-03-22T10:51:24Z</time></trkpt><trkpt lat="41.895549214723076" lon="14.774431629361532"><ele>340.0</ele><time>2026-03-22T10:51:25Z</time></trkpt><trkpt lat="41.895460245503806" lon="14.77426711996472"><ele>339.0</ele><time>2026-03-22T10:51:26Z</time></trkpt><trkpt lat="41.89538633821039" lon="14.774129315841078"><ele>338.0</ele><time>2026-03-22T10:51:27Z</time></trkpt><trkpt lat="41.895309373348724" lon="14.774014647206242"><ele>337.0</ele><time>2026-03-22T10:51:28Z</time></trkpt><trkpt lat="41.89521647619053" lon="14.773932986793538"><ele>336.0</ele><time>2026-03-22T10:51:29Z</time></trkpt><trkpt lat="41.895103976427386" lon="14.773880291376619"><ele>339.75</ele><time>2026-03-22T10:51:30Z</time></trkpt><trkpt lat="41.89497369400768" lon="14.773864728786007"><ele>343.5</ele><time>2026-03-22T10:51:31Z</time></trkpt><trkpt lat="41.894841735086615" lon="14.773894206514475"><ele>347.25</ele><time>2026-03-22T10:51:32Z</time></trkpt><trkpt lat="41.894703939111395" lon="14.773954338250844"><ele>351.0</ele><time>2026-03-22T10:51:33Z</time></trkpt><trkpt lat="41.894537348328655" lon="14.77401820536969"><ele>351.0</ele><time>2026-03-22T10:51:34Z</time></trkpt><trkpt lat="41.89437180156248" lon="14.774067684799597"><ele>351.0</ele><time>2026-03-22T10:51:35Z</time></trkpt><trkpt lat="41.894198835458624" lon="14.774122138828517"><ele>351.0</ele><time>2026-03-22T10:51:36Z</time></trkpt><trkpt lat="41.894025802077245" lon="14.77417566197415"><ele>351.0</ele><time>2026-03-22T10:51:37Z</time></trkpt><trkpt lat="41.893863983085396" lon="14.774227796365556"><ele>351.0</ele><time>2026-03-22T10:51:38Z</time></trkpt><trkpt lat="41.893710214806944" lon="14.774280704405607"><ele>351.0</ele><time>2026-03-22T10:51:39Z</time></trkpt><trkpt lat="41.893559891257155" lon="14.774330601691467"><ele>351.8</ele><time>2026-03-22T10:51:40Z</time></trkpt><trkpt lat="41.89343170652859" lon="14.774369902858961"><ele>352.6</ele><time>2026-03-22T10:51:41Z</time></trkpt><trkpt lat="41.89332596964648" lon="14.774400272563733"><ele>353.4</ele><time>2026-03-22T10:51:42Z</time></trkpt><trkpt lat="41.893234179244104" lon="14.774408912824416"><ele>354.2</ele><time>2026-03-22T10:51:43Z</time></trkpt><trkpt lat="41.89315711346568" lon="14.774373799694022"><ele>355.0</ele><time>2026-03-22T10:51:44Z</time></trkpt><trkpt lat="41.89309973558129" lon="14.774295107215174"><ele>355.0</ele><time>2026-03-22T10:51:45Z</time></trkpt><trkpt lat="41.89305851825519" lon="14.774178786214112"><ele>355.0</ele><time>2026-03-22T10:51:46Z</time></trkpt><trkpt lat="41.89303442223554" lon="14.774035273114562"><ele>355.0</ele><time>2026-03-22T10:51:47Z</time></trkpt><trkpt lat="41.89302322717879" lon="14.773878611507644"><ele>355.0</ele><time>2026-03-22T10:51:48Z</time></trkpt><trkpt lat="41.89301461883687" lon="14.773733665041531"><ele>355.0</ele><time>2026-03-22T10:51:49Z</time></trkpt><trkpt lat="41.892961604857845" lon="14.773600742477834"><ele>355.8</ele><time>2026-03-22T10:51:50Z</time></trkpt><trkpt lat="41.89289287435424" lon="14.773491751521746"><ele>356.6</ele><time>2026-03-22T10:51:51Z</time></trkpt><trkpt lat="41.892815967584276" lon="14.773398913658434"><ele>357.4</ele><time>2026-03-22T10:51:52Z</time></trkpt><trkpt lat="41.89272314549709" lon="14.77333196390038"><ele>358.2</ele><time>2026-03-22T10:51:53Z</time></trkpt><trkpt lat="41.89262012667894" lon="14.773290027082433"><ele>359.0</ele><time>2026-03-22T10:51:54Z</time></trkpt><trkpt lat="41.8925069332891" lon="14.773273680610608"><ele>359.0</ele><time>2026-03-22T10:51:55Z</time></trkpt><trkpt lat="41.892403053201626" lon="14.77328637671649"><ele>359.0</ele><time>2026-03-22T10:51:56Z</time></trkpt><trkpt lat="41.892285216146945" lon="14.773324084312142"><ele>359.0</ele><time>2026-03-22T10:51:57Z</time></trkpt><trkpt lat="41.89217577325401" lon="14.77336018471214"><ele>359.0</ele><time>2026-03-22T10:51:58Z</time></trkpt><trkpt lat="41.89204672999554" lon="14.7733788320318"><ele>359.0</ele><time>2026-03-22T10:51:59Z</time></trkpt><trkpt lat="41.8919227785691" lon="14.773409925995281"><ele>359.0</ele><time>2026-03-22T10:52:00Z</time></trkpt><trkpt lat="41.891798223173616" lon="14.773441466771299"><ele>359.0</ele><time>2026-03-22T10:52:01Z</time></trkpt><trkpt lat="41.89168039438" lon="14.773468044562458"><ele>359.0</ele><time>2026-03-22T10:52:02Z</time></trkpt><trkpt lat="41.89158464911048" lon="14.773483827914376"><ele>359.83333333333337</ele><time>2026-03-22T10:52:03Z</time></trkpt><trkpt lat="41.89150712213304" lon="14.773474153554753"><ele>360.6666666666667</ele><time>2026-03-22T10:52:04Z</time></trkpt><trkpt lat="41.89144274578141" lon="14.773435971127629"><ele>361.5</ele><time>2026-03-22T10:52:05Z</time></trkpt><trkpt lat="41.89137820506774" lon="14.773368968096639"><ele>362.3333333333333</ele><time>2026-03-22T10:52:06Z</time></trkpt><trkpt lat="41.89134365635275" lon="14.773245666264872"><ele>363.16666666666663</ele><time>2026-03-22T10:52:07Z</time></trkpt><trkpt lat="41.891293908872505" lon="14.77311492741286"><ele>364.0</ele><time>2026-03-22T10:52:08Z</time></trkpt><trkpt lat="41.891230113126724" lon="14.77298334800657"><ele>364.0</ele><time>2026-03-22T10:52:09Z</time></trkpt><trkpt lat="41.891176745535255" lon="14.772843020518907"><ele>364.0</ele><time>2026-03-22T10:52:10Z</time></trkpt><trkpt lat="41.891124058657894" lon="14.772702128006035"><ele>364.0</ele><time>2026-03-22T10:52:11Z</time></trkpt><trkpt lat="41.891065406025625" lon="14.772569208975561"><ele>364.0</ele><time>2026-03-22T10:52:12Z</time></trkpt><trkpt lat="41.89100266919426" lon="14.772451003545234"><ele>361.75</ele><time>2026-03-22T10:52:13Z</time></trkpt><trkpt lat="41.89092618760669" lon="14.772343688073862"><ele>359.5</ele><time>2026-03-22T10:52:14Z</time></trkpt><trkpt lat="41.89083112220231" lon="14.772252244656709"><ele>357.25</ele><time>2026-03-22T10:52:15Z</time></trkpt><trkpt lat="41.89071957884" lon="14.772178211681396"><ele>355.0</ele><time>2026-03-22T10:52:16Z</time></trkpt><trkpt lat="41.89059651749666" lon="14.772122621530734"><ele>359.75</ele><time>2026-03-22T10:52:17Z</time></trkpt><trkpt lat="41.89046355968519" lon="14.772084697885068"><ele>364.5</ele><time>2026-03-22T10:52:18Z</time></trkpt><trkpt lat="41.89034333564411" lon="14.772046427173844"><ele>369.25</ele><time>2026-03-22T10:52:19Z</time></trkpt><trkpt lat="41.890236729196715" lon="14.772016263393597"><ele>374.0</ele><time>2026-03-22T10:52:20Z</time></trkpt><trkpt lat="41.890121158819746" lon="14.772020292406102"><ele>374.79999999999995</ele><time>2026-03-22T10:52:21Z</time></trkpt><trkpt lat="41.890009395273545" lon="14.772050702827876"><ele>375.59999999999997</ele><time>2026-03-22T10:52:22Z</time></trkpt><trkpt lat="41.88990616772118" lon="14.7720973116291"><ele>376.4</ele><time>2026-03-22T10:52:23Z</time></trkpt><trkpt lat="41.889821387686474" lon="14.772163437653402"><ele>377.2</ele><time>2026-03-22T10:52:24Z</time></trkpt><trkpt lat="41.88975799704724" lon="14.772250107595475"><ele>378.0</ele><time>2026-03-22T10:52:25Z</time></trkpt><trkpt lat="41.88972420354993" lon="14.77236703444775"><ele>378.0</ele><time>2026-03-22T10:52:26Z</time></trkpt><trkpt lat="41.88971608550013" lon="14.77250184760283"><ele>378.0</ele><time>2026-03-22T10:52:27Z</time></trkpt><trkpt lat="41.88975003423621" lon="14.772645634797568"><ele>378.0</ele><time>2026-03-22T10:52:28Z</time></trkpt><trkpt lat="41.889814458463164" lon="14.772778990828288"><ele>378.0</ele><time>2026-03-22T10:52:29Z</time></trkpt><trkpt lat="41.889890718544095" lon="14.772910280238307"><ele>379.2</ele><time>2026-03-22T10:52:30Z</time></trkpt><trkpt lat="41.88993844178582" lon="14.773060538341566"><ele>380.4</ele><time>2026-03-22T10:52:31Z</time></trkpt><trkpt lat="41.88998371796171" lon="14.773201205051077"><ele>381.59999999999997</ele><time>2026-03-22T10:52:32Z</time></trkpt><trkpt lat="41.89000793070914" lon="14.773318577418733"><ele>382.79999999999995</ele><time>2026-03-22T10:52:33Z</time></trkpt><trkpt lat="41.89000737367824" lon="14.773425563737218"><ele>384.0</ele><time>2026-03-22T10:52:34Z</time></trkpt><trkpt lat="41.88999123822896" lon="14.773533589520673"><ele>386.5</ele><time>2026-03-22T10:52:35Z</time></trkpt><trkpt lat="41.889932883350085" lon="14.773630529409726"><ele>389.0</ele><time>2026-03-22T10:52:36Z</time></trkpt><trkpt lat="41.88985269589139" lon="14.773749217956656"><ele>391.5</ele><time>2026-03-22T10:52:37Z</time></trkpt><trkpt lat="41.8897633551557" lon="14.773885913756368"><ele>394.0</ele><time>2026-03-22T10:52:38Z</time></trkpt><trkpt lat="41.889651818565724" lon="14.77400018157736"><ele>394.0</ele><time>2026-03-22T10:52:39Z</time></trkpt><trkpt lat="41.88954553125766" lon="14.774105474486074"><ele>394.0</ele><time>2026-03-22T10:52:40Z</time></trkpt><trkpt lat="41.88942795356664" lon="14.774189774984299"><ele>394.0</ele><time>2026-03-22T10:52:41Z</time></trkpt><trkpt lat="41.88930336284912" lon="14.7742699254899"><ele>394.0</ele><time>2026-03-22T10:52:42Z</time></trkpt><trkpt lat="41.8891758524145" lon="14.77435437577115"><ele>395.5</ele><time>2026-03-22T10:52:43Z</time></trkpt><trkpt lat="41.88905438595643" lon="14.774437032839034"><ele>397.0</ele><time>2026-03-22T10:52:44Z</time></trkpt><trkpt lat="41.88893409293554" lon="14.774530108436883"><ele>398.5</ele><time>2026-03-22T10:52:45Z</time></trkpt><trkpt lat="41.88883908074438" lon="14.774663354424339"><ele>400.0</ele><time>2026-03-22T10:52:46Z</time></trkpt><trkpt lat="41.88877230595201" lon="14.774802003416907"><ele>400.0</ele><time>2026-03-22T10:52:47Z</time></trkpt><trkpt lat="41.888701495847044" lon="14.77491945549536"><ele>400.0</ele><time>2026-03-22T10:52:48Z</time></trkpt><trkpt lat="41.88861101827372" lon="14.77498548605149"><ele>400.0</ele><time>2026-03-22T10:52:49Z</time></trkpt><trkpt lat="41.88849056489656" lon="14.77500911481973"><ele>400.0</ele><time>2026-03-22T10:52:50Z</time></trkpt><trkpt lat="41.888353620068834" lon="14.775003029896558"><ele>397.5</ele><time>2026-03-22T10:52:51Z</time></trkpt><trkpt lat="41.88821304106852" lon="14.775003117070089"><ele>395.0</ele><time>2026-03-22T10:52:52Z</time></trkpt><trkpt lat="41.88806593414599" lon="14.775008463369423"><ele>392.5</ele><time>2026-03-22T10:52:53Z</time></trkpt><trkpt lat="41.88792153686904" lon="14.775020552130757"><ele>390.0</ele><time>2026-03-22T10:52:54Z</time></trkpt><trkpt lat="41.887781823486996" lon="14.775076121618042"><ele>390.0</ele><time>2026-03-22T10:52:55Z</time></trkpt><trkpt lat="41.88764423432771" lon="14.775154108207364"><ele>390.0</ele><time>2026-03-22T10:52:56Z</time></trkpt><trkpt lat="41.88750381316001" lon="14.775238669711744"><ele>390.0</ele><time>2026-03-22T10:52:57Z</time></trkpt><trkpt lat="41.887360756777305" lon="14.775318161026485"><ele>394.0</ele><time>2026-03-22T10:52:58Z</time></trkpt><trkpt lat="41.887224121052" lon="14.775380995333343"><ele>398.0</ele><time>2026-03-22T10:52:59Z</time></trkpt><trkpt lat="41.88708773289932" lon="14.775402443171838"><ele>402.0</ele><time>2026-03-22T10:53:00Z</time></trkpt><trkpt lat="41.88695636811301" lon="14.77539100625627"><ele>406.0</ele><time>2026-03-22T10:53:01Z</time></trkpt><trkpt lat="41.886829212126315" lon="14.775324139750056"><ele>405.5</ele><time>2026-03-22T10:53:02Z</time></trkpt><trkpt lat="41.88670051313847" lon="14.775281455562999"><ele>405.0</ele><time>2026-03-22T10:53:03Z</time></trkpt><trkpt lat="41.88658151393277" lon="14.775242274000314"><ele>404.5</ele><time>2026-03-22T10:53:04Z</time></trkpt><trkpt lat="41.886469004642144" lon="14.77526084774467"><ele>404.0</ele><time>2026-03-22T10:53:05Z</time></trkpt><trkpt lat="41.886361681199155" lon="14.775323825495855"><ele>404.0</ele><time>2026-03-22T10:53:06Z</time></trkpt><trkpt lat="41.88629559916838" lon="14.775438701158269"><ele>404.0</ele><time>2026-03-22T10:53:07Z</time></trkpt><trkpt lat="41.88622089719049" lon="14.77554863730107"><ele>404.0</ele><time>2026-03-22T10:53:08Z</time></trkpt><trkpt lat="41.88619822195734" lon="14.77574591692996"><ele>404.0</ele><time>2026-03-22T10:53:09Z</time></trkpt><trkpt lat="41.88617516860635" lon="14.775924034797825"><ele>407.25</ele><time>2026-03-22T10:53:10Z</time></trkpt><trkpt lat="41.88615103126513" lon="14.776101785356534"><ele>410.5</ele><time>2026-03-22T10:53:11Z</time></trkpt><trkpt lat="41.8861368896233" lon="14.77627623751679"><ele>413.75</ele><time>2026-03-22T10:53:12Z</time></trkpt><trkpt lat="41.886150686162956" lon="14.776453690584272"><ele>417.0</ele><time>2026-03-22T10:53:13Z</time></trkpt><trkpt lat="41.886209615679356" lon="14.776631204913599"><ele>417.0</ele><time>2026-03-22T10:53:14Z</time></trkpt><trkpt lat="41.88625898550152" lon="14.776815319493506"><ele>417.0</ele><time>2026-03-22T10:53:15Z</time></trkpt><trkpt lat="41.886311445859825" lon="14.77699549741669"><ele>417.0</ele><time>2026-03-22T10:53:16Z</time></trkpt><trkpt lat="41.88633389902913" lon="14.77717630793146"><ele>417.0</ele><time>2026-03-22T10:53:17Z</time></trkpt><trkpt lat="41.8863362033598" lon="14.777363478748851"><ele>419.25</ele><time>2026-03-22T10:53:18Z</time></trkpt><trkpt lat="41.88632328249187" lon="14.777553404658429"><ele>421.5</ele><time>2026-03-22T10:53:19Z</time></trkpt><trkpt lat="41.886300069787204" lon="14.777742581012614"><ele>423.75</ele><time>2026-03-22T10:53:20Z</time></trkpt><trkpt lat="41.886285816839425" lon="14.777939040873635"><ele>426.0</ele><time>2026-03-22T10:53:21Z</time></trkpt><trkpt lat="41.886237417844264" lon="14.778128620705063"><ele>425.5</ele><time>2026-03-22T10:53:22Z</time></trkpt><trkpt lat="41.88619197004071" lon="14.778306165259181"><ele>425.0</ele><time>2026-03-22T10:53:23Z</time></trkpt><trkpt lat="41.88615832754613" lon="14.778467284757465"><ele>424.5</ele><time>2026-03-22T10:53:24Z</time></trkpt><trkpt lat="41.88615071980965" lon="14.778627276658431"><ele>424.0</ele><time>2026-03-22T10:53:25Z</time></trkpt><trkpt lat="41.88615313061807" lon="14.778785806254474"><ele>424.0</ele><time>2026-03-22T10:53:26Z</time></trkpt><trkpt lat="41.88621829852481" lon="14.778934760374602"><ele>424.0</ele><time>2026-03-22T10:53:27Z</time></trkpt><trkpt lat="41.88626481720782" lon="14.779083132408442"><ele>424.0</ele><time>2026-03-22T10:53:28Z</time></trkpt><trkpt lat="41.88629436734617" lon="14.779210937438709"><ele>424.0</ele><time>2026-03-22T10:53:29Z</time></trkpt><trkpt lat="41.88629184508854" lon="14.779327933619479"><ele>424.0</ele><time>2026-03-22T10:53:30Z</time></trkpt><trkpt lat="41.88624670605211" lon="14.779440324452095"><ele>423.2</ele><time>2026-03-22T10:53:31Z</time></trkpt><trkpt lat="41.88619796866931" lon="14.779574898299721"><ele>422.4</ele><time>2026-03-22T10:53:32Z</time></trkpt><trkpt lat="41.886131739573244" lon="14.779707951801795"><ele>421.6</ele><time>2026-03-22T10:53:33Z</time></trkpt><trkpt lat="41.88606133166357" lon="14.779818171267506"><ele>420.8</ele><time>2026-03-22T10:53:34Z</time></trkpt><trkpt lat="41.88596900221498" lon="14.779881088724363"><ele>420.0</ele><time>2026-03-22T10:53:35Z</time></trkpt><trkpt lat="41.885862198987276" lon="14.779899114723795"><ele>420.0</ele><time>2026-03-22T10:53:36Z</time></trkpt><trkpt lat="41.8857423575598" lon="14.779885009339461"><ele>420.0</ele><time>2026-03-22T10:53:37Z</time></trkpt><trkpt lat="41.88562034784386" lon="14.779851695087137"><ele>420.0</ele><time>2026-03-22T10:53:38Z</time></trkpt><trkpt lat="41.885502754199734" lon="14.779835352339134"><ele>420.0</ele><time>2026-03-22T10:53:39Z</time></trkpt><trkpt lat="41.88537892526814" lon="14.779852500184779"><ele>420.0</ele><time>2026-03-22T10:53:40Z</time></trkpt><trkpt lat="41.8852541747858" lon="14.779910793004783"><ele>420.0</ele><time>2026-03-22T10:53:41Z</time></trkpt><trkpt lat="41.885135660038586" lon="14.779993772438377"><ele>420.0</ele><time>2026-03-22T10:53:42Z</time></trkpt><trkpt lat="41.885013401676076" lon="14.780073165458703"><ele>420.0</ele><time>2026-03-22T10:53:43Z</time></trkpt><trkpt lat="41.88488937933659" lon="14.7801135373875"><ele>419.25</ele><time>2026-03-22T10:53:44Z</time></trkpt><trkpt lat="41.88477861397533" lon="14.780109990302831"><ele>418.5</ele><time>2026-03-22T10:53:45Z</time></trkpt><trkpt lat="41.88467501658268" lon="14.780075062476222"><ele>417.75</ele><time>2026-03-22T10:53:46Z</time></trkpt><trkpt lat="41.88456877777724" lon="14.780016520043535"><ele>417.0</ele><time>2026-03-22T10:53:47Z</time></trkpt><trkpt lat="41.884468110800896" lon="14.779914962637491"><ele>417.0</ele><time>2026-03-22T10:53:48Z</time></trkpt><trkpt lat="41.88437303102896" lon="14.779797896765947"><ele>417.0</ele><time>2026-03-22T10:53:49Z</time></trkpt><trkpt lat="41.88427848920361" lon="14.779675229092309"><ele>417.0</ele><time>2026-03-22T10:53:50Z</time></trkpt><trkpt lat="41.88417102286016" lon="14.779575910388072"><ele>417.0</ele><time>2026-03-22T10:53:51Z</time></trkpt><trkpt lat="41.88404684711117" lon="14.779505443684448"><ele>416.25</ele><time>2026-03-22T10:53:52Z</time></trkpt><trkpt lat="41.8839119919899" lon="14.779452131048854"><ele>415.5</ele><time>2026-03-22T10:53:53Z</time></trkpt><trkpt lat="41.88376446335397" lon="14.779414368273839"><ele>414.75</ele><time>2026-03-22T10:53:54Z</time></trkpt><trkpt lat="41.88361114945798" lon="14.77937192807326"><ele>414.0</ele><time>2026-03-22T10:53:55Z</time></trkpt><trkpt lat="41.88345889545844" lon="14.779316228314043"><ele>416.25</ele><time>2026-03-22T10:53:56Z</time></trkpt><trkpt lat="41.8833167602497" lon="14.779267484204718"><ele>418.5</ele><time>2026-03-22T10:53:57Z</time></trkpt><trkpt lat="41.88319383844966" lon="14.779222682048394"><ele>420.75</ele><time>2026-03-22T10:53:58Z</time></trkpt><trkpt lat="41.88310096103674" lon="14.77919363222099"><ele>423.0</ele><time>2026-03-22T10:53:59Z</time></trkpt><trkpt lat="41.883020757719" lon="14.779185308457505"><ele>423.0</ele><time>2026-03-22T10:54:00Z</time></trkpt><trkpt lat="41.88294652856619" lon="14.77922158001024"><ele>423.0</ele><time>2026-03-22T10:54:01Z</time></trkpt><trkpt lat="41.88288854047274" lon="14.779303064545033"><ele>423.0</ele><time>2026-03-22T10:54:02Z</time></trkpt><trkpt lat="41.8828630067517" lon="14.779416324056484"><ele>423.0</ele><time>2026-03-22T10:54:03Z</time></trkpt><trkpt lat="41.88287821502317" lon="14.77955621332803"><ele>423.0</ele><time>2026-03-22T10:54:04Z</time></trkpt><trkpt lat="41.88290895931414" lon="14.77970046769703"><ele>426.75</ele><time>2026-03-22T10:54:05Z</time></trkpt><trkpt lat="41.882939217902816" lon="14.779863741292957"><ele>430.5</ele><time>2026-03-22T10:54:06Z</time></trkpt><trkpt lat="41.88295448503734" lon="14.780046876613788"><ele>434.25</ele><time>2026-03-22T10:54:07Z</time></trkpt><trkpt lat="41.88294264229626" lon="14.780233900498777"><ele>438.0</ele><time>2026-03-22T10:54:08Z</time></trkpt><trkpt lat="41.88292858101233" lon="14.780407479196363"><ele>440.0</ele><time>2026-03-22T10:54:09Z</time></trkpt><trkpt lat="41.88291338352313" lon="14.780588815258403"><ele>442.0</ele><time>2026-03-22T10:54:10Z</time></trkpt><trkpt lat="41.88291018966575" lon="14.780778456208704"><ele>444.0</ele><time>2026-03-22T10:54:11Z</time></trkpt><trkpt lat="41.882902747073764" lon="14.780967766592155"><ele>446.0</ele><time>2026-03-22T10:54:12Z</time></trkpt><trkpt lat="41.88288836566335" lon="14.781158887220087"><ele>447.5</ele><time>2026-03-22T10:54:13Z</time></trkpt><trkpt lat="41.88285613839392" lon="14.781340846839516"><ele>449.0</ele><time>2026-03-22T10:54:14Z</time></trkpt><trkpt lat="41.88283436765728" lon="14.781498236504287"><ele>450.5</ele><time>2026-03-22T10:54:15Z</time></trkpt><trkpt lat="41.88280388449728" lon="14.781645453449146"><ele>452.0</ele><time>2026-03-22T10:54:16Z</time></trkpt><trkpt lat="41.8827327292946" lon="14.78177170663445"><ele>452.40000000000003</ele><time>2026-03-22T10:54:17Z</time></trkpt><trkpt lat="41.88266139439872" lon="14.781884052122853"><ele>452.80000000000007</ele><time>2026-03-22T10:54:18Z</time></trkpt><trkpt lat="41.88261342737014" lon="14.781996668166721"><ele>453.2</ele><time>2026-03-22T10:54:19Z</time></trkpt><trkpt lat="41.88259953000514" lon="14.782116746272697"><ele>453.6</ele><time>2026-03-22T10:54:20Z</time></trkpt><trkpt lat="41.882596297291876" lon="14.782251640426026"><ele>454.0</ele><time>2026-03-22T10:54:21Z</time></trkpt><trkpt lat="41.882661198572684" lon="14.782383729741333"><ele>454.0</ele><time>2026-03-22T10:54:22Z</time></trkpt><trkpt lat="41.882707662201504" lon="14.782535395739664"><ele>454.0</ele><time>2026-03-22T10:54:23Z</time></trkpt><trkpt lat="41.88276635761091" lon="14.782678394328215"><ele>454.0</ele><time>2026-03-22T10:54:24Z</time></trkpt><trkpt lat="41.88284419916649" lon="14.782806298150081"><ele>454.0</ele><time>2026-03-22T10:54:25Z</time></trkpt><trkpt lat="41.882917171104054" lon="14.782920162152449"><ele>451.75</ele><time>2026-03-22T10:54:26Z</time></trkpt><trkpt lat="41.883009618482845" lon="14.78301543084591"><ele>449.5</ele><time>2026-03-22T10:54:27Z</time></trkpt><trkpt lat="41.88310800094377" lon="14.783119927167082"><ele>447.25</ele><time>2026-03-22T10:54:28Z</time></trkpt><trkpt lat="41.883212094252144" lon="14.783202625897529"><ele>445.0</ele><time>2026-03-22T10:54:29Z</time></trkpt><trkpt lat="41.88332694097035" lon="14.78329522195805"><ele>445.0</ele><time>2026-03-22T10:54:30Z</time></trkpt><trkpt lat="41.883422718481704" lon="14.783380129290489"><ele>445.0</ele><time>2026-03-22T10:54:31Z</time></trkpt><trkpt lat="41.88349806790683" lon="14.783480723591527"><ele>445.0</ele><time>2026-03-22T10:54:32Z</time></trkpt><trkpt lat="41.88356139951193" lon="14.783599106985642"><ele>445.0</ele><time>2026-03-22T10:54:33Z</time></trkpt><trkpt lat="41.883591460718634" lon="14.78374359062705"><ele>445.0</ele><time>2026-03-22T10:54:34Z</time></trkpt><trkpt lat="41.88360277221861" lon="14.783905327348615"><ele>447.0</ele><time>2026-03-22T10:54:35Z</time></trkpt><trkpt lat="41.883613842900324" lon="14.784080231619967"><ele>449.0</ele><time>2026-03-22T10:54:36Z</time></trkpt><trkpt lat="41.88364293964313" lon="14.784245772307932"><ele>451.0</ele><time>2026-03-22T10:54:37Z</time></trkpt><trkpt lat="41.8837252506719" lon="14.78440154918336"><ele>453.0</ele><time>2026-03-22T10:54:38Z</time></trkpt><trkpt lat="41.883828659301315" lon="14.784552893509968"><ele>453.0</ele><time>2026-03-22T10:54:39Z</time></trkpt><trkpt lat="41.88394617360555" lon="14.784704566969348"><ele>453.0</ele><time>2026-03-22T10:54:40Z</time></trkpt><trkpt lat="41.884062725297866" lon="14.784855453583896"><ele>453.0</ele><time>2026-03-22T10:54:41Z</time></trkpt><trkpt lat="41.88417133631406" lon="14.785001645368656"><ele>453.0</ele><time>2026-03-22T10:54:42Z</time></trkpt><trkpt lat="41.884252748650084" lon="14.785146171003914"><ele>453.0</ele><time>2026-03-22T10:54:43Z</time></trkpt><trkpt lat="41.88430696744964" lon="14.78528642270872"><ele>453.0</ele><time>2026-03-22T10:54:44Z</time></trkpt><trkpt lat="41.88433542765884" lon="14.785435097208333"><ele>453.0</ele><time>2026-03-22T10:54:45Z</time></trkpt><trkpt lat="41.88432632111935" lon="14.785599917193235"><ele>454.25</ele><time>2026-03-22T10:54:46Z</time></trkpt><trkpt lat="41.88429770703018" lon="14.785779919815244"><ele>455.5</ele><time>2026-03-22T10:54:47Z</time></trkpt><trkpt lat="41.884258811087776" lon="14.78596065144427"><ele>456.75</ele><time>2026-03-22T10:54:48Z</time></trkpt><trkpt lat="41.88421468377837" lon="14.786151807083959"><ele>458.0</ele><time>2026-03-22T10:54:49Z</time></trkpt><trkpt lat="41.88416920758492" lon="14.786348803074855"><ele>459.0</ele><time>2026-03-22T10:54:50Z</time></trkpt><trkpt lat="41.884123380721746" lon="14.786551066484828"><ele>460.0</ele><time>2026-03-22T10:54:51Z</time></trkpt><trkpt lat="41.88410096391099" lon="14.786743081739909"><ele>461.0</ele><time>2026-03-22T10:54:52Z</time></trkpt><trkpt lat="41.88407466302792" lon="14.786909705525805"><ele>462.0</ele><time>2026-03-22T10:54:53Z</time></trkpt><trkpt lat="41.88407436159517" lon="14.787073835638221"><ele>463.0</ele><time>2026-03-22T10:54:54Z</time></trkpt><trkpt lat="41.88410496997188" lon="14.787242336281732"><ele>464.0</ele><time>2026-03-22T10:54:55Z</time></trkpt><trkpt lat="41.88415926913165" lon="14.787407005591472"><ele>465.0</ele><time>2026-03-22T10:54:56Z</time></trkpt><trkpt lat="41.88424602640225" lon="14.787546905266371"><ele>466.0</ele><time>2026-03-22T10:54:57Z</time></trkpt><trkpt lat="41.884353154460385" lon="14.78766335733691"><ele>467.25</ele><time>2026-03-22T10:54:58Z</time></trkpt><trkpt lat="41.88447871576739" lon="14.787763123311434"><ele>468.5</ele><time>2026-03-22T10:54:59Z</time></trkpt><trkpt lat="41.88460166712208" lon="14.787873952004988"><ele>469.75</ele><time>2026-03-22T10:55:00Z</time></trkpt><trkpt lat="41.88473057853133" lon="14.787980216390379"><ele>471.0</ele><time>2026-03-22T10:55:01Z</time></trkpt><trkpt lat="41.884865769813416" lon="14.788068281113933"><ele>471.0</ele><time>2026-03-22T10:55:02Z</time></trkpt><trkpt lat="41.884980670470995" lon="14.788187953163314"><ele>471.0</ele><time>2026-03-22T10:55:03Z</time></trkpt><trkpt lat="41.88510521698513" lon="14.78827991538894"><ele>471.0</ele><time>2026-03-22T10:55:04Z</time></trkpt><trkpt lat="41.88523284960128" lon="14.788366859096516"><ele>471.0</ele><time>2026-03-22T10:55:05Z</time></trkpt><trkpt lat="41.88536147624278" lon="14.788452499890903"><ele>471.25</ele><time>2026-03-22T10:55:06Z</time></trkpt><trkpt lat="41.88549172660295" lon="14.788537488219362"><ele>471.5</ele><time>2026-03-22T10:55:07Z</time></trkpt><trkpt lat="41.885614145174664" lon="14.788618631303345"><ele>471.75</ele><time>2026-03-22T10:55:08Z</time></trkpt><trkpt lat="41.88572941616925" lon="14.788696941298653"><ele>472.0</ele><time>2026-03-22T10:55:09Z</time></trkpt><trkpt lat="41.88583902576346" lon="14.78877140523314"><ele>471.8</ele><time>2026-03-22T10:55:10Z</time></trkpt><trkpt lat="41.885936465087774" lon="14.788840291542023"><ele>471.6</ele><time>2026-03-22T10:55:11Z</time></trkpt><trkpt lat="41.88602667727472" lon="14.788900151141979"><ele>471.40000000000003</ele><time>2026-03-22T10:55:12Z</time></trkpt><trkpt lat="41.8860803797133" lon="14.789019382708902"><ele>471.20000000000005</ele><time>2026-03-22T10:55:13Z</time></trkpt><trkpt lat="41.88613151098251" lon="14.789138456873339"><ele>471.0</ele><time>2026-03-22T10:55:14Z</time></trkpt><trkpt lat="41.88615914436983" lon="14.789270774678164"><ele>470.6</ele><time>2026-03-22T10:55:15Z</time></trkpt><trkpt lat="41.88618514601092" lon="14.78941849611704"><ele>470.20000000000005</ele><time>2026-03-22T10:55:16Z</time></trkpt><trkpt lat="41.8862081225626" lon="14.78956367799092"><ele>469.79999999999995</ele><time>2026-03-22T10:55:17Z</time></trkpt><trkpt lat="41.88622951639042" lon="14.789707712784583"><ele>469.4</ele><time>2026-03-22T10:55:18Z</time></trkpt><trkpt lat="41.88624877960191" lon="14.789837403233086"><ele>469.0</ele><time>2026-03-22T10:55:19Z</time></trkpt><trkpt lat="41.88626484140491" lon="14.789945540003876"><ele>469.0</ele><time>2026-03-22T10:55:20Z</time></trkpt><trkpt lat="41.88628611890171" lon="14.79003590922574"><ele>469.0</ele><time>2026-03-22T10:55:21Z</time></trkpt><trkpt lat="41.886292070016516" lon="14.790138815211602"><ele>469.0</ele><time>2026-03-22T10:55:22Z</time></trkpt><trkpt lat="41.88631633078491" lon="14.790260706464235"><ele>469.0</ele><time>2026-03-22T10:55:23Z</time></trkpt><trkpt lat="41.88642773966462" lon="14.79058369631276"><ele>469.25</ele><time>2026-03-22T10:55:25Z</time></trkpt><trkpt lat="41.886495951058144" lon="14.790750177503632"><ele>469.5</ele><time>2026-03-22T10:55:26Z</time></trkpt><trkpt lat="41.886570007540165" lon="14.790920230559188"><ele>469.75</ele><time>2026-03-22T10:55:27Z</time></trkpt><trkpt lat="41.886646294670676" lon="14.791095405807692"><ele>470.0</ele><time>2026-03-22T10:55:28Z</time></trkpt><trkpt lat="41.88672242362615" lon="14.791273208674108"><ele>469.5</ele><time>2026-03-22T10:55:29Z</time></trkpt><trkpt lat="41.886789669851495" lon="14.791434807685453"><ele>469.0</ele><time>2026-03-22T10:55:30Z</time></trkpt><trkpt lat="41.88684904390183" lon="14.79158151176921"><ele>468.5</ele><time>2026-03-22T10:55:31Z</time></trkpt><trkpt lat="41.88690469692941" lon="14.791739286107127"><ele>468.0</ele><time>2026-03-22T10:55:32Z</time></trkpt><trkpt lat="41.88695188911312" lon="14.791913667975018"><ele>469.25</ele><time>2026-03-22T10:55:33Z</time></trkpt><trkpt lat="41.886997287578545" lon="14.792094182999332"><ele>470.5</ele><time>2026-03-22T10:55:34Z</time></trkpt><trkpt lat="41.887041292520586" lon="14.792275841058089"><ele>471.75</ele><time>2026-03-22T10:55:35Z</time></trkpt><trkpt lat="41.88709495558989" lon="14.792448420281932"><ele>473.0</ele><time>2026-03-22T10:55:36Z</time></trkpt><trkpt lat="41.88716819215908" lon="14.792593958057504"><ele>474.3333333333333</ele><time>2026-03-22T10:55:37Z</time></trkpt><trkpt lat="41.88726969783674" lon="14.792735387768799"><ele>475.66666666666663</ele><time>2026-03-22T10:55:38Z</time></trkpt><trkpt lat="41.88739345730726" lon="14.792858000445401"><ele>477.0</ele><time>2026-03-22T10:55:39Z</time></trkpt><trkpt lat="41.88750286396057" lon="14.793019653485516"><ele>476.33333333333337</ele><time>2026-03-22T10:55:40Z</time></trkpt><trkpt lat="41.887625689364334" lon="14.79316870855128"><ele>475.6666666666667</ele><time>2026-03-22T10:55:41Z</time></trkpt><trkpt lat="41.88774913851282" lon="14.793320802539776"><ele>475.0</ele><time>2026-03-22T10:55:42Z</time></trkpt><trkpt lat="41.887870481965635" lon="14.793472489070046"><ele>476.0</ele><time>2026-03-22T10:55:43Z</time></trkpt><trkpt lat="41.88797987990997" lon="14.793626500427376"><ele>477.0</ele><time>2026-03-22T10:55:44Z</time></trkpt><trkpt lat="41.8880784882314" lon="14.793790883325668"><ele>478.0</ele><time>2026-03-22T10:55:45Z</time></trkpt><trkpt lat="41.88817039406206" lon="14.793969682810888"><ele>478.0</ele><time>2026-03-22T10:55:46Z</time></trkpt><trkpt lat="41.88826295777118" lon="14.79415244193671"><ele>478.0</ele><time>2026-03-22T10:55:47Z</time></trkpt><trkpt lat="41.88835031783466" lon="14.794329239708853"><ele>478.0</ele><time>2026-03-22T10:55:48Z</time></trkpt><trkpt lat="41.88842553627324" lon="14.794502119417626"><ele>476.0</ele><time>2026-03-22T10:55:49Z</time></trkpt><trkpt lat="41.888489984772775" lon="14.79468534715931"><ele>474.0</ele><time>2026-03-22T10:55:50Z</time></trkpt><trkpt lat="41.88854278019143" lon="14.794882844277742"><ele>472.0</ele><time>2026-03-22T10:55:51Z</time></trkpt><trkpt lat="41.88859650655123" lon="14.795079492390217"><ele>471.6666666666667</ele><time>2026-03-22T10:55:52Z</time></trkpt><trkpt lat="41.88863216441416" lon="14.795286574316401"><ele>471.33333333333337</ele><time>2026-03-22T10:55:53Z</time></trkpt><trkpt lat="41.88864913832827" lon="14.795509611969132"><ele>471.0</ele><time>2026-03-22T10:55:54Z</time></trkpt><trkpt lat="41.88866208099021" lon="14.79573249835358"><ele>471.0</ele><time>2026-03-22T10:55:55Z</time></trkpt><trkpt lat="41.88867450529848" lon="14.795942817293549"><ele>471.0</ele><time>2026-03-22T10:55:56Z</time></trkpt><trkpt lat="41.888685916224674" lon="14.79613598176445"><ele>471.0</ele><time>2026-03-22T10:55:57Z</time></trkpt><trkpt lat="41.88871225949694" lon="14.796330376095638"><ele>471.0</ele><time>2026-03-22T10:55:58Z</time></trkpt><trkpt lat="41.88877559999708" lon="14.796526957013322"><ele>472.33333333333337</ele><time>2026-03-22T10:55:59Z</time></trkpt><trkpt lat="41.88884656065064" lon="14.796726047995392"><ele>473.6666666666667</ele><time>2026-03-22T10:56:00Z</time></trkpt><trkpt lat="41.88891472819869" lon="14.796935599149892"><ele>475.0</ele><time>2026-03-22T10:56:01Z</time></trkpt><trkpt lat="41.88897222514995" lon="14.797156400511193"><ele>476.0</ele><time>2026-03-22T10:56:02Z</time></trkpt><trkpt lat="41.889027811643786" lon="14.797391251491476"><ele>477.0</ele><time>2026-03-22T10:56:03Z</time></trkpt><trkpt lat="41.889089570696875" lon="14.79763646079828"><ele>478.0</ele><time>2026-03-22T10:56:04Z</time></trkpt><trkpt lat="41.88915164441423" lon="14.797891165466975"><ele>478.6666666666667</ele><time>2026-03-22T10:56:05Z</time></trkpt><trkpt lat="41.88921445844803" lon="14.798149249275623"><ele>479.33333333333337</ele><time>2026-03-22T10:56:06Z</time></trkpt><trkpt lat="41.889277275445416" lon="14.798408938267736"><ele>480.0</ele><time>2026-03-22T10:56:07Z</time></trkpt><trkpt lat="41.8893376670615" lon="14.798660206288904"><ele>475.66666666666663</ele><time>2026-03-22T10:56:08Z</time></trkpt><trkpt lat="41.88939588787014" lon="14.798904588679102"><ele>471.3333333333333</ele><time>2026-03-22T10:56:09Z</time></trkpt><trkpt lat="41.889451144246166" lon="14.799146070721637"><ele>467.0</ele><time>2026-03-22T10:56:10Z</time></trkpt><trkpt lat="41.889492525872846" lon="14.799370590941932"><ele>467.0</ele><time>2026-03-22T10:56:11Z</time></trkpt><trkpt lat="41.88950950987252" lon="14.79958525905333"><ele>467.0</ele><time>2026-03-22T10:56:12Z</time></trkpt><trkpt lat="41.88952173890234" lon="14.799778390919764"><ele>467.0</ele><time>2026-03-22T10:56:13Z</time></trkpt><trkpt lat="41.88952837950669" lon="14.799939285836624"><ele>467.0</ele><time>2026-03-22T10:56:14Z</time></trkpt><trkpt lat="41.88954820199267" lon="14.80008454982231"><ele>467.0</ele><time>2026-03-22T10:56:15Z</time></trkpt><trkpt lat="41.889532479304336" lon="14.800226895293843"><ele>467.00000000000006</ele><time>2026-03-22T10:56:16Z</time></trkpt><trkpt lat="41.88953498378659" lon="14.800356217168119"><ele>467.00000000000006</ele><time>2026-03-22T10:56:17Z</time></trkpt><trkpt lat="41.889539184218414" lon="14.800479155081383"><ele>467.0</ele><time>2026-03-22T10:56:18Z</time></trkpt><trkpt lat="41.889547052017555" lon="14.80059493805121"><ele>467.0</ele><time>2026-03-22T10:56:19Z</time></trkpt><trkpt lat="41.88955757495256" lon="14.80070460218129"><ele>467.0</ele><time>2026-03-22T10:56:20Z</time></trkpt><trkpt lat="41.88957536270678" lon="14.800826984908888"><ele>467.00000000000006</ele><time>2026-03-22T10:56:21Z</time></trkpt><trkpt lat="41.88959738564425" lon="14.800926800379425"><ele>467.00000000000006</ele><time>2026-03-22T10:56:22Z</time></trkpt><trkpt lat="41.88964430804607" lon="14.801041907286752"><ele>467.0</ele><time>2026-03-22T10:56:23Z</time></trkpt><trkpt lat="41.8896631833854" lon="14.801187260684209"><ele>467.0</ele><time>2026-03-22T10:56:24Z</time></trkpt><trkpt lat="41.88970939945906" lon="14.801369076705484"><ele>467.0</ele><time>2026-03-22T10:56:25Z</time></trkpt><trkpt lat="41.889776672637105" lon="14.801549301533111"><ele>467.0</ele><time>2026-03-22T10:56:26Z</time></trkpt><trkpt lat="41.88985441994943" lon="14.801744124527477"><ele>467.0</ele><time>2026-03-22T10:56:27Z</time></trkpt><trkpt lat="41.889991243761536" lon="14.801937825493425"><ele>466.66666666666663</ele><time>2026-03-22T10:56:28Z</time></trkpt><trkpt lat="41.89015932918394" lon="14.802118812810686"><ele>466.33333333333337</ele><time>2026-03-22T10:56:29Z</time></trkpt><trkpt lat="41.89033335341851" lon="14.802305712562438"><ele>466.0</ele><time>2026-03-22T10:56:30Z</time></trkpt><trkpt lat="41.89047606206145" lon="14.802485016954346"><ele>466.0</ele><time>2026-03-22T10:56:31Z</time></trkpt><trkpt lat="41.890583658701075" lon="14.80262797559511"><ele>466.0</ele><time>2026-03-22T10:56:32Z</time></trkpt><trkpt lat="41.89067795869688" lon="14.80273893222526"><ele>466.0</ele><time>2026-03-22T10:56:33Z</time></trkpt><trkpt lat="41.89076429210839" lon="14.80284465511601"><ele>466.0</ele><time>2026-03-22T10:56:34Z</time></trkpt><trkpt lat="41.8908466180988" lon="14.802940627332664"><ele>466.20000000000005</ele><time>2026-03-22T10:56:35Z</time></trkpt><trkpt lat="41.89089211278947" lon="14.80307109740644"><ele>466.40000000000003</ele><time>2026-03-22T10:56:36Z</time></trkpt><trkpt lat="41.89090845480107" lon="14.803189347777913"><ele>466.6</ele><time>2026-03-22T10:56:37Z</time></trkpt><trkpt lat="41.890894067226775" lon="14.803314200072398"><ele>466.8</ele><time>2026-03-22T10:56:38Z</time></trkpt><trkpt lat="41.89084937182586" lon="14.803451030754132"><ele>467.0</ele><time>2026-03-22T10:56:39Z</time></trkpt><trkpt lat="41.890799948556705" lon="14.80362063531309"><ele>466.0</ele><time>2026-03-22T10:56:40Z</time></trkpt><trkpt lat="41.890742549984225" lon="14.803817532168122"><ele>465.0</ele><time>2026-03-22T10:56:41Z</time></trkpt><trkpt lat="41.890683816364884" lon="14.804023403292009"><ele>464.0</ele><time>2026-03-22T10:56:42Z</time></trkpt><trkpt lat="41.89062615333204" lon="14.804227040881862"><ele>461.75</ele><time>2026-03-22T10:56:43Z</time></trkpt><trkpt lat="41.890569780547864" lon="14.804421690547127"><ele>459.5</ele><time>2026-03-22T10:56:44Z</time></trkpt><trkpt lat="41.89050978065227" lon="14.804601309847577"><ele>457.25</ele><time>2026-03-22T10:56:45Z</time></trkpt><trkpt lat="41.89045421910044" lon="14.804781112305697"><ele>455.0</ele><time>2026-03-22T10:56:46Z</time></trkpt><trkpt lat="41.89037000712055" lon="14.804932797394498"><ele>455.0</ele><time>2026-03-22T10:56:47Z</time></trkpt><trkpt lat="41.89026925869266" lon="14.805064915732038"><ele>455.0</ele><time>2026-03-22T10:56:48Z</time></trkpt><trkpt lat="41.89016210038496" lon="14.805179092701385"><ele>455.0</ele><time>2026-03-22T10:56:49Z</time></trkpt><trkpt lat="41.89006466355019" lon="14.80528272819148"><ele>455.0</ele><time>2026-03-22T10:56:50Z</time></trkpt><trkpt lat="41.889978825625235" lon="14.805379252878685"><ele>454.8</ele><time>2026-03-22T10:56:51Z</time></trkpt><trkpt lat="41.88990705230888" lon="14.805489061838829"><ele>454.6</ele><time>2026-03-22T10:56:52Z</time></trkpt><trkpt lat="41.88985047206277" lon="14.805610033026323"><ele>454.4</ele><time>2026-03-22T10:56:53Z</time></trkpt><trkpt lat="41.8898154815969" lon="14.805749968505925"><ele>454.2</ele><time>2026-03-22T10:56:54Z</time></trkpt><trkpt lat="41.88980879746305" lon="14.805913323879908"><ele>454.0</ele><time>2026-03-22T10:56:55Z</time></trkpt><trkpt lat="41.88982492545578" lon="14.806092593842182"><ele>452.75</ele><time>2026-03-22T10:56:56Z</time></trkpt><trkpt lat="41.88986219410798" lon="14.806271170715927"><ele>451.5</ele><time>2026-03-22T10:56:57Z</time></trkpt><trkpt lat="41.88989966275682" lon="14.806464503970881"><ele>450.25</ele><time>2026-03-22T10:56:58Z</time></trkpt><trkpt lat="41.88990643170119" lon="14.806656182348217"><ele>449.0</ele><time>2026-03-22T10:56:59Z</time></trkpt><trkpt lat="41.88991787271166" lon="14.806800560057605"><ele>447.0</ele><time>2026-03-22T10:57:00Z</time></trkpt><trkpt lat="41.88991653053722" lon="14.806927356085158"><ele>445.0</ele><time>2026-03-22T10:57:01Z</time></trkpt><trkpt lat="41.88989286290658" lon="14.80704475543407"><ele>443.0</ele><time>2026-03-22T10:57:02Z</time></trkpt><trkpt lat="41.889823565617405" lon="14.80714640618039"><ele>441.0</ele><time>2026-03-22T10:57:03Z</time></trkpt><trkpt lat="41.88973262805693" lon="14.807248446234414"><ele>439.0</ele><time>2026-03-22T10:57:04Z</time></trkpt><trkpt lat="41.88962652636843" lon="14.807350967452425"><ele>439.0</ele><time>2026-03-22T10:57:05Z</time></trkpt><trkpt lat="41.88951895140074" lon="14.807469139702107"><ele>439.0</ele><time>2026-03-22T10:57:06Z</time></trkpt><trkpt lat="41.88939661283551" lon="14.807581791253387"><ele>439.0</ele><time>2026-03-22T10:57:07Z</time></trkpt><trkpt lat="41.889285954189454" lon="14.807686079420876"><ele>439.0</ele><time>2026-03-22T10:57:08Z</time></trkpt><trkpt lat="41.88918631559315" lon="14.807774174104027"><ele>440.2</ele><time>2026-03-22T10:57:09Z</time></trkpt><trkpt lat="41.88910090534181" lon="14.807850187965473"><ele>441.4</ele><time>2026-03-22T10:57:10Z</time></trkpt><trkpt lat="41.889031344216136" lon="14.807935229122927"><ele>442.6</ele><time>2026-03-22T10:57:11Z</time></trkpt><trkpt lat="41.888999853882666" lon="14.808044352775147"><ele>443.8</ele><time>2026-03-22T10:57:12Z</time></trkpt><trkpt lat="41.88900831780647" lon="14.808181687609336"><ele>445.0</ele><time>2026-03-22T10:57:13Z</time></trkpt><trkpt lat="41.889051757016816" lon="14.808322838035448"><ele>445.0</ele><time>2026-03-22T10:57:14Z</time></trkpt><trkpt lat="41.88912522108477" lon="14.808474141467228"><ele>445.0</ele><time>2026-03-22T10:57:15Z</time></trkpt><trkpt lat="41.88922748718219" lon="14.808617687116678"><ele>445.0</ele><time>2026-03-22T10:57:16Z</time></trkpt><trkpt lat="41.889352933896475" lon="14.80878461001582"><ele>441.33333333333337</ele><time>2026-03-22T10:57:17Z</time></trkpt><trkpt lat="41.88948001504481" lon="14.808929459161071"><ele>437.66666666666663</ele><time>2026-03-22T10:57:18Z</time></trkpt><trkpt lat="41.889619561940265" lon="14.809072848123838"><ele>434.0</ele><time>2026-03-22T10:57:19Z</time></trkpt><trkpt lat="41.889760559841804" lon="14.809214014124466"><ele>435.0</ele><time>2026-03-22T10:57:20Z</time></trkpt><trkpt lat="41.889904349083984" lon="14.809357974920825"><ele>436.0</ele><time>2026-03-22T10:57:21Z</time></trkpt><trkpt lat="41.890037323359245" lon="14.809491988375996"><ele>437.0</ele><time>2026-03-22T10:57:22Z</time></trkpt><trkpt lat="41.89014452110429" lon="14.809601544860396"><ele>434.5</ele><time>2026-03-22T10:57:23Z</time></trkpt><trkpt lat="41.89023626316863" lon="14.809710272009612"><ele>432.0</ele><time>2026-03-22T10:57:24Z</time></trkpt><trkpt lat="41.89030719343208" lon="14.809828520573141"><ele>429.5</ele><time>2026-03-22T10:57:25Z</time></trkpt><trkpt lat="41.890349417493205" lon="14.809968572388911"><ele>427.0</ele><time>2026-03-22T10:57:26Z</time></trkpt><trkpt lat="41.8903748187037" lon="14.810139561527528"><ele>427.5</ele><time>2026-03-22T10:57:27Z</time></trkpt><trkpt lat="41.89039809988285" lon="14.810333719706612"><ele>428.0</ele><time>2026-03-22T10:57:28Z</time></trkpt><trkpt lat="41.890414511288995" lon="14.810522440452766"><ele>428.5</ele><time>2026-03-22T10:57:29Z</time></trkpt><trkpt lat="41.89041496684846" lon="14.810677818776545"><ele>429.0</ele><time>2026-03-22T10:57:30Z</time></trkpt><trkpt lat="41.890398542367635" lon="14.81080847218638"><ele>429.0</ele><time>2026-03-22T10:57:31Z</time></trkpt><trkpt lat="41.890350876628744" lon="14.810923388048721"><ele>429.0</ele><time>2026-03-22T10:57:32Z</time></trkpt><trkpt lat="41.89028548255508" lon="14.811071977863422"><ele>429.0</ele><time>2026-03-22T10:57:33Z</time></trkpt><trkpt lat="41.89019569207245" lon="14.811221055773528"><ele>429.0</ele><time>2026-03-22T10:57:34Z</time></trkpt><trkpt lat="41.89009126507014" lon="14.811383261319202"><ele>427.66666666666663</ele><time>2026-03-22T10:57:35Z</time></trkpt><trkpt lat="41.88998280569987" lon="14.81156466512545"><ele>426.3333333333333</ele><time>2026-03-22T10:57:36Z</time></trkpt><trkpt lat="41.88986295793486" lon="14.811778804829915"><ele>425.0</ele><time>2026-03-22T10:57:37Z</time></trkpt><trkpt lat="41.88974638261865" lon="14.81197920838657"><ele>425.0</ele><time>2026-03-22T10:57:38Z</time></trkpt><trkpt lat="41.8896361246835" lon="14.81218086919"><ele>425.0</ele><time>2026-03-22T10:57:39Z</time></trkpt><trkpt lat="41.889530777409114" lon="14.812365445104906"><ele>425.0</ele><time>2026-03-22T10:57:40Z</time></trkpt><trkpt lat="41.88943130301901" lon="14.812540784244533"><ele>425.3333333333333</ele><time>2026-03-22T10:57:41Z</time></trkpt><trkpt lat="41.889340332470226" lon="14.812713181009773"><ele>425.66666666666663</ele><time>2026-03-22T10:57:42Z</time></trkpt><trkpt lat="41.889243888265014" lon="14.812866652756838"><ele>426.0</ele><time>2026-03-22T10:57:43Z</time></trkpt><trkpt lat="41.88917666554299" lon="14.813037278761787"><ele>426.0</ele><time>2026-03-22T10:57:44Z</time></trkpt><trkpt lat="41.8891541088638" lon="14.813220519913894"><ele>426.0</ele><time>2026-03-22T10:57:45Z</time></trkpt><trkpt lat="41.88915773818859" lon="14.813406987990591"><ele>426.0</ele><time>2026-03-22T10:57:46Z</time></trkpt><trkpt lat="41.88918863586348" lon="14.813608795748983"><ele>426.0</ele><time>2026-03-22T10:57:47Z</time></trkpt><trkpt lat="41.88920977326666" lon="14.813830385854601"><ele>424.66666666666663</ele><time>2026-03-22T10:57:48Z</time></trkpt><trkpt lat="41.88923707428547" lon="14.814064071387866"><ele>423.3333333333333</ele><time>2026-03-22T10:57:49Z</time></trkpt><trkpt lat="41.8892649952843" lon="14.814305330043197"><ele>422.0</ele><time>2026-03-22T10:57:50Z</time></trkpt><trkpt lat="41.88929458458767" lon="14.814557917591436"><ele>419.3333333333333</ele><time>2026-03-22T10:57:51Z</time></trkpt><trkpt lat="41.88932325910969" lon="14.814802151039556"><ele>416.66666666666663</ele><time>2026-03-22T10:57:52Z</time></trkpt><trkpt lat="41.889347847004586" lon="14.81502925746027"><ele>414.0</ele><time>2026-03-22T10:57:53Z</time></trkpt><trkpt lat="41.88936210861188" lon="14.815245740219444"><ele>413.5</ele><time>2026-03-22T10:57:54Z</time></trkpt><trkpt lat="41.88936542621263" lon="14.81544727575313"><ele>413.0</ele><time>2026-03-22T10:57:55Z</time></trkpt><trkpt lat="41.889361942488485" lon="14.815632345834512"><ele>412.5</ele><time>2026-03-22T10:57:56Z</time></trkpt><trkpt lat="41.88934986582639" lon="14.815802155243967"><ele>412.0</ele><time>2026-03-22T10:57:57Z</time></trkpt><trkpt lat="41.889335379860384" lon="14.815946471328743"><ele>410.50000000000006</ele><time>2026-03-22T10:57:58Z</time></trkpt><trkpt lat="41.88933833426164" lon="14.816076596440855"><ele>409.0</ele><time>2026-03-22T10:57:59Z</time></trkpt><trkpt lat="41.88933201676538" lon="14.816167993187745"><ele>407.5</ele><time>2026-03-22T10:58:00Z</time></trkpt><trkpt lat="41.88936244885846" lon="14.816320066142067"><ele>406.0</ele><time>2026-03-22T10:58:02Z</time></trkpt><trkpt lat="41.889442045781365" lon="14.816350490438458"><ele>404.50000000000006</ele><time>2026-03-22T10:58:03Z</time></trkpt><trkpt lat="41.8895182541436" lon="14.816371478251668"><ele>403.0</ele><time>2026-03-22T10:58:04Z</time></trkpt><trkpt lat="41.88961630404704" lon="14.816301989216965"><ele>403.0</ele><time>2026-03-22T10:58:05Z</time></trkpt><trkpt lat="41.88972443167196" lon="14.816227119501749"><ele>403.0</ele><time>2026-03-22T10:58:06Z</time></trkpt><trkpt lat="41.88983951776259" lon="14.816156767124177"><ele>403.0</ele><time>2026-03-22T10:58:07Z</time></trkpt><trkpt lat="41.88995534889476" lon="14.816102670354615"><ele>403.0</ele><time>2026-03-22T10:58:08Z</time></trkpt><trkpt lat="41.890078455697285" lon="14.816065161425628"><ele>403.0</ele><time>2026-03-22T10:58:09Z</time></trkpt><trkpt lat="41.89021114521843" lon="14.816054140338139"><ele>403.0</ele><time>2026-03-22T10:58:10Z</time></trkpt><trkpt lat="41.89035454486086" lon="14.81606244805702"><ele>403.0</ele><time>2026-03-22T10:58:11Z</time></trkpt><trkpt lat="41.89050900353416" lon="14.81607831164176"><ele>403.0</ele><time>2026-03-22T10:58:12Z</time></trkpt><trkpt lat="41.8906755053397" lon="14.816093364420503"><ele>403.0</ele><time>2026-03-22T10:58:13Z</time></trkpt><trkpt lat="41.890838078756595" lon="14.816100367703134"><ele>403.0</ele><time>2026-03-22T10:58:14Z</time></trkpt><trkpt lat="41.89098643539439" lon="14.816106107613667"><ele>403.0</ele><time>2026-03-22T10:58:15Z</time></trkpt><trkpt lat="41.89111995488303" lon="14.81610985476063"><ele>403.0</ele><time>2026-03-22T10:58:16Z</time></trkpt><trkpt lat="41.89123539730054" lon="14.816099834059486"><ele>402.5</ele><time>2026-03-22T10:58:17Z</time></trkpt><trkpt lat="41.891343761271315" lon="14.816050646541854"><ele>402.0</ele><time>2026-03-22T10:58:18Z</time></trkpt><trkpt lat="41.891448948933956" lon="14.815959646741872"><ele>401.5</ele><time>2026-03-22T10:58:19Z</time></trkpt><trkpt lat="41.89153612128515" lon="14.815833528745209"><ele>401.0</ele><time>2026-03-22T10:58:20Z</time></trkpt><trkpt lat="41.8916091856216" lon="14.815691273399375"><ele>401.0</ele><time>2026-03-22T10:58:21Z</time></trkpt><trkpt lat="41.891669835944604" lon="14.815571767809994"><ele>401.0</ele><time>2026-03-22T10:58:22Z</time></trkpt><trkpt lat="41.891722384936536" lon="14.815487530736526"><ele>401.0</ele><time>2026-03-22T10:58:23Z</time></trkpt><trkpt lat="41.89184003835618" lon="14.815439688991223"><ele>401.0</ele><time>2026-03-22T10:58:25Z</time></trkpt><trkpt lat="41.89190894066626" lon="14.81548989649191"><ele>401.0</ele><time>2026-03-22T10:58:26Z</time></trkpt><trkpt lat="41.89194237163055" lon="14.815603704259196"><ele>397.6</ele><time>2026-03-22T10:58:27Z</time></trkpt><trkpt lat="41.89195209372124" lon="14.815720324444381"><ele>394.20000000000005</ele><time>2026-03-22T10:58:28Z</time></trkpt><trkpt lat="41.89198203956321" lon="14.815860367627359"><ele>390.79999999999995</ele><time>2026-03-22T10:58:29Z</time></trkpt><trkpt lat="41.892011823419374" lon="14.816014277245726"><ele>387.4</ele><time>2026-03-22T10:58:30Z</time></trkpt><trkpt lat="41.8920295421379" lon="14.816165958321074"><ele>384.0</ele><time>2026-03-22T10:58:31Z</time></trkpt><trkpt lat="41.89204018073843" lon="14.816336073227838"><ele>383.25</ele><time>2026-03-22T10:58:32Z</time></trkpt><trkpt lat="41.89204443804664" lon="14.816513250202362"><ele>382.5</ele><time>2026-03-22T10:58:33Z</time></trkpt><trkpt lat="41.89204714502364" lon="14.816700344940417"><ele>381.75</ele><time>2026-03-22T10:58:34Z</time></trkpt><trkpt lat="41.89204368184095" lon="14.81687844676877"><ele>381.0</ele><time>2026-03-22T10:58:35Z</time></trkpt><trkpt lat="41.89201822250349" lon="14.817043930708486"><ele>379.5</ele><time>2026-03-22T10:58:36Z</time></trkpt><trkpt lat="41.8919747672403" lon="14.817216673339848"><ele>378.0</ele><time>2026-03-22T10:58:37Z</time></trkpt><trkpt lat="41.89192563372674" lon="14.817398344987744"><ele>376.5</ele><time>2026-03-22T10:58:38Z</time></trkpt><trkpt lat="41.89187439640576" lon="14.817581615377053"><ele>375.0</ele><time>2026-03-22T10:58:39Z</time></trkpt><trkpt lat="41.891824608790536" lon="14.817759700427409"><ele>374.6666666666667</ele><time>2026-03-22T10:58:40Z</time></trkpt><trkpt lat="41.891771140736004" lon="14.817950950003667"><ele>374.33333333333337</ele><time>2026-03-22T10:58:41Z</time></trkpt><trkpt lat="41.891730637437576" lon="14.818155176546304"><ele>374.0</ele><time>2026-03-22T10:58:42Z</time></trkpt><trkpt lat="41.891673770686374" lon="14.818356986518417"><ele>374.0</ele><time>2026-03-22T10:58:43Z</time></trkpt><trkpt lat="41.89163271294482" lon="14.818560508460902"><ele>374.0</ele><time>2026-03-22T10:58:44Z</time></trkpt><trkpt lat="41.8916051543592" lon="14.818759839468964"><ele>374.0</ele><time>2026-03-22T10:58:45Z</time></trkpt><trkpt lat="41.891567918091255" lon="14.818953158416884"><ele>374.0</ele><time>2026-03-22T10:58:46Z</time></trkpt><trkpt lat="41.8915472481708" lon="14.819140281828071"><ele>374.0</ele><time>2026-03-22T10:58:47Z</time></trkpt><trkpt lat="41.89152857677939" lon="14.819309312556108"><ele>374.0</ele><time>2026-03-22T10:58:48Z</time></trkpt><trkpt lat="41.891513837111695" lon="14.81945551857067"><ele>374.0</ele><time>2026-03-22T10:58:49Z</time></trkpt><trkpt lat="41.891507050450436" lon="14.819569041453303"><ele>373.6666666666667</ele><time>2026-03-22T10:58:50Z</time></trkpt><trkpt lat="41.89151568170208" lon="14.819659441946458"><ele>373.33333333333337</ele><time>2026-03-22T10:58:51Z</time></trkpt><trkpt lat="41.89158917226186" lon="14.819732694949767"><ele>373.0</ele><time>2026-03-22T10:58:52Z</time></trkpt><trkpt lat="41.89166576811816" lon="14.819770340293195"><ele>372.6666666666667</ele><time>2026-03-22T10:58:53Z</time></trkpt><trkpt lat="41.891746055210916" lon="14.819759047998405"><ele>372.3333333333333</ele><time>2026-03-22T10:58:54Z</time></trkpt><trkpt lat="41.89182905297629" lon="14.819695312526042"><ele>372.0</ele><time>2026-03-22T10:58:55Z</time></trkpt><trkpt lat="41.89191904496277" lon="14.819622438623059"><ele>369.75</ele><time>2026-03-22T10:58:56Z</time></trkpt><trkpt lat="41.89202287395889" lon="14.819551477365664"><ele>367.5</ele><time>2026-03-22T10:58:57Z</time></trkpt><trkpt lat="41.89214066099113" lon="14.819481768604776"><ele>365.25</ele><time>2026-03-22T10:58:58Z</time></trkpt><trkpt lat="41.89226709105551" lon="14.81940972714235"><ele>363.0</ele><time>2026-03-22T10:58:59Z</time></trkpt><trkpt lat="41.892392553571284" lon="14.819337712970464"><ele>362.0</ele><time>2026-03-22T10:59:00Z</time></trkpt><trkpt lat="41.89252274817903" lon="14.819266526466459"><ele>361.0</ele><time>2026-03-22T10:59:01Z</time></trkpt><trkpt lat="41.89266239983844" lon="14.819203292959614"><ele>360.0</ele><time>2026-03-22T10:59:02Z</time></trkpt><trkpt lat="41.89281210569206" lon="14.819145018098041"><ele>359.0</ele><time>2026-03-22T10:59:03Z</time></trkpt><trkpt lat="41.892968447208794" lon="14.819086926404902"><ele>359.0</ele><time>2026-03-22T10:59:04Z</time></trkpt><trkpt lat="41.89313376072604" lon="14.819036912204474"><ele>359.0</ele><time>2026-03-22T10:59:05Z</time></trkpt><trkpt lat="41.89329781657492" lon="14.818991255667862"><ele>359.0</ele><time>2026-03-22T10:59:06Z</time></trkpt><trkpt lat="41.89346729424463" lon="14.818952579822032"><ele>357.0</ele><time>2026-03-22T10:59:07Z</time></trkpt><trkpt lat="41.893633616982" lon="14.818911295241172"><ele>355.0</ele><time>2026-03-22T10:59:08Z</time></trkpt><trkpt lat="41.89378680682254" lon="14.818863542365502"><ele>353.0</ele><time>2026-03-22T10:59:09Z</time></trkpt><trkpt lat="41.89393249629687" lon="14.818819506935885"><ele>353.0</ele><time>2026-03-22T10:59:10Z</time></trkpt><trkpt lat="41.89407441263341" lon="14.81879628671047"><ele>353.0</ele><time>2026-03-22T10:59:11Z</time></trkpt><trkpt lat="41.894213795187255" lon="14.818791570800114"><ele>353.0</ele><time>2026-03-22T10:59:12Z</time></trkpt><trkpt lat="41.894340404116626" lon="14.818812151239532"><ele>353.0</ele><time>2026-03-22T10:59:13Z</time></trkpt><trkpt lat="41.89445623871433" lon="14.818875098791224"><ele>352.0</ele><time>2026-03-22T10:59:14Z</time></trkpt><trkpt lat="41.89457916462688" lon="14.818969606028796"><ele>351.0</ele><time>2026-03-22T10:59:15Z</time></trkpt><trkpt lat="41.89469917850178" lon="14.819114464833833"><ele>350.0</ele><time>2026-03-22T10:59:16Z</time></trkpt><trkpt lat="41.89478918550492" lon="14.81927476426543"><ele>348.6666666666667</ele><time>2026-03-22T10:59:17Z</time></trkpt><trkpt lat="41.89490932997776" lon="14.819434967154484"><ele>347.3333333333333</ele><time>2026-03-22T10:59:18Z</time></trkpt><trkpt lat="41.89503133283454" lon="14.819623287686975"><ele>346.0</ele><time>2026-03-22T10:59:19Z</time></trkpt><trkpt lat="41.895163102480474" lon="14.81981963497152"><ele>346.0</ele><time>2026-03-22T10:59:20Z</time></trkpt><trkpt lat="41.89529156043221" lon="14.82004378485887"><ele>346.0</ele><time>2026-03-22T10:59:21Z</time></trkpt><trkpt lat="41.89543891993604" lon="14.820269309882324"><ele>346.0</ele><time>2026-03-22T10:59:22Z</time></trkpt><trkpt lat="41.895597978079955" lon="14.82050869048053"><ele>346.5</ele><time>2026-03-22T10:59:23Z</time></trkpt><trkpt lat="41.895766871299195" lon="14.820759200691294"><ele>347.0</ele><time>2026-03-22T10:59:24Z</time></trkpt><trkpt lat="41.89593949404863" lon="14.820983997263887"><ele>347.33333333333337</ele><time>2026-03-22T10:59:25Z</time></trkpt><trkpt lat="41.896074196055494" lon="14.82121644294365"><ele>347.6666666666667</ele><time>2026-03-22T10:59:26Z</time></trkpt><trkpt lat="41.89622223552244" lon="14.821408389856765"><ele>348.0</ele><time>2026-03-22T10:59:27Z</time></trkpt><trkpt lat="41.896357377819186" lon="14.821613111583602"><ele>348.0</ele><time>2026-03-22T10:59:28Z</time></trkpt><trkpt lat="41.896501828704736" lon="14.821806913642376"><ele>348.0</ele><time>2026-03-22T10:59:29Z</time></trkpt><trkpt lat="41.89665632832116" lon="14.821985743425408"><ele>348.0</ele><time>2026-03-22T10:59:30Z</time></trkpt><trkpt lat="41.89681605391044" lon="14.822164199067105"><ele>348.3333333333333</ele><time>2026-03-22T10:59:31Z</time></trkpt><trkpt lat="41.89698676701189" lon="14.822331853658481"><ele>348.66666666666663</ele><time>2026-03-22T10:59:32Z</time></trkpt><trkpt lat="41.89715297434353" lon="14.82250610530942"><ele>349.0</ele><time>2026-03-22T10:59:33Z</time></trkpt><trkpt lat="41.89731674925272" lon="14.822678634701624"><ele>349.66666666666663</ele><time>2026-03-22T10:59:34Z</time></trkpt><trkpt lat="41.89745805850293" lon="14.822867547540538"><ele>350.3333333333333</ele><time>2026-03-22T10:59:35Z</time></trkpt><trkpt lat="41.897572619687814" lon="14.823050290923003"><ele>351.0</ele><time>2026-03-22T10:59:36Z</time></trkpt><trkpt lat="41.897650571359755" lon="14.823265160662997"><ele>351.0</ele><time>2026-03-22T10:59:37Z</time></trkpt><trkpt lat="41.897706967432285" lon="14.823480443984073"><ele>351.0</ele><time>2026-03-22T10:59:38Z</time></trkpt><trkpt lat="41.89776163483197" lon="14.823696825039212"><ele>351.0</ele><time>2026-03-22T10:59:39Z</time></trkpt><trkpt lat="41.89781462821947" lon="14.823901191694118"><ele>350.25</ele><time>2026-03-22T10:59:40Z</time></trkpt><trkpt lat="41.89788162801089" lon="14.824075774154865"><ele>349.5</ele><time>2026-03-22T10:59:41Z</time></trkpt><trkpt lat="41.89793952253579" lon="14.824236647235729"><ele>348.75</ele><time>2026-03-22T10:59:42Z</time></trkpt><trkpt lat="41.898023524595665" lon="14.824361423870878"><ele>348.0</ele><time>2026-03-22T10:59:43Z</time></trkpt><trkpt lat="41.89814494418912" lon="14.824417202003081"><ele>346.6666666666667</ele><time>2026-03-22T10:59:44Z</time></trkpt><trkpt lat="41.89827798869207" lon="14.82449009349556"><ele>345.33333333333337</ele><time>2026-03-22T10:59:45Z</time></trkpt><trkpt lat="41.89844162898246" lon="14.824526787460938"><ele>344.0</ele><time>2026-03-22T10:59:46Z</time></trkpt><trkpt lat="41.89861360414354" lon="14.82460146075948"><ele>343.0</ele><time>2026-03-22T10:59:47Z</time></trkpt><trkpt lat="41.89879529637233" lon="14.824679138831886"><ele>342.0</ele><time>2026-03-22T10:59:48Z</time></trkpt><trkpt lat="41.89898132680423" lon="14.824769680596912"><ele>341.0</ele><time>2026-03-22T10:59:49Z</time></trkpt><trkpt lat="41.899163036898926" lon="14.824860589590658"><ele>340.33333333333337</ele><time>2026-03-22T10:59:50Z</time></trkpt><trkpt lat="41.89934317719509" lon="14.824970520219049"><ele>339.6666666666667</ele><time>2026-03-22T10:59:51Z</time></trkpt><trkpt lat="41.89952395344744" lon="14.82508246376707"><ele>339.0</ele><time>2026-03-22T10:59:52Z</time></trkpt><trkpt lat="41.89969391518392" lon="14.825184084070955"><ele>339.0</ele><time>2026-03-22T10:59:53Z</time></trkpt><trkpt lat="41.89984767343179" lon="14.825298044810108"><ele>339.0</ele><time>2026-03-22T10:59:54Z</time></trkpt><trkpt lat="41.899997476007364" lon="14.825390692427014"><ele>339.0</ele><time>2026-03-22T10:59:55Z</time></trkpt><trkpt lat="41.9001308508315" lon="14.825499913755577"><ele>338.0</ele><time>2026-03-22T10:59:56Z</time></trkpt><trkpt lat="41.90025779995859" lon="14.825634777169695"><ele>337.0</ele><time>2026-03-22T10:59:57Z</time></trkpt><trkpt lat="41.900387438348325" lon="14.825790221115222"><ele>336.0</ele><time>2026-03-22T10:59:58Z</time></trkpt><trkpt lat="41.90052260880979" lon="14.825961712671695"><ele>336.6666666666667</ele><time>2026-03-22T10:59:59Z</time></trkpt><trkpt lat="41.900662097918804" lon="14.826142330295172"><ele>337.33333333333337</ele><time>2026-03-22T11:00:00Z</time></trkpt><trkpt lat="41.90081114413029" lon="14.826310408051265"><ele>338.0</ele><time>2026-03-22T11:00:01Z</time></trkpt><trkpt lat="41.90093924874461" lon="14.826473804553434"><ele>338.0</ele><time>2026-03-22T11:00:02Z</time></trkpt><trkpt lat="41.90104687960622" lon="14.826616535968192"><ele>338.0</ele><time>2026-03-22T11:00:03Z</time></trkpt><trkpt lat="41.90110172128108" lon="14.826759285849512"><ele>338.0</ele><time>2026-03-22T11:00:04Z</time></trkpt><trkpt lat="41.901141082138395" lon="14.82688063627928"><ele>338.0</ele><time>2026-03-22T11:00:05Z</time></trkpt><trkpt lat="41.901120973618966" lon="14.826995649903413"><ele>337.75</ele><time>2026-03-22T11:00:06Z</time></trkpt><trkpt lat="41.90108377695079" lon="14.827127337191435"><ele>337.5</ele><time>2026-03-22T11:00:07Z</time></trkpt><trkpt lat="41.9010565342673" lon="14.827309097449847"><ele>337.25</ele><time>2026-03-22T11:00:08Z</time></trkpt><trkpt lat="41.90102733354577" lon="14.82750392122641"><ele>337.0</ele><time>2026-03-22T11:00:09Z</time></trkpt><trkpt lat="41.900992800291085" lon="14.827699030309358"><ele>336.25</ele><time>2026-03-22T11:00:10Z</time></trkpt><trkpt lat="41.90095088875164" lon="14.827883417759544"><ele>335.5</ele><time>2026-03-22T11:00:11Z</time></trkpt><trkpt lat="41.90089495996311" lon="14.82804092302037"><ele>334.75</ele><time>2026-03-22T11:00:12Z</time></trkpt><trkpt lat="41.90081217534304" lon="14.828209913598316"><ele>334.0</ele><time>2026-03-22T11:00:13Z</time></trkpt><trkpt lat="41.900719076222124" lon="14.828379815462204"><ele>334.3333333333333</ele><time>2026-03-22T11:00:14Z</time></trkpt><trkpt lat="41.900619068453196" lon="14.828542492012733"><ele>334.6666666666667</ele><time>2026-03-22T11:00:15Z</time></trkpt><trkpt lat="41.90050998055463" lon="14.828685139950885"><ele>335.0</ele><time>2026-03-22T11:00:16Z</time></trkpt><trkpt lat="41.90037922418969" lon="14.82882253031311"><ele>335.0</ele><time>2026-03-22T11:00:17Z</time></trkpt><trkpt lat="41.900226915559436" lon="14.82896956194714"><ele>335.0</ele><time>2026-03-22T11:00:18Z</time></trkpt><trkpt lat="41.900070976219084" lon="14.829133407973625"><ele>335.0</ele><time>2026-03-22T11:00:19Z</time></trkpt><trkpt lat="41.89991814628764" lon="14.829305395473343"><ele>335.0</ele><time>2026-03-22T11:00:20Z</time></trkpt><trkpt lat="41.89977989373527" lon="14.829467111041458"><ele>335.0</ele><time>2026-03-22T11:00:21Z</time></trkpt><trkpt lat="41.89964072691623" lon="14.82963383361905"><ele>335.0</ele><time>2026-03-22T11:00:22Z</time></trkpt><trkpt lat="41.89949814157659" lon="14.829810673029227"><ele>335.0</ele><time>2026-03-22T11:00:23Z</time></trkpt><trkpt lat="41.89936013790111" lon="14.83000357783609"><ele>335.0</ele><time>2026-03-22T11:00:24Z</time></trkpt><trkpt lat="41.89921351928358" lon="14.830194157421062"><ele>335.0</ele><time>2026-03-22T11:00:25Z</time></trkpt><trkpt lat="41.89908391184409" lon="14.83039553944692"><ele>337.0</ele><time>2026-03-22T11:00:26Z</time></trkpt><trkpt lat="41.89896229919865" lon="14.830608657139205"><ele>339.0</ele><time>2026-03-22T11:00:27Z</time></trkpt><trkpt lat="41.89884461966365" lon="14.830829648497751"><ele>341.0</ele><time>2026-03-22T11:00:28Z</time></trkpt><trkpt lat="41.89871741102013" lon="14.831048596693487"><ele>342.6666666666667</ele><time>2026-03-22T11:00:29Z</time></trkpt><trkpt lat="41.89862034341664" lon="14.831287197302968"><ele>344.3333333333333</ele><time>2026-03-22T11:00:30Z</time></trkpt><trkpt lat="41.89853006874801" lon="14.83150362991885"><ele>346.0</ele><time>2026-03-22T11:00:31Z</time></trkpt><trkpt lat="41.898452821477825" lon="14.83171926230551"><ele>345.3333333333333</ele><time>2026-03-22T11:00:32Z</time></trkpt><trkpt lat="41.89837707365222" lon="14.83193341917406"><ele>344.6666666666667</ele><time>2026-03-22T11:00:33Z</time></trkpt><trkpt lat="41.898347211917695" lon="14.832157592062416"><ele>344.0</ele><time>2026-03-22T11:00:34Z</time></trkpt><trkpt lat="41.89832153828848" lon="14.8323950038796"><ele>344.0</ele><time>2026-03-22T11:00:35Z</time></trkpt><trkpt lat="41.89831269875517" lon="14.832637063831335"><ele>344.0</ele><time>2026-03-22T11:00:36Z</time></trkpt><trkpt lat="41.89831687056044" lon="14.832888368906245"><ele>344.0</ele><time>2026-03-22T11:00:37Z</time></trkpt><trkpt lat="41.8983381793763" lon="14.833165649738167"><ele>344.33333333333337</ele><time>2026-03-22T11:00:38Z</time></trkpt><trkpt lat="41.89835308676011" lon="14.833453297834948"><ele>344.6666666666667</ele><time>2026-03-22T11:00:39Z</time></trkpt><trkpt lat="41.89836837652502" lon="14.833750307996432"><ele>345.0</ele><time>2026-03-22T11:00:40Z</time></trkpt><trkpt lat="41.89838394665091" lon="14.834051672213299"><ele>344.6666666666667</ele><time>2026-03-22T11:00:41Z</time></trkpt><trkpt lat="41.89839909087732" lon="14.834344792894553"><ele>344.33333333333337</ele><time>2026-03-22T11:00:42Z</time></trkpt><trkpt lat="41.89841405912471" lon="14.834634507504209"><ele>344.0</ele><time>2026-03-22T11:00:43Z</time></trkpt><trkpt lat="41.89844487229151" lon="14.834913500109794"><ele>347.6666666666667</ele><time>2026-03-22T11:00:44Z</time></trkpt><trkpt lat="41.89845742361728" lon="14.835194780938089"><ele>351.3333333333333</ele><time>2026-03-22T11:00:45Z</time></trkpt><trkpt lat="41.89845438214511" lon="14.835474686925785"><ele>355.0</ele><time>2026-03-22T11:00:46Z</time></trkpt><trkpt lat="41.89846656979736" lon="14.835749352068103"><ele>355.66666666666663</ele><time>2026-03-22T11:00:47Z</time></trkpt><trkpt lat="41.898479778745525" lon="14.836030052981508"><ele>356.3333333333333</ele><time>2026-03-22T11:00:48Z</time></trkpt><trkpt lat="41.89849230950467" lon="14.836309941160096"><ele>357.0</ele><time>2026-03-22T11:00:49Z</time></trkpt><trkpt lat="41.89850440347738" lon="14.836593112850435"><ele>356.6666666666667</ele><time>2026-03-22T11:00:50Z</time></trkpt><trkpt lat="41.898516666949746" lon="14.8368802532931"><ele>356.33333333333337</ele><time>2026-03-22T11:00:51Z</time></trkpt><trkpt lat="41.89852967983227" lon="14.837169448973624"><ele>356.0</ele><time>2026-03-22T11:00:52Z</time></trkpt><trkpt lat="41.89854324412671" lon="14.837463451507343"><ele>356.6666666666667</ele><time>2026-03-22T11:00:53Z</time></trkpt><trkpt lat="41.89855744275404" lon="14.83776321108567"><ele>357.3333333333333</ele><time>2026-03-22T11:00:54Z</time></trkpt><trkpt lat="41.89857206089808" lon="14.83806500928485"><ele>358.0</ele><time>2026-03-22T11:00:55Z</time></trkpt><trkpt lat="41.8985866518627" lon="14.838367571469034"><ele>357.66666666666663</ele><time>2026-03-22T11:00:56Z</time></trkpt><trkpt lat="41.89860113349585" lon="14.838671381935876"><ele>357.3333333333333</ele><time>2026-03-22T11:00:57Z</time></trkpt><trkpt lat="41.89861419737968" lon="14.838945449505626"><ele>357.0</ele><time>2026-03-22T11:00:58Z</time></trkpt><trkpt lat="41.89862545884439" lon="14.839181703904423"><ele>357.0</ele><time>2026-03-22T11:00:59Z</time></trkpt><trkpt lat="41.89863087491874" lon="14.83939015536005"><ele>357.0</ele><time>2026-03-22T11:01:00Z</time></trkpt><trkpt lat="41.89862953790662" lon="14.839597235035464"><ele>357.0</ele><time>2026-03-22T11:01:01Z</time></trkpt><trkpt lat="41.89860607078993" lon="14.839797735060507"><ele>357.0</ele><time>2026-03-22T11:01:02Z</time></trkpt><trkpt lat="41.898561653375324" lon="14.839990468097215"><ele>357.0</ele><time>2026-03-22T11:01:03Z</time></trkpt><trkpt lat="41.89849566266507" lon="14.840178236318073"><ele>357.0</ele><time>2026-03-22T11:01:04Z</time></trkpt><trkpt lat="41.898409228660796" lon="14.840358366296574"><ele>356.3333333333333</ele><time>2026-03-22T11:01:05Z</time></trkpt><trkpt lat="41.898315294040145" lon="14.840529822841866"><ele>355.66666666666663</ele><time>2026-03-22T11:01:06Z</time></trkpt><trkpt lat="41.89820505262729" lon="14.840675608402103"><ele>355.0</ele><time>2026-03-22T11:01:07Z</time></trkpt><trkpt lat="41.89808807377385" lon="14.840823117433297"><ele>352.3333333333333</ele><time>2026-03-22T11:01:08Z</time></trkpt><trkpt lat="41.89795745103479" lon="14.840972701949745"><ele>349.6666666666667</ele><time>2026-03-22T11:01:09Z</time></trkpt><trkpt lat="41.897819426767896" lon="14.84112015826348"><ele>347.0</ele><time>2026-03-22T11:01:10Z</time></trkpt><trkpt lat="41.89768893414506" lon="14.841249178263329"><ele>349.6666666666667</ele><time>2026-03-22T11:01:11Z</time></trkpt><trkpt lat="41.89755984216371" lon="14.841364112651686"><ele>352.3333333333333</ele><time>2026-03-22T11:01:12Z</time></trkpt><trkpt lat="41.89741928499204" lon="14.84146129623351"><ele>355.0</ele><time>2026-03-22T11:01:13Z</time></trkpt><trkpt lat="41.8972643856446" lon="14.84156156068658"><ele>355.0</ele><time>2026-03-22T11:01:14Z</time></trkpt><trkpt lat="41.89711825592029" lon="14.84167193985861"><ele>355.0</ele><time>2026-03-22T11:01:15Z</time></trkpt><trkpt lat="41.89695461012255" lon="14.841748043329087"><ele>355.0</ele><time>2026-03-22T11:01:16Z</time></trkpt><trkpt lat="41.896795707091826" lon="14.841831831425784"><ele>352.6</ele><time>2026-03-22T11:01:17Z</time></trkpt><trkpt lat="41.89666733872155" lon="14.841904915631028"><ele>350.2</ele><time>2026-03-22T11:01:18Z</time></trkpt><trkpt lat="41.89659269948674" lon="14.84193863978947"><ele>347.79999999999995</ele><time>2026-03-22T11:01:19Z</time></trkpt><trkpt lat="41.896517420441896" lon="14.841981089994064"><ele>345.4</ele><time>2026-03-22T11:02:37Z</time></trkpt><trkpt lat="41.89641213371179" lon="14.84200965342489"><ele>343.0</ele><time>2026-03-22T11:02:39Z</time></trkpt><trkpt lat="41.89633845159202" lon="14.842046454021276"><ele>343.0</ele><time>2026-03-22T11:02:40Z</time></trkpt><trkpt lat="41.89625980904438" lon="14.842084261742935"><ele>343.0</ele><time>2026-03-22T11:02:41Z</time></trkpt><trkpt lat="41.896166458445585" lon="14.842122663011288"><ele>343.0</ele><time>2026-03-22T11:02:42Z</time></trkpt><trkpt lat="41.89606664864631" lon="14.842153377925115"><ele>343.0</ele><time>2026-03-22T11:02:43Z</time></trkpt><trkpt lat="41.89595443741733" lon="14.842181208209086"><ele>343.0</ele><time>2026-03-22T11:02:44Z</time></trkpt><trkpt lat="41.895845339149034" lon="14.842208123928126"><ele>343.25</ele><time>2026-03-22T11:02:45Z</time></trkpt><trkpt lat="41.89573827515564" lon="14.842234537792391"><ele>343.5</ele><time>2026-03-22T11:02:46Z</time></trkpt><trkpt lat="41.89562300213609" lon="14.842262976916125"><ele>343.75</ele><time>2026-03-22T11:02:47Z</time></trkpt><trkpt lat="41.89546760522598" lon="14.842301315024129"><ele>344.0</ele><time>2026-03-22T11:02:48Z</time></trkpt><trkpt lat="41.89540045209313" lon="14.842317882446915"><ele>344.0</ele><time>2026-03-22T11:02:49Z</time></trkpt><trkpt lat="41.895281916199814" lon="14.842346872702507"><ele>344.0</ele><time>2026-03-22T11:02:50Z</time></trkpt><trkpt lat="41.89516539817218" lon="14.842375217036697"><ele>344.0</ele><time>2026-03-22T11:02:51Z</time></trkpt><trkpt lat="41.89505840483767" lon="14.842401244339582"><ele>344.0</ele><time>2026-03-22T11:02:52Z</time></trkpt><trkpt lat="41.89495633906161" lon="14.842448224623348"><ele>344.0</ele><time>2026-03-22T11:02:53Z</time></trkpt><trkpt lat="41.894853539303995" lon="14.842465403654927"><ele>344.0</ele><time>2026-03-22T11:02:54Z</time></trkpt><trkpt lat="41.894748622046514" lon="14.842494341700155"><ele>344.0</ele><time>2026-03-22T11:02:55Z</time></trkpt><trkpt lat="41.894638373783856" lon="14.8425239005693"><ele>344.0</ele><time>2026-03-22T11:02:56Z</time></trkpt><trkpt lat="41.89452435467678" lon="14.842551125865404"><ele>344.0</ele><time>2026-03-22T11:02:57Z</time></trkpt><trkpt lat="41.89440205243334" lon="14.842599685021836"><ele>340.25</ele><time>2026-03-22T11:02:58Z</time></trkpt><trkpt lat="41.894263831694104" lon="14.842647372141963"><ele>336.5</ele><time>2026-03-22T11:02:59Z</time></trkpt><trkpt lat="41.894126507860435" lon="14.84271825634059"><ele>332.75</ele><time>2026-03-22T11:03:00Z</time></trkpt><trkpt lat="41.89397567235866" lon="14.842774396328661"><ele>329.0</ele><time>2026-03-22T11:03:01Z</time></trkpt><trkpt lat="41.893836610361625" lon="14.842870471319836"><ele>329.0</ele><time>2026-03-22T11:03:02Z</time></trkpt><trkpt lat="41.893717988624694" lon="14.84291260766283"><ele>329.0</ele><time>2026-03-22T11:03:03Z</time></trkpt><trkpt lat="41.89363833610552" lon="14.842957003671035"><ele>329.0</ele><time>2026-03-22T11:03:04Z</time></trkpt><trkpt lat="41.89358455703988" lon="14.843011024021775"><ele>329.0</ele><time>2026-03-22T11:03:05Z</time></trkpt><trkpt lat="41.89352416568414" lon="14.843043003903821"><ele>329.0</ele><time>2026-03-22T11:03:06Z</time></trkpt><trkpt lat="41.89344849006677" lon="14.843061037631223"><ele>329.0</ele><time>2026-03-22T11:03:08Z</time></trkpt><trkpt lat="41.89351330387961" lon="14.843026693045955"><ele>329.0</ele><time>2026-03-22T11:03:32Z</time></trkpt><trkpt lat="41.89360306274878" lon="14.842978060466592"><ele>329.0</ele><time>2026-03-22T11:03:34Z</time></trkpt><trkpt lat="41.8936915760672" lon="14.842985694730622"><ele>329.0</ele><time>2026-03-22T11:03:35Z</time></trkpt><trkpt lat="41.89378035785302" lon="14.842941871794348"><ele>329.0</ele><time>2026-03-22T11:03:36Z</time></trkpt><trkpt lat="41.89386602912094" lon="14.842890864611455"><ele>329.0</ele><time>2026-03-22T11:03:37Z</time></trkpt><trkpt lat="41.89394194284529" lon="14.842846221042583"><ele>329.0</ele><time>2026-03-22T11:03:38Z</time></trkpt><trkpt lat="41.8940190119607" lon="14.842814832841224"><ele>329.0</ele><time>2026-03-22T11:03:39Z</time></trkpt><trkpt lat="41.894089702616014" lon="14.842777111277465"><ele>329.0</ele><time>2026-03-22T11:03:40Z</time></trkpt><trkpt lat="41.894175843456544" lon="14.842736582762685"><ele>329.0</ele><time>2026-03-22T11:03:42Z</time></trkpt><trkpt lat="41.894249534227555" lon="14.842709536646172"><ele>329.0</ele><time>2026-03-22T11:03:46Z</time></trkpt><trkpt lat="41.8941785327258" lon="14.84268568540207"><ele>329.0</ele><time>2026-03-22T11:05:21Z</time></trkpt><trkpt lat="41.89410851714262" lon="14.842719956095557"><ele>329.0</ele><time>2026-03-22T11:05:22Z</time></trkpt><trkpt lat="41.894021496553364" lon="14.842768481576291"><ele>329.0</ele><time>2026-03-22T11:05:23Z</time></trkpt><trkpt lat="41.89390732132427" lon="14.842809530741468"><ele>329.0</ele><time>2026-03-22T11:05:24Z</time></trkpt><trkpt lat="41.89380293856361" lon="14.842866136336468"><ele>329.0</ele><time>2026-03-22T11:05:25Z</time></trkpt><trkpt lat="41.8937109244456" lon="14.842916545038538"><ele>329.0</ele><time>2026-03-22T11:05:26Z</time></trkpt><trkpt lat="41.89361005757118" lon="14.8429727653327"><ele>329.0</ele><time>2026-03-22T11:05:27Z</time></trkpt><trkpt lat="41.893508873401416" lon="14.843051466976604"><ele>329.0</ele><time>2026-03-22T11:05:28Z</time></trkpt><trkpt lat="41.893392820858814" lon="14.843092591909171"><ele>329.0</ele><time>2026-03-22T11:05:29Z</time></trkpt><trkpt lat="41.893279130351594" lon="14.8431539349692"><ele>329.0</ele><time>2026-03-22T11:05:30Z</time></trkpt><trkpt lat="41.893164977882584" lon="14.843215367849028"><ele>330.25</ele><time>2026-03-22T11:05:31Z</time></trkpt><trkpt lat="41.893048771169646" lon="14.84327782053913"><ele>331.5</ele><time>2026-03-22T11:05:32Z</time></trkpt><trkpt lat="41.8929359364928" lon="14.84336023146189"><ele>332.75</ele><time>2026-03-22T11:05:33Z</time></trkpt><trkpt lat="41.892817014176174" lon="14.843422661482313"><ele>334.0</ele><time>2026-03-22T11:05:34Z</time></trkpt><trkpt lat="41.89269005393497" lon="14.843459991956552"><ele>332.5</ele><time>2026-03-22T11:05:35Z</time></trkpt><trkpt lat="41.89256583342131" lon="14.84351364217168"><ele>331.0</ele><time>2026-03-22T11:05:36Z</time></trkpt><trkpt lat="41.892445718624444" lon="14.843557594546297"><ele>329.5</ele><time>2026-03-22T11:05:37Z</time></trkpt><trkpt lat="41.892339632795476" lon="14.843584163931244"><ele>328.0</ele><time>2026-03-22T11:05:38Z</time></trkpt><trkpt lat="41.89223138851125" lon="14.84360589626313"><ele>328.0</ele><time>2026-03-22T11:05:39Z</time></trkpt><trkpt lat="41.89210854479608" lon="14.843580749105543"><ele>328.0</ele><time>2026-03-22T11:05:40Z</time></trkpt><trkpt lat="41.8919775424888" lon="14.843543438215766"><ele>328.0</ele><time>2026-03-22T11:05:41Z</time></trkpt><trkpt lat="41.8918406473528" lon="14.843510093190282"><ele>328.0</ele><time>2026-03-22T11:05:42Z</time></trkpt><trkpt lat="41.891698562426434" lon="14.843476153660573"><ele>328.25</ele><time>2026-03-22T11:05:43Z</time></trkpt><trkpt lat="41.89155740319292" lon="14.84341953074246"><ele>328.5</ele><time>2026-03-22T11:05:44Z</time></trkpt><trkpt lat="41.89140901134709" lon="14.843384057759172"><ele>328.75</ele><time>2026-03-22T11:05:45Z</time></trkpt><trkpt lat="41.89126185031543" lon="14.843349302140114"><ele>329.0</ele><time>2026-03-22T11:05:46Z</time></trkpt><trkpt lat="41.89111690303577" lon="14.843315069412725"><ele>329.0</ele><time>2026-03-22T11:05:47Z</time></trkpt><trkpt lat="41.89097629891812" lon="14.843303490897407"><ele>329.0</ele><time>2026-03-22T11:05:48Z</time></trkpt><trkpt lat="41.89084331232458" lon="14.843248514392092"><ele>329.0</ele><time>2026-03-22T11:05:49Z</time></trkpt><trkpt lat="41.890719979661505" lon="14.843219032800198"><ele>329.0</ele><time>2026-03-22T11:05:50Z</time></trkpt><trkpt lat="41.89060777345263" lon="14.843202102422717"><ele>328.0</ele><time>2026-03-22T11:05:51Z</time></trkpt><trkpt lat="41.890505645638" lon="14.843197809555273"><ele>327.0</ele><time>2026-03-22T11:05:52Z</time></trkpt><trkpt lat="41.890411917391994" lon="14.843214380539651"><ele>326.0</ele><time>2026-03-22T11:05:53Z</time></trkpt><trkpt lat="41.89030409442794" lon="14.843274004290151"><ele>325.0</ele><time>2026-03-22T11:05:54Z</time></trkpt><trkpt lat="41.890216349302534" lon="14.843293905723035"><ele>324.0</ele><time>2026-03-22T11:05:55Z</time></trkpt><trkpt lat="41.89016118515108" lon="14.843341732194794"><ele>320.6666666666667</ele><time>2026-03-22T11:05:56Z</time></trkpt><trkpt lat="41.88993777725288" lon="14.843550913322304"><ele>317.33333333333337</ele><time>2026-03-22T11:05:57Z</time></trkpt><trkpt lat="41.889816419408284" lon="14.843651285941322"><ele>314.0</ele><time>2026-03-22T11:05:58Z</time></trkpt><trkpt lat="41.889694477112926" lon="14.843759074727771"><ele>314.0</ele><time>2026-03-22T11:05:59Z</time></trkpt><trkpt lat="41.88958667212782" lon="14.84388910672677"><ele>314.0</ele><time>2026-03-22T11:06:00Z</time></trkpt><trkpt lat="41.88947531058828" lon="14.844031572683894"><ele>314.0</ele><time>2026-03-22T11:06:01Z</time></trkpt><trkpt lat="41.88934454084533" lon="14.844172698487775"><ele>312.0</ele><time>2026-03-22T11:06:02Z</time></trkpt><trkpt lat="41.889220496223984" lon="14.844335380010179"><ele>310.0</ele><time>2026-03-22T11:06:03Z</time></trkpt><trkpt lat="41.889087975106186" lon="14.844510100834949"><ele>308.0</ele><time>2026-03-22T11:06:04Z</time></trkpt><trkpt lat="41.88894921772182" lon="14.84469321620929"><ele>308.0</ele><time>2026-03-22T11:06:05Z</time></trkpt><trkpt lat="41.888829309813026" lon="14.84485145625962"><ele>308.0</ele><time>2026-03-22T11:06:06Z</time></trkpt><trkpt lat="41.88871537102652" lon="14.845002227556131"><ele>308.0</ele><time>2026-03-22T11:06:07Z</time></trkpt><trkpt lat="41.888609791352955" lon="14.845142068730915"><ele>306.2</ele><time>2026-03-22T11:06:08Z</time></trkpt><trkpt lat="41.888512957677015" lon="14.845270326184009"><ele>304.4</ele><time>2026-03-22T11:06:09Z</time></trkpt><trkpt lat="41.8884320519092" lon="14.845355868548925"><ele>302.59999999999997</ele><time>2026-03-22T11:06:10Z</time></trkpt><trkpt lat="41.888353532037044" lon="14.845416666514927"><ele>300.8</ele><time>2026-03-22T11:06:11Z</time></trkpt><trkpt lat="41.88826366581058" lon="14.845466063079748"><ele>299.0</ele><time>2026-03-22T11:06:12Z</time></trkpt><trkpt lat="41.88816450569048" lon="14.84548435028545"><ele>299.0</ele><time>2026-03-22T11:06:13Z</time></trkpt><trkpt lat="41.88804703122927" lon="14.845506857804036"><ele>299.0</ele><time>2026-03-22T11:06:14Z</time></trkpt><trkpt lat="41.88793751020832" lon="14.845527712040036"><ele>299.0</ele><time>2026-03-22T11:06:15Z</time></trkpt><trkpt lat="41.88784427769624" lon="14.845545464803838"><ele>299.0</ele><time>2026-03-22T11:06:16Z</time></trkpt><trkpt lat="41.887774200214935" lon="14.845571536633333"><ele>299.0</ele><time>2026-03-22T11:06:17Z</time></trkpt><trkpt lat="41.88767837662242" lon="14.845656570575116"><ele>299.0</ele><time>2026-03-22T11:06:19Z</time></trkpt><trkpt lat="41.88767966540373" lon="14.845776891446976"><ele>299.0</ele><time>2026-03-22T11:06:20Z</time></trkpt><trkpt lat="41.88773952244344" lon="14.845864249217714"><ele>299.0</ele><time>2026-03-22T11:06:21Z</time></trkpt><trkpt lat="41.88781561622949" lon="14.845922816073491"><ele>299.0</ele><time>2026-03-22T11:06:22Z</time></trkpt><trkpt lat="41.88791577208584" lon="14.845977010082194"><ele>299.0</ele><time>2026-03-22T11:06:23Z</time></trkpt><trkpt lat="41.888035019354696" lon="14.846030859683038"><ele>296.5</ele><time>2026-03-22T11:06:24Z</time></trkpt><trkpt lat="41.88814613983385" lon="14.846100235579726"><ele>294.0</ele><time>2026-03-22T11:06:25Z</time></trkpt><trkpt lat="41.888267783635165" lon="14.846167265791628"><ele>291.5</ele><time>2026-03-22T11:06:26Z</time></trkpt><trkpt lat="41.8884020913847" lon="14.846206386702303"><ele>289.0</ele><time>2026-03-22T11:06:27Z</time></trkpt><trkpt lat="41.88854726903351" lon="14.84621205438229"><ele>288.75</ele><time>2026-03-22T11:06:28Z</time></trkpt><trkpt lat="41.88869835876531" lon="14.846222973239827"><ele>288.5</ele><time>2026-03-22T11:06:29Z</time></trkpt><trkpt lat="41.888837567621394" lon="14.846233057381482"><ele>288.25</ele><time>2026-03-22T11:06:30Z</time></trkpt><trkpt lat="41.88896479025487" lon="14.846244589172022"><ele>288.0</ele><time>2026-03-22T11:06:31Z</time></trkpt><trkpt lat="41.8890739967158" lon="14.846253635880771"><ele>288.0</ele><time>2026-03-22T11:06:32Z</time></trkpt><trkpt lat="41.889160212078146" lon="14.846296134365826"><ele>288.0</ele><time>2026-03-22T11:06:33Z</time></trkpt><trkpt lat="41.88923540788953" lon="14.846327061423752"><ele>288.0</ele><time>2026-03-22T11:06:34Z</time></trkpt><trkpt lat="41.88927979797227" lon="14.84646234876756"><ele>288.0</ele><time>2026-03-22T11:06:35Z</time></trkpt><trkpt lat="41.88930245319726" lon="14.846609983017276"><ele>288.0</ele><time>2026-03-22T11:06:36Z</time></trkpt><trkpt lat="41.88934429418429" lon="14.846779132688285"><ele>287.3333333333333</ele><time>2026-03-22T11:06:37Z</time></trkpt><trkpt lat="41.88938722759721" lon="14.846963856060839"><ele>286.66666666666663</ele><time>2026-03-22T11:06:38Z</time></trkpt><trkpt lat="41.88945029944538" lon="14.847164215891379"><ele>286.0</ele><time>2026-03-22T11:06:39Z</time></trkpt><trkpt lat="41.88949061042738" lon="14.847365320397481"><ele>286.0</ele><time>2026-03-22T11:06:40Z</time></trkpt><trkpt lat="41.88952684283861" lon="14.84757719389916"><ele>286.0</ele><time>2026-03-22T11:06:41Z</time></trkpt><trkpt lat="41.889579601551844" lon="14.847784026319525"><ele>286.0</ele><time>2026-03-22T11:06:42Z</time></trkpt><trkpt lat="41.88962823879677" lon="14.847987841343523"><ele>284.0</ele><time>2026-03-22T11:06:43Z</time></trkpt><trkpt lat="41.88967109768354" lon="14.848168503900476"><ele>282.0</ele><time>2026-03-22T11:06:44Z</time></trkpt><trkpt lat="41.88970542272109" lon="14.848329958459734"><ele>280.0</ele><time>2026-03-22T11:06:45Z</time></trkpt><trkpt lat="41.88972784282727" lon="14.8484863841"><ele>278.0</ele><time>2026-03-22T11:06:46Z</time></trkpt><trkpt lat="41.88972864474843" lon="14.848640988581497"><ele>277.25</ele><time>2026-03-22T11:06:47Z</time></trkpt><trkpt lat="41.88969668411575" lon="14.848794499811273"><ele>276.5</ele><time>2026-03-22T11:06:48Z</time></trkpt><trkpt lat="41.889646763834484" lon="14.848962761485804"><ele>275.75</ele><time>2026-03-22T11:06:49Z</time></trkpt><trkpt lat="41.889588532494415" lon="14.84914680122486"><ele>275.0</ele><time>2026-03-22T11:06:50Z</time></trkpt><trkpt lat="41.88952840538851" lon="14.849336832641173"><ele>273.75</ele><time>2026-03-22T11:06:51Z</time></trkpt><trkpt lat="41.889468299711446" lon="14.849526796198695"><ele>272.5</ele><time>2026-03-22T11:06:52Z</time></trkpt><trkpt lat="41.88941054053422" lon="14.849709343651886"><ele>271.25</ele><time>2026-03-22T11:06:53Z</time></trkpt><trkpt lat="41.889358352053826" lon="14.8498734794105"><ele>270.0</ele><time>2026-03-22T11:06:54Z</time></trkpt><trkpt lat="41.88931122779878" lon="14.850020538434356"><ele>269.2</ele><time>2026-03-22T11:06:55Z</time></trkpt><trkpt lat="41.88926613391153" lon="14.850161261157389"><ele>268.4</ele><time>2026-03-22T11:06:56Z</time></trkpt><trkpt lat="41.8892420016984" lon="14.850288998862716"><ele>267.6</ele><time>2026-03-22T11:06:57Z</time></trkpt><trkpt lat="41.88920667792023" lon="14.850394168962582"><ele>266.8</ele><time>2026-03-22T11:06:58Z</time></trkpt><trkpt lat="41.88917975763317" lon="14.850484482032524"><ele>266.0</ele><time>2026-03-22T11:06:59Z</time></trkpt><trkpt lat="41.88919347931886" lon="14.85064820592639"><ele>266.0</ele><time>2026-03-22T11:07:01Z</time></trkpt><trkpt lat="41.88924459973565" lon="14.85071463385559"><ele>266.0</ele><time>2026-03-22T11:07:02Z</time></trkpt><trkpt lat="41.88935477148748" lon="14.850700068402032"><ele>266.0</ele><time>2026-03-22T11:07:03Z</time></trkpt><trkpt lat="41.88944792110225" lon="14.850639943350783"><ele>266.0</ele><time>2026-03-22T11:07:04Z</time></trkpt><trkpt lat="41.8895624817222" lon="14.85059357398386"><ele>266.0</ele><time>2026-03-22T11:07:05Z</time></trkpt><trkpt lat="41.88969498962666" lon="14.85050800671952"><ele>265.25</ele><time>2026-03-22T11:07:06Z</time></trkpt><trkpt lat="41.88981906713288" lon="14.85042891517862"><ele>264.5</ele><time>2026-03-22T11:07:07Z</time></trkpt><trkpt lat="41.88995672433012" lon="14.85035192830305"><ele>263.75</ele><time>2026-03-22T11:07:08Z</time></trkpt><trkpt lat="41.89009683303904" lon="14.85028403018638"><ele>263.0</ele><time>2026-03-22T11:07:09Z</time></trkpt><trkpt lat="41.89021634852813" lon="14.850202941545177"><ele>262.2</ele><time>2026-03-22T11:07:10Z</time></trkpt><trkpt lat="41.89031017491739" lon="14.850154173074422"><ele>261.4</ele><time>2026-03-22T11:07:11Z</time></trkpt><trkpt lat="41.89038948170225" lon="14.850123797911753"><ele>260.59999999999997</ele><time>2026-03-22T11:07:12Z</time></trkpt><trkpt lat="41.89047382447038" lon="14.850119711855664"><ele>259.8</ele><time>2026-03-22T11:07:13Z</time></trkpt><trkpt lat="41.89055724093293" lon="14.85016894374249"><ele>259.0</ele><time>2026-03-22T11:07:14Z</time></trkpt><trkpt lat="41.89061217210577" lon="14.85028385113144"><ele>258.75</ele><time>2026-03-22T11:07:15Z</time></trkpt><trkpt lat="41.89064488111949" lon="14.850412708559588"><ele>258.5</ele><time>2026-03-22T11:07:16Z</time></trkpt><trkpt lat="41.890702226819855" lon="14.850560538669919"><ele>258.25</ele><time>2026-03-22T11:07:17Z</time></trkpt><trkpt lat="41.89076844726125" lon="14.850725070588705"><ele>258.0</ele><time>2026-03-22T11:07:18Z</time></trkpt><trkpt lat="41.8908315994093" lon="14.850881979341613"><ele>258.0</ele><time>2026-03-22T11:07:19Z</time></trkpt><trkpt lat="41.89089385735977" lon="14.8510378667943"><ele>258.0</ele><time>2026-03-22T11:07:20Z</time></trkpt><trkpt lat="41.89095710256217" lon="14.851193422024759"><ele>258.0</ele><time>2026-03-22T11:07:21Z</time></trkpt><trkpt lat="41.891029271464305" lon="14.851312918023234"><ele>258.0</ele><time>2026-03-22T11:07:22Z</time></trkpt><trkpt lat="41.89108721759146" lon="14.85141863397917"><ele>257.25</ele><time>2026-03-22T11:07:23Z</time></trkpt><trkpt lat="41.89116708525651" lon="14.85149850473317"><ele>256.5</ele><time>2026-03-22T11:07:24Z</time></trkpt><trkpt lat="41.891271375640656" lon="14.85156563401659"><ele>255.75</ele><time>2026-03-22T11:07:25Z</time></trkpt><trkpt lat="41.89140261915408" lon="14.851611494855344"><ele>255.0</ele><time>2026-03-22T11:07:26Z</time></trkpt><trkpt lat="41.89154974316798" lon="14.851653130922694"><ele>255.0</ele><time>2026-03-22T11:07:27Z</time></trkpt><trkpt lat="41.891702232856176" lon="14.851694125124956"><ele>255.0</ele><time>2026-03-22T11:07:28Z</time></trkpt><trkpt lat="41.891853831309255" lon="14.851744907153101"><ele>255.0</ele><time>2026-03-22T11:07:29Z</time></trkpt><trkpt lat="41.892014223055114" lon="14.851794747484439"><ele>255.0</ele><time>2026-03-22T11:07:30Z</time></trkpt><trkpt lat="41.8921851299656" lon="14.85183130191884"><ele>255.0</ele><time>2026-03-22T11:07:31Z</time></trkpt><trkpt lat="41.89236532425491" lon="14.851854426776145"><ele>255.0</ele><time>2026-03-22T11:07:32Z</time></trkpt><trkpt lat="41.892553716560236" lon="14.851866018495231"><ele>254.33333333333331</ele><time>2026-03-22T11:07:33Z</time></trkpt><trkpt lat="41.8927441189645" lon="14.851882732916128"><ele>253.66666666666666</ele><time>2026-03-22T11:07:34Z</time></trkpt><trkpt lat="41.8929286145924" lon="14.851908797717806"><ele>253.0</ele><time>2026-03-22T11:07:35Z</time></trkpt><trkpt lat="41.89309914556348" lon="14.851921261242284"><ele>253.0</ele><time>2026-03-22T11:07:36Z</time></trkpt><trkpt lat="41.89326394028122" lon="14.851927644935017"><ele>253.0</ele><time>2026-03-22T11:07:37Z</time></trkpt><trkpt lat="41.893426552983485" lon="14.851925646402465"><ele>253.0</ele><time>2026-03-22T11:07:38Z</time></trkpt><trkpt lat="41.89359400534898" lon="14.851897565572267"><ele>254.0</ele><time>2026-03-22T11:07:39Z</time></trkpt><trkpt lat="41.89377204920572" lon="14.851850759917916"><ele>255.0</ele><time>2026-03-22T11:07:40Z</time></trkpt><trkpt lat="41.89397780929058" lon="14.851793679195556"><ele>256.0</ele><time>2026-03-22T11:07:41Z</time></trkpt><trkpt lat="41.89416578797527" lon="14.851743439398577"><ele>250.66666666666666</ele><time>2026-03-22T11:07:42Z</time></trkpt><trkpt lat="41.894338714323936" lon="14.851697569193766"><ele>245.33333333333331</ele><time>2026-03-22T11:07:43Z</time></trkpt><trkpt lat="41.89450049185469" lon="14.851658912930983"><ele>240.0</ele><time>2026-03-22T11:07:44Z</time></trkpt><trkpt lat="41.89465809574967" lon="14.851617151770025"><ele>240.0</ele><time>2026-03-22T11:07:45Z</time></trkpt><trkpt lat="41.89481703264122" lon="14.851581143684747"><ele>240.0</ele><time>2026-03-22T11:07:46Z</time></trkpt><trkpt lat="41.89495700483233" lon="14.851558762368546"><ele>240.0</ele><time>2026-03-22T11:07:47Z</time></trkpt><trkpt lat="41.8951037742527" lon="14.851521801917384"><ele>239.0</ele><time>2026-03-22T11:07:48Z</time></trkpt><trkpt lat="41.895248663867406" lon="14.851516786551294"><ele>238.0</ele><time>2026-03-22T11:07:49Z</time></trkpt><trkpt lat="41.89541011286403" lon="14.851542516394211"><ele>237.0</ele><time>2026-03-22T11:07:50Z</time></trkpt><trkpt lat="41.895583220848465" lon="14.851590122901824"><ele>237.0</ele><time>2026-03-22T11:07:51Z</time></trkpt><trkpt lat="41.89576399593826" lon="14.851652594256466"><ele>237.0</ele><time>2026-03-22T11:07:52Z</time></trkpt><trkpt lat="41.89595651701973" lon="14.8517103331144"><ele>237.0</ele><time>2026-03-22T11:07:53Z</time></trkpt><trkpt lat="41.89614494766288" lon="14.851764792364854"><ele>237.0</ele><time>2026-03-22T11:07:54Z</time></trkpt><trkpt lat="41.89632629730701" lon="14.85182408751844"><ele>237.0</ele><time>2026-03-22T11:07:55Z</time></trkpt><trkpt lat="41.89649165134998" lon="14.8518804892944"><ele>237.0</ele><time>2026-03-22T11:07:56Z</time></trkpt><trkpt lat="41.896650073222254" lon="14.851931493502937"><ele>234.5</ele><time>2026-03-22T11:07:57Z</time></trkpt><trkpt lat="41.89678904694675" lon="14.851984650230118"><ele>232.0</ele><time>2026-03-22T11:07:58Z</time></trkpt><trkpt lat="41.89690275975808" lon="14.852060814870505"><ele>229.5</ele><time>2026-03-22T11:07:59Z</time></trkpt><trkpt lat="41.89702245641465" lon="14.852146128503508"><ele>227.0</ele><time>2026-03-22T11:08:00Z</time></trkpt><trkpt lat="41.897148716921755" lon="14.852231645695325"><ele>227.0</ele><time>2026-03-22T11:08:01Z</time></trkpt><trkpt lat="41.89725105585424" lon="14.852326509685746"><ele>227.0</ele><time>2026-03-22T11:08:02Z</time></trkpt><trkpt lat="41.89733158528087" lon="14.852448421142538"><ele>227.0</ele><time>2026-03-22T11:08:03Z</time></trkpt><trkpt lat="41.897424872175684" lon="14.852582756446441"><ele>227.0</ele><time>2026-03-22T11:08:04Z</time></trkpt><trkpt lat="41.897516548838766" lon="14.852749245584096"><ele>222.0</ele><time>2026-03-22T11:08:05Z</time></trkpt><trkpt lat="41.89760697529705" lon="14.852942250991774"><ele>217.0</ele><time>2026-03-22T11:08:06Z</time></trkpt><trkpt lat="41.89770236924941" lon="14.853147248864552"><ele>212.0</ele><time>2026-03-22T11:08:07Z</time></trkpt><trkpt lat="41.89779908281877" lon="14.853355082542173"><ele>211.66666666666669</ele><time>2026-03-22T11:08:08Z</time></trkpt><trkpt lat="41.897898280107555" lon="14.853568542027995"><ele>211.33333333333331</ele><time>2026-03-22T11:08:09Z</time></trkpt><trkpt lat="41.89800210660343" lon="14.853793684085103"><ele>211.0</ele><time>2026-03-22T11:08:10Z</time></trkpt><trkpt lat="41.898107494252244" lon="14.854022684007745"><ele>211.0</ele><time>2026-03-22T11:08:11Z</time></trkpt><trkpt lat="41.898218430222194" lon="14.854263740339162"><ele>211.0</ele><time>2026-03-22T11:08:12Z</time></trkpt><trkpt lat="41.898326111629686" lon="14.85449772462838"><ele>211.0</ele><time>2026-03-22T11:08:13Z</time></trkpt><trkpt lat="41.898446915434576" lon="14.854718729727036"><ele>210.0</ele><time>2026-03-22T11:08:14Z</time></trkpt><trkpt lat="41.89853329068136" lon="14.854947488771623"><ele>209.0</ele><time>2026-03-22T11:08:15Z</time></trkpt><trkpt lat="41.89862664507214" lon="14.855149405510472"><ele>208.0</ele><time>2026-03-22T11:08:16Z</time></trkpt><trkpt lat="41.898738098400855" lon="14.855342766961193"><ele>208.0</ele><time>2026-03-22T11:08:17Z</time></trkpt><trkpt lat="41.89884168161236" lon="14.85554784251131"><ele>208.0</ele><time>2026-03-22T11:08:18Z</time></trkpt><trkpt lat="41.89894975874539" lon="14.855729405608173"><ele>208.0</ele><time>2026-03-22T11:08:19Z</time></trkpt><trkpt lat="41.89907946175017" lon="14.85589587857188"><ele>207.66666666666666</ele><time>2026-03-22T11:08:20Z</time></trkpt><trkpt lat="41.899221244027665" lon="14.856055415827615"><ele>207.33333333333331</ele><time>2026-03-22T11:08:21Z</time></trkpt><trkpt lat="41.899370219850944" lon="14.856220595854666"><ele>207.0</ele><time>2026-03-22T11:08:22Z</time></trkpt><trkpt lat="41.899528840003775" lon="14.856376970335136"><ele>207.0</ele><time>2026-03-22T11:08:23Z</time></trkpt><trkpt lat="41.89968410988991" lon="14.856519421698154"><ele>207.0</ele><time>2026-03-22T11:08:24Z</time></trkpt><trkpt lat="41.89981604408193" lon="14.856654149644575"><ele>207.0</ele><time>2026-03-22T11:08:25Z</time></trkpt><trkpt lat="41.89994007361147" lon="14.856798148360577"><ele>206.33333333333331</ele><time>2026-03-22T11:08:26Z</time></trkpt><trkpt lat="41.90006671858788" lon="14.856952833502143"><ele>205.66666666666666</ele><time>2026-03-22T11:08:27Z</time></trkpt><trkpt lat="41.900183231110404" lon="14.857131508641231"><ele>205.0</ele><time>2026-03-22T11:08:28Z</time></trkpt><trkpt lat="41.900290560179926" lon="14.857322368076975"><ele>204.33333333333331</ele><time>2026-03-22T11:08:29Z</time></trkpt><trkpt lat="41.900388226522814" lon="14.857530654800561"><ele>203.66666666666669</ele><time>2026-03-22T11:08:30Z</time></trkpt><trkpt lat="41.9004554336371" lon="14.857760740337984"><ele>203.0</ele><time>2026-03-22T11:08:31Z</time></trkpt><trkpt lat="41.90052013575867" lon="14.857984814364846"><ele>205.33333333333334</ele><time>2026-03-22T11:08:32Z</time></trkpt><trkpt lat="41.90056981805586" lon="14.858208542464094"><ele>207.66666666666669</ele><time>2026-03-22T11:08:33Z</time></trkpt><trkpt lat="41.90060591572276" lon="14.85843654226422"><ele>210.0</ele><time>2026-03-22T11:08:34Z</time></trkpt><trkpt lat="41.90062588072659" lon="14.85866770887558"><ele>211.0</ele><time>2026-03-22T11:08:35Z</time></trkpt><trkpt lat="41.90062800708189" lon="14.858906163096337"><ele>212.0</ele><time>2026-03-22T11:08:36Z</time></trkpt><trkpt lat="41.9006161861545" lon="14.859159870842477"><ele>213.0</ele><time>2026-03-22T11:08:37Z</time></trkpt><trkpt lat="41.90060111111456" lon="14.859417118372209"><ele>213.0</ele><time>2026-03-22T11:08:38Z</time></trkpt><trkpt lat="41.90058278773561" lon="14.859673718667835"><ele>213.0</ele><time>2026-03-22T11:08:39Z</time></trkpt><trkpt lat="41.90058166120711" lon="14.859920282651785"><ele>213.0</ele><time>2026-03-22T11:08:40Z</time></trkpt><trkpt lat="41.900548770349424" lon="14.860159353990063"><ele>211.75</ele><time>2026-03-22T11:08:41Z</time></trkpt><trkpt lat="41.900537747581005" lon="14.86037759800731"><ele>210.5</ele><time>2026-03-22T11:08:42Z</time></trkpt><trkpt lat="41.90055440121028" lon="14.860554698860994"><ele>209.25</ele><time>2026-03-22T11:08:43Z</time></trkpt><trkpt lat="41.900568410638755" lon="14.8607225371925"><ele>208.0</ele><time>2026-03-22T11:08:44Z</time></trkpt><trkpt lat="41.900602224712436" lon="14.860904078147922"><ele>206.66666666666666</ele><time>2026-03-22T11:08:45Z</time></trkpt><trkpt lat="41.90064249231024" lon="14.861098807206034"><ele>205.33333333333331</ele><time>2026-03-22T11:08:46Z</time></trkpt><trkpt lat="41.900739292878015" lon="14.861276399427108"><ele>204.0</ele><time>2026-03-22T11:08:47Z</time></trkpt><trkpt lat="41.900848154429376" lon="14.861468235276563"><ele>204.66666666666669</ele><time>2026-03-22T11:08:48Z</time></trkpt><trkpt lat="41.90096354079042" lon="14.861665580722645"><ele>205.33333333333334</ele><time>2026-03-22T11:08:49Z</time></trkpt><trkpt lat="41.901078763891185" lon="14.861862141621469"><ele>206.0</ele><time>2026-03-22T11:08:50Z</time></trkpt><trkpt lat="41.90117782146155" lon="14.862074841861473"><ele>206.0</ele><time>2026-03-22T11:08:51Z</time></trkpt><trkpt lat="41.901288246038526" lon="14.862273074135853"><ele>206.0</ele><time>2026-03-22T11:08:52Z</time></trkpt><trkpt lat="41.90140726659972" lon="14.862454002814209"><ele>206.0</ele><time>2026-03-22T11:08:53Z</time></trkpt><trkpt lat="41.901510359892065" lon="14.862648766591994"><ele>208.33333333333334</ele><time>2026-03-22T11:08:54Z</time></trkpt><trkpt lat="41.90160948229903" lon="14.862826987170456"><ele>210.66666666666669</ele><time>2026-03-22T11:08:55Z</time></trkpt><trkpt lat="41.90168733478863" lon="14.863019945448205"><ele>213.0</ele><time>2026-03-22T11:08:56Z</time></trkpt><trkpt lat="41.90176676813523" lon="14.86320715448811"><ele>213.0</ele><time>2026-03-22T11:08:57Z</time></trkpt><trkpt lat="41.90182980289998" lon="14.863406092890914"><ele>213.0</ele><time>2026-03-22T11:08:58Z</time></trkpt><trkpt lat="41.90186411917491" lon="14.86361962411356"><ele>213.0</ele><time>2026-03-22T11:08:59Z</time></trkpt><trkpt lat="41.90187854431435" lon="14.86384914743513"><ele>216.33333333333331</ele><time>2026-03-22T11:09:00Z</time></trkpt><trkpt lat="41.901882900821654" lon="14.864095725794444"><ele>219.66666666666666</ele><time>2026-03-22T11:09:01Z</time></trkpt><trkpt lat="41.90189939113234" lon="14.864348079591595"><ele>223.0</ele><time>2026-03-22T11:09:02Z</time></trkpt><trkpt lat="41.90190391080186" lon="14.864591410882227"><ele>223.0</ele><time>2026-03-22T11:09:03Z</time></trkpt><trkpt lat="41.90191407778714" lon="14.864817119415727"><ele>223.0</ele><time>2026-03-22T11:09:04Z</time></trkpt><trkpt lat="41.9019348481806" lon="14.86503179471204"><ele>223.0</ele><time>2026-03-22T11:09:05Z</time></trkpt><trkpt lat="41.901966336479404" lon="14.865239575958704"><ele>222.0</ele><time>2026-03-22T11:09:06Z</time></trkpt><trkpt lat="41.90202124817224" lon="14.86544961516112"><ele>221.0</ele><time>2026-03-22T11:09:07Z</time></trkpt><trkpt lat="41.90209857621256" lon="14.865655267035967"><ele>220.0</ele><time>2026-03-22T11:09:08Z</time></trkpt><trkpt lat="41.90219890975836" lon="14.865860911017926"><ele>218.66666666666666</ele><time>2026-03-22T11:09:09Z</time></trkpt><trkpt lat="41.902308638593354" lon="14.86606676764166"><ele>217.33333333333331</ele><time>2026-03-22T11:09:10Z</time></trkpt><trkpt lat="41.90240078913597" lon="14.866293333530566"><ele>216.0</ele><time>2026-03-22T11:09:11Z</time></trkpt><trkpt lat="41.902519223296544" lon="14.866504244187935"><ele>218.66666666666669</ele><time>2026-03-22T11:09:12Z</time></trkpt><trkpt lat="41.90262386496123" lon="14.866732863746611"><ele>221.33333333333334</ele><time>2026-03-22T11:09:13Z</time></trkpt><trkpt lat="41.90272868135329" lon="14.866967081457656"><ele>224.0</ele><time>2026-03-22T11:09:14Z</time></trkpt><trkpt lat="41.90283473857426" lon="14.8672003066992"><ele>224.0</ele><time>2026-03-22T11:09:15Z</time></trkpt><trkpt lat="41.90291814150586" lon="14.867450158198645"><ele>224.0</ele><time>2026-03-22T11:09:16Z</time></trkpt><trkpt lat="41.90302100365014" lon="14.867676970042503"><ele>224.0</ele><time>2026-03-22T11:09:17Z</time></trkpt><trkpt lat="41.90310310791097" lon="14.867906331929044"><ele>223.66666666666669</ele><time>2026-03-22T11:09:18Z</time></trkpt><trkpt lat="41.903170539613875" lon="14.868143015282103"><ele>223.33333333333331</ele><time>2026-03-22T11:09:19Z</time></trkpt><trkpt lat="41.90326377834754" lon="14.868361418059406"><ele>223.0</ele><time>2026-03-22T11:09:20Z</time></trkpt><trkpt lat="41.903343645955665" lon="14.868587371121228"><ele>222.0</ele><time>2026-03-22T11:09:21Z</time></trkpt><trkpt lat="41.903404431567225" lon="14.868815550436404"><ele>221.0</ele><time>2026-03-22T11:09:22Z</time></trkpt><trkpt lat="41.90346534698861" lon="14.868996307130296"><ele>220.0</ele><time>2026-03-22T11:09:23Z</time></trkpt><trkpt lat="41.90351691905765" lon="14.869172529563345"><ele>216.75</ele><time>2026-03-22T11:09:24Z</time></trkpt><trkpt lat="41.90355356789901" lon="14.869349657629863"><ele>213.5</ele><time>2026-03-22T11:09:25Z</time></trkpt><trkpt lat="41.903560921465676" lon="14.86955325252795"><ele>210.25</ele><time>2026-03-22T11:09:26Z</time></trkpt><trkpt lat="41.90352958419156" lon="14.869754958014695"><ele>207.0</ele><time>2026-03-22T11:09:27Z</time></trkpt><trkpt lat="41.90348222435558" lon="14.86996561349168"><ele>207.33333333333331</ele><time>2026-03-22T11:09:28Z</time></trkpt><trkpt lat="41.90343565246938" lon="14.870182823994382"><ele>207.66666666666666</ele><time>2026-03-22T11:09:29Z</time></trkpt><trkpt lat="41.90341213698953" lon="14.870408286996474"><ele>208.0</ele><time>2026-03-22T11:09:30Z</time></trkpt><trkpt lat="41.903401533581025" lon="14.870640935229794"><ele>208.0</ele><time>2026-03-22T11:09:31Z</time></trkpt><trkpt lat="41.90339406211249" lon="14.87087908045071"><ele>208.0</ele><time>2026-03-22T11:09:32Z</time></trkpt><trkpt lat="41.90338770808944" lon="14.87109433800568"><ele>208.0</ele><time>2026-03-22T11:09:33Z</time></trkpt><trkpt lat="41.90337174269453" lon="14.871288391911985"><ele>205.66666666666666</ele><time>2026-03-22T11:09:34Z</time></trkpt><trkpt lat="41.90333212593264" lon="14.871476844403029"><ele>203.33333333333331</ele><time>2026-03-22T11:09:35Z</time></trkpt><trkpt lat="41.90326402701263" lon="14.871666994758225"><ele>201.0</ele><time>2026-03-22T11:09:36Z</time></trkpt><trkpt lat="41.90318730863686" lon="14.871865105827386"><ele>198.0</ele><time>2026-03-22T11:09:37Z</time></trkpt><trkpt lat="41.90311175931068" lon="14.872060198379453"><ele>195.0</ele><time>2026-03-22T11:09:38Z</time></trkpt><trkpt lat="41.90304048142458" lon="14.872243350552816"><ele>192.0</ele><time>2026-03-22T11:09:39Z</time></trkpt><trkpt lat="41.902977021143656" lon="14.872402197410675"><ele>192.0</ele><time>2026-03-22T11:09:40Z</time></trkpt><trkpt lat="41.90292768981262" lon="14.872532598081136"><ele>192.0</ele><time>2026-03-22T11:09:41Z</time></trkpt><trkpt lat="41.902896089620846" lon="14.872637292712993"><ele>192.0</ele><time>2026-03-22T11:09:42Z</time></trkpt><trkpt lat="41.90288919013438" lon="14.872747250457682"><ele>192.0</ele><time>2026-03-22T11:09:43Z</time></trkpt><trkpt lat="41.90291157859502" lon="14.872862921181481"><ele>192.0</ele><time>2026-03-22T11:09:44Z</time></trkpt><trkpt lat="41.90300269542344" lon="14.872955377550742"><ele>190.75</ele><time>2026-03-22T11:09:45Z</time></trkpt><trkpt lat="41.90309608179449" lon="14.873048611606059"><ele>189.5</ele><time>2026-03-22T11:09:46Z</time></trkpt><trkpt lat="41.903205159830954" lon="14.87314645917647"><ele>188.25</ele><time>2026-03-22T11:09:47Z</time></trkpt><trkpt lat="41.903318452183726" lon="14.873263099534197"><ele>187.0</ele><time>2026-03-22T11:09:48Z</time></trkpt><trkpt lat="41.903428989593934" lon="14.8733811168053"><ele>185.6</ele><time>2026-03-22T11:09:49Z</time></trkpt><trkpt lat="41.90353214883071" lon="14.87348601959299"><ele>184.2</ele><time>2026-03-22T11:09:50Z</time></trkpt><trkpt lat="41.903606759113316" lon="14.873596988317532"><ele>182.8</ele><time>2026-03-22T11:09:51Z</time></trkpt><trkpt lat="41.903682397607746" lon="14.873692073572036"><ele>181.4</ele><time>2026-03-22T11:09:52Z</time></trkpt><trkpt lat="41.903735518780934" lon="14.873810171801358"><ele>180.0</ele><time>2026-03-22T11:09:53Z</time></trkpt><trkpt lat="41.90373380166579" lon="14.873959366129744"><ele>180.0</ele><time>2026-03-22T11:09:54Z</time></trkpt><trkpt lat="41.90373254473274" lon="14.874134916936224"><ele>180.0</ele><time>2026-03-22T11:09:55Z</time></trkpt><trkpt lat="41.903728689966705" lon="14.874326549982056"><ele>180.0</ele><time>2026-03-22T11:09:56Z</time></trkpt><trkpt lat="41.90372465506318" lon="14.874527138186503"><ele>180.0</ele><time>2026-03-22T11:09:57Z</time></trkpt><trkpt lat="41.90372061560493" lon="14.874727953289907"><ele>179.25</ele><time>2026-03-22T11:09:58Z</time></trkpt><trkpt lat="41.903720023808916" lon="14.87490824136391"><ele>178.5</ele><time>2026-03-22T11:09:59Z</time></trkpt><trkpt lat="41.903736565330234" lon="14.875073442429494"><ele>177.75</ele><time>2026-03-22T11:10:00Z</time></trkpt><trkpt lat="41.9037932475207" lon="14.875226197735667"><ele>177.0</ele><time>2026-03-22T11:10:01Z</time></trkpt><trkpt lat="41.9038544700724" lon="14.875393982242922"><ele>177.0</ele><time>2026-03-22T11:10:02Z</time></trkpt><trkpt lat="41.90391608137553" lon="14.875587033399267"><ele>177.0</ele><time>2026-03-22T11:10:03Z</time></trkpt><trkpt lat="41.90399372341261" lon="14.875779606024091"><ele>177.0</ele><time>2026-03-22T11:10:04Z</time></trkpt><trkpt lat="41.904072855162674" lon="14.875977079663754"><ele>177.75</ele><time>2026-03-22T11:10:05Z</time></trkpt><trkpt lat="41.90414533085599" lon="14.876148993848311"><ele>178.5</ele><time>2026-03-22T11:10:06Z</time></trkpt><trkpt lat="41.90422333550911" lon="14.876278396430896"><ele>179.25</ele><time>2026-03-22T11:10:07Z</time></trkpt><trkpt lat="41.90430082497019" lon="14.876394371223773"><ele>180.0</ele><time>2026-03-22T11:10:08Z</time></trkpt><trkpt lat="41.90439843620008" lon="14.876488453415718"><ele>180.75</ele><time>2026-03-22T11:10:09Z</time></trkpt><trkpt lat="41.90451160319022" lon="14.876560194479664"><ele>181.5</ele><time>2026-03-22T11:10:10Z</time></trkpt><trkpt lat="41.904632645091496" lon="14.876603718112436"><ele>182.25</ele><time>2026-03-22T11:10:11Z</time></trkpt><trkpt lat="41.90476175804982" lon="14.876598275133716"><ele>183.0</ele><time>2026-03-22T11:10:12Z</time></trkpt><trkpt lat="41.90489386228945" lon="14.876546715746201"><ele>183.0</ele><time>2026-03-22T11:10:13Z</time></trkpt><trkpt lat="41.90503653931186" lon="14.876454993295495"><ele>183.0</ele><time>2026-03-22T11:10:14Z</time></trkpt><trkpt lat="41.90519280770259" lon="14.87632963538149"><ele>183.0</ele><time>2026-03-22T11:10:15Z</time></trkpt><trkpt lat="41.90534203553951" lon="14.876203596814005"><ele>183.4</ele><time>2026-03-22T11:10:16Z</time></trkpt><trkpt lat="41.905466055650386" lon="14.876107208997732"><ele>183.8</ele><time>2026-03-22T11:10:17Z</time></trkpt><trkpt lat="41.90555725177599" lon="14.876042596997818"><ele>184.2</ele><time>2026-03-22T11:10:18Z</time></trkpt><trkpt lat="41.90563712352924" lon="14.876002312449565"><ele>184.6</ele><time>2026-03-22T11:10:19Z</time></trkpt><trkpt lat="41.90571697424214" lon="14.875993900296836"><ele>185.0</ele><time>2026-03-22T11:10:20Z</time></trkpt><trkpt lat="41.90580085916111" lon="14.876037808748334"><ele>185.0</ele><time>2026-03-22T11:10:21Z</time></trkpt><trkpt lat="41.905856327583265" lon="14.876164683181607"><ele>185.0</ele><time>2026-03-22T11:10:22Z</time></trkpt><trkpt lat="41.90590098333847" lon="14.876305296876465"><ele>185.0</ele><time>2026-03-22T11:10:23Z</time></trkpt><trkpt lat="41.905968042837564" lon="14.8764675786646"><ele>185.0</ele><time>2026-03-22T11:10:24Z</time></trkpt><trkpt lat="41.90604022959085" lon="14.876638017486396"><ele>184.66666666666666</ele><time>2026-03-22T11:10:25Z</time></trkpt><trkpt lat="41.906132176007056" lon="14.876810906005304"><ele>184.33333333333334</ele><time>2026-03-22T11:10:26Z</time></trkpt><trkpt lat="41.90619803773449" lon="14.87701398821454"><ele>184.0</ele><time>2026-03-22T11:10:27Z</time></trkpt><trkpt lat="41.90627499824201" lon="14.877198878541856"><ele>184.0</ele><time>2026-03-22T11:10:28Z</time></trkpt><trkpt lat="41.90635211914686" lon="14.877378220747923"><ele>184.0</ele><time>2026-03-22T11:10:29Z</time></trkpt><trkpt lat="41.90644551321304" lon="14.877531569569545"><ele>184.0</ele><time>2026-03-22T11:10:30Z</time></trkpt><trkpt lat="41.906548963752606" lon="14.87766976653752"><ele>184.0</ele><time>2026-03-22T11:10:31Z</time></trkpt><trkpt lat="41.90667883570841" lon="14.877777378053322"><ele>183.66666666666669</ele><time>2026-03-22T11:10:32Z</time></trkpt><trkpt lat="41.90682828637741" lon="14.877857395824757"><ele>183.33333333333334</ele><time>2026-03-22T11:10:33Z</time></trkpt><trkpt lat="41.90699212131427" lon="14.877914919182945"><ele>183.0</ele><time>2026-03-22T11:10:34Z</time></trkpt><trkpt lat="41.907132436943094" lon="14.877967005427145"><ele>183.0</ele><time>2026-03-22T11:10:35Z</time></trkpt><trkpt lat="41.90723066489523" lon="14.878044716770667"><ele>183.0</ele><time>2026-03-22T11:10:36Z</time></trkpt><trkpt lat="41.907312942112206" lon="14.878134306323355"><ele>183.0</ele><time>2026-03-22T11:10:37Z</time></trkpt><trkpt lat="41.90737104753511" lon="14.87827767794562"><ele>183.0</ele><time>2026-03-22T11:10:38Z</time></trkpt><trkpt lat="41.90743889467114" lon="14.878459302527748"><ele>182.75</ele><time>2026-03-22T11:10:39Z</time></trkpt><trkpt lat="41.907505035724135" lon="14.8786577790201"><ele>182.5</ele><time>2026-03-22T11:10:40Z</time></trkpt><trkpt lat="41.907568245589836" lon="14.878835571008526"><ele>182.25</ele><time>2026-03-22T11:10:41Z</time></trkpt><trkpt lat="41.90761246871955" lon="14.878977009341675"><ele>182.0</ele><time>2026-03-22T11:10:42Z</time></trkpt><trkpt lat="41.90763949366746" lon="14.87910946907896"><ele>181.0</ele><time>2026-03-22T11:10:43Z</time></trkpt><trkpt lat="41.90764884719474" lon="14.879257992939856"><ele>180.0</ele><time>2026-03-22T11:10:44Z</time></trkpt><trkpt lat="41.907615707744064" lon="14.87942100109797"><ele>179.0</ele><time>2026-03-22T11:10:45Z</time></trkpt><trkpt lat="41.907568293891835" lon="14.879621586534595"><ele>178.0</ele><time>2026-03-22T11:10:46Z</time></trkpt><trkpt lat="41.907511080625426" lon="14.879841813445"><ele>178.0</ele><time>2026-03-22T11:10:47Z</time></trkpt><trkpt lat="41.907453834513376" lon="14.880062386597963"><ele>178.0</ele><time>2026-03-22T11:10:48Z</time></trkpt><trkpt lat="41.90739414407483" lon="14.880286631058818"><ele>178.0</ele><time>2026-03-22T11:10:49Z</time></trkpt><trkpt lat="41.907332301759105" lon="14.880518959765618"><ele>176.0</ele><time>2026-03-22T11:10:50Z</time></trkpt><trkpt lat="41.90726875458336" lon="14.880757693118024"><ele>174.0</ele><time>2026-03-22T11:10:51Z</time></trkpt><trkpt lat="41.90720639319602" lon="14.880991971763768"><ele>172.0</ele><time>2026-03-22T11:10:52Z</time></trkpt><trkpt lat="41.907144703900485" lon="14.881223725431317"><ele>171.66666666666669</ele><time>2026-03-22T11:10:53Z</time></trkpt><trkpt lat="41.907082920972194" lon="14.881455831041526"><ele>171.33333333333334</ele><time>2026-03-22T11:10:54Z</time></trkpt><trkpt lat="41.90702510404341" lon="14.881680265656147"><ele>171.0</ele><time>2026-03-22T11:10:55Z</time></trkpt><trkpt lat="41.906980729478704" lon="14.881865563733857"><ele>171.0</ele><time>2026-03-22T11:10:56Z</time></trkpt><trkpt lat="41.90695531614195" lon="14.882021376864309"><ele>171.0</ele><time>2026-03-22T11:10:57Z</time></trkpt><trkpt lat="41.90695972047441" lon="14.882181338556922"><ele>171.0</ele><time>2026-03-22T11:10:58Z</time></trkpt><trkpt lat="41.90700427413614" lon="14.882338965721688"><ele>171.0</ele><time>2026-03-22T11:10:59Z</time></trkpt><trkpt lat="41.90706481390223" lon="14.882496045369464"><ele>169.75</ele><time>2026-03-22T11:11:00Z</time></trkpt><trkpt lat="41.907147253951976" lon="14.882641275446135"><ele>168.5</ele><time>2026-03-22T11:11:01Z</time></trkpt><trkpt lat="41.90724301968322" lon="14.882777786820922"><ele>167.25</ele><time>2026-03-22T11:11:02Z</time></trkpt><trkpt lat="41.907328420481235" lon="14.88294802872065"><ele>166.0</ele><time>2026-03-22T11:11:03Z</time></trkpt><trkpt lat="41.90743544970116" lon="14.883122415241427"><ele>166.0</ele><time>2026-03-22T11:11:04Z</time></trkpt><trkpt lat="41.907546341910724" lon="14.883308339363953"><ele>166.0</ele><time>2026-03-22T11:11:05Z</time></trkpt><trkpt lat="41.90766488299527" lon="14.883506610572542"><ele>166.0</ele><time>2026-03-22T11:11:06Z</time></trkpt><trkpt lat="41.907783518536135" lon="14.883703707868541"><ele>167.33333333333334</ele><time>2026-03-22T11:11:07Z</time></trkpt><trkpt lat="41.907900625679346" lon="14.883898265897225"><ele>168.66666666666666</ele><time>2026-03-22T11:11:08Z</time></trkpt><trkpt lat="41.90801488761023" lon="14.88408854757751"><ele>170.0</ele><time>2026-03-22T11:11:09Z</time></trkpt><trkpt lat="41.908119419993184" lon="14.88426319832145"><ele>169.0</ele><time>2026-03-22T11:11:10Z</time></trkpt><trkpt lat="41.90821826609534" lon="14.884428348478462"><ele>168.0</ele><time>2026-03-22T11:11:11Z</time></trkpt><trkpt lat="41.908318588320114" lon="14.884595965055336"><ele>167.0</ele><time>2026-03-22T11:11:12Z</time></trkpt><trkpt lat="41.90842291413914" lon="14.88477000153894"><ele>167.0</ele><time>2026-03-22T11:11:13Z</time></trkpt><trkpt lat="41.90852512377047" lon="14.884947014772171"><ele>167.0</ele><time>2026-03-22T11:11:14Z</time></trkpt><trkpt lat="41.908612850976006" lon="14.885134730465223"><ele>167.0</ele><time>2026-03-22T11:11:15Z</time></trkpt><trkpt lat="41.9086814008638" lon="14.88534084871294"><ele>167.0</ele><time>2026-03-22T11:11:16Z</time></trkpt><trkpt lat="41.90872414131622" lon="14.885565866178911"><ele>167.0</ele><time>2026-03-22T11:11:17Z</time></trkpt><trkpt lat="41.90876835655054" lon="14.885816392563104"><ele>167.0</ele><time>2026-03-22T11:11:18Z</time></trkpt><trkpt lat="41.90881584190015" lon="14.886084743921916"><ele>167.0</ele><time>2026-03-22T11:11:19Z</time></trkpt><trkpt lat="41.90886611789185" lon="14.886359603596214"><ele>167.0</ele><time>2026-03-22T11:11:20Z</time></trkpt><trkpt lat="41.90891724265186" lon="14.886641544243789"><ele>167.0</ele><time>2026-03-22T11:11:21Z</time></trkpt><trkpt lat="41.908966928998666" lon="14.886925552355464"><ele>167.33333333333331</ele><time>2026-03-22T11:11:22Z</time></trkpt><trkpt lat="41.90901078789128" lon="14.88720181296085"><ele>167.66666666666666</ele><time>2026-03-22T11:11:23Z</time></trkpt><trkpt lat="41.90905885239436" lon="14.88749226218338"><ele>168.0</ele><time>2026-03-22T11:11:24Z</time></trkpt><trkpt lat="41.90910259198787" lon="14.887781943577012"><ele>168.0</ele><time>2026-03-22T11:11:25Z</time></trkpt><trkpt lat="41.90914479316156" lon="14.888081534172594"><ele>168.0</ele><time>2026-03-22T11:11:26Z</time></trkpt><trkpt lat="41.909187772280326" lon="14.88838664766951"><ele>168.0</ele><time>2026-03-22T11:11:27Z</time></trkpt><trkpt lat="41.90923248202964" lon="14.888696801198693"><ele>168.0</ele><time>2026-03-22T11:11:28Z</time></trkpt><trkpt lat="41.90927891524196" lon="14.889017352459184"><ele>168.5</ele><time>2026-03-22T11:11:29Z</time></trkpt><trkpt lat="41.909324321253216" lon="14.88934186817534"><ele>169.0</ele><time>2026-03-22T11:11:30Z</time></trkpt><trkpt lat="41.9093690683869" lon="14.889671114293531"><ele>169.0</ele><time>2026-03-22T11:11:31Z</time></trkpt><trkpt lat="41.90941651549988" lon="14.89000775507796"><ele>169.0</ele><time>2026-03-22T11:11:32Z</time></trkpt><trkpt lat="41.90946491006418" lon="14.890351117989809"><ele>169.5</ele><time>2026-03-22T11:11:33Z</time></trkpt><trkpt lat="41.90951339431406" lon="14.890692221715396"><ele>170.0</ele><time>2026-03-22T11:11:34Z</time></trkpt><trkpt lat="41.90956019466852" lon="14.891020932414776"><ele>173.0</ele><time>2026-03-22T11:11:35Z</time></trkpt><trkpt lat="41.90960790203256" lon="14.891360281376402"><ele>176.0</ele><time>2026-03-22T11:11:36Z</time></trkpt><trkpt lat="41.909655787224914" lon="14.891704699328127"><ele>177.5</ele><time>2026-03-22T11:11:37Z</time></trkpt><trkpt lat="41.90970418279566" lon="14.892052787895372"><ele>179.0</ele><time>2026-03-22T11:11:38Z</time></trkpt><trkpt lat="41.90975373600411" lon="14.892401976347271"><ele>179.0</ele><time>2026-03-22T11:11:39Z</time></trkpt><trkpt lat="41.90980276314225" lon="14.89274820116103"><ele>179.0</ele><time>2026-03-22T11:11:40Z</time></trkpt><trkpt lat="41.90985114992759" lon="14.89308990386801"><ele>180.5</ele><time>2026-03-22T11:11:41Z</time></trkpt><trkpt lat="41.90989785775238" lon="14.893426965378222"><ele>182.0</ele><time>2026-03-22T11:11:42Z</time></trkpt><trkpt lat="41.90994464112013" lon="14.893765245103944"><ele>182.0</ele><time>2026-03-22T11:11:43Z</time></trkpt><trkpt lat="41.909991570740004" lon="14.89410458234145"><ele>182.0</ele><time>2026-03-22T11:11:44Z</time></trkpt><trkpt lat="41.910038815940666" lon="14.894442007436435"><ele>180.0</ele><time>2026-03-22T11:11:45Z</time></trkpt><trkpt lat="41.91008726581207" lon="14.894781550366512"><ele>178.0</ele><time>2026-03-22T11:11:46Z</time></trkpt><trkpt lat="41.910135303872515" lon="14.89510640124844"><ele>178.0</ele><time>2026-03-22T11:11:47Z</time></trkpt><trkpt lat="41.91017947684446" lon="14.895400614485196"><ele>178.0</ele><time>2026-03-22T11:11:48Z</time></trkpt><trkpt lat="41.9102219182317" lon="14.895679243273095"><ele>178.0</ele><time>2026-03-22T11:11:49Z</time></trkpt><trkpt lat="41.91026390938134" lon="14.895954916278622"><ele>180.66666666666669</ele><time>2026-03-22T11:11:50Z</time></trkpt><trkpt lat="41.9103061794361" lon="14.896228097948773"><ele>183.33333333333334</ele><time>2026-03-22T11:11:51Z</time></trkpt><trkpt lat="41.91034730890845" lon="14.896493133286912"><ele>186.0</ele><time>2026-03-22T11:11:52Z</time></trkpt><trkpt lat="41.910387602966374" lon="14.896752785282727"><ele>188.0</ele><time>2026-03-22T11:11:53Z</time></trkpt><trkpt lat="41.9104273165593" lon="14.897008696674499"><ele>190.0</ele><time>2026-03-22T11:11:54Z</time></trkpt><trkpt lat="41.91046647973714" lon="14.89726106041202"><ele>192.0</ele><time>2026-03-22T11:11:55Z</time></trkpt><trkpt lat="41.910505314910864" lon="14.897511310520231"><ele>192.66666666666669</ele><time>2026-03-22T11:11:56Z</time></trkpt><trkpt lat="41.910575226685815" lon="14.897747812848891"><ele>193.33333333333334</ele><time>2026-03-22T11:11:57Z</time></trkpt><trkpt lat="41.910614891160854" lon="14.89798612915139"><ele>194.0</ele><time>2026-03-22T11:11:58Z</time></trkpt><trkpt lat="41.91064945658032" lon="14.898203584577336"><ele>194.0</ele><time>2026-03-22T11:11:59Z</time></trkpt><trkpt lat="41.91068293689386" lon="14.89841020518511"><ele>194.0</ele><time>2026-03-22T11:12:00Z</time></trkpt><trkpt lat="41.91071085718223" lon="14.898607374045255"><ele>194.0</ele><time>2026-03-22T11:12:01Z</time></trkpt><trkpt lat="41.910733380834436" lon="14.898802699885591"><ele>194.66666666666669</ele><time>2026-03-22T11:12:02Z</time></trkpt><trkpt lat="41.9107420641686" lon="14.898999074058201"><ele>195.33333333333331</ele><time>2026-03-22T11:12:03Z</time></trkpt><trkpt lat="41.91072980169526" lon="14.89920263695928"><ele>196.0</ele><time>2026-03-22T11:12:04Z</time></trkpt><trkpt lat="41.910705372892565" lon="14.89941337784873"><ele>196.0</ele><time>2026-03-22T11:12:05Z</time></trkpt><trkpt lat="41.91067591577512" lon="14.899632073208084"><ele>196.0</ele><time>2026-03-22T11:12:06Z</time></trkpt><trkpt lat="41.910641488027366" lon="14.899856660691867"><ele>196.0</ele><time>2026-03-22T11:12:07Z</time></trkpt><trkpt lat="41.91061431855467" lon="14.900087534417866"><ele>196.0</ele><time>2026-03-22T11:12:08Z</time></trkpt><trkpt lat="41.91058710674503" lon="14.900324999415487"><ele>196.0</ele><time>2026-03-22T11:12:09Z</time></trkpt><trkpt lat="41.9105595070729" lon="14.900566291977471"><ele>196.0</ele><time>2026-03-22T11:12:10Z</time></trkpt><trkpt lat="41.91052750475838" lon="14.900808377613766"><ele>196.66666666666666</ele><time>2026-03-22T11:12:11Z</time></trkpt><trkpt lat="41.9104918943499" lon="14.901046632931076"><ele>197.33333333333331</ele><time>2026-03-22T11:12:12Z</time></trkpt><trkpt lat="41.91045803975709" lon="14.901284364410223"><ele>198.0</ele><time>2026-03-22T11:12:13Z</time></trkpt><trkpt lat="41.91042797110525" lon="14.901511007782311"><ele>198.0</ele><time>2026-03-22T11:12:14Z</time></trkpt><trkpt lat="41.91040771332202" lon="14.90171195135472"><ele>198.0</ele><time>2026-03-22T11:12:15Z</time></trkpt><trkpt lat="41.91038890696496" lon="14.901898257001184"><ele>198.0</ele><time>2026-03-22T11:12:16Z</time></trkpt><trkpt lat="41.91038217311226" lon="14.902079809824956"><ele>198.0</ele><time>2026-03-22T11:12:17Z</time></trkpt><trkpt lat="41.910393634306175" lon="14.902278127777711"><ele>199.66666666666669</ele><time>2026-03-22T11:12:18Z</time></trkpt><trkpt lat="41.910420498704866" lon="14.902488634802397"><ele>201.33333333333334</ele><time>2026-03-22T11:12:19Z</time></trkpt><trkpt lat="41.910448061591204" lon="14.902705208342311"><ele>203.0</ele><time>2026-03-22T11:12:20Z</time></trkpt><trkpt lat="41.91047551611624" lon="14.902924279347083"><ele>204.33333333333334</ele><time>2026-03-22T11:12:21Z</time></trkpt><trkpt lat="41.91050479774838" lon="14.903136969704372"><ele>205.66666666666669</ele><time>2026-03-22T11:12:22Z</time></trkpt><trkpt lat="41.91052832353754" lon="14.90334021850583"><ele>207.0</ele><time>2026-03-22T11:12:23Z</time></trkpt><trkpt lat="41.91054848553545" lon="14.903528645798051"><ele>208.75</ele><time>2026-03-22T11:12:24Z</time></trkpt><trkpt lat="41.91056463552668" lon="14.903715125011024"><ele>210.5</ele><time>2026-03-22T11:12:25Z</time></trkpt><trkpt lat="41.91056931483195" lon="14.903889096030165"><ele>212.25</ele><time>2026-03-22T11:12:26Z</time></trkpt><trkpt lat="41.91056356418415" lon="14.904064643516826"><ele>214.0</ele><time>2026-03-22T11:12:27Z</time></trkpt><trkpt lat="41.910546613761724" lon="14.90424595090927"><ele>215.25</ele><time>2026-03-22T11:12:28Z</time></trkpt><trkpt lat="41.910515188042936" lon="14.904422485262822"><ele>216.5</ele><time>2026-03-22T11:12:29Z</time></trkpt><trkpt lat="41.91048866698714" lon="14.904607398147945"><ele>217.75</ele><time>2026-03-22T11:12:30Z</time></trkpt><trkpt lat="41.91045278003153" lon="14.904791298185225"><ele>219.0</ele><time>2026-03-22T11:12:31Z</time></trkpt><trkpt lat="41.91042483014677" lon="14.9049539848612"><ele>221.0</ele><time>2026-03-22T11:12:32Z</time></trkpt><trkpt lat="41.91040726773789" lon="14.905089927297544"><ele>222.99999999999997</ele><time>2026-03-22T11:12:33Z</time></trkpt><trkpt lat="41.91040740581704" lon="14.905215153883514"><ele>224.99999999999997</ele><time>2026-03-22T11:12:34Z</time></trkpt><trkpt lat="41.91042421919642" lon="14.905315759047037"><ele>227.0</ele><time>2026-03-22T11:12:35Z</time></trkpt><trkpt lat="41.910480547196094" lon="14.905414997145924"><ele>229.0</ele><time>2026-03-22T11:12:36Z</time></trkpt><trkpt lat="41.910569208473106" lon="14.905512960549402"><ele>229.0</ele><time>2026-03-22T11:12:37Z</time></trkpt><trkpt lat="41.91066564371413" lon="14.905612917284715"><ele>229.0</ele><time>2026-03-22T11:12:38Z</time></trkpt><trkpt lat="41.91078041667367" lon="14.905702025668461"><ele>229.0</ele><time>2026-03-22T11:12:39Z</time></trkpt><trkpt lat="41.91090107039372" lon="14.905805023582507"><ele>229.0</ele><time>2026-03-22T11:12:40Z</time></trkpt><trkpt lat="41.91103263917752" lon="14.905910949342243"><ele>233.0</ele><time>2026-03-22T11:12:41Z</time></trkpt><trkpt lat="41.91116625597867" lon="14.906009914317861"><ele>237.0</ele><time>2026-03-22T11:12:42Z</time></trkpt><trkpt lat="41.911293475438534" lon="14.906101603123812"><ele>241.0</ele><time>2026-03-22T11:12:43Z</time></trkpt><trkpt lat="41.911421194054114" lon="14.906196215877475"><ele>245.0</ele><time>2026-03-22T11:12:44Z</time></trkpt><trkpt lat="41.911551429621525" lon="14.906291696305235"><ele>245.0</ele><time>2026-03-22T11:12:45Z</time></trkpt><trkpt lat="41.91169254582059" lon="14.906375036831399"><ele>245.0</ele><time>2026-03-22T11:12:46Z</time></trkpt><trkpt lat="41.91184946019543" lon="14.906428354602989"><ele>245.0</ele><time>2026-03-22T11:12:47Z</time></trkpt><trkpt lat="41.912011906311314" lon="14.906472785938819"><ele>244.0</ele><time>2026-03-22T11:12:48Z</time></trkpt><trkpt lat="41.91217139023715" lon="14.90651161970199"><ele>243.0</ele><time>2026-03-22T11:12:49Z</time></trkpt><trkpt lat="41.91232146993476" lon="14.906551639166189"><ele>242.0</ele><time>2026-03-22T11:12:50Z</time></trkpt><trkpt lat="41.91245507905562" lon="14.906591932566972"><ele>239.0</ele><time>2026-03-22T11:12:51Z</time></trkpt><trkpt lat="41.912580761082566" lon="14.906648146492222"><ele>236.0</ele><time>2026-03-22T11:12:52Z</time></trkpt><trkpt lat="41.91282604956895" lon="14.906798947289568"><ele>233.0</ele><time>2026-03-22T11:12:54Z</time></trkpt><trkpt lat="41.91294818518296" lon="14.906912396910336"><ele>237.75</ele><time>2026-03-22T11:12:55Z</time></trkpt><trkpt lat="41.91305909686917" lon="14.907034524221107"><ele>242.5</ele><time>2026-03-22T11:12:56Z</time></trkpt><trkpt lat="41.913167843006825" lon="14.90715822542621"><ele>247.25</ele><time>2026-03-22T11:12:57Z</time></trkpt><trkpt lat="41.91326841741" lon="14.907261011703106"><ele>252.0</ele><time>2026-03-22T11:12:58Z</time></trkpt><trkpt lat="41.91333672107876" lon="14.907337936839639"><ele>252.8</ele><time>2026-03-22T11:12:59Z</time></trkpt><trkpt lat="41.91341112040054" lon="14.907456665843856"><ele>253.6</ele><time>2026-03-22T11:13:01Z</time></trkpt><trkpt lat="41.91343949998735" lon="14.907581239862575"><ele>254.40000000000003</ele><time>2026-03-22T11:13:03Z</time></trkpt><trkpt lat="41.913394695503285" lon="14.90767095645787"><ele>255.20000000000002</ele><time>2026-03-22T11:13:05Z</time></trkpt><trkpt lat="41.91328811019715" lon="14.907611294155378"><ele>256.0</ele><time>2026-03-22T11:13:06Z</time></trkpt><trkpt lat="41.9131974510652" lon="14.907589572305575"><ele>255.0</ele><time>2026-03-22T11:13:07Z</time></trkpt><trkpt lat="41.913079025909745" lon="14.9075657771251"><ele>254.0</ele><time>2026-03-22T11:13:08Z</time></trkpt><trkpt lat="41.91295047323399" lon="14.907541303779563"><ele>253.0</ele><time>2026-03-22T11:13:09Z</time></trkpt><trkpt lat="41.91280016307381" lon="14.907512688332867"><ele>252.0</ele><time>2026-03-22T11:13:10Z</time></trkpt><trkpt lat="41.91266304363671" lon="14.907484297896506"><ele>253.5</ele><time>2026-03-22T11:13:11Z</time></trkpt><trkpt lat="41.91252795494635" lon="14.90745597439489"><ele>255.0</ele><time>2026-03-22T11:13:12Z</time></trkpt><trkpt lat="41.91239710856601" lon="14.907454355595066"><ele>256.5</ele><time>2026-03-22T11:13:13Z</time></trkpt><trkpt lat="41.91227158067435" lon="14.907437753800293"><ele>258.0</ele><time>2026-03-22T11:13:14Z</time></trkpt><trkpt lat="41.912148682872285" lon="14.907437872293084"><ele>258.0</ele><time>2026-03-22T11:13:15Z</time></trkpt><trkpt lat="41.91202904075033" lon="14.907465767629718"><ele>258.0</ele><time>2026-03-22T11:13:16Z</time></trkpt><trkpt lat="41.911910325251604" lon="14.907518583848951"><ele>258.0</ele><time>2026-03-22T11:13:17Z</time></trkpt><trkpt lat="41.911765225535724" lon="14.907578847548855"><ele>258.0</ele><time>2026-03-22T11:13:18Z</time></trkpt><trkpt lat="41.91161175110503" lon="14.907676957833985"><ele>262.75</ele><time>2026-03-22T11:13:19Z</time></trkpt><trkpt lat="41.91146866790365" lon="14.907784766081454"><ele>267.5</ele><time>2026-03-22T11:13:20Z</time></trkpt><trkpt lat="41.91136901151573" lon="14.907860310236297"><ele>272.25</ele><time>2026-03-22T11:13:21Z</time></trkpt><trkpt lat="41.91129950143049" lon="14.907913686863074"><ele>277.0</ele><time>2026-03-22T11:13:23Z</time></trkpt><trkpt lat="41.91135549755525" lon="14.908070645869088"><ele>277.0</ele><time>2026-03-22T11:13:27Z</time></trkpt><trkpt lat="41.91143934768975" lon="14.908159815423316"><ele>277.0</ele><time>2026-03-22T11:13:29Z</time></trkpt><trkpt lat="41.91150796687907" lon="14.908206113800706"><ele>277.0</ele><time>2026-03-22T11:13:30Z</time></trkpt><trkpt lat="41.911541493666434" lon="14.908303327457078"><ele>277.0</ele><time>2026-03-22T11:13:31Z</time></trkpt><trkpt lat="41.91157594312533" lon="14.90839659791499"><ele>277.0</ele><time>2026-03-22T11:13:32Z</time></trkpt><trkpt lat="41.91161504683635" lon="14.908480226686983"><ele>277.0</ele><time>2026-03-22T11:13:33Z</time></trkpt><trkpt lat="41.91170726220674" lon="14.908569862857302"><ele>280.4</ele><time>2026-03-22T11:13:35Z</time></trkpt><trkpt lat="41.911788372654634" lon="14.908563152352697"><ele>283.79999999999995</ele><time>2026-03-22T11:13:36Z</time></trkpt><trkpt lat="41.91187869228451" lon="14.908576866353208"><ele>287.2</ele><time>2026-03-22T11:13:37Z</time></trkpt><trkpt lat="41.91198123002793" lon="14.908619400405351"><ele>290.59999999999997</ele><time>2026-03-22T11:13:38Z</time></trkpt><trkpt lat="41.912067494215265" lon="14.908666627129245"><ele>294.0</ele><time>2026-03-22T11:13:39Z</time></trkpt><trkpt lat="41.912161397879856" lon="14.908719686531942"><ele>294.0</ele><time>2026-03-22T11:13:40Z</time></trkpt><trkpt lat="41.91226309049463" lon="14.908777371659227"><ele>294.0</ele><time>2026-03-22T11:13:41Z</time></trkpt><trkpt lat="41.91235723032659" lon="14.90883231366327"><ele>294.0</ele><time>2026-03-22T11:13:42Z</time></trkpt><trkpt lat="41.91243430819869" lon="14.908889347219533"><ele>294.0</ele><time>2026-03-22T11:13:43Z</time></trkpt><trkpt lat="41.91249075488669" lon="14.908962822739559"><ele>294.0</ele><time>2026-03-22T11:13:44Z</time></trkpt><trkpt lat="41.91254114590634" lon="14.909046286256398"><ele>294.0</ele><time>2026-03-22T11:13:45Z</time></trkpt><trkpt lat="41.912565603719834" lon="14.909140199682644"><ele>294.0</ele><time>2026-03-22T11:13:46Z</time></trkpt><trkpt lat="41.912612608345974" lon="14.909245597201885"><ele>294.0</ele><time>2026-03-22T11:13:47Z</time></trkpt><trkpt lat="41.91267003918703" lon="14.90934356614992"><ele>294.0</ele><time>2026-03-22T11:13:48Z</time></trkpt><trkpt lat="41.91273674549801" lon="14.909413567239312"><ele>294.0</ele><time>2026-03-22T11:13:49Z</time></trkpt><trkpt lat="41.91279078442482" lon="14.909489877865722"><ele>294.0</ele><time>2026-03-22T11:13:50Z</time></trkpt><trkpt lat="41.912859419563055" lon="14.90955134185484"><ele>295.2</ele><time>2026-03-22T11:13:51Z</time></trkpt><trkpt lat="41.91294614419239" lon="14.909617758007215"><ele>296.4</ele><time>2026-03-22T11:13:52Z</time></trkpt><trkpt lat="41.91302247901314" lon="14.909676711271214"><ele>297.6</ele><time>2026-03-22T11:13:53Z</time></trkpt><trkpt lat="41.913111548861764" lon="14.909721554628053"><ele>298.8</ele><time>2026-03-22T11:13:54Z</time></trkpt><trkpt lat="41.913203047418826" lon="14.909736650808982"><ele>300.0</ele><time>2026-03-22T11:13:55Z</time></trkpt><trkpt lat="41.91328898418128" lon="14.909751914161031"><ele>300.0</ele><time>2026-03-22T11:13:56Z</time></trkpt><trkpt lat="41.91335494710352" lon="14.909799928969214"><ele>300.0</ele><time>2026-03-22T11:13:57Z</time></trkpt><trkpt lat="41.91340692972613" lon="14.909859992180525"><ele>300.0</ele><time>2026-03-22T11:13:58Z</time></trkpt><trkpt lat="41.91346366382029" lon="14.909919706286955"><ele>300.0</ele><time>2026-03-22T11:13:59Z</time></trkpt><trkpt lat="41.91352378428792" lon="14.90999997310443"><ele>300.0</ele><time>2026-03-22T11:14:00Z</time></trkpt><trkpt lat="41.91358655250356" lon="14.910082516756637"><ele>300.0</ele><time>2026-03-22T11:14:01Z</time></trkpt><trkpt lat="41.91365330411851" lon="14.910170205737522"><ele>301.8333333333333</ele><time>2026-03-22T11:14:02Z</time></trkpt><trkpt lat="41.913726605859985" lon="14.910209138586206"><ele>303.6666666666667</ele><time>2026-03-22T11:14:03Z</time></trkpt><trkpt lat="41.913787460396335" lon="14.910272935976629"><ele>305.5</ele><time>2026-03-22T11:14:04Z</time></trkpt><trkpt lat="41.9138656888543" lon="14.910326277864455"><ele>307.33333333333337</ele><time>2026-03-22T11:14:05Z</time></trkpt><trkpt lat="41.91394963037523" lon="14.910367483880622"><ele>309.1666666666667</ele><time>2026-03-22T11:14:06Z</time></trkpt><trkpt lat="41.91402848123064" lon="14.9103872268359"><ele>311.0</ele><time>2026-03-22T11:14:07Z</time></trkpt><trkpt lat="41.91409972865581" lon="14.910394202732716"><ele>311.0</ele><time>2026-03-22T11:14:08Z</time></trkpt><trkpt lat="41.91417354058887" lon="14.910403699096426"><ele>311.0</ele><time>2026-03-22T11:14:09Z</time></trkpt><trkpt lat="41.91428505942853" lon="14.910452209286834"><ele>311.0</ele><time>2026-03-22T11:14:11Z</time></trkpt><trkpt lat="41.91435920828075" lon="14.910534267236738"><ele>311.0</ele><time>2026-03-22T11:14:13Z</time></trkpt><trkpt lat="41.91442144001278" lon="14.91062847796647"><ele>311.0</ele><time>2026-03-22T11:14:15Z</time></trkpt><trkpt lat="41.91446592527892" lon="14.91070389718806"><ele>311.5</ele><time>2026-03-22T11:14:16Z</time></trkpt><trkpt lat="41.91451796137144" lon="14.910788334085282"><ele>312.0</ele><time>2026-03-22T11:14:17Z</time></trkpt><trkpt lat="41.91455309384313" lon="14.910899644203754"><ele>312.5</ele><time>2026-03-22T11:14:18Z</time></trkpt><trkpt lat="41.914608178200716" lon="14.910994869159351"><ele>313.0</ele><time>2026-03-22T11:14:19Z</time></trkpt><trkpt lat="41.914655353666284" lon="14.91107447976782"><ele>313.5</ele><time>2026-03-22T11:14:20Z</time></trkpt><trkpt lat="41.914699149071126" lon="14.911142979828758"><ele>314.0</ele><time>2026-03-22T11:14:21Z</time></trkpt><trkpt lat="41.91478482761512" lon="14.911274867439559"><ele>314.0</ele><time>2026-03-22T11:14:23Z</time></trkpt><trkpt lat="41.9148510139865" lon="14.911405692244864"><ele>314.0</ele><time>2026-03-22T11:14:25Z</time></trkpt><trkpt lat="41.91481980032723" lon="14.911510171355355"><ele>314.0</ele><time>2026-03-22T11:14:27Z</time></trkpt><trkpt lat="41.91478407245058" lon="14.91158857339525"><ele>314.0</ele><time>2026-03-22T11:14:28Z</time></trkpt><trkpt lat="41.91472975654872" lon="14.911662312428657"><ele>314.0</ele><time>2026-03-22T11:14:29Z</time></trkpt><trkpt lat="41.914704316995156" lon="14.911763888409018"><ele>314.0</ele><time>2026-03-22T11:14:30Z</time></trkpt><trkpt lat="41.91475312596253" lon="14.911890436825427"><ele>317.0</ele><time>2026-03-22T11:14:32Z</time></trkpt><trkpt lat="41.91483471249774" lon="14.9119242251881"><ele>320.0</ele><time>2026-03-22T11:14:34Z</time></trkpt><trkpt lat="41.91494540351408" lon="14.911946392208028"><ele>323.0</ele><time>2026-03-22T11:14:36Z</time></trkpt><trkpt lat="41.91502673006292" lon="14.911953338374722"><ele>326.0</ele><time>2026-03-22T11:14:37Z</time></trkpt><trkpt lat="41.91511392640496" lon="14.91197443686119"><ele>329.0</ele><time>2026-03-22T11:14:38Z</time></trkpt><trkpt lat="41.915208518163844" lon="14.912011665180861"><ele>329.0</ele><time>2026-03-22T11:14:39Z</time></trkpt><trkpt lat="41.91529878410976" lon="14.91206319359408"><ele>329.0</ele><time>2026-03-22T11:14:40Z</time></trkpt><trkpt lat="41.91536745201142" lon="14.912139080420785"><ele>329.0</ele><time>2026-03-22T11:14:41Z</time></trkpt><trkpt lat="41.91543636773933" lon="14.912214993632615"><ele>329.0</ele><time>2026-03-22T11:14:42Z</time></trkpt><trkpt lat="41.915502822783054" lon="14.912296044541032"><ele>329.0</ele><time>2026-03-22T11:14:43Z</time></trkpt><trkpt lat="41.915568861348596" lon="14.912379516816792"><ele>329.0</ele><time>2026-03-22T11:14:44Z</time></trkpt><trkpt lat="41.91563757223756" lon="14.912446526457348"><ele>329.0</ele><time>2026-03-22T11:14:45Z</time></trkpt><trkpt lat="41.915717943605785" lon="14.912478321550367"><ele>329.0</ele><time>2026-03-22T11:14:46Z</time></trkpt><trkpt lat="41.91580183961977" lon="14.912508747406923"><ele>329.0</ele><time>2026-03-22T11:14:47Z</time></trkpt><trkpt lat="41.91586592825904" lon="14.912575833167388"><ele>329.0</ele><time>2026-03-22T11:14:48Z</time></trkpt><trkpt lat="41.91592703776955" lon="14.912633580308478"><ele>329.0</ele><time>2026-03-22T11:14:49Z</time></trkpt><trkpt lat="41.915990878388406" lon="14.91271116593902"><ele>328.6666666666667</ele><time>2026-03-22T11:14:50Z</time></trkpt><trkpt lat="41.91605572158431" lon="14.912786034619723"><ele>328.33333333333337</ele><time>2026-03-22T11:14:51Z</time></trkpt><trkpt lat="41.916097578373794" lon="14.912876641676519"><ele>328.0</ele><time>2026-03-22T11:14:52Z</time></trkpt><trkpt lat="41.91609772176183" lon="14.912976677348404"><ele>327.6666666666667</ele><time>2026-03-22T11:14:53Z</time></trkpt><trkpt lat="41.91607991617779" lon="14.913129233883023"><ele>327.3333333333333</ele><time>2026-03-22T11:14:55Z</time></trkpt><trkpt lat="41.91603421401798" lon="14.913195822741322"><ele>327.0</ele><time>2026-03-22T11:14:56Z</time></trkpt><trkpt lat="41.91600337937721" lon="14.91328715850289"><ele>327.0</ele><time>2026-03-22T11:14:57Z</time></trkpt><trkpt lat="41.91600705282115" lon="14.913377580588795"><ele>327.0</ele><time>2026-03-22T11:14:58Z</time></trkpt><trkpt lat="41.91603359976184" lon="14.913479626151036"><ele>327.0</ele><time>2026-03-22T11:15:00Z</time></trkpt><trkpt lat="41.91605557283813" lon="14.913578432628762"><ele>327.0</ele><time>2026-03-22T11:15:09Z</time></trkpt><trkpt lat="41.91594445532929" lon="14.913674869755608"><ele>327.0</ele><time>2026-03-22T11:15:11Z</time></trkpt><trkpt lat="41.915865642156994" lon="14.91374796603351"><ele>328.0</ele><time>2026-03-22T11:15:12Z</time></trkpt><trkpt lat="41.915786442372394" lon="14.913802513108044"><ele>329.0</ele><time>2026-03-22T11:15:13Z</time></trkpt><trkpt lat="41.91570455182647" lon="14.913842480593729"><ele>330.0</ele><time>2026-03-22T11:15:14Z</time></trkpt><trkpt lat="41.915628164955" lon="14.913881856873006"><ele>331.0</ele><time>2026-03-22T11:15:15Z</time></trkpt><trkpt lat="41.91556147513183" lon="14.913920687241886"><ele>332.0</ele><time>2026-03-22T11:15:16Z</time></trkpt><trkpt lat="41.91543995637895" lon="14.91398021264981"><ele>332.0</ele><time>2026-03-22T11:15:18Z</time></trkpt><trkpt lat="41.91537290033697" lon="14.914010264212427"><ele>332.0</ele><time>2026-03-22T11:15:19Z</time></trkpt><trkpt lat="41.9153010920071" lon="14.914041563632361"><ele>332.0</ele><time>2026-03-22T11:15:20Z</time></trkpt><trkpt lat="41.91523011144253" lon="14.914070668944582"><ele>332.0</ele><time>2026-03-22T11:15:21Z</time></trkpt><trkpt lat="41.915163128256665" lon="14.914096615660602"><ele>332.0</ele><time>2026-03-22T11:15:22Z</time></trkpt><trkpt lat="41.915099221949816" lon="14.914109385224718"><ele>332.0</ele><time>2026-03-22T11:15:23Z</time></trkpt><trkpt lat="41.91503029655762" lon="14.914121162533013"><ele>332.0</ele><time>2026-03-22T11:15:24Z</time></trkpt><trkpt lat="41.91495643070336" lon="14.914132150039393"><ele>334.1666666666667</ele><time>2026-03-22T11:15:25Z</time></trkpt><trkpt lat="41.91488388592156" lon="14.91413898836255"><ele>336.33333333333337</ele><time>2026-03-22T11:15:26Z</time></trkpt><trkpt lat="41.914820549079266" lon="14.914142373853112"><ele>338.5</ele><time>2026-03-22T11:15:27Z</time></trkpt><trkpt lat="41.91475600533844" lon="14.91413937296466"><ele>340.6666666666667</ele><time>2026-03-22T11:15:28Z</time></trkpt><trkpt lat="41.91462747350931" lon="14.914115327584005"><ele>342.8333333333333</ele><time>2026-03-22T11:15:30Z</time></trkpt><trkpt lat="41.91452234365369" lon="14.914078571998818"><ele>345.0</ele><time>2026-03-22T11:15:32Z</time></trkpt><trkpt lat="41.91442501758248" lon="14.914031871633897"><ele>345.0</ele><time>2026-03-22T11:15:34Z</time></trkpt><trkpt lat="41.91436662999678" lon="14.913996587534712"><ele>345.0</ele><time>2026-03-22T11:15:35Z</time></trkpt><trkpt lat="41.91425748201011" lon="14.913924988279504"><ele>345.0</ele><time>2026-03-22T11:15:37Z</time></trkpt><trkpt lat="41.91415964642085" lon="14.913859234256584"><ele>345.0</ele><time>2026-03-22T11:15:39Z</time></trkpt><trkpt lat="41.91404831776809" lon="14.913784412104208"><ele>345.0</ele><time>2026-03-22T11:15:41Z</time></trkpt><trkpt lat="41.91398358943521" lon="14.91372818305006"><ele>345.6666666666667</ele><time>2026-03-22T11:15:43Z</time></trkpt><trkpt lat="41.91392402856352" lon="14.913649041136646"><ele>346.3333333333333</ele><time>2026-03-22T11:15:45Z</time></trkpt><trkpt lat="41.91384537830211" lon="14.913520859396003"><ele>347.0</ele><time>2026-03-22T11:15:47Z</time></trkpt><trkpt lat="41.91380329365537" lon="14.913421831842362"><ele>347.66666666666663</ele><time>2026-03-22T11:15:49Z</time></trkpt><trkpt lat="41.91374644903576" lon="14.913375664740744"><ele>348.3333333333333</ele><time>2026-03-22T11:15:51Z</time></trkpt><trkpt lat="41.913799236170426" lon="14.913471642126412"><ele>349.0</ele><time>2026-03-22T11:15:57Z</time></trkpt><trkpt lat="41.913852304361264" lon="14.913538888079593"><ele>349.0</ele><time>2026-03-22T11:16:00Z</time></trkpt><trkpt lat="41.913895352250606" lon="14.913606441032146"><ele>349.0</ele><time>2026-03-22T11:16:04Z</time></trkpt><trkpt lat="41.913949912399445" lon="14.91373764876396"><ele>349.0</ele><time>2026-03-22T11:16:06Z</time></trkpt><trkpt lat="41.914040696190646" lon="14.913835790367676"><ele>349.0</ele><time>2026-03-22T11:16:08Z</time></trkpt><trkpt lat="41.914098587525444" lon="14.913881150036612"><ele>349.0</ele><time>2026-03-22T11:16:09Z</time></trkpt><trkpt lat="41.91416989834685" lon="14.91392485922629"><ele>349.0</ele><time>2026-03-22T11:16:10Z</time></trkpt><trkpt lat="41.914242086580124" lon="14.913973182532239"><ele>348.2</ele><time>2026-03-22T11:16:11Z</time></trkpt><trkpt lat="41.91431641045591" lon="14.914024584622055"><ele>347.4</ele><time>2026-03-22T11:16:12Z</time></trkpt><trkpt lat="41.914394343286425" lon="14.914073091728548"><ele>346.6</ele><time>2026-03-22T11:16:13Z</time></trkpt><trkpt lat="41.914476297293106" lon="14.914122456418355"><ele>345.8</ele><time>2026-03-22T11:16:14Z</time></trkpt><trkpt lat="41.914573033513584" lon="14.91416469594476"><ele>345.0</ele><time>2026-03-22T11:16:15Z</time></trkpt><trkpt lat="41.91467079956581" lon="14.914189683916032"><ele>345.0</ele><time>2026-03-22T11:16:16Z</time></trkpt><trkpt lat="41.9147719262839" lon="14.914201060454559"><ele>345.0</ele><time>2026-03-22T11:16:17Z</time></trkpt><trkpt lat="41.91487617349988" lon="14.914208072980001"><ele>345.0</ele><time>2026-03-22T11:16:18Z</time></trkpt><trkpt lat="41.9149850395696" lon="14.91419819399704"><ele>345.0</ele><time>2026-03-22T11:16:19Z</time></trkpt><trkpt lat="41.91509548306301" lon="14.91418260735884"><ele>345.0</ele><time>2026-03-22T11:16:20Z</time></trkpt><trkpt lat="41.915204167188165" lon="14.914162969785773"><ele>342.4</ele><time>2026-03-22T11:16:21Z</time></trkpt><trkpt lat="41.915310306809424" lon="14.91412363234854"><ele>339.8</ele><time>2026-03-22T11:16:22Z</time></trkpt><trkpt lat="41.91540751166704" lon="14.914086076733724"><ele>337.20000000000005</ele><time>2026-03-22T11:16:23Z</time></trkpt><trkpt lat="41.915512376231355" lon="14.914039525848763"><ele>334.6</ele><time>2026-03-22T11:16:24Z</time></trkpt><trkpt lat="41.91562722919014" lon="14.913981003154692"><ele>332.0</ele><time>2026-03-22T11:16:25Z</time></trkpt><trkpt lat="41.915737187189244" lon="14.91391345814737"><ele>332.0</ele><time>2026-03-22T11:16:26Z</time></trkpt><trkpt lat="41.91584940568362" lon="14.9138475501215"><ele>332.0</ele><time>2026-03-22T11:16:27Z</time></trkpt><trkpt lat="41.91596081958623" lon="14.913786334836901"><ele>332.0</ele><time>2026-03-22T11:16:28Z</time></trkpt><trkpt lat="41.91606235124446" lon="14.913705444833596"><ele>332.0</ele><time>2026-03-22T11:16:29Z</time></trkpt><trkpt lat="41.916168750628174" lon="14.913630564456337"><ele>330.5</ele><time>2026-03-22T11:16:30Z</time></trkpt><trkpt lat="41.91627944645594" lon="14.913578068685773"><ele>329.0</ele><time>2026-03-22T11:16:31Z</time></trkpt><trkpt lat="41.916397800364905" lon="14.913539833940968"><ele>327.5</ele><time>2026-03-22T11:16:32Z</time></trkpt><trkpt lat="41.91650808210918" lon="14.913509004419828"><ele>326.0</ele><time>2026-03-22T11:16:33Z</time></trkpt><trkpt lat="41.91662444938537" lon="14.913541101086633"><ele>324.75</ele><time>2026-03-22T11:16:34Z</time></trkpt><trkpt lat="41.91673694487341" lon="14.913552866175209"><ele>323.5</ele><time>2026-03-22T11:16:35Z</time></trkpt><trkpt lat="41.916846751292184" lon="14.913577262895787"><ele>322.25</ele><time>2026-03-22T11:16:36Z</time></trkpt><trkpt lat="41.91695992772788" lon="14.913608625666923"><ele>321.0</ele><time>2026-03-22T11:16:37Z</time></trkpt><trkpt lat="41.91707790920655" lon="14.913646899153683"><ele>321.0</ele><time>2026-03-22T11:16:38Z</time></trkpt><trkpt lat="41.91719529326691" lon="14.913685445549357"><ele>321.0</ele><time>2026-03-22T11:16:39Z</time></trkpt><trkpt lat="41.917301404963645" lon="14.913718245875208"><ele>321.0</ele><time>2026-03-22T11:16:40Z</time></trkpt><trkpt lat="41.917402560641015" lon="14.913751662530714"><ele>321.0</ele><time>2026-03-22T11:16:41Z</time></trkpt><trkpt lat="41.91749663477397" lon="14.913787736137913"><ele>321.0</ele><time>2026-03-22T11:16:42Z</time></trkpt><trkpt lat="41.91758363534927" lon="14.913818994313385"><ele>321.0</ele><time>2026-03-22T11:16:43Z</time></trkpt><trkpt lat="41.917658477055774" lon="14.91384743913255"><ele>321.0</ele><time>2026-03-22T11:16:44Z</time></trkpt><trkpt lat="41.91771875728585" lon="14.913871856389433"><ele>321.0</ele><time>2026-03-22T11:16:45Z</time></trkpt><trkpt lat="41.917811375490416" lon="14.9139223084568"><ele>321.0</ele><time>2026-03-22T11:16:47Z</time></trkpt><trkpt lat="41.918010360816886" lon="14.914099453340782"><ele>321.0</ele><time>2026-03-22T11:16:50Z</time></trkpt><trkpt lat="41.91810523151955" lon="14.914168203041328"><ele>321.0</ele><time>2026-03-22T11:16:51Z</time></trkpt><trkpt lat="41.91823411061322" lon="14.91428300819462"><ele>321.0</ele><time>2026-03-22T11:16:52Z</time></trkpt><trkpt lat="41.91836845554222" lon="14.914427393784456"><ele>321.0</ele><time>2026-03-22T11:16:53Z</time></trkpt><trkpt lat="41.918495074023795" lon="14.914566062241695"><ele>323.6666666666667</ele><time>2026-03-22T11:16:54Z</time></trkpt><trkpt lat="41.91861157047009" lon="14.914732345899242"><ele>326.33333333333337</ele><time>2026-03-22T11:16:55Z</time></trkpt><trkpt lat="41.91874401501465" lon="14.914887290332867"><ele>329.0</ele><time>2026-03-22T11:16:56Z</time></trkpt><trkpt lat="41.91888837408138" lon="14.91505197977411"><ele>325.6666666666667</ele><time>2026-03-22T11:16:57Z</time></trkpt><trkpt lat="41.91903676050084" lon="14.915219913741577"><ele>322.3333333333333</ele><time>2026-03-22T11:16:58Z</time></trkpt><trkpt lat="41.919183652843934" lon="14.915357025886356"><ele>319.0</ele><time>2026-03-22T11:16:59Z</time></trkpt><trkpt lat="41.919322673570896" lon="14.915511481224945"><ele>319.0</ele><time>2026-03-22T11:17:00Z</time></trkpt><trkpt lat="41.919465856224456" lon="14.91565465508904"><ele>319.0</ele><time>2026-03-22T11:17:01Z</time></trkpt><trkpt lat="41.91962341472081" lon="14.915785431693132"><ele>319.0</ele><time>2026-03-22T11:17:02Z</time></trkpt><trkpt lat="41.919792992439184" lon="14.915903613783039"><ele>317.66666666666663</ele><time>2026-03-22T11:17:03Z</time></trkpt><trkpt lat="41.919964065910996" lon="14.916034592174364"><ele>316.3333333333333</ele><time>2026-03-22T11:17:04Z</time></trkpt><trkpt lat="41.920146074457385" lon="14.91616125093967"><ele>315.0</ele><time>2026-03-22T11:17:05Z</time></trkpt><trkpt lat="41.92034193494741" lon="14.916269812895402"><ele>315.0</ele><time>2026-03-22T11:17:06Z</time></trkpt><trkpt lat="41.92053902122734" lon="14.916374072786107"><ele>315.0</ele><time>2026-03-22T11:17:07Z</time></trkpt><trkpt lat="41.920726069950916" lon="14.91649176316909"><ele>315.0</ele><time>2026-03-22T11:17:08Z</time></trkpt><trkpt lat="41.92087810638404" lon="14.916645808665777"><ele>313.6666666666667</ele><time>2026-03-22T11:17:09Z</time></trkpt><trkpt lat="41.92102490119794" lon="14.916795628761916"><ele>312.33333333333337</ele><time>2026-03-22T11:17:10Z</time></trkpt><trkpt lat="41.92116799574189" lon="14.916956577355869"><ele>311.0</ele><time>2026-03-22T11:17:11Z</time></trkpt><trkpt lat="41.921321841774336" lon="14.91713478267461"><ele>311.0</ele><time>2026-03-22T11:17:12Z</time></trkpt><trkpt lat="41.921477900023284" lon="14.917313688458627"><ele>311.0</ele><time>2026-03-22T11:17:13Z</time></trkpt><trkpt lat="41.92163150015994" lon="14.917490474144293"><ele>311.0</ele><time>2026-03-22T11:17:14Z</time></trkpt><trkpt lat="41.9217825117722" lon="14.917664280595243"><ele>310.0</ele><time>2026-03-22T11:17:15Z</time></trkpt><trkpt lat="41.92193160785573" lon="14.917835096976718"><ele>309.0</ele><time>2026-03-22T11:17:16Z</time></trkpt><trkpt lat="41.92208963257887" lon="14.91799633561189"><ele>308.0</ele><time>2026-03-22T11:17:17Z</time></trkpt><trkpt lat="41.92223742185248" lon="14.918165941268526"><ele>308.0</ele><time>2026-03-22T11:17:18Z</time></trkpt><trkpt lat="41.92238688211578" lon="14.918337647735784"><ele>308.0</ele><time>2026-03-22T11:17:19Z</time></trkpt><trkpt lat="41.9225402520049" lon="14.918514820001377"><ele>308.0</ele><time>2026-03-22T11:17:20Z</time></trkpt><trkpt lat="41.92268868505379" lon="14.918690417953922"><ele>309.33333333333337</ele><time>2026-03-22T11:17:21Z</time></trkpt><trkpt lat="41.922840016904026" lon="14.918856570681617"><ele>310.6666666666667</ele><time>2026-03-22T11:17:22Z</time></trkpt><trkpt lat="41.92299003236586" lon="14.919031033964789"><ele>312.0</ele><time>2026-03-22T11:17:23Z</time></trkpt><trkpt lat="41.923141184842066" lon="14.919203348738684"><ele>309.3333333333333</ele><time>2026-03-22T11:17:24Z</time></trkpt><trkpt lat="41.92329672252425" lon="14.919372529027973"><ele>306.66666666666663</ele><time>2026-03-22T11:17:25Z</time></trkpt><trkpt lat="41.92345736749709" lon="14.919530500532103"><ele>304.0</ele><time>2026-03-22T11:17:26Z</time></trkpt><trkpt lat="41.923623677036986" lon="14.919676493083404"><ele>304.0</ele><time>2026-03-22T11:17:27Z</time></trkpt><trkpt lat="41.923796163372344" lon="14.919808136394865"><ele>304.0</ele><time>2026-03-22T11:17:28Z</time></trkpt><trkpt lat="41.923958986796265" lon="14.919940331881659"><ele>304.0</ele><time>2026-03-22T11:17:29Z</time></trkpt><trkpt lat="41.924112484443086" lon="14.920069425231672"><ele>301.66666666666663</ele><time>2026-03-22T11:17:30Z</time></trkpt><trkpt lat="41.92426103109213" lon="14.920197565378533"><ele>299.3333333333333</ele><time>2026-03-22T11:17:31Z</time></trkpt><trkpt lat="41.924413748135144" lon="14.920326312431044"><ele>297.0</ele><time>2026-03-22T11:17:32Z</time></trkpt><trkpt lat="41.92456634731107" lon="14.920467714288165"><ele>297.0</ele><time>2026-03-22T11:17:33Z</time></trkpt><trkpt lat="41.92471446881809" lon="14.920617292525213"><ele>297.0</ele><time>2026-03-22T11:17:34Z</time></trkpt><trkpt lat="41.92485712032238" lon="14.920772523853211"><ele>297.0</ele><time>2026-03-22T11:17:35Z</time></trkpt><trkpt lat="41.92500086827198" lon="14.92092439379803"><ele>296.3333333333333</ele><time>2026-03-22T11:17:36Z</time></trkpt><trkpt lat="41.92514228811636" lon="14.921069615118665"><ele>295.66666666666663</ele><time>2026-03-22T11:17:37Z</time></trkpt><trkpt lat="41.92527586219865" lon="14.921208802737393"><ele>295.0</ele><time>2026-03-22T11:17:38Z</time></trkpt><trkpt lat="41.925408407131094" lon="14.921343521129955"><ele>295.0</ele><time>2026-03-22T11:17:39Z</time></trkpt><trkpt lat="41.92552989099932" lon="14.92147695958285"><ele>295.0</ele><time>2026-03-22T11:17:40Z</time></trkpt><trkpt lat="41.925629275246195" lon="14.921596869262704"><ele>295.0</ele><time>2026-03-22T11:17:41Z</time></trkpt><trkpt lat="41.92574859645667" lon="14.921667689732406"><ele>295.0</ele><time>2026-03-22T11:17:42Z</time></trkpt><trkpt lat="41.92593730953004" lon="14.921763947182935"><ele>295.5</ele><time>2026-03-22T11:17:43Z</time></trkpt><trkpt lat="41.92603721390387" lon="14.921896046259056"><ele>296.0</ele><time>2026-03-22T11:17:44Z</time></trkpt><trkpt lat="41.926107825288845" lon="14.922051200431213"><ele>296.5</ele><time>2026-03-22T11:17:45Z</time></trkpt><trkpt lat="41.926155394737634" lon="14.922235700531722"><ele>297.0</ele><time>2026-03-22T11:17:46Z</time></trkpt><trkpt lat="41.92618468171991" lon="14.922436078327147"><ele>296.6666666666667</ele><time>2026-03-22T11:17:47Z</time></trkpt><trkpt lat="41.92620472167348" lon="14.922645842817387"><ele>296.33333333333337</ele><time>2026-03-22T11:17:48Z</time></trkpt><trkpt lat="41.92622177908887" lon="14.922862001370863"><ele>296.0</ele><time>2026-03-22T11:17:49Z</time></trkpt><trkpt lat="41.92624618179164" lon="14.923069514826977"><ele>296.0</ele><time>2026-03-22T11:17:50Z</time></trkpt><trkpt lat="41.92630965085973" lon="14.923261440869503"><ele>296.0</ele><time>2026-03-22T11:17:51Z</time></trkpt><trkpt lat="41.9263660363517" lon="14.923461344280115"><ele>296.0</ele><time>2026-03-22T11:17:52Z</time></trkpt><trkpt lat="41.926445098283395" lon="14.92365920660664"><ele>294.6666666666667</ele><time>2026-03-22T11:17:53Z</time></trkpt><trkpt lat="41.92649622236367" lon="14.923864277224471"><ele>293.3333333333333</ele><time>2026-03-22T11:17:54Z</time></trkpt><trkpt lat="41.926575210769" lon="14.9240376997287"><ele>292.0</ele><time>2026-03-22T11:17:55Z</time></trkpt><trkpt lat="41.92664040281356" lon="14.92420828999447"><ele>291.0</ele><time>2026-03-22T11:17:56Z</time></trkpt><trkpt lat="41.926716623464834" lon="14.924378596187008"><ele>290.0</ele><time>2026-03-22T11:17:57Z</time></trkpt><trkpt lat="41.926819682857676" lon="14.924544042771416"><ele>289.0</ele><time>2026-03-22T11:17:58Z</time></trkpt><trkpt lat="41.92694803907238" lon="14.924703307798287"><ele>289.0</ele><time>2026-03-22T11:17:59Z</time></trkpt><trkpt lat="41.92708741469877" lon="14.924856312327833"><ele>289.0</ele><time>2026-03-22T11:18:00Z</time></trkpt><trkpt lat="41.92722792162192" lon="14.925018762874648"><ele>289.0</ele><time>2026-03-22T11:18:01Z</time></trkpt><trkpt lat="41.927356297547455" lon="14.925163274238852"><ele>288.66666666666663</ele><time>2026-03-22T11:18:02Z</time></trkpt><trkpt lat="41.92747403720264" lon="14.925307899171058"><ele>288.3333333333333</ele><time>2026-03-22T11:18:03Z</time></trkpt><trkpt lat="41.92759051038779" lon="14.925444123396394"><ele>288.0</ele><time>2026-03-22T11:18:04Z</time></trkpt><trkpt lat="41.92770423057453" lon="14.925574574685449"><ele>285.3333333333333</ele><time>2026-03-22T11:18:05Z</time></trkpt><trkpt lat="41.92782430076312" lon="14.92571730537153"><ele>282.66666666666663</ele><time>2026-03-22T11:18:06Z</time></trkpt><trkpt lat="41.927955225220344" lon="14.925872565874341"><ele>280.0</ele><time>2026-03-22T11:18:07Z</time></trkpt><trkpt lat="41.92809056837086" lon="14.926027452759964"><ele>280.0</ele><time>2026-03-22T11:18:08Z</time></trkpt><trkpt lat="41.92822243537842" lon="14.926182822003666"><ele>280.0</ele><time>2026-03-22T11:18:09Z</time></trkpt><trkpt lat="41.928349860792764" lon="14.926332660804327"><ele>280.0</ele><time>2026-03-22T11:18:10Z</time></trkpt><trkpt lat="41.92846158009361" lon="14.926488825572227"><ele>276.5</ele><time>2026-03-22T11:18:11Z</time></trkpt><trkpt lat="41.928580039344865" lon="14.926629018068041"><ele>273.0</ele><time>2026-03-22T11:18:12Z</time></trkpt><trkpt lat="41.928689315654104" lon="14.926758342893725"><ele>269.5</ele><time>2026-03-22T11:18:13Z</time></trkpt><trkpt lat="41.92880745016915" lon="14.92686861317097"><ele>266.0</ele><time>2026-03-22T11:18:14Z</time></trkpt><trkpt lat="41.92890844930489" lon="14.926997094692501"><ele>266.0</ele><time>2026-03-22T11:18:15Z</time></trkpt><trkpt lat="41.928999744633764" lon="14.927115484551846"><ele>266.0</ele><time>2026-03-22T11:18:16Z</time></trkpt><trkpt lat="41.92908314639685" lon="14.927224908276585"><ele>266.0</ele><time>2026-03-22T11:18:17Z</time></trkpt><trkpt lat="41.92912882946514" lon="14.927352834473927"><ele>266.0</ele><time>2026-03-22T11:18:18Z</time></trkpt><trkpt lat="41.9291583347812" lon="14.927481286676025"><ele>266.0</ele><time>2026-03-22T11:18:19Z</time></trkpt><trkpt lat="41.92916551366642" lon="14.927620559933723"><ele>263.5</ele><time>2026-03-22T11:18:20Z</time></trkpt><trkpt lat="41.92915126965528" lon="14.927775706061412"><ele>261.0</ele><time>2026-03-22T11:18:21Z</time></trkpt><trkpt lat="41.92913157949224" lon="14.92795437772751"><ele>258.5</ele><time>2026-03-22T11:18:22Z</time></trkpt><trkpt lat="41.929113959966074" lon="14.928117769258948"><ele>256.0</ele><time>2026-03-22T11:18:23Z</time></trkpt><trkpt lat="41.92910757044412" lon="14.928248139725488"><ele>256.0</ele><time>2026-03-22T11:18:24Z</time></trkpt><trkpt lat="41.9291525158483" lon="14.928369202928257"><ele>256.0</ele><time>2026-03-22T11:18:25Z</time></trkpt><trkpt lat="41.92920200924085" lon="14.928469525884335"><ele>256.0</ele><time>2026-03-22T11:18:26Z</time></trkpt><trkpt lat="41.9292823256672" lon="14.928536357090142"><ele>256.0</ele><time>2026-03-22T11:18:27Z</time></trkpt><trkpt lat="41.929378693855604" lon="14.928555653532252"><ele>256.0</ele><time>2026-03-22T11:18:28Z</time></trkpt><trkpt lat="41.9294895796251" lon="14.92852570210683"><ele>253.5</ele><time>2026-03-22T11:18:29Z</time></trkpt><trkpt lat="41.929602806729356" lon="14.928447976728691"><ele>251.0</ele><time>2026-03-22T11:18:30Z</time></trkpt><trkpt lat="41.929713670924436" lon="14.92834827100949"><ele>248.5</ele><time>2026-03-22T11:18:31Z</time></trkpt><trkpt lat="41.92982025131706" lon="14.928261719352365"><ele>246.0</ele><time>2026-03-22T11:18:32Z</time></trkpt><trkpt lat="41.92990390617593" lon="14.928191562258613"><ele>246.0</ele><time>2026-03-22T11:18:33Z</time></trkpt><trkpt lat="41.92997430930202" lon="14.928153714925335"><ele>246.0</ele><time>2026-03-22T11:18:34Z</time></trkpt><trkpt lat="41.930086754348615" lon="14.928191814602934"><ele>246.0</ele><time>2026-03-22T11:18:36Z</time></trkpt><trkpt lat="41.93011759468438" lon="14.92827417884546"><ele>246.0</ele><time>2026-03-22T11:18:37Z</time></trkpt><trkpt lat="41.93007176861989" lon="14.928380256422951"><ele>246.0</ele><time>2026-03-22T11:18:38Z</time></trkpt><trkpt lat="41.930000235428174" lon="14.928447345867008"><ele>246.0</ele><time>2026-03-22T11:18:39Z</time></trkpt><trkpt lat="41.92992636680957" lon="14.928540275237701"><ele>243.5</ele><time>2026-03-22T11:18:40Z</time></trkpt><trkpt lat="41.92983562041941" lon="14.928672609972214"><ele>241.0</ele><time>2026-03-22T11:18:41Z</time></trkpt><trkpt lat="41.92974786618336" lon="14.928811710407562"><ele>238.5</ele><time>2026-03-22T11:18:42Z</time></trkpt><trkpt lat="41.929663125139584" lon="14.928955628130208"><ele>236.0</ele><time>2026-03-22T11:18:43Z</time></trkpt><trkpt lat="41.929580826455584" lon="14.929103502753657"><ele>233.5</ele><time>2026-03-22T11:18:44Z</time></trkpt><trkpt lat="41.92949855945055" lon="14.92925576586538"><ele>231.0</ele><time>2026-03-22T11:18:45Z</time></trkpt><trkpt lat="41.929419116054426" lon="14.929405473107291"><ele>228.5</ele><time>2026-03-22T11:18:46Z</time></trkpt><trkpt lat="41.92934679477966" lon="14.929542318377225"><ele>226.0</ele><time>2026-03-22T11:18:47Z</time></trkpt><trkpt lat="41.929291647122135" lon="14.92965174324607"><ele>226.0</ele><time>2026-03-22T11:18:48Z</time></trkpt><trkpt lat="41.92925018687859" lon="14.929744024635973"><ele>226.00000000000003</ele><time>2026-03-22T11:18:49Z</time></trkpt><trkpt lat="41.92923956577841" lon="14.92984272031526"><ele>226.00000000000003</ele><time>2026-03-22T11:18:50Z</time></trkpt><trkpt lat="41.929245090548484" lon="14.929931454988271"><ele>226.0</ele><time>2026-03-22T11:18:51Z</time></trkpt><trkpt lat="41.9293947135824" lon="14.930055585927407"><ele>226.0</ele><time>2026-03-22T11:18:53Z</time></trkpt><trkpt lat="41.92948293917605" lon="14.930055294132053"><ele>226.0</ele><time>2026-03-22T11:18:54Z</time></trkpt><trkpt lat="41.92957535772582" lon="14.93000695342309"><ele>226.00000000000003</ele><time>2026-03-22T11:18:55Z</time></trkpt><trkpt lat="41.92966898000661" lon="14.929942690366097"><ele>226.00000000000003</ele><time>2026-03-22T11:18:56Z</time></trkpt><trkpt lat="41.92976621294789" lon="14.929879478321274"><ele>226.0</ele><time>2026-03-22T11:18:57Z</time></trkpt><trkpt lat="41.92987340151604" lon="14.929843035948922"><ele>226.0</ele><time>2026-03-22T11:18:58Z</time></trkpt><trkpt lat="41.929992890415086" lon="14.929832434459"><ele>225.5</ele><time>2026-03-22T11:18:59Z</time></trkpt><trkpt lat="41.930128597154095" lon="14.929858997552024"><ele>225.0</ele><time>2026-03-22T11:19:00Z</time></trkpt><trkpt lat="41.93027746441096" lon="14.929882987544495"><ele>224.5</ele><time>2026-03-22T11:19:01Z</time></trkpt><trkpt lat="41.93043245284347" lon="14.929915634686681"><ele>224.0</ele><time>2026-03-22T11:19:02Z</time></trkpt><trkpt lat="41.93058770820603" lon="14.929952495548422"><ele>224.0</ele><time>2026-03-22T11:19:03Z</time></trkpt><trkpt lat="41.93073502934827" lon="14.930007084261176"><ele>224.0</ele><time>2026-03-22T11:19:04Z</time></trkpt><trkpt lat="41.93088715617681" lon="14.930071234964476"><ele>224.0</ele><time>2026-03-22T11:19:05Z</time></trkpt><trkpt lat="41.93103635719246" lon="14.93014796335086"><ele>222.25</ele><time>2026-03-22T11:19:06Z</time></trkpt><trkpt lat="41.93117777433951" lon="14.930227752508419"><ele>220.5</ele><time>2026-03-22T11:19:07Z</time></trkpt><trkpt lat="41.931311020413446" lon="14.930302729667416"><ele>218.75</ele><time>2026-03-22T11:19:08Z</time></trkpt><trkpt lat="41.9314377278584" lon="14.930392749086677"><ele>217.0</ele><time>2026-03-22T11:19:09Z</time></trkpt><trkpt lat="41.931545537865425" lon="14.930547322343372"><ele>217.0</ele><time>2026-03-22T11:19:10Z</time></trkpt><trkpt lat="41.931677839274286" lon="14.930690130952465"><ele>217.0</ele><time>2026-03-22T11:19:11Z</time></trkpt><trkpt lat="41.93179975337688" lon="14.930854656429391"><ele>217.0</ele><time>2026-03-22T11:19:12Z</time></trkpt><trkpt lat="41.931922019691235" lon="14.931008776347317"><ele>215.0</ele><time>2026-03-22T11:19:13Z</time></trkpt><trkpt lat="41.932026705579624" lon="14.931131598476501"><ele>213.0</ele><time>2026-03-22T11:19:14Z</time></trkpt><trkpt lat="41.932109333846746" lon="14.93123097752103"><ele>211.0</ele><time>2026-03-22T11:19:15Z</time></trkpt><trkpt lat="41.93219421394923" lon="14.931303830208273"><ele>209.0</ele><time>2026-03-22T11:19:16Z</time></trkpt><trkpt lat="41.93230822009118" lon="14.931340594577167"><ele>209.0</ele><time>2026-03-22T11:19:17Z</time></trkpt><trkpt lat="41.932435286776865" lon="14.931327477443345"><ele>209.0</ele><time>2026-03-22T11:19:18Z</time></trkpt><trkpt lat="41.93257065885352" lon="14.931265854293134"><ele>209.0</ele><time>2026-03-22T11:19:19Z</time></trkpt><trkpt lat="41.93271040637764" lon="14.93119109772931"><ele>209.0</ele><time>2026-03-22T11:19:20Z</time></trkpt><trkpt lat="41.93286022389366" lon="14.931116547750891"><ele>208.66666666666669</ele><time>2026-03-22T11:19:21Z</time></trkpt><trkpt lat="41.93301023323232" lon="14.931039797530099"><ele>208.33333333333331</ele><time>2026-03-22T11:19:22Z</time></trkpt><trkpt lat="41.9331559499974" lon="14.930974502796394"><ele>208.0</ele><time>2026-03-22T11:19:23Z</time></trkpt><trkpt lat="41.93329546437269" lon="14.930916103642929"><ele>204.5</ele><time>2026-03-22T11:19:24Z</time></trkpt><trkpt lat="41.93343023316372" lon="14.930863021577853"><ele>201.0</ele><time>2026-03-22T11:19:25Z</time></trkpt><trkpt lat="41.933571191819475" lon="14.930833760858823"><ele>197.5</ele><time>2026-03-22T11:19:26Z</time></trkpt><trkpt lat="41.933716708753316" lon="14.930842018625672"><ele>194.0</ele><time>2026-03-22T11:19:27Z</time></trkpt><trkpt lat="41.93386520849647" lon="14.930869600989249"><ele>194.0</ele><time>2026-03-22T11:19:28Z</time></trkpt><trkpt lat="41.9340193044852" lon="14.930884592480368"><ele>194.0</ele><time>2026-03-22T11:19:29Z</time></trkpt><trkpt lat="41.93417255273873" lon="14.930895085035806"><ele>194.0</ele><time>2026-03-22T11:19:30Z</time></trkpt><trkpt lat="41.93430201158292" lon="14.930904927918569"><ele>194.0</ele><time>2026-03-22T11:19:31Z</time></trkpt><trkpt lat="41.93440779204619" lon="14.930922588245474"><ele>191.39999999999998</ele><time>2026-03-22T11:19:32Z</time></trkpt><trkpt lat="41.93450592206524" lon="14.9309542478937"><ele>188.8</ele><time>2026-03-22T11:19:33Z</time></trkpt><trkpt lat="41.934597141187474" lon="14.931021002262002"><ele>186.2</ele><time>2026-03-22T11:19:34Z</time></trkpt><trkpt lat="41.93467672237438" lon="14.931111479911639"><ele>183.60000000000002</ele><time>2026-03-22T11:19:35Z</time></trkpt><trkpt lat="41.934707165552574" lon="14.931253874093594"><ele>181.0</ele><time>2026-03-22T11:19:36Z</time></trkpt><trkpt lat="41.934729606742586" lon="14.931408950312543"><ele>181.0</ele><time>2026-03-22T11:19:37Z</time></trkpt><trkpt lat="41.934756907309215" lon="14.93160316598347"><ele>181.0</ele><time>2026-03-22T11:19:38Z</time></trkpt><trkpt lat="41.934757793427444" lon="14.93175136934382"><ele>181.0</ele><time>2026-03-22T11:19:39Z</time></trkpt><trkpt lat="41.93477099818507" lon="14.931951894443579"><ele>181.0</ele><time>2026-03-22T11:19:40Z</time></trkpt><trkpt lat="41.9347840177287" lon="14.932149606962481"><ele>181.0</ele><time>2026-03-22T11:19:41Z</time></trkpt><trkpt lat="41.934796823288515" lon="14.932331180180586"><ele>181.0</ele><time>2026-03-22T11:19:42Z</time></trkpt><trkpt lat="41.93480980000903" lon="14.93250595907482"><ele>181.0</ele><time>2026-03-22T11:19:43Z</time></trkpt><trkpt lat="41.934822466491944" lon="14.93266038362999"><ele>181.0</ele><time>2026-03-22T11:19:44Z</time></trkpt><trkpt lat="41.93483562887917" lon="14.9328077126997"><ele>180.20000000000002</ele><time>2026-03-22T11:19:45Z</time></trkpt><trkpt lat="41.934848275843805" lon="14.932929943094482"><ele>179.4</ele><time>2026-03-22T11:19:46Z</time></trkpt><trkpt lat="41.93486608414159" lon="14.933055490933736"><ele>178.6</ele><time>2026-03-22T11:19:47Z</time></trkpt><trkpt lat="41.93492174017212" lon="14.933160933896097"><ele>177.8</ele><time>2026-03-22T11:19:48Z</time></trkpt><trkpt lat="41.93499789023639" lon="14.933250526145594"><ele>177.0</ele><time>2026-03-22T11:19:49Z</time></trkpt><trkpt lat="41.935107832622734" lon="14.933302898434489"><ele>176.6</ele><time>2026-03-22T11:19:50Z</time></trkpt><trkpt lat="41.9352274481324" lon="14.933305279924468"><ele>176.2</ele><time>2026-03-22T11:19:51Z</time></trkpt><trkpt lat="41.93534979094108" lon="14.933293505869369"><ele>175.8</ele><time>2026-03-22T11:19:52Z</time></trkpt><trkpt lat="41.935448812649916" lon="14.933292021203458"><ele>175.4</ele><time>2026-03-22T11:19:53Z</time></trkpt><trkpt lat="41.93552417792255" lon="14.933319723947536"><ele>175.0</ele><time>2026-03-22T11:19:54Z</time></trkpt><trkpt lat="41.935578957676235" lon="14.93337989470516"><ele>173.8</ele><time>2026-03-22T11:19:55Z</time></trkpt><trkpt lat="41.935582460175404" lon="14.933504988029819"><ele>172.6</ele><time>2026-03-22T11:19:56Z</time></trkpt><trkpt lat="41.93553393685652" lon="14.933614520948717"><ele>171.39999999999998</ele><time>2026-03-22T11:19:57Z</time></trkpt><trkpt lat="41.93545187915933" lon="14.933698183201555"><ele>170.2</ele><time>2026-03-22T11:19:58Z</time></trkpt><trkpt lat="41.93537093180317" lon="14.933843754738405"><ele>169.0</ele><time>2026-03-22T11:19:59Z</time></trkpt><trkpt lat="41.93527941552726" lon="14.934008571906624"><ele>169.0</ele><time>2026-03-22T11:20:00Z</time></trkpt><trkpt lat="41.9351920966618" lon="14.934165345961038"><ele>169.0</ele><time>2026-03-22T11:20:01Z</time></trkpt><trkpt lat="41.93510001368462" lon="14.934330350266066"><ele>169.0</ele><time>2026-03-22T11:20:02Z</time></trkpt><trkpt lat="41.93501073538328" lon="14.934494300361221"><ele>167.66666666666669</ele><time>2026-03-22T11:20:03Z</time></trkpt><trkpt lat="41.93491942033767" lon="14.934662167629327"><ele>166.33333333333334</ele><time>2026-03-22T11:20:04Z</time></trkpt><trkpt lat="41.93482919499657" lon="14.934827655020298"><ele>165.0</ele><time>2026-03-22T11:20:05Z</time></trkpt><trkpt lat="41.93473876003579" lon="14.934994358159944"><ele>163.0</ele><time>2026-03-22T11:20:06Z</time></trkpt><trkpt lat="41.93464601741484" lon="14.935163972236367"><ele>161.0</ele><time>2026-03-22T11:20:07Z</time></trkpt><trkpt lat="41.93454989829444" lon="14.935335570347396"><ele>159.0</ele><time>2026-03-22T11:20:08Z</time></trkpt><trkpt lat="41.93444880311526" lon="14.93551605202816"><ele>159.0</ele><time>2026-03-22T11:20:09Z</time></trkpt><trkpt lat="41.93434656970226" lon="14.93569856565222"><ele>159.0</ele><time>2026-03-22T11:20:10Z</time></trkpt><trkpt lat="41.934240089035775" lon="14.9358901105023"><ele>159.0</ele><time>2026-03-22T11:20:11Z</time></trkpt><trkpt lat="41.93413257181547" lon="14.93609071319637"><ele>159.33333333333334</ele><time>2026-03-22T11:20:12Z</time></trkpt><trkpt lat="41.934031569388594" lon="14.936302739228594"><ele>159.66666666666669</ele><time>2026-03-22T11:20:13Z</time></trkpt><trkpt lat="41.93393646354582" lon="14.936537156436453"><ele>160.0</ele><time>2026-03-22T11:20:14Z</time></trkpt><trkpt lat="41.93385279759481" lon="14.936778988078144"><ele>160.33333333333334</ele><time>2026-03-22T11:20:15Z</time></trkpt><trkpt lat="41.933771478280015" lon="14.937019923602467"><ele>160.66666666666666</ele><time>2026-03-22T11:20:16Z</time></trkpt><trkpt lat="41.93369109138615" lon="14.937264852445734"><ele>161.0</ele><time>2026-03-22T11:20:17Z</time></trkpt><trkpt lat="41.93361045610298" lon="14.937509148941013"><ele>161.0</ele><time>2026-03-22T11:20:18Z</time></trkpt><trkpt lat="41.933526959540345" lon="14.937752543587763"><ele>161.0</ele><time>2026-03-22T11:20:19Z</time></trkpt><trkpt lat="41.933442224942304" lon="14.93799747852747"><ele>161.0</ele><time>2026-03-22T11:20:20Z</time></trkpt><trkpt lat="41.93335904343914" lon="14.938244103985646"><ele>163.66666666666666</ele><time>2026-03-22T11:20:21Z</time></trkpt><trkpt lat="41.93328047352103" lon="14.938477056289598"><ele>166.33333333333334</ele><time>2026-03-22T11:20:22Z</time></trkpt><trkpt lat="41.93320370217458" lon="14.938704676211573"><ele>169.0</ele><time>2026-03-22T11:20:23Z</time></trkpt><trkpt lat="41.93313373246502" lon="14.93891989853127"><ele>169.0</ele><time>2026-03-22T11:20:24Z</time></trkpt><trkpt lat="41.933069780323194" lon="14.939135608996127"><ele>169.0</ele><time>2026-03-22T11:20:25Z</time></trkpt><trkpt lat="41.933021842480706" lon="14.939355528477774"><ele>169.0</ele><time>2026-03-22T11:20:26Z</time></trkpt><trkpt lat="41.932991993353795" lon="14.939572348471494"><ele>170.0</ele><time>2026-03-22T11:20:27Z</time></trkpt><trkpt lat="41.932967070606715" lon="14.93978818722171"><ele>171.0</ele><time>2026-03-22T11:20:28Z</time></trkpt><trkpt lat="41.93294584893609" lon="14.93999860060546"><ele>172.0</ele><time>2026-03-22T11:20:29Z</time></trkpt><trkpt lat="41.93292663757375" lon="14.940203068607895"><ele>173.0</ele><time>2026-03-22T11:20:30Z</time></trkpt><trkpt lat="41.93290634802367" lon="14.940399237296747"><ele>174.0</ele><time>2026-03-22T11:20:31Z</time></trkpt><trkpt lat="41.93288705950429" lon="14.940581945237312"><ele>175.0</ele><time>2026-03-22T11:20:32Z</time></trkpt><trkpt lat="41.93287204444714" lon="14.940747729190981"><ele>176.0</ele><time>2026-03-22T11:20:33Z</time></trkpt><trkpt lat="41.932865622637365" lon="14.940896995813965"><ele>177.60000000000002</ele><time>2026-03-22T11:20:34Z</time></trkpt><trkpt lat="41.93287305769089" lon="14.941043219477633"><ele>179.2</ele><time>2026-03-22T11:20:35Z</time></trkpt><trkpt lat="41.93290522525325" lon="14.941158445911244"><ele>180.8</ele><time>2026-03-22T11:20:36Z</time></trkpt><trkpt lat="41.93296850610653" lon="14.941252562563403"><ele>182.39999999999998</ele><time>2026-03-22T11:20:37Z</time></trkpt><trkpt lat="41.93304683375584" lon="14.94135148102467"><ele>184.0</ele><time>2026-03-22T11:20:38Z</time></trkpt><trkpt lat="41.93315598507569" lon="14.941445092074165"><ele>184.0</ele><time>2026-03-22T11:20:39Z</time></trkpt><trkpt lat="41.93329710019673" lon="14.941553189007053"><ele>184.0</ele><time>2026-03-22T11:20:40Z</time></trkpt><trkpt lat="41.93343447404586" lon="14.941681860932963"><ele>184.0</ele><time>2026-03-22T11:20:41Z</time></trkpt><trkpt lat="41.93355860509473" lon="14.941790383657438"><ele>186.33333333333334</ele><time>2026-03-22T11:20:42Z</time></trkpt><trkpt lat="41.93368609187802" lon="14.941910652229897"><ele>188.66666666666666</ele><time>2026-03-22T11:20:43Z</time></trkpt><trkpt lat="41.93380750918416" lon="14.942053584671186"><ele>191.0</ele><time>2026-03-22T11:20:44Z</time></trkpt><trkpt lat="41.933937164268144" lon="14.94219281393815"><ele>191.0</ele><time>2026-03-22T11:20:45Z</time></trkpt><trkpt lat="41.93405437529808" lon="14.942350337530458"><ele>191.0</ele><time>2026-03-22T11:20:46Z</time></trkpt><trkpt lat="41.93416421631111" lon="14.942509352142231"><ele>191.0</ele><time>2026-03-22T11:20:47Z</time></trkpt><trkpt lat="41.93426636780003" lon="14.942664650571398"><ele>190.25</ele><time>2026-03-22T11:20:48Z</time></trkpt><trkpt lat="41.93436093269607" lon="14.942814995974762"><ele>189.5</ele><time>2026-03-22T11:20:49Z</time></trkpt><trkpt lat="41.93443731731059" lon="14.942949949023575"><ele>188.75</ele><time>2026-03-22T11:20:50Z</time></trkpt><trkpt lat="41.93448274823063" lon="14.943096425202118"><ele>188.0</ele><time>2026-03-22T11:20:51Z</time></trkpt><trkpt lat="41.93450231007148" lon="14.943267077745707"><ele>191.0</ele><time>2026-03-22T11:20:52Z</time></trkpt><trkpt lat="41.93452069366573" lon="14.943466129538066"><ele>194.0</ele><time>2026-03-22T11:20:53Z</time></trkpt><trkpt lat="41.934537497980294" lon="14.94367624657777"><ele>197.0</ele><time>2026-03-22T11:20:54Z</time></trkpt><trkpt lat="41.934554363710156" lon="14.943887659818827"><ele>197.0</ele><time>2026-03-22T11:20:55Z</time></trkpt><trkpt lat="41.93456946011361" lon="14.944091437713947"><ele>197.0</ele><time>2026-03-22T11:20:56Z</time></trkpt><trkpt lat="41.93458449420849" lon="14.944294374580243"><ele>197.0</ele><time>2026-03-22T11:20:57Z</time></trkpt><trkpt lat="41.93459787912871" lon="14.944493871099757"><ele>198.5</ele><time>2026-03-22T11:20:58Z</time></trkpt><trkpt lat="41.93460940743699" lon="14.94468622325158"><ele>200.0</ele><time>2026-03-22T11:20:59Z</time></trkpt><trkpt lat="41.93461787374467" lon="14.944862793030836"><ele>201.5</ele><time>2026-03-22T11:21:00Z</time></trkpt><trkpt lat="41.9346220867335" lon="14.945033596120844"><ele>203.0</ele><time>2026-03-22T11:21:01Z</time></trkpt><trkpt lat="41.934623544672306" lon="14.945205465789181"><ele>204.4</ele><time>2026-03-22T11:21:02Z</time></trkpt><trkpt lat="41.93462190248171" lon="14.945379509765372"><ele>205.8</ele><time>2026-03-22T11:21:03Z</time></trkpt><trkpt lat="41.93461972020555" lon="14.945538994238117"><ele>207.2</ele><time>2026-03-22T11:21:04Z</time></trkpt><trkpt lat="41.93461983277009" lon="14.94568187890785"><ele>208.6</ele><time>2026-03-22T11:21:05Z</time></trkpt><trkpt lat="41.9346320009333" lon="14.945796550642173"><ele>210.0</ele><time>2026-03-22T11:21:06Z</time></trkpt><trkpt lat="41.93467290521339" lon="14.945889240233873"><ele>211.2</ele><time>2026-03-22T11:21:07Z</time></trkpt><trkpt lat="41.934719716679844" lon="14.945978209692948"><ele>212.4</ele><time>2026-03-22T11:21:08Z</time></trkpt><trkpt lat="41.934801815140325" lon="14.94603089716779"><ele>213.60000000000002</ele><time>2026-03-22T11:21:09Z</time></trkpt><trkpt lat="41.93491694160938" lon="14.946050380770336"><ele>214.8</ele><time>2026-03-22T11:21:10Z</time></trkpt><trkpt lat="41.935048736843655" lon="14.946039892220456"><ele>216.0</ele><time>2026-03-22T11:21:11Z</time></trkpt><trkpt lat="41.93520024651202" lon="14.94599594544073"><ele>216.5</ele><time>2026-03-22T11:21:12Z</time></trkpt><trkpt lat="41.93535165345108" lon="14.945969139407179"><ele>217.0</ele><time>2026-03-22T11:21:13Z</time></trkpt><trkpt lat="41.93549026814068" lon="14.945950217974998"><ele>217.5</ele><time>2026-03-22T11:21:14Z</time></trkpt><trkpt lat="41.93562412169614" lon="14.94593211433079"><ele>218.0</ele><time>2026-03-22T11:21:15Z</time></trkpt><trkpt lat="41.93575811206088" lon="14.945913521789402"><ele>217.25</ele><time>2026-03-22T11:21:16Z</time></trkpt><trkpt lat="41.93589510967935" lon="14.945909996583149"><ele>216.5</ele><time>2026-03-22T11:21:17Z</time></trkpt><trkpt lat="41.93602994411877" lon="14.945941554958617"><ele>215.75</ele><time>2026-03-22T11:21:18Z</time></trkpt><trkpt lat="41.936172857020026" lon="14.946006735242511"><ele>215.0</ele><time>2026-03-22T11:21:19Z</time></trkpt><trkpt lat="41.9363042540721" lon="14.946071912889796"><ele>215.0</ele><time>2026-03-22T11:21:20Z</time></trkpt><trkpt lat="41.936423882496406" lon="14.946116851936273"><ele>215.0</ele><time>2026-03-22T11:21:21Z</time></trkpt><trkpt lat="41.93655205957161" lon="14.946125232642816"><ele>215.0</ele><time>2026-03-22T11:21:22Z</time></trkpt><trkpt lat="41.9366862980654" lon="14.946076338813134"><ele>215.0</ele><time>2026-03-22T11:21:23Z</time></trkpt><trkpt lat="41.936814424720055" lon="14.945995422382154"><ele>215.25</ele><time>2026-03-22T11:21:24Z</time></trkpt><trkpt lat="41.936949814788505" lon="14.945897965999862"><ele>215.5</ele><time>2026-03-22T11:21:25Z</time></trkpt><trkpt lat="41.937071395683574" lon="14.945837518086277"><ele>215.75</ele><time>2026-03-22T11:21:26Z</time></trkpt><trkpt lat="41.93718968644138" lon="14.945782294087946"><ele>216.0</ele><time>2026-03-22T11:21:27Z</time></trkpt><trkpt lat="41.93734087732448" lon="14.94571161489821"><ele>216.0</ele><time>2026-03-22T11:21:28Z</time></trkpt><trkpt lat="41.93751860969654" lon="14.9456187401312"><ele>216.0</ele><time>2026-03-22T11:21:29Z</time></trkpt><trkpt lat="41.93770887263981" lon="14.94551339496805"><ele>216.0</ele><time>2026-03-22T11:21:30Z</time></trkpt><trkpt lat="41.93790784829267" lon="14.945412506912387"><ele>214.66666666666669</ele><time>2026-03-22T11:21:31Z</time></trkpt><trkpt lat="41.93810306356216" lon="14.94532256251429"><ele>213.33333333333334</ele><time>2026-03-22T11:21:32Z</time></trkpt><trkpt lat="41.9383043189569" lon="14.945223042081881"><ele>212.0</ele><time>2026-03-22T11:21:33Z</time></trkpt><trkpt lat="41.93850412535784" lon="14.945123289017925"><ele>211.66666666666669</ele><time>2026-03-22T11:21:34Z</time></trkpt><trkpt lat="41.93870465600547" lon="14.945019965968074"><ele>211.33333333333331</ele><time>2026-03-22T11:21:35Z</time></trkpt><trkpt lat="41.938911670220044" lon="14.944917835278341"><ele>211.0</ele><time>2026-03-22T11:21:36Z</time></trkpt><trkpt lat="41.939114774596696" lon="14.944814218630691"><ele>210.5</ele><time>2026-03-22T11:21:37Z</time></trkpt><trkpt lat="41.93932772003883" lon="14.94471313286081"><ele>210.0</ele><time>2026-03-22T11:21:38Z</time></trkpt><trkpt lat="41.93954026189901" lon="14.94461429591479"><ele>210.0</ele><time>2026-03-22T11:21:39Z</time></trkpt><trkpt lat="41.93975242801205" lon="14.944515368290507"><ele>210.0</ele><time>2026-03-22T11:21:40Z</time></trkpt><trkpt lat="41.939970276376094" lon="14.944412018503282"><ele>210.5</ele><time>2026-03-22T11:21:41Z</time></trkpt><trkpt lat="41.9401862554964" lon="14.944304562043765"><ele>211.0</ele><time>2026-03-22T11:21:42Z</time></trkpt><trkpt lat="41.9404043343403" lon="14.944202739295248"><ele>211.0</ele><time>2026-03-22T11:21:43Z</time></trkpt><trkpt lat="41.94062690585341" lon="14.944097144393302"><ele>211.0</ele><time>2026-03-22T11:21:44Z</time></trkpt><trkpt lat="41.940840593029485" lon="14.943991135666733"><ele>210.0</ele><time>2026-03-22T11:21:45Z</time></trkpt><trkpt lat="41.9410535665072" lon="14.943881458515158"><ele>209.0</ele><time>2026-03-22T11:21:46Z</time></trkpt><trkpt lat="41.94126516935113" lon="14.943784230226912"><ele>209.0</ele><time>2026-03-22T11:21:47Z</time></trkpt><trkpt lat="41.94147598154982" lon="14.943686449422135"><ele>209.0</ele><time>2026-03-22T11:21:48Z</time></trkpt><trkpt lat="41.941688530035265" lon="14.943580788563823"><ele>208.66666666666669</ele><time>2026-03-22T11:21:49Z</time></trkpt><trkpt lat="41.94189510004308" lon="14.943476596609981"><ele>208.33333333333331</ele><time>2026-03-22T11:21:50Z</time></trkpt><trkpt lat="41.94209867802086" lon="14.943373725956146"><ele>208.0</ele><time>2026-03-22T11:21:51Z</time></trkpt><trkpt lat="41.94230577793441" lon="14.943277472835122"><ele>208.0</ele><time>2026-03-22T11:21:52Z</time></trkpt><trkpt lat="41.942508926723235" lon="14.943181739890822"><ele>208.0</ele><time>2026-03-22T11:21:53Z</time></trkpt><trkpt lat="41.94270809938218" lon="14.943082720636468"><ele>208.0</ele><time>2026-03-22T11:21:54Z</time></trkpt><trkpt lat="41.942902813552855" lon="14.942993662074887"><ele>207.0</ele><time>2026-03-22T11:21:55Z</time></trkpt><trkpt lat="41.94309580141576" lon="14.942918841074185"><ele>206.0</ele><time>2026-03-22T11:21:56Z</time></trkpt><trkpt lat="41.94329386484109" lon="14.942863464253879"><ele>205.0</ele><time>2026-03-22T11:21:57Z</time></trkpt><trkpt lat="41.94350111084571" lon="14.942823670194477"><ele>204.0</ele><time>2026-03-22T11:21:58Z</time></trkpt><trkpt lat="41.94370887304334" lon="14.94279125396963"><ele>203.0</ele><time>2026-03-22T11:21:59Z</time></trkpt><trkpt lat="41.943912087411874" lon="14.942753429364183"><ele>202.0</ele><time>2026-03-22T11:22:00Z</time></trkpt><trkpt lat="41.94410866257906" lon="14.942717807422703"><ele>202.0</ele><time>2026-03-22T11:22:01Z</time></trkpt><trkpt lat="41.94430648000038" lon="14.942678530056234"><ele>202.0</ele><time>2026-03-22T11:22:02Z</time></trkpt><trkpt lat="41.94450331279926" lon="14.942644223547372"><ele>202.0</ele><time>2026-03-22T11:22:03Z</time></trkpt><trkpt lat="41.94469931162255" lon="14.942610221492856"><ele>202.0</ele><time>2026-03-22T11:22:04Z</time></trkpt><trkpt lat="41.944926988020754" lon="14.942601154768997"><ele>202.0</ele><time>2026-03-22T11:22:05Z</time></trkpt><trkpt lat="41.945074439088515" lon="14.942539025539272"><ele>202.0</ele><time>2026-03-22T11:22:06Z</time></trkpt><trkpt lat="41.94526507673778" lon="14.942499208364996"><ele>202.66666666666666</ele><time>2026-03-22T11:22:07Z</time></trkpt><trkpt lat="41.94545322484379" lon="14.942468897010711"><ele>203.33333333333331</ele><time>2026-03-22T11:22:08Z</time></trkpt><trkpt lat="41.945628040874176" lon="14.942436350765126"><ele>204.0</ele><time>2026-03-22T11:22:09Z</time></trkpt><trkpt lat="41.945806680789524" lon="14.942412352726006"><ele>203.0</ele><time>2026-03-22T11:22:10Z</time></trkpt><trkpt lat="41.94598766361706" lon="14.942424836171458"><ele>202.0</ele><time>2026-03-22T11:22:11Z</time></trkpt><trkpt lat="41.94617071070461" lon="14.942458573971102"><ele>201.0</ele><time>2026-03-22T11:22:12Z</time></trkpt><trkpt lat="41.946361189082566" lon="14.94248662330646"><ele>201.0</ele><time>2026-03-22T11:22:13Z</time></trkpt><trkpt lat="41.946553957968106" lon="14.94252004546653"><ele>201.0</ele><time>2026-03-22T11:22:14Z</time></trkpt><trkpt lat="41.94674950651147" lon="14.94254938367969"><ele>201.0</ele><time>2026-03-22T11:22:15Z</time></trkpt><trkpt lat="41.9469428262976" lon="14.942575611724141"><ele>200.0</ele><time>2026-03-22T11:22:16Z</time></trkpt><trkpt lat="41.94713421116547" lon="14.942604470709448"><ele>199.0</ele><time>2026-03-22T11:22:17Z</time></trkpt><trkpt lat="41.94731682528305" lon="14.94263153517641"><ele>198.0</ele><time>2026-03-22T11:22:18Z</time></trkpt><trkpt lat="41.947500232003044" lon="14.942659466189578"><ele>197.33333333333331</ele><time>2026-03-22T11:22:19Z</time></trkpt><trkpt lat="41.947682145263386" lon="14.942686455635627"><ele>196.66666666666666</ele><time>2026-03-22T11:22:20Z</time></trkpt><trkpt lat="41.94785454787748" lon="14.942708518673966"><ele>196.0</ele><time>2026-03-22T11:22:21Z</time></trkpt><trkpt lat="41.94803399344131" lon="14.942713414327056"><ele>196.0</ele><time>2026-03-22T11:22:22Z</time></trkpt><trkpt lat="41.94821171861662" lon="14.942689587382523"><ele>196.0</ele><time>2026-03-22T11:22:23Z</time></trkpt><trkpt lat="41.94839187247626" lon="14.942632412616039"><ele>196.0</ele><time>2026-03-22T11:22:24Z</time></trkpt><trkpt lat="41.94857144156628" lon="14.942563994271609"><ele>195.66666666666666</ele><time>2026-03-22T11:22:25Z</time></trkpt><trkpt lat="41.94874889133549" lon="14.942491173586538"><ele>195.33333333333331</ele><time>2026-03-22T11:22:26Z</time></trkpt><trkpt lat="41.94893399201221" lon="14.942430161958951"><ele>195.0</ele><time>2026-03-22T11:22:27Z</time></trkpt><trkpt lat="41.9491166997523" lon="14.942371094017908"><ele>194.33333333333331</ele><time>2026-03-22T11:22:28Z</time></trkpt><trkpt lat="41.94928969838146" lon="14.942318684883377"><ele>193.66666666666666</ele><time>2026-03-22T11:22:29Z</time></trkpt><trkpt lat="41.94946904360347" lon="14.942281554121855"><ele>193.0</ele><time>2026-03-22T11:22:30Z</time></trkpt><trkpt lat="41.94964933528001" lon="14.94226183613038"><ele>193.0</ele><time>2026-03-22T11:22:31Z</time></trkpt><trkpt lat="41.94982595953437" lon="14.942246254986642"><ele>193.0</ele><time>2026-03-22T11:22:32Z</time></trkpt><trkpt lat="41.95000434931014" lon="14.942224897786014"><ele>193.0</ele><time>2026-03-22T11:22:33Z</time></trkpt><trkpt lat="41.95018281420776" lon="14.942199804801767"><ele>191.33333333333331</ele><time>2026-03-22T11:22:34Z</time></trkpt><trkpt lat="41.95036404808157" lon="14.942178553327931"><ele>189.66666666666666</ele><time>2026-03-22T11:22:35Z</time></trkpt><trkpt lat="41.950542640314886" lon="14.942161126827616"><ele>188.0</ele><time>2026-03-22T11:22:36Z</time></trkpt><trkpt lat="41.95071855258651" lon="14.942164462644543"><ele>189.0</ele><time>2026-03-22T11:22:37Z</time></trkpt><trkpt lat="41.95089099506221" lon="14.94223636260762"><ele>190.0</ele><time>2026-03-22T11:22:38Z</time></trkpt><trkpt lat="41.95106987677277" lon="14.942295849119008"><ele>191.0</ele><time>2026-03-22T11:22:39Z</time></trkpt><trkpt lat="41.95125610587364" lon="14.942353955988935"><ele>191.0</ele><time>2026-03-22T11:22:40Z</time></trkpt><trkpt lat="41.95144423454701" lon="14.942423355369275"><ele>191.0</ele><time>2026-03-22T11:22:41Z</time></trkpt><trkpt lat="41.95162830643128" lon="14.942486587493086"><ele>191.0</ele><time>2026-03-22T11:22:42Z</time></trkpt><trkpt lat="41.951811789998516" lon="14.942547685622158"><ele>189.66666666666666</ele><time>2026-03-22T11:22:43Z</time></trkpt><trkpt lat="41.95198633970966" lon="14.94261087734532"><ele>188.33333333333334</ele><time>2026-03-22T11:22:44Z</time></trkpt><trkpt lat="41.952149084705816" lon="14.94270756134311"><ele>187.0</ele><time>2026-03-22T11:22:45Z</time></trkpt><trkpt lat="41.952299526331394" lon="14.942813231016958"><ele>187.0</ele><time>2026-03-22T11:22:46Z</time></trkpt><trkpt lat="41.95245142314713" lon="14.942913813277118"><ele>187.0</ele><time>2026-03-22T11:22:47Z</time></trkpt><trkpt lat="41.95259546993106" lon="14.943041312645635"><ele>187.0</ele><time>2026-03-22T11:22:48Z</time></trkpt><trkpt lat="41.95273365690276" lon="14.943160708026996"><ele>187.0</ele><time>2026-03-22T11:22:49Z</time></trkpt><trkpt lat="41.952892051065994" lon="14.943263341324206"><ele>187.0</ele><time>2026-03-22T11:22:50Z</time></trkpt><trkpt lat="41.953073413188996" lon="14.94332748412999"><ele>187.0</ele><time>2026-03-22T11:22:51Z</time></trkpt><trkpt lat="41.95317934816781" lon="14.943403616213256"><ele>185.0</ele><time>2026-03-22T11:22:52Z</time></trkpt><trkpt lat="41.953357367339294" lon="14.943417609851986"><ele>183.0</ele><time>2026-03-22T11:22:53Z</time></trkpt><trkpt lat="41.95354441903567" lon="14.943408919197044"><ele>181.0</ele><time>2026-03-22T11:22:54Z</time></trkpt><trkpt lat="41.95374093141729" lon="14.943423472009435"><ele>181.0</ele><time>2026-03-22T11:22:55Z</time></trkpt><trkpt lat="41.953931364137354" lon="14.943444181466258"><ele>181.0</ele><time>2026-03-22T11:22:56Z</time></trkpt><trkpt lat="41.95412154351615" lon="14.943470489230222"><ele>181.0</ele><time>2026-03-22T11:22:57Z</time></trkpt><trkpt lat="41.95430454113715" lon="14.943501861741728"><ele>182.0</ele><time>2026-03-22T11:22:58Z</time></trkpt><trkpt lat="41.954477812430035" lon="14.943567936397782"><ele>183.0</ele><time>2026-03-22T11:22:59Z</time></trkpt><trkpt lat="41.954646824990576" lon="14.943646233988876"><ele>184.0</ele><time>2026-03-22T11:23:00Z</time></trkpt><trkpt lat="41.95482637053832" lon="14.943714176301448"><ele>184.0</ele><time>2026-03-22T11:23:01Z</time></trkpt><trkpt lat="41.95501032916859" lon="14.943797591224907"><ele>184.0</ele><time>2026-03-22T11:23:02Z</time></trkpt><trkpt lat="41.9551920307462" lon="14.943880435420796"><ele>184.0</ele><time>2026-03-22T11:23:03Z</time></trkpt><trkpt lat="41.95537655574877" lon="14.943965498931412"><ele>184.0</ele><time>2026-03-22T11:23:04Z</time></trkpt><trkpt lat="41.955559288933046" lon="14.944044538518002"><ele>184.0</ele><time>2026-03-22T11:23:05Z</time></trkpt><trkpt lat="41.955744763493065" lon="14.944123842600757"><ele>184.0</ele><time>2026-03-22T11:23:06Z</time></trkpt><trkpt lat="41.9559241600778" lon="14.944209751586303"><ele>184.0</ele><time>2026-03-22T11:23:07Z</time></trkpt><trkpt lat="41.95610618095871" lon="14.944287819734775"><ele>184.0</ele><time>2026-03-22T11:23:08Z</time></trkpt><trkpt lat="41.9562850169154" lon="14.94436273804609"><ele>184.0</ele><time>2026-03-22T11:23:09Z</time></trkpt><trkpt lat="41.95646620292115" lon="14.944440479290671"><ele>184.0</ele><time>2026-03-22T11:23:10Z</time></trkpt><trkpt lat="41.956652168222405" lon="14.944520686687532"><ele>184.0</ele><time>2026-03-22T11:23:11Z</time></trkpt><trkpt lat="41.956826974326624" lon="14.944595465206714"><ele>184.0</ele><time>2026-03-22T11:23:12Z</time></trkpt><trkpt lat="41.956987705803336" lon="14.944673880126043"><ele>184.0</ele><time>2026-03-22T11:23:13Z</time></trkpt><trkpt lat="41.95713229580109" lon="14.944732321942286"><ele>184.0</ele><time>2026-03-22T11:23:14Z</time></trkpt><trkpt lat="41.95727856622741" lon="14.94475999428104"><ele>184.0</ele><time>2026-03-22T11:23:15Z</time></trkpt><trkpt lat="41.957425082791765" lon="14.944742554176944"><ele>184.0</ele><time>2026-03-22T11:23:16Z</time></trkpt><trkpt lat="41.95758864259973" lon="14.944682521910078"><ele>183.66666666666669</ele><time>2026-03-22T11:23:17Z</time></trkpt><trkpt lat="41.95776015879438" lon="14.94461461113938"><ele>183.33333333333334</ele><time>2026-03-22T11:23:18Z</time></trkpt><trkpt lat="41.95794120851722" lon="14.944557631042713"><ele>183.0</ele><time>2026-03-22T11:23:19Z</time></trkpt><trkpt lat="41.95810714009536" lon="14.944507225568236"><ele>183.0</ele><time>2026-03-22T11:23:20Z</time></trkpt><trkpt lat="41.958275340339334" lon="14.944499743861199"><ele>183.0</ele><time>2026-03-22T11:23:21Z</time></trkpt><trkpt lat="41.95842695594354" lon="14.944420652872793"><ele>183.0</ele><time>2026-03-22T11:23:22Z</time></trkpt><trkpt lat="41.9585852081748" lon="14.944367418148119"><ele>182.33333333333334</ele><time>2026-03-22T11:23:23Z</time></trkpt><trkpt lat="41.95874749267206" lon="14.944320939149216"><ele>181.66666666666669</ele><time>2026-03-22T11:23:24Z</time></trkpt><trkpt lat="41.958913771078194" lon="14.94426916372331"><ele>181.0</ele><time>2026-03-22T11:23:25Z</time></trkpt><trkpt lat="41.95924832268798" lon="14.944176492289083"><ele>181.0</ele><time>2026-03-22T11:23:27Z</time></trkpt><trkpt lat="41.959414831320075" lon="14.944133524327256"><ele>181.0</ele><time>2026-03-22T11:23:28Z</time></trkpt><trkpt lat="41.95958814124377" lon="14.944080747730919"><ele>181.0</ele><time>2026-03-22T11:23:29Z</time></trkpt><trkpt lat="41.959761146403295" lon="14.944032495104178"><ele>181.0</ele><time>2026-03-22T11:23:30Z</time></trkpt><trkpt lat="41.95993157661621" lon="14.943983863801275"><ele>181.0</ele><time>2026-03-22T11:23:31Z</time></trkpt><trkpt lat="41.96009964808129" lon="14.943933968878799"><ele>181.0</ele><time>2026-03-22T11:23:32Z</time></trkpt><trkpt lat="41.96026181465791" lon="14.943879577537746"><ele>180.5</ele><time>2026-03-22T11:23:33Z</time></trkpt><trkpt lat="41.960418481737534" lon="14.94383179235392"><ele>180.0</ele><time>2026-03-22T11:23:34Z</time></trkpt><trkpt lat="41.960567240984474" lon="14.94379101574317"><ele>179.5</ele><time>2026-03-22T11:23:35Z</time></trkpt><trkpt lat="41.96069121066114" lon="14.943754281041933"><ele>179.0</ele><time>2026-03-22T11:23:36Z</time></trkpt><trkpt lat="41.96079757732554" lon="14.943720639856794"><ele>178.5</ele><time>2026-03-22T11:23:37Z</time></trkpt><trkpt lat="41.96090295825807" lon="14.943696828981514"><ele>178.0</ele><time>2026-03-22T11:23:38Z</time></trkpt><trkpt lat="41.96098554913128" lon="14.943672585036834"><ele>177.5</ele><time>2026-03-22T11:23:39Z</time></trkpt><trkpt lat="41.96106884402887" lon="14.943661736765668"><ele>177.0</ele><time>2026-03-22T11:23:40Z</time></trkpt><trkpt lat="41.961149219372906" lon="14.943664487532097"><ele>176.5</ele><time>2026-03-22T11:23:41Z</time></trkpt><trkpt lat="41.961226037356184" lon="14.943672648547762"><ele>176.0</ele><time>2026-03-22T11:23:42Z</time></trkpt><trkpt lat="41.96130406237971" lon="14.94365370934385"><ele>176.0</ele><time>2026-03-22T11:23:43Z</time></trkpt><trkpt lat="41.96140148678499" lon="14.943586140816498"><ele>176.0</ele><time>2026-03-22T11:23:44Z</time></trkpt><trkpt lat="41.96153413722586" lon="14.943530121511403"><ele>176.0</ele><time>2026-03-22T11:23:45Z</time></trkpt><trkpt lat="41.961687775619374" lon="14.94348869228168"><ele>176.0</ele><time>2026-03-22T11:23:46Z</time></trkpt><trkpt lat="41.96182602632926" lon="14.943443650710767"><ele>176.0</ele><time>2026-03-22T11:23:47Z</time></trkpt><trkpt lat="41.96196957823098" lon="14.943394123837919"><ele>176.0</ele><time>2026-03-22T11:23:48Z</time></trkpt><trkpt lat="41.962119827591785" lon="14.94334527538457"><ele>176.0</ele><time>2026-03-22T11:23:49Z</time></trkpt><trkpt lat="41.96227794760073" lon="14.943303006886318"><ele>174.66666666666666</ele><time>2026-03-22T11:23:50Z</time></trkpt><trkpt lat="41.96243766740237" lon="14.943258239410214"><ele>173.33333333333334</ele><time>2026-03-22T11:23:51Z</time></trkpt><trkpt lat="41.96258923965162" lon="14.943212954021632"><ele>172.0</ele><time>2026-03-22T11:23:52Z</time></trkpt><trkpt lat="41.962729477419764" lon="14.943172683993723"><ele>171.0</ele><time>2026-03-22T11:23:53Z</time></trkpt><trkpt lat="41.96287229830747" lon="14.943136766514188"><ele>170.0</ele><time>2026-03-22T11:23:54Z</time></trkpt><trkpt lat="41.963020669926394" lon="14.943103455625439"><ele>169.0</ele><time>2026-03-22T11:23:55Z</time></trkpt><trkpt lat="41.963162170312145" lon="14.943058354725391"><ele>168.0</ele><time>2026-03-22T11:23:56Z</time></trkpt><trkpt lat="41.96329838537662" lon="14.943015724466418"><ele>166.5</ele><time>2026-03-22T11:23:57Z</time></trkpt><trkpt lat="41.963422398180576" lon="14.942983917702243"><ele>165.0</ele><time>2026-03-22T11:23:58Z</time></trkpt><trkpt lat="41.96353632032597" lon="14.942969426735289"><ele>163.5</ele><time>2026-03-22T11:23:59Z</time></trkpt><trkpt lat="41.96364559878514" lon="14.942965749040098"><ele>162.0</ele><time>2026-03-22T11:24:00Z</time></trkpt><trkpt lat="41.96374734354149" lon="14.942961907854468"><ele>162.0</ele><time>2026-03-22T11:24:01Z</time></trkpt><trkpt lat="41.963845293279626" lon="14.942965084778095"><ele>162.0</ele><time>2026-03-22T11:24:02Z</time></trkpt><trkpt lat="41.963936633348354" lon="14.942983602360952"><ele>162.0</ele><time>2026-03-22T11:24:03Z</time></trkpt><trkpt lat="41.96403879198644" lon="14.94299753308019"><ele>162.0</ele><time>2026-03-22T11:24:04Z</time></trkpt><trkpt lat="41.96416311378064" lon="14.942975712771668"><ele>162.0</ele><time>2026-03-22T11:24:05Z</time></trkpt><trkpt lat="41.964304329932254" lon="14.94296574459139"><ele>161.0</ele><time>2026-03-22T11:24:06Z</time></trkpt><trkpt lat="41.96445389730822" lon="14.942969850041834"><ele>160.0</ele><time>2026-03-22T11:24:07Z</time></trkpt><trkpt lat="41.96459768756547" lon="14.94297152334513"><ele>159.0</ele><time>2026-03-22T11:24:08Z</time></trkpt><trkpt lat="41.964753165636075" lon="14.94297449463877"><ele>158.0</ele><time>2026-03-22T11:24:09Z</time></trkpt><trkpt lat="41.96491127697381" lon="14.943000669889539"><ele>159.0</ele><time>2026-03-22T11:24:10Z</time></trkpt><trkpt lat="41.96508134210146" lon="14.94305196136333"><ele>160.0</ele><time>2026-03-22T11:24:11Z</time></trkpt><trkpt lat="41.96525800088243" lon="14.943121987956859"><ele>161.0</ele><time>2026-03-22T11:24:12Z</time></trkpt><trkpt lat="41.96543324448455" lon="14.943188648759309"><ele>161.0</ele><time>2026-03-22T11:24:13Z</time></trkpt><trkpt lat="41.96561499571767" lon="14.9432496046327"><ele>161.0</ele><time>2026-03-22T11:24:14Z</time></trkpt><trkpt lat="41.96579754893027" lon="14.943292528290096"><ele>161.0</ele><time>2026-03-22T11:24:15Z</time></trkpt><trkpt lat="41.96598110697789" lon="14.943325037173608"><ele>161.33333333333331</ele><time>2026-03-22T11:24:16Z</time></trkpt><trkpt lat="41.96616803074287" lon="14.94335594153067"><ele>161.66666666666666</ele><time>2026-03-22T11:24:17Z</time></trkpt><trkpt lat="41.966358315893785" lon="14.943389622626523"><ele>162.0</ele><time>2026-03-22T11:24:18Z</time></trkpt><trkpt lat="41.96655153283637" lon="14.94342712539562"><ele>158.33333333333334</ele><time>2026-03-22T11:24:19Z</time></trkpt><trkpt lat="41.96674369439202" lon="14.9434616085459"><ele>154.66666666666669</ele><time>2026-03-22T11:24:20Z</time></trkpt><trkpt lat="41.966926724477844" lon="14.943496668980652"><ele>151.0</ele><time>2026-03-22T11:24:21Z</time></trkpt><trkpt lat="41.96711162403736" lon="14.943526962592912"><ele>151.0</ele><time>2026-03-22T11:24:22Z</time></trkpt><trkpt lat="41.96729473010076" lon="14.943563004865066"><ele>151.0</ele><time>2026-03-22T11:24:23Z</time></trkpt><trkpt lat="41.96745960233018" lon="14.943589109057886"><ele>151.0</ele><time>2026-03-22T11:24:24Z</time></trkpt><trkpt lat="41.96764449385565" lon="14.943631219479013"><ele>152.66666666666669</ele><time>2026-03-22T11:24:25Z</time></trkpt><trkpt lat="41.967829398069775" lon="14.943664306082132"><ele>154.33333333333334</ele><time>2026-03-22T11:24:26Z</time></trkpt><trkpt lat="41.968013213216445" lon="14.943696875506731"><ele>156.0</ele><time>2026-03-22T11:24:27Z</time></trkpt><trkpt lat="41.96819600138062" lon="14.943730708542327"><ele>157.33333333333334</ele><time>2026-03-22T11:24:28Z</time></trkpt><trkpt lat="41.96837360789888" lon="14.943767137770074"><ele>158.66666666666669</ele><time>2026-03-22T11:24:29Z</time></trkpt><trkpt lat="41.968542776128004" lon="14.943808359675542"><ele>160.0</ele><time>2026-03-22T11:24:30Z</time></trkpt><trkpt lat="41.968743416952194" lon="14.943836891387374"><ele>160.0</ele><time>2026-03-22T11:24:31Z</time></trkpt><trkpt lat="41.968928919178346" lon="14.943868122559097"><ele>160.0</ele><time>2026-03-22T11:24:32Z</time></trkpt><trkpt lat="41.969102380634574" lon="14.9438795334165"><ele>160.0</ele><time>2026-03-22T11:24:33Z</time></trkpt><trkpt lat="41.96927738103769" lon="14.943879620458432"><ele>161.0</ele><time>2026-03-22T11:24:34Z</time></trkpt><trkpt lat="41.96945231259906" lon="14.943860209721338"><ele>162.0</ele><time>2026-03-22T11:24:35Z</time></trkpt><trkpt lat="41.969626801924576" lon="14.943841544920547"><ele>163.0</ele><time>2026-03-22T11:24:36Z</time></trkpt><trkpt lat="41.96979539039445" lon="14.943845921579094"><ele>163.0</ele><time>2026-03-22T11:24:37Z</time></trkpt><trkpt lat="41.96995773430935" lon="14.943851738832205"><ele>163.0</ele><time>2026-03-22T11:24:38Z</time></trkpt><trkpt lat="41.970112096395894" lon="14.943864569850293"><ele>163.0</ele><time>2026-03-22T11:24:39Z</time></trkpt><trkpt lat="41.9702620391504" lon="14.943893744039254"><ele>162.5</ele><time>2026-03-22T11:24:40Z</time></trkpt><trkpt lat="41.970405317191926" lon="14.94392105577247"><ele>162.0</ele><time>2026-03-22T11:24:41Z</time></trkpt><trkpt lat="41.970538814614784" lon="14.943941940654781"><ele>161.5</ele><time>2026-03-22T11:24:42Z</time></trkpt><trkpt lat="41.97066720292911" lon="14.943974424224034"><ele>161.0</ele><time>2026-03-22T11:24:43Z</time></trkpt><trkpt lat="41.97079573680705" lon="14.944010874774403"><ele>160.75</ele><time>2026-03-22T11:24:44Z</time></trkpt><trkpt lat="41.97092901548504" lon="14.944078160539517"><ele>160.5</ele><time>2026-03-22T11:24:45Z</time></trkpt><trkpt lat="41.971059565151165" lon="14.944173332853127"><ele>160.25</ele><time>2026-03-22T11:24:46Z</time></trkpt><trkpt lat="41.971193509673114" lon="14.944278650790068"><ele>160.0</ele><time>2026-03-22T11:24:47Z</time></trkpt><trkpt lat="41.97134243074819" lon="14.944407637948997"><ele>159.33333333333334</ele><time>2026-03-22T11:24:48Z</time></trkpt><trkpt lat="41.97151850689948" lon="14.94454951021057"><ele>158.66666666666666</ele><time>2026-03-22T11:24:49Z</time></trkpt><trkpt lat="41.97168402331007" lon="14.944683644220207"><ele>158.0</ele><time>2026-03-22T11:24:50Z</time></trkpt><trkpt lat="41.97186441149815" lon="14.94483145819305"><ele>158.0</ele><time>2026-03-22T11:24:51Z</time></trkpt><trkpt lat="41.97203300590153" lon="14.944972789130116"><ele>158.0</ele><time>2026-03-22T11:24:52Z</time></trkpt><trkpt lat="41.972184657094544" lon="14.945092503411516"><ele>158.0</ele><time>2026-03-22T11:24:53Z</time></trkpt><trkpt lat="41.97233530475388" lon="14.945200979421237"><ele>157.0</ele><time>2026-03-22T11:24:54Z</time></trkpt><trkpt lat="41.972481987529186" lon="14.945290236733559"><ele>156.0</ele><time>2026-03-22T11:24:55Z</time></trkpt><trkpt lat="41.972635529643014" lon="14.945361608658216"><ele>155.0</ele><time>2026-03-22T11:24:56Z</time></trkpt><trkpt lat="41.972795784576356" lon="14.945429540956612"><ele>155.0</ele><time>2026-03-22T11:24:57Z</time></trkpt><trkpt lat="41.97295638362716" lon="14.945499716741198"><ele>155.0</ele><time>2026-03-22T11:24:58Z</time></trkpt><trkpt lat="41.97311288493829" lon="14.945572812367299"><ele>155.0</ele><time>2026-03-22T11:24:59Z</time></trkpt><trkpt lat="41.97326358728331" lon="14.94563448623963"><ele>154.0</ele><time>2026-03-22T11:25:00Z</time></trkpt><trkpt lat="41.973399187673444" lon="14.94569132995475"><ele>153.0</ele><time>2026-03-22T11:25:01Z</time></trkpt><trkpt lat="41.97353698753536" lon="14.945731547171317"><ele>152.0</ele><time>2026-03-22T11:25:02Z</time></trkpt><trkpt lat="41.97369153378663" lon="14.94573536964198"><ele>151.0</ele><time>2026-03-22T11:25:03Z</time></trkpt><trkpt lat="41.97386890405623" lon="14.945696300872422"><ele>151.0</ele><time>2026-03-22T11:25:04Z</time></trkpt><trkpt lat="41.97405652335306" lon="14.945637372534463"><ele>151.0</ele><time>2026-03-22T11:25:05Z</time></trkpt><trkpt lat="41.974242455174185" lon="14.945569435241113"><ele>151.0</ele><time>2026-03-22T11:25:06Z</time></trkpt><trkpt lat="41.974410353396266" lon="14.945514179283315"><ele>150.33333333333334</ele><time>2026-03-22T11:25:07Z</time></trkpt><trkpt lat="41.97456701293049" lon="14.945467824861218"><ele>149.66666666666666</ele><time>2026-03-22T11:25:08Z</time></trkpt><trkpt lat="41.97471779528245" lon="14.94541384841675"><ele>149.0</ele><time>2026-03-22T11:25:09Z</time></trkpt><trkpt lat="41.9748539907574" lon="14.945374341401575"><ele>149.0</ele><time>2026-03-22T11:25:10Z</time></trkpt><trkpt lat="41.97498586632888" lon="14.94537178253348"><ele>149.0</ele><time>2026-03-22T11:25:11Z</time></trkpt><trkpt lat="41.975112127502" lon="14.945461049091849"><ele>149.0</ele><time>2026-03-22T11:25:12Z</time></trkpt><trkpt lat="41.9752421540193" lon="14.945559169590528"><ele>149.0</ele><time>2026-03-22T11:25:13Z</time></trkpt><trkpt lat="41.97531483834053" lon="14.945623768538356"><ele>149.33333333333331</ele><time>2026-03-22T11:25:14Z</time></trkpt><trkpt lat="41.97542117673069" lon="14.945769750335998"><ele>149.66666666666666</ele><time>2026-03-22T11:25:15Z</time></trkpt><trkpt lat="41.975521896312095" lon="14.945931457280404"><ele>150.0</ele><time>2026-03-22T11:25:16Z</time></trkpt><trkpt lat="41.975616780480614" lon="14.946110685337636"><ele>147.66666666666666</ele><time>2026-03-22T11:25:17Z</time></trkpt><trkpt lat="41.975702634438385" lon="14.946312730805182"><ele>145.33333333333331</ele><time>2026-03-22T11:25:18Z</time></trkpt><trkpt lat="41.9758191596513" lon="14.946498607311856"><ele>143.0</ele><time>2026-03-22T11:25:19Z</time></trkpt><trkpt lat="41.975903618308976" lon="14.946722551601185"><ele>142.0</ele><time>2026-03-22T11:25:20Z</time></trkpt><trkpt lat="41.97598896358184" lon="14.946951480496269"><ele>141.0</ele><time>2026-03-22T11:25:21Z</time></trkpt><trkpt lat="41.9760735006537" lon="14.947182241288278"><ele>140.0</ele><time>2026-03-22T11:25:22Z</time></trkpt><trkpt lat="41.97613232674799" lon="14.947429396898023"><ele>139.66666666666666</ele><time>2026-03-22T11:25:23Z</time></trkpt><trkpt lat="41.97621835920363" lon="14.947648929385423"><ele>139.33333333333334</ele><time>2026-03-22T11:25:24Z</time></trkpt><trkpt lat="41.97630349763344" lon="14.947859523876046"><ele>139.0</ele><time>2026-03-22T11:25:25Z</time></trkpt><trkpt lat="41.97638566001571" lon="14.948055996680514"><ele>139.0</ele><time>2026-03-22T11:25:26Z</time></trkpt><trkpt lat="41.97647490699351" lon="14.94824510292634"><ele>139.0</ele><time>2026-03-22T11:25:27Z</time></trkpt><trkpt lat="41.976578506789664" lon="14.948445953486017"><ele>139.0</ele><time>2026-03-22T11:25:28Z</time></trkpt><trkpt lat="41.9766909984092" lon="14.948649199840764"><ele>137.0</ele><time>2026-03-22T11:25:29Z</time></trkpt><trkpt lat="41.97681427443381" lon="14.948836502596727"><ele>135.0</ele><time>2026-03-22T11:25:30Z</time></trkpt><trkpt lat="41.97690847649612" lon="14.94905106349552"><ele>133.0</ele><time>2026-03-22T11:25:31Z</time></trkpt><trkpt lat="41.9770033095345" lon="14.949244035877678"><ele>131.33333333333334</ele><time>2026-03-22T11:25:32Z</time></trkpt><trkpt lat="41.977116690617976" lon="14.94942223224241"><ele>129.66666666666666</ele><time>2026-03-22T11:25:33Z</time></trkpt><trkpt lat="41.97718368662911" lon="14.949622390238057"><ele>128.0</ele><time>2026-03-22T11:25:34Z</time></trkpt><trkpt lat="41.977240278030884" lon="14.949830269098562"><ele>128.0</ele><time>2026-03-22T11:25:35Z</time></trkpt><trkpt lat="41.97727741095854" lon="14.950022607448785"><ele>128.0</ele><time>2026-03-22T11:25:36Z</time></trkpt><trkpt lat="41.97732809589397" lon="14.950210033757902"><ele>128.0</ele><time>2026-03-22T11:25:37Z</time></trkpt><trkpt lat="41.97736204019617" lon="14.950402701131425"><ele>128.0</ele><time>2026-03-22T11:25:38Z</time></trkpt><trkpt lat="41.97743443538528" lon="14.950570815141829"><ele>125.66666666666666</ele><time>2026-03-22T11:25:39Z</time></trkpt><trkpt lat="41.97754267309709" lon="14.950715429239544"><ele>123.33333333333334</ele><time>2026-03-22T11:25:40Z</time></trkpt><trkpt lat="41.97765164815473" lon="14.950854187954151"><ele>121.0</ele><time>2026-03-22T11:25:41Z</time></trkpt><trkpt lat="41.97778412746486" lon="14.950974991250026"><ele>120.0</ele><time>2026-03-22T11:25:42Z</time></trkpt><trkpt lat="41.97790778866137" lon="14.951127304506063"><ele>119.0</ele><time>2026-03-22T11:25:43Z</time></trkpt><trkpt lat="41.978042679282446" lon="14.951267605390193"><ele>118.0</ele><time>2026-03-22T11:25:44Z</time></trkpt><trkpt lat="41.9781769757477" lon="14.951411706026379"><ele>118.0</ele><time>2026-03-22T11:25:45Z</time></trkpt><trkpt lat="41.97831594098833" lon="14.951550195817527"><ele>118.0</ele><time>2026-03-22T11:25:46Z</time></trkpt><trkpt lat="41.97844040382968" lon="14.951723514329547"><ele>118.0</ele><time>2026-03-22T11:25:47Z</time></trkpt><trkpt lat="41.97855705880646" lon="14.951907119695399"><ele>117.33333333333334</ele><time>2026-03-22T11:25:48Z</time></trkpt><trkpt lat="41.97865365943229" lon="14.952106927782111"><ele>116.66666666666666</ele><time>2026-03-22T11:25:49Z</time></trkpt><trkpt lat="41.97876432538956" lon="14.952295957378883"><ele>116.0</ele><time>2026-03-22T11:25:50Z</time></trkpt><trkpt lat="41.978875840233954" lon="14.952477218842008"><ele>114.33333333333333</ele><time>2026-03-22T11:25:51Z</time></trkpt><trkpt lat="41.97900340162867" lon="14.952645883056832"><ele>112.66666666666666</ele><time>2026-03-22T11:25:52Z</time></trkpt><trkpt lat="41.979143880398084" lon="14.95280849678877"><ele>111.0</ele><time>2026-03-22T11:25:53Z</time></trkpt><trkpt lat="41.97929138238981" lon="14.9529722467989"><ele>111.0</ele><time>2026-03-22T11:25:54Z</time></trkpt><trkpt lat="41.97944887269292" lon="14.953126907151063"><ele>111.0</ele><time>2026-03-22T11:25:55Z</time></trkpt><trkpt lat="41.97961231699802" lon="14.953283461801547"><ele>111.0</ele><time>2026-03-22T11:25:56Z</time></trkpt><trkpt lat="41.97977636508037" lon="14.953447841178843"><ele>109.66666666666666</ele><time>2026-03-22T11:25:57Z</time></trkpt><trkpt lat="41.979944941805485" lon="14.953611632474763"><ele>108.33333333333333</ele><time>2026-03-22T11:25:58Z</time></trkpt><trkpt lat="41.98011782555277" lon="14.953773974158297"><ele>107.0</ele><time>2026-03-22T11:25:59Z</time></trkpt><trkpt lat="41.9802956537273" lon="14.953934523732821"><ele>107.0</ele><time>2026-03-22T11:26:00Z</time></trkpt><trkpt lat="41.98047696567036" lon="14.954092926002897"><ele>107.0</ele><time>2026-03-22T11:26:01Z</time></trkpt><trkpt lat="41.98065805784993" lon="14.95424763040202"><ele>107.0</ele><time>2026-03-22T11:26:02Z</time></trkpt><trkpt lat="41.98082469043919" lon="14.954396870764773"><ele>107.33333333333333</ele><time>2026-03-22T11:26:03Z</time></trkpt><trkpt lat="41.98098700596368" lon="14.954544075599847"><ele>107.66666666666666</ele><time>2026-03-22T11:26:04Z</time></trkpt><trkpt lat="41.9811345137401" lon="14.954699215170313"><ele>108.0</ele><time>2026-03-22T11:26:05Z</time></trkpt><trkpt lat="41.981257128438145" lon="14.954890181042863"><ele>106.33333333333334</ele><time>2026-03-22T11:26:06Z</time></trkpt><trkpt lat="41.9813857735007" lon="14.955082216047819"><ele>104.66666666666667</ele><time>2026-03-22T11:26:07Z</time></trkpt><trkpt lat="41.981509751876565" lon="14.955277432733338"><ele>103.0</ele><time>2026-03-22T11:26:08Z</time></trkpt><trkpt lat="41.98164223061467" lon="14.955468894521802"><ele>102.33333333333334</ele><time>2026-03-22T11:26:09Z</time></trkpt><trkpt lat="41.9817915631144" lon="14.955638517033506"><ele>101.66666666666666</ele><time>2026-03-22T11:26:10Z</time></trkpt><trkpt lat="41.98191051394217" lon="14.955849334541163"><ele>101.0</ele><time>2026-03-22T11:26:11Z</time></trkpt><trkpt lat="41.98208617482162" lon="14.955989754884273"><ele>101.0</ele><time>2026-03-22T11:26:12Z</time></trkpt><trkpt lat="41.982232283048354" lon="14.95616249638043"><ele>101.0</ele><time>2026-03-22T11:26:13Z</time></trkpt><trkpt lat="41.98236604248108" lon="14.956327704173367"><ele>101.0</ele><time>2026-03-22T11:26:14Z</time></trkpt><trkpt lat="41.98249274769017" lon="14.956481767033383"><ele>100.66666666666666</ele><time>2026-03-22T11:26:15Z</time></trkpt><trkpt lat="41.98262202074881" lon="14.956644666600322"><ele>100.33333333333334</ele><time>2026-03-22T11:26:16Z</time></trkpt><trkpt lat="41.9827509319338" lon="14.956818072935182"><ele>100.0</ele><time>2026-03-22T11:26:17Z</time></trkpt><trkpt lat="41.98288194965702" lon="14.956993111735377"><ele>100.0</ele><time>2026-03-22T11:26:18Z</time></trkpt><trkpt lat="41.98300752286868" lon="14.957157945928024"><ele>100.0</ele><time>2026-03-22T11:26:19Z</time></trkpt><trkpt lat="41.98313934584373" lon="14.957325420691078"><ele>100.0</ele><time>2026-03-22T11:26:20Z</time></trkpt><trkpt lat="41.98326967974881" lon="14.957486224773339"><ele>98.66666666666667</ele><time>2026-03-22T11:26:21Z</time></trkpt><trkpt lat="41.983388650260444" lon="14.957676658148165"><ele>97.33333333333334</ele><time>2026-03-22T11:26:22Z</time></trkpt><trkpt lat="41.9835086904667" lon="14.957862490471209"><ele>96.0</ele><time>2026-03-22T11:26:23Z</time></trkpt><trkpt lat="41.98361320660899" lon="14.958065366804894"><ele>96.0</ele><time>2026-03-22T11:26:24Z</time></trkpt><trkpt lat="41.98371311830312" lon="14.958274130574685"><ele>96.0</ele><time>2026-03-22T11:26:25Z</time></trkpt><trkpt lat="41.98380879540154" lon="14.958472835975991"><ele>96.0</ele><time>2026-03-22T11:26:26Z</time></trkpt><trkpt lat="41.98390298467576" lon="14.958668451303131"><ele>95.33333333333333</ele><time>2026-03-22T11:26:27Z</time></trkpt><trkpt lat="41.98398940356024" lon="14.95884793096402"><ele>94.66666666666666</ele><time>2026-03-22T11:26:28Z</time></trkpt><trkpt lat="41.98407385022213" lon="14.959020587267462"><ele>94.0</ele><time>2026-03-22T11:26:29Z</time></trkpt><trkpt lat="41.98416956991977" lon="14.95916591325095"><ele>92.66666666666666</ele><time>2026-03-22T11:26:30Z</time></trkpt><trkpt lat="41.984261851666574" lon="14.959320092923807"><ele>91.33333333333333</ele><time>2026-03-22T11:26:31Z</time></trkpt><trkpt lat="41.984382696299974" lon="14.959458742391693"><ele>90.0</ele><time>2026-03-22T11:26:32Z</time></trkpt><trkpt lat="41.98452867535702" lon="14.959584191577306"><ele>90.0</ele><time>2026-03-22T11:26:33Z</time></trkpt><trkpt lat="41.98468316914673" lon="14.959706529781663"><ele>90.0</ele><time>2026-03-22T11:26:34Z</time></trkpt><trkpt lat="41.98484412839054" lon="14.959840881141622"><ele>90.0</ele><time>2026-03-22T11:26:35Z</time></trkpt><trkpt lat="41.9849917236572" lon="14.959978093069013"><ele>87.66666666666667</ele><time>2026-03-22T11:26:36Z</time></trkpt><trkpt lat="41.98513263292031" lon="14.960109018402466"><ele>85.33333333333334</ele><time>2026-03-22T11:26:37Z</time></trkpt><trkpt lat="41.98527853177167" lon="14.960230269775384"><ele>83.0</ele><time>2026-03-22T11:26:38Z</time></trkpt><trkpt lat="41.9854238571645" lon="14.96035717141407"><ele>83.0</ele><time>2026-03-22T11:26:39Z</time></trkpt><trkpt lat="41.985566873121726" lon="14.960479813136885"><ele>83.0</ele><time>2026-03-22T11:26:40Z</time></trkpt><trkpt lat="41.985698231927344" lon="14.96061548436895"><ele>83.0</ele><time>2026-03-22T11:26:41Z</time></trkpt><trkpt lat="41.98579337220806" lon="14.960808528344279"><ele>82.5</ele><time>2026-03-22T11:26:42Z</time></trkpt><trkpt lat="41.98588847468148" lon="14.961014899730241"><ele>82.0</ele><time>2026-03-22T11:26:43Z</time></trkpt><trkpt lat="41.98596200799799" lon="14.961096666514075"><ele>81.5</ele><time>2026-03-22T11:26:44Z</time></trkpt><trkpt lat="41.98602711349455" lon="14.96130411056865"><ele>81.0</ele><time>2026-03-22T11:26:45Z</time></trkpt><trkpt lat="41.98609112782609" lon="14.961525180249973"><ele>81.75</ele><time>2026-03-22T11:26:46Z</time></trkpt><trkpt lat="41.9861484762312" lon="14.961726914269033"><ele>82.5</ele><time>2026-03-22T11:26:47Z</time></trkpt><trkpt lat="41.98617024294392" lon="14.961918953221414"><ele>83.25</ele><time>2026-03-22T11:26:48Z</time></trkpt><trkpt lat="41.98617226973516" lon="14.962111154768605"><ele>84.0</ele><time>2026-03-22T11:26:49Z</time></trkpt><trkpt lat="41.98616492022443" lon="14.962339644602261"><ele>84.33333333333333</ele><time>2026-03-22T11:26:50Z</time></trkpt><trkpt lat="41.98615418795936" lon="14.962567383282769"><ele>84.66666666666666</ele><time>2026-03-22T11:26:51Z</time></trkpt><trkpt lat="41.98614364129788" lon="14.962792163060396"><ele>85.0</ele><time>2026-03-22T11:26:52Z</time></trkpt><trkpt lat="41.98613280768402" lon="14.963023058518385"><ele>85.0</ele><time>2026-03-22T11:26:53Z</time></trkpt><trkpt lat="41.98612233148789" lon="14.96324633645768"><ele>85.0</ele><time>2026-03-22T11:26:54Z</time></trkpt><trkpt lat="41.98611547872379" lon="14.963460552634938"><ele>85.0</ele><time>2026-03-22T11:26:55Z</time></trkpt><trkpt lat="41.98612730722615" lon="14.963671542881833"><ele>84.66666666666666</ele><time>2026-03-22T11:26:56Z</time></trkpt><trkpt lat="41.986181368004395" lon="14.963888129377825"><ele>84.33333333333333</ele><time>2026-03-22T11:26:57Z</time></trkpt><trkpt lat="41.986256422443056" lon="14.9640922763902"><ele>84.0</ele><time>2026-03-22T11:26:58Z</time></trkpt><trkpt lat="41.986305584380716" lon="14.964313513502491"><ele>83.33333333333333</ele><time>2026-03-22T11:26:59Z</time></trkpt><trkpt lat="41.98637707772208" lon="14.964537813373212"><ele>82.66666666666666</ele><time>2026-03-22T11:27:00Z</time></trkpt><trkpt lat="41.9864512792109" lon="14.964767211561018"><ele>82.0</ele><time>2026-03-22T11:27:01Z</time></trkpt><trkpt lat="41.98652210016875" lon="14.964996791116143"><ele>83.0</ele><time>2026-03-22T11:27:02Z</time></trkpt><trkpt lat="41.98659167959141" lon="14.965222346095226"><ele>84.0</ele><time>2026-03-22T11:27:03Z</time></trkpt><trkpt lat="41.986664098801064" lon="14.965453628608817"><ele>85.0</ele><time>2026-03-22T11:27:04Z</time></trkpt><trkpt lat="41.98673516181835" lon="14.965678753216338"><ele>82.66666666666666</ele><time>2026-03-22T11:27:05Z</time></trkpt><trkpt lat="41.98680709216076" lon="14.965904810712575"><ele>80.33333333333333</ele><time>2026-03-22T11:27:06Z</time></trkpt><trkpt lat="41.986877166150066" lon="14.966121771287426"><ele>78.0</ele><time>2026-03-22T11:27:07Z</time></trkpt><trkpt lat="41.98694902928631" lon="14.966345063856682"><ele>78.0</ele><time>2026-03-22T11:27:08Z</time></trkpt><trkpt lat="41.98702141033444" lon="14.966560588179034"><ele>78.0</ele><time>2026-03-22T11:27:09Z</time></trkpt><trkpt lat="41.987105277344945" lon="14.96677746878345"><ele>78.0</ele><time>2026-03-22T11:27:10Z</time></trkpt><trkpt lat="41.987200170175306" lon="14.966994857559424"><ele>78.66666666666667</ele><time>2026-03-22T11:27:11Z</time></trkpt><trkpt lat="41.987295096289564" lon="14.96720717490133"><ele>79.33333333333334</ele><time>2026-03-22T11:27:12Z</time></trkpt><trkpt lat="41.987392293155814" lon="14.967431172370354"><ele>80.0</ele><time>2026-03-22T11:27:13Z</time></trkpt><trkpt lat="41.987489335173954" lon="14.967651716321635"><ele>78.33333333333334</ele><time>2026-03-22T11:27:14Z</time></trkpt><trkpt lat="41.987592438194994" lon="14.967882409688714"><ele>76.66666666666667</ele><time>2026-03-22T11:27:15Z</time></trkpt><trkpt lat="41.987692071850084" lon="14.968104037611246"><ele>75.0</ele><time>2026-03-22T11:27:16Z</time></trkpt><trkpt lat="41.98778993132019" lon="14.968322565024486"><ele>76.33333333333333</ele><time>2026-03-22T11:27:17Z</time></trkpt><trkpt lat="41.987886143355354" lon="14.968537791075642"><ele>77.66666666666666</ele><time>2026-03-22T11:27:18Z</time></trkpt><trkpt lat="41.987981340137495" lon="14.968753004079788"><ele>79.0</ele><time>2026-03-22T11:27:19Z</time></trkpt><trkpt lat="41.9880733204395" lon="14.968961638109967"><ele>79.0</ele><time>2026-03-22T11:27:20Z</time></trkpt><trkpt lat="41.98816744209133" lon="14.969175129501215"><ele>79.0</ele><time>2026-03-22T11:27:21Z</time></trkpt><trkpt lat="41.98825433890979" lon="14.969373023815955"><ele>79.0</ele><time>2026-03-22T11:27:22Z</time></trkpt><trkpt lat="41.9883390597206" lon="14.969570580311142"><ele>78.66666666666666</ele><time>2026-03-22T11:27:23Z</time></trkpt><trkpt lat="41.98841577234424" lon="14.969747919711745"><ele>78.33333333333333</ele><time>2026-03-22T11:27:24Z</time></trkpt><trkpt lat="41.98850365757788" lon="14.96994450335751"><ele>78.0</ele><time>2026-03-22T11:27:25Z</time></trkpt><trkpt lat="41.98858708278897" lon="14.970131455529854"><ele>77.66666666666667</ele><time>2026-03-22T11:27:26Z</time></trkpt><trkpt lat="41.988672666974146" lon="14.97032349552305"><ele>77.33333333333334</ele><time>2026-03-22T11:27:27Z</time></trkpt><trkpt lat="41.98875546653109" lon="14.970509286226518"><ele>77.0</ele><time>2026-03-22T11:27:28Z</time></trkpt><trkpt lat="41.98891828981939" lon="14.970870793344385"><ele>75.0</ele><time>2026-03-22T11:27:30Z</time></trkpt><trkpt lat="41.989000706833956" lon="14.971053459619403"><ele>73.0</ele><time>2026-03-22T11:27:31Z</time></trkpt><trkpt lat="41.989084138965644" lon="14.971240651697194"><ele>71.0</ele><time>2026-03-22T11:27:32Z</time></trkpt><trkpt lat="41.989167539841084" lon="14.971429182206428"><ele>71.0</ele><time>2026-03-22T11:27:33Z</time></trkpt><trkpt lat="41.98925234549791" lon="14.971618000146442"><ele>71.0</ele><time>2026-03-22T11:27:34Z</time></trkpt><trkpt lat="41.98933575997639" lon="14.971801858295688"><ele>71.0</ele><time>2026-03-22T11:27:35Z</time></trkpt><trkpt lat="41.989422260892994" lon="14.97198727269928"><ele>70.33333333333334</ele><time>2026-03-22T11:27:36Z</time></trkpt><trkpt lat="41.989513399024055" lon="14.972170430146612"><ele>69.66666666666667</ele><time>2026-03-22T11:27:37Z</time></trkpt><trkpt lat="41.98960785162368" lon="14.972349462342851"><ele>69.0</ele><time>2026-03-22T11:27:38Z</time></trkpt><trkpt lat="41.98970779685268" lon="14.972526487642456"><ele>68.33333333333333</ele><time>2026-03-22T11:27:39Z</time></trkpt><trkpt lat="41.989807810067944" lon="14.972700911207289"><ele>67.66666666666666</ele><time>2026-03-22T11:27:40Z</time></trkpt><trkpt lat="41.98990568875603" lon="14.972871612155725"><ele>67.0</ele><time>2026-03-22T11:27:41Z</time></trkpt><trkpt lat="41.9900004463732" lon="14.973036573821705"><ele>67.0</ele><time>2026-03-22T11:27:42Z</time></trkpt><trkpt lat="41.9900899936541" lon="14.973190643490149"><ele>67.0</ele><time>2026-03-22T11:27:43Z</time></trkpt><trkpt lat="41.990176778058604" lon="14.973339959305813"><ele>67.0</ele><time>2026-03-22T11:27:44Z</time></trkpt><trkpt lat="41.99025745371459" lon="14.973478764915857"><ele>67.0</ele><time>2026-03-22T11:27:45Z</time></trkpt><trkpt lat="41.9903333929966" lon="14.973610749017762"><ele>66.5</ele><time>2026-03-22T11:27:46Z</time></trkpt><trkpt lat="41.99040368238147" lon="14.973733605960575"><ele>66.0</ele><time>2026-03-22T11:27:47Z</time></trkpt><trkpt lat="41.99046182405386" lon="14.973835230256642"><ele>65.5</ele><time>2026-03-22T11:27:48Z</time></trkpt><trkpt lat="41.99050338653128" lon="14.97390787610706"><ele>65.0</ele><time>2026-03-22T11:27:49Z</time></trkpt><trkpt lat="41.990549315555796" lon="14.973980239054844"><ele>64.5</ele><time>2026-03-22T11:27:51Z</time></trkpt><trkpt lat="41.99060233582625" lon="14.974037780246114"><ele>64.0</ele><time>2026-03-22T11:28:02Z</time></trkpt><trkpt lat="41.990579636410175" lon="14.97416356073446"><ele>63.6</ele><time>2026-03-22T11:28:04Z</time></trkpt><trkpt lat="41.99068056756288" lon="14.97425663270969"><ele>63.2</ele><time>2026-03-22T11:28:06Z</time></trkpt><trkpt lat="41.99073982157015" lon="14.974308723665315"><ele>62.800000000000004</ele><time>2026-03-22T11:28:07Z</time></trkpt><trkpt lat="41.99079900774959" lon="14.974371837480136"><ele>62.400000000000006</ele><time>2026-03-22T11:28:08Z</time></trkpt><trkpt lat="41.99084938405164" lon="14.974495458101226"><ele>62.0</ele><time>2026-03-22T11:28:09Z</time></trkpt><trkpt lat="41.99091755548714" lon="14.974613991994918"><ele>61.75</ele><time>2026-03-22T11:28:10Z</time></trkpt><trkpt lat="41.99100370748268" lon="14.974732007875488"><ele>61.5</ele><time>2026-03-22T11:28:11Z</time></trkpt><trkpt lat="41.99107660888451" lon="14.974890548294239"><ele>61.25</ele><time>2026-03-22T11:28:12Z</time></trkpt><trkpt lat="41.991167141569825" lon="14.975047963203941"><ele>61.0</ele><time>2026-03-22T11:28:13Z</time></trkpt><trkpt lat="41.99126391578015" lon="14.975214031884333"><ele>61.0</ele><time>2026-03-22T11:28:14Z</time></trkpt><trkpt lat="41.99135043347604" lon="14.975362053784966"><ele>61.0</ele><time>2026-03-22T11:28:15Z</time></trkpt><trkpt lat="41.991437804234444" lon="14.975511535004646"><ele>61.0</ele><time>2026-03-22T11:28:16Z</time></trkpt><trkpt lat="41.991530735247395" lon="14.975670529360428"><ele>61.0</ele><time>2026-03-22T11:28:17Z</time></trkpt><trkpt lat="41.99162482417809" lon="14.975831504564947"><ele>59.75</ele><time>2026-03-22T11:28:18Z</time></trkpt><trkpt lat="41.99171575329729" lon="14.975987073938667"><ele>58.5</ele><time>2026-03-22T11:28:19Z</time></trkpt><trkpt lat="41.99180407309021" lon="14.976138150399944"><ele>57.25</ele><time>2026-03-22T11:28:20Z</time></trkpt><trkpt lat="41.99188938286155" lon="14.97628407017952"><ele>56.0</ele><time>2026-03-22T11:28:21Z</time></trkpt><trkpt lat="41.9919668103925" lon="14.976416507420769"><ele>56.0</ele><time>2026-03-22T11:28:22Z</time></trkpt><trkpt lat="41.99203841852758" lon="14.97653899087759"><ele>55.99999999999999</ele><time>2026-03-22T11:28:23Z</time></trkpt><trkpt lat="41.99209976998328" lon="14.976643930694364"><ele>55.99999999999999</ele><time>2026-03-22T11:28:24Z</time></trkpt><trkpt lat="41.99216247203745" lon="14.976730367992724"><ele>56.0</ele><time>2026-03-22T11:28:25Z</time></trkpt><trkpt lat="41.992187818346274" lon="14.976837681330338"><ele>56.0</ele><time>2026-03-22T11:28:26Z</time></trkpt><trkpt lat="41.99220165324777" lon="14.976936021848095"><ele>56.0</ele><time>2026-03-22T11:28:27Z</time></trkpt><trkpt lat="41.99225525725141" lon="14.977001395608172"><ele>55.99999999999999</ele><time>2026-03-22T11:28:28Z</time></trkpt><trkpt lat="41.99230280428806" lon="14.977079003276915"><ele>55.99999999999999</ele><time>2026-03-22T11:28:29Z</time></trkpt><trkpt lat="41.99238931008988" lon="14.977139769092323"><ele>56.0</ele><time>2026-03-22T11:28:30Z</time></trkpt><trkpt lat="41.99245661219053" lon="14.977255718308594"><ele>56.0</ele><time>2026-03-22T11:28:31Z</time></trkpt><trkpt lat="41.99262029252806" lon="14.977501445016616"><ele>55.25</ele><time>2026-03-22T11:28:33Z</time></trkpt><trkpt lat="41.99268632158755" lon="14.977649129399122"><ele>54.5</ele><time>2026-03-22T11:28:34Z</time></trkpt><trkpt lat="41.99276952590149" lon="14.977791855696674"><ele>53.75</ele><time>2026-03-22T11:28:35Z</time></trkpt><trkpt lat="41.99285475497283" lon="14.977938022623743"><ele>53.0</ele><time>2026-03-22T11:28:36Z</time></trkpt><trkpt lat="41.992940231547266" lon="14.978084614123782"><ele>53.0</ele><time>2026-03-22T11:28:37Z</time></trkpt><trkpt lat="41.99302143786928" lon="14.97822389136522"><ele>53.0</ele><time>2026-03-22T11:28:38Z</time></trkpt><trkpt lat="41.99311317626182" lon="14.97838163167219"><ele>53.0</ele><time>2026-03-22T11:28:39Z</time></trkpt><trkpt lat="41.99321430976196" lon="14.978554684561889"><ele>53.0</ele><time>2026-03-22T11:28:40Z</time></trkpt><trkpt lat="41.9933205821545" lon="14.978736379192434"><ele>51.66666666666667</ele><time>2026-03-22T11:28:41Z</time></trkpt><trkpt lat="41.99342325916716" lon="14.978911415700244"><ele>50.33333333333333</ele><time>2026-03-22T11:28:42Z</time></trkpt><trkpt lat="41.99353685220974" lon="14.97907251354732"><ele>49.0</ele><time>2026-03-22T11:28:43Z</time></trkpt><trkpt lat="41.99363785595892" lon="14.979251032413332"><ele>48.33333333333333</ele><time>2026-03-22T11:28:44Z</time></trkpt><trkpt lat="41.99374143598824" lon="14.979429990493294"><ele>47.666666666666664</ele><time>2026-03-22T11:28:45Z</time></trkpt><trkpt lat="41.993844038959814" lon="14.979606358473408"><ele>47.0</ele><time>2026-03-22T11:28:46Z</time></trkpt><trkpt lat="41.99393877574554" lon="14.97976773740151"><ele>47.0</ele><time>2026-03-22T11:28:47Z</time></trkpt><trkpt lat="41.994016498977054" lon="14.979909182629077"><ele>47.0</ele><time>2026-03-22T11:28:48Z</time></trkpt><trkpt lat="41.994087822834054" lon="14.98004662673713"><ele>47.0</ele><time>2026-03-22T11:28:49Z</time></trkpt><trkpt lat="41.99415914041119" lon="14.980162697041639"><ele>47.0</ele><time>2026-03-22T11:28:50Z</time></trkpt><trkpt lat="41.994217497668245" lon="14.980269598794285"><ele>47.0</ele><time>2026-03-22T11:28:51Z</time></trkpt><trkpt lat="41.99426016085793" lon="14.980376556019234"><ele>47.0</ele><time>2026-03-22T11:28:52Z</time></trkpt><trkpt lat="41.994283537150665" lon="14.980487064298282"><ele>47.0</ele><time>2026-03-22T11:28:53Z</time></trkpt><trkpt lat="41.994312272364674" lon="14.98058340374352"><ele>47.0</ele><time>2026-03-22T11:28:54Z</time></trkpt><trkpt lat="41.99436841165951" lon="14.98065869282243"><ele>47.0</ele><time>2026-03-22T11:28:55Z</time></trkpt><trkpt lat="41.99445182612802" lon="14.980709624424838"><ele>47.0</ele><time>2026-03-22T11:28:56Z</time></trkpt><trkpt lat="41.99454323878282" lon="14.98073183377761"><ele>46.6</ele><time>2026-03-22T11:28:57Z</time></trkpt><trkpt lat="41.99463679934658" lon="14.980904253856197"><ele>46.2</ele><time>2026-03-22T11:28:59Z</time></trkpt><trkpt lat="41.99469113617537" lon="14.980984908465967"><ele>45.8</ele><time>2026-03-22T11:29:00Z</time></trkpt><trkpt lat="41.99475750208306" lon="14.981070009226132"><ele>45.4</ele><time>2026-03-22T11:29:01Z</time></trkpt><trkpt lat="41.994833735422304" lon="14.981148526311314"><ele>45.0</ele><time>2026-03-22T11:29:02Z</time></trkpt><trkpt lat="41.994873617265284" lon="14.981244171531426"><ele>45.0</ele><time>2026-03-22T11:29:03Z</time></trkpt><trkpt lat="41.99493261981917" lon="14.981329979880888"><ele>45.0</ele><time>2026-03-22T11:29:04Z</time></trkpt><trkpt lat="41.99499015269121" lon="14.981412691678218"><ele>45.0</ele><time>2026-03-22T11:29:05Z</time></trkpt><trkpt lat="41.9950491660618" lon="14.981496722806323"><ele>45.0</ele><time>2026-03-22T11:29:06Z</time></trkpt><trkpt lat="41.995110934164664" lon="14.981580511444431"><ele>45.0</ele><time>2026-03-22T11:29:07Z</time></trkpt><trkpt lat="41.99517040049769" lon="14.981667628170804"><ele>45.0</ele><time>2026-03-22T11:29:08Z</time></trkpt><trkpt lat="41.99522204960803" lon="14.98174269197624"><ele>45.8</ele><time>2026-03-22T11:29:09Z</time></trkpt><trkpt lat="41.99526706745515" lon="14.981813015210522"><ele>46.6</ele><time>2026-03-22T11:29:10Z</time></trkpt><trkpt lat="41.99528958294001" lon="14.981893192388794"><ele>47.400000000000006</ele><time>2026-03-22T11:29:11Z</time></trkpt><trkpt lat="41.995354980605335" lon="14.9820306139718"><ele>48.2</ele><time>2026-03-22T11:29:13Z</time></trkpt><trkpt lat="41.99539173844191" lon="14.982175111594028"><ele>49.0</ele><time>2026-03-22T11:29:15Z</time></trkpt><trkpt lat="41.995422852456045" lon="14.982283606322689"><ele>48.99999999999999</ele><time>2026-03-22T11:29:17Z</time></trkpt><trkpt lat="41.99544362281614" lon="14.982371618337226"><ele>49.0</ele><time>2026-03-22T11:29:18Z</time></trkpt><trkpt lat="41.99546214498038" lon="14.982462174636336"><ele>49.0</ele><time>2026-03-22T11:29:19Z</time></trkpt><trkpt lat="41.99548739225044" lon="14.982631274263348"><ele>49.0</ele><time>2026-03-22T11:29:21Z</time></trkpt><trkpt lat="41.995500542929875" lon="14.982726629450012"><ele>48.99999999999999</ele><time>2026-03-22T11:29:22Z</time></trkpt><trkpt lat="41.99551428449191" lon="14.982831028927212"><ele>49.0</ele><time>2026-03-22T11:29:23Z</time></trkpt><trkpt lat="41.99552878006213" lon="14.982945873841755"><ele>48.666666666666664</ele><time>2026-03-22T11:29:24Z</time></trkpt><trkpt lat="41.995542308483294" lon="14.98305305617111"><ele>48.33333333333333</ele><time>2026-03-22T11:29:25Z</time></trkpt><trkpt lat="41.99555538439318" lon="14.983156653684425"><ele>48.0</ele><time>2026-03-22T11:29:26Z</time></trkpt><trkpt lat="41.99556901820911" lon="14.983259396259891"><ele>47.666666666666664</ele><time>2026-03-22T11:29:27Z</time></trkpt><trkpt lat="41.995584033420556" lon="14.983372672105014"><ele>47.33333333333333</ele><time>2026-03-22T11:29:28Z</time></trkpt><trkpt lat="41.995598462158256" lon="14.983482981783336"><ele>47.0</ele><time>2026-03-22T11:29:29Z</time></trkpt><trkpt lat="41.99561290293898" lon="14.983589084612245"><ele>46.83333333333333</ele><time>2026-03-22T11:29:30Z</time></trkpt><trkpt lat="41.995630941915564" lon="14.983702686658528"><ele>46.666666666666664</ele><time>2026-03-22T11:29:31Z</time></trkpt><trkpt lat="41.99565252302307" lon="14.983810467316085"><ele>46.5</ele><time>2026-03-22T11:29:32Z</time></trkpt><trkpt lat="41.99567296485346" lon="14.983904369340102"><ele>46.333333333333336</ele><time>2026-03-22T11:29:33Z</time></trkpt><trkpt lat="41.9956983167112" lon="14.984002888061012"><ele>46.16666666666667</ele><time>2026-03-22T11:29:34Z</time></trkpt><trkpt lat="41.99572472024217" lon="14.984094182388446"><ele>46.0</ele><time>2026-03-22T11:29:35Z</time></trkpt><trkpt lat="41.99575151956721" lon="14.98417790353983"><ele>46.0</ele><time>2026-03-22T11:29:36Z</time></trkpt><trkpt lat="41.99577852385491" lon="14.984256814751708"><ele>46.0</ele><time>2026-03-22T11:29:37Z</time></trkpt><trkpt lat="41.99582335676491" lon="14.984326021693269"><ele>46.0</ele><time>2026-03-22T11:29:38Z</time></trkpt><trkpt lat="41.99587142175137" lon="14.984478461697483"><ele>46.0</ele><time>2026-03-22T11:29:40Z</time></trkpt><trkpt lat="41.995932805618814" lon="14.984611725743061"><ele>46.0</ele><time>2026-03-22T11:29:42Z</time></trkpt><trkpt lat="41.99599330247731" lon="14.984707575215724"><ele>46.0</ele><time>2026-03-22T11:29:44Z</time></trkpt><trkpt lat="41.99602070905283" lon="14.984801015333607"><ele>46.0</ele><time>2026-03-22T11:29:46Z</time></trkpt><trkpt lat="41.996063532172045" lon="14.984889364088616"><ele>46.0</ele><time>2026-03-22T11:29:48Z</time></trkpt><trkpt lat="41.996129487331025" lon="14.985013877734012"><ele>46.0</ele><time>2026-03-22T11:29:50Z</time></trkpt><trkpt lat="41.99610765962847" lon="14.98514329735204"><ele>46.0</ele><time>2026-03-22T11:29:51Z</time></trkpt><trkpt lat="41.99619391785557" lon="14.985207443194767"><ele>46.0</ele><time>2026-03-22T11:29:53Z</time></trkpt><trkpt lat="41.996261430163585" lon="14.985178105468561"><ele>46.0</ele><time>2026-03-22T11:29:54Z</time></trkpt><trkpt lat="41.99633456891782" lon="14.984991528745185"><ele>46.0</ele><time>2026-03-22T11:29:56Z</time></trkpt><trkpt lat="41.996432553941055" lon="14.984809692159242"><ele>46.0</ele><time>2026-03-22T11:29:58Z</time></trkpt><trkpt lat="41.99652970998559" lon="14.984796332820506"><ele>46.0</ele><time>2026-03-22T11:29:59Z</time></trkpt><trkpt lat="41.99659665810557" lon="14.98472863717992"><ele>46.0</ele><time>2026-03-22T11:30:00Z</time></trkpt><trkpt lat="41.996665436435045" lon="14.984647752592801"><ele>46.0</ele><time>2026-03-22T11:30:01Z</time></trkpt><trkpt lat="41.996737341274994" lon="14.984562106312376"><ele>46.0</ele><time>2026-03-22T11:30:02Z</time></trkpt><trkpt lat="41.996808840930655" lon="14.984487470856745"><ele>46.0</ele><time>2026-03-22T11:30:03Z</time></trkpt><trkpt lat="41.9968751056114" lon="14.984407628425199"><ele>46.0</ele><time>2026-03-22T11:30:04Z</time></trkpt><trkpt lat="41.99694819225755" lon="14.984339208298595"><ele>46.0</ele><time>2026-03-22T11:30:05Z</time></trkpt><trkpt lat="41.9970094393639" lon="14.984273780422509"><ele>46.0</ele><time>2026-03-22T11:30:06Z</time></trkpt><trkpt lat="41.9970676703222" lon="14.984200478398897"><ele>46.0</ele><time>2026-03-22T11:30:07Z</time></trkpt><trkpt lat="41.99713506494885" lon="14.98414682762657"><ele>46.0</ele><time>2026-03-22T11:30:08Z</time></trkpt><trkpt lat="41.99715437059825" lon="14.984021776121827"><ele>46.0</ele><time>2026-03-22T11:30:09Z</time></trkpt><trkpt lat="41.99727656012532" lon="14.983887623069677"><ele>46.16666666666667</ele><time>2026-03-22T11:30:11Z</time></trkpt><trkpt lat="41.997344647054135" lon="14.98381261740478"><ele>46.333333333333336</ele><time>2026-03-22T11:30:12Z</time></trkpt><trkpt lat="41.99741552821181" lon="14.98373453350423"><ele>46.5</ele><time>2026-03-22T11:30:13Z</time></trkpt><trkpt lat="41.99748548044434" lon="14.983657473004524"><ele>46.666666666666664</ele><time>2026-03-22T11:30:14Z</time></trkpt><trkpt lat="41.9975541623332" lon="14.983581811831739"><ele>46.83333333333333</ele><time>2026-03-22T11:30:15Z</time></trkpt><trkpt lat="41.99760670134512" lon="14.983523933959372"><ele>47.0</ele><time>2026-03-22T11:30:16Z</time></trkpt><trkpt lat="41.9976618732028" lon="14.983463155648545"><ele>47.0</ele><time>2026-03-22T11:30:17Z</time></trkpt><trkpt lat="41.99771235898314" lon="14.983407539714861"><ele>47.0</ele><time>2026-03-22T11:30:18Z</time></trkpt><trkpt lat="41.997802079221294" lon="14.983308702363471"><ele>47.0</ele><time>2026-03-22T11:30:20Z</time></trkpt><trkpt lat="41.99785909743744" lon="14.983245927003663"><ele>47.0</ele><time>2026-03-22T11:30:21Z</time></trkpt><trkpt lat="41.99792143010933" lon="14.983177311038153"><ele>47.0</ele><time>2026-03-22T11:30:22Z</time></trkpt><trkpt lat="41.997988377840834" lon="14.983103614797782"><ele>47.0</ele><time>2026-03-22T11:30:23Z</time></trkpt><trkpt lat="41.99805026125367" lon="14.983035493338623"><ele>47.0</ele><time>2026-03-22T11:30:24Z</time></trkpt><trkpt lat="41.9981161749947" lon="14.982962935290699"><ele>47.0</ele><time>2026-03-22T11:30:25Z</time></trkpt><trkpt lat="41.99818716880199" lon="14.982884785027858"><ele>47.0</ele><time>2026-03-22T11:30:26Z</time></trkpt><trkpt lat="41.99826010641005" lon="14.982804496732264"><ele>47.0</ele><time>2026-03-22T11:30:27Z</time></trkpt><trkpt lat="41.99833924816232" lon="14.982712349191582"><ele>47.0</ele><time>2026-03-22T11:30:28Z</time></trkpt><trkpt lat="41.99841935551699" lon="14.982618562174446"><ele>47.2</ele><time>2026-03-22T11:30:29Z</time></trkpt><trkpt lat="41.998501394442215" lon="14.982519650735682"><ele>47.400000000000006</ele><time>2026-03-22T11:30:30Z</time></trkpt><trkpt lat="41.99857826477316" lon="14.982426972364824"><ele>47.599999999999994</ele><time>2026-03-22T11:30:31Z</time></trkpt><trkpt lat="41.998655992732466" lon="14.982334136522564"><ele>47.8</ele><time>2026-03-22T11:30:32Z</time></trkpt><trkpt lat="41.99873472925703" lon="14.982239843924615"><ele>48.0</ele><time>2026-03-22T11:30:33Z</time></trkpt><trkpt lat="41.99880090300986" lon="14.982160596298456"><ele>48.0</ele><time>2026-03-22T11:30:34Z</time></trkpt><trkpt lat="41.9988648585869" lon="14.98208622185139"><ele>48.0</ele><time>2026-03-22T11:30:35Z</time></trkpt><trkpt lat="41.99892991130053" lon="14.982010974412718"><ele>48.0</ele><time>2026-03-22T11:30:36Z</time></trkpt><trkpt lat="41.99899400711271" lon="14.981941630334026"><ele>48.0</ele><time>2026-03-22T11:30:37Z</time></trkpt><trkpt lat="41.99906147988347" lon="14.981874952603244"><ele>48.0</ele><time>2026-03-22T11:30:38Z</time></trkpt><trkpt lat="41.999120216913376" lon="14.981822902503179"><ele>48.0</ele><time>2026-03-22T11:30:39Z</time></trkpt><trkpt lat="41.99918802859668" lon="14.981798507345736"><ele>48.0</ele><time>2026-03-22T11:30:40Z</time></trkpt><trkpt lat="41.999251827635746" lon="14.981761337672113"><ele>48.0</ele><time>2026-03-22T11:30:41Z</time></trkpt><trkpt lat="41.99932495252707" lon="14.981732940774636"><ele>48.0</ele><time>2026-03-22T11:30:42Z</time></trkpt><trkpt lat="41.999404642818746" lon="14.981715335808202"><ele>48.0</ele><time>2026-03-22T11:30:43Z</time></trkpt><trkpt lat="41.99948840365803" lon="14.981715603936863"><ele>48.0</ele><time>2026-03-22T11:30:44Z</time></trkpt><trkpt lat="41.99957684684304" lon="14.981733960794983"><ele>48.0</ele><time>2026-03-22T11:30:45Z</time></trkpt><trkpt lat="41.99966216539622" lon="14.981740537183867"><ele>48.0</ele><time>2026-03-22T11:30:46Z</time></trkpt><trkpt lat="41.99975303670556" lon="14.981806867005108"><ele>48.0</ele><time>2026-03-22T11:30:47Z</time></trkpt><trkpt lat="41.99982474287592" lon="14.981843704299953"><ele>48.0</ele><time>2026-03-22T11:30:48Z</time></trkpt><trkpt lat="41.999884627322764" lon="14.981873297191084"><ele>48.0</ele><time>2026-03-22T11:30:49Z</time></trkpt><trkpt lat="41.999976147284556" lon="14.98192486811275"><ele>48.0</ele><time>2026-03-22T11:30:51Z</time></trkpt><trkpt lat="42.00008276240864" lon="14.981991912414584"><ele>48.0</ele><time>2026-03-22T11:30:53Z</time></trkpt><trkpt lat="42.00015168380444" lon="14.98202190199546"><ele>48.0</ele><time>2026-03-22T11:30:54Z</time></trkpt><trkpt lat="42.000231071818895" lon="14.982060093957564"><ele>48.0</ele><time>2026-03-22T11:30:55Z</time></trkpt><trkpt lat="42.000322856319336" lon="14.98210326573586"><ele>48.0</ele><time>2026-03-22T11:30:56Z</time></trkpt><trkpt lat="42.00042296412833" lon="14.982147746675881"><ele>48.0</ele><time>2026-03-22T11:30:57Z</time></trkpt><trkpt lat="42.00052088303768" lon="14.982193227756719"><ele>48.0</ele><time>2026-03-22T11:30:58Z</time></trkpt><trkpt lat="42.00062242779275" lon="14.982235885734523"><ele>48.0</ele><time>2026-03-22T11:30:59Z</time></trkpt><trkpt lat="42.00072966749139" lon="14.98228353181837"><ele>48.0</ele><time>2026-03-22T11:31:00Z</time></trkpt><trkpt lat="42.000834195000756" lon="14.982329168159342"><ele>48.0</ele><time>2026-03-22T11:31:01Z</time></trkpt><trkpt lat="42.000934703423155" lon="14.982374085684599"><ele>48.0</ele><time>2026-03-22T11:31:02Z</time></trkpt><trkpt lat="42.00103005864572" lon="14.982423998807345"><ele>47.2</ele><time>2026-03-22T11:31:03Z</time></trkpt><trkpt lat="42.00111596182197" lon="14.9824674221789"><ele>46.4</ele><time>2026-03-22T11:31:04Z</time></trkpt><trkpt lat="42.0012001052909" lon="14.982505701538111"><ele>45.6</ele><time>2026-03-22T11:31:05Z</time></trkpt><trkpt lat="42.00128921981583" lon="14.982546608444562"><ele>44.800000000000004</ele><time>2026-03-22T11:31:06Z</time></trkpt><trkpt lat="42.00137818690345" lon="14.98258408912406"><ele>44.0</ele><time>2026-03-22T11:31:07Z</time></trkpt><trkpt lat="42.00146479199207" lon="14.982624882270157"><ele>43.83333333333333</ele><time>2026-03-22T11:31:08Z</time></trkpt><trkpt lat="42.00154598283217" lon="14.982660095909718"><ele>43.666666666666664</ele><time>2026-03-22T11:31:09Z</time></trkpt><trkpt lat="42.00162778103707" lon="14.982687435085747"><ele>43.5</ele><time>2026-03-22T11:31:10Z</time></trkpt><trkpt lat="42.0017042210028" lon="14.982704054406534"><ele>43.333333333333336</ele><time>2026-03-22T11:31:11Z</time></trkpt><trkpt lat="42.00178469444791" lon="14.982712917576727"><ele>43.16666666666667</ele><time>2026-03-22T11:31:12Z</time></trkpt><trkpt lat="42.001853722251674" lon="14.982714044514601"><ele>43.0</ele><time>2026-03-22T11:31:13Z</time></trkpt><trkpt lat="42.001949188030835" lon="14.982723022591534"><ele>43.0</ele><time>2026-03-22T11:31:15Z</time></trkpt><trkpt lat="42.002027485593345" lon="14.982765828518222"><ele>43.0</ele><time>2026-03-22T11:31:18Z</time></trkpt><trkpt lat="42.00208859375986" lon="14.982840600734608"><ele>43.0</ele><time>2026-03-22T11:31:21Z</time></trkpt><trkpt lat="42.002153346137554" lon="14.982997431113487"><ele>43.0</ele><time>2026-03-22T11:31:23Z</time></trkpt><trkpt lat="42.002232864749004" lon="14.983093687379366"><ele>43.0</ele><time>2026-03-22T11:31:25Z</time></trkpt><trkpt lat="42.00233331640976" lon="14.983073881425371"><ele>43.00000000000001</ele><time>2026-03-22T11:31:27Z</time></trkpt><trkpt lat="42.002384702305925" lon="14.983023354748704"><ele>43.0</ele><time>2026-03-22T11:31:28Z</time></trkpt><trkpt lat="42.00242271692647" lon="14.982940761396767"><ele>43.0</ele><time>2026-03-22T11:31:29Z</time></trkpt><trkpt lat="42.00243361095083" lon="14.982844472532808"><ele>43.0</ele><time>2026-03-22T11:31:30Z</time></trkpt><trkpt lat="42.00241756337236" lon="14.982742298270477"><ele>43.0</ele><time>2026-03-22T11:31:31Z</time></trkpt><trkpt lat="42.00237774577256" lon="14.982638791346993"><ele>43.00000000000001</ele><time>2026-03-22T11:31:32Z</time></trkpt><trkpt lat="42.002339207420476" lon="14.98254970350698"><ele>43.0</ele><time>2026-03-22T11:31:33Z</time></trkpt><trkpt lat="42.00231798924477" lon="14.982461715419275"><ele>42.75</ele><time>2026-03-22T11:31:34Z</time></trkpt><trkpt lat="42.00228976226407" lon="14.982262996128162"><ele>42.5</ele><time>2026-03-22T11:31:36Z</time></trkpt><trkpt lat="42.002282491801864" lon="14.982091813650776"><ele>42.25</ele><time>2026-03-22T11:31:37Z</time></trkpt><trkpt lat="42.00226992851424" lon="14.981905139038957"><ele>42.0</ele><time>2026-03-22T11:31:38Z</time></trkpt><trkpt lat="42.002237259391165" lon="14.981727417451777"><ele>42.333333333333336</ele><time>2026-03-22T11:31:39Z</time></trkpt><trkpt lat="42.00220718276262" lon="14.981537528490401"><ele>42.66666666666667</ele><time>2026-03-22T11:31:40Z</time></trkpt><trkpt lat="42.002173376532085" lon="14.981329871078978"><ele>43.0</ele><time>2026-03-22T11:31:41Z</time></trkpt><trkpt lat="42.00213663377657" lon="14.981112698211637"><ele>43.0</ele><time>2026-03-22T11:31:42Z</time></trkpt><trkpt lat="42.002105442804464" lon="14.980892774941305"><ele>43.0</ele><time>2026-03-22T11:31:43Z</time></trkpt><trkpt lat="42.002073841722314" lon="14.98067317510919"><ele>43.0</ele><time>2026-03-22T11:31:44Z</time></trkpt><trkpt lat="42.002039411238634" lon="14.980467978659231"><ele>43.0</ele><time>2026-03-22T11:31:45Z</time></trkpt><trkpt lat="42.00200691813077" lon="14.980257776061285"><ele>43.0</ele><time>2026-03-22T11:31:46Z</time></trkpt><trkpt lat="42.001976644835665" lon="14.980047449341082"><ele>43.0</ele><time>2026-03-22T11:31:47Z</time></trkpt><trkpt lat="42.00194850498242" lon="14.979852049430264"><ele>43.25</ele><time>2026-03-22T11:31:48Z</time></trkpt><trkpt lat="42.00191952266373" lon="14.97964856758315"><ele>43.5</ele><time>2026-03-22T11:31:49Z</time></trkpt><trkpt lat="42.00189162009443" lon="14.97945139325244"><ele>43.75</ele><time>2026-03-22T11:31:50Z</time></trkpt><trkpt lat="42.00186633586931" lon="14.979258738112573"><ele>44.0</ele><time>2026-03-22T11:31:51Z</time></trkpt><trkpt lat="42.00186368559142" lon="14.979086038051685"><ele>44.25</ele><time>2026-03-22T11:31:52Z</time></trkpt><trkpt lat="42.00187531589554" lon="14.978919037721111"><ele>44.5</ele><time>2026-03-22T11:31:53Z</time></trkpt><trkpt lat="42.00191354590026" lon="14.978759290070172"><ele>44.75</ele><time>2026-03-22T11:31:54Z</time></trkpt><trkpt lat="42.00198674651483" lon="14.978637527618192"><ele>45.0</ele><time>2026-03-22T11:31:55Z</time></trkpt><trkpt lat="42.002080746881184" lon="14.978539320317838"><ele>45.0</ele><time>2026-03-22T11:31:56Z</time></trkpt><trkpt lat="42.00218355070068" lon="14.97845444069209"><ele>45.0</ele><time>2026-03-22T11:31:57Z</time></trkpt><trkpt lat="42.00230867925842" lon="14.978391757057361"><ele>45.0</ele><time>2026-03-22T11:31:58Z</time></trkpt><trkpt lat="42.00245038624297" lon="14.978358104732106"><ele>45.0</ele><time>2026-03-22T11:31:59Z</time></trkpt><trkpt lat="42.002599023590584" lon="14.978349909001142"><ele>44.0</ele><time>2026-03-22T11:32:00Z</time></trkpt><trkpt lat="42.002746955586524" lon="14.978331211649373"><ele>43.0</ele><time>2026-03-22T11:32:01Z</time></trkpt><trkpt lat="42.00288965729431" lon="14.978311886071163"><ele>42.0</ele><time>2026-03-22T11:32:02Z</time></trkpt><trkpt lat="42.00301548557758" lon="14.978268868504726"><ele>41.0</ele><time>2026-03-22T11:32:03Z</time></trkpt><trkpt lat="42.00314507715411" lon="14.978184138896081"><ele>41.0</ele><time>2026-03-22T11:32:04Z</time></trkpt><trkpt lat="42.00323368199465" lon="14.97813027882259"><ele>41.0</ele><time>2026-03-22T11:32:05Z</time></trkpt><trkpt lat="42.003336246704244" lon="14.978027539031165"><ele>41.0</ele><time>2026-03-22T11:32:06Z</time></trkpt><trkpt lat="42.0034049560023" lon="14.977890530731056"><ele>41.0</ele><time>2026-03-22T11:32:07Z</time></trkpt><trkpt lat="42.00345029712091" lon="14.977721197682007"><ele>39.25</ele><time>2026-03-22T11:32:08Z</time></trkpt><trkpt lat="42.00348103390849" lon="14.977530370396208"><ele>37.5</ele><time>2026-03-22T11:32:09Z</time></trkpt><trkpt lat="42.00350122475062" lon="14.977332640452724"><ele>35.75</ele><time>2026-03-22T11:32:10Z</time></trkpt><trkpt lat="42.003520313393764" lon="14.977150322137579"><ele>34.0</ele><time>2026-03-22T11:32:11Z</time></trkpt><trkpt lat="42.00353990142659" lon="14.976991566349586"><ele>33.66666666666667</ele><time>2026-03-22T11:32:12Z</time></trkpt><trkpt lat="42.00356051189111" lon="14.976859245827404"><ele>33.333333333333336</ele><time>2026-03-22T11:32:13Z</time></trkpt><trkpt lat="42.003575111710894" lon="14.976759203900764"><ele>33.0</ele><time>2026-03-22T11:32:14Z</time></trkpt><trkpt lat="42.003586296090624" lon="14.976653862285596"><ele>32.666666666666664</ele><time>2026-03-22T11:32:15Z</time></trkpt><trkpt lat="42.00360507349609" lon="14.97654865289823"><ele>32.33333333333333</ele><time>2026-03-22T11:32:16Z</time></trkpt><trkpt lat="42.00364267637557" lon="14.976466440558038"><ele>32.0</ele><time>2026-03-22T11:32:17Z</time></trkpt><trkpt lat="42.00374211871736" lon="14.976359484477847"><ele>30.6</ele><time>2026-03-22T11:32:19Z</time></trkpt><trkpt lat="42.003820416785146" lon="14.976411384091353"><ele>29.200000000000003</ele><time>2026-03-22T11:32:20Z</time></trkpt><trkpt lat="42.00389750945665" lon="14.976460754440426"><ele>27.8</ele><time>2026-03-22T11:32:21Z</time></trkpt><trkpt lat="42.003991919912615" lon="14.976520839304476"><ele>26.4</ele><time>2026-03-22T11:32:22Z</time></trkpt><trkpt lat="42.00412109351596" lon="14.976581611437423"><ele>25.0</ele><time>2026-03-22T11:32:23Z</time></trkpt><trkpt lat="42.00426953078767" lon="14.976649136230657"><ele>25.333333333333336</ele><time>2026-03-22T11:32:24Z</time></trkpt><trkpt lat="42.004404757159406" lon="14.976708844658884"><ele>25.666666666666664</ele><time>2026-03-22T11:32:25Z</time></trkpt><trkpt lat="42.00454586112308" lon="14.976777001524253"><ele>26.0</ele><time>2026-03-22T11:32:26Z</time></trkpt><trkpt lat="42.00469740083568" lon="14.97684634113501"><ele>26.0</ele><time>2026-03-22T11:32:27Z</time></trkpt><trkpt lat="42.00485122561684" lon="14.97691693332082"><ele>26.0</ele><time>2026-03-22T11:32:28Z</time></trkpt><trkpt lat="42.004994020784764" lon="14.97697449365486"><ele>26.0</ele><time>2026-03-22T11:32:29Z</time></trkpt><trkpt lat="42.00513618464034" lon="14.977037570712112"><ele>24.25</ele><time>2026-03-22T11:32:30Z</time></trkpt><trkpt lat="42.00528032333191" lon="14.977090455297606"><ele>22.5</ele><time>2026-03-22T11:32:31Z</time></trkpt><trkpt lat="42.0054243312765" lon="14.97712830830918"><ele>20.75</ele><time>2026-03-22T11:32:32Z</time></trkpt><trkpt lat="42.005567387136594" lon="14.977163282184257"><ele>19.0</ele><time>2026-03-22T11:32:33Z</time></trkpt><trkpt lat="42.00569792100364" lon="14.977190632580466"><ele>19.0</ele><time>2026-03-22T11:32:34Z</time></trkpt><trkpt lat="42.00581094755219" lon="14.977216954838536"><ele>19.0</ele><time>2026-03-22T11:32:35Z</time></trkpt><trkpt lat="42.005911478717735" lon="14.977241829176007"><ele>19.0</ele><time>2026-03-22T11:32:36Z</time></trkpt><trkpt lat="42.00599473952129" lon="14.977263474731746"><ele>19.0</ele><time>2026-03-22T11:32:37Z</time></trkpt><trkpt lat="42.00607090968036" lon="14.977280124257861"><ele>19.0</ele><time>2026-03-22T11:32:38Z</time></trkpt><trkpt lat="42.00613971976309" lon="14.977291110460207"><ele>19.0</ele><time>2026-03-22T11:32:39Z</time></trkpt><trkpt lat="42.00624728305531" lon="14.977387649961962"><ele>18.5</ele><time>2026-03-22T11:32:41Z</time></trkpt><trkpt lat="42.0063075544555" lon="14.977465919909942"><ele>18.0</ele><time>2026-03-22T11:32:42Z</time></trkpt><trkpt lat="42.00635637659866" lon="14.97752432039522"><ele>17.5</ele><time>2026-03-22T11:32:43Z</time></trkpt><trkpt lat="42.00648096486042" lon="14.977544288833403"><ele>17.0</ele><time>2026-03-22T11:32:45Z</time></trkpt><trkpt lat="42.0065445768604" lon="14.977495437254817"><ele>16.5</ele><time>2026-03-22T11:32:46Z</time></trkpt><trkpt lat="42.0065895531751" lon="14.977413890614045"><ele>16.0</ele><time>2026-03-22T11:32:47Z</time></trkpt><trkpt lat="42.0066055887971" lon="14.977326363801541"><ele>15.833333333333332</ele><time>2026-03-22T11:32:48Z</time></trkpt><trkpt lat="42.006591753598975" lon="14.977232588915465"><ele>15.666666666666666</ele><time>2026-03-22T11:32:49Z</time></trkpt><trkpt lat="42.00655167116307" lon="14.977136764722884"><ele>15.5</ele><time>2026-03-22T11:32:50Z</time></trkpt><trkpt lat="42.00649062956229" lon="14.977041562571877"><ele>15.333333333333332</ele><time>2026-03-22T11:32:51Z</time></trkpt><trkpt lat="42.006462490373" lon="14.976943400521423"><ele>15.166666666666666</ele><time>2026-03-22T11:32:52Z</time></trkpt><trkpt lat="42.00645384644136" lon="14.97680506269053"><ele>15.0</ele><time>2026-03-22T11:32:53Z</time></trkpt><trkpt lat="42.00643097198136" lon="14.976648534878727"><ele>15.666666666666668</ele><time>2026-03-22T11:32:54Z</time></trkpt><trkpt lat="42.006491345582084" lon="14.976450125845073"><ele>16.333333333333336</ele><time>2026-03-22T11:32:55Z</time></trkpt><trkpt lat="42.006521755155205" lon="14.97624109788574"><ele>17.0</ele><time>2026-03-22T11:32:56Z</time></trkpt><trkpt lat="42.006561238699156" lon="14.976056896926295"><ele>17.0</ele><time>2026-03-22T11:32:57Z</time></trkpt><trkpt lat="42.00658977759226" lon="14.97586116730068"><ele>17.0</ele><time>2026-03-22T11:32:58Z</time></trkpt><trkpt lat="42.00662038460023" lon="14.975656890430477"><ele>17.0</ele><time>2026-03-22T11:32:59Z</time></trkpt><trkpt lat="42.00665252198016" lon="14.975454766802166"><ele>15.0</ele><time>2026-03-22T11:33:00Z</time></trkpt><trkpt lat="42.006682425749574" lon="14.97525168627872"><ele>13.0</ele><time>2026-03-22T11:33:01Z</time></trkpt><trkpt lat="42.00671265272553" lon="14.975040284907713"><ele>11.0</ele><time>2026-03-22T11:33:02Z</time></trkpt><trkpt lat="42.00674011254927" lon="14.974824425949155"><ele>11.0</ele><time>2026-03-22T11:33:03Z</time></trkpt><trkpt lat="42.00677202006391" lon="14.974609094129903"><ele>11.0</ele><time>2026-03-22T11:33:04Z</time></trkpt><trkpt lat="42.006800552774905" lon="14.974396738000163"><ele>11.0</ele><time>2026-03-22T11:33:05Z</time></trkpt><trkpt lat="42.00683081638283" lon="14.974191541476436"><ele>11.25</ele><time>2026-03-22T11:33:06Z</time></trkpt><trkpt lat="42.0068647886344" lon="14.973998422269734"><ele>11.5</ele><time>2026-03-22T11:33:07Z</time></trkpt><trkpt lat="42.00690373599302" lon="14.973818250667364"><ele>11.75</ele><time>2026-03-22T11:33:08Z</time></trkpt><trkpt lat="42.00694133197295" lon="14.97365715857521"><ele>12.0</ele><time>2026-03-22T11:33:09Z</time></trkpt><trkpt lat="42.00697089751791" lon="14.97349492342705"><ele>11.5</ele><time>2026-03-22T11:33:10Z</time></trkpt><trkpt lat="42.00699893367755" lon="14.973341007356511"><ele>11.0</ele><time>2026-03-22T11:33:11Z</time></trkpt><trkpt lat="42.00702375224732" lon="14.973191333432036"><ele>10.5</ele><time>2026-03-22T11:33:12Z</time></trkpt><trkpt lat="42.007045945045355" lon="14.973042443355665"><ele>10.0</ele><time>2026-03-22T11:33:13Z</time></trkpt><trkpt lat="42.00707025022436" lon="14.972894822834142"><ele>10.0</ele><time>2026-03-22T11:33:14Z</time></trkpt><trkpt lat="42.00709177196661" lon="14.972765478844865"><ele>10.0</ele><time>2026-03-22T11:33:15Z</time></trkpt><trkpt lat="42.007111819519004" lon="14.97264581531728"><ele>10.0</ele><time>2026-03-22T11:33:16Z</time></trkpt><trkpt lat="42.007129443072024" lon="14.972540204376859"><ele>10.0</ele><time>2026-03-22T11:33:17Z</time></trkpt><trkpt lat="42.00714338691708" lon="14.972437654638577"><ele>10.0</ele><time>2026-03-22T11:33:18Z</time></trkpt><trkpt lat="42.00715472024331" lon="14.972340992454635"><ele>10.0</ele><time>2026-03-22T11:33:19Z</time></trkpt><trkpt lat="42.007156889661985" lon="14.972246771020245"><ele>9.833333333333334</ele><time>2026-03-22T11:33:20Z</time></trkpt><trkpt lat="42.00716526372389" lon="14.97215506489427"><ele>9.666666666666668</ele><time>2026-03-22T11:33:21Z</time></trkpt><trkpt lat="42.00716098033915" lon="14.972039033105322"><ele>9.5</ele><time>2026-03-22T11:33:22Z</time></trkpt><trkpt lat="42.00717072876638" lon="14.971916266882586"><ele>9.333333333333334</ele><time>2026-03-22T11:33:23Z</time></trkpt><trkpt lat="42.00717743304046" lon="14.971789571922516"><ele>9.166666666666666</ele><time>2026-03-22T11:33:24Z</time></trkpt><trkpt lat="42.007187183032386" lon="14.97166507027837"><ele>9.0</ele><time>2026-03-22T11:33:25Z</time></trkpt><trkpt lat="42.007195718696735" lon="14.97153808393232"><ele>9.0</ele><time>2026-03-22T11:33:26Z</time></trkpt><trkpt lat="42.00720639205403" lon="14.971408425472058"><ele>9.0</ele><time>2026-03-22T11:33:27Z</time></trkpt><trkpt lat="42.00722322601995" lon="14.971275785555008"><ele>9.0</ele><time>2026-03-22T11:33:28Z</time></trkpt><trkpt lat="42.007247363139" lon="14.97114336625258"><ele>9.0</ele><time>2026-03-22T11:33:29Z</time></trkpt><trkpt lat="42.00727740353395" lon="14.971018117200142"><ele>9.0</ele><time>2026-03-22T11:33:30Z</time></trkpt><trkpt lat="42.00729614815239" lon="14.970894226416743"><ele>8.6</ele><time>2026-03-22T11:33:31Z</time></trkpt><trkpt lat="42.007303324731176" lon="14.970768739692328"><ele>8.2</ele><time>2026-03-22T11:33:32Z</time></trkpt><trkpt lat="42.00731055197775" lon="14.970660393370144"><ele>7.799999999999999</ele><time>2026-03-22T11:33:33Z</time></trkpt><trkpt lat="42.007314051996964" lon="14.970568811048961"><ele>7.3999999999999995</ele><time>2026-03-22T11:33:34Z</time></trkpt><trkpt lat="42.00731760761318" lon="14.970414176181396"><ele>7.0</ele><time>2026-03-22T11:33:36Z</time></trkpt><trkpt lat="42.00726642381975" lon="14.9702512444506"><ele>7.000000000000001</ele><time>2026-03-22T11:33:38Z</time></trkpt><trkpt lat="42.00723923206679" lon="14.970155377849403"><ele>7.0</ele><time>2026-03-22T11:33:39Z</time></trkpt><trkpt lat="42.00723083585857" lon="14.970051027189514"><ele>7.0</ele><time>2026-03-22T11:33:40Z</time></trkpt><trkpt lat="42.00723060186117" lon="14.969944701458157"><ele>7.0</ele><time>2026-03-22T11:33:41Z</time></trkpt><trkpt lat="42.00724001716409" lon="14.96984277017195"><ele>7.000000000000001</ele><time>2026-03-22T11:33:42Z</time></trkpt><trkpt lat="42.00726006108904" lon="14.969725999113521"><ele>7.0</ele><time>2026-03-22T11:33:43Z</time></trkpt><trkpt lat="42.00727790351577" lon="14.969595070379635"><ele>6.6</ele><time>2026-03-22T11:33:44Z</time></trkpt><trkpt lat="42.00729943828277" lon="14.969460706142419"><ele>6.199999999999999</ele><time>2026-03-22T11:33:45Z</time></trkpt><trkpt lat="42.007313543576636" lon="14.96932566326836"><ele>5.8</ele><time>2026-03-22T11:33:46Z</time></trkpt><trkpt lat="42.007326940136096" lon="14.96919912229952"><ele>5.4</ele><time>2026-03-22T11:33:47Z</time></trkpt><trkpt lat="42.007346029102784" lon="14.969067350289688"><ele>5.0</ele><time>2026-03-22T11:33:48Z</time></trkpt><trkpt lat="42.007361724260825" lon="14.968938630749447"><ele>4.8</ele><time>2026-03-22T11:33:49Z</time></trkpt><trkpt lat="42.007377497829495" lon="14.96881815056359"><ele>4.6</ele><time>2026-03-22T11:33:50Z</time></trkpt><trkpt lat="42.007393219638196" lon="14.968691150300696"><ele>4.4</ele><time>2026-03-22T11:33:51Z</time></trkpt><trkpt lat="42.00740917139857" lon="14.968559771366866"><ele>4.2</ele><time>2026-03-22T11:33:52Z</time></trkpt><trkpt lat="42.00742884264854" lon="14.968440082003175"><ele>4.0</ele><time>2026-03-22T11:33:53Z</time></trkpt><trkpt lat="42.00744052605814" lon="14.968307036987241"><ele>4.0</ele><time>2026-03-22T11:33:54Z</time></trkpt><trkpt lat="42.00746211196935" lon="14.968168171331483"><ele>4.0</ele><time>2026-03-22T11:33:55Z</time></trkpt><trkpt lat="42.007481120925185" lon="14.968023227638511"><ele>4.0</ele><time>2026-03-22T11:33:56Z</time></trkpt><trkpt lat="42.00749998612495" lon="14.967880086347403"><ele>4.0</ele><time>2026-03-22T11:33:57Z</time></trkpt><trkpt lat="42.007522514340515" lon="14.967732975620915"><ele>4.0</ele><time>2026-03-22T11:33:58Z</time></trkpt><trkpt lat="42.00753226533278" lon="14.967581792359848"><ele>5.0</ele><time>2026-03-22T11:33:59Z</time></trkpt><trkpt lat="42.00755344054567" lon="14.967429790133766"><ele>6.0</ele><time>2026-03-22T11:34:00Z</time></trkpt><trkpt lat="42.007575814657" lon="14.967283557201831"><ele>7.0</ele><time>2026-03-22T11:34:01Z</time></trkpt><trkpt lat="42.00759486501831" lon="14.967139795890036"><ele>8.0</ele><time>2026-03-22T11:34:02Z</time></trkpt><trkpt lat="42.00761000928481" lon="14.966998940591035"><ele>9.0</ele><time>2026-03-22T11:34:03Z</time></trkpt><trkpt lat="42.00762864058025" lon="14.966864502121052"><ele>9.0</ele><time>2026-03-22T11:34:04Z</time></trkpt><trkpt lat="42.00764844668451" lon="14.966737709419531"><ele>9.0</ele><time>2026-03-22T11:34:05Z</time></trkpt><trkpt lat="42.00766541545293" lon="14.966615927144254"><ele>9.0</ele><time>2026-03-22T11:34:06Z</time></trkpt><trkpt lat="42.00768352829954" lon="14.96649123517487"><ele>9.0</ele><time>2026-03-22T11:34:07Z</time></trkpt><trkpt lat="42.00769787385602" lon="14.966370670740604"><ele>9.0</ele><time>2026-03-22T11:34:08Z</time></trkpt><trkpt lat="42.0077164339488" lon="14.966247234964122"><ele>8.8</ele><time>2026-03-22T11:34:09Z</time></trkpt><trkpt lat="42.0077327016578" lon="14.966121973482753"><ele>8.600000000000001</ele><time>2026-03-22T11:34:10Z</time></trkpt><trkpt lat="42.007743144453" lon="14.96599391932212"><ele>8.4</ele><time>2026-03-22T11:34:11Z</time></trkpt><trkpt lat="42.00775835908519" lon="14.965863329580033"><ele>8.200000000000001</ele><time>2026-03-22T11:34:12Z</time></trkpt><trkpt lat="42.007778233758124" lon="14.965735631055855"><ele>8.0</ele><time>2026-03-22T11:34:13Z</time></trkpt><trkpt lat="42.00779434507096" lon="14.965617313123275"><ele>7.999999999999999</ele><time>2026-03-22T11:34:14Z</time></trkpt><trkpt lat="42.00781316078239" lon="14.965501644133075"><ele>8.0</ele><time>2026-03-22T11:34:15Z</time></trkpt><trkpt lat="42.00783520237184" lon="14.965391179891318"><ele>8.0</ele><time>2026-03-22T11:34:16Z</time></trkpt><trkpt lat="42.00786373322745" lon="14.965296376398337"><ele>8.0</ele><time>2026-03-22T11:34:17Z</time></trkpt><trkpt lat="42.00789359480793" lon="14.965209949701812"><ele>7.999999999999999</ele><time>2026-03-22T11:34:18Z</time></trkpt><trkpt lat="42.00792678344581" lon="14.965113005604687"><ele>8.0</ele><time>2026-03-22T11:34:19Z</time></trkpt><trkpt lat="42.00797324599276" lon="14.965031782043916"><ele>8.200000000000001</ele><time>2026-03-22T11:34:20Z</time></trkpt><trkpt lat="42.008026267650024" lon="14.964955279255994"><ele>8.4</ele><time>2026-03-22T11:34:21Z</time></trkpt><trkpt lat="42.008048170389976" lon="14.96484907855796"><ele>8.600000000000001</ele><time>2026-03-22T11:34:22Z</time></trkpt><trkpt lat="42.00807090454551" lon="14.964716279092498"><ele>8.8</ele><time>2026-03-22T11:34:23Z</time></trkpt><trkpt lat="42.00809621546748" lon="14.9645881212522"><ele>9.0</ele><time>2026-03-22T11:34:24Z</time></trkpt><trkpt lat="42.008115485816894" lon="14.964455885510162"><ele>9.0</ele><time>2026-03-22T11:34:25Z</time></trkpt><trkpt lat="42.00812110939674" lon="14.964282858199565"><ele>9.0</ele><time>2026-03-22T11:34:26Z</time></trkpt><trkpt lat="42.00813216765165" lon="14.964049302478777"><ele>9.0</ele><time>2026-03-22T11:34:27Z</time></trkpt><trkpt lat="42.008160561770666" lon="14.963800418889265"><ele>9.0</ele><time>2026-03-22T11:34:28Z</time></trkpt><trkpt lat="42.00818813942398" lon="14.963557735265974"><ele>9.0</ele><time>2026-03-22T11:34:29Z</time></trkpt><trkpt lat="42.008214281126484" lon="14.96332421297017"><ele>9.0</ele><time>2026-03-22T11:34:30Z</time></trkpt><trkpt lat="42.008241053864744" lon="14.963097481116268"><ele>9.0</ele><time>2026-03-22T11:34:31Z</time></trkpt><trkpt lat="42.008266115474136" lon="14.962868825876457"><ele>9.0</ele><time>2026-03-22T11:34:32Z</time></trkpt><trkpt lat="42.00828387310412" lon="14.96264410339373"><ele>9.0</ele><time>2026-03-22T11:34:33Z</time></trkpt><trkpt lat="42.00830263543819" lon="14.962417013159323"><ele>8.666666666666666</ele><time>2026-03-22T11:34:34Z</time></trkpt><trkpt lat="42.00832552869086" lon="14.96219246130827"><ele>8.333333333333332</ele><time>2026-03-22T11:34:35Z</time></trkpt><trkpt lat="42.00834470217203" lon="14.961973911861456"><ele>8.0</ele><time>2026-03-22T11:34:36Z</time></trkpt><trkpt lat="42.00835822869234" lon="14.96174977165169"><ele>7.666666666666666</ele><time>2026-03-22T11:34:37Z</time></trkpt><trkpt lat="42.0083656161402" lon="14.961530228096528"><ele>7.333333333333334</ele><time>2026-03-22T11:34:38Z</time></trkpt><trkpt lat="42.008356680054554" lon="14.961308941579555"><ele>7.0</ele><time>2026-03-22T11:34:39Z</time></trkpt><trkpt lat="42.008407159405934" lon="14.96111713831668"><ele>7.0</ele><time>2026-03-22T11:34:40Z</time></trkpt><trkpt lat="42.008421732945436" lon="14.960929313090551"><ele>7.0</ele><time>2026-03-22T11:34:41Z</time></trkpt><trkpt lat="42.008432420564496" lon="14.960767765421393"><ele>7.0</ele><time>2026-03-22T11:34:42Z</time></trkpt><trkpt lat="42.00844505703473" lon="14.960625646254407"><ele>7.0</ele><time>2026-03-22T11:34:43Z</time></trkpt><trkpt lat="42.008463918391435" lon="14.960499615852424"><ele>6.8</ele><time>2026-03-22T11:34:44Z</time></trkpt><trkpt lat="42.00849014317091" lon="14.960385494040676"><ele>6.6</ele><time>2026-03-22T11:34:45Z</time></trkpt><trkpt lat="42.00852802929018" lon="14.960272230779093"><ele>6.3999999999999995</ele><time>2026-03-22T11:34:46Z</time></trkpt><trkpt lat="42.00855219027631" lon="14.960132284227793"><ele>6.199999999999999</ele><time>2026-03-22T11:34:47Z</time></trkpt><trkpt lat="42.008554312770784" lon="14.959971005000746"><ele>6.0</ele><time>2026-03-22T11:34:48Z</time></trkpt><trkpt lat="42.008556813874286" lon="14.959801023029742"><ele>6.666666666666666</ele><time>2026-03-22T11:34:49Z</time></trkpt><trkpt lat="42.00854421127032" lon="14.959621699282504"><ele>7.333333333333333</ele><time>2026-03-22T11:34:50Z</time></trkpt><trkpt lat="42.00858113561447" lon="14.959415076039793"><ele>8.0</ele><time>2026-03-22T11:34:51Z</time></trkpt><trkpt lat="42.008608905207595" lon="14.95917712594892"><ele>9.0</ele><time>2026-03-22T11:34:52Z</time></trkpt><trkpt lat="42.00863943278474" lon="14.958951014802375"><ele>10.0</ele><time>2026-03-22T11:34:53Z</time></trkpt><trkpt lat="42.0086718191134" lon="14.958724380100746"><ele>11.0</ele><time>2026-03-22T11:34:54Z</time></trkpt><trkpt lat="42.00872465756784" lon="14.958480433362546"><ele>13.0</ele><time>2026-03-22T11:34:55Z</time></trkpt><trkpt lat="42.008792626395795" lon="14.958235566366348"><ele>15.0</ele><time>2026-03-22T11:34:56Z</time></trkpt><trkpt lat="42.00892989721318" lon="14.957722063300176"><ele>17.0</ele><time>2026-03-22T11:34:58Z</time></trkpt><trkpt lat="42.008999408695395" lon="14.957457092185715"><ele>19.0</ele><time>2026-03-22T11:34:59Z</time></trkpt><trkpt lat="42.00906645813601" lon="14.957190503234497"><ele>21.0</ele><time>2026-03-22T11:35:00Z</time></trkpt><trkpt lat="42.00912511915318" lon="14.956932765752166"><ele>17.666666666666668</ele><time>2026-03-22T11:35:01Z</time></trkpt><trkpt lat="42.009182994152084" lon="14.9566653617098"><ele>14.333333333333332</ele><time>2026-03-22T11:35:02Z</time></trkpt><trkpt lat="42.009245005201116" lon="14.956407858496162"><ele>11.0</ele><time>2026-03-22T11:35:03Z</time></trkpt><trkpt lat="42.009307857272404" lon="14.956148411188813"><ele>11.0</ele><time>2026-03-22T11:35:04Z</time></trkpt><trkpt lat="42.00936921559593" lon="14.955888157503502"><ele>11.0</ele><time>2026-03-22T11:35:05Z</time></trkpt><trkpt lat="42.00942529147616" lon="14.955646932310865"><ele>11.0</ele><time>2026-03-22T11:35:06Z</time></trkpt><trkpt lat="42.009478541393825" lon="14.955414963761912"><ele>12.0</ele><time>2026-03-22T11:35:07Z</time></trkpt><trkpt lat="42.009529247140144" lon="14.955190629542091"><ele>13.0</ele><time>2026-03-22T11:35:08Z</time></trkpt><trkpt lat="42.009583379873256" lon="14.954968548708713"><ele>14.0</ele><time>2026-03-22T11:35:09Z</time></trkpt><trkpt lat="42.009639051256336" lon="14.954740657598682"><ele>14.333333333333334</ele><time>2026-03-22T11:35:10Z</time></trkpt><trkpt lat="42.009698029817386" lon="14.954498521665519"><ele>14.666666666666668</ele><time>2026-03-22T11:35:11Z</time></trkpt><trkpt lat="42.009755654757264" lon="14.954248236644734"><ele>15.0</ele><time>2026-03-22T11:35:12Z</time></trkpt><trkpt lat="42.009813806212755" lon="14.954000069942376"><ele>15.666666666666668</ele><time>2026-03-22T11:35:13Z</time></trkpt><trkpt lat="42.00987124309295" lon="14.953751348892844"><ele>16.333333333333336</ele><time>2026-03-22T11:35:14Z</time></trkpt><trkpt lat="42.00992873847668" lon="14.953504502334987"><ele>17.0</ele><time>2026-03-22T11:35:15Z</time></trkpt><trkpt lat="42.00998935843855" lon="14.953258715725731"><ele>16.0</ele><time>2026-03-22T11:35:16Z</time></trkpt><trkpt lat="42.01005141366389" lon="14.953018762873599"><ele>15.0</ele><time>2026-03-22T11:35:17Z</time></trkpt><trkpt lat="42.0101080277602" lon="14.952767579551793"><ele>14.0</ele><time>2026-03-22T11:35:18Z</time></trkpt><trkpt lat="42.010165294971145" lon="14.952522984174768"><ele>14.0</ele><time>2026-03-22T11:35:19Z</time></trkpt><trkpt lat="42.010221552765195" lon="14.952278514272567"><ele>14.0</ele><time>2026-03-22T11:35:20Z</time></trkpt><trkpt lat="42.01028037496117" lon="14.9520396212391"><ele>14.0</ele><time>2026-03-22T11:35:21Z</time></trkpt><trkpt lat="42.01034043866703" lon="14.9517979301868"><ele>14.666666666666668</ele><time>2026-03-22T11:35:22Z</time></trkpt><trkpt lat="42.01039745677684" lon="14.951560681672271"><ele>15.333333333333332</ele><time>2026-03-22T11:35:23Z</time></trkpt><trkpt lat="42.01045374725724" lon="14.95132255599493"><ele>16.0</ele><time>2026-03-22T11:35:24Z</time></trkpt><trkpt lat="42.01051156558994" lon="14.951089177666626"><ele>17.0</ele><time>2026-03-22T11:35:25Z</time></trkpt><trkpt lat="42.010569020859435" lon="14.950857894270701"><ele>18.0</ele><time>2026-03-22T11:35:26Z</time></trkpt><trkpt lat="42.01062325234264" lon="14.95062674464795"><ele>19.0</ele><time>2026-03-22T11:35:27Z</time></trkpt><trkpt lat="42.0106746419934" lon="14.950397226053411"><ele>19.0</ele><time>2026-03-22T11:35:28Z</time></trkpt><trkpt lat="42.01072119152948" lon="14.950179915444123"><ele>19.0</ele><time>2026-03-22T11:35:29Z</time></trkpt><trkpt lat="42.01076025727973" lon="14.949973499994655"><ele>19.0</ele><time>2026-03-22T11:35:30Z</time></trkpt><trkpt lat="42.01080770220668" lon="14.949785205394669"><ele>17.5</ele><time>2026-03-22T11:35:31Z</time></trkpt><trkpt lat="42.01083256680173" lon="14.949637040474709"><ele>16.0</ele><time>2026-03-22T11:35:32Z</time></trkpt><trkpt lat="42.01085985033658" lon="14.949491361217659"><ele>14.5</ele><time>2026-03-22T11:35:33Z</time></trkpt><trkpt lat="42.01088631833901" lon="14.949332327958011"><ele>13.0</ele><time>2026-03-22T11:35:34Z</time></trkpt><trkpt lat="42.01092092539455" lon="14.949168477795357"><ele>13.0</ele><time>2026-03-22T11:35:35Z</time></trkpt><trkpt lat="42.01095856354047" lon="14.948962056132784"><ele>13.0</ele><time>2026-03-22T11:35:36Z</time></trkpt><trkpt lat="42.01099988573603" lon="14.948733827824586"><ele>13.0</ele><time>2026-03-22T11:35:37Z</time></trkpt><trkpt lat="42.011045169869554" lon="14.94845766161725"><ele>13.0</ele><time>2026-03-22T11:35:38Z</time></trkpt><trkpt lat="42.01109621588" lon="14.948148219688035"><ele>13.0</ele><time>2026-03-22T11:35:39Z</time></trkpt><trkpt lat="42.01114533062618" lon="14.947822364015645"><ele>14.5</ele><time>2026-03-22T11:35:40Z</time></trkpt><trkpt lat="42.011202169580706" lon="14.947511443346697"><ele>16.0</ele><time>2026-03-22T11:35:41Z</time></trkpt><trkpt lat="42.01125847263377" lon="14.94720299661307"><ele>16.0</ele><time>2026-03-22T11:35:42Z</time></trkpt><trkpt lat="42.01132563633166" lon="14.946889003724618"><ele>16.0</ele><time>2026-03-22T11:35:43Z</time></trkpt><trkpt lat="42.01138712437179" lon="14.946580321776663"><ele>17.5</ele><time>2026-03-22T11:35:44Z</time></trkpt><trkpt lat="42.011443729867395" lon="14.94627710694317"><ele>19.0</ele><time>2026-03-22T11:35:45Z</time></trkpt><trkpt lat="42.01149263291434" lon="14.94597600216624"><ele>21.0</ele><time>2026-03-22T11:35:46Z</time></trkpt><trkpt lat="42.011545235351015" lon="14.945676625654583"><ele>23.0</ele><time>2026-03-22T11:35:47Z</time></trkpt><trkpt lat="42.01159840400651" lon="14.945383136280846"><ele>23.0</ele><time>2026-03-22T11:35:48Z</time></trkpt><trkpt lat="42.011650955342255" lon="14.945081821290204"><ele>23.0</ele><time>2026-03-22T11:35:49Z</time></trkpt><trkpt lat="42.01170290349828" lon="14.944772301442589"><ele>19.5</ele><time>2026-03-22T11:35:50Z</time></trkpt><trkpt lat="42.011764209029934" lon="14.94445854150813"><ele>16.0</ele><time>2026-03-22T11:35:51Z</time></trkpt><trkpt lat="42.01182337520155" lon="14.944145101435035"><ele>16.0</ele><time>2026-03-22T11:35:52Z</time></trkpt><trkpt lat="42.01187748269676" lon="14.94382249425019"><ele>16.0</ele><time>2026-03-22T11:35:53Z</time></trkpt><trkpt lat="42.011933837738255" lon="14.943503596027078"><ele>16.0</ele><time>2026-03-22T11:35:54Z</time></trkpt><trkpt lat="42.01199370015274" lon="14.943185559941812"><ele>16.0</ele><time>2026-03-22T11:35:55Z</time></trkpt><trkpt lat="42.01205002059247" lon="14.942871506423158"><ele>16.0</ele><time>2026-03-22T11:35:56Z</time></trkpt><trkpt lat="42.01210402524161" lon="14.94255611468185"><ele>16.0</ele><time>2026-03-22T11:35:57Z</time></trkpt><trkpt lat="42.0121582369627" lon="14.942239745838508"><ele>16.5</ele><time>2026-03-22T11:35:58Z</time></trkpt><trkpt lat="42.01221788803832" lon="14.94192353422278"><ele>17.0</ele><time>2026-03-22T11:35:59Z</time></trkpt><trkpt lat="42.012273276040915" lon="14.941601782101102"><ele>17.0</ele><time>2026-03-22T11:36:00Z</time></trkpt><trkpt lat="42.012326730164325" lon="14.941289792940504"><ele>17.0</ele><time>2026-03-22T11:36:01Z</time></trkpt><trkpt lat="42.012380041561435" lon="14.940988341067806"><ele>17.0</ele><time>2026-03-22T11:36:02Z</time></trkpt><trkpt lat="42.01243589313605" lon="14.940706130656192"><ele>17.0</ele><time>2026-03-22T11:36:03Z</time></trkpt><trkpt lat="42.01247811891821" lon="14.940456197625094"><ele>17.0</ele><time>2026-03-22T11:36:04Z</time></trkpt><trkpt lat="42.012518166692466" lon="14.940238635934811"><ele>14.333333333333334</ele><time>2026-03-22T11:36:05Z</time></trkpt><trkpt lat="42.01255595715001" lon="14.940036378363466"><ele>11.666666666666668</ele><time>2026-03-22T11:36:06Z</time></trkpt><trkpt lat="42.012590847833074" lon="14.939841426062834"><ele>9.0</ele><time>2026-03-22T11:36:07Z</time></trkpt><trkpt lat="42.012639584498416" lon="14.939619145172971"><ele>9.0</ele><time>2026-03-22T11:36:08Z</time></trkpt><trkpt lat="42.012693603602365" lon="14.939367440828413"><ele>9.0</ele><time>2026-03-22T11:36:09Z</time></trkpt><trkpt lat="42.01272170443443" lon="14.939108987432137"><ele>9.0</ele><time>2026-03-22T11:36:10Z</time></trkpt><trkpt lat="42.01276465852605" lon="14.938838791164256"><ele>9.666666666666666</ele><time>2026-03-22T11:36:11Z</time></trkpt><trkpt lat="42.0128181488583" lon="14.938556093223946"><ele>10.333333333333332</ele><time>2026-03-22T11:36:12Z</time></trkpt><trkpt lat="42.01287301199196" lon="14.938262730829777"><ele>11.0</ele><time>2026-03-22T11:36:13Z</time></trkpt><trkpt lat="42.01292620921575" lon="14.937971659525685"><ele>11.666666666666666</ele><time>2026-03-22T11:36:14Z</time></trkpt><trkpt lat="42.01297799653174" lon="14.937681090243112"><ele>12.333333333333332</ele><time>2026-03-22T11:36:15Z</time></trkpt><trkpt lat="42.013030677120184" lon="14.937383746045093"><ele>13.0</ele><time>2026-03-22T11:36:16Z</time></trkpt><trkpt lat="42.01308511045917" lon="14.937077626782436"><ele>14.0</ele><time>2026-03-22T11:36:17Z</time></trkpt><trkpt lat="42.01313960604408" lon="14.936768780220424"><ele>15.0</ele><time>2026-03-22T11:36:18Z</time></trkpt><trkpt lat="42.01319604725392" lon="14.936452604250785"><ele>16.0</ele><time>2026-03-22T11:36:19Z</time></trkpt><trkpt lat="42.013253392201136" lon="14.936134464419224"><ele>17.0</ele><time>2026-03-22T11:36:20Z</time></trkpt><trkpt lat="42.013310179489714" lon="14.935824439911546"><ele>15.0</ele><time>2026-03-22T11:36:21Z</time></trkpt><trkpt lat="42.01336475881673" lon="14.935519678092405"><ele>13.0</ele><time>2026-03-22T11:36:22Z</time></trkpt><trkpt lat="42.01341677702954" lon="14.935215653691452"><ele>13.333333333333332</ele><time>2026-03-22T11:36:23Z</time></trkpt><trkpt lat="42.013469623838034" lon="14.93491726576733"><ele>13.666666666666668</ele><time>2026-03-22T11:36:24Z</time></trkpt><trkpt lat="42.01352075397787" lon="14.934639547148358"><ele>14.0</ele><time>2026-03-22T11:36:25Z</time></trkpt><trkpt lat="42.013568139963134" lon="14.934379172812363"><ele>14.0</ele><time>2026-03-22T11:36:26Z</time></trkpt><trkpt lat="42.013611190199995" lon="14.934128317493162"><ele>14.0</ele><time>2026-03-22T11:36:27Z</time></trkpt><trkpt lat="42.01365167394118" lon="14.933890551205408"><ele>14.0</ele><time>2026-03-22T11:36:28Z</time></trkpt><trkpt lat="42.01369633902074" lon="14.933666643875155"><ele>14.0</ele><time>2026-03-22T11:36:29Z</time></trkpt><trkpt lat="42.013737028302195" lon="14.933456276866401"><ele>14.0</ele><time>2026-03-22T11:36:30Z</time></trkpt><trkpt lat="42.01377898177068" lon="14.933244200632261"><ele>14.0</ele><time>2026-03-22T11:36:31Z</time></trkpt><trkpt lat="42.01382076273995" lon="14.933008729708291"><ele>14.333333333333334</ele><time>2026-03-22T11:36:32Z</time></trkpt><trkpt lat="42.01386804145658" lon="14.932744141013837"><ele>14.666666666666668</ele><time>2026-03-22T11:36:33Z</time></trkpt><trkpt lat="42.01391362884645" lon="14.932477772132485"><ele>15.0</ele><time>2026-03-22T11:36:34Z</time></trkpt><trkpt lat="42.01396294908676" lon="14.93219982015732"><ele>16.0</ele><time>2026-03-22T11:36:35Z</time></trkpt><trkpt lat="42.01401622574236" lon="14.931909154678463"><ele>17.0</ele><time>2026-03-22T11:36:36Z</time></trkpt><trkpt lat="42.014072560173226" lon="14.931609474893712"><ele>17.5</ele><time>2026-03-22T11:36:37Z</time></trkpt><trkpt lat="42.014128606217184" lon="14.931303513820053"><ele>18.0</ele><time>2026-03-22T11:36:38Z</time></trkpt><trkpt lat="42.014184870981154" lon="14.930993354853152"><ele>15.0</ele><time>2026-03-22T11:36:39Z</time></trkpt><trkpt lat="42.01423954162619" lon="14.9306813854953"><ele>12.0</ele><time>2026-03-22T11:36:40Z</time></trkpt><trkpt lat="42.01429535996223" lon="14.930370919216259"><ele>12.0</ele><time>2026-03-22T11:36:41Z</time></trkpt><trkpt lat="42.0143505047769" lon="14.93005994403706"><ele>12.0</ele><time>2026-03-22T11:36:42Z</time></trkpt><trkpt lat="42.01440625598833" lon="14.929750932457653"><ele>12.333333333333332</ele><time>2026-03-22T11:36:43Z</time></trkpt><trkpt lat="42.014460374062836" lon="14.929447001674395"><ele>12.666666666666666</ele><time>2026-03-22T11:36:44Z</time></trkpt><trkpt lat="42.014510003716275" lon="14.92916299092514"><ele>13.0</ele><time>2026-03-22T11:36:45Z</time></trkpt><trkpt lat="42.014557503470236" lon="14.928896886772074"><ele>13.666666666666666</ele><time>2026-03-22T11:36:46Z</time></trkpt><trkpt lat="42.0146003226024" lon="14.928659843100547"><ele>14.333333333333332</ele><time>2026-03-22T11:36:47Z</time></trkpt><trkpt lat="42.014640089919276" lon="14.928443263157616"><ele>15.0</ele><time>2026-03-22T11:36:48Z</time></trkpt><trkpt lat="42.01467694922392" lon="14.928253173985695"><ele>15.25</ele><time>2026-03-22T11:36:49Z</time></trkpt><trkpt lat="42.01470706185716" lon="14.928080972847228"><ele>15.5</ele><time>2026-03-22T11:36:50Z</time></trkpt><trkpt lat="42.0147424101206" lon="14.927924493237743"><ele>15.75</ele><time>2026-03-22T11:36:51Z</time></trkpt><trkpt lat="42.01478463149848" lon="14.927748236139532"><ele>16.0</ele><time>2026-03-22T11:36:52Z</time></trkpt><trkpt lat="42.01481359829496" lon="14.927535820242863"><ele>16.0</ele><time>2026-03-22T11:36:53Z</time></trkpt><trkpt lat="42.014853083971225" lon="14.927294734242393"><ele>16.0</ele><time>2026-03-22T11:36:54Z</time></trkpt><trkpt lat="42.01489965330274" lon="14.927045438784978"><ele>16.0</ele><time>2026-03-22T11:36:55Z</time></trkpt><trkpt lat="42.01494935076417" lon="14.926795233980322"><ele>13.666666666666666</ele><time>2026-03-22T11:36:56Z</time></trkpt><trkpt lat="42.01499232931746" lon="14.926541793910616"><ele>11.333333333333332</ele><time>2026-03-22T11:36:57Z</time></trkpt><trkpt lat="42.01503640031033" lon="14.926266484836491"><ele>9.0</ele><time>2026-03-22T11:36:58Z</time></trkpt><trkpt lat="42.01509203366694" lon="14.925980780884244"><ele>10.0</ele><time>2026-03-22T11:36:59Z</time></trkpt><trkpt lat="42.015148273721756" lon="14.925684903491929"><ele>11.0</ele><time>2026-03-22T11:37:00Z</time></trkpt><trkpt lat="42.01520264738545" lon="14.92537591546882"><ele>11.0</ele><time>2026-03-22T11:37:01Z</time></trkpt><trkpt lat="42.01525835537778" lon="14.925062923061798"><ele>11.0</ele><time>2026-03-22T11:37:02Z</time></trkpt><trkpt lat="42.01531545214446" lon="14.924742265334118"><ele>11.5</ele><time>2026-03-22T11:37:03Z</time></trkpt><trkpt lat="42.01537484681994" lon="14.924420482418771"><ele>12.0</ele><time>2026-03-22T11:37:04Z</time></trkpt><trkpt lat="42.01543315180811" lon="14.924097275969455"><ele>14.0</ele><time>2026-03-22T11:37:05Z</time></trkpt><trkpt lat="42.01549024715831" lon="14.923778911572207"><ele>16.0</ele><time>2026-03-22T11:37:06Z</time></trkpt><trkpt lat="42.0155472873085" lon="14.923465376155203"><ele>16.0</ele><time>2026-03-22T11:37:07Z</time></trkpt><trkpt lat="42.0156016292767" lon="14.923164783072824"><ele>16.0</ele><time>2026-03-22T11:37:08Z</time></trkpt><trkpt lat="42.01565619007007" lon="14.922869477003173"><ele>16.0</ele><time>2026-03-22T11:37:09Z</time></trkpt><trkpt lat="42.01571256133078" lon="14.92257773127427"><ele>16.0</ele><time>2026-03-22T11:37:10Z</time></trkpt><trkpt lat="42.015764996670974" lon="14.922287287391464"><ele>16.0</ele><time>2026-03-22T11:37:11Z</time></trkpt><trkpt lat="42.015815275355585" lon="14.922008704398827"><ele>14.0</ele><time>2026-03-22T11:37:12Z</time></trkpt><trkpt lat="42.01586382946735" lon="14.921745980656288"><ele>12.0</ele><time>2026-03-22T11:37:13Z</time></trkpt><trkpt lat="42.01591138081054" lon="14.921496509416349"><ele>10.0</ele><time>2026-03-22T11:37:14Z</time></trkpt><trkpt lat="42.0159612546871" lon="14.921218199260547"><ele>10.0</ele><time>2026-03-22T11:37:15Z</time></trkpt><trkpt lat="42.016008311549534" lon="14.920924283853475"><ele>10.0</ele><time>2026-03-22T11:37:16Z</time></trkpt><trkpt lat="42.0160588551101" lon="14.920637848959737"><ele>10.0</ele><time>2026-03-22T11:37:17Z</time></trkpt><trkpt lat="42.01611333838795" lon="14.920355721733188"><ele>10.0</ele><time>2026-03-22T11:37:18Z</time></trkpt><trkpt lat="42.01616574163673" lon="14.920070110252093"><ele>10.0</ele><time>2026-03-22T11:37:19Z</time></trkpt><trkpt lat="42.01621699311071" lon="14.91977992404176"><ele>10.0</ele><time>2026-03-22T11:37:20Z</time></trkpt><trkpt lat="42.016266497062745" lon="14.9194866839482"><ele>12.5</ele><time>2026-03-22T11:37:21Z</time></trkpt><trkpt lat="42.0163201228779" lon="14.919192015366896"><ele>15.0</ele><time>2026-03-22T11:37:22Z</time></trkpt><trkpt lat="42.016376914193295" lon="14.91889733637205"><ele>15.0</ele><time>2026-03-22T11:37:23Z</time></trkpt><trkpt lat="42.0164302960608" lon="14.91860381606461"><ele>15.0</ele><time>2026-03-22T11:37:24Z</time></trkpt><trkpt lat="42.01647850414982" lon="14.918312152423884"><ele>15.0</ele><time>2026-03-22T11:37:25Z</time></trkpt><trkpt lat="42.0165236033264" lon="14.918047355684159"><ele>15.333333333333332</ele><time>2026-03-22T11:37:26Z</time></trkpt><trkpt lat="42.016566619331776" lon="14.917802153309927"><ele>15.666666666666666</ele><time>2026-03-22T11:37:27Z</time></trkpt><trkpt lat="42.016617185811675" lon="14.917557898889372"><ele>16.0</ele><time>2026-03-22T11:37:28Z</time></trkpt><trkpt lat="42.016681386176394" lon="14.917336824107917"><ele>14.0</ele><time>2026-03-22T11:37:29Z</time></trkpt><trkpt lat="42.0167070643637" lon="14.917070265450329"><ele>12.0</ele><time>2026-03-22T11:37:30Z</time></trkpt><trkpt lat="42.01675125933561" lon="14.916794520376497"><ele>10.0</ele><time>2026-03-22T11:37:31Z</time></trkpt><trkpt lat="42.0168091385011" lon="14.916501533722137"><ele>10.0</ele><time>2026-03-22T11:37:32Z</time></trkpt><trkpt lat="42.016871248802026" lon="14.916197819004857"><ele>10.0</ele><time>2026-03-22T11:37:33Z</time></trkpt><trkpt lat="42.01692836575159" lon="14.915875229296288"><ele>10.0</ele><time>2026-03-22T11:37:34Z</time></trkpt><trkpt lat="42.01698239192152" lon="14.91554666996243"><ele>10.0</ele><time>2026-03-22T11:37:35Z</time></trkpt><trkpt lat="42.01704239821934" lon="14.915222386291305"><ele>10.5</ele><time>2026-03-22T11:37:36Z</time></trkpt><trkpt lat="42.01709985498472" lon="14.914896782607768"><ele>11.0</ele><time>2026-03-22T11:37:37Z</time></trkpt><trkpt lat="42.01715722367608" lon="14.914596046588835"><ele>11.0</ele><time>2026-03-22T11:37:38Z</time></trkpt><trkpt lat="42.01720579328" lon="14.914304719174675"><ele>11.0</ele><time>2026-03-22T11:37:39Z</time></trkpt><trkpt lat="42.017257781532756" lon="14.914020038233552"><ele>11.0</ele><time>2026-03-22T11:37:40Z</time></trkpt><trkpt lat="42.017313375405536" lon="14.913734570389572"><ele>11.333333333333332</ele><time>2026-03-22T11:37:41Z</time></trkpt><trkpt lat="42.017364368272496" lon="14.913456401563552"><ele>11.666666666666666</ele><time>2026-03-22T11:37:42Z</time></trkpt><trkpt lat="42.01741820240774" lon="14.913170453252507"><ele>12.0</ele><time>2026-03-22T11:37:43Z</time></trkpt><trkpt lat="42.017472958965016" lon="14.91285496464441"><ele>11.5</ele><time>2026-03-22T11:37:44Z</time></trkpt><trkpt lat="42.01752609053129" lon="14.91252498436531"><ele>11.0</ele><time>2026-03-22T11:37:45Z</time></trkpt><trkpt lat="42.0175863639218" lon="14.912187607617811"><ele>11.0</ele><time>2026-03-22T11:37:46Z</time></trkpt><trkpt lat="42.017647936274194" lon="14.911842476108863"><ele>11.0</ele><time>2026-03-22T11:37:47Z</time></trkpt><trkpt lat="42.017713406650266" lon="14.911490028816893"><ele>11.5</ele><time>2026-03-22T11:37:48Z</time></trkpt><trkpt lat="42.01778023229932" lon="14.911135000047105"><ele>12.0</ele><time>2026-03-22T11:37:49Z</time></trkpt><trkpt lat="42.01784384006363" lon="14.910771896165326"><ele>12.5</ele><time>2026-03-22T11:37:50Z</time></trkpt><trkpt lat="42.017909213602344" lon="14.910409359281726"><ele>13.0</ele><time>2026-03-22T11:37:51Z</time></trkpt><trkpt lat="42.01797361371256" lon="14.910044964124753"><ele>14.5</ele><time>2026-03-22T11:37:52Z</time></trkpt><trkpt lat="42.018040993399445" lon="14.909674197183492"><ele>16.0</ele><time>2026-03-22T11:37:53Z</time></trkpt><trkpt lat="42.018103130326615" lon="14.909320151607622"><ele>18.0</ele><time>2026-03-22T11:37:54Z</time></trkpt><trkpt lat="42.018162285076684" lon="14.908991855206509"><ele>20.0</ele><time>2026-03-22T11:37:55Z</time></trkpt><trkpt lat="42.01821886388218" lon="14.908684211082766"><ele>20.333333333333336</ele><time>2026-03-22T11:37:56Z</time></trkpt><trkpt lat="42.018274232656225" lon="14.908391167787093"><ele>20.666666666666668</ele><time>2026-03-22T11:37:57Z</time></trkpt><trkpt lat="42.01832627318074" lon="14.908116622603153"><ele>21.0</ele><time>2026-03-22T11:37:58Z</time></trkpt><trkpt lat="42.01837778982363" lon="14.907836990760652"><ele>16.0</ele><time>2026-03-22T11:37:59Z</time></trkpt><trkpt lat="42.01843561202599" lon="14.907538723507832"><ele>11.0</ele><time>2026-03-22T11:38:00Z</time></trkpt><trkpt lat="42.01849001669568" lon="14.907229926049348"><ele>11.0</ele><time>2026-03-22T11:38:01Z</time></trkpt><trkpt lat="42.018546180077685" lon="14.906917972940013"><ele>11.0</ele><time>2026-03-22T11:38:02Z</time></trkpt><trkpt lat="42.018604552576974" lon="14.906603911620532"><ele>12.5</ele><time>2026-03-22T11:38:03Z</time></trkpt><trkpt lat="42.01866054825853" lon="14.906290226448872"><ele>14.0</ele><time>2026-03-22T11:38:04Z</time></trkpt><trkpt lat="42.01871538520911" lon="14.905971218656076"><ele>14.0</ele><time>2026-03-22T11:38:05Z</time></trkpt><trkpt lat="42.018773586759835" lon="14.90565431334874"><ele>14.0</ele><time>2026-03-22T11:38:06Z</time></trkpt><trkpt lat="42.018835627738504" lon="14.905332800964757"><ele>15.0</ele><time>2026-03-22T11:38:07Z</time></trkpt><trkpt lat="42.01890684965027" lon="14.905012961693863"><ele>16.0</ele><time>2026-03-22T11:38:08Z</time></trkpt><trkpt lat="42.01899234778956" lon="14.904696589129925"><ele>16.0</ele><time>2026-03-22T11:38:09Z</time></trkpt><trkpt lat="42.01908342714462" lon="14.90438731638918"><ele>16.0</ele><time>2026-03-22T11:38:10Z</time></trkpt><trkpt lat="42.019179310143" lon="14.90408938829418"><ele>12.5</ele><time>2026-03-22T11:38:11Z</time></trkpt><trkpt lat="42.019271193143226" lon="14.903805446765293"><ele>9.0</ele><time>2026-03-22T11:38:12Z</time></trkpt><trkpt lat="42.01935474373918" lon="14.90353096659418"><ele>9.0</ele><time>2026-03-22T11:38:13Z</time></trkpt><trkpt lat="42.01943749594021" lon="14.903260393685281"><ele>9.0</ele><time>2026-03-22T11:38:14Z</time></trkpt><trkpt lat="42.01952135357963" lon="14.902993411151021"><ele>9.0</ele><time>2026-03-22T11:38:15Z</time></trkpt><trkpt lat="42.0196021684959" lon="14.902731328532361"><ele>10.0</ele><time>2026-03-22T11:38:16Z</time></trkpt><trkpt lat="42.019679263320654" lon="14.902477790204854"><ele>11.0</ele><time>2026-03-22T11:38:17Z</time></trkpt><trkpt lat="42.01974378436983" lon="14.902242679638785"><ele>12.0</ele><time>2026-03-22T11:38:18Z</time></trkpt><trkpt lat="42.019808362173436" lon="14.90203107503941"><ele>12.0</ele><time>2026-03-22T11:38:19Z</time></trkpt><trkpt lat="42.019866468569084" lon="14.901840135584989"><ele>12.0</ele><time>2026-03-22T11:38:20Z</time></trkpt><trkpt lat="42.01991808030007" lon="14.901675255573888"><ele>12.0</ele><time>2026-03-22T11:38:21Z</time></trkpt><trkpt lat="42.01996279002049" lon="14.901533663830616"><ele>12.0</ele><time>2026-03-22T11:38:22Z</time></trkpt><trkpt lat="42.02000499944916" lon="14.901409252566907"><ele>11.4</ele><time>2026-03-22T11:38:23Z</time></trkpt><trkpt lat="42.02005429833092" lon="14.901314616063685"><ele>10.799999999999999</ele><time>2026-03-22T11:38:24Z</time></trkpt><trkpt lat="42.02010896672874" lon="14.901210908983218"><ele>10.2</ele><time>2026-03-22T11:38:25Z</time></trkpt><trkpt lat="42.02015267784899" lon="14.901100761095991"><ele>9.6</ele><time>2026-03-22T11:38:26Z</time></trkpt><trkpt lat="42.02017736532573" lon="14.900968003324332"><ele>9.0</ele><time>2026-03-22T11:38:27Z</time></trkpt><trkpt lat="42.02019904182956" lon="14.90080631464767"><ele>9.0</ele><time>2026-03-22T11:38:28Z</time></trkpt><trkpt lat="42.02023790354109" lon="14.900636184859867"><ele>9.0</ele><time>2026-03-22T11:38:29Z</time></trkpt><trkpt lat="42.02029714178149" lon="14.900464581429118"><ele>9.0</ele><time>2026-03-22T11:38:30Z</time></trkpt><trkpt lat="42.02032527292473" lon="14.90026225298879"><ele>9.0</ele><time>2026-03-22T11:38:31Z</time></trkpt><trkpt lat="42.0203808753236" lon="14.90008648173514"><ele>9.666666666666666</ele><time>2026-03-22T11:38:32Z</time></trkpt><trkpt lat="42.02044513527378" lon="14.899883342077818"><ele>10.333333333333332</ele><time>2026-03-22T11:38:33Z</time></trkpt><trkpt lat="42.02050766623681" lon="14.899665104321686"><ele>11.0</ele><time>2026-03-22T11:38:34Z</time></trkpt><trkpt lat="42.02056469729941" lon="14.89945512081678"><ele>11.0</ele><time>2026-03-22T11:38:35Z</time></trkpt><trkpt lat="42.02061601597339" lon="14.89926616995237"><ele>11.0</ele><time>2026-03-22T11:38:36Z</time></trkpt><trkpt lat="42.020668108124745" lon="14.899074371213075"><ele>11.0</ele><time>2026-03-22T11:38:37Z</time></trkpt><trkpt lat="42.02072166422419" lon="14.898877182345796"><ele>10.0</ele><time>2026-03-22T11:38:38Z</time></trkpt><trkpt lat="42.02084905857248" lon="14.898711280063205"><ele>9.0</ele><time>2026-03-22T11:38:39Z</time></trkpt><trkpt lat="42.0209397608722" lon="14.898533980191775"><ele>8.0</ele><time>2026-03-22T11:38:40Z</time></trkpt><trkpt lat="42.02104176862891" lon="14.898362552500446"><ele>8.0</ele><time>2026-03-22T11:38:41Z</time></trkpt><trkpt lat="42.02115170977451" lon="14.898204609153362"><ele>8.0</ele><time>2026-03-22T11:38:42Z</time></trkpt><trkpt lat="42.021263837343305" lon="14.898048838721252"><ele>8.0</ele><time>2026-03-22T11:38:43Z</time></trkpt><trkpt lat="42.02137119183178" lon="14.897872134082778"><ele>8.0</ele><time>2026-03-22T11:38:44Z</time></trkpt><trkpt lat="42.021458520797246" lon="14.897661555043555"><ele>8.0</ele><time>2026-03-22T11:38:45Z</time></trkpt><trkpt lat="42.021527004790464" lon="14.897428259890031"><ele>8.0</ele><time>2026-03-22T11:38:46Z</time></trkpt><trkpt lat="42.021577449768905" lon="14.897186460387527"><ele>8.333333333333332</ele><time>2026-03-22T11:38:47Z</time></trkpt><trkpt lat="42.021614636127545" lon="14.896940103944015"><ele>8.666666666666666</ele><time>2026-03-22T11:38:48Z</time></trkpt><trkpt lat="42.02165635437142" lon="14.896710917470957"><ele>9.0</ele><time>2026-03-22T11:38:49Z</time></trkpt><trkpt lat="42.02170226449485" lon="14.896500325279609"><ele>8.75</ele><time>2026-03-22T11:38:50Z</time></trkpt><trkpt lat="42.021743948026035" lon="14.896310150892198"><ele>8.5</ele><time>2026-03-22T11:38:51Z</time></trkpt><trkpt lat="42.02178414013333" lon="14.896141030027328"><ele>8.25</ele><time>2026-03-22T11:38:52Z</time></trkpt><trkpt lat="42.02182747403165" lon="14.895936193910638"><ele>8.0</ele><time>2026-03-22T11:38:53Z</time></trkpt><trkpt lat="42.02187762086703" lon="14.895686759567958"><ele>8.0</ele><time>2026-03-22T11:38:54Z</time></trkpt><trkpt lat="42.02193473186164" lon="14.895401992698014"><ele>8.0</ele><time>2026-03-22T11:38:55Z</time></trkpt><trkpt lat="42.02200022289596" lon="14.895100619539155"><ele>9.5</ele><time>2026-03-22T11:38:56Z</time></trkpt><trkpt lat="42.02207517071066" lon="14.894779001899382"><ele>11.0</ele><time>2026-03-22T11:38:57Z</time></trkpt><trkpt lat="42.02215927142386" lon="14.89445443019313"><ele>12.5</ele><time>2026-03-22T11:38:58Z</time></trkpt><trkpt lat="42.022253707839525" lon="14.894113707253888"><ele>14.0</ele><time>2026-03-22T11:38:59Z</time></trkpt><trkpt lat="42.0223543576685" lon="14.893768164092565"><ele>16.0</ele><time>2026-03-22T11:39:00Z</time></trkpt><trkpt lat="42.022463934006666" lon="14.893412444533645"><ele>18.0</ele><time>2026-03-22T11:39:01Z</time></trkpt><trkpt lat="42.022577443969816" lon="14.893047937770605"><ele>14.0</ele><time>2026-03-22T11:39:02Z</time></trkpt><trkpt lat="42.02269231560017" lon="14.892678607696453"><ele>10.0</ele><time>2026-03-22T11:39:03.001Z</time></trkpt><trkpt lat="42.02280828804271" lon="14.892299409157728"><ele>10.0</ele><time>2026-03-22T11:39:04.001Z</time></trkpt><trkpt lat="42.02292556359805" lon="14.89191522132679"><ele>10.0</ele><time>2026-03-22T11:39:05.001Z</time></trkpt><trkpt lat="42.02304444405271" lon="14.891527105292143"><ele>11.5</ele><time>2026-03-22T11:39:06.001Z</time></trkpt><trkpt lat="42.023167307461506" lon="14.89113710456863"><ele>13.0</ele><time>2026-03-22T11:39:07.001Z</time></trkpt><trkpt lat="42.023286585808" lon="14.890744248900056"><ele>13.0</ele><time>2026-03-22T11:39:08.001Z</time></trkpt><trkpt lat="42.02340976513968" lon="14.890345220960292"><ele>13.0</ele><time>2026-03-22T11:39:09.001Z</time></trkpt><trkpt lat="42.0235334488165" lon="14.889942159450731"><ele>13.0</ele><time>2026-03-22T11:39:10.001Z</time></trkpt><trkpt lat="42.02365957177843" lon="14.889538125992669"><ele>13.0</ele><time>2026-03-22T11:39:11.001Z</time></trkpt><trkpt lat="42.02378639082365" lon="14.889131947796473"><ele>15.0</ele><time>2026-03-22T11:39:12.001Z</time></trkpt><trkpt lat="42.02391456440029" lon="14.888725160646802"><ele>17.0</ele><time>2026-03-22T11:39:13.001Z</time></trkpt><trkpt lat="42.02403767982381" lon="14.888335101946977"><ele>13.0</ele><time>2026-03-22T11:39:14.001Z</time></trkpt><trkpt lat="42.024153633543825" lon="14.88797339412772"><ele>9.0</ele><time>2026-03-22T11:39:15.001Z</time></trkpt><trkpt lat="42.02426284886002" lon="14.887626738145498"><ele>11.5</ele><time>2026-03-22T11:39:16.001Z</time></trkpt><trkpt lat="42.02436851408408" lon="14.887286247051833"><ele>14.0</ele><time>2026-03-22T11:39:17.001Z</time></trkpt><trkpt lat="42.02447429731673" lon="14.886951995686253"><ele>15.0</ele><time>2026-03-22T11:39:18.001Z</time></trkpt><trkpt lat="42.024576951452055" lon="14.886619257363858"><ele>16.0</ele><time>2026-03-22T11:39:19.001Z</time></trkpt><trkpt lat="42.02467956832208" lon="14.886279809329897"><ele>16.0</ele><time>2026-03-22T11:39:20Z</time></trkpt><trkpt lat="42.02478201962033" lon="14.88593364034664"><ele>16.0</ele><time>2026-03-22T11:39:21Z</time></trkpt><trkpt lat="42.02488632858206" lon="14.885580839343568"><ele>14.5</ele><time>2026-03-22T11:39:22Z</time></trkpt><trkpt lat="42.024994243260174" lon="14.885225197307365"><ele>13.0</ele><time>2026-03-22T11:39:23Z</time></trkpt><trkpt lat="42.02510431764499" lon="14.884869804245874"><ele>13.0</ele><time>2026-03-22T11:39:24Z</time></trkpt><trkpt lat="42.0252159661184" lon="14.884514449546662"><ele>13.0</ele><time>2026-03-22T11:39:25Z</time></trkpt><trkpt lat="42.025325882963635" lon="14.8841589264678"><ele>14.5</ele><time>2026-03-22T11:39:26Z</time></trkpt><trkpt lat="42.02543445325447" lon="14.883802903473612"><ele>16.0</ele><time>2026-03-22T11:39:27Z</time></trkpt><trkpt lat="42.0255426817421" lon="14.88344593829277"><ele>17.0</ele><time>2026-03-22T11:39:28Z</time></trkpt><trkpt lat="42.02565353708952" lon="14.883087671225722"><ele>18.0</ele><time>2026-03-22T11:39:29Z</time></trkpt><trkpt lat="42.025764845335146" lon="14.882730908466463"><ele>13.0</ele><time>2026-03-22T11:39:30Z</time></trkpt><trkpt lat="42.02587668815773" lon="14.88237525179659"><ele>8.0</ele><time>2026-03-22T11:39:31Z</time></trkpt><trkpt lat="42.02598671704535" lon="14.88202168387923"><ele>9.0</ele><time>2026-03-22T11:39:32Z</time></trkpt><trkpt lat="42.02609491850208" lon="14.8816710769751"><ele>10.0</ele><time>2026-03-22T11:39:33Z</time></trkpt><trkpt lat="42.02620503821334" lon="14.881320861004061"><ele>10.0</ele><time>2026-03-22T11:39:34Z</time></trkpt><trkpt lat="42.026318370041196" lon="14.880972383815491"><ele>10.0</ele><time>2026-03-22T11:39:35Z</time></trkpt><trkpt lat="42.02642823803103" lon="14.880629831440668"><ele>11.5</ele><time>2026-03-22T11:39:36Z</time></trkpt><trkpt lat="42.02652673970261" lon="14.880315243599693"><ele>13.0</ele><time>2026-03-22T11:39:37Z</time></trkpt><trkpt lat="42.02662030505324" lon="14.880002129273635"><ele>10.5</ele><time>2026-03-22T11:39:38Z</time></trkpt><trkpt lat="42.026705756487786" lon="14.879685668249648"><ele>8.0</ele><time>2026-03-22T11:39:39Z</time></trkpt><trkpt lat="42.026799351726545" lon="14.879360888194924"><ele>8.5</ele><time>2026-03-22T11:39:40Z</time></trkpt><trkpt lat="42.026897200508756" lon="14.879037332162955"><ele>9.0</ele><time>2026-03-22T11:39:41Z</time></trkpt><trkpt lat="42.02699914669152" lon="14.878712067052332"><ele>9.5</ele><time>2026-03-22T11:39:42Z</time></trkpt><trkpt lat="42.02709530358251" lon="14.878381114082604"><ele>10.0</ele><time>2026-03-22T11:39:43Z</time></trkpt><trkpt lat="42.02718889719545" lon="14.878047792712932"><ele>10.0</ele><time>2026-03-22T11:39:44Z</time></trkpt><trkpt lat="42.02728336220048" lon="14.877726598980312"><ele>10.0</ele><time>2026-03-22T11:39:45Z</time></trkpt><trkpt lat="42.0273768038903" lon="14.877421683883513"><ele>9.5</ele><time>2026-03-22T11:39:46Z</time></trkpt><trkpt lat="42.02747133326532" lon="14.877109955511123"><ele>9.0</ele><time>2026-03-22T11:39:47Z</time></trkpt><trkpt lat="42.027571169053594" lon="14.876786667585442"><ele>9.5</ele><time>2026-03-22T11:39:48Z</time></trkpt><trkpt lat="42.027676185557056" lon="14.876440204188361"><ele>10.0</ele><time>2026-03-22T11:39:49Z</time></trkpt><trkpt lat="42.027784939141114" lon="14.876077645896508"><ele>10.0</ele><time>2026-03-22T11:39:50Z</time></trkpt><trkpt lat="42.02789753743142" lon="14.87570410781317"><ele>10.0</ele><time>2026-03-22T11:39:51Z</time></trkpt><trkpt lat="42.02801371560358" lon="14.875334743751276"><ele>11.5</ele><time>2026-03-22T11:39:52Z</time></trkpt><trkpt lat="42.02813111679887" lon="14.874968545714207"><ele>13.0</ele><time>2026-03-22T11:39:53Z</time></trkpt><trkpt lat="42.028247604248925" lon="14.874596447348063"><ele>10.5</ele><time>2026-03-22T11:39:54Z</time></trkpt><trkpt lat="42.028359245143704" lon="14.874218769902892"><ele>8.0</ele><time>2026-03-22T11:39:55Z</time></trkpt><trkpt lat="42.028466148598866" lon="14.873833795819753"><ele>8.0</ele><time>2026-03-22T11:39:56Z</time></trkpt><trkpt lat="42.02857412633071" lon="14.873446741748738"><ele>8.0</ele><time>2026-03-22T11:39:57Z</time></trkpt><trkpt lat="42.0286863052162" lon="14.873058746683311"><ele>9.5</ele><time>2026-03-22T11:39:58Z</time></trkpt><trkpt lat="42.028799041346005" lon="14.87267256794759"><ele>11.0</ele><time>2026-03-22T11:39:59Z</time></trkpt><trkpt lat="42.028907430299064" lon="14.872295679392405"><ele>13.0</ele><time>2026-03-22T11:40:00Z</time></trkpt><trkpt lat="42.0290139439939" lon="14.87192253375848"><ele>15.0</ele><time>2026-03-22T11:40:01Z</time></trkpt><trkpt lat="42.02911700163156" lon="14.87155128976054"><ele>14.5</ele><time>2026-03-22T11:40:02Z</time></trkpt><trkpt lat="42.02921754617718" lon="14.871173175753773"><ele>14.0</ele><time>2026-03-22T11:40:03Z</time></trkpt><trkpt lat="42.029317343952705" lon="14.870784826055452"><ele>14.0</ele><time>2026-03-22T11:40:04Z</time></trkpt><trkpt lat="42.02941389765246" lon="14.87039049382275"><ele>14.0</ele><time>2026-03-22T11:40:05Z</time></trkpt><trkpt lat="42.029506351352914" lon="14.869997558061481"><ele>14.5</ele><time>2026-03-22T11:40:06Z</time></trkpt><trkpt lat="42.029598658262145" lon="14.86960768958217"><ele>15.0</ele><time>2026-03-22T11:40:07Z</time></trkpt><trkpt lat="42.02969124681485" lon="14.86922000271651"><ele>15.0</ele><time>2026-03-22T11:40:08Z</time></trkpt><trkpt lat="42.029784736541195" lon="14.868836509488716"><ele>15.0</ele><time>2026-03-22T11:40:09Z</time></trkpt><trkpt lat="42.029877420726535" lon="14.868452587255787"><ele>16.0</ele><time>2026-03-22T11:40:10Z</time></trkpt><trkpt lat="42.02997207933813" lon="14.868068935103857"><ele>17.0</ele><time>2026-03-22T11:40:11Z</time></trkpt><trkpt lat="42.030064205002205" lon="14.867689613452443"><ele>16.0</ele><time>2026-03-22T11:40:12Z</time></trkpt><trkpt lat="42.030161705649725" lon="14.867308946880849"><ele>15.0</ele><time>2026-03-22T11:40:13Z</time></trkpt><trkpt lat="42.03025901104218" lon="14.866923204093382"><ele>16.5</ele><time>2026-03-22T11:40:14Z</time></trkpt><trkpt lat="42.03035426350467" lon="14.86653218161069"><ele>18.0</ele><time>2026-03-22T11:40:15Z</time></trkpt><trkpt lat="42.030444594084045" lon="14.866138375415579"><ele>19.0</ele><time>2026-03-22T11:40:16Z</time></trkpt><trkpt lat="42.03053349214396" lon="14.865746013226833"><ele>20.0</ele><time>2026-03-22T11:40:17Z</time></trkpt><trkpt lat="42.0306234421867" lon="14.865353751492593"><ele>19.0</ele><time>2026-03-22T11:40:18Z</time></trkpt><trkpt lat="42.03071457074725" lon="14.864959582319345"><ele>18.0</ele><time>2026-03-22T11:40:19Z</time></trkpt><trkpt lat="42.03080323227347" lon="14.864567495903927"><ele>15.0</ele><time>2026-03-22T11:40:20Z</time></trkpt><trkpt lat="42.03089049163537" lon="14.864173049463211"><ele>12.0</ele><time>2026-03-22T11:40:21Z</time></trkpt><trkpt lat="42.030983570404686" lon="14.863778570600305"><ele>11.0</ele><time>2026-03-22T11:40:22Z</time></trkpt><trkpt lat="42.031082704009165" lon="14.863384242538595"><ele>10.0</ele><time>2026-03-22T11:40:23Z</time></trkpt><trkpt lat="42.0311815404791" lon="14.862991737438168"><ele>10.5</ele><time>2026-03-22T11:40:24Z</time></trkpt><trkpt lat="42.03127978761469" lon="14.862595641757936"><ele>11.0</ele><time>2026-03-22T11:40:25Z</time></trkpt><trkpt lat="42.031375806948176" lon="14.862198292692742"><ele>11.0</ele><time>2026-03-22T11:40:26Z</time></trkpt><trkpt lat="42.03147124610919" lon="14.861798949609797"><ele>11.0</ele><time>2026-03-22T11:40:27Z</time></trkpt><trkpt lat="42.03156724157023" lon="14.861405416141002"><ele>10.0</ele><time>2026-03-22T11:40:28Z</time></trkpt><trkpt lat="42.03166533226791" lon="14.86100759152093"><ele>9.0</ele><time>2026-03-22T11:40:29Z</time></trkpt><trkpt lat="42.03176352971551" lon="14.860606884669526"><ele>8.5</ele><time>2026-03-22T11:40:30Z</time></trkpt><trkpt lat="42.03186168494499" lon="14.860205703835865"><ele>8.0</ele><time>2026-03-22T11:40:31Z</time></trkpt><trkpt lat="42.03195946351204" lon="14.85980606502923"><ele>8.0</ele><time>2026-03-22T11:40:32Z</time></trkpt><trkpt lat="42.03205573897135" lon="14.859405648326074"><ele>8.0</ele><time>2026-03-22T11:40:33Z</time></trkpt><trkpt lat="42.032152709377584" lon="14.859007207122984"><ele>8.0</ele><time>2026-03-22T11:40:34Z</time></trkpt><trkpt lat="42.03225007594994" lon="14.858609948430773"><ele>8.0</ele><time>2026-03-22T11:40:35Z</time></trkpt><trkpt lat="42.03234682021377" lon="14.858211995651013"><ele>7.5</ele><time>2026-03-22T11:40:36Z</time></trkpt><trkpt lat="42.03244346286679" lon="14.857815582013552"><ele>7.0</ele><time>2026-03-22T11:40:37Z</time></trkpt><trkpt lat="42.03253882069052" lon="14.85742339250137"><ele>7.0</ele><time>2026-03-22T11:40:38Z</time></trkpt><trkpt lat="42.03263306764947" lon="14.85704028391636"><ele>7.0</ele><time>2026-03-22T11:40:39Z</time></trkpt><trkpt lat="42.03272291734991" lon="14.85668359690733"><ele>6.5</ele><time>2026-03-22T11:40:40Z</time></trkpt><trkpt lat="42.032807628869634" lon="14.85635424732058"><ele>6.0</ele><time>2026-03-22T11:40:41Z</time></trkpt><trkpt lat="42.03288481692253" lon="14.85604835395304"><ele>6.5</ele><time>2026-03-22T11:40:42Z</time></trkpt><trkpt lat="42.03295800086321" lon="14.85575434329683"><ele>7.0</ele><time>2026-03-22T11:40:43Z</time></trkpt><trkpt lat="42.033028012659685" lon="14.855472741965475"><ele>7.0</ele><time>2026-03-22T11:40:44Z</time></trkpt><trkpt lat="42.033093624834315" lon="14.855209613876863"><ele>7.0</ele><time>2026-03-22T11:40:45Z</time></trkpt><trkpt lat="42.033153805314384" lon="14.854960979852814"><ele>7.0</ele><time>2026-03-22T11:40:46Z</time></trkpt><trkpt lat="42.03321542864355" lon="14.854714557796653"><ele>6.0</ele><time>2026-03-22T11:40:47Z</time></trkpt><trkpt lat="42.033328044283046" lon="14.8542225152556"><ele>5.0</ele><time>2026-03-22T11:40:49Z</time></trkpt><trkpt lat="42.0333890635967" lon="14.853980728482576"><ele>5.0</ele><time>2026-03-22T11:40:50Z</time></trkpt><trkpt lat="42.033449452709476" lon="14.853737642189433"><ele>5.0</ele><time>2026-03-22T11:40:51Z</time></trkpt><trkpt lat="42.03350874747157" lon="14.85349458938162"><ele>5.0</ele><time>2026-03-22T11:40:52Z</time></trkpt><trkpt lat="42.03357059146412" lon="14.853249318893356"><ele>5.0</ele><time>2026-03-22T11:40:53Z</time></trkpt><trkpt lat="42.03363392128795" lon="14.853003290934028"><ele>5.0</ele><time>2026-03-22T11:40:54Z</time></trkpt><trkpt lat="42.03369811993658" lon="14.852766655704363"><ele>5.0</ele><time>2026-03-22T11:40:55Z</time></trkpt><trkpt lat="42.03376362092472" lon="14.85254225477496"><ele>5.666666666666667</ele><time>2026-03-22T11:40:56Z</time></trkpt><trkpt lat="42.033825905102574" lon="14.852328917026863"><ele>6.333333333333334</ele><time>2026-03-22T11:40:57Z</time></trkpt><trkpt lat="42.033895048994935" lon="14.852130521258601"><ele>7.0</ele><time>2026-03-22T11:40:58Z</time></trkpt><trkpt lat="42.033953791281284" lon="14.85194061908867"><ele>6.75</ele><time>2026-03-22T11:40:59Z</time></trkpt><trkpt lat="42.03401142518642" lon="14.851774956548837"><ele>6.5</ele><time>2026-03-22T11:41:00Z</time></trkpt><trkpt lat="42.03407462245589" lon="14.85162875993549"><ele>6.25</ele><time>2026-03-22T11:41:01Z</time></trkpt><trkpt lat="42.03414942064851" lon="14.851511323419729"><ele>6.0</ele><time>2026-03-22T11:41:02Z</time></trkpt><trkpt lat="42.034227061650164" lon="14.851406390059175"><ele>6.0</ele><time>2026-03-22T11:41:03Z</time></trkpt><trkpt lat="42.034285523436594" lon="14.851298193657316"><ele>6.0</ele><time>2026-03-22T11:41:04Z</time></trkpt><trkpt lat="42.03431637835302" lon="14.851152138903883"><ele>6.0</ele><time>2026-03-22T11:41:05Z</time></trkpt><trkpt lat="42.034362007419546" lon="14.850985137051927"><ele>6.0</ele><time>2026-03-22T11:41:06Z</time></trkpt><trkpt lat="42.03443911646979" lon="14.850802179357858"><ele>6.333333333333334</ele><time>2026-03-22T11:41:07Z</time></trkpt><trkpt lat="42.034536879214045" lon="14.850585397371546"><ele>6.666666666666667</ele><time>2026-03-22T11:41:08Z</time></trkpt><trkpt lat="42.034645192756535" lon="14.850341093130043"><ele>7.0</ele><time>2026-03-22T11:41:09.001Z</time></trkpt><trkpt lat="42.03475072169702" lon="14.850090046627919"><ele>7.0</ele><time>2026-03-22T11:41:10.001Z</time></trkpt><trkpt lat="42.03485294687731" lon="14.849836846080088"><ele>7.0</ele><time>2026-03-22T11:41:11Z</time></trkpt><trkpt lat="42.03496737050346" lon="14.849560897913387"><ele>7.0</ele><time>2026-03-22T11:41:12Z</time></trkpt><trkpt lat="42.03509122892932" lon="14.849275690110575"><ele>7.0</ele><time>2026-03-22T11:41:13Z</time></trkpt><trkpt lat="42.035221536284595" lon="14.848981436146314"><ele>7.0</ele><time>2026-03-22T11:41:14Z</time></trkpt><trkpt lat="42.035341790554426" lon="14.848705164414056"><ele>7.0</ele><time>2026-03-22T11:41:15Z</time></trkpt><trkpt lat="42.035465860307546" lon="14.848415705881324"><ele>7.0</ele><time>2026-03-22T11:41:16Z</time></trkpt><trkpt lat="42.03559114060224" lon="14.848116933911435"><ele>7.0</ele><time>2026-03-22T11:41:17Z</time></trkpt><trkpt lat="42.03571718489431" lon="14.84781691481074"><ele>7.0</ele><time>2026-03-22T11:41:18Z</time></trkpt><trkpt lat="42.03584251429503" lon="14.847510943774724"><ele>5.5</ele><time>2026-03-22T11:41:19Z</time></trkpt><trkpt lat="42.035971179457206" lon="14.847200759083844"><ele>4.0</ele><time>2026-03-22T11:41:20Z</time></trkpt><trkpt lat="42.03610218648817" lon="14.846891261469477"><ele>3.5</ele><time>2026-03-22T11:41:21Z</time></trkpt><trkpt lat="42.036236160687736" lon="14.84657452602512"><ele>3.0</ele><time>2026-03-22T11:41:22Z</time></trkpt><trkpt lat="42.0363697941963" lon="14.846253603247694"><ele>3.0</ele><time>2026-03-22T11:41:23Z</time></trkpt><trkpt lat="42.03650667664353" lon="14.845937145520073"><ele>3.0</ele><time>2026-03-22T11:41:24Z</time></trkpt><trkpt lat="42.03664447905846" lon="14.845616752572314"><ele>4.5</ele><time>2026-03-22T11:41:25Z</time></trkpt><trkpt lat="42.0367824063467" lon="14.845292621468683"><ele>6.0</ele><time>2026-03-22T11:41:26Z</time></trkpt><trkpt lat="42.03691691209771" lon="14.84497225688885"><ele>6.5</ele><time>2026-03-22T11:41:27Z</time></trkpt><trkpt lat="42.0370487458166" lon="14.844651710643769"><ele>7.0</ele><time>2026-03-22T11:41:28Z</time></trkpt><trkpt lat="42.03718453180366" lon="14.844322218802388"><ele>6.0</ele><time>2026-03-22T11:41:29Z</time></trkpt><trkpt lat="42.037320514701655" lon="14.843998348291523"><ele>5.0</ele><time>2026-03-22T11:41:30Z</time></trkpt><trkpt lat="42.037459031132364" lon="14.843679385750717"><ele>6.5</ele><time>2026-03-22T11:41:31Z</time></trkpt><trkpt lat="42.0375912009396" lon="14.843364591996579"><ele>8.0</ele><time>2026-03-22T11:41:32Z</time></trkpt><trkpt lat="42.03771701496508" lon="14.8430500849463"><ele>8.0</ele><time>2026-03-22T11:41:33Z</time></trkpt><trkpt lat="42.0378543335539" lon="14.842736673632523"><ele>8.0</ele><time>2026-03-22T11:41:34Z</time></trkpt><trkpt lat="42.03799342391358" lon="14.842418335836667"><ele>7.0</ele><time>2026-03-22T11:41:35Z</time></trkpt><trkpt lat="42.038124140972776" lon="14.842106188999745"><ele>6.0</ele><time>2026-03-22T11:41:36Z</time></trkpt><trkpt lat="42.03824938027015" lon="14.841793498568853"><ele>7.0</ele><time>2026-03-22T11:41:37Z</time></trkpt><trkpt lat="42.038357632285866" lon="14.841479498010717"><ele>8.0</ele><time>2026-03-22T11:41:38Z</time></trkpt><trkpt lat="42.038449925208354" lon="14.841156844429147"><ele>6.5</ele><time>2026-03-22T11:41:39Z</time></trkpt><trkpt lat="42.03855211762767" lon="14.840846947827897"><ele>5.0</ele><time>2026-03-22T11:41:40Z</time></trkpt><trkpt lat="42.038657373096044" lon="14.840545098590004"><ele>5.0</ele><time>2026-03-22T11:41:41Z</time></trkpt><trkpt lat="42.03876091828887" lon="14.840254410000831"><ele>5.0</ele><time>2026-03-22T11:41:42Z</time></trkpt><trkpt lat="42.03885822835067" lon="14.839967299569558"><ele>4.5</ele><time>2026-03-22T11:41:43Z</time></trkpt><trkpt lat="42.03895133040822" lon="14.839683244617337"><ele>4.0</ele><time>2026-03-22T11:41:44Z</time></trkpt><trkpt lat="42.03904369923317" lon="14.83940688421771"><ele>5.0</ele><time>2026-03-22T11:41:45Z</time></trkpt><trkpt lat="42.0391363658461" lon="14.8391354486014"><ele>6.0</ele><time>2026-03-22T11:41:46Z</time></trkpt><trkpt lat="42.03922242591267" lon="14.838867979285325"><ele>7.0</ele><time>2026-03-22T11:41:47Z</time></trkpt><trkpt lat="42.03931017627472" lon="14.838607458094547"><ele>6.0</ele><time>2026-03-22T11:41:48Z</time></trkpt><trkpt lat="42.03939917306799" lon="14.838348684670278"><ele>5.0</ele><time>2026-03-22T11:41:49Z</time></trkpt><trkpt lat="42.03948468906296" lon="14.838097512293956"><ele>4.0</ele><time>2026-03-22T11:41:50Z</time></trkpt><trkpt lat="42.03956687311626" lon="14.837853674698485"><ele>4.0</ele><time>2026-03-22T11:41:51Z</time></trkpt><trkpt lat="42.039645511119836" lon="14.837609489899704"><ele>4.0</ele><time>2026-03-22T11:41:52Z</time></trkpt><trkpt lat="42.03972435633536" lon="14.83736476072357"><ele>4.0</ele><time>2026-03-22T11:41:53Z</time></trkpt><trkpt lat="42.03980542176491" lon="14.837127303083994"><ele>4.0</ele><time>2026-03-22T11:41:54Z</time></trkpt><trkpt lat="42.03988474536468" lon="14.836889831067209"><ele>4.0</ele><time>2026-03-22T11:41:55Z</time></trkpt><trkpt lat="42.03996433836643" lon="14.83665701441322"><ele>4.0</ele><time>2026-03-22T11:41:56Z</time></trkpt><trkpt lat="42.04004322530869" lon="14.836423723823803"><ele>4.0</ele><time>2026-03-22T11:41:57Z</time></trkpt><trkpt lat="42.04012185705441" lon="14.836193009571357"><ele>4.0</ele><time>2026-03-22T11:41:58Z</time></trkpt><trkpt lat="42.04019846380444" lon="14.835966292585617"><ele>4.0</ele><time>2026-03-22T11:41:59Z</time></trkpt><trkpt lat="42.040270037819695" lon="14.835745229151884"><ele>4.0</ele><time>2026-03-22T11:42:00Z</time></trkpt><trkpt lat="42.040343965483466" lon="14.835522307326656"><ele>4.0</ele><time>2026-03-22T11:42:01Z</time></trkpt><trkpt lat="42.04041506369632" lon="14.835297166841393"><ele>4.0</ele><time>2026-03-22T11:42:02Z</time></trkpt><trkpt lat="42.04049022482384" lon="14.835081530534563"><ele>4.333333333333333</ele><time>2026-03-22T11:42:03Z</time></trkpt><trkpt lat="42.040565230854114" lon="14.83486759310002"><ele>4.666666666666667</ele><time>2026-03-22T11:42:04Z</time></trkpt><trkpt lat="42.04063357662692" lon="14.834653723010854"><ele>5.0</ele><time>2026-03-22T11:42:05Z</time></trkpt><trkpt lat="42.040700748668094" lon="14.834446502536819"><ele>5.0</ele><time>2026-03-22T11:42:06Z</time></trkpt><trkpt lat="42.04076788113927" lon="14.834248300340667"><ele>5.0</ele><time>2026-03-22T11:42:07Z</time></trkpt><trkpt lat="42.04083705122873" lon="14.834059084654164"><ele>5.0</ele><time>2026-03-22T11:42:08Z</time></trkpt><trkpt lat="42.040898530902396" lon="14.833874663415175"><ele>5.0</ele><time>2026-03-22T11:42:09Z</time></trkpt><trkpt lat="42.040952521978234" lon="14.833701513378795"><ele>5.0</ele><time>2026-03-22T11:42:10Z</time></trkpt><trkpt lat="42.04101099171582" lon="14.833530480338641"><ele>5.0</ele><time>2026-03-22T11:42:11Z</time></trkpt><trkpt lat="42.04106559573352" lon="14.83335274699668"><ele>5.0</ele><time>2026-03-22T11:42:12Z</time></trkpt><trkpt lat="42.04112178146018" lon="14.833170623260528"><ele>5.0</ele><time>2026-03-22T11:42:13Z</time></trkpt><trkpt lat="42.04118691815508" lon="14.832982975012762"><ele>5.0</ele><time>2026-03-22T11:42:14Z</time></trkpt><trkpt lat="42.04125212373863" lon="14.83278275669459"><ele>5.0</ele><time>2026-03-22T11:42:15Z</time></trkpt><trkpt lat="42.041334735696616" lon="14.832542678088895"><ele>5.0</ele><time>2026-03-22T11:42:16Z</time></trkpt><trkpt lat="42.04142782249036" lon="14.832266007166597"><ele>5.0</ele><time>2026-03-22T11:42:17Z</time></trkpt><trkpt lat="42.04153239234634" lon="14.831962172890014"><ele>6.0</ele><time>2026-03-22T11:42:18Z</time></trkpt><trkpt lat="42.04163911578018" lon="14.831651512462848"><ele>7.0</ele><time>2026-03-22T11:42:19Z</time></trkpt><trkpt lat="42.04174603072704" lon="14.831341285310183"><ele>7.0</ele><time>2026-03-22T11:42:20Z</time></trkpt><trkpt lat="42.04185147613836" lon="14.83101424074046"><ele>7.0</ele><time>2026-03-22T11:42:21Z</time></trkpt><trkpt lat="42.04196273025493" lon="14.830674234222242"><ele>5.5</ele><time>2026-03-22T11:42:22Z</time></trkpt><trkpt lat="42.04207551573059" lon="14.83033038149384"><ele>4.0</ele><time>2026-03-22T11:42:23Z</time></trkpt><trkpt lat="42.04218905944989" lon="14.829986212410551"><ele>3.5</ele><time>2026-03-22T11:42:24Z</time></trkpt><trkpt lat="42.04230785458768" lon="14.82964574020875"><ele>3.0</ele><time>2026-03-22T11:42:25Z</time></trkpt><trkpt lat="42.04244442092677" lon="14.829310158230726"><ele>5.5</ele><time>2026-03-22T11:42:26Z</time></trkpt><trkpt lat="42.04259817730557" lon="14.828978204402908"><ele>8.0</ele><time>2026-03-22T11:42:27Z</time></trkpt><trkpt lat="42.0427641331048" lon="14.828652962122712"><ele>7.5</ele><time>2026-03-22T11:42:28Z</time></trkpt><trkpt lat="42.04294113178059" lon="14.828330033771548"><ele>7.0</ele><time>2026-03-22T11:42:29Z</time></trkpt><trkpt lat="42.043117494942585" lon="14.828018250851152"><ele>7.0</ele><time>2026-03-22T11:42:30Z</time></trkpt><trkpt lat="42.04329105229274" lon="14.827714967497776"><ele>7.0</ele><time>2026-03-22T11:42:31Z</time></trkpt><trkpt lat="42.04345682310174" lon="14.827406744112096"><ele>8.0</ele><time>2026-03-22T11:42:32Z</time></trkpt><trkpt lat="42.04362117837729" lon="14.827098535387481"><ele>9.0</ele><time>2026-03-22T11:42:33Z</time></trkpt><trkpt lat="42.04378572096823" lon="14.826796575014392"><ele>7.0</ele><time>2026-03-22T11:42:34Z</time></trkpt><trkpt lat="42.04395040866982" lon="14.826496601043962"><ele>5.0</ele><time>2026-03-22T11:42:35Z</time></trkpt><trkpt lat="42.044110718985756" lon="14.826198017457761"><ele>5.0</ele><time>2026-03-22T11:42:36Z</time></trkpt><trkpt lat="42.04426779489501" lon="14.82590580844821"><ele>5.0</ele><time>2026-03-22T11:42:37Z</time></trkpt><trkpt lat="42.044418823836246" lon="14.825620284616782"><ele>5.0</ele><time>2026-03-22T11:42:38Z</time></trkpt><trkpt lat="42.044566283468626" lon="14.825343887759805"><ele>5.0</ele><time>2026-03-22T11:42:39Z</time></trkpt><trkpt lat="42.0447110020451" lon="14.825075907619551"><ele>4.5</ele><time>2026-03-22T11:42:40Z</time></trkpt><trkpt lat="42.04484741477496" lon="14.82483037346433"><ele>4.0</ele><time>2026-03-22T11:42:41Z</time></trkpt><trkpt lat="42.044985754197796" lon="14.824583903613924"><ele>4.0</ele><time>2026-03-22T11:42:42Z</time></trkpt><trkpt lat="42.04512376423021" lon="14.824335652355913"><ele>4.0</ele><time>2026-03-22T11:42:43Z</time></trkpt><trkpt lat="42.045268800887726" lon="14.824074616564888"><ele>3.5</ele><time>2026-03-22T11:42:44Z</time></trkpt><trkpt lat="42.045414402030886" lon="14.82381027198906"><ele>3.0</ele><time>2026-03-22T11:42:45Z</time></trkpt><trkpt lat="42.04555389586115" lon="14.823551583000462"><ele>3.5</ele><time>2026-03-22T11:42:46Z</time></trkpt><trkpt lat="42.04569097561202" lon="14.823283886918457"><ele>4.0</ele><time>2026-03-22T11:42:47Z</time></trkpt><trkpt lat="42.0458401532154" lon="14.822993428240515"><ele>3.5</ele><time>2026-03-22T11:42:48Z</time></trkpt><trkpt lat="42.04599590529878" lon="14.822696995955626"><ele>3.0</ele><time>2026-03-22T11:42:49Z</time></trkpt><trkpt lat="42.04616000067171" lon="14.822403334802798"><ele>3.0</ele><time>2026-03-22T11:42:50Z</time></trkpt><trkpt lat="42.04632939160401" lon="14.822108101868023"><ele>3.0</ele><time>2026-03-22T11:42:51Z</time></trkpt><trkpt lat="42.046498442315716" lon="14.821804532493639"><ele>3.0</ele><time>2026-03-22T11:42:52Z</time></trkpt><trkpt lat="42.046668061362375" lon="14.82149808356308"><ele>3.0</ele><time>2026-03-22T11:42:53Z</time></trkpt><trkpt lat="42.04684277424383" lon="14.821184532510392"><ele>2.5</ele><time>2026-03-22T11:42:54Z</time></trkpt><trkpt lat="42.04701593930921" lon="14.820876113666523"><ele>2.0</ele><time>2026-03-22T11:42:55Z</time></trkpt><trkpt lat="42.04718818635781" lon="14.820562519926066"><ele>2.0</ele><time>2026-03-22T11:42:56Z</time></trkpt><trkpt lat="42.04736259047003" lon="14.820244233816641"><ele>2.0</ele><time>2026-03-22T11:42:57Z</time></trkpt><trkpt lat="42.04753783498562" lon="14.819922260781338"><ele>2.5</ele><time>2026-03-22T11:42:58Z</time></trkpt><trkpt lat="42.04771489140066" lon="14.81959970927133"><ele>3.0</ele><time>2026-03-22T11:42:59Z</time></trkpt><trkpt lat="42.04789541194834" lon="14.819271439668839"><ele>3.0</ele><time>2026-03-22T11:43:00Z</time></trkpt><trkpt lat="42.048077012208665" lon="14.81893792323742"><ele>3.0</ele><time>2026-03-22T11:43:01Z</time></trkpt><trkpt lat="42.04826032208952" lon="14.818602644643267"><ele>2.5</ele><time>2026-03-22T11:43:02Z</time></trkpt><trkpt lat="42.04844274036097" lon="14.818272120203975"><ele>2.0</ele><time>2026-03-22T11:43:03Z</time></trkpt><trkpt lat="42.04862581197511" lon="14.817943044079874"><ele>1.5</ele><time>2026-03-22T11:43:04Z</time></trkpt><trkpt lat="42.04880683848461" lon="14.817617585533542"><ele>1.0</ele><time>2026-03-22T11:43:05Z</time></trkpt><trkpt lat="42.048984299761074" lon="14.817292229385798"><ele>1.0</ele><time>2026-03-22T11:43:06Z</time></trkpt><trkpt lat="42.0491613067017" lon="14.8169657303651"><ele>1.0</ele><time>2026-03-22T11:43:07Z</time></trkpt><trkpt lat="42.04933828440195" lon="14.816637436974618"><ele>1.0</ele><time>2026-03-22T11:43:08Z</time></trkpt><trkpt lat="42.04951624603168" lon="14.816308756926558"><ele>1.0</ele><time>2026-03-22T11:43:09Z</time></trkpt><trkpt lat="42.049694091413265" lon="14.81598401963092"><ele>1.0</ele><time>2026-03-22T11:43:10Z</time></trkpt><trkpt lat="42.04987272272944" lon="14.815658671122856"><ele>1.0</ele><time>2026-03-22T11:43:11Z</time></trkpt><trkpt lat="42.05005058732628" lon="14.815336797038288"><ele>1.0</ele><time>2026-03-22T11:43:12Z</time></trkpt><trkpt lat="42.05022831535761" lon="14.81501746952049"><ele>1.0</ele><time>2026-03-22T11:43:13Z</time></trkpt><trkpt lat="42.0504051323093" lon="14.814697081465715"><ele>1.0</ele><time>2026-03-22T11:43:14Z</time></trkpt><trkpt lat="42.050581862843714" lon="14.814373334184372"><ele>1.0</ele><time>2026-03-22T11:43:15Z</time></trkpt><trkpt lat="42.050758070554416" lon="14.814049288783586"><ele>1.0</ele><time>2026-03-22T11:43:16Z</time></trkpt><trkpt lat="42.050936201346936" lon="14.813724094485288"><ele>1.0</ele><time>2026-03-22T11:43:17Z</time></trkpt><trkpt lat="42.0511137309757" lon="14.813397568104397"><ele>1.5</ele><time>2026-03-22T11:43:18Z</time></trkpt><trkpt lat="42.05129280049896" lon="14.813070343390196"><ele>2.0</ele><time>2026-03-22T11:43:19Z</time></trkpt><trkpt lat="42.05146995505583" lon="14.8127425534081"><ele>2.0</ele><time>2026-03-22T11:43:20Z</time></trkpt><trkpt lat="42.051648026876805" lon="14.812416119852085"><ele>2.0</ele><time>2026-03-22T11:43:21Z</time></trkpt><trkpt lat="42.05182737192632" lon="14.812087947618888"><ele>1.5</ele><time>2026-03-22T11:43:22Z</time></trkpt><trkpt lat="42.05200794289959" lon="14.811759011501017"><ele>1.0</ele><time>2026-03-22T11:43:23Z</time></trkpt><trkpt lat="42.05218962303933" lon="14.811431578969797"><ele>1.0</ele><time>2026-03-22T11:43:24Z</time></trkpt><trkpt lat="42.05237284410866" lon="14.811103652427724"><ele>1.0</ele><time>2026-03-22T11:43:25Z</time></trkpt><trkpt lat="42.05255244704886" lon="14.81077431986153"><ele>0.5</ele><time>2026-03-22T11:43:26Z</time></trkpt><trkpt lat="42.0527304598157" lon="14.810443812806675"><ele>0.0</ele><time>2026-03-22T11:43:27Z</time></trkpt><trkpt lat="42.0529101406112" lon="14.810112656044552"><ele>-0.5</ele><time>2026-03-22T11:43:28Z</time></trkpt><trkpt lat="42.053092718416465" lon="14.809782158983754"><ele>-1.0</ele><time>2026-03-22T11:43:29Z</time></trkpt><trkpt lat="42.05327452807928" lon="14.809452798995514"><ele>-0.5</ele><time>2026-03-22T11:43:30Z</time></trkpt><trkpt lat="42.0534571654946" lon="14.809121154330734"><ele>0.0</ele><time>2026-03-22T11:43:31Z</time></trkpt><trkpt lat="42.05363882010708" lon="14.808792001595926"><ele>-0.5</ele><time>2026-03-22T11:43:32Z</time></trkpt><trkpt lat="42.053822859805265" lon="14.808462156556288"><ele>-1.0</ele><time>2026-03-22T11:43:33Z</time></trkpt><trkpt lat="42.0540047628961" lon="14.808130122938433"><ele>-1.0</ele><time>2026-03-22T11:43:34Z</time></trkpt><trkpt lat="42.05418468550819" lon="14.807800112005244"><ele>-1.0</ele><time>2026-03-22T11:43:35Z</time></trkpt><trkpt lat="42.054361587675075" lon="14.80747701786839"><ele>-1.0</ele><time>2026-03-22T11:43:36Z</time></trkpt><trkpt lat="42.05453408750129" lon="14.807157574104343"><ele>-1.0</ele><time>2026-03-22T11:43:37Z</time></trkpt><trkpt lat="42.05470408704631" lon="14.806841909931066"><ele>-0.5</ele><time>2026-03-22T11:43:38Z</time></trkpt><trkpt lat="42.054876008952625" lon="14.806531295436985"><ele>0.0</ele><time>2026-03-22T11:43:39Z</time></trkpt><trkpt lat="42.05504704004861" lon="14.806220084719262"><ele>0.0</ele><time>2026-03-22T11:43:40Z</time></trkpt><trkpt lat="42.05521742475516" lon="14.805910302815818"><ele>0.0</ele><time>2026-03-22T11:43:41Z</time></trkpt><trkpt lat="42.05538746313233" lon="14.805600469738899"><ele>0.0</ele><time>2026-03-22T11:43:42Z</time></trkpt><trkpt lat="42.0555577736121" lon="14.805290475155976"><ele>0.0</ele><time>2026-03-22T11:43:43Z</time></trkpt><trkpt lat="42.055724367210935" lon="14.80498416675297"><ele>0.5</ele><time>2026-03-22T11:43:44Z</time></trkpt><trkpt lat="42.05589097159486" lon="14.804680263320067"><ele>1.0</ele><time>2026-03-22T11:43:45Z</time></trkpt><trkpt lat="42.05605667478462" lon="14.804374780471099"><ele>0.5</ele><time>2026-03-22T11:43:46Z</time></trkpt><trkpt lat="42.05622368827565" lon="14.804068100739617"><ele>0.0</ele><time>2026-03-22T11:43:47Z</time></trkpt><trkpt lat="42.0563903301477" lon="14.803762436041708"><ele>0.0</ele><time>2026-03-22T11:43:48Z</time></trkpt><trkpt lat="42.05655390688273" lon="14.80346333575825"><ele>0.0</ele><time>2026-03-22T11:43:49Z</time></trkpt><trkpt lat="42.05670704732002" lon="14.803180326951386"><ele>0.0</ele><time>2026-03-22T11:43:50Z</time></trkpt><trkpt lat="42.05685561336646" lon="14.80290566372296"><ele>0.0</ele><time>2026-03-22T11:43:51Z</time></trkpt><trkpt lat="42.05699138328347" lon="14.802637334882336"><ele>-0.3333333333333333</ele><time>2026-03-22T11:43:52Z</time></trkpt><trkpt lat="42.057112455308726" lon="14.802386752753058"><ele>-0.6666666666666666</ele><time>2026-03-22T11:43:53Z</time></trkpt><trkpt lat="42.05721110318353" lon="14.802152205461873"><ele>-1.0</ele><time>2026-03-22T11:43:54Z</time></trkpt><trkpt lat="42.05730704847305" lon="14.801916474184226"><ele>-1.0</ele><time>2026-03-22T11:43:55Z</time></trkpt><trkpt lat="42.05739504970125" lon="14.801668347576333"><ele>-1.0</ele><time>2026-03-22T11:43:56Z</time></trkpt><trkpt lat="42.05748184208696" lon="14.801397021362448"><ele>-1.0</ele><time>2026-03-22T11:43:57Z</time></trkpt><trkpt lat="42.057567511476044" lon="14.801101937797629"><ele>0.5</ele><time>2026-03-22T11:43:58Z</time></trkpt><trkpt lat="42.05764901146381" lon="14.800807662480304"><ele>2.0</ele><time>2026-03-22T11:43:59Z</time></trkpt><trkpt lat="42.057736717660525" lon="14.800516364934259"><ele>2.0</ele><time>2026-03-22T11:44:00Z</time></trkpt><trkpt lat="42.05782339273171" lon="14.80022919962334"><ele>2.0</ele><time>2026-03-22T11:44:01Z</time></trkpt><trkpt lat="42.05790857258478" lon="14.799945223607189"><ele>1.5</ele><time>2026-03-22T11:44:02Z</time></trkpt><trkpt lat="42.05799195071898" lon="14.799654329319022"><ele>1.0</ele><time>2026-03-22T11:44:03Z</time></trkpt><trkpt lat="42.05808444979827" lon="14.799334174104342"><ele>1.5</ele><time>2026-03-22T11:44:04Z</time></trkpt><trkpt lat="42.05818227133369" lon="14.79899415445979"><ele>2.0</ele><time>2026-03-22T11:44:05Z</time></trkpt><trkpt lat="42.058284625721285" lon="14.798662853638085"><ele>3.5</ele><time>2026-03-22T11:44:06Z</time></trkpt><trkpt lat="42.05839204624741" lon="14.798336597436721"><ele>5.0</ele><time>2026-03-22T11:44:07Z</time></trkpt><trkpt lat="42.05849938045806" lon="14.798008684389563"><ele>5.0</ele><time>2026-03-22T11:44:08Z</time></trkpt><trkpt lat="42.0586057141129" lon="14.797671728142733"><ele>5.0</ele><time>2026-03-22T11:44:09Z</time></trkpt><trkpt lat="42.05871051705445" lon="14.797327963675373"><ele>5.0</ele><time>2026-03-22T11:44:10Z</time></trkpt><trkpt lat="42.05881548751835" lon="14.796974677995488"><ele>5.0</ele><time>2026-03-22T11:44:11Z</time></trkpt><trkpt lat="42.05891862799406" lon="14.796625820262406"><ele>3.5</ele><time>2026-03-22T11:44:12Z</time></trkpt><trkpt lat="42.059020368547834" lon="14.796282266311554"><ele>2.0</ele><time>2026-03-22T11:44:13Z</time></trkpt><trkpt lat="42.05912352874798" lon="14.795938117457352"><ele>1.5</ele><time>2026-03-22T11:44:14Z</time></trkpt><trkpt lat="42.05922615181249" lon="14.795595795603061"><ele>1.0</ele><time>2026-03-22T11:44:15Z</time></trkpt><trkpt lat="42.05932912126142" lon="14.795252685970716"><ele>1.5</ele><time>2026-03-22T11:44:16Z</time></trkpt><trkpt lat="42.0594311141444" lon="14.794912294808661"><ele>2.0</ele><time>2026-03-22T11:44:17Z</time></trkpt><trkpt lat="42.059534164485314" lon="14.794573647845661"><ele>2.0</ele><time>2026-03-22T11:44:18Z</time></trkpt><trkpt lat="42.059637811154005" lon="14.794233735402965"><ele>2.0</ele><time>2026-03-22T11:44:19Z</time></trkpt><trkpt lat="42.05973857413314" lon="14.793895884890457"><ele>2.0</ele><time>2026-03-22T11:44:20Z</time></trkpt><trkpt lat="42.05983928549527" lon="14.793561403316222"><ele>2.0</ele><time>2026-03-22T11:44:21Z</time></trkpt><trkpt lat="42.05993783018525" lon="14.793228817241225"><ele>2.0</ele><time>2026-03-22T11:44:22Z</time></trkpt><trkpt lat="42.06003756533241" lon="14.792894302922393"><ele>2.0</ele><time>2026-03-22T11:44:23Z</time></trkpt><trkpt lat="42.06013725431087" lon="14.79255891649116"><ele>3.0</ele><time>2026-03-22T11:44:24Z</time></trkpt><trkpt lat="42.060239071806485" lon="14.79222260520411"><ele>4.0</ele><time>2026-03-22T11:44:25Z</time></trkpt><trkpt lat="42.060338049077515" lon="14.791879272920136"><ele>4.0</ele><time>2026-03-22T11:44:26Z</time></trkpt><trkpt lat="42.06043893809774" lon="14.791535352556048"><ele>4.0</ele><time>2026-03-22T11:44:27Z</time></trkpt><trkpt lat="42.06054315907767" lon="14.79118823562622"><ele>3.5</ele><time>2026-03-22T11:44:28Z</time></trkpt><trkpt lat="42.06064997305328" lon="14.790838595066255"><ele>3.0</ele><time>2026-03-22T11:44:29Z</time></trkpt><trkpt lat="42.06075362228194" lon="14.79048740072186"><ele>3.0</ele><time>2026-03-22T11:44:30Z</time></trkpt><trkpt lat="42.06086028364144" lon="14.79013582110626"><ele>3.0</ele><time>2026-03-22T11:44:31Z</time></trkpt><trkpt lat="42.060973150964514" lon="14.78978854833496"><ele>3.0</ele><time>2026-03-22T11:44:32Z</time></trkpt><trkpt lat="42.06109399576425" lon="14.78945224671447"><ele>3.0</ele><time>2026-03-22T11:44:33Z</time></trkpt><trkpt lat="42.06121991115758" lon="14.789128598024881"><ele>2.5</ele><time>2026-03-22T11:44:34Z</time></trkpt><trkpt lat="42.0613461686563" lon="14.788812150084365"><ele>2.0</ele><time>2026-03-22T11:44:35Z</time></trkpt><trkpt lat="42.061466412987514" lon="14.788504993652419"><ele>2.0</ele><time>2026-03-22T11:44:36Z</time></trkpt><trkpt lat="42.06158382631898" lon="14.788203373956337"><ele>2.0</ele><time>2026-03-22T11:44:37Z</time></trkpt><trkpt lat="42.061700574594155" lon="14.787904901764307"><ele>2.0</ele><time>2026-03-22T11:44:38Z</time></trkpt><trkpt lat="42.06181501138792" lon="14.787610107771112"><ele>2.0</ele><time>2026-03-22T11:44:39Z</time></trkpt><trkpt lat="42.06192610364223" lon="14.787326870367833"><ele>2.0</ele><time>2026-03-22T11:44:40Z</time></trkpt><trkpt lat="42.0620335024808" lon="14.787055895326631"><ele>2.0</ele><time>2026-03-22T11:44:41Z</time></trkpt><trkpt lat="42.062140465863145" lon="14.786781370003427"><ele>1.5</ele><time>2026-03-22T11:44:42Z</time></trkpt><trkpt lat="42.06225404253008" lon="14.786489750112931"><ele>1.0</ele><time>2026-03-22T11:44:43Z</time></trkpt><trkpt lat="42.062374161088044" lon="14.786176795420037"><ele>1.5</ele><time>2026-03-22T11:44:44Z</time></trkpt><trkpt lat="42.06249859577353" lon="14.785855816447832"><ele>2.0</ele><time>2026-03-22T11:44:45Z</time></trkpt><trkpt lat="42.06262611611694" lon="14.785539666113843"><ele>2.0</ele><time>2026-03-22T11:44:46Z</time></trkpt><trkpt lat="42.062757305459854" lon="14.785225930122026"><ele>2.0</ele><time>2026-03-22T11:44:47Z</time></trkpt><trkpt lat="42.062888934556035" lon="14.784913954335517"><ele>2.0</ele><time>2026-03-22T11:44:48Z</time></trkpt><trkpt lat="42.06301883105833" lon="14.784595845575332"><ele>2.0</ele><time>2026-03-22T11:44:49Z</time></trkpt><trkpt lat="42.06315179844318" lon="14.784272197442819"><ele>2.0</ele><time>2026-03-22T11:44:50Z</time></trkpt><trkpt lat="42.06328305810993" lon="14.78394316008617"><ele>2.0</ele><time>2026-03-22T11:44:51Z</time></trkpt><trkpt lat="42.06341324595452" lon="14.783610717425404"><ele>2.0</ele><time>2026-03-22T11:44:52Z</time></trkpt><trkpt lat="42.063543090724096" lon="14.783279948875336"><ele>2.0</ele><time>2026-03-22T11:44:53Z</time></trkpt><trkpt lat="42.06367271930074" lon="14.78295227959847"><ele>2.0</ele><time>2026-03-22T11:44:54Z</time></trkpt><trkpt lat="42.06380210797414" lon="14.782627778999114"><ele>2.0</ele><time>2026-03-22T11:44:55Z</time></trkpt><trkpt lat="42.063927077628584" lon="14.782314373901663"><ele>2.0</ele><time>2026-03-22T11:44:56Z</time></trkpt><trkpt lat="42.06404871908052" lon="14.781998242576623"><ele>2.0</ele><time>2026-03-22T11:44:57Z</time></trkpt><trkpt lat="42.064169011643834" lon="14.781689720782845"><ele>2.5</ele><time>2026-03-22T11:44:58Z</time></trkpt><trkpt lat="42.0642895689472" lon="14.781383401804007"><ele>3.0</ele><time>2026-03-22T11:44:59Z</time></trkpt><trkpt lat="42.06440915834487" lon="14.781087062165103"><ele>3.5</ele><time>2026-03-22T11:45:00Z</time></trkpt><trkpt lat="42.06451998001781" lon="14.78080996186624"><ele>4.0</ele><time>2026-03-22T11:45:01Z</time></trkpt><trkpt lat="42.06462288553579" lon="14.780547041863853"><ele>4.0</ele><time>2026-03-22T11:45:02Z</time></trkpt><trkpt lat="42.06472245992652" lon="14.780294948002338"><ele>4.0</ele><time>2026-03-22T11:45:03Z</time></trkpt><trkpt lat="42.06481729210025" lon="14.780044798470952"><ele>4.0</ele><time>2026-03-22T11:45:04Z</time></trkpt><trkpt lat="42.064914650185095" lon="14.779788216234587"><ele>3.6666666666666665</ele><time>2026-03-22T11:45:05Z</time></trkpt><trkpt lat="42.065015640306" lon="14.779525132027956"><ele>3.333333333333333</ele><time>2026-03-22T11:45:06Z</time></trkpt><trkpt lat="42.065120775677755" lon="14.779253378859313"><ele>3.0</ele><time>2026-03-22T11:45:07Z</time></trkpt><trkpt lat="42.06522355182423" lon="14.778980319159746"><ele>3.0</ele><time>2026-03-22T11:45:08Z</time></trkpt><trkpt lat="42.065334365167246" lon="14.778717968361391"><ele>3.0</ele><time>2026-03-22T11:45:09Z</time></trkpt><trkpt lat="42.06545107378766" lon="14.778454226955562"><ele>3.0</ele><time>2026-03-22T11:45:10Z</time></trkpt><trkpt lat="42.065562417704164" lon="14.778185057215703"><ele>3.0</ele><time>2026-03-22T11:45:11Z</time></trkpt><trkpt lat="42.065669729492704" lon="14.777914501415678"><ele>2.0</ele><time>2026-03-22T11:45:12Z</time></trkpt><trkpt lat="42.06588099213228" lon="14.777373162535266"><ele>2.0</ele><time>2026-03-22T11:45:14Z</time></trkpt><trkpt lat="42.06598060154216" lon="14.777122660427114"><ele>2.0</ele><time>2026-03-22T11:45:15Z</time></trkpt><trkpt lat="42.06607281279669" lon="14.776876639977697"><ele>2.0</ele><time>2026-03-22T11:45:16Z</time></trkpt><trkpt lat="42.066158228647126" lon="14.776658350234692"><ele>2.333333333333333</ele><time>2026-03-22T11:45:17Z</time></trkpt><trkpt lat="42.06624219245784" lon="14.776449961737386"><ele>2.6666666666666665</ele><time>2026-03-22T11:45:18Z</time></trkpt><trkpt lat="42.066316936754816" lon="14.776257913116423"><ele>3.0</ele><time>2026-03-22T11:45:19Z</time></trkpt><trkpt lat="42.0663900415401" lon="14.776070697560694"><ele>2.75</ele><time>2026-03-22T11:45:20Z</time></trkpt><trkpt lat="42.06645903132352" lon="14.77590265057012"><ele>2.5</ele><time>2026-03-22T11:45:21Z</time></trkpt><trkpt lat="42.066524114199765" lon="14.775744224470317"><ele>2.25</ele><time>2026-03-22T11:45:22Z</time></trkpt><trkpt lat="42.06657818522913" lon="14.775616233794771"><ele>2.0</ele><time>2026-03-22T11:45:23Z</time></trkpt><trkpt lat="42.066618471173484" lon="14.77552255855292"><ele>2.5</ele><time>2026-03-22T11:45:24Z</time></trkpt><trkpt lat="42.066665421136875" lon="14.77538482256719"><ele>3.0</ele><time>2026-03-22T11:45:26Z</time></trkpt><trkpt lat="42.066743787903945" lon="14.775344504843348"><ele>3.5</ele><time>2026-03-22T11:45:27Z</time></trkpt><trkpt lat="42.06686759817264" lon="14.775270411430542"><ele>4.0</ele><time>2026-03-22T11:45:29Z</time></trkpt><trkpt lat="42.06696867365164" lon="14.775351643700688"><ele>3.9999999999999996</ele><time>2026-03-22T11:45:30Z</time></trkpt><trkpt lat="42.067052251339966" lon="14.775396297411662"><ele>4.0</ele><time>2026-03-22T11:45:31Z</time></trkpt><trkpt lat="42.067118405526" lon="14.775443258323069"><ele>4.0</ele><time>2026-03-22T11:45:32Z</time></trkpt><trkpt lat="42.067213821201236" lon="14.775498827356586"><ele>4.0</ele><time>2026-03-22T11:45:33Z</time></trkpt><trkpt lat="42.067285085633124" lon="14.775554091691927"><ele>3.9999999999999996</ele><time>2026-03-22T11:45:34Z</time></trkpt><trkpt lat="42.067359618610915" lon="14.775601617344932"><ele>4.0</ele><time>2026-03-22T11:45:35Z</time></trkpt><trkpt lat="42.06742691141882" lon="14.775652367294775"><ele>4.166666666666666</ele><time>2026-03-22T11:45:36Z</time></trkpt><trkpt lat="42.06749386002929" lon="14.775709613187672"><ele>4.333333333333333</ele><time>2026-03-22T11:45:37Z</time></trkpt><trkpt lat="42.067556723161196" lon="14.775760243368804"><ele>4.5</ele><time>2026-03-22T11:45:38Z</time></trkpt><trkpt lat="42.067622015818436" lon="14.775805564775576"><ele>4.666666666666667</ele><time>2026-03-22T11:45:39Z</time></trkpt><trkpt lat="42.06768706987424" lon="14.775863677761858"><ele>4.833333333333334</ele><time>2026-03-22T11:45:40Z</time></trkpt><trkpt lat="42.06776436417908" lon="14.775925345168167"><ele>5.0</ele><time>2026-03-22T11:45:41Z</time></trkpt><trkpt lat="42.06792234173376" lon="14.7760538676051"><ele>5.0</ele><time>2026-03-22T11:45:43Z</time></trkpt><trkpt lat="42.06800376647859" lon="14.776120915716957"><ele>5.0</ele><time>2026-03-22T11:45:44Z</time></trkpt><trkpt lat="42.068080074320534" lon="14.776174385439907"><ele>5.0</ele><time>2026-03-22T11:45:45Z</time></trkpt><trkpt lat="42.068157971115966" lon="14.776226055326582"><ele>5.0</ele><time>2026-03-22T11:45:46Z</time></trkpt><trkpt lat="42.06822855913566" lon="14.776280656055693"><ele>5.0</ele><time>2026-03-22T11:45:47Z</time></trkpt><trkpt lat="42.06829389168" lon="14.776327640790505"><ele>5.0</ele><time>2026-03-22T11:45:48Z</time></trkpt><trkpt lat="42.068405420466924" lon="14.776396604809047"><ele>4.714285714285714</ele><time>2026-03-22T11:45:50Z</time></trkpt><trkpt lat="42.068460562045416" lon="14.776441203574775"><ele>4.428571428571429</ele><time>2026-03-22T11:45:51Z</time></trkpt><trkpt lat="42.06852201050031" lon="14.776483385375508"><ele>4.142857142857142</ele><time>2026-03-22T11:45:52Z</time></trkpt><trkpt lat="42.068581746229434" lon="14.776527463952137"><ele>3.8571428571428568</ele><time>2026-03-22T11:45:53Z</time></trkpt><trkpt lat="42.06864706245957" lon="14.77657276888052"><ele>3.571428571428571</ele><time>2026-03-22T11:45:54Z</time></trkpt><trkpt lat="42.06871972141225" lon="14.77662498842788"><ele>3.2857142857142856</ele><time>2026-03-22T11:45:55Z</time></trkpt><trkpt lat="42.06879148888864" lon="14.776678841834567"><ele>3.0</ele><time>2026-03-22T11:45:56Z</time></trkpt><trkpt lat="42.068856719398404" lon="14.77673762732828"><ele>3.0</ele><time>2026-03-22T11:45:57Z</time></trkpt><trkpt lat="42.06892731986083" lon="14.776790077292807"><ele>3.0</ele><time>2026-03-22T11:45:58Z</time></trkpt><trkpt lat="42.069003638849544" lon="14.776844879949275"><ele>3.0</ele><time>2026-03-22T11:45:59Z</time></trkpt><trkpt lat="42.06908586658743" lon="14.776905004825574"><ele>3.0</ele><time>2026-03-22T11:46:00Z</time></trkpt><trkpt lat="42.06914274325403" lon="14.776954446674052"><ele>3.0</ele><time>2026-03-22T11:46:01Z</time></trkpt><trkpt lat="42.069206934634806" lon="14.776994832214008"><ele>3.0</ele><time>2026-03-22T11:46:02Z</time></trkpt><trkpt lat="42.06926576218923" lon="14.777039073853393"><ele>2.8571428571428568</ele><time>2026-03-22T11:46:03Z</time></trkpt><trkpt lat="42.06936305513339" lon="14.77711597522348"><ele>2.7142857142857144</ele><time>2026-03-22T11:46:05Z</time></trkpt><trkpt lat="42.0694191719108" lon="14.777156741249815"><ele>2.571428571428571</ele><time>2026-03-22T11:46:06Z</time></trkpt><trkpt lat="42.06947625791179" lon="14.777200627859642"><ele>2.4285714285714284</ele><time>2026-03-22T11:46:07Z</time></trkpt><trkpt lat="42.069535509487984" lon="14.777243657378422"><ele>2.2857142857142856</ele><time>2026-03-22T11:46:08Z</time></trkpt><trkpt lat="42.06959386181297" lon="14.777289806165179"><ele>2.142857142857143</ele><time>2026-03-22T11:46:09Z</time></trkpt><trkpt lat="42.06965156259927" lon="14.777331588332329"><ele>2.0</ele><time>2026-03-22T11:46:10Z</time></trkpt><trkpt lat="42.06969994875424" lon="14.777392408420061"><ele>2.0</ele><time>2026-03-22T11:46:11Z</time></trkpt><trkpt lat="42.06981082660981" lon="14.777454483745036"><ele>2.0</ele><time>2026-03-22T11:46:13Z</time></trkpt><trkpt lat="42.069897970366384" lon="14.77754166518131"><ele>2.0</ele><time>2026-03-22T11:46:15Z</time></trkpt><trkpt lat="42.0699773646107" lon="14.777602278411978"><ele>2.0</ele><time>2026-03-22T11:46:17Z</time></trkpt><trkpt lat="42.07004529407768" lon="14.777644012989219"><ele>2.0</ele><time>2026-03-22T11:46:20Z</time></trkpt><trkpt lat="42.069957406725216" lon="14.777450401723081"><ele>2.0</ele><time>2026-03-22T11:46:21Z</time></trkpt><trkpt lat="42.07000694857162" lon="14.777300307541447"><ele>2.0</ele><time>2026-03-22T11:46:23Z</time></trkpt><trkpt lat="42.07003645118244" lon="14.77721106690487"><ele>2.0</ele><time>2026-03-22T11:46:24Z</time></trkpt><trkpt lat="42.07012653068258" lon="14.777144887666813"><ele>2.0</ele><time>2026-03-22T11:46:25Z</time></trkpt><trkpt lat="42.07015373622338" lon="14.777024042709195"><ele>2.0</ele><time>2026-03-22T11:46:26Z</time></trkpt><trkpt lat="42.07019477720917" lon="14.776902394143676"><ele>2.0</ele><time>2026-03-22T11:46:27Z</time></trkpt><trkpt lat="42.07023369876634" lon="14.776783875520927"><ele>2.0</ele><time>2026-03-22T11:46:28Z</time></trkpt><trkpt lat="42.07022179760314" lon="14.776646382009359"><ele>2.0</ele><time>2026-03-22T11:46:29Z</time></trkpt><trkpt lat="42.07025718501285" lon="14.776537568553026"><ele>2.0</ele><time>2026-03-22T11:46:30Z</time></trkpt><trkpt lat="42.070292698103586" lon="14.776428226443677"><ele>2.0</ele><time>2026-03-22T11:46:31Z</time></trkpt><trkpt lat="42.07032880832913" lon="14.776317045815656"><ele>2.0</ele><time>2026-03-22T11:46:32Z</time></trkpt><trkpt lat="42.070366969569776" lon="14.7761995508771"><ele>2.0</ele><time>2026-03-22T11:46:33Z</time></trkpt><trkpt lat="42.070410155139356" lon="14.776067586387116"><ele>2.0</ele><time>2026-03-22T11:46:34Z</time></trkpt><trkpt lat="42.07045371106842" lon="14.775934093212953"><ele>2.0</ele><time>2026-03-22T11:46:35Z</time></trkpt><trkpt lat="42.07049078104882" lon="14.775820478621464"><ele>2.0</ele><time>2026-03-22T11:46:36Z</time></trkpt><trkpt lat="42.07052951216161" lon="14.775713926936744"><ele>2.2</ele><time>2026-03-22T11:46:37Z</time></trkpt><trkpt lat="42.070571518163284" lon="14.775625660610864"><ele>2.4000000000000004</ele><time>2026-03-22T11:46:38Z</time></trkpt><trkpt lat="42.07064541364084" lon="14.775479041426925"><ele>2.5999999999999996</ele><time>2026-03-22T11:46:40Z</time></trkpt><trkpt lat="42.07070107368773" lon="14.775372865483714"><ele>2.8</ele><time>2026-03-22T11:46:41Z</time></trkpt><trkpt lat="42.07076039961754" lon="14.775261340003732"><ele>3.0</ele><time>2026-03-22T11:46:42Z</time></trkpt><trkpt lat="42.07081487847604" lon="14.77515620533315"><ele>2.4</ele><time>2026-03-22T11:46:43Z</time></trkpt><trkpt lat="42.07085844268834" lon="14.775072343105114"><ele>1.7999999999999998</ele><time>2026-03-22T11:46:44Z</time></trkpt><trkpt lat="42.07096589146043" lon="14.774962245302023"><ele>1.2</ele><time>2026-03-22T11:46:46Z</time></trkpt><trkpt lat="42.07099709781617" lon="14.774837588432717"><ele>0.6</ele><time>2026-03-22T11:46:47Z</time></trkpt><trkpt lat="42.07103665048535" lon="14.774679000206548"><ele>0.0</ele><time>2026-03-22T11:46:48Z</time></trkpt><trkpt lat="42.071093256155734" lon="14.774504835715094"><ele>0.0</ele><time>2026-03-22T11:46:49Z</time></trkpt><trkpt lat="42.071142753833094" lon="14.774351254879482"><ele>0.0</ele><time>2026-03-22T11:46:50Z</time></trkpt><trkpt lat="42.07119267009905" lon="14.774190607105359"><ele>0.0</ele><time>2026-03-22T11:46:51Z</time></trkpt><trkpt lat="42.07124329869234" lon="14.774022493524377"><ele>0.0</ele><time>2026-03-22T11:46:52Z</time></trkpt><trkpt lat="42.07129585756656" lon="14.77384955227908"><ele>0.0</ele><time>2026-03-22T11:46:53Z</time></trkpt><trkpt lat="42.0713501987319" lon="14.773673113987519"><ele>0.0</ele><time>2026-03-22T11:46:54Z</time></trkpt><trkpt lat="42.071405885403856" lon="14.773497948562161"><ele>0.0</ele><time>2026-03-22T11:46:55Z</time></trkpt><trkpt lat="42.071459107105476" lon="14.773325105173754"><ele>0.0</ele><time>2026-03-22T11:46:56Z</time></trkpt><trkpt lat="42.07151242610678" lon="14.773159360196388"><ele>0.0</ele><time>2026-03-22T11:46:57Z</time></trkpt><trkpt lat="42.07156521455492" lon="14.772994770784646"><ele>0.0</ele><time>2026-03-22T11:46:58Z</time></trkpt><trkpt lat="42.071614449867866" lon="14.772831287691208"><ele>0.0</ele><time>2026-03-22T11:46:59Z</time></trkpt><trkpt lat="42.071662957969764" lon="14.772670495825269"><ele>0.0</ele><time>2026-03-22T11:47:00Z</time></trkpt><trkpt lat="42.07175731478918" lon="14.772356285676919"><ele>0.0</ele><time>2026-03-22T11:47:02Z</time></trkpt><trkpt lat="42.071803741079265" lon="14.772200673677677"><ele>0.0</ele><time>2026-03-22T11:47:03Z</time></trkpt><trkpt lat="42.07185012765968" lon="14.772049150224221"><ele>0.0</ele><time>2026-03-22T11:47:04Z</time></trkpt><trkpt lat="42.071898393765984" lon="14.771901356314801"><ele>0.0</ele><time>2026-03-22T11:47:05Z</time></trkpt><trkpt lat="42.07194415037927" lon="14.771749652683475"><ele>0.0</ele><time>2026-03-22T11:47:06Z</time></trkpt><trkpt lat="42.07199040594719" lon="14.771600712346238"><ele>0.0</ele><time>2026-03-22T11:47:07Z</time></trkpt><trkpt lat="42.072038399216645" lon="14.771448182249147"><ele>0.0</ele><time>2026-03-22T11:47:08Z</time></trkpt><trkpt lat="42.0720847712074" lon="14.771291327439345"><ele>0.0</ele><time>2026-03-22T11:47:09Z</time></trkpt><trkpt lat="42.07213602749236" lon="14.771134013162103"><ele>-0.25</ele><time>2026-03-22T11:47:10Z</time></trkpt><trkpt lat="42.07218599110761" lon="14.770975424323955"><ele>-0.5</ele><time>2026-03-22T11:47:11Z</time></trkpt><trkpt lat="42.072233963888166" lon="14.770811793640016"><ele>-0.75</ele><time>2026-03-22T11:47:12Z</time></trkpt><trkpt lat="42.072286144957665" lon="14.770650550591865"><ele>-1.0</ele><time>2026-03-22T11:47:13Z</time></trkpt><trkpt lat="42.072336291001164" lon="14.770488117109362"><ele>-1.0</ele><time>2026-03-22T11:47:14Z</time></trkpt><trkpt lat="42.07238445924001" lon="14.770323075374641"><ele>-1.0</ele><time>2026-03-22T11:47:15Z</time></trkpt><trkpt lat="42.0724344943088" lon="14.770152231849734"><ele>-1.0</ele><time>2026-03-22T11:47:16Z</time></trkpt><trkpt lat="42.07248487628376" lon="14.769984028638568"><ele>-1.0</ele><time>2026-03-22T11:47:17Z</time></trkpt><trkpt lat="42.07253923307439" lon="14.769815815814932"><ele>-0.75</ele><time>2026-03-22T11:47:18Z</time></trkpt><trkpt lat="42.0725917741468" lon="14.769642152811125"><ele>-0.5</ele><time>2026-03-22T11:47:19Z</time></trkpt><trkpt lat="42.07264330266696" lon="14.769465084893957"><ele>-0.25</ele><time>2026-03-22T11:47:20Z</time></trkpt><trkpt lat="42.0726954594177" lon="14.769286948388721"><ele>0.0</ele><time>2026-03-22T11:47:21Z</time></trkpt><trkpt lat="42.07274885064142" lon="14.769107439313512"><ele>0.25</ele><time>2026-03-22T11:47:22Z</time></trkpt><trkpt lat="42.07280570712472" lon="14.768928082268575"><ele>0.5</ele><time>2026-03-22T11:47:23Z</time></trkpt><trkpt lat="42.072861230131025" lon="14.7687481687129"><ele>0.75</ele><time>2026-03-22T11:47:24Z</time></trkpt><trkpt lat="42.07292088473105" lon="14.768566694395467"><ele>1.0</ele><time>2026-03-22T11:47:25Z</time></trkpt><trkpt lat="42.07297474208246" lon="14.768380114448863"><ele>1.25</ele><time>2026-03-22T11:47:26Z</time></trkpt><trkpt lat="42.0730317840266" lon="14.768197049666698"><ele>1.5</ele><time>2026-03-22T11:47:27Z</time></trkpt><trkpt lat="42.073090798149835" lon="14.768013531257182"><ele>1.75</ele><time>2026-03-22T11:47:28Z</time></trkpt><trkpt lat="42.07314519964148" lon="14.767825733424948"><ele>2.0</ele><time>2026-03-22T11:47:29Z</time></trkpt><trkpt lat="42.07320114144763" lon="14.76763577240163"><ele>2.0</ele><time>2026-03-22T11:47:30Z</time></trkpt><trkpt lat="42.07325897387883" lon="14.767448140828215"><ele>2.0</ele><time>2026-03-22T11:47:31Z</time></trkpt><trkpt lat="42.073316767993916" lon="14.767256421254162"><ele>2.0</ele><time>2026-03-22T11:47:32Z</time></trkpt><trkpt lat="42.073375456059686" lon="14.767066485079544"><ele>2.0</ele><time>2026-03-22T11:47:33Z</time></trkpt><trkpt lat="42.07343370972081" lon="14.76687594712993"><ele>2.0</ele><time>2026-03-22T11:47:34Z</time></trkpt><trkpt lat="42.07348937480125" lon="14.766686380929793"><ele>2.0</ele><time>2026-03-22T11:47:35Z</time></trkpt><trkpt lat="42.07354473639156" lon="14.766506902312878"><ele>2.0</ele><time>2026-03-22T11:47:36Z</time></trkpt><trkpt lat="42.07359839827827" lon="14.766340353073494"><ele>2.0</ele><time>2026-03-22T11:47:37Z</time></trkpt><trkpt lat="42.07359256613475" lon="14.766146630644615"><ele>2.0</ele><time>2026-03-22T11:47:38Z</time></trkpt><trkpt lat="42.073637134978405" lon="14.76600069178218"><ele>2.0</ele><time>2026-03-22T11:47:39Z</time></trkpt><trkpt lat="42.07367565866787" lon="14.765874547577981"><ele>2.0</ele><time>2026-03-22T11:47:40Z</time></trkpt><trkpt lat="42.073707725127306" lon="14.765769547529857"><ele>2.0</ele><time>2026-03-22T11:47:41Z</time></trkpt><trkpt lat="42.073739569350685" lon="14.76567948178721"><ele>2.0</ele><time>2026-03-22T11:47:42Z</time></trkpt><trkpt lat="42.07386541281897" lon="14.765577953171288"><ele>2.0</ele><time>2026-03-22T11:47:44Z</time></trkpt><trkpt lat="42.0739510129457" lon="14.76568769080422"><ele>2.0</ele><time>2026-03-22T11:47:45Z</time></trkpt><trkpt lat="42.07400510948338" lon="14.765740166754377"><ele>2.0</ele><time>2026-03-22T11:47:46Z</time></trkpt><trkpt lat="42.07406444362369" lon="14.765795082348223"><ele>2.0</ele><time>2026-03-22T11:47:47Z</time></trkpt><trkpt lat="42.07412318863691" lon="14.765840710620985"><ele>2.0</ele><time>2026-03-22T11:47:48Z</time></trkpt><trkpt lat="42.07423510448648" lon="14.765818608491168"><ele>2.0</ele><time>2026-03-22T11:47:50Z</time></trkpt><trkpt lat="42.074239400233694" lon="14.765733960039668"><ele>2.0</ele><time>2026-03-22T11:47:51Z</time></trkpt><trkpt lat="42.074274967917724" lon="14.765549988369376"><ele>2.0</ele><time>2026-03-22T11:47:53Z</time></trkpt><trkpt lat="42.07431524111167" lon="14.76541840506719"><ele>2.0</ele><time>2026-03-22T11:47:54Z</time></trkpt><trkpt lat="42.07435688650314" lon="14.7652823385076"><ele>2.2</ele><time>2026-03-22T11:47:55Z</time></trkpt><trkpt lat="42.07439516955696" lon="14.765157257453431"><ele>2.4000000000000004</ele><time>2026-03-22T11:47:56Z</time></trkpt><trkpt lat="42.07443592031129" lon="14.765024113882994"><ele>2.5999999999999996</ele><time>2026-03-22T11:47:57Z</time></trkpt><trkpt lat="42.07447765707184" lon="14.76488774870952"><ele>2.8</ele><time>2026-03-22T11:47:58Z</time></trkpt><trkpt lat="42.074521004711386" lon="14.7647461203728"><ele>3.0</ele><time>2026-03-22T11:47:59Z</time></trkpt><trkpt lat="42.07456743124827" lon="14.76459443292489"><ele>3.0</ele><time>2026-03-22T11:48:00Z</time></trkpt><trkpt lat="42.07461322374042" lon="14.764443440635473"><ele>3.0</ele><time>2026-03-22T11:48:01Z</time></trkpt><trkpt lat="42.074660430956584" lon="14.764288091991284"><ele>3.0</ele><time>2026-03-22T11:48:02Z</time></trkpt><trkpt lat="42.07470840837983" lon="14.76413020871595"><ele>3.0</ele><time>2026-03-22T11:48:03Z</time></trkpt><trkpt lat="42.0747566717643" lon="14.763971384417495"><ele>3.0</ele><time>2026-03-22T11:48:04Z</time></trkpt><trkpt lat="42.07480573657242" lon="14.763809922802007"><ele>3.0</ele><time>2026-03-22T11:48:05Z</time></trkpt><trkpt lat="42.07485422877071" lon="14.763650345514682"><ele>3.0</ele><time>2026-03-22T11:48:06Z</time></trkpt><trkpt lat="42.0749056315364" lon="14.763480600713608"><ele>3.0</ele><time>2026-03-22T11:48:07Z</time></trkpt><trkpt lat="42.07495746206991" lon="14.763309417656032"><ele>2.5</ele><time>2026-03-22T11:48:08Z</time></trkpt><trkpt lat="42.0750084858578" lon="14.76314119664039"><ele>2.0</ele><time>2026-03-22T11:48:09Z</time></trkpt><trkpt lat="42.07505920208845" lon="14.762974306420524"><ele>1.5</ele><time>2026-03-22T11:48:10Z</time></trkpt><trkpt lat="42.07511083907532" lon="14.762804231896009"><ele>1.0</ele><time>2026-03-22T11:48:11Z</time></trkpt><trkpt lat="42.075163114453694" lon="14.762631653901462"><ele>1.0</ele><time>2026-03-22T11:48:12Z</time></trkpt><trkpt lat="42.0752138108785" lon="14.762464288558643"><ele>1.0</ele><time>2026-03-22T11:48:13Z</time></trkpt><trkpt lat="42.07527074202824" lon="14.76227634039526"><ele>1.0</ele><time>2026-03-22T11:48:14Z</time></trkpt><trkpt lat="42.07532592248449" lon="14.762094656085667"><ele>1.0</ele><time>2026-03-22T11:48:15Z</time></trkpt><trkpt lat="42.075387238836235" lon="14.761904122009971"><ele>1.3333333333333333</ele><time>2026-03-22T11:48:16Z</time></trkpt><trkpt lat="42.07545325397332" lon="14.761710818812906"><ele>1.6666666666666665</ele><time>2026-03-22T11:48:17Z</time></trkpt><trkpt lat="42.075525603250384" lon="14.761515888495973"><ele>2.0</ele><time>2026-03-22T11:48:18Z</time></trkpt><trkpt lat="42.07560518838288" lon="14.761320736134788"><ele>2.0</ele><time>2026-03-22T11:48:19Z</time></trkpt><trkpt lat="42.07568536560455" lon="14.761131326564822"><ele>2.0</ele><time>2026-03-22T11:48:20Z</time></trkpt><trkpt lat="42.075765598395385" lon="14.760943490401715"><ele>2.0</ele><time>2026-03-22T11:48:21Z</time></trkpt><trkpt lat="42.07584638033163" lon="14.76075437026473"><ele>1.6666666666666665</ele><time>2026-03-22T11:48:22Z</time></trkpt><trkpt lat="42.075924718575465" lon="14.76057096964398"><ele>1.3333333333333333</ele><time>2026-03-22T11:48:23Z</time></trkpt><trkpt lat="42.076004671803204" lon="14.760383787812962"><ele>1.0</ele><time>2026-03-22T11:48:24Z</time></trkpt><trkpt lat="42.076083692543115" lon="14.76019859234185"><ele>1.0</ele><time>2026-03-22T11:48:25Z</time></trkpt><trkpt lat="42.0761617257226" lon="14.760015575225067"><ele>1.0</ele><time>2026-03-22T11:48:26Z</time></trkpt><trkpt lat="42.07623878803837" lon="14.75983529947743"><ele>1.0</ele><time>2026-03-22T11:48:27Z</time></trkpt><trkpt lat="42.076315200603005" lon="14.759656644652996"><ele>1.0</ele><time>2026-03-22T11:48:28Z</time></trkpt><trkpt lat="42.07638897445626" lon="14.759484159180912"><ele>1.0</ele><time>2026-03-22T11:48:29Z</time></trkpt><trkpt lat="42.07646427770751" lon="14.75930809819918"><ele>1.0</ele><time>2026-03-22T11:48:30Z</time></trkpt><trkpt lat="42.07653899800376" lon="14.759133400053445"><ele>1.0</ele><time>2026-03-22T11:48:31Z</time></trkpt><trkpt lat="42.076613632614155" lon="14.758958647853145"><ele>1.0</ele><time>2026-03-22T11:48:32Z</time></trkpt><trkpt lat="42.07668888027784" lon="14.758783736859558"><ele>1.0</ele><time>2026-03-22T11:48:33Z</time></trkpt><trkpt lat="42.07676016516986" lon="14.758616240745898"><ele>1.0</ele><time>2026-03-22T11:48:34Z</time></trkpt><trkpt lat="42.07683142312641" lon="14.758448376523996"><ele>1.0</ele><time>2026-03-22T11:48:35Z</time></trkpt><trkpt lat="42.0769026437907" lon="14.758280600099255"><ele>1.5</ele><time>2026-03-22T11:48:36Z</time></trkpt><trkpt lat="42.0769743864169" lon="14.758111594129954"><ele>2.0</ele><time>2026-03-22T11:48:37Z</time></trkpt><trkpt lat="42.0770432500316" lon="14.757949470407711"><ele>2.5</ele><time>2026-03-22T11:48:38Z</time></trkpt><trkpt lat="42.077110823977144" lon="14.757790532025224"><ele>3.0</ele><time>2026-03-22T11:48:39Z</time></trkpt><trkpt lat="42.07717735205769" lon="14.757633394241884"><ele>3.25</ele><time>2026-03-22T11:48:40Z</time></trkpt><trkpt lat="42.07724414213161" lon="14.757475859661344"><ele>3.5</ele><time>2026-03-22T11:48:41Z</time></trkpt><trkpt lat="42.0773105178428" lon="14.757319355885937"><ele>3.75</ele><time>2026-03-22T11:48:42Z</time></trkpt><trkpt lat="42.0773755049381" lon="14.75716612621025"><ele>4.0</ele><time>2026-03-22T11:48:43Z</time></trkpt><trkpt lat="42.077438447581024" lon="14.757017677638968"><ele>3.6</ele><time>2026-03-22T11:48:44Z</time></trkpt><trkpt lat="42.07749905465783" lon="14.756874490848283"><ele>3.2</ele><time>2026-03-22T11:48:45Z</time></trkpt><trkpt lat="42.07755840442333" lon="14.756734274896187"><ele>2.8000000000000003</ele><time>2026-03-22T11:48:46Z</time></trkpt><trkpt lat="42.07758957772286" lon="14.756620263695957"><ele>2.4000000000000004</ele><time>2026-03-22T11:48:47Z</time></trkpt><trkpt lat="42.077638727131614" lon="14.756502425265392"><ele>2.0</ele><time>2026-03-22T11:48:48Z</time></trkpt><trkpt lat="42.07769151753174" lon="14.756375185450809"><ele>2.0</ele><time>2026-03-22T11:48:49Z</time></trkpt><trkpt lat="42.07774126446262" lon="14.756250521032817"><ele>2.0</ele><time>2026-03-22T11:48:50Z</time></trkpt><trkpt lat="42.077794736624966" lon="14.756123937191147"><ele>2.0</ele><time>2026-03-22T11:48:51Z</time></trkpt><trkpt lat="42.077854712385566" lon="14.755990726205443"><ele>2.0</ele><time>2026-03-22T11:48:52Z</time></trkpt><trkpt lat="42.077916851152004" lon="14.755845102736627"><ele>2.0</ele><time>2026-03-22T11:48:53Z</time></trkpt><trkpt lat="42.07797604742679" lon="14.755705188386193"><ele>2.0</ele><time>2026-03-22T11:48:54Z</time></trkpt><trkpt lat="42.07803296869932" lon="14.755568954586522"><ele>2.0</ele><time>2026-03-22T11:48:55Z</time></trkpt><trkpt lat="42.07808683073701" lon="14.755440314127103"><ele>2.0</ele><time>2026-03-22T11:48:56Z</time></trkpt><trkpt lat="42.078133896128364" lon="14.755332726578668"><ele>2.0</ele><time>2026-03-22T11:48:57Z</time></trkpt><trkpt lat="42.078178798077026" lon="14.755228967691567"><ele>1.8</ele><time>2026-03-22T11:48:58Z</time></trkpt><trkpt lat="42.07822855065249" lon="14.755115251085634"><ele>1.6</ele><time>2026-03-22T11:48:59Z</time></trkpt><trkpt lat="42.078277233260074" lon="14.755001878151308"><ele>1.4000000000000001</ele><time>2026-03-22T11:49:00Z</time></trkpt><trkpt lat="42.07832567245763" lon="14.754885533702243"><ele>1.2000000000000002</ele><time>2026-03-22T11:49:01Z</time></trkpt><trkpt lat="42.07837454761326" lon="14.75476570380768"><ele>1.0</ele><time>2026-03-22T11:49:02Z</time></trkpt><trkpt lat="42.07842507215114" lon="14.754647474468483"><ele>1.0</ele><time>2026-03-22T11:49:03Z</time></trkpt><trkpt lat="42.078472295166506" lon="14.754534619675656"><ele>1.0</ele><time>2026-03-22T11:49:04Z</time></trkpt><trkpt lat="42.07851539418897" lon="14.7544350006992"><ele>1.0</ele><time>2026-03-22T11:49:05Z</time></trkpt><trkpt lat="42.0785589806695" lon="14.754335682211062"><ele>1.0</ele><time>2026-03-22T11:49:06Z</time></trkpt><trkpt lat="42.078600062724114" lon="14.754246089722459"><ele>1.0</ele><time>2026-03-22T11:49:07Z</time></trkpt><trkpt lat="42.078662473439856" lon="14.75411066305791"><ele>0.9999999999999999</ele><time>2026-03-22T11:49:09Z</time></trkpt><trkpt lat="42.07869659133101" lon="14.753996189600972"><ele>1.0</ele><time>2026-03-22T11:49:11Z</time></trkpt><trkpt lat="42.078660721736526" lon="14.753923156271457"><ele>1.0</ele><time>2026-03-22T11:49:14Z</time></trkpt><trkpt lat="42.078604463123504" lon="14.753865504748559"><ele>1.0</ele><time>2026-03-22T11:49:15Z</time></trkpt><trkpt lat="42.07850992063858" lon="14.753826951514569"><ele>0.9999999999999999</ele><time>2026-03-22T11:49:16Z</time></trkpt><trkpt lat="42.078431977663136" lon="14.753753417212597"><ele>1.0</ele><time>2026-03-22T11:49:17Z</time></trkpt><trkpt lat="42.07833791432477" lon="14.753684557767695"><ele>1.5</ele><time>2026-03-22T11:49:18Z</time></trkpt><trkpt lat="42.07823218306041" lon="14.75360715679194"><ele>2.0</ele><time>2026-03-22T11:49:19Z</time></trkpt><trkpt lat="42.078120358419326" lon="14.75352529514441"><ele>2.5</ele><time>2026-03-22T11:49:20Z</time></trkpt><trkpt lat="42.078008411127854" lon="14.753468219881535"><ele>3.0</ele><time>2026-03-22T11:49:21Z</time></trkpt><trkpt lat="42.07791293391799" lon="14.75339126673795"><ele>3.0</ele><time>2026-03-22T11:49:22Z</time></trkpt><trkpt lat="42.07781325963532" lon="14.753319388467922"><ele>3.0</ele><time>2026-03-22T11:49:23Z</time></trkpt><trkpt lat="42.077722737170454" lon="14.753246036644105"><ele>3.0</ele><time>2026-03-22T11:49:24Z</time></trkpt><trkpt lat="42.07762453474479" lon="14.753177893875367"><ele>3.0</ele><time>2026-03-22T11:49:25Z</time></trkpt><trkpt lat="42.0775323594537" lon="14.753111873450518"><ele>3.0</ele><time>2026-03-22T11:49:26Z</time></trkpt><trkpt lat="42.07743755881493" lon="14.753031917927217"><ele>3.4</ele><time>2026-03-22T11:49:27Z</time></trkpt><trkpt lat="42.07733953553137" lon="14.752959414959431"><ele>3.8</ele><time>2026-03-22T11:49:28Z</time></trkpt><trkpt lat="42.07724127838418" lon="14.75288698494346"><ele>4.2</ele><time>2026-03-22T11:49:29Z</time></trkpt><trkpt lat="42.07714570604614" lon="14.752816024561417"><ele>4.6</ele><time>2026-03-22T11:49:30Z</time></trkpt><trkpt lat="42.07706538489" lon="14.752763506752066"><ele>5.0</ele><time>2026-03-22T11:49:31Z</time></trkpt><trkpt lat="42.07699726149176" lon="14.75271110802599"><ele>5.0</ele><time>2026-03-22T11:49:32Z</time></trkpt><trkpt lat="42.07689645716636" lon="14.752639619282677"><ele>5.0</ele><time>2026-03-22T11:49:34Z</time></trkpt><trkpt lat="42.07681750301873" lon="14.752587622522999"><ele>5.0</ele><time>2026-03-22T11:49:36Z</time></trkpt><trkpt lat="42.07673892712918" lon="14.752623700887172"><ele>5.0</ele><time>2026-03-22T11:49:37Z</time></trkpt><trkpt lat="42.07665697518557" lon="14.752679155710565"><ele>5.0</ele><time>2026-03-22T11:49:39Z</time></trkpt><trkpt lat="42.07656713889758" lon="14.75271602437748"><ele>5.0</ele><time>2026-03-22T11:49:41Z</time></trkpt><trkpt lat="42.076524675357426" lon="14.75259068697575"><ele>5.0</ele><time>2026-03-22T11:49:43Z</time></trkpt><trkpt lat="42.076538686231835" lon="14.752490926429626"><ele>5.0</ele><time>2026-03-22T11:49:44Z</time></trkpt><trkpt lat="42.07658004316462" lon="14.752383351310165"><ele>5.0</ele><time>2026-03-22T11:49:45Z</time></trkpt><trkpt lat="42.07663420726287" lon="14.752281472910042"><ele>5.0</ele><time>2026-03-22T11:49:46Z</time></trkpt><trkpt lat="42.07670580562408" lon="14.75217347946135"><ele>5.0</ele><time>2026-03-22T11:49:47Z</time></trkpt><trkpt lat="42.07679801018031" lon="14.752028084459626"><ele>5.0</ele><time>2026-03-22T11:49:48Z</time></trkpt><trkpt lat="42.07689458557273" lon="14.751853252903796"><ele>5.0</ele><time>2026-03-22T11:49:49Z</time></trkpt><trkpt lat="42.07697887389052" lon="14.751693037534887"><ele>5.0</ele><time>2026-03-22T11:49:50Z</time></trkpt><trkpt lat="42.07706704981685" lon="14.7515339662777"><ele>5.333333333333334</ele><time>2026-03-22T11:49:51Z</time></trkpt><trkpt lat="42.0771572056278" lon="14.751370749206952"><ele>5.666666666666667</ele><time>2026-03-22T11:49:52Z</time></trkpt><trkpt lat="42.07725728059386" lon="14.75120774874071"><ele>6.0</ele><time>2026-03-22T11:49:53Z</time></trkpt><trkpt lat="42.077354403110746" lon="14.751033730733411"><ele>6.333333333333334</ele><time>2026-03-22T11:49:54Z</time></trkpt><trkpt lat="42.077450571899966" lon="14.750856361732923"><ele>6.666666666666667</ele><time>2026-03-22T11:49:55Z</time></trkpt><trkpt lat="42.07754496630152" lon="14.750680973720279"><ele>7.0</ele><time>2026-03-22T11:49:56Z</time></trkpt><trkpt lat="42.077638496841715" lon="14.750516690013546"><ele>7.0</ele><time>2026-03-22T11:49:57Z</time></trkpt><trkpt lat="42.07773200595035" lon="14.75035458762017"><ele>7.0</ele><time>2026-03-22T11:49:58Z</time></trkpt><trkpt lat="42.07782351652075" lon="14.750192544953384"><ele>7.0</ele><time>2026-03-22T11:49:59Z</time></trkpt><trkpt lat="42.07791301524206" lon="14.750030037286672"><ele>7.0</ele><time>2026-03-22T11:50:00Z</time></trkpt><trkpt lat="42.07800091683039" lon="14.749871776174642"><ele>7.0</ele><time>2026-03-22T11:50:01Z</time></trkpt><trkpt lat="42.078083392472394" lon="14.749720205419052"><ele>7.0</ele><time>2026-03-22T11:50:02Z</time></trkpt><trkpt lat="42.07816478405818" lon="14.749571063136619"><ele>7.0</ele><time>2026-03-22T11:50:03Z</time></trkpt><trkpt lat="42.07824537392056" lon="14.749413516629332"><ele>6.333333333333334</ele><time>2026-03-22T11:50:04Z</time></trkpt><trkpt lat="42.078333975952745" lon="14.749238081648691"><ele>5.666666666666667</ele><time>2026-03-22T11:50:05Z</time></trkpt><trkpt lat="42.07844472869138" lon="14.749033234337306"><ele>5.0</ele><time>2026-03-22T11:50:06Z</time></trkpt><trkpt lat="42.07856595409464" lon="14.748833314860358"><ele>5.0</ele><time>2026-03-22T11:50:07Z</time></trkpt><trkpt lat="42.07868591212631" lon="14.748635899526507"><ele>5.0</ele><time>2026-03-22T11:50:08Z</time></trkpt><trkpt lat="42.07880471385804" lon="14.748432850978102"><ele>5.0</ele><time>2026-03-22T11:50:09Z</time></trkpt><trkpt lat="42.07891934760204" lon="14.748230689709406"><ele>5.0</ele><time>2026-03-22T11:50:10Z</time></trkpt><trkpt lat="42.07902760942397" lon="14.748031289060538"><ele>5.0</ele><time>2026-03-22T11:50:11Z</time></trkpt><trkpt lat="42.0791257911375" lon="14.747849133108957"><ele>5.0</ele><time>2026-03-22T11:50:12Z</time></trkpt><trkpt lat="42.079219396196144" lon="14.747680866651777"><ele>5.0</ele><time>2026-03-22T11:50:13Z</time></trkpt><trkpt lat="42.07930282282397" lon="14.74753202082582"><ele>5.0</ele><time>2026-03-22T11:50:14Z</time></trkpt><trkpt lat="42.07937239935413" lon="14.747405501530064"><ele>5.0</ele><time>2026-03-22T11:50:15Z</time></trkpt><trkpt lat="42.07943963020906" lon="14.747293288573466"><ele>5.0</ele><time>2026-03-22T11:50:16Z</time></trkpt><trkpt lat="42.079507048229736" lon="14.747176001362412"><ele>5.0</ele><time>2026-03-22T11:50:17Z</time></trkpt><trkpt lat="42.079569675806304" lon="14.747060030863027"><ele>5.0</ele><time>2026-03-22T11:50:18Z</time></trkpt><trkpt lat="42.07963082633877" lon="14.746952487332852"><ele>5.0</ele><time>2026-03-22T11:50:19Z</time></trkpt><trkpt lat="42.079686575341654" lon="14.746846444096825"><ele>5.0</ele><time>2026-03-22T11:50:20Z</time></trkpt><trkpt lat="42.07973866509946" lon="14.746747089114004"><ele>5.0</ele><time>2026-03-22T11:50:21Z</time></trkpt><trkpt lat="42.079783498502515" lon="14.746657248366416"><ele>5.0</ele><time>2026-03-22T11:50:22Z</time></trkpt><trkpt lat="42.07984564858992" lon="14.746552032340393"><ele>5.0</ele><time>2026-03-22T11:50:23Z</time></trkpt><trkpt lat="42.07992462759512" lon="14.746416565403162"><ele>5.0</ele><time>2026-03-22T11:50:24Z</time></trkpt><trkpt lat="42.080016788129804" lon="14.746271416301793"><ele>5.0</ele><time>2026-03-22T11:50:25Z</time></trkpt><trkpt lat="42.08011308892179" lon="14.74611770829677"><ele>5.25</ele><time>2026-03-22T11:50:26Z</time></trkpt><trkpt lat="42.0802062345407" lon="14.74597319838838"><ele>5.5</ele><time>2026-03-22T11:50:27Z</time></trkpt><trkpt lat="42.08028960003311" lon="14.745842343546515"><ele>5.75</ele><time>2026-03-22T11:50:28Z</time></trkpt><trkpt lat="42.08036644906144" lon="14.745717437747762"><ele>6.0</ele><time>2026-03-22T11:50:29Z</time></trkpt><trkpt lat="42.080446777793426" lon="14.745595174295318"><ele>6.0</ele><time>2026-03-22T11:50:30Z</time></trkpt><trkpt lat="42.08062463130064" lon="14.745299001923309"><ele>6.0</ele><time>2026-03-22T11:50:32Z</time></trkpt><trkpt lat="42.08073285192646" lon="14.745112937154685"><ele>5.333333333333333</ele><time>2026-03-22T11:50:33Z</time></trkpt><trkpt lat="42.08084524585154" lon="14.744932420373324"><ele>4.666666666666666</ele><time>2026-03-22T11:50:34Z</time></trkpt><trkpt lat="42.08095586808784" lon="14.744754874257739"><ele>4.0</ele><time>2026-03-22T11:50:35Z</time></trkpt><trkpt lat="42.08106961480474" lon="14.744577331671612"><ele>4.0</ele><time>2026-03-22T11:50:36Z</time></trkpt><trkpt lat="42.081184437374006" lon="14.744388653686004"><ele>4.0</ele><time>2026-03-22T11:50:37Z</time></trkpt><trkpt lat="42.08129900052986" lon="14.744203169715291"><ele>4.0</ele><time>2026-03-22T11:50:38Z</time></trkpt><trkpt lat="42.08141359487445" lon="14.744022244440906"><ele>4.333333333333333</ele><time>2026-03-22T11:50:39Z</time></trkpt><trkpt lat="42.08152598713493" lon="14.743842397983007"><ele>4.666666666666667</ele><time>2026-03-22T11:50:40Z</time></trkpt><trkpt lat="42.08163334246152" lon="14.743663201777787"><ele>5.0</ele><time>2026-03-22T11:50:41Z</time></trkpt><trkpt lat="42.081738320552304" lon="14.74349693089578"><ele>5.5</ele><time>2026-03-22T11:50:42Z</time></trkpt><trkpt lat="42.081830586838855" lon="14.743348463321393"><ele>6.0</ele><time>2026-03-22T11:50:43Z</time></trkpt><trkpt lat="42.081901060867615" lon="14.74319592067863"><ele>6.5</ele><time>2026-03-22T11:50:44Z</time></trkpt><trkpt lat="42.08196998337261" lon="14.743075686511125"><ele>7.0</ele><time>2026-03-22T11:50:45Z</time></trkpt><trkpt lat="42.082024867762385" lon="14.742979977566234"><ele>7.000000000000001</ele><time>2026-03-22T11:50:46Z</time></trkpt><trkpt lat="42.0820720368234" lon="14.742897739559197"><ele>7.0</ele><time>2026-03-22T11:50:47Z</time></trkpt><trkpt lat="42.08214133105217" lon="14.74280166229177"><ele>7.0</ele><time>2026-03-22T11:50:49Z</time></trkpt><trkpt lat="42.0821883360324" lon="14.742692841158705"><ele>7.0</ele><time>2026-03-22T11:51:00Z</time></trkpt><trkpt lat="42.082175520540176" lon="14.74260560643285"><ele>7.000000000000001</ele><time>2026-03-22T11:51:01Z</time></trkpt><trkpt lat="42.08224501599627" lon="14.742504581100574"><ele>7.0</ele><time>2026-03-22T11:51:03Z</time></trkpt><trkpt lat="42.08231458864642" lon="14.742469979547444"><ele>6.8</ele><time>2026-03-22T11:51:04Z</time></trkpt><trkpt lat="42.082368251931214" lon="14.742407497573716"><ele>6.6</ele><time>2026-03-22T11:51:05Z</time></trkpt><trkpt lat="42.08238649955316" lon="14.74229131460565"><ele>6.3999999999999995</ele><time>2026-03-22T11:51:06Z</time></trkpt><trkpt lat="42.082437485056666" lon="14.742186518465934"><ele>6.199999999999999</ele><time>2026-03-22T11:51:07Z</time></trkpt><trkpt lat="42.08249083823954" lon="14.742076855672035"><ele>6.0</ele><time>2026-03-22T11:51:08Z</time></trkpt><trkpt lat="42.08260662591235" lon="14.742012158928885"><ele>6.0</ele><time>2026-03-22T11:51:09Z</time></trkpt><trkpt lat="42.082676352942606" lon="14.74191330315703"><ele>6.0</ele><time>2026-03-22T11:51:10Z</time></trkpt><trkpt lat="42.082757033192344" lon="14.741793192818875"><ele>6.0</ele><time>2026-03-22T11:51:11Z</time></trkpt><trkpt lat="42.082848415311105" lon="14.741643700370988"><ele>6.0</ele><time>2026-03-22T11:51:12Z</time></trkpt><trkpt lat="42.082948019110326" lon="14.741479104484403"><ele>5.666666666666667</ele><time>2026-03-22T11:51:13Z</time></trkpt><trkpt lat="42.083050158084916" lon="14.741307799158143"><ele>5.333333333333334</ele><time>2026-03-22T11:51:14Z</time></trkpt><trkpt lat="42.08315117257941" lon="14.741137514394223"><ele>5.0</ele><time>2026-03-22T11:51:15Z</time></trkpt><trkpt lat="42.08325431539507" lon="14.740965499523114"><ele>5.0</ele><time>2026-03-22T11:51:16Z</time></trkpt><trkpt lat="42.08336607250591" lon="14.74078923662203"><ele>5.0</ele><time>2026-03-22T11:51:17Z</time></trkpt><trkpt lat="42.083480278584126" lon="14.74060841572032"><ele>5.0</ele><time>2026-03-22T11:51:18Z</time></trkpt><trkpt lat="42.0835935828582" lon="14.740428658794773"><ele>5.0</ele><time>2026-03-22T11:51:19Z</time></trkpt><trkpt lat="42.08370678822594" lon="14.740250918816335"><ele>5.0</ele><time>2026-03-22T11:51:20Z</time></trkpt><trkpt lat="42.08381879674307" lon="14.740075929807974"><ele>5.0</ele><time>2026-03-22T11:51:21Z</time></trkpt><trkpt lat="42.083930392570274" lon="14.73990164360517"><ele>5.0</ele><time>2026-03-22T11:51:22Z</time></trkpt><trkpt lat="42.08404372774831" lon="14.73972665574942"><ele>5.0</ele><time>2026-03-22T11:51:23Z</time></trkpt><trkpt lat="42.0841583826254" lon="14.739553106251282"><ele>5.0</ele><time>2026-03-22T11:51:24Z</time></trkpt><trkpt lat="42.084272496144905" lon="14.73937929109547"><ele>4.666666666666667</ele><time>2026-03-22T11:51:25Z</time></trkpt><trkpt lat="42.08438470312747" lon="14.739208820241203"><ele>4.333333333333333</ele><time>2026-03-22T11:51:26Z</time></trkpt><trkpt lat="42.08449203301985" lon="14.739050767589685"><ele>4.0</ele><time>2026-03-22T11:51:27Z</time></trkpt><trkpt lat="42.08459250844541" lon="14.738905412546352"><ele>4.0</ele><time>2026-03-22T11:51:28Z</time></trkpt><trkpt lat="42.08468758311025" lon="14.738767599026355"><ele>4.0</ele><time>2026-03-22T11:51:29Z</time></trkpt><trkpt lat="42.08478776257202" lon="14.738606158141605"><ele>4.0</ele><time>2026-03-22T11:51:30Z</time></trkpt><trkpt lat="42.084904908155806" lon="14.738417276312054"><ele>3.6666666666666665</ele><time>2026-03-22T11:51:31Z</time></trkpt><trkpt lat="42.08503555825982" lon="14.73821392018875"><ele>3.333333333333333</ele><time>2026-03-22T11:51:32Z</time></trkpt><trkpt lat="42.0851687015165" lon="14.738013726919846"><ele>3.0</ele><time>2026-03-22T11:51:33Z</time></trkpt><trkpt lat="42.08529651130109" lon="14.737814438881252"><ele>3.0</ele><time>2026-03-22T11:51:34Z</time></trkpt><trkpt lat="42.08542735737552" lon="14.737616939994272"><ele>3.0</ele><time>2026-03-22T11:51:35Z</time></trkpt><trkpt lat="42.08556732521298" lon="14.737418738901658"><ele>3.0</ele><time>2026-03-22T11:51:36Z</time></trkpt><trkpt lat="42.085709397657155" lon="14.737217497360358"><ele>3.333333333333333</ele><time>2026-03-22T11:51:37Z</time></trkpt><trkpt lat="42.08584883882312" lon="14.737009348548257"><ele>3.6666666666666665</ele><time>2026-03-22T11:51:38Z</time></trkpt><trkpt lat="42.08596980391408" lon="14.73677482069908"><ele>4.0</ele><time>2026-03-22T11:51:39Z</time></trkpt><trkpt lat="42.08610929338175" lon="14.736558892372404"><ele>4.0</ele><time>2026-03-22T11:51:40Z</time></trkpt><trkpt lat="42.086249226341224" lon="14.736343622127418"><ele>4.0</ele><time>2026-03-22T11:51:41Z</time></trkpt><trkpt lat="42.08639125111818" lon="14.736123612738455"><ele>4.0</ele><time>2026-03-22T11:51:42Z</time></trkpt><trkpt lat="42.08654849158192" lon="14.735920504380426"><ele>4.666666666666666</ele><time>2026-03-22T11:51:43Z</time></trkpt><trkpt lat="42.0866891015548" lon="14.735705863501972"><ele>5.333333333333333</ele><time>2026-03-22T11:51:44Z</time></trkpt><trkpt lat="42.08682364848613" lon="14.735501788694378"><ele>6.0</ele><time>2026-03-22T11:51:45Z</time></trkpt><trkpt lat="42.08695372142465" lon="14.735297680145903"><ele>5.666666666666667</ele><time>2026-03-22T11:51:46Z</time></trkpt><trkpt lat="42.08708710787715" lon="14.735097147057402"><ele>5.333333333333334</ele><time>2026-03-22T11:51:47Z</time></trkpt><trkpt lat="42.08721915764905" lon="14.734891967210402"><ele>5.0</ele><time>2026-03-22T11:51:48Z</time></trkpt><trkpt lat="42.08735018481763" lon="14.734686044621373"><ele>5.0</ele><time>2026-03-22T11:51:49Z</time></trkpt><trkpt lat="42.08748320730875" lon="14.73447952889988"><ele>5.0</ele><time>2026-03-22T11:51:50Z</time></trkpt><trkpt lat="42.08761971407227" lon="14.734273913438916"><ele>5.0</ele><time>2026-03-22T11:51:51Z</time></trkpt><trkpt lat="42.087739093517776" lon="14.734044964425088"><ele>5.0</ele><time>2026-03-22T11:51:52Z</time></trkpt><trkpt lat="42.08787850926888" lon="14.733829795831229"><ele>5.0</ele><time>2026-03-22T11:51:53Z</time></trkpt><trkpt lat="42.0880199886268" lon="14.733610961397142"><ele>5.0</ele><time>2026-03-22T11:51:54Z</time></trkpt><trkpt lat="42.08816199737835" lon="14.733390424880698"><ele>4.666666666666667</ele><time>2026-03-22T11:51:55Z</time></trkpt><trkpt lat="42.08830478018821" lon="14.733168312478634"><ele>4.333333333333333</ele><time>2026-03-22T11:51:56Z</time></trkpt><trkpt lat="42.088446671459955" lon="14.732946290988036"><ele>4.0</ele><time>2026-03-22T11:51:57Z</time></trkpt><trkpt lat="42.088599431499915" lon="14.732740697799697"><ele>4.333333333333333</ele><time>2026-03-22T11:51:58Z</time></trkpt><trkpt lat="42.08873926337833" lon="14.73251870792813"><ele>4.666666666666667</ele><time>2026-03-22T11:51:59Z</time></trkpt><trkpt lat="42.08887704069301" lon="14.73229925481253"><ele>5.0</ele><time>2026-03-22T11:52:00Z</time></trkpt><trkpt lat="42.08901870132553" lon="14.73208796939348"><ele>4.0</ele><time>2026-03-22T11:52:01Z</time></trkpt><trkpt lat="42.089164221103445" lon="14.731885736194766"><ele>3.0</ele><time>2026-03-22T11:52:02Z</time></trkpt><trkpt lat="42.08930865093514" lon="14.731687671343325"><ele>2.0</ele><time>2026-03-22T11:52:03Z</time></trkpt><trkpt lat="42.08945898178012" lon="14.731497658032277"><ele>2.0</ele><time>2026-03-22T11:52:04Z</time></trkpt><trkpt lat="42.08960807318854" lon="14.731309294979523"><ele>2.0</ele><time>2026-03-22T11:52:05Z</time></trkpt><trkpt lat="42.089746901960666" lon="14.731102272356088"><ele>2.0</ele><time>2026-03-22T11:52:06Z</time></trkpt><trkpt lat="42.089895918317985" lon="14.730906139781277"><ele>3.0</ele><time>2026-03-22T11:52:07Z</time></trkpt><trkpt lat="42.09004435498171" lon="14.730710546583508"><ele>4.0</ele><time>2026-03-22T11:52:08Z</time></trkpt><trkpt lat="42.09019210280478" lon="14.730513686672868"><ele>5.0</ele><time>2026-03-22T11:52:09Z</time></trkpt><trkpt lat="42.09035441713627" lon="14.730330055484417"><ele>5.0</ele><time>2026-03-22T11:52:10Z</time></trkpt><trkpt lat="42.09050112670119" lon="14.730129093479439"><ele>5.0</ele><time>2026-03-22T11:52:11Z</time></trkpt><trkpt lat="42.090649266417216" lon="14.729938309838454"><ele>5.0</ele><time>2026-03-22T11:52:12Z</time></trkpt><trkpt lat="42.090785252808125" lon="14.72972938237053"><ele>5.0</ele><time>2026-03-22T11:52:13Z</time></trkpt><trkpt lat="42.090941497213606" lon="14.72955327186545"><ele>5.0</ele><time>2026-03-22T11:52:14Z</time></trkpt><trkpt lat="42.09108565886867" lon="14.72936126992064"><ele>5.0</ele><time>2026-03-22T11:52:15Z</time></trkpt><trkpt lat="42.09122826737797" lon="14.729177365182526"><ele>5.0</ele><time>2026-03-22T11:52:16Z</time></trkpt><trkpt lat="42.09135197139731" lon="14.728983838011231"><ele>5.0</ele><time>2026-03-22T11:52:17Z</time></trkpt><trkpt lat="42.091484446710645" lon="14.7288096132975"><ele>5.0</ele><time>2026-03-22T11:52:18Z</time></trkpt><trkpt lat="42.09162597702649" lon="14.728653031686614"><ele>4.666666666666667</ele><time>2026-03-22T11:52:19Z</time></trkpt><trkpt lat="42.091742484692475" lon="14.728469270065645"><ele>4.333333333333333</ele><time>2026-03-22T11:52:20Z</time></trkpt><trkpt lat="42.09186475362153" lon="14.728309368108235"><ele>4.0</ele><time>2026-03-22T11:52:21Z</time></trkpt><trkpt lat="42.09197942278864" lon="14.728158836952595"><ele>4.0</ele><time>2026-03-22T11:52:22Z</time></trkpt><trkpt lat="42.09208960980106" lon="14.72801370348881"><ele>4.0</ele><time>2026-03-22T11:52:23Z</time></trkpt><trkpt lat="42.09219068022171" lon="14.7278807390843"><ele>4.0</ele><time>2026-03-22T11:52:24Z</time></trkpt><trkpt lat="42.09229838279645" lon="14.727740434636244"><ele>4.0</ele><time>2026-03-22T11:52:25Z</time></trkpt><trkpt lat="42.092428254278325" lon="14.727617483806878"><ele>6.0</ele><time>2026-03-22T11:52:26Z</time></trkpt><trkpt lat="42.09254274992067" lon="14.72746460458726"><ele>8.0</ele><time>2026-03-22T11:52:27Z</time></trkpt><trkpt lat="42.092658442717074" lon="14.727308080300473"><ele>10.0</ele><time>2026-03-22T11:52:28Z</time></trkpt><trkpt lat="42.092774132074986" lon="14.727155539889212"><ele>10.0</ele><time>2026-03-22T11:52:29Z</time></trkpt><trkpt lat="42.0928834560305" lon="14.727014569269334"><ele>10.0</ele><time>2026-03-22T11:52:30Z</time></trkpt><trkpt lat="42.09296697214764" lon="14.72690637430809"><ele>10.0</ele><time>2026-03-22T11:52:31Z</time></trkpt><trkpt lat="42.09302115943505" lon="14.726841532641487"><ele>10.0</ele><time>2026-03-22T11:52:33Z</time></trkpt><trkpt lat="42.09311156090197" lon="14.726670509389596"><ele>9.25</ele><time>2026-03-22T11:53:15Z</time></trkpt><trkpt lat="42.09322891321727" lon="14.726578529880793"><ele>8.5</ele><time>2026-03-22T11:53:16Z</time></trkpt><trkpt lat="42.09331530932149" lon="14.726456169332389"><ele>7.75</ele><time>2026-03-22T11:53:17Z</time></trkpt><trkpt lat="42.09341272658821" lon="14.726318295404564"><ele>7.0</ele><time>2026-03-22T11:53:18Z</time></trkpt><trkpt lat="42.093515830790594" lon="14.726149014196737"><ele>7.0</ele><time>2026-03-22T11:53:19Z</time></trkpt><trkpt lat="42.09362250032317" lon="14.725972648005651"><ele>7.0</ele><time>2026-03-22T11:53:20Z</time></trkpt><trkpt lat="42.09371699864321" lon="14.725779842643872"><ele>7.0</ele><time>2026-03-22T11:53:21Z</time></trkpt><trkpt lat="42.09380006730163" lon="14.725547099346416"><ele>7.0</ele><time>2026-03-22T11:53:22Z</time></trkpt><trkpt lat="42.09391112656095" lon="14.725321737893692"><ele>7.0</ele><time>2026-03-22T11:53:23Z</time></trkpt><trkpt lat="42.09402571006443" lon="14.72508922500634"><ele>7.0</ele><time>2026-03-22T11:53:24Z</time></trkpt><trkpt lat="42.09414617865921" lon="14.724845008582742"><ele>7.0</ele><time>2026-03-22T11:53:25Z</time></trkpt><trkpt lat="42.09425647378586" lon="14.724621097933685"><ele>7.0</ele><time>2026-03-22T11:53:26Z</time></trkpt><trkpt lat="42.09437236683175" lon="14.72438598472319"><ele>7.0</ele><time>2026-03-22T11:53:27Z</time></trkpt><trkpt lat="42.09448937339078" lon="14.724148612530465"><ele>6.666666666666667</ele><time>2026-03-22T11:53:28Z</time></trkpt><trkpt lat="42.0946239715722" lon="14.723914828582943"><ele>6.333333333333334</ele><time>2026-03-22T11:53:29Z</time></trkpt><trkpt lat="42.094740924140304" lon="14.723671490848346"><ele>6.0</ele><time>2026-03-22T11:53:30Z</time></trkpt><trkpt lat="42.09486091471455" lon="14.72343204358904"><ele>7.0</ele><time>2026-03-22T11:53:31Z</time></trkpt><trkpt lat="42.09497915704419" lon="14.723187571334106"><ele>8.0</ele><time>2026-03-22T11:53:32Z</time></trkpt><trkpt lat="42.095081198139134" lon="14.722932532799435"><ele>9.0</ele><time>2026-03-22T11:53:33Z</time></trkpt><trkpt lat="42.095169640083924" lon="14.722665250196707"><ele>9.333333333333334</ele><time>2026-03-22T11:53:34Z</time></trkpt><trkpt lat="42.09523967889796" lon="14.72238128439418"><ele>9.666666666666668</ele><time>2026-03-22T11:53:35Z</time></trkpt><trkpt lat="42.095299423716874" lon="14.722096876674371"><ele>10.0</ele><time>2026-03-22T11:53:36Z</time></trkpt><trkpt lat="42.095353601551565" lon="14.721808931298279"><ele>12.333333333333334</ele><time>2026-03-22T11:53:37Z</time></trkpt><trkpt lat="42.09540628942407" lon="14.721531313170857"><ele>14.666666666666668</ele><time>2026-03-22T11:53:38Z</time></trkpt><trkpt lat="42.095457368573435" lon="14.7212771628377"><ele>17.0</ele><time>2026-03-22T11:53:39Z</time></trkpt><trkpt lat="42.0955101079144" lon="14.721043739987744"><ele>18.666666666666668</ele><time>2026-03-22T11:53:40Z</time></trkpt><trkpt lat="42.09557613943486" lon="14.72082840438762"><ele>20.333333333333332</ele><time>2026-03-22T11:53:41Z</time></trkpt><trkpt lat="42.09564284982594" lon="14.720604415480352"><ele>22.0</ele><time>2026-03-22T11:53:42Z</time></trkpt><trkpt lat="42.09574031561342" lon="14.720396756243057"><ele>20.333333333333332</ele><time>2026-03-22T11:53:43Z</time></trkpt><trkpt lat="42.0958614726723" lon="14.720219156487264"><ele>18.666666666666668</ele><time>2026-03-22T11:53:44Z</time></trkpt><trkpt lat="42.095983633018534" lon="14.720039076879413"><ele>17.0</ele><time>2026-03-22T11:53:45Z</time></trkpt><trkpt lat="42.09611420171457" lon="14.719860655737177"><ele>17.0</ele><time>2026-03-22T11:53:46Z</time></trkpt><trkpt lat="42.09627972879769" lon="14.719729291909834"><ele>17.0</ele><time>2026-03-22T11:53:47Z</time></trkpt><trkpt lat="42.09643999711234" lon="14.719605062802012"><ele>17.0</ele><time>2026-03-22T11:53:48Z</time></trkpt><trkpt lat="42.096600818363356" lon="14.719487326723693"><ele>16.333333333333336</ele><time>2026-03-22T11:53:49Z</time></trkpt><trkpt lat="42.09675502673446" lon="14.719365887391742"><ele>15.666666666666668</ele><time>2026-03-22T11:53:50Z</time></trkpt><trkpt lat="42.09695843966027" lon="14.719278536211707"><ele>15.0</ele><time>2026-03-22T11:53:51Z</time></trkpt><trkpt lat="42.09717009968864" lon="14.719171212567527"><ele>15.0</ele><time>2026-03-22T11:53:52Z</time></trkpt><trkpt lat="42.09737443210984" lon="14.71907088034378"><ele>15.0</ele><time>2026-03-22T11:53:53Z</time></trkpt><trkpt lat="42.097581501903655" lon="14.71896718025281"><ele>15.0</ele><time>2026-03-22T11:53:54Z</time></trkpt><trkpt lat="42.09777479086949" lon="14.718864448273054"><ele>14.0</ele><time>2026-03-22T11:53:55Z</time></trkpt><trkpt lat="42.097960348115016" lon="14.718770835696214"><ele>13.0</ele><time>2026-03-22T11:53:56Z</time></trkpt><trkpt lat="42.09815083943758" lon="14.718686703648538"><ele>12.0</ele><time>2026-03-22T11:53:57Z</time></trkpt><trkpt lat="42.098335539129764" lon="14.718599413894363"><ele>11.666666666666666</ele><time>2026-03-22T11:53:58Z</time></trkpt><trkpt lat="42.09851992508188" lon="14.718514843397095"><ele>11.333333333333332</ele><time>2026-03-22T11:53:59Z</time></trkpt><trkpt lat="42.0987141451571" lon="14.718426213360091"><ele>11.0</ele><time>2026-03-22T11:54:00Z</time></trkpt><trkpt lat="42.09890732764848" lon="14.718333958200187"><ele>11.333333333333332</ele><time>2026-03-22T11:54:01Z</time></trkpt><trkpt lat="42.099098073261075" lon="14.718242565582809"><ele>11.666666666666666</ele><time>2026-03-22T11:54:02Z</time></trkpt><trkpt lat="42.09928213699895" lon="14.71814304026357"><ele>12.0</ele><time>2026-03-22T11:54:03Z</time></trkpt><trkpt lat="42.09945933836518" lon="14.718035538381786"><ele>12.0</ele><time>2026-03-22T11:54:04Z</time></trkpt><trkpt lat="42.09961640027127" lon="14.717885508420787"><ele>12.0</ele><time>2026-03-22T11:54:05Z</time></trkpt><trkpt lat="42.09976523379935" lon="14.717733964216468"><ele>12.0</ele><time>2026-03-22T11:54:06Z</time></trkpt><trkpt lat="42.09990633851763" lon="14.717559773269587"><ele>13.333333333333332</ele><time>2026-03-22T11:54:07Z</time></trkpt><trkpt lat="42.100031191326465" lon="14.717392533147473"><ele>14.666666666666666</ele><time>2026-03-22T11:54:08Z</time></trkpt><trkpt lat="42.100158651505616" lon="14.717253256889745"><ele>16.0</ele><time>2026-03-22T11:54:09Z</time></trkpt><trkpt lat="42.100250714386796" lon="14.71711420117215"><ele>16.0</ele><time>2026-03-22T11:54:10Z</time></trkpt><trkpt lat="42.10032482455776" lon="14.716999790678255"><ele>16.0</ele><time>2026-03-22T11:54:11Z</time></trkpt><trkpt lat="42.10038140884438" lon="14.716924652976175"><ele>16.0</ele><time>2026-03-22T11:54:12Z</time></trkpt><trkpt lat="42.10048488616622" lon="14.716824617444146"><ele>16.0</ele><time>2026-03-22T11:54:14Z</time></trkpt><trkpt lat="42.10069228205934" lon="14.71672109080836"><ele>16.0</ele><time>2026-03-22T11:54:16Z</time></trkpt><trkpt lat="42.100816161729895" lon="14.716696155806124"><ele>16.0</ele><time>2026-03-22T11:54:17Z</time></trkpt><trkpt lat="42.10095048937628" lon="14.716672032418526"><ele>16.0</ele><time>2026-03-22T11:54:18Z</time></trkpt><trkpt lat="42.10108058589531" lon="14.71663129467307"><ele>16.0</ele><time>2026-03-22T11:54:19Z</time></trkpt><trkpt lat="42.101216508484775" lon="14.716579375299817"><ele>16.0</ele><time>2026-03-22T11:54:20Z</time></trkpt><trkpt lat="42.10135711786131" lon="14.716528221855578"><ele>16.0</ele><time>2026-03-22T11:54:21Z</time></trkpt><trkpt lat="42.10150454203769" lon="14.71645877756085"><ele>16.0</ele><time>2026-03-22T11:54:22Z</time></trkpt><trkpt lat="42.10161948922759" lon="14.716424427095214"><ele>16.0</ele><time>2026-03-22T11:54:23Z</time></trkpt><trkpt lat="42.10175141278646" lon="14.716382915126408"><ele>16.400000000000002</ele><time>2026-03-22T11:54:24Z</time></trkpt><trkpt lat="42.10185481486464" lon="14.716335117678497"><ele>16.8</ele><time>2026-03-22T11:54:25Z</time></trkpt><trkpt lat="42.10196081154886" lon="14.71629746585722"><ele>17.200000000000003</ele><time>2026-03-22T11:54:26Z</time></trkpt><trkpt lat="42.10205569489879" lon="14.716250159170249"><ele>17.6</ele><time>2026-03-22T11:54:27Z</time></trkpt><trkpt lat="42.10214819466364" lon="14.716223732410402"><ele>18.0</ele><time>2026-03-22T11:54:28Z</time></trkpt><trkpt lat="42.10222986117063" lon="14.716202964866335"><ele>18.0</ele><time>2026-03-22T11:54:29Z</time></trkpt><trkpt lat="42.10230894708845" lon="14.716175354267744"><ele>18.0</ele><time>2026-03-22T11:54:30Z</time></trkpt><trkpt lat="42.10238009888029" lon="14.716140184680079"><ele>18.0</ele><time>2026-03-22T11:54:31Z</time></trkpt><trkpt lat="42.102477322026246" lon="14.716108903551378"><ele>18.0</ele><time>2026-03-22T11:54:33Z</time></trkpt><trkpt lat="42.102539250391786" lon="14.71607749449652"><ele>18.0</ele><time>2026-03-22T11:54:48Z</time></trkpt><trkpt lat="42.102671106364724" lon="14.716032770160012"><ele>18.666666666666668</ele><time>2026-03-22T11:54:50Z</time></trkpt><trkpt lat="42.10274154177274" lon="14.716012280356656"><ele>19.333333333333332</ele><time>2026-03-22T11:54:51Z</time></trkpt><trkpt lat="42.102822098944316" lon="14.715971970495264"><ele>20.0</ele><time>2026-03-22T11:54:52Z</time></trkpt><trkpt lat="42.102899293891305" lon="14.71592599736676"><ele>20.666666666666664</ele><time>2026-03-22T11:54:53Z</time></trkpt><trkpt lat="42.102992969380374" lon="14.715884474424826"><ele>21.333333333333332</ele><time>2026-03-22T11:54:54Z</time></trkpt><trkpt lat="42.10308748041631" lon="14.715828677632059"><ele>22.0</ele><time>2026-03-22T11:54:55Z</time></trkpt><trkpt lat="42.10317842749892" lon="14.715778003678977"><ele>21.8</ele><time>2026-03-22T11:54:56Z</time></trkpt><trkpt lat="42.10328080531367" lon="14.71572413147389"><ele>21.6</ele><time>2026-03-22T11:54:57Z</time></trkpt><trkpt lat="42.10338185755406" lon="14.71566888855072"><ele>21.400000000000002</ele><time>2026-03-22T11:54:58Z</time></trkpt><trkpt lat="42.103481325794654" lon="14.715608364618426"><ele>21.200000000000003</ele><time>2026-03-22T11:54:59Z</time></trkpt><trkpt lat="42.103588757045664" lon="14.715548016429542"><ele>21.0</ele><time>2026-03-22T11:55:00Z</time></trkpt><trkpt lat="42.10369262857297" lon="14.715501225288662"><ele>21.0</ele><time>2026-03-22T11:55:01Z</time></trkpt><trkpt lat="42.10380076203176" lon="14.715472898141169"><ele>21.0</ele><time>2026-03-22T11:55:02Z</time></trkpt><trkpt lat="42.10388600095726" lon="14.715391386177906"><ele>21.0</ele><time>2026-03-22T11:55:03Z</time></trkpt><trkpt lat="42.103986625415935" lon="14.715322997363835"><ele>21.0</ele><time>2026-03-22T11:55:04Z</time></trkpt><trkpt lat="42.10408944168568" lon="14.715278370968836"><ele>21.0</ele><time>2026-03-22T11:55:05Z</time></trkpt><trkpt lat="42.10419963835323" lon="14.71524490028696"><ele>22.0</ele><time>2026-03-22T11:55:06Z</time></trkpt><trkpt lat="42.10429527315822" lon="14.715221568244743"><ele>23.0</ele><time>2026-03-22T11:55:07Z</time></trkpt><trkpt lat="42.10437887795461" lon="14.715211696423966"><ele>24.0</ele><time>2026-03-22T11:55:08Z</time></trkpt><trkpt lat="42.10446518246556" lon="14.71520658898574"><ele>25.0</ele><time>2026-03-22T11:55:09Z</time></trkpt><trkpt lat="42.10454034129231" lon="14.715197202484665"><ele>26.0</ele><time>2026-03-22T11:55:10Z</time></trkpt><trkpt lat="42.10462083903721" lon="14.715199538229651"><ele>27.0</ele><time>2026-03-22T11:55:11Z</time></trkpt><trkpt lat="42.10471774995593" lon="14.715205366123818"><ele>27.0</ele><time>2026-03-22T11:55:12Z</time></trkpt><trkpt lat="42.10482930538151" lon="14.715220106814417"><ele>27.0</ele><time>2026-03-22T11:55:13Z</time></trkpt><trkpt lat="42.104954164411076" lon="14.715221612586772"><ele>27.0</ele><time>2026-03-22T11:55:14Z</time></trkpt><trkpt lat="42.10507865940945" lon="14.715233852682273"><ele>27.0</ele><time>2026-03-22T11:55:15Z</time></trkpt><trkpt lat="42.105231873582966" lon="14.715248777154287"><ele>27.0</ele><time>2026-03-22T11:55:16Z</time></trkpt><trkpt lat="42.1053979429577" lon="14.715254103854107"><ele>27.0</ele><time>2026-03-22T11:55:17Z</time></trkpt><trkpt lat="42.105579393868396" lon="14.71525901350807"><ele>27.0</ele><time>2026-03-22T11:55:18Z</time></trkpt><trkpt lat="42.10577150363648" lon="14.71527439483926"><ele>27.0</ele><time>2026-03-22T11:55:19Z</time></trkpt><trkpt lat="42.10595412680718" lon="14.715312125011641"><ele>27.0</ele><time>2026-03-22T11:55:20Z</time></trkpt><trkpt lat="42.10613950815023" lon="14.71535965482287"><ele>27.0</ele><time>2026-03-22T11:55:21Z</time></trkpt><trkpt lat="42.10632514238629" lon="14.7154265287773"><ele>27.0</ele><time>2026-03-22T11:55:22Z</time></trkpt><trkpt lat="42.10652292847092" lon="14.715521349699936"><ele>27.0</ele><time>2026-03-22T11:55:23Z</time></trkpt><trkpt lat="42.10672317073769" lon="14.715643321197959"><ele>27.0</ele><time>2026-03-22T11:55:24Z</time></trkpt><trkpt lat="42.1069096333612" lon="14.715788545868925"><ele>26.0</ele><time>2026-03-22T11:55:25Z</time></trkpt><trkpt lat="42.107103340072186" lon="14.715922197279186"><ele>25.0</ele><time>2026-03-22T11:55:26Z</time></trkpt><trkpt lat="42.107307102305924" lon="14.716052312865799"><ele>24.0</ele><time>2026-03-22T11:55:27Z</time></trkpt><trkpt lat="42.10751078210281" lon="14.71618180509756"><ele>18.5</ele><time>2026-03-22T11:55:28Z</time></trkpt><trkpt lat="42.107907830214664" lon="14.716462133099594"><ele>13.0</ele><time>2026-03-22T11:55:30Z</time></trkpt><trkpt lat="42.1080996647562" lon="14.716576288711307"><ele>17.0</ele><time>2026-03-22T11:55:31Z</time></trkpt><trkpt lat="42.10828304909018" lon="14.716690051219233"><ele>21.0</ele><time>2026-03-22T11:55:32Z</time></trkpt><trkpt lat="42.10866460580557" lon="14.716868285942198"><ele>18.666666666666668</ele><time>2026-03-22T11:55:34Z</time></trkpt><trkpt lat="42.10887030158299" lon="14.716935249530712"><ele>16.333333333333336</ele><time>2026-03-22T11:55:35Z</time></trkpt><trkpt lat="42.10908669727395" lon="14.71697416733993"><ele>14.0</ele><time>2026-03-22T11:55:36Z</time></trkpt><trkpt lat="42.10931568785797" lon="14.716982951067212"><ele>14.0</ele><time>2026-03-22T11:55:37Z</time></trkpt><trkpt lat="42.10954809900412" lon="14.716981216559475"><ele>14.0</ele><time>2026-03-22T11:55:38Z</time></trkpt><trkpt lat="42.11001167027587" lon="14.717003515003904"><ele>13.666666666666668</ele><time>2026-03-22T11:55:40Z</time></trkpt><trkpt lat="42.110237241978666" lon="14.717027937206701"><ele>13.333333333333332</ele><time>2026-03-22T11:55:41Z</time></trkpt><trkpt lat="42.11045292151072" lon="14.71707007001889"><ele>13.0</ele><time>2026-03-22T11:55:42Z</time></trkpt><trkpt lat="42.110665928427984" lon="14.71713412106712"><ele>15.0</ele><time>2026-03-22T11:55:43Z</time></trkpt><trkpt lat="42.11087796931959" lon="14.717227008487178"><ele>17.0</ele><time>2026-03-22T11:55:44Z</time></trkpt><trkpt lat="42.11108715819555" lon="14.71734693747665"><ele>17.0</ele><time>2026-03-22T11:55:45Z</time></trkpt><trkpt lat="42.11129994910635" lon="14.717490521809383"><ele>17.0</ele><time>2026-03-22T11:55:46Z</time></trkpt><trkpt lat="42.111506681922286" lon="14.717631356641506"><ele>14.5</ele><time>2026-03-22T11:55:47Z</time></trkpt><trkpt lat="42.111714048385984" lon="14.717778065526192"><ele>12.0</ele><time>2026-03-22T11:55:48Z</time></trkpt><trkpt lat="42.111923557666564" lon="14.717914851257092"><ele>12.0</ele><time>2026-03-22T11:55:49Z</time></trkpt><trkpt lat="42.11213250593047" lon="14.718050397713197"><ele>12.0</ele><time>2026-03-22T11:55:50Z</time></trkpt><trkpt lat="42.11235013558437" lon="14.718190053125403"><ele>16.5</ele><time>2026-03-22T11:55:51Z</time></trkpt><trkpt lat="42.11257156772661" lon="14.718336440347374"><ele>21.0</ele><time>2026-03-22T11:55:52Z</time></trkpt><trkpt lat="42.11279040929218" lon="14.718458731362462"><ele>15.0</ele><time>2026-03-22T11:55:53Z</time></trkpt><trkpt lat="42.1129988272338" lon="14.718583065553588"><ele>9.0</ele><time>2026-03-22T11:55:54Z</time></trkpt><trkpt lat="42.113209556066984" lon="14.718701251829463"><ele>11.5</ele><time>2026-03-22T11:55:55Z</time></trkpt><trkpt lat="42.113426428040604" lon="14.718806383187538"><ele>14.0</ele><time>2026-03-22T11:55:56Z</time></trkpt><trkpt lat="42.11364894870201" lon="14.718899256751856"><ele>14.0</ele><time>2026-03-22T11:55:57Z</time></trkpt><trkpt lat="42.113877291467034" lon="14.718974998324766"><ele>14.0</ele><time>2026-03-22T11:55:58Z</time></trkpt><trkpt lat="42.11411396714163" lon="14.719040343111152"><ele>15.0</ele><time>2026-03-22T11:55:59Z</time></trkpt><trkpt lat="42.1143572809413" lon="14.719096040508308"><ele>16.0</ele><time>2026-03-22T11:56:00Z</time></trkpt><trkpt lat="42.11460162075886" lon="14.71914410283253"><ele>16.0</ele><time>2026-03-22T11:56:01Z</time></trkpt><trkpt lat="42.11484768631717" lon="14.719192331198379"><ele>16.0</ele><time>2026-03-22T11:56:02Z</time></trkpt><trkpt lat="42.11509030986582" lon="14.719252562345208"><ele>16.5</ele><time>2026-03-22T11:56:03Z</time></trkpt><trkpt lat="42.11532970572116" lon="14.719316832648284"><ele>17.0</ele><time>2026-03-22T11:56:04Z</time></trkpt><trkpt lat="42.115564596462924" lon="14.719374595254017"><ele>14.5</ele><time>2026-03-22T11:56:05Z</time></trkpt><trkpt lat="42.11579252302379" lon="14.719416907593855"><ele>12.0</ele><time>2026-03-22T11:56:06Z</time></trkpt><trkpt lat="42.11601184421606" lon="14.719448005132111"><ele>12.0</ele><time>2026-03-22T11:56:07Z</time></trkpt><trkpt lat="42.11622669893622" lon="14.719467402299546"><ele>12.0</ele><time>2026-03-22T11:56:08Z</time></trkpt><trkpt lat="42.11643413268477" lon="14.719463617251442"><ele>12.0</ele><time>2026-03-22T11:56:09Z</time></trkpt><trkpt lat="42.11664324387753" lon="14.719435097783583"><ele>15.333333333333332</ele><time>2026-03-22T11:56:10Z</time></trkpt><trkpt lat="42.116849637215665" lon="14.719376106245187"><ele>18.666666666666664</ele><time>2026-03-22T11:56:11Z</time></trkpt><trkpt lat="42.11705395204552" lon="14.719294967435921"><ele>22.0</ele><time>2026-03-22T11:56:11.999Z</time></trkpt><trkpt lat="42.117265256826876" lon="14.71921274191862"><ele>21.333333333333332</ele><time>2026-03-22T11:56:12.999Z</time></trkpt><trkpt lat="42.11747890961098" lon="14.719132569756725"><ele>20.666666666666668</ele><time>2026-03-22T11:56:13.999Z</time></trkpt><trkpt lat="42.117688315596595" lon="14.719057678531968"><ele>20.0</ele><time>2026-03-22T11:56:14.999Z</time></trkpt><trkpt lat="42.1178949514248" lon="14.718983036601657"><ele>20.0</ele><time>2026-03-22T11:56:15.999Z</time></trkpt><trkpt lat="42.11810096601593" lon="14.718905160462752"><ele>20.0</ele><time>2026-03-22T11:56:16.999Z</time></trkpt><trkpt lat="42.118314941456624" lon="14.718823032939694"><ele>20.0</ele><time>2026-03-22T11:56:17.999Z</time></trkpt><trkpt lat="42.11853956525683" lon="14.718739002734075"><ele>20.666666666666668</ele><time>2026-03-22T11:56:18.999Z</time></trkpt><trkpt lat="42.11876203825295" lon="14.718663793166202"><ele>21.333333333333332</ele><time>2026-03-22T11:56:19.999Z</time></trkpt><trkpt lat="42.11897355015845" lon="14.718598164221149"><ele>22.0</ele><time>2026-03-22T11:56:20.999Z</time></trkpt><trkpt lat="42.119181281677896" lon="14.718542647008501"><ele>22.0</ele><time>2026-03-22T11:56:21.999Z</time></trkpt><trkpt lat="42.119384958522474" lon="14.718501190947382"><ele>22.0</ele><time>2026-03-22T11:56:22.999Z</time></trkpt><trkpt lat="42.11959275286718" lon="14.718484256317078"><ele>22.0</ele><time>2026-03-22T11:56:23.999Z</time></trkpt><trkpt lat="42.11980522875517" lon="14.718498520923749"><ele>23.333333333333332</ele><time>2026-03-22T11:56:24.999Z</time></trkpt><trkpt lat="42.120014728519656" lon="14.718524649912979"><ele>24.666666666666664</ele><time>2026-03-22T11:56:25.999Z</time></trkpt><trkpt lat="42.120214940469815" lon="14.718550123828328"><ele>26.0</ele><time>2026-03-22T11:56:26.999Z</time></trkpt><trkpt lat="42.12039952019592" lon="14.718588932542707"><ele>23.333333333333332</ele><time>2026-03-22T11:56:27.999Z</time></trkpt><trkpt lat="42.12058185117569" lon="14.718624866374132"><ele>20.666666666666664</ele><time>2026-03-22T11:56:28.999Z</time></trkpt><trkpt lat="42.12076110778969" lon="14.718721763174395"><ele>18.0</ele><time>2026-03-22T11:56:29.999Z</time></trkpt><trkpt lat="42.120944018430485" lon="14.718867015212362"><ele>18.0</ele><time>2026-03-22T11:56:30.999Z</time></trkpt><trkpt lat="42.12109562934531" lon="14.719072555795451"><ele>18.0</ele><time>2026-03-22T11:56:31.999Z</time></trkpt><trkpt lat="42.12125373416231" lon="14.719285392179824"><ele>18.0</ele><time>2026-03-22T11:56:32.999Z</time></trkpt><trkpt lat="42.12141530425065" lon="14.719493940811939"><ele>19.0</ele><time>2026-03-22T11:56:33.999Z</time></trkpt><trkpt lat="42.1215546803844" lon="14.719721953102733"><ele>20.0</ele><time>2026-03-22T11:56:34.999Z</time></trkpt><trkpt lat="42.12170681819774" lon="14.719918568647524"><ele>21.0</ele><time>2026-03-22T11:56:35.999Z</time></trkpt><trkpt lat="42.121868821596166" lon="14.720089669505398"><ele>21.0</ele><time>2026-03-22T11:56:36.999Z</time></trkpt><trkpt lat="42.12203980976698" lon="14.720234022319788"><ele>21.0</ele><time>2026-03-22T11:56:37.999Z</time></trkpt><trkpt lat="42.122231960266994" lon="14.720347269948162"><ele>21.0</ele><time>2026-03-22T11:56:38.999Z</time></trkpt><trkpt lat="42.12244758195051" lon="14.72045049778989"><ele>21.0</ele><time>2026-03-22T11:56:39.999Z</time></trkpt><trkpt lat="42.122662949716435" lon="14.720521401516406"><ele>21.0</ele><time>2026-03-22T11:56:40.999Z</time></trkpt><trkpt lat="42.12286666554063" lon="14.720554743002422"><ele>21.0</ele><time>2026-03-22T11:56:41.999Z</time></trkpt><trkpt lat="42.12307835769379" lon="14.720594419305703"><ele>21.0</ele><time>2026-03-22T11:56:42.999Z</time></trkpt><trkpt lat="42.12330749099055" lon="14.720652496207798"><ele>21.0</ele><time>2026-03-22T11:56:43.999Z</time></trkpt><trkpt lat="42.123547440130444" lon="14.72072113849716"><ele>21.0</ele><time>2026-03-22T11:56:44.999Z</time></trkpt><trkpt lat="42.12379182935064" lon="14.720795260101154"><ele>21.0</ele><time>2026-03-22T11:56:45.999Z</time></trkpt><trkpt lat="42.12402839947585" lon="14.720867206484336"><ele>21.5</ele><time>2026-03-22T11:56:46.999Z</time></trkpt><trkpt lat="42.12425013530053" lon="14.72093483464789"><ele>22.0</ele><time>2026-03-22T11:56:47.999Z</time></trkpt><trkpt lat="42.12447758857629" lon="14.720994638296725"><ele>22.0</ele><time>2026-03-22T11:56:48.999Z</time></trkpt><trkpt lat="42.124707332143096" lon="14.721054269505565"><ele>22.0</ele><time>2026-03-22T11:56:49.999Z</time></trkpt><trkpt lat="42.12493159746777" lon="14.721116415175068"><ele>19.5</ele><time>2026-03-22T11:56:50.999Z</time></trkpt><trkpt lat="42.12515905738911" lon="14.721148269776029"><ele>17.0</ele><time>2026-03-22T11:56:51.999Z</time></trkpt><trkpt lat="42.125380998528385" lon="14.721153654195543"><ele>17.0</ele><time>2026-03-22T11:56:52.999Z</time></trkpt><trkpt lat="42.12560263821301" lon="14.721121148406185"><ele>17.0</ele><time>2026-03-22T11:56:53.999Z</time></trkpt><trkpt lat="42.12582308970461" lon="14.721062607471438"><ele>17.0</ele><time>2026-03-22T11:56:54.999Z</time></trkpt><trkpt lat="42.126056346895254" lon="14.720984395853103"><ele>25.0</ele><time>2026-03-22T11:56:55.999Z</time></trkpt><trkpt lat="42.1262860914573" lon="14.720881442274552"><ele>33.0</ele><time>2026-03-22T11:56:56.999Z</time></trkpt><trkpt lat="42.12652265001311" lon="14.720780052808712"><ele>30.0</ele><time>2026-03-22T11:56:57.999Z</time></trkpt><trkpt lat="42.126765457243756" lon="14.72066652621428"><ele>27.0</ele><time>2026-03-22T11:56:58.999Z</time></trkpt><trkpt lat="42.127001230166755" lon="14.720574798062763"><ele>27.0</ele><time>2026-03-22T11:56:59.999Z</time></trkpt><trkpt lat="42.12723088575938" lon="14.720486822981702"><ele>27.0</ele><time>2026-03-22T11:57:00.999Z</time></trkpt><trkpt lat="42.12745929635082" lon="14.72040882468556"><ele>24.0</ele><time>2026-03-22T11:57:01.999Z</time></trkpt><trkpt lat="42.12768985988446" lon="14.720354134648831"><ele>21.0</ele><time>2026-03-22T11:57:02.999Z</time></trkpt><trkpt lat="42.127927668433195" lon="14.72033253253884"><ele>21.0</ele><time>2026-03-22T11:57:03.999Z</time></trkpt><trkpt lat="42.12816652673008" lon="14.720338165123971"><ele>21.0</ele><time>2026-03-22T11:57:04.999Z</time></trkpt><trkpt lat="42.12840933376446" lon="14.720355562993634"><ele>20.5</ele><time>2026-03-22T11:57:05.999Z</time></trkpt><trkpt lat="42.128643357097395" lon="14.720376191396339"><ele>20.0</ele><time>2026-03-22T11:57:06.999Z</time></trkpt><trkpt lat="42.12886901967831" lon="14.720389066111654"><ele>20.0</ele><time>2026-03-22T11:57:07.999Z</time></trkpt><trkpt lat="42.129087500003386" lon="14.720377665675247"><ele>20.0</ele><time>2026-03-22T11:57:08.999Z</time></trkpt><trkpt lat="42.1293053173819" lon="14.720326806010094"><ele>20.0</ele><time>2026-03-22T11:57:09.999Z</time></trkpt><trkpt lat="42.12952291415656" lon="14.720237076570454"><ele>22.0</ele><time>2026-03-22T11:57:10.999Z</time></trkpt><trkpt lat="42.12973436182285" lon="14.720114230443066"><ele>24.0</ele><time>2026-03-22T11:57:11.999Z</time></trkpt><trkpt lat="42.12993303052037" lon="14.71995458078882"><ele>24.0</ele><time>2026-03-22T11:57:12.999Z</time></trkpt><trkpt lat="42.13012294170319" lon="14.719771172644569"><ele>24.0</ele><time>2026-03-22T11:57:13.999Z</time></trkpt><trkpt lat="42.13031050618437" lon="14.719563135058149"><ele>27.0</ele><time>2026-03-22T11:57:14.999Z</time></trkpt><trkpt lat="42.130503720273026" lon="14.719349904314692"><ele>30.0</ele><time>2026-03-22T11:57:15.999Z</time></trkpt><trkpt lat="42.13070477247515" lon="14.719143033965118"><ele>26.0</ele><time>2026-03-22T11:57:16.999Z</time></trkpt><trkpt lat="42.13090793393928" lon="14.718935538913879"><ele>22.0</ele><time>2026-03-22T11:57:17.999Z</time></trkpt><trkpt lat="42.131115000061065" lon="14.718726140443115"><ele>26.0</ele><time>2026-03-22T11:57:18.999Z</time></trkpt><trkpt lat="42.1313187930615" lon="14.718512686855416"><ele>30.0</ele><time>2026-03-22T11:57:19.999Z</time></trkpt><trkpt lat="42.13153024197652" lon="14.71830332649516"><ele>27.5</ele><time>2026-03-22T11:57:20.999Z</time></trkpt><trkpt lat="42.131730511281845" lon="14.718084093557922"><ele>25.0</ele><time>2026-03-22T11:57:21.999Z</time></trkpt><trkpt lat="42.13193260755693" lon="14.717882138474554"><ele>31.0</ele><time>2026-03-22T11:57:22.999Z</time></trkpt><trkpt lat="42.132129072876616" lon="14.71768618991437"><ele>37.0</ele><time>2026-03-22T11:57:23.999Z</time></trkpt><trkpt lat="42.132304750577106" lon="14.717495068321098"><ele>32.66666666666667</ele><time>2026-03-22T11:57:24.999Z</time></trkpt><trkpt lat="42.13247347800299" lon="14.717305100719267"><ele>28.333333333333336</ele><time>2026-03-22T11:57:25.999Z</time></trkpt><trkpt lat="42.13264552727293" lon="14.71713433716068"><ele>24.0</ele><time>2026-03-22T11:57:26.999Z</time></trkpt><trkpt lat="42.13281857908672" lon="14.716985199176522"><ele>24.0</ele><time>2026-03-22T11:57:27.999Z</time></trkpt><trkpt lat="42.13300515698319" lon="14.716867388313814"><ele>24.0</ele><time>2026-03-22T11:57:28.999Z</time></trkpt><trkpt lat="42.133196125096696" lon="14.716775176521676"><ele>24.0</ele><time>2026-03-22T11:57:29.999Z</time></trkpt><trkpt lat="42.133400431547514" lon="14.716715827308672"><ele>24.0</ele><time>2026-03-22T11:57:30.999Z</time></trkpt><trkpt lat="42.133613429927394" lon="14.716672437155347"><ele>24.0</ele><time>2026-03-22T11:57:31.999Z</time></trkpt><trkpt lat="42.134059633882316" lon="14.716665278387874"><ele>27.5</ele><time>2026-03-22T11:57:33.999Z</time></trkpt><trkpt lat="42.13427822956411" lon="14.71672403712872"><ele>31.0</ele><time>2026-03-22T11:57:34.999Z</time></trkpt><trkpt lat="42.13451025435938" lon="14.716767835830598"><ele>31.0</ele><time>2026-03-22T11:57:35.999Z</time></trkpt><trkpt lat="42.13474924218486" lon="14.716833229089012"><ele>31.0</ele><time>2026-03-22T11:57:36.999Z</time></trkpt><trkpt lat="42.13499927973003" lon="14.716886552490228"><ele>25.0</ele><time>2026-03-22T11:57:37.999Z</time></trkpt><trkpt lat="42.13525456082994" lon="14.716930462129518"><ele>19.0</ele><time>2026-03-22T11:57:38.998Z</time></trkpt><trkpt lat="42.135510625934536" lon="14.716977627513515"><ele>22.0</ele><time>2026-03-22T11:57:39.998Z</time></trkpt><trkpt lat="42.13575965271425" lon="14.717029940725993"><ele>25.0</ele><time>2026-03-22T11:57:40.998Z</time></trkpt><trkpt lat="42.13599771930682" lon="14.71708163916642"><ele>25.0</ele><time>2026-03-22T11:57:41.998Z</time></trkpt><trkpt lat="42.136227093704505" lon="14.717126546591206"><ele>25.0</ele><time>2026-03-22T11:57:42.998Z</time></trkpt><trkpt lat="42.13645712499447" lon="14.717158596250924"><ele>27.666666666666668</ele><time>2026-03-22T11:57:43.998Z</time></trkpt><trkpt lat="42.1366817520759" lon="14.717167879692251"><ele>30.333333333333336</ele><time>2026-03-22T11:57:44.998Z</time></trkpt><trkpt lat="42.136901186435445" lon="14.717146893359473"><ele>33.0</ele><time>2026-03-22T11:57:45.998Z</time></trkpt><trkpt lat="42.137121494748506" lon="14.717094997173186"><ele>33.0</ele><time>2026-03-22T11:57:46.998Z</time></trkpt><trkpt lat="42.137336478054195" lon="14.717007520438296"><ele>33.0</ele><time>2026-03-22T11:57:47.998Z</time></trkpt><trkpt lat="42.13754742977507" lon="14.716884734239708"><ele>39.5</ele><time>2026-03-22T11:57:48.998Z</time></trkpt><trkpt lat="42.13775321805009" lon="14.716739650671217"><ele>46.0</ele><time>2026-03-22T11:57:49.998Z</time></trkpt><trkpt lat="42.137958007576756" lon="14.716572776210748"><ele>46.0</ele><time>2026-03-22T11:57:50.998Z</time></trkpt><trkpt lat="42.1381622517643" lon="14.7163974258183"><ele>46.0</ele><time>2026-03-22T11:57:51.998Z</time></trkpt><trkpt lat="42.13836395981341" lon="14.7162237948324"><ele>44.0</ele><time>2026-03-22T11:57:52.999Z</time></trkpt><trkpt lat="42.138563232048426" lon="14.716060270167882"><ele>42.0</ele><time>2026-03-22T11:57:53.999Z</time></trkpt><trkpt lat="42.13876772077977" lon="14.715892695998559"><ele>42.0</ele><time>2026-03-22T11:57:54.999Z</time></trkpt><trkpt lat="42.1389709000073" lon="14.715716960293104"><ele>42.0</ele><time>2026-03-22T11:57:55.999Z</time></trkpt><trkpt lat="42.13917520263547" lon="14.715538849954436"><ele>39.5</ele><time>2026-03-22T11:57:56.999Z</time></trkpt><trkpt lat="42.13937759905165" lon="14.715363551474905"><ele>37.0</ele><time>2026-03-22T11:57:57.999Z</time></trkpt><trkpt lat="42.139576320868144" lon="14.715207326394458"><ele>42.0</ele><time>2026-03-22T11:57:58.999Z</time></trkpt><trkpt lat="42.139781830403535" lon="14.715090210001447"><ele>47.0</ele><time>2026-03-22T11:57:59.999Z</time></trkpt><trkpt lat="42.14000060727434" lon="14.715011526499145"><ele>47.0</ele><time>2026-03-22T11:58:00.999Z</time></trkpt><trkpt lat="42.14022772588338" lon="14.714967513385641"><ele>47.0</ele><time>2026-03-22T11:58:01.999Z</time></trkpt><trkpt lat="42.14045957228053" lon="14.714958573122185"><ele>47.0</ele><time>2026-03-22T11:58:02.999Z</time></trkpt><trkpt lat="42.14069395691157" lon="14.714982211528678"><ele>47.0</ele><time>2026-03-22T11:58:03.999Z</time></trkpt><trkpt lat="42.140929298329404" lon="14.715041276999292"><ele>49.5</ele><time>2026-03-22T11:58:04.999Z</time></trkpt><trkpt lat="42.14116343406245" lon="14.715132533075629"><ele>52.0</ele><time>2026-03-22T11:58:06Z</time></trkpt><trkpt lat="42.14139447660575" lon="14.715248440021584"><ele>46.5</ele><time>2026-03-22T11:58:07Z</time></trkpt><trkpt lat="42.14161979027407" lon="14.715383518485256"><ele>41.0</ele><time>2026-03-22T11:58:08Z</time></trkpt><trkpt lat="42.14184115541898" lon="14.71549649140799"><ele>41.0</ele><time>2026-03-22T11:58:09Z</time></trkpt><trkpt lat="42.14205335142308" lon="14.715564851366524"><ele>41.0</ele><time>2026-03-22T11:58:10Z</time></trkpt><trkpt lat="42.14226059854658" lon="14.715587910434719"><ele>41.0</ele><time>2026-03-22T11:58:11Z</time></trkpt><trkpt lat="42.14247868552487" lon="14.715589272663639"><ele>46.5</ele><time>2026-03-22T11:58:12Z</time></trkpt><trkpt lat="42.14270115455139" lon="14.715556566364205"><ele>52.0</ele><time>2026-03-22T11:58:13Z</time></trkpt><trkpt lat="42.14292683906961" lon="14.715494657139786"><ele>52.0</ele><time>2026-03-22T11:58:14Z</time></trkpt><trkpt lat="42.14315059568799" lon="14.71541681659514"><ele>52.0</ele><time>2026-03-22T11:58:15Z</time></trkpt><trkpt lat="42.143380959403615" lon="14.715338431567586"><ele>53.5</ele><time>2026-03-22T11:58:16Z</time></trkpt><trkpt lat="42.14361821209639" lon="14.715270034301884"><ele>55.0</ele><time>2026-03-22T11:58:17Z</time></trkpt><trkpt lat="42.14385784311289" lon="14.715205091061053"><ele>53.5</ele><time>2026-03-22T11:58:18Z</time></trkpt><trkpt lat="42.14408752724922" lon="14.7151409021166"><ele>52.0</ele><time>2026-03-22T11:58:19Z</time></trkpt><trkpt lat="42.144317054836655" lon="14.71507053494082"><ele>52.0</ele><time>2026-03-22T11:58:20Z</time></trkpt><trkpt lat="42.14455404877666" lon="14.714998654103223"><ele>52.0</ele><time>2026-03-22T11:58:21Z</time></trkpt><trkpt lat="42.144793629064004" lon="14.714929145702543"><ele>50.5</ele><time>2026-03-22T11:58:22Z</time></trkpt><trkpt lat="42.14503447566967" lon="14.714858163510401"><ele>49.0</ele><time>2026-03-22T11:58:23Z</time></trkpt><trkpt lat="42.14527423783143" lon="14.714785338839684"><ele>49.0</ele><time>2026-03-22T11:58:24Z</time></trkpt><trkpt lat="42.145515696417256" lon="14.714712024207909"><ele>49.0</ele><time>2026-03-22T11:58:25Z</time></trkpt><trkpt lat="42.14575573902417" lon="14.714642812261864"><ele>48.0</ele><time>2026-03-22T11:58:26Z</time></trkpt><trkpt lat="42.14599698139332" lon="14.714572746405302"><ele>47.0</ele><time>2026-03-22T11:58:27Z</time></trkpt><trkpt lat="42.14623862563532" lon="14.714504712698847"><ele>47.0</ele><time>2026-03-22T11:58:28Z</time></trkpt><trkpt lat="42.14648010651407" lon="14.714432699564824"><ele>47.0</ele><time>2026-03-22T11:58:29Z</time></trkpt><trkpt lat="42.14672281216762" lon="14.714359105599963"><ele>47.5</ele><time>2026-03-22T11:58:30Z</time></trkpt><trkpt lat="42.14696173149444" lon="14.714288975358953"><ele>48.0</ele><time>2026-03-22T11:58:31Z</time></trkpt><trkpt lat="42.14719773293671" lon="14.714220373512207"><ele>47.0</ele><time>2026-03-22T11:58:32Z</time></trkpt><trkpt lat="42.147436499975086" lon="14.714152939349603"><ele>46.0</ele><time>2026-03-22T11:58:33Z</time></trkpt><trkpt lat="42.14767194698934" lon="14.714092929615102"><ele>46.0</ele><time>2026-03-22T11:58:34Z</time></trkpt><trkpt lat="42.147911538137805" lon="14.714049749759445"><ele>46.0</ele><time>2026-03-22T11:58:35Z</time></trkpt><trkpt lat="42.1481558951903" lon="14.714020245164305"><ele>43.5</ele><time>2026-03-22T11:58:36Z</time></trkpt><trkpt lat="42.14840393476078" lon="14.71399872658931"><ele>41.0</ele><time>2026-03-22T11:58:37Z</time></trkpt><trkpt lat="42.14865256220592" lon="14.713968889992714"><ele>41.0</ele><time>2026-03-22T11:58:38Z</time></trkpt><trkpt lat="42.14890034224543" lon="14.713938783817776"><ele>41.0</ele><time>2026-03-22T11:58:39Z</time></trkpt><trkpt lat="42.149149236979135" lon="14.713910695950679"><ele>40.5</ele><time>2026-03-22T11:58:40Z</time></trkpt><trkpt lat="42.14940107551096" lon="14.71388056336505"><ele>40.0</ele><time>2026-03-22T11:58:41Z</time></trkpt><trkpt lat="42.14965371305118" lon="14.713850898411172"><ele>38.0</ele><time>2026-03-22T11:58:42Z</time></trkpt><trkpt lat="42.14990611833303" lon="14.713818610131204"><ele>36.0</ele><time>2026-03-22T11:58:43Z</time></trkpt><trkpt lat="42.15015938319464" lon="14.71378310665585"><ele>36.0</ele><time>2026-03-22T11:58:44Z</time></trkpt><trkpt lat="42.15041321471717" lon="14.713749426278287"><ele>36.0</ele><time>2026-03-22T11:58:45Z</time></trkpt><trkpt lat="42.15066958759499" lon="14.71372061351606"><ele>35.5</ele><time>2026-03-22T11:58:46Z</time></trkpt><trkpt lat="42.15092658185585" lon="14.713694155876796"><ele>35.0</ele><time>2026-03-22T11:58:47Z</time></trkpt><trkpt lat="42.15118128252303" lon="14.713667665175876"><ele>35.0</ele><time>2026-03-22T11:58:48Z</time></trkpt><trkpt lat="42.15143534152289" lon="14.713638765911167"><ele>35.0</ele><time>2026-03-22T11:58:49Z</time></trkpt><trkpt lat="42.15168544560577" lon="14.713607799535044"><ele>35.5</ele><time>2026-03-22T11:58:50Z</time></trkpt><trkpt lat="42.151931962550755" lon="14.713579399810614"><ele>36.0</ele><time>2026-03-22T11:58:51Z</time></trkpt><trkpt lat="42.15217314545341" lon="14.713551687417926"><ele>36.0</ele><time>2026-03-22T11:58:52Z</time></trkpt><trkpt lat="42.15241054836502" lon="14.713525928827156"><ele>36.0</ele><time>2026-03-22T11:58:53Z</time></trkpt><trkpt lat="42.15264674605355" lon="14.71349751041278"><ele>36.0</ele><time>2026-03-22T11:58:54Z</time></trkpt><trkpt lat="42.15287665393024" lon="14.713469941423385"><ele>36.0</ele><time>2026-03-22T11:58:55Z</time></trkpt><trkpt lat="42.15310056399053" lon="14.713444187753845"><ele>34.666666666666664</ele><time>2026-03-22T11:58:56Z</time></trkpt><trkpt lat="42.153313390556185" lon="14.713417105767617"><ele>33.33333333333333</ele><time>2026-03-22T11:58:57Z</time></trkpt><trkpt lat="42.1535143115936" lon="14.713394741413426"><ele>32.0</ele><time>2026-03-22T11:58:58Z</time></trkpt><trkpt lat="42.1537060022663" lon="14.713369995680246"><ele>32.0</ele><time>2026-03-22T11:58:59Z</time></trkpt><trkpt lat="42.15389566613077" lon="14.713343287997157"><ele>32.0</ele><time>2026-03-22T11:59:00Z</time></trkpt><trkpt lat="42.15408437980034" lon="14.71332292500204"><ele>32.0</ele><time>2026-03-22T11:59:01Z</time></trkpt><trkpt lat="42.15426119515996" lon="14.713283834468944"><ele>31.666666666666664</ele><time>2026-03-22T11:59:02Z</time></trkpt><trkpt lat="42.15442725928397" lon="14.713226550216596"><ele>31.333333333333336</ele><time>2026-03-22T11:59:03Z</time></trkpt><trkpt lat="42.15458720930128" lon="14.713160897752518"><ele>31.0</ele><time>2026-03-22T11:59:04Z</time></trkpt><trkpt lat="42.154738812149766" lon="14.7130890592914"><ele>31.0</ele><time>2026-03-22T11:59:05Z</time></trkpt><trkpt lat="42.15488112288751" lon="14.713019380424871"><ele>31.0</ele><time>2026-03-22T11:59:06Z</time></trkpt><trkpt lat="42.15502125071619" lon="14.71295951821647"><ele>31.0</ele><time>2026-03-22T11:59:07Z</time></trkpt><trkpt lat="42.15515483048921" lon="14.71290294480815"><ele>31.0</ele><time>2026-03-22T11:59:08Z</time></trkpt><trkpt lat="42.155288829445084" lon="14.712845342354216"><ele>31.0</ele><time>2026-03-22T11:59:09Z</time></trkpt><trkpt lat="42.15542332854031" lon="14.712778774337178"><ele>31.0</ele><time>2026-03-22T11:59:10Z</time></trkpt><trkpt lat="42.15556892039446" lon="14.712723642251845"><ele>31.0</ele><time>2026-03-22T11:59:11Z</time></trkpt><trkpt lat="42.155729705656995" lon="14.712659701593399"><ele>31.333333333333336</ele><time>2026-03-22T11:59:12Z</time></trkpt><trkpt lat="42.15592175637964" lon="14.712580395135653"><ele>31.666666666666664</ele><time>2026-03-22T11:59:13Z</time></trkpt><trkpt lat="42.156144351161736" lon="14.712485223461917"><ele>32.0</ele><time>2026-03-22T11:59:14Z</time></trkpt><trkpt lat="42.15637062984991" lon="14.71237909799498"><ele>31.5</ele><time>2026-03-22T11:59:15Z</time></trkpt><trkpt lat="42.15658453642722" lon="14.712271028050102"><ele>31.0</ele><time>2026-03-22T11:59:16Z</time></trkpt><trkpt lat="42.15680075137775" lon="14.712151976788428"><ele>31.0</ele><time>2026-03-22T11:59:17Z</time></trkpt><trkpt lat="42.15702134777047" lon="14.71201737629116"><ele>31.0</ele><time>2026-03-22T11:59:18Z</time></trkpt><trkpt lat="42.15723443392718" lon="14.711824748441607"><ele>32.0</ele><time>2026-03-22T11:59:19Z</time></trkpt><trkpt lat="42.157445237460344" lon="14.711622466861728"><ele>33.0</ele><time>2026-03-22T11:59:20Z</time></trkpt><trkpt lat="42.157661907440506" lon="14.711418554914982"><ele>33.0</ele><time>2026-03-22T11:59:21Z</time></trkpt><trkpt lat="42.15788305907771" lon="14.711218376253358"><ele>33.0</ele><time>2026-03-22T11:59:22Z</time></trkpt><trkpt lat="42.158108989057745" lon="14.711014771749436"><ele>32.5</ele><time>2026-03-22T11:59:23Z</time></trkpt><trkpt lat="42.15833223021778" lon="14.710805200349768"><ele>32.0</ele><time>2026-03-22T11:59:24Z</time></trkpt><trkpt lat="42.15854163619299" lon="14.710607942216335"><ele>32.0</ele><time>2026-03-22T11:59:25Z</time></trkpt><trkpt lat="42.158754605029095" lon="14.710412522642596"><ele>32.0</ele><time>2026-03-22T11:59:26Z</time></trkpt><trkpt lat="42.15896420174213" lon="14.710222452535199"><ele>32.0</ele><time>2026-03-22T11:59:27Z</time></trkpt><trkpt lat="42.15917774608844" lon="14.710027041509829"><ele>32.0</ele><time>2026-03-22T11:59:28Z</time></trkpt><trkpt lat="42.15938522209464" lon="14.70982613908892"><ele>32.0</ele><time>2026-03-22T11:59:29Z</time></trkpt><trkpt lat="42.159595421609566" lon="14.709628745155458"><ele>32.0</ele><time>2026-03-22T11:59:30Z</time></trkpt><trkpt lat="42.15980487746376" lon="14.709431179119594"><ele>32.0</ele><time>2026-03-22T11:59:31Z</time></trkpt><trkpt lat="42.16002351532016" lon="14.709238415860806"><ele>32.0</ele><time>2026-03-22T11:59:32Z</time></trkpt><trkpt lat="42.1602359486544" lon="14.709048467818024"><ele>32.0</ele><time>2026-03-22T11:59:33Z</time></trkpt><trkpt lat="42.16043693048398" lon="14.708860335244939"><ele>32.0</ele><time>2026-03-22T11:59:34Z</time></trkpt><trkpt lat="42.160794363029616" lon="14.708533782217383"><ele>32.0</ele><time>2026-03-22T11:59:36Z</time></trkpt><trkpt lat="42.16096487434739" lon="14.708381328952836"><ele>32.0</ele><time>2026-03-22T11:59:37Z</time></trkpt><trkpt lat="42.161132387642475" lon="14.708219275074267"><ele>32.0</ele><time>2026-03-22T11:59:38Z</time></trkpt><trkpt lat="42.16129143568382" lon="14.708054445899709"><ele>32.0</ele><time>2026-03-22T11:59:39Z</time></trkpt><trkpt lat="42.16144710927177" lon="14.7078841131189"><ele>32.0</ele><time>2026-03-22T11:59:40Z</time></trkpt><trkpt lat="42.16159323591606" lon="14.707708367405369"><ele>32.0</ele><time>2026-03-22T11:59:41Z</time></trkpt><trkpt lat="42.161736204342986" lon="14.70752927221234"><ele>31.0</ele><time>2026-03-22T11:59:42Z</time></trkpt><trkpt lat="42.16187445618158" lon="14.707348012138073"><ele>30.0</ele><time>2026-03-22T11:59:43Z</time></trkpt><trkpt lat="42.16201127829101" lon="14.707170575202026"><ele>29.0</ele><time>2026-03-22T11:59:44Z</time></trkpt><trkpt lat="42.162147123390966" lon="14.70699567502686"><ele>29.666666666666664</ele><time>2026-03-22T11:59:45Z</time></trkpt><trkpt lat="42.16227854743265" lon="14.706821046612056"><ele>30.333333333333336</ele><time>2026-03-22T11:59:46Z</time></trkpt><trkpt lat="42.16239860640918" lon="14.706664418444229"><ele>31.0</ele><time>2026-03-22T11:59:47Z</time></trkpt><trkpt lat="42.16251561713885" lon="14.706519895630601"><ele>31.0</ele><time>2026-03-22T11:59:48Z</time></trkpt><trkpt lat="42.16261766024514" lon="14.70638202587062"><ele>31.0</ele><time>2026-03-22T11:59:49Z</time></trkpt><trkpt lat="42.162711111003716" lon="14.706253718812107"><ele>31.0</ele><time>2026-03-22T11:59:50Z</time></trkpt><trkpt lat="42.16278042117297" lon="14.706146909381982"><ele>31.0</ele><time>2026-03-22T11:59:51Z</time></trkpt><trkpt lat="42.16283836050229" lon="14.706059526857786"><ele>31.166666666666668</ele><time>2026-03-22T11:59:52Z</time></trkpt><trkpt lat="42.162895148703264" lon="14.705988568812199"><ele>31.333333333333336</ele><time>2026-03-22T11:59:53Z</time></trkpt><trkpt lat="42.162950134277835" lon="14.705932053521265"><ele>31.5</ele><time>2026-03-22T11:59:54Z</time></trkpt><trkpt lat="42.16298903256417" lon="14.705864809247686"><ele>31.666666666666664</ele><time>2026-03-22T11:59:55Z</time></trkpt><trkpt lat="42.16299003324341" lon="14.705729598826117"><ele>31.833333333333332</ele><time>2026-03-22T11:59:57Z</time></trkpt><trkpt lat="42.16293799992039" lon="14.705661460333953"><ele>32.0</ele><time>2026-03-22T11:59:58Z</time></trkpt><trkpt lat="42.16285613963511" lon="14.705611346185973"><ele>32.0</ele><time>2026-03-22T11:59:59Z</time></trkpt><trkpt lat="42.16275589068259" lon="14.705548332068375"><ele>32.0</ele><time>2026-03-22T12:00:00Z</time></trkpt><trkpt lat="42.16268657379424" lon="14.705443570110042"><ele>32.0</ele><time>2026-03-22T12:00:01Z</time></trkpt><trkpt lat="42.162652971738424" lon="14.7053085826359"><ele>32.0</ele><time>2026-03-22T12:00:02Z</time></trkpt><trkpt lat="42.162594248778646" lon="14.70520496873804"><ele>32.0</ele><time>2026-03-22T12:00:03Z</time></trkpt><trkpt lat="42.16253792446661" lon="14.705100378220799"><ele>32.0</ele><time>2026-03-22T12:00:04Z</time></trkpt><trkpt lat="42.16246895044446" lon="14.704999088203941"><ele>32.0</ele><time>2026-03-22T12:00:05Z</time></trkpt><trkpt lat="42.16238561436396" lon="14.704910038374402"><ele>32.0</ele><time>2026-03-22T12:00:06Z</time></trkpt><trkpt lat="42.16228648083368" lon="14.704827985643506"><ele>32.0</ele><time>2026-03-22T12:00:07Z</time></trkpt><trkpt lat="42.16219035388986" lon="14.704729516678789"><ele>32.0</ele><time>2026-03-22T12:00:08Z</time></trkpt><trkpt lat="42.16205896878157" lon="14.704627749283922"><ele>32.666666666666664</ele><time>2026-03-22T12:00:09Z</time></trkpt><trkpt lat="42.16186348528845" lon="14.704537238902075"><ele>33.333333333333336</ele><time>2026-03-22T12:00:10Z</time></trkpt><trkpt lat="42.1616731122911" lon="14.70440229539283"><ele>34.0</ele><time>2026-03-22T12:00:11Z</time></trkpt><trkpt lat="42.16149926246024" lon="14.704238474773007"><ele>37.0</ele><time>2026-03-22T12:00:12Z</time></trkpt><trkpt lat="42.16129906881082" lon="14.704077831686275"><ele>40.0</ele><time>2026-03-22T12:00:13Z</time></trkpt><trkpt lat="42.16107950740099" lon="14.703917339653934"><ele>40.0</ele><time>2026-03-22T12:00:14Z</time></trkpt><trkpt lat="42.16085578432486" lon="14.703754435170136"><ele>40.0</ele><time>2026-03-22T12:00:15Z</time></trkpt><trkpt lat="42.16064096062575" lon="14.703595086518199"><ele>41.0</ele><time>2026-03-22T12:00:16Z</time></trkpt><trkpt lat="42.160422427093465" lon="14.70343306147935"><ele>42.0</ele><time>2026-03-22T12:00:17Z</time></trkpt><trkpt lat="42.16020655264128" lon="14.703269071849633"><ele>42.0</ele><time>2026-03-22T12:00:18Z</time></trkpt><trkpt lat="42.15999543200307" lon="14.7031043152736"><ele>42.0</ele><time>2026-03-22T12:00:19Z</time></trkpt><trkpt lat="42.15977820859398" lon="14.702941447311193"><ele>42.5</ele><time>2026-03-22T12:00:20Z</time></trkpt><trkpt lat="42.159561566101644" lon="14.702778830442256"><ele>43.0</ele><time>2026-03-22T12:00:21Z</time></trkpt><trkpt lat="42.15934109021395" lon="14.702622929995773"><ele>45.0</ele><time>2026-03-22T12:00:22Z</time></trkpt><trkpt lat="42.15911894761971" lon="14.70246796953157"><ele>47.0</ele><time>2026-03-22T12:00:23Z</time></trkpt><trkpt lat="42.158909574943934" lon="14.702314611318835"><ele>47.0</ele><time>2026-03-22T12:00:24Z</time></trkpt><trkpt lat="42.15870184570842" lon="14.702157359222186"><ele>47.0</ele><time>2026-03-22T12:00:25Z</time></trkpt><trkpt lat="42.158502649422935" lon="14.70198955423755"><ele>48.0</ele><time>2026-03-22T12:00:26Z</time></trkpt><trkpt lat="42.15828859128661" lon="14.701856910666361"><ele>49.0</ele><time>2026-03-22T12:00:27Z</time></trkpt><trkpt lat="42.15808425674264" lon="14.701711373813751"><ele>49.0</ele><time>2026-03-22T12:00:28Z</time></trkpt><trkpt lat="42.157876607017315" lon="14.701595355602938"><ele>49.0</ele><time>2026-03-22T12:00:29Z</time></trkpt><trkpt lat="42.157653806456544" lon="14.701477357152763"><ele>49.0</ele><time>2026-03-22T12:00:30Z</time></trkpt><trkpt lat="42.15741117236016" lon="14.701392639669141"><ele>49.0</ele><time>2026-03-22T12:00:31Z</time></trkpt><trkpt lat="42.157156556749555" lon="14.701309846457175"><ele>50.0</ele><time>2026-03-22T12:00:32Z</time></trkpt><trkpt lat="42.15689563653668" lon="14.701226331923957"><ele>51.0</ele><time>2026-03-22T12:00:33Z</time></trkpt><trkpt lat="42.15664161599198" lon="14.701145193065758"><ele>53.0</ele><time>2026-03-22T12:00:34Z</time></trkpt><trkpt lat="42.15636755094451" lon="14.701057651574923"><ele>55.0</ele><time>2026-03-22T12:00:35Z</time></trkpt><trkpt lat="42.15608255301329" lon="14.700966618015919"><ele>55.0</ele><time>2026-03-22T12:00:36Z</time></trkpt><trkpt lat="42.155788714947874" lon="14.700872760685272"><ele>55.0</ele><time>2026-03-22T12:00:37Z</time></trkpt><trkpt lat="42.1554897039539" lon="14.700777251015761"><ele>55.5</ele><time>2026-03-22T12:00:38Z</time></trkpt><trkpt lat="42.155183696019854" lon="14.700679198919632"><ele>56.0</ele><time>2026-03-22T12:00:39Z</time></trkpt><trkpt lat="42.15487126201191" lon="14.70059877304625"><ele>57.0</ele><time>2026-03-22T12:00:40Z</time></trkpt><trkpt lat="42.154558258225194" lon="14.70050092352442"><ele>58.0</ele><time>2026-03-22T12:00:41Z</time></trkpt><trkpt lat="42.15424682299061" lon="14.700380179287016"><ele>59.5</ele><time>2026-03-22T12:00:42Z</time></trkpt><trkpt lat="42.153930364949886" lon="14.700279176105665"><ele>61.0</ele><time>2026-03-22T12:00:43Z</time></trkpt><trkpt lat="42.153612588424856" lon="14.700177111688241"><ele>61.5</ele><time>2026-03-22T12:00:44Z</time></trkpt><trkpt lat="42.15331714344986" lon="14.700081764529383"><ele>62.0</ele><time>2026-03-22T12:00:45Z</time></trkpt><trkpt lat="42.153018398286406" lon="14.70000641826259"><ele>63.0</ele><time>2026-03-22T12:00:46Z</time></trkpt><trkpt lat="42.15272762440102" lon="14.699913856601459"><ele>64.0</ele><time>2026-03-22T12:00:47Z</time></trkpt><trkpt lat="42.152444212471444" lon="14.699800058444179"><ele>65.5</ele><time>2026-03-22T12:00:48Z</time></trkpt><trkpt lat="42.15216086357448" lon="14.699731300139598"><ele>67.0</ele><time>2026-03-22T12:00:49Z</time></trkpt><trkpt lat="42.1518888326603" lon="14.69964361335463"><ele>67.0</ele><time>2026-03-22T12:00:50Z</time></trkpt><trkpt lat="42.15162034016167" lon="14.699533772451208"><ele>67.0</ele><time>2026-03-22T12:00:51Z</time></trkpt><trkpt lat="42.15133967844358" lon="14.699442948445123"><ele>68.0</ele><time>2026-03-22T12:00:52Z</time></trkpt><trkpt lat="42.15106276983558" lon="14.699353369064253"><ele>69.0</ele><time>2026-03-22T12:00:53Z</time></trkpt><trkpt lat="42.150788069736635" lon="14.699264708765048"><ele>70.5</ele><time>2026-03-22T12:00:54Z</time></trkpt><trkpt lat="42.15051470240415" lon="14.699176478616607"><ele>72.0</ele><time>2026-03-22T12:00:55Z</time></trkpt><trkpt lat="42.1502377179702" lon="14.699086848254641"><ele>72.0</ele><time>2026-03-22T12:00:56Z</time></trkpt><trkpt lat="42.14995861342592" lon="14.698996518117202"><ele>72.0</ele><time>2026-03-22T12:00:57Z</time></trkpt><trkpt lat="42.14967917512439" lon="14.69890607996444"><ele>73.0</ele><time>2026-03-22T12:00:58Z</time></trkpt><trkpt lat="42.14939837500965" lon="14.69881520106862"><ele>74.0</ele><time>2026-03-22T12:00:59Z</time></trkpt><trkpt lat="42.14912142109706" lon="14.698725566976302"><ele>75.0</ele><time>2026-03-22T12:01:00Z</time></trkpt><trkpt lat="42.14885468449688" lon="14.698641407616678"><ele>76.0</ele><time>2026-03-22T12:01:01Z</time></trkpt><trkpt lat="42.148598777130196" lon="14.698575873167103"><ele>77.0</ele><time>2026-03-22T12:01:02Z</time></trkpt><trkpt lat="42.14834965915374" lon="14.698532519162507"><ele>78.0</ele><time>2026-03-22T12:01:03Z</time></trkpt><trkpt lat="42.1481124883536" lon="14.698487855806986"><ele>79.0</ele><time>2026-03-22T12:01:04Z</time></trkpt><trkpt lat="42.1478836741105" lon="14.698444174768147"><ele>80.0</ele><time>2026-03-22T12:01:05Z</time></trkpt><trkpt lat="42.147673502815984" lon="14.698402001324249"><ele>81.0</ele><time>2026-03-22T12:01:06Z</time></trkpt><trkpt lat="42.14748138168887" lon="14.698360143406504"><ele>82.0</ele><time>2026-03-22T12:01:07Z</time></trkpt><trkpt lat="42.14730790578804" lon="14.69830995853719"><ele>83.0</ele><time>2026-03-22T12:01:08Z</time></trkpt><trkpt lat="42.14713919744344" lon="14.698264768199296"><ele>84.0</ele><time>2026-03-22T12:01:09Z</time></trkpt><trkpt lat="42.14699272576977" lon="14.698174032828327"><ele>84.0</ele><time>2026-03-22T12:01:10Z</time></trkpt><trkpt lat="42.14685320761394" lon="14.698098418424067"><ele>84.0</ele><time>2026-03-22T12:01:11Z</time></trkpt><trkpt lat="42.14672373499574" lon="14.698030906274447"><ele>84.0</ele><time>2026-03-22T12:01:12Z</time></trkpt><trkpt lat="42.14659902549027" lon="14.697970261153023"><ele>84.0</ele><time>2026-03-22T12:01:13Z</time></trkpt><trkpt lat="42.14647472446541" lon="14.697910038775605"><ele>83.6</ele><time>2026-03-22T12:01:14Z</time></trkpt><trkpt lat="42.1463580031032" lon="14.697922143099222"><ele>83.2</ele><time>2026-03-22T12:01:15Z</time></trkpt><trkpt lat="42.146252298291294" lon="14.697921849489042"><ele>82.8</ele><time>2026-03-22T12:01:16Z</time></trkpt><trkpt lat="42.146153546250865" lon="14.697922404871221"><ele>82.39999999999999</ele><time>2026-03-22T12:01:17Z</time></trkpt><trkpt lat="42.146079066487516" lon="14.697920364785595"><ele>82.0</ele><time>2026-03-22T12:01:18Z</time></trkpt><trkpt lat="42.14596289836409" lon="14.697910422876214"><ele>82.0</ele><time>2026-03-22T12:01:20Z</time></trkpt><trkpt lat="42.145914046513006" lon="14.69785072914153"><ele>82.0</ele><time>2026-03-22T12:01:22Z</time></trkpt><trkpt lat="42.1459451680726" lon="14.69774695354371"><ele>82.0</ele><time>2026-03-22T12:01:24Z</time></trkpt><trkpt lat="42.14606803281121" lon="14.69765152339359"><ele>82.0</ele><time>2026-03-22T12:01:26Z</time></trkpt><trkpt lat="42.14615302617252" lon="14.697585729866804"><ele>82.0</ele><time>2026-03-22T12:01:27Z</time></trkpt><trkpt lat="42.14623126465325" lon="14.697510902504773"><ele>81.5</ele><time>2026-03-22T12:01:28Z</time></trkpt><trkpt lat="42.14632571107175" lon="14.697443229280914"><ele>81.0</ele><time>2026-03-22T12:01:29Z</time></trkpt><trkpt lat="42.14642355668614" lon="14.697333993177596"><ele>80.5</ele><time>2026-03-22T12:01:30Z</time></trkpt><trkpt lat="42.14655507562467" lon="14.697228302172762"><ele>80.0</ele><time>2026-03-22T12:01:31Z</time></trkpt><trkpt lat="42.146694867203635" lon="14.697114847372776"><ele>79.66666666666667</ele><time>2026-03-22T12:01:32Z</time></trkpt><trkpt lat="42.14681886641285" lon="14.697006035860898"><ele>79.33333333333333</ele><time>2026-03-22T12:01:33Z</time></trkpt><trkpt lat="42.14695388527004" lon="14.69689462326824"><ele>79.0</ele><time>2026-03-22T12:01:34Z</time></trkpt><trkpt lat="42.147087852097094" lon="14.696784239555898"><ele>79.0</ele><time>2026-03-22T12:01:35Z</time></trkpt><trkpt lat="42.147228871255585" lon="14.696675380040155"><ele>79.0</ele><time>2026-03-22T12:01:36Z</time></trkpt><trkpt lat="42.14735360610022" lon="14.69654487269545"><ele>79.0</ele><time>2026-03-22T12:01:37Z</time></trkpt><trkpt lat="42.14748216745725" lon="14.696417306267337"><ele>80.0</ele><time>2026-03-22T12:01:38Z</time></trkpt><trkpt lat="42.14760624746688" lon="14.696263860272564"><ele>81.0</ele><time>2026-03-22T12:01:39Z</time></trkpt><trkpt lat="42.14772956664762" lon="14.696104004701445"><ele>82.0</ele><time>2026-03-22T12:01:40Z</time></trkpt><trkpt lat="42.14786350513165" lon="14.695965326547793"><ele>82.0</ele><time>2026-03-22T12:01:41Z</time></trkpt><trkpt lat="42.14800348679964" lon="14.695856983423473"><ele>82.0</ele><time>2026-03-22T12:01:42Z</time></trkpt><trkpt lat="42.14814695685073" lon="14.695767548542662"><ele>82.0</ele><time>2026-03-22T12:01:43Z</time></trkpt><trkpt lat="42.14828492089815" lon="14.695676561184046"><ele>82.0</ele><time>2026-03-22T12:01:44Z</time></trkpt><trkpt lat="42.148404679922805" lon="14.695597873163022"><ele>82.0</ele><time>2026-03-22T12:01:45Z</time></trkpt><trkpt lat="42.148499469339505" lon="14.695528544237005"><ele>82.0</ele><time>2026-03-22T12:01:46Z</time></trkpt><trkpt lat="42.148580958285365" lon="14.695471831691437"><ele>82.0</ele><time>2026-03-22T12:01:47Z</time></trkpt><trkpt lat="42.148642755808645" lon="14.695429635519615"><ele>82.0</ele><time>2026-03-22T12:01:48Z</time></trkpt><trkpt lat="42.148717692267084" lon="14.695364843046043"><ele>82.19999999999999</ele><time>2026-03-22T12:01:50Z</time></trkpt><trkpt lat="42.1486887982434" lon="14.695135659221913"><ele>82.4</ele><time>2026-03-22T12:01:54Z</time></trkpt><trkpt lat="42.148630938977256" lon="14.69504494834003"><ele>82.6</ele><time>2026-03-22T12:01:55Z</time></trkpt><trkpt lat="42.14858666749642" lon="14.69492742952265"><ele>82.80000000000001</ele><time>2026-03-22T12:01:56Z</time></trkpt><trkpt lat="42.14853764927389" lon="14.694837556378971"><ele>83.0</ele><time>2026-03-22T12:01:57Z</time></trkpt><trkpt lat="42.148482991904885" lon="14.694737344067585"><ele>83.0</ele><time>2026-03-22T12:01:58Z</time></trkpt><trkpt lat="42.148414970965966" lon="14.694644320641704"><ele>83.0</ele><time>2026-03-22T12:01:59Z</time></trkpt><trkpt lat="42.14836390707853" lon="14.694540866572405"><ele>83.0</ele><time>2026-03-22T12:02:00Z</time></trkpt><trkpt lat="42.14830844491865" lon="14.694442325897985"><ele>83.0</ele><time>2026-03-22T12:02:01Z</time></trkpt><trkpt lat="42.148250668050075" lon="14.69434698176844"><ele>83.0</ele><time>2026-03-22T12:02:02Z</time></trkpt><trkpt lat="42.14820446284964" lon="14.694248944722322"><ele>82.33333333333334</ele><time>2026-03-22T12:02:03Z</time></trkpt><trkpt lat="42.14814955102126" lon="14.694166209735641"><ele>81.66666666666667</ele><time>2026-03-22T12:02:04Z</time></trkpt><trkpt lat="42.14809032063896" lon="14.69408369764713"><ele>81.0</ele><time>2026-03-22T12:02:05Z</time></trkpt><trkpt lat="42.1480236516383" lon="14.694013617348471"><ele>80.33333333333333</ele><time>2026-03-22T12:02:06Z</time></trkpt><trkpt lat="42.147968134131006" lon="14.693923766514015"><ele>79.66666666666666</ele><time>2026-03-22T12:02:07Z</time></trkpt><trkpt lat="42.14790596607658" lon="14.693855385410426"><ele>79.0</ele><time>2026-03-22T12:02:08Z</time></trkpt><trkpt lat="42.14785048201855" lon="14.693794356255143"><ele>79.0</ele><time>2026-03-22T12:02:09Z</time></trkpt><trkpt lat="42.147771783318355" lon="14.693704609758843"><ele>79.0</ele><time>2026-03-22T12:02:11Z</time></trkpt><trkpt lat="42.14771546041266" lon="14.693637575700503"><ele>79.0</ele><time>2026-03-22T12:02:14Z</time></trkpt></trkseg></trk></gpx>